<?xml version="1.0" encoding="UTF-8" standalone="no" ?><gpx xmlns="http://www.topografix.com/GPX/1/1" xmlns:gpxx="http://www.garmin.com/xmlschemas/GpxExtensions/v3" xmlns:wptx1="http://www.garmin.com/xmlschemas/WaypointExtension/v1" xmlns:gpxtpx="http://www.garmin.com/xmlschemas/TrackPointExtension/v1" creator="GuideVTT.com" version="1.1" xmlns:xsi="http://www.w3.org/2001/XMLSchema-instance" xsi:schemaLocation="http://www.topografix.com/GPX/1/1 http://www.topografix.com/GPX/1/1/gpx.xsd http://www.garmin.com/xmlschemas/GpxExtensions/v3 http://www8.garmin.com/xmlschemas/GpxExtensionsv3.xsd http://www.garmin.com/xmlschemas/WaypointExtension/v1 http://www8.garmin.com/xmlschemas/WaypointExtensionv1.xsd http://www.garmin.com/xmlschemas/TrackPointExtension/v1 http://www.garmin.com/xmlschemas/TrackPointExtensionv1.xsd">
<metadata><link href="http://www.garmin.com"><text>Garmin International</text></link><time>2013-06-22T15:13:50Z</time></metadata>
<trk><name>bulle-saint_saturnin_les_apt_2011.gpx</name><extensions><gpxx:TrackExtension><gpxx:DisplayColor>Cyan</gpxx:DisplayColor></gpxx:TrackExtension></extensions><trkseg>
<trkpt lat="46.615361971780658" lon="7.052559982985258"><ele></ele><time>2015-2-2T20:24:54Z</time></trkpt>
<trkpt lat="46.615227945148945" lon="7.051898986101151"><ele></ele><time>2015-2-2T20:24:57Z</time></trkpt>
<trkpt lat="46.615021917968988" lon="7.050866922363639"><ele></ele><time>2015-2-2T20:25:0Z</time></trkpt>
<trkpt lat="46.614792924374342" lon="7.049733940511942"><ele></ele><time>2015-2-2T20:25:3Z</time></trkpt>
<trkpt lat="46.614506933838129" lon="7.048382945358753"><ele></ele><time>2015-2-2T20:25:6Z</time></trkpt>
<trkpt lat="46.614359999075532" lon="7.047678949311376"><ele></ele><time>2015-2-2T20:25:9Z</time></trkpt>
<trkpt lat="46.614169981330633" lon="7.046737996861339"><ele></ele><time>2015-2-2T20:25:12Z</time></trkpt>
<trkpt lat="46.614039978012443" lon="7.046107929199934"><ele></ele><time>2015-2-2T20:25:15Z</time></trkpt>
<trkpt lat="46.613910980522633" lon="7.045442992821336"><ele></ele><time>2015-2-2T20:25:18Z</time></trkpt>
<trkpt lat="46.613775948062539" lon="7.044800939038396"><ele></ele><time>2015-2-2T20:25:21Z</time></trkpt>
<trkpt lat="46.61362498998642" lon="7.044037934392691"><ele></ele><time>2015-2-2T20:25:24Z</time></trkpt>
<trkpt lat="46.613427931442857" lon="7.042810991406441"><ele></ele><time>2015-2-2T20:25:27Z</time></trkpt>
<trkpt lat="46.613396918401122" lon="7.042060978710651"><ele></ele><time>2015-2-2T20:25:30Z</time></trkpt>
<trkpt lat="46.61336992867291" lon="7.041361927986145"><ele></ele><time>2015-2-2T20:25:33Z</time></trkpt>
<trkpt lat="46.613342938944697" lon="7.040675953030586"><ele></ele><time>2015-2-2T20:25:36Z</time></trkpt>
<trkpt lat="46.613325923681259" lon="7.040004981681705"><ele></ele><time>2015-2-2T20:25:39Z</time></trkpt>
<trkpt lat="46.61343396641314" lon="7.038771919906139"><ele></ele><time>2015-2-2T20:25:42Z</time></trkpt>
<trkpt lat="46.613593976944685" lon="7.037662994116545"><ele></ele><time>2015-2-2T20:25:45Z</time></trkpt>
<trkpt lat="46.613736972212791" lon="7.036636965349317"><ele></ele><time>2015-2-2T20:25:48Z</time></trkpt>
<trkpt lat="46.613903939723969" lon="7.035406921058893"><ele></ele><time>2015-2-2T20:25:51Z</time></trkpt>
<trkpt lat="46.614082977175713" lon="7.034112922847271"><ele></ele><time>2015-2-2T20:25:54Z</time></trkpt>
<trkpt lat="46.614425964653492" lon="7.03305697068572"><ele></ele><time>2015-2-2T20:25:57Z</time></trkpt>
<trkpt lat="46.614719917997718" lon="7.032517930492759"><ele></ele><time>2015-2-2T20:26:0Z</time></trkpt>
<trkpt lat="46.615105988457799" lon="7.031908985227346"><ele></ele><time>2015-2-2T20:26:3Z</time></trkpt>
<trkpt lat="46.615553917363286" lon="7.031029975041747"><ele></ele><time>2015-2-2T20:26:6Z</time></trkpt>
<trkpt lat="46.615926995873451" lon="7.03024392016232"><ele></ele><time>2015-2-2T20:26:9Z</time></trkpt>
<trkpt lat="46.616351958364248" lon="7.029213951900601"><ele></ele><time>2015-2-2T20:26:12Z</time></trkpt>
<trkpt lat="46.616598973050714" lon="7.028572987765074"><ele></ele><time>2015-2-2T20:26:15Z</time></trkpt>
<trkpt lat="46.616941960528493" lon="7.027936968952417"><ele></ele><time>2015-2-2T20:26:18Z</time></trkpt>
<trkpt lat="46.617743941023946" lon="7.027151919901371"><ele></ele><time>2015-2-2T20:26:21Z</time></trkpt>
<trkpt lat="46.618056921288371" lon="7.026536939665675"><ele></ele><time>2015-2-2T20:26:24Z</time></trkpt>
<trkpt lat="46.618037978187203" lon="7.025400940328836"><ele></ele><time>2015-2-2T20:26:27Z</time></trkpt>
<trkpt lat="46.617849972099066" lon="7.024198975414038"><ele></ele><time>2015-2-2T20:26:30Z</time></trkpt>
<trkpt lat="46.617690967395902" lon="7.02330194413662"><ele></ele><time>2015-2-2T20:26:33Z</time></trkpt>
<trkpt lat="46.617598934099078" lon="7.022430980578065"><ele></ele><time>2015-2-2T20:26:36Z</time></trkpt>
<trkpt lat="46.617658948525786" lon="7.02151995152235"><ele></ele><time>2015-2-2T20:26:39Z</time></trkpt>
<trkpt lat="46.617732960730791" lon="7.020759964361787"><ele></ele><time>2015-2-2T20:26:42Z</time></trkpt>
<trkpt lat="46.617400953546166" lon="7.019639974460006"><ele></ele><time>2015-2-2T20:26:45Z</time></trkpt>
<trkpt lat="46.617236919701099" lon="7.018784936517477"><ele></ele><time>2015-2-2T20:26:48Z</time></trkpt>
<trkpt lat="46.617917949333787" lon="7.018246985971928"><ele></ele><time>2015-2-2T20:26:51Z</time></trkpt>
<trkpt lat="46.618345929309726" lon="7.017885977402329"><ele></ele><time>2015-2-2T20:26:54Z</time></trkpt>
<trkpt lat="46.618735939264297" lon="7.017461936920881"><ele></ele><time>2015-2-2T20:26:57Z</time></trkpt>
<trkpt lat="46.618946995586157" lon="7.016670936718583"><ele></ele><time>2015-2-2T20:27:0Z</time></trkpt>
<trkpt lat="46.61888999864459" lon="7.015685979276896"><ele></ele><time>2015-2-2T20:27:3Z</time></trkpt>
<trkpt lat="46.61882596090436" lon="7.014586944133043"><ele></ele><time>2015-2-2T20:27:6Z</time></trkpt>
<trkpt lat="46.61871992982924" lon="7.013756968080998"><ele></ele><time>2015-2-2T20:27:9Z</time></trkpt>
<trkpt lat="46.618574922904372" lon="7.012846944853663"><ele></ele><time>2015-2-2T20:27:12Z</time></trkpt>
<trkpt lat="46.618522955104709" lon="7.012095926329494"><ele></ele><time>2015-2-2T20:27:15Z</time></trkpt>
<trkpt lat="46.618397980928421" lon="7.010880969464779"><ele></ele><time>2015-2-2T20:27:18Z</time></trkpt>
<trkpt lat="46.618241993710399" lon="7.009966922923923"><ele></ele><time>2015-2-2T20:27:21Z</time></trkpt>
<trkpt lat="46.618669973686337" lon="7.009133929386735"><ele></ele><time>2015-2-2T20:27:24Z</time></trkpt>
<trkpt lat="46.618994940072298" lon="7.008613999933004"><ele></ele><time>2015-2-2T20:27:27Z</time></trkpt>
<trkpt lat="46.619375981390476" lon="7.007415974512696"><ele></ele><time>2015-2-2T20:27:30Z</time></trkpt>
<trkpt lat="46.619474971666932" lon="7.006661938503385"><ele></ele><time>2015-2-2T20:27:33Z</time></trkpt>
<trkpt lat="46.619412945583463" lon="7.006011921912432"><ele></ele><time>2015-2-2T20:27:36Z</time></trkpt>
<trkpt lat="46.619265927001834" lon="7.004848932847381"><ele></ele><time>2015-2-2T20:27:39Z</time></trkpt>
<trkpt lat="46.619217982515693" lon="7.004189947620034"><ele></ele><time>2015-2-2T20:27:42Z</time></trkpt>
<trkpt lat="46.619317978620529" lon="7.003504978492856"><ele></ele><time>2015-2-2T20:27:45Z</time></trkpt>
<trkpt lat="46.619333988055587" lon="7.002475932240486"><ele></ele><time>2015-2-2T20:27:48Z</time></trkpt>
<trkpt lat="46.619163919240236" lon="7.001586947590113"><ele></ele><time>2015-2-2T20:27:51Z</time></trkpt>
<trkpt lat="46.619133995845914" lon="7.000340977683663"><ele></ele><time>2015-2-2T20:27:54Z</time></trkpt>
<trkpt lat="46.619297945871949" lon="6.999372951686382"><ele></ele><time>2015-2-2T20:27:57Z</time></trkpt>
<trkpt lat="46.619422920048237" lon="6.998565942049027"><ele></ele><time>2015-2-2T20:28:0Z</time></trkpt>
<trkpt lat="46.619635988026857" lon="6.997867980971932"><ele></ele><time>2015-2-2T20:28:3Z</time></trkpt>
<trkpt lat="46.62015893496573" lon="6.997050996869803"><ele></ele><time>2015-2-2T20:28:6Z</time></trkpt>
<trkpt lat="46.620554979890585" lon="6.996237952262163"><ele></ele><time>2015-2-2T20:28:9Z</time></trkpt>
<trkpt lat="46.620655981823802" lon="6.995443934574723"><ele></ele><time>2015-2-2T20:28:12Z</time></trkpt>
<trkpt lat="46.620615916326642" lon="6.994629967957735"><ele></ele><time>2015-2-2T20:28:15Z</time></trkpt>
<trkpt lat="46.620569983497262" lon="6.993584996089339"><ele></ele><time>2015-2-2T20:28:18Z</time></trkpt>
<trkpt lat="46.620808951556683" lon="6.992603978142142"><ele></ele><time>2015-2-2T20:28:21Z</time></trkpt>
<trkpt lat="46.621049931272864" lon="6.991561939939857"><ele></ele><time>2015-2-2T20:28:24Z</time></trkpt>
<trkpt lat="46.621010955423117" lon="6.990565918385983"><ele></ele><time>2015-2-2T20:28:27Z</time></trkpt>
<trkpt lat="46.620617927983403" lon="6.989581966772676"><ele></ele><time>2015-2-2T20:28:30Z</time></trkpt>
<trkpt lat="46.62071499042213" lon="6.989071927964687"><ele></ele><time>2015-2-2T20:28:33Z</time></trkpt>
<trkpt lat="46.6211689542979" lon="6.989005962386727"><ele></ele><time>2015-2-2T20:28:36Z</time></trkpt>
<trkpt lat="46.621190998703241" lon="6.987982951104641"><ele></ele><time>2015-2-2T20:28:39Z</time></trkpt>
<trkpt lat="46.620992934331298" lon="6.986838988959789"><ele></ele><time>2015-2-2T20:28:42Z</time></trkpt>
<trkpt lat="46.620871983468533" lon="6.986112948507071"><ele></ele><time>2015-2-2T20:28:45Z</time></trkpt>
<trkpt lat="46.620741980150342" lon="6.985242990776897"><ele></ele><time>2015-2-2T20:28:48Z</time></trkpt>
<trkpt lat="46.620561936870217" lon="6.984032979235053"><ele></ele><time>2015-2-2T20:28:51Z</time></trkpt>
<trkpt lat="46.620400920510292" lon="6.983117926865816"><ele></ele><time>2015-2-2T20:28:54Z</time></trkpt>
<trkpt lat="46.620389940217137" lon="6.982025932520628"><ele></ele><time>2015-2-2T20:28:57Z</time></trkpt>
<trkpt lat="46.620400920510292" lon="6.98086797259748"><ele></ele><time>2015-2-2T20:29:0Z</time></trkpt>
<trkpt lat="46.619941927492619" lon="6.979874968528748"><ele></ele><time>2015-2-2T20:29:3Z</time></trkpt>
<trkpt lat="46.619559964165092" lon="6.978835947811604"><ele></ele><time>2015-2-2T20:29:6Z</time></trkpt>
<trkpt lat="46.619335999712348" lon="6.978157935664058"><ele></ele><time>2015-2-2T20:29:9Z</time></trkpt>
<trkpt lat="46.619187975302339" lon="6.977531975135207"><ele></ele><time>2015-2-2T20:29:12Z</time></trkpt>
<trkpt lat="46.619363995268941" lon="6.976863937452436"><ele></ele><time>2015-2-2T20:29:15Z</time></trkpt>
<trkpt lat="46.619948968291283" lon="6.976175950840116"><ele></ele><time>2015-2-2T20:29:18Z</time></trkpt>
<trkpt lat="46.620299918577075" lon="6.975629953667522"><ele></ele><time>2015-2-2T20:29:21Z</time></trkpt>
<trkpt lat="46.619951985776424" lon="6.974332937970758"><ele></ele><time>2015-2-2T20:29:24Z</time></trkpt>
<trkpt lat="46.619646968320012" lon="6.973501956090331"><ele></ele><time>2015-2-2T20:29:27Z</time></trkpt>
<trkpt lat="46.619395930320024" lon="6.972815981134772"><ele></ele><time>2015-2-2T20:29:30Z</time></trkpt>
<trkpt lat="46.618951940909028" lon="6.971629941836"><ele></ele><time>2015-2-2T20:29:33Z</time></trkpt>
<trkpt lat="46.618724958971143" lon="6.970982942730188"><ele></ele><time>2015-2-2T20:29:36Z</time></trkpt>
<trkpt lat="46.618492947891355" lon="6.970323957502842"><ele></ele><time>2015-2-2T20:29:39Z</time></trkpt>
<trkpt lat="46.618253979831934" lon="6.969664972275496"><ele></ele><time>2015-2-2T20:29:42Z</time></trkpt>
<trkpt lat="46.617937982082367" lon="6.968928957358003"><ele></ele><time>2015-2-2T20:29:45Z</time></trkpt>
<trkpt lat="46.61751595325768" lon="6.967665972188115"><ele></ele><time>2015-2-2T20:29:48Z</time></trkpt>
<trkpt lat="46.617350997403264" lon="6.967009920626879"><ele></ele><time>2015-2-2T20:29:51Z</time></trkpt>
<trkpt lat="46.616937937214971" lon="6.966209951788187"><ele></ele><time>2015-2-2T20:29:54Z</time></trkpt>
<trkpt lat="46.616510963067412" lon="6.965694967657328"><ele></ele><time>2015-2-2T20:29:57Z</time></trkpt>
<trkpt lat="46.616171998903155" lon="6.965254917740822"><ele></ele><time>2015-2-2T20:30:0Z</time></trkpt>
<trkpt lat="46.615791963413358" lon="6.964761978015304"><ele></ele><time>2015-2-2T20:30:3Z</time></trkpt>
<trkpt lat="46.615094924345613" lon="6.963859917595983"><ele></ele><time>2015-2-2T20:30:6Z</time></trkpt>
<trkpt lat="46.614189930260181" lon="6.963151982054114"><ele></ele><time>2015-2-2T20:30:9Z</time></trkpt>
<trkpt lat="46.61386395804584" lon="6.962669938802719"><ele></ele><time>2015-2-2T20:30:12Z</time></trkpt>
<trkpt lat="46.613551983609796" lon="6.962034925818443"><ele></ele><time>2015-2-2T20:30:15Z</time></trkpt>
<trkpt lat="46.613233974203467" lon="6.961389938369393"><ele></ele><time>2015-2-2T20:30:18Z</time></trkpt>
<trkpt lat="46.612848993390799" lon="6.960610924288631"><ele></ele><time>2015-2-2T20:30:21Z</time></trkpt>
<trkpt lat="46.612539952620864" lon="6.95998496375978"><ele></ele><time>2015-2-2T20:30:24Z</time></trkpt>
<trkpt lat="46.612032931298018" lon="6.958957929164171"><ele></ele><time>2015-2-2T20:30:27Z</time></trkpt>
<trkpt lat="46.611685920506716" lon="6.958256950601935"><ele></ele><time>2015-2-2T20:30:30Z</time></trkpt>
<trkpt lat="46.611334970220923" lon="6.957544991746545"><ele></ele><time>2015-2-2T20:30:33Z</time></trkpt>
<trkpt lat="46.610947977751493" lon="6.95676195435226"><ele></ele><time>2015-2-2T20:30:36Z</time></trkpt>
<trkpt lat="46.610595937818289" lon="6.956048989668489"><ele></ele><time>2015-2-2T20:30:39Z</time></trkpt>
<trkpt lat="46.610186984762549" lon="6.955301994457841"><ele></ele><time>2015-2-2T20:30:42Z</time></trkpt>
<trkpt lat="46.609817929565907" lon="6.954686930403113"><ele></ele><time>2015-2-2T20:30:45Z</time></trkpt>
<trkpt lat="46.609454993158579" lon="6.954061975702643"><ele></ele><time>2015-2-2T20:30:48Z</time></trkpt>
<trkpt lat="46.609132960438728" lon="6.953374994918704"><ele></ele><time>2015-2-2T20:30:51Z</time></trkpt>
<trkpt lat="46.608905978500843" lon="6.952706957235932"><ele></ele><time>2015-2-2T20:30:54Z</time></trkpt>
<trkpt lat="46.608541952446103" lon="6.952087953686714"><ele></ele><time>2015-2-2T20:30:57Z</time></trkpt>
<trkpt lat="46.608110954985023" lon="6.951361997053027"><ele></ele><time>2015-2-2T20:31:0Z</time></trkpt>
<trkpt lat="46.607792945578694" lon="6.950807953253388"><ele></ele><time>2015-2-2T20:31:3Z</time></trkpt>
<trkpt lat="46.607436966150999" lon="6.950181992724538"><ele></ele><time>2015-2-2T20:31:6Z</time></trkpt>
<trkpt lat="46.607058942317963" lon="6.949438937008381"><ele></ele><time>2015-2-2T20:31:9Z</time></trkpt>
<trkpt lat="46.60675291903317" lon="6.948813982307911"><ele></ele><time>2015-2-2T20:31:12Z</time></trkpt>
<trkpt lat="46.606369949877262" lon="6.948025999590755"><ele></ele><time>2015-2-2T20:31:15Z</time></trkpt>
<trkpt lat="46.606074990704656" lon="6.947342958301306"><ele></ele><time>2015-2-2T20:31:18Z</time></trkpt>
<trkpt lat="46.605660924687982" lon="6.946293963119388"><ele></ele><time>2015-2-2T20:31:21Z</time></trkpt>
<trkpt lat="46.605335958302021" lon="6.945446971803904"><ele></ele><time>2015-2-2T20:31:24Z</time></trkpt>
<trkpt lat="46.60505692474544" lon="6.944782957434654"><ele></ele><time>2015-2-2T20:31:27Z</time></trkpt>
<trkpt lat="46.60479499027133" lon="6.943975947797298"><ele></ele><time>2015-2-2T20:31:30Z</time></trkpt>
<trkpt lat="46.604657946154475" lon="6.943296929821372"><ele></ele><time>2015-2-2T20:31:33Z</time></trkpt>
<trkpt lat="46.604498941451311" lon="6.942335944622755"><ele></ele><time>2015-2-2T20:31:36Z</time></trkpt>
<trkpt lat="46.604372961446643" lon="6.941606970503926"><ele></ele><time>2015-2-2T20:31:39Z</time></trkpt>
<trkpt lat="46.604229966178536" lon="6.940793925896287"><ele></ele><time>2015-2-2T20:31:42Z</time></trkpt>
<trkpt lat="46.604106919839978" lon="6.940066963434219"><ele></ele><time>2015-2-2T20:31:45Z</time></trkpt>
<trkpt lat="46.603443995118141" lon="6.939806956797838"><ele></ele><time>2015-2-2T20:31:48Z</time></trkpt>
<trkpt lat="46.602773945778608" lon="6.939304964616895"><ele></ele><time>2015-2-2T20:31:51Z</time></trkpt>
<trkpt lat="46.602160977199674" lon="6.938579929992557"><ele></ele><time>2015-2-2T20:31:54Z</time></trkpt>
<trkpt lat="46.601401995867491" lon="6.938065951690078"><ele></ele><time>2015-2-2T20:31:57Z</time></trkpt>
<trkpt lat="46.600853987038136" lon="6.937783984467387"><ele></ele><time>2015-2-2T20:32:0Z</time></trkpt>
<trkpt lat="46.600238922983408" lon="6.93705995567143"><ele></ele><time>2015-2-2T20:32:3Z</time></trkpt>
<trkpt lat="46.599852936342359" lon="6.936552934348583"><ele></ele><time>2015-2-2T20:32:6Z</time></trkpt>
<trkpt lat="46.599417999386787" lon="6.935993945226073"><ele></ele><time>2015-2-2T20:32:9Z</time></trkpt>
<trkpt lat="46.59884593449533" lon="6.935295984148979"><ele></ele><time>2015-2-2T20:32:12Z</time></trkpt>
<trkpt lat="46.598148979246616" lon="6.9343969412148"><ele></ele><time>2015-2-2T20:32:15Z</time></trkpt>
<trkpt lat="46.597667941823602" lon="6.933750947937369"><ele></ele><time>2015-2-2T20:32:18Z</time></trkpt>
<trkpt lat="46.597121944651008" lon="6.933034965768457"><ele></ele><time>2015-2-2T20:32:21Z</time></trkpt>
<trkpt lat="46.596681978553534" lon="6.932465918362141"><ele></ele><time>2015-2-2T20:32:24Z</time></trkpt>
<trkpt lat="46.596266990527511" lon="6.931843981146812"><ele></ele><time>2015-2-2T20:32:27Z</time></trkpt>
<trkpt lat="46.595637928694487" lon="6.930605974048376"><ele></ele><time>2015-2-2T20:32:30Z</time></trkpt>
<trkpt lat="46.595252947881818" lon="6.929785972461104"><ele></ele><time>2015-2-2T20:32:33Z</time></trkpt>
<trkpt lat="46.59489193931222" lon="6.928929928690195"><ele></ele><time>2015-2-2T20:32:36Z</time></trkpt>
<trkpt lat="46.594600919634104" lon="6.928287958726287"><ele></ele><time>2015-2-2T20:32:39Z</time></trkpt>
<trkpt lat="46.594116948544979" lon="6.927319932729006"><ele></ele><time>2015-2-2T20:32:42Z</time></trkpt>
<trkpt lat="46.593675976619124" lon="6.926325922831893"><ele></ele><time>2015-2-2T20:32:45Z</time></trkpt>
<trkpt lat="46.5933249425143" lon="6.925513967871666"><ele></ele><time>2015-2-2T20:32:48Z</time></trkpt>
<trkpt lat="46.592989917844534" lon="6.924738977104425"><ele></ele><time>2015-2-2T20:32:51Z</time></trkpt>
<trkpt lat="46.592714991420507" lon="6.923987958580256"><ele></ele><time>2015-2-2T20:32:54Z</time></trkpt>
<trkpt lat="46.592504940927029" lon="6.923388987779617"><ele></ele><time>2015-2-2T20:32:57Z</time></trkpt>
<trkpt lat="46.592258932068944" lon="6.922691948711872"><ele></ele><time>2015-2-2T20:33:0Z</time></trkpt>
<trkpt lat="46.591907981783152" lon="6.92208694294095"><ele></ele><time>2015-2-2T20:33:3Z</time></trkpt>
<trkpt lat="46.591343963518739" lon="6.921696932986379"><ele></ele><time>2015-2-2T20:33:6Z</time></trkpt>
<trkpt lat="46.590924952179193" lon="6.921466933563352"><ele></ele><time>2015-2-2T20:33:9Z</time></trkpt>
<trkpt lat="46.590217938646674" lon="6.921432986855507"><ele></ele><time>2015-2-2T20:33:12Z</time></trkpt>
<trkpt lat="46.589754922315478" lon="6.921442961320281"><ele></ele><time>2015-2-2T20:33:15Z</time></trkpt>
<trkpt lat="46.589285954833031" lon="6.921500964090228"><ele></ele><time>2015-2-2T20:33:18Z</time></trkpt>
<trkpt lat="46.589015973731875" lon="6.922038998454809"><ele></ele><time>2015-2-2T20:33:21Z</time></trkpt>
<trkpt lat="46.588617917150259" lon="6.922934940084815"><ele></ele><time>2015-2-2T20:33:24Z</time></trkpt>
<trkpt lat="46.588259926065803" lon="6.92376097664237"><ele></ele><time>2015-2-2T20:33:27Z</time></trkpt>
<trkpt lat="46.587902940809727" lon="6.924609979614615"><ele></ele><time>2015-2-2T20:33:30Z</time></trkpt>
<trkpt lat="46.587184946984053" lon="6.924637975171208"><ele></ele><time>2015-2-2T20:33:33Z</time></trkpt>
<trkpt lat="46.586723942309618" lon="6.924500931054354"><ele></ele><time>2015-2-2T20:33:36Z</time></trkpt>
<trkpt lat="46.586236953735352" lon="6.92459992133081"><ele></ele><time>2015-2-2T20:33:39Z</time></trkpt>
<trkpt lat="46.585715934634209" lon="6.92468399181962"><ele></ele><time>2015-2-2T20:33:42Z</time></trkpt>
<trkpt lat="46.585277980193496" lon="6.92444896325469"><ele></ele><time>2015-2-2T20:33:45Z</time></trkpt>
<trkpt lat="46.584833990782499" lon="6.92412793636322"><ele></ele><time>2015-2-2T20:33:48Z</time></trkpt>
<trkpt lat="46.584327975288033" lon="6.923752930015326"><ele></ele><time>2015-2-2T20:33:51Z</time></trkpt>
<trkpt lat="46.583830928429961" lon="6.923413965851069"><ele></ele><time>2015-2-2T20:33:54Z</time></trkpt>
<trkpt lat="46.583414934575558" lon="6.923145996406674"><ele></ele><time>2015-2-2T20:33:57Z</time></trkpt>
<trkpt lat="46.582990977913141" lon="6.922917924821377"><ele></ele><time>2015-2-2T20:34:0Z</time></trkpt>
<trkpt lat="46.582440957427025" lon="6.922610979527235"><ele></ele><time>2015-2-2T20:34:3Z</time></trkpt>
<trkpt lat="46.581985987722874" lon="6.922334963455796"><ele></ele><time>2015-2-2T20:34:6Z</time></trkpt>
<trkpt lat="46.58135793171823" lon="6.921909917145968"><ele></ele><time>2015-2-2T20:34:9Z</time></trkpt>
<trkpt lat="46.580721996724606" lon="6.921401973813772"><ele></ele><time>2015-2-2T20:34:12Z</time></trkpt>
<trkpt lat="46.579970978200436" lon="6.920637963339686"><ele></ele><time>2015-2-2T20:34:15Z</time></trkpt>
<trkpt lat="46.579296989366412" lon="6.919959951192141"><ele></ele><time>2015-2-2T20:34:18Z</time></trkpt>
<trkpt lat="46.578768929466605" lon="6.919475980103016"><ele></ele><time>2015-2-2T20:34:21Z</time></trkpt>
<trkpt lat="46.578110950067639" lon="6.918821940198541"><ele></ele><time>2015-2-2T20:34:24Z</time></trkpt>
<trkpt lat="46.577639970928431" lon="6.918361941352487"><ele></ele><time>2015-2-2T20:34:27Z</time></trkpt>
<trkpt lat="46.577123980969191" lon="6.917859949171543"><ele></ele><time>2015-2-2T20:34:30Z</time></trkpt>
<trkpt lat="46.576577983796597" lon="6.917326943948865"><ele></ele><time>2015-2-2T20:34:33Z</time></trkpt>
<trkpt lat="46.576087977737188" lon="6.916923942044377"><ele></ele><time>2015-2-2T20:34:36Z</time></trkpt>
<trkpt lat="46.575860995799303" lon="6.917859949171543"><ele></ele><time>2015-2-2T20:34:39Z</time></trkpt>
<trkpt lat="46.575643988326192" lon="6.9187549687922"><ele></ele><time>2015-2-2T20:34:42Z</time></trkpt>
<trkpt lat="46.575072929263115" lon="6.918843984603882"><ele></ele><time>2015-2-2T20:34:45Z</time></trkpt>
<trkpt lat="46.574573954567313" lon="6.918597975745797"><ele></ele><time>2015-2-2T20:34:48Z</time></trkpt>
<trkpt lat="46.573968948796391" lon="6.918299999088049"><ele></ele><time>2015-2-2T20:34:51Z</time></trkpt>
<trkpt lat="46.57327794469893" lon="6.917958939447999"><ele></ele><time>2015-2-2T20:34:54Z</time></trkpt>
<trkpt lat="46.572837978601456" lon="6.917741931974888"><ele></ele><time>2015-2-2T20:34:57Z</time></trkpt>
<trkpt lat="46.572026945650578" lon="6.9173389300704"><ele></ele><time>2015-2-2T20:35:0Z</time></trkpt>
<trkpt lat="46.571218930184841" lon="6.916937939822674"><ele></ele><time>2015-2-2T20:35:3Z</time></trkpt>
<trkpt lat="46.570445951074362" lon="6.916572991758585"><ele></ele><time>2015-2-2T20:35:6Z</time></trkpt>
<trkpt lat="46.569785960018635" lon="6.916261939331889"><ele></ele><time>2015-2-2T20:35:9Z</time></trkpt>
<trkpt lat="46.569201992824674" lon="6.915983995422721"><ele></ele><time>2015-2-2T20:35:12Z</time></trkpt>
<trkpt lat="46.568551976233721" lon="6.915669925510883"><ele></ele><time>2015-2-2T20:35:15Z</time></trkpt>
<trkpt lat="46.568008996546268" lon="6.915407991036773"><ele></ele><time>2015-2-2T20:35:18Z</time></trkpt>
<trkpt lat="46.567484959959984" lon="6.91521193832159"><ele></ele><time>2015-2-2T20:35:21Z</time></trkpt>
<trkpt lat="46.567073995247483" lon="6.913939984515309"><ele></ele><time>2015-2-2T20:35:24Z</time></trkpt>
<trkpt lat="46.566776940599084" lon="6.913019986823201"><ele></ele><time>2015-2-2T20:35:27Z</time></trkpt>
<trkpt lat="46.566387936472893" lon="6.91181693226099"><ele></ele><time>2015-2-2T20:35:30Z</time></trkpt>
<trkpt lat="46.56601695343852" lon="6.910639945417643"><ele></ele><time>2015-2-2T20:35:33Z</time></trkpt>
<trkpt lat="46.56573498621583" lon="6.909624980762601"><ele></ele><time>2015-2-2T20:35:36Z</time></trkpt>
<trkpt lat="46.565593918785453" lon="6.908814953640103"><ele></ele><time>2015-2-2T20:35:39Z</time></trkpt>
<trkpt lat="46.565454946830869" lon="6.907603936269879"><ele></ele><time>2015-2-2T20:35:42Z</time></trkpt>
<trkpt lat="46.565356962382793" lon="6.906688967719674"><ele></ele><time>2015-2-2T20:35:45Z</time></trkpt>
<trkpt lat="46.565035935491323" lon="6.905364962294698"><ele></ele><time>2015-2-2T20:35:48Z</time></trkpt>
<trkpt lat="46.564816916361451" lon="6.904657948762178"><ele></ele><time>2015-2-2T20:35:51Z</time></trkpt>
<trkpt lat="46.56457694247365" lon="6.903861919417977"><ele></ele><time>2015-2-2T20:35:54Z</time></trkpt>
<trkpt lat="46.564362952485681" lon="6.902913926169276"><ele></ele><time>2015-2-2T20:35:57Z</time></trkpt>
<trkpt lat="46.564337974414229" lon="6.90214698202908"><ele></ele><time>2015-2-2T20:36:0Z</time></trkpt>
<trkpt lat="46.564376950263977" lon="6.901095975190401"><ele></ele><time>2015-2-2T20:36:3Z</time></trkpt>
<trkpt lat="46.564242923632264" lon="6.900142952799797"><ele></ele><time>2015-2-2T20:36:6Z</time></trkpt>
<trkpt lat="46.563935978338122" lon="6.899538952857256"><ele></ele><time>2015-2-2T20:36:9Z</time></trkpt>
<trkpt lat="46.563484948128462" lon="6.899623945355415"><ele></ele><time>2015-2-2T20:36:12Z</time></trkpt>
<trkpt lat="46.562746921554208" lon="6.89976392313838"><ele></ele><time>2015-2-2T20:36:15Z</time></trkpt>
<trkpt lat="46.561872940510511" lon="6.899928962811828"><ele></ele><time>2015-2-2T20:36:18Z</time></trkpt>
<trkpt lat="46.561037935316563" lon="6.900087967514992"><ele></ele><time>2015-2-2T20:36:21Z</time></trkpt>
<trkpt lat="46.560197984799743" lon="6.900241943076253"><ele></ele><time>2015-2-2T20:36:24Z</time></trkpt>
<trkpt lat="46.559640923514962" lon="6.900390973314643"><ele></ele><time>2015-2-2T20:36:27Z</time></trkpt>
<trkpt lat="46.558823939412832" lon="6.900890953838825"><ele></ele><time>2015-2-2T20:36:30Z</time></trkpt>
<trkpt lat="46.558240978047252" lon="6.901398980990052"><ele></ele><time>2015-2-2T20:36:33Z</time></trkpt>
<trkpt lat="46.557586938142776" lon="6.901784967631102"><ele></ele><time>2015-2-2T20:36:36Z</time></trkpt>
<trkpt lat="46.556893922388554" lon="6.901925951242447"><ele></ele><time>2015-2-2T20:36:39Z</time></trkpt>
<trkpt lat="46.556118931621313" lon="6.902042962610722"><ele></ele><time>2015-2-2T20:36:42Z</time></trkpt>
<trkpt lat="46.555666979402304" lon="6.902112951502204"><ele></ele><time>2015-2-2T20:36:45Z</time></trkpt>
<trkpt lat="46.554880924522877" lon="6.902234992012382"><ele></ele><time>2015-2-2T20:36:48Z</time></trkpt>
<trkpt lat="46.554262926802039" lon="6.902334988117218"><ele></ele><time>2015-2-2T20:36:51Z</time></trkpt>
<trkpt lat="46.553800916299224" lon="6.902410928159952"><ele></ele><time>2015-2-2T20:36:54Z</time></trkpt>
<trkpt lat="46.553120976313949" lon="6.902522994205356"><ele></ele><time>2015-2-2T20:36:57Z</time></trkpt>
<trkpt lat="46.552453944459558" lon="6.902389973402023"><ele></ele><time>2015-2-2T20:37:0Z</time></trkpt>
<trkpt lat="46.551856985315681" lon="6.902158968150616"><ele></ele><time>2015-2-2T20:37:3Z</time></trkpt>
<trkpt lat="46.551201939582825" lon="6.901882952079177"><ele></ele><time>2015-2-2T20:37:6Z</time></trkpt>
<trkpt lat="46.550454944372177" lon="6.9015899207443"><ele></ele><time>2015-2-2T20:37:9Z</time></trkpt>
<trkpt lat="46.549784978851676" lon="6.901640966534615"><ele></ele><time>2015-2-2T20:37:12Z</time></trkpt>
<trkpt lat="46.549533940851688" lon="6.901261936873198"><ele></ele><time>2015-2-2T20:37:15Z</time></trkpt>
<trkpt lat="46.549216937273741" lon="6.900488957762718"><ele></ele><time>2015-2-2T20:37:18Z</time></trkpt>
<trkpt lat="46.548155955970287" lon="6.89963199198246"><ele></ele><time>2015-2-2T20:37:21Z</time></trkpt>
<trkpt lat="46.547482972964644" lon="6.899176938459277"><ele></ele><time>2015-2-2T20:37:24Z</time></trkpt>
<trkpt lat="46.546682920306921" lon="6.898630941286683"><ele></ele><time>2015-2-2T20:37:27Z</time></trkpt>
<trkpt lat="46.546108927577734" lon="6.898227939382196"><ele></ele><time>2015-2-2T20:37:30Z</time></trkpt>
<trkpt lat="46.5453249681741" lon="6.897968938574195"><ele></ele><time>2015-2-2T20:37:33Z</time></trkpt>
<trkpt lat="46.544728931039572" lon="6.897798953577876"><ele></ele><time>2015-2-2T20:37:36Z</time></trkpt>
<trkpt lat="46.544111939147115" lon="6.897622933611274"><ele></ele><time>2015-2-2T20:37:39Z</time></trkpt>
<trkpt lat="46.543318927288055" lon="6.897624945268035"><ele></ele><time>2015-2-2T20:37:42Z</time></trkpt>
<trkpt lat="46.542711993679404" lon="6.897750925272703"><ele></ele><time>2015-2-2T20:37:45Z</time></trkpt>
<trkpt lat="46.542177982628345" lon="6.897860979661346"><ele></ele><time>2015-2-2T20:37:48Z</time></trkpt>
<trkpt lat="46.541662998497486" lon="6.897966926917434"><ele></ele><time>2015-2-2T20:37:51Z</time></trkpt>
<trkpt lat="46.540633952245116" lon="6.897986959666014"><ele></ele><time>2015-2-2T20:37:54Z</time></trkpt>
<trkpt lat="46.539874970912933" lon="6.897960975766182"><ele></ele><time>2015-2-2T20:37:57Z</time></trkpt>
<trkpt lat="46.539387982338667" lon="6.897892998531461"><ele></ele><time>2015-2-2T20:38:0Z</time></trkpt>
<trkpt lat="46.538508972153068" lon="6.897585969418287"><ele></ele><time>2015-2-2T20:38:3Z</time></trkpt>
<trkpt lat="46.537820985540748" lon="6.897351946681738"><ele></ele><time>2015-2-2T20:38:6Z</time></trkpt>
<trkpt lat="46.537370961159468" lon="6.897204928100109"><ele></ele><time>2015-2-2T20:38:9Z</time></trkpt>
<trkpt lat="46.536918925121427" lon="6.897057993337512"><ele></ele><time>2015-2-2T20:38:12Z</time></trkpt>
<trkpt lat="46.536070927977562" lon="6.896933941170573"><ele></ele><time>2015-2-2T20:38:15Z</time></trkpt>
<trkpt lat="46.535550998523831" lon="6.896891947835684"><ele></ele><time>2015-2-2T20:38:18Z</time></trkpt>
<trkpt lat="46.534927971661091" lon="6.896806955337524"><ele></ele><time>2015-2-2T20:38:21Z</time></trkpt>
<trkpt lat="46.534245936200023" lon="6.896675946190953"><ele></ele><time>2015-2-2T20:38:24Z</time></trkpt>
<trkpt lat="46.533494917675853" lon="6.896439995616674"><ele></ele><time>2015-2-2T20:38:27Z</time></trkpt>
<trkpt lat="46.533039947971702" lon="6.89623991958797"><ele></ele><time>2015-2-2T20:38:30Z</time></trkpt>
<trkpt lat="46.532553965225816" lon="6.896073957905173"><ele></ele><time>2015-2-2T20:38:33Z</time></trkpt>
<trkpt lat="46.531826918944716" lon="6.895991982892156"><ele></ele><time>2015-2-2T20:38:36Z</time></trkpt>
<trkpt lat="46.531305983662605" lon="6.895980918779969"><ele></ele><time>2015-2-2T20:38:39Z</time></trkpt>
<trkpt lat="46.530602993443608" lon="6.896211924031377"><ele></ele><time>2015-2-2T20:38:42Z</time></trkpt>
<trkpt lat="46.53019797988236" lon="6.896545942872763"><ele></ele><time>2015-2-2T20:38:45Z</time></trkpt>
<trkpt lat="46.529172956943512" lon="6.897129993885756"><ele></ele><time>2015-2-2T20:38:48Z</time></trkpt>
<trkpt lat="46.528596952557564" lon="6.897436939179897"><ele></ele><time>2015-2-2T20:38:51Z</time></trkpt>
<trkpt lat="46.527961939573288" lon="6.897432999685407"><ele></ele><time>2015-2-2T20:38:54Z</time></trkpt>
<trkpt lat="46.527628926560283" lon="6.89821595326066"><ele></ele><time>2015-2-2T20:38:57Z</time></trkpt>
<trkpt lat="46.527528930455446" lon="6.898876950144768"><ele></ele><time>2015-2-2T20:39:0Z</time></trkpt>
<trkpt lat="46.527275964617729" lon="6.89997598528862"><ele></ele><time>2015-2-2T20:39:3Z</time></trkpt>
<trkpt lat="46.52693297713995" lon="6.900622984394431"><ele></ele><time>2015-2-2T20:39:6Z</time></trkpt>
<trkpt lat="46.526885954663157" lon="6.901679942384362"><ele></ele><time>2015-2-2T20:39:9Z</time></trkpt>
<trkpt lat="46.526566939428449" lon="6.902224933728576"><ele></ele><time>2015-2-2T20:39:12Z</time></trkpt>
<trkpt lat="46.526092942804098" lon="6.902458956465125"><ele></ele><time>2015-2-2T20:39:15Z</time></trkpt>
<trkpt lat="46.525695975869894" lon="6.902889953926206"><ele></ele><time>2015-2-2T20:39:18Z</time></trkpt>
<trkpt lat="46.525226924568415" lon="6.903334949165583"><ele></ele><time>2015-2-2T20:39:21Z</time></trkpt>
<trkpt lat="46.524700960144401" lon="6.904250923544169"><ele></ele><time>2015-2-2T20:39:24Z</time></trkpt>
<trkpt lat="46.524472972378135" lon="6.904869927093387"><ele></ele><time>2015-2-2T20:39:27Z</time></trkpt>
<trkpt lat="46.524150939658284" lon="6.905439980328083"><ele></ele><time>2015-2-2T20:39:30Z</time></trkpt>
<trkpt lat="46.523552974686027" lon="6.905699986964464"><ele></ele><time>2015-2-2T20:39:33Z</time></trkpt>
<trkpt lat="46.523085935041308" lon="6.905872989445925"><ele></ele><time>2015-2-2T20:39:36Z</time></trkpt>
<trkpt lat="46.522360984236002" lon="6.905514998361468"><ele></ele><time>2015-2-2T20:39:39Z</time></trkpt>
<trkpt lat="46.521819932386279" lon="6.905190953984857"><ele></ele><time>2015-2-2T20:39:42Z</time></trkpt>
<trkpt lat="46.520987944677472" lon="6.905091963708401"><ele></ele><time>2015-2-2T20:39:45Z</time></trkpt>
<trkpt lat="46.520107928663492" lon="6.905490942299366"><ele></ele><time>2015-2-2T20:39:48Z</time></trkpt>
<trkpt lat="46.519291950389743" lon="6.905845999717712"><ele></ele><time>2015-2-2T20:39:51Z</time></trkpt>
<trkpt lat="46.518565993756056" lon="6.906044986099005"><ele></ele><time>2015-2-2T20:39:54Z</time></trkpt>
<trkpt lat="46.518066935241222" lon="6.906034927815199"><ele></ele><time>2015-2-2T20:39:57Z</time></trkpt>
<trkpt lat="46.517214998602867" lon="6.905856980010867"><ele></ele><time>2015-2-2T20:40:0Z</time></trkpt>
<trkpt lat="46.516683921217918" lon="6.905705938115716"><ele></ele><time>2015-2-2T20:40:3Z</time></trkpt>
<trkpt lat="46.516239931806922" lon="6.905579958111048"><ele></ele><time>2015-2-2T20:40:6Z</time></trkpt>
<trkpt lat="46.515453960746527" lon="6.905364962294698"><ele></ele><time>2015-2-2T20:40:9Z</time></trkpt>
<trkpt lat="46.514996979385614" lon="6.905336966738105"><ele></ele><time>2015-2-2T20:40:12Z</time></trkpt>
<trkpt lat="46.514668995514512" lon="6.905799983069301"><ele></ele><time>2015-2-2T20:40:15Z</time></trkpt>
<trkpt lat="46.514414940029383" lon="6.906950986012816"><ele></ele><time>2015-2-2T20:40:18Z</time></trkpt>
<trkpt lat="46.514145964756608" lon="6.907568983733654"><ele></ele><time>2015-2-2T20:40:21Z</time></trkpt>
<trkpt lat="46.513752937316895" lon="6.908039962872863"><ele></ele><time>2015-2-2T20:40:24Z</time></trkpt>
<trkpt lat="46.513864919543266" lon="6.909482991322875"><ele></ele><time>2015-2-2T20:40:27Z</time></trkpt>
<trkpt lat="46.513886963948607" lon="6.91020492464304"><ele></ele><time>2015-2-2T20:40:30Z</time></trkpt>
<trkpt lat="46.51372293010354" lon="6.911073960363865"><ele></ele><time>2015-2-2T20:40:33Z</time></trkpt>
<trkpt lat="46.513295955955982" lon="6.91209395416081"><ele></ele><time>2015-2-2T20:40:36Z</time></trkpt>
<trkpt lat="46.512871999293566" lon="6.91185599192977"><ele></ele><time>2015-2-2T20:40:39Z</time></trkpt>
<trkpt lat="46.512544937431812" lon="6.911389958113432"><ele></ele><time>2015-2-2T20:40:42Z</time></trkpt>
<trkpt lat="46.512170936912298" lon="6.910882936790586"><ele></ele><time>2015-2-2T20:40:45Z</time></trkpt>
<trkpt lat="46.511868936941028" lon="6.91011993214488"><ele></ele><time>2015-2-2T20:40:48Z</time></trkpt>
<trkpt lat="46.511772964149714" lon="6.909251986071467"><ele></ele><time>2015-2-2T20:40:51Z</time></trkpt>
<trkpt lat="46.511539947241545" lon="6.908471966162324"><ele></ele><time>2015-2-2T20:40:54Z</time></trkpt>
<trkpt lat="46.511691994965076" lon="6.907628998160362"><ele></ele><time>2015-2-2T20:40:57Z</time></trkpt>
<trkpt lat="46.511864997446537" lon="6.906789969652891"><ele></ele><time>2015-2-2T20:41:0Z</time></trkpt>
<trkpt lat="46.511598955839872" lon="6.905995951965451"><ele></ele><time>2015-2-2T20:41:3Z</time></trkpt>
<trkpt lat="46.511355964466929" lon="6.905254991725087"><ele></ele><time>2015-2-2T20:41:6Z</time></trkpt>
<trkpt lat="46.510936953127384" lon="6.905060950666666"><ele></ele><time>2015-2-2T20:41:9Z</time></trkpt>
<trkpt lat="46.510526994243264" lon="6.904646968469024"><ele></ele><time>2015-2-2T20:41:12Z</time></trkpt>
<trkpt lat="46.5099379979074" lon="6.90429694019258"><ele></ele><time>2015-2-2T20:41:15Z</time></trkpt>
<trkpt lat="46.509470958262682" lon="6.903783967718482"><ele></ele><time>2015-2-2T20:41:18Z</time></trkpt>
<trkpt lat="46.509086983278394" lon="6.903431927785277"><ele></ele><time>2015-2-2T20:41:21Z</time></trkpt>
<trkpt lat="46.508578956127167" lon="6.90307293087244"><ele></ele><time>2015-2-2T20:41:24Z</time></trkpt>
<trkpt lat="46.508065983653069" lon="6.902852989733219"><ele></ele><time>2015-2-2T20:41:27Z</time></trkpt>
<trkpt lat="46.507654935121536" lon="6.902258964255452"><ele></ele><time>2015-2-2T20:41:30Z</time></trkpt>
<trkpt lat="46.507227960973978" lon="6.901712967082858"><ele></ele><time>2015-2-2T20:41:33Z</time></trkpt>
<trkpt lat="46.506782965734601" lon="6.901372997090221"><ele></ele><time>2015-2-2T20:41:36Z</time></trkpt>
<trkpt lat="46.506143929436803" lon="6.900882991030812"><ele></ele><time>2015-2-2T20:41:39Z</time></trkpt>
<trkpt lat="46.505658952519298" lon="6.900512930005789"><ele></ele><time>2015-2-2T20:41:42Z</time></trkpt>
<trkpt lat="46.505175987258554" lon="6.900096936151385"><ele></ele><time>2015-2-2T20:41:45Z</time></trkpt>
<trkpt lat="46.504624960944057" lon="6.899907924234867"><ele></ele><time>2015-2-2T20:41:48Z</time></trkpt>
<trkpt lat="46.504138978198171" lon="6.899981936439872"><ele></ele><time>2015-2-2T20:41:51Z</time></trkpt>
<trkpt lat="46.503592981025577" lon="6.900078998878598"><ele></ele><time>2015-2-2T20:41:54Z</time></trkpt>
<trkpt lat="46.50282796472311" lon="6.899683959782124"><ele></ele><time>2015-2-2T20:41:57Z</time></trkpt>
<trkpt lat="46.502408953383565" lon="6.899256985634565"><ele></ele><time>2015-2-2T20:42:0Z</time></trkpt>
<trkpt lat="46.501879971474409" lon="6.898658936843276"><ele></ele><time>2015-2-2T20:42:3Z</time></trkpt>
<trkpt lat="46.501247975975275" lon="6.897963993251324"><ele></ele><time>2015-2-2T20:42:6Z</time></trkpt>
<trkpt lat="46.500817984342575" lon="6.897641960531473"><ele></ele><time>2015-2-2T20:42:9Z</time></trkpt>
<trkpt lat="46.500102924183011" lon="6.898045968264341"><ele></ele><time>2015-2-2T20:42:12Z</time></trkpt>
<trkpt lat="46.499433964490891" lon="6.898372946307063"><ele></ele><time>2015-2-2T20:42:15Z</time></trkpt>
<trkpt lat="46.498421933501959" lon="6.898339921608567"><ele></ele><time>2015-2-2T20:42:18Z</time></trkpt>
<trkpt lat="46.4978879224509" lon="6.898262975737453"><ele></ele><time>2015-2-2T20:42:21Z</time></trkpt>
<trkpt lat="46.497032968327403" lon="6.897533917799592"><ele></ele><time>2015-2-2T20:42:24Z</time></trkpt>
<trkpt lat="46.496524941176176" lon="6.896928995847702"><ele></ele><time>2015-2-2T20:42:27Z</time></trkpt>
<trkpt lat="46.496133925393224" lon="6.896400935947895"><ele></ele><time>2015-2-2T20:42:30Z</time></trkpt>
<trkpt lat="46.495767971500754" lon="6.895956946536899"><ele></ele><time>2015-2-2T20:42:33Z</time></trkpt>
<trkpt lat="46.494738925248384" lon="6.895616976544261"><ele></ele><time>2015-2-2T20:42:36Z</time></trkpt>
<trkpt lat="46.494196951389313" lon="6.895523937419057"><ele></ele><time>2015-2-2T20:42:39Z</time></trkpt>
<trkpt lat="46.493470994755626" lon="6.895520919933915"><ele></ele><time>2015-2-2T20:42:42Z</time></trkpt>
<trkpt lat="46.492692986503243" lon="6.895312964916229"><ele></ele><time>2015-2-2T20:42:45Z</time></trkpt>
<trkpt lat="46.491904919967055" lon="6.895144991576672"><ele></ele><time>2015-2-2T20:42:48Z</time></trkpt>
<trkpt lat="46.49146294221282" lon="6.895263930782676"><ele></ele><time>2015-2-2T20:42:51Z</time></trkpt>
<trkpt lat="46.490995986387134" lon="6.895140968263149"><ele></ele><time>2015-2-2T20:42:54Z</time></trkpt>
<trkpt lat="46.490706978365779" lon="6.894507966935635"><ele></ele><time>2015-2-2T20:42:57Z</time></trkpt>
<trkpt lat="46.490246979519725" lon="6.893644966185093"><ele></ele><time>2015-2-2T20:43:0Z</time></trkpt>
<trkpt lat="46.48965697735548" lon="6.893058987334371"><ele></ele><time>2015-2-2T20:43:3Z</time></trkpt>
<trkpt lat="46.489111986011267" lon="6.892808955162764"><ele></ele><time>2015-2-2T20:43:6Z</time></trkpt>
<trkpt lat="46.488192994147539" lon="6.89247795380652"><ele></ele><time>2015-2-2T20:43:9Z</time></trkpt>
<trkpt lat="46.487470977008343" lon="6.892303945496678"><ele></ele><time>2015-2-2T20:43:12Z</time></trkpt>
<trkpt lat="46.486833952367306" lon="6.892165979370475"><ele></ele><time>2015-2-2T20:43:15Z</time></trkpt>
<trkpt lat="46.486141942441463" lon="6.892059948295355"><ele></ele><time>2015-2-2T20:43:18Z</time></trkpt>
<trkpt lat="46.485270978882909" lon="6.891871942207217"><ele></ele><time>2015-2-2T20:43:21Z</time></trkpt>
<trkpt lat="46.484533958137035" lon="6.891477992758155"><ele></ele><time>2015-2-2T20:43:24Z</time></trkpt>
<trkpt lat="46.484014950692654" lon="6.891262996941805"><ele></ele><time>2015-2-2T20:43:27Z</time></trkpt>
<trkpt lat="46.483178939670324" lon="6.891103992238641"><ele></ele><time>2015-2-2T20:43:30Z</time></trkpt>
<trkpt lat="46.482217954471707" lon="6.891247993335128"><ele></ele><time>2015-2-2T20:43:33Z</time></trkpt>
<trkpt lat="46.481543965637684" lon="6.891491990536451"><ele></ele><time>2015-2-2T20:43:36Z</time></trkpt>
<trkpt lat="46.481073992326856" lon="6.891693994402885"><ele></ele><time>2015-2-2T20:43:39Z</time></trkpt>
<trkpt lat="46.48054794408381" lon="6.891940925270319"><ele></ele><time>2015-2-2T20:43:42Z</time></trkpt>
<trkpt lat="46.480085933580995" lon="6.892256923019886"><ele></ele><time>2015-2-2T20:43:45Z</time></trkpt>
<trkpt lat="46.479210946708918" lon="6.892920937389135"><ele></ele><time>2015-2-2T20:43:48Z</time></trkpt>
<trkpt lat="46.478740973398089" lon="6.893098969012499"><ele></ele><time>2015-2-2T20:43:51Z</time></trkpt>
<trkpt lat="46.477894987910986" lon="6.893288986757398"><ele></ele><time>2015-2-2T20:43:54Z</time></trkpt>
<trkpt lat="46.476718923076987" lon="6.89357397146523"><ele></ele><time>2015-2-2T20:43:57Z</time></trkpt>
<trkpt lat="46.475983997806907" lon="6.893704980611801"><ele></ele><time>2015-2-2T20:44:0Z</time></trkpt>
<trkpt lat="46.475391983985901" lon="6.893988959491253"><ele></ele><time>2015-2-2T20:44:3Z</time></trkpt>
<trkpt lat="46.475086966529489" lon="6.894720951095223"><ele></ele><time>2015-2-2T20:44:6Z</time></trkpt>
<trkpt lat="46.47461892105639" lon="6.89509998075664"><ele></ele><time>2015-2-2T20:44:9Z</time></trkpt>
<trkpt lat="46.474150959402323" lon="6.895194947719574"><ele></ele><time>2015-2-2T20:44:12Z</time></trkpt>
<trkpt lat="46.473495997488499" lon="6.895333919674158"><ele></ele><time>2015-2-2T20:44:15Z</time></trkpt>
<trkpt lat="46.47300498560071" lon="6.89550893381238"><ele></ele><time>2015-2-2T20:44:18Z</time></trkpt>
<trkpt lat="46.472673984244466" lon="6.896101953461766"><ele></ele><time>2015-2-2T20:44:21Z</time></trkpt>
<trkpt lat="46.472570970654488" lon="6.896846937015653"><ele></ele><time>2015-2-2T20:44:24Z</time></trkpt>
<trkpt lat="46.472020950168371" lon="6.896977946162224"><ele></ele><time>2015-2-2T20:44:27Z</time></trkpt>
<trkpt lat="46.471227938309312" lon="6.896952968090773"><ele></ele><time>2015-2-2T20:44:30Z</time></trkpt>
<trkpt lat="46.470731981098652" lon="6.897185984998941"><ele></ele><time>2015-2-2T20:44:33Z</time></trkpt>
<trkpt lat="46.470067966729403" lon="6.897775987163186"><ele></ele><time>2015-2-2T20:44:36Z</time></trkpt>
<trkpt lat="46.469004973769188" lon="6.898040939122438"><ele></ele><time>2015-2-2T20:44:39Z</time></trkpt>
<trkpt lat="46.468509938567877" lon="6.89810698851943"><ele></ele><time>2015-2-2T20:44:42Z</time></trkpt>
<trkpt lat="46.468005934730172" lon="6.89810698851943"><ele></ele><time>2015-2-2T20:44:45Z</time></trkpt>
<trkpt lat="46.46737796254456" lon="6.89797991886735"><ele></ele><time>2015-2-2T20:44:48Z</time></trkpt>
<trkpt lat="46.466901954263449" lon="6.897876989096403"><ele></ele><time>2015-2-2T20:44:51Z</time></trkpt>
<trkpt lat="46.466419994831085" lon="6.89804395660758"><ele></ele><time>2015-2-2T20:44:54Z</time></trkpt>
<trkpt lat="46.465730918571353" lon="6.898356936872006"><ele></ele><time>2015-2-2T20:44:57Z</time></trkpt>
<trkpt lat="46.465180981904268" lon="6.898598922416568"><ele></ele><time>2015-2-2T20:45:0Z</time></trkpt>
<trkpt lat="46.46441194228828" lon="6.898346962407231"><ele></ele><time>2015-2-2T20:45:3Z</time></trkpt>
<trkpt lat="46.463989997282624" lon="6.897920994088054"><ele></ele><time>2015-2-2T20:45:6Z</time></trkpt>
<trkpt lat="46.464006928727031" lon="6.897324956953526"><ele></ele><time>2015-2-2T20:45:9Z</time></trkpt>
<trkpt lat="46.46469097584486" lon="6.896597994491458"><ele></ele><time>2015-2-2T20:45:12Z</time></trkpt>
<trkpt lat="46.465365970507264" lon="6.895851921290159"><ele></ele><time>2015-2-2T20:45:15Z</time></trkpt>
<trkpt lat="46.464566923677921" lon="6.894796974956989"><ele></ele><time>2015-2-2T20:45:18Z</time></trkpt>
<trkpt lat="46.464562984183431" lon="6.894676946103573"><ele></ele><time>2015-2-2T20:45:21Z</time></trkpt>
<trkpt lat="46.464026961475611" lon="6.893812939524651"><ele></ele><time>2015-2-2T20:45:24Z</time></trkpt>
<trkpt lat="46.46318499930203" lon="6.892945999279618"><ele></ele><time>2015-2-2T20:45:27Z</time></trkpt>
<trkpt lat="46.462694993242621" lon="6.892696972936392"><ele></ele><time>2015-2-2T20:45:30Z</time></trkpt>
<trkpt lat="46.462177997455001" lon="6.892580967396498"><ele></ele><time>2015-2-2T20:45:33Z</time></trkpt>
<trkpt lat="46.461330922320485" lon="6.89262991771102"><ele></ele><time>2015-2-2T20:45:36Z</time></trkpt>
<trkpt lat="46.460871929302812" lon="6.892922949045897"><ele></ele><time>2015-2-2T20:45:39Z</time></trkpt>
<trkpt lat="46.460375972092152" lon="6.894002957269549"><ele></ele><time>2015-2-2T20:45:42Z</time></trkpt>
<trkpt lat="46.460165921598673" lon="6.895193941891193"><ele></ele><time>2015-2-2T20:45:45Z</time></trkpt>
<trkpt lat="46.459943968802691" lon="6.896446952596307"><ele></ele><time>2015-2-2T20:45:48Z</time></trkpt>
<trkpt lat="46.459753951057792" lon="6.897548921406269"><ele></ele><time>2015-2-2T20:45:51Z</time></trkpt>
<trkpt lat="46.459679938852787" lon="6.898268926888704"><ele></ele><time>2015-2-2T20:45:54Z</time></trkpt>
<trkpt lat="46.459737941622734" lon="6.8991809617728"><ele></ele><time>2015-2-2T20:45:57Z</time></trkpt>
<trkpt lat="46.459308955818415" lon="6.900254935026169"><ele></ele><time>2015-2-2T20:46:0Z</time></trkpt>
<trkpt lat="46.458925986662507" lon="6.900809984654188"><ele></ele><time>2015-2-2T20:46:3Z</time></trkpt>
<trkpt lat="46.458243951201439" lon="6.901018945500255"><ele></ele><time>2015-2-2T20:46:6Z</time></trkpt>
<trkpt lat="46.457646992057562" lon="6.901046941056848"><ele></ele><time>2015-2-2T20:46:9Z</time></trkpt>
<trkpt lat="46.456942996010184" lon="6.901251962408423"><ele></ele><time>2015-2-2T20:46:12Z</time></trkpt>
<trkpt lat="46.456069936975837" lon="6.901366962119937"><ele></ele><time>2015-2-2T20:46:15Z</time></trkpt>
<trkpt lat="46.455412963405252" lon="6.901379954069853"><ele></ele><time>2015-2-2T20:46:18Z</time></trkpt>
<trkpt lat="46.45485196262598" lon="6.901540970429778"><ele></ele><time>2015-2-2T20:46:21Z</time></trkpt>
<trkpt lat="46.454158946871758" lon="6.901699975132942"><ele></ele><time>2015-2-2T20:46:24Z</time></trkpt>
<trkpt lat="46.453406922519207" lon="6.901819920167327"><ele></ele><time>2015-2-2T20:46:27Z</time></trkpt>
<trkpt lat="46.452946923673153" lon="6.90193198621273"><ele></ele><time>2015-2-2T20:46:30Z</time></trkpt>
<trkpt lat="46.452434957027435" lon="6.902166930958629"><ele></ele><time>2015-2-2T20:46:33Z</time></trkpt>
<trkpt lat="46.451783934608102" lon="6.902574962005019"><ele></ele><time>2015-2-2T20:46:36Z</time></trkpt>
<trkpt lat="46.451099971309304" lon="6.90302993170917"><ele></ele><time>2015-2-2T20:46:39Z</time></trkpt>
<trkpt lat="46.450465964153409" lon="6.903553968295455"><ele></ele><time>2015-2-2T20:46:42Z</time></trkpt>
<trkpt lat="46.449823994189501" lon="6.904269950464368"><ele></ele><time>2015-2-2T20:46:45Z</time></trkpt>
<trkpt lat="46.449253940954804" lon="6.904758950695396"><ele></ele><time>2015-2-2T20:46:48Z</time></trkpt>
<trkpt lat="46.448702998459339" lon="6.904929941520095"><ele></ele><time>2015-2-2T20:46:51Z</time></trkpt>
<trkpt lat="46.447949968278408" lon="6.905053993687034"><ele></ele><time>2015-2-2T20:46:54Z</time></trkpt>
<trkpt lat="46.447369940578938" lon="6.905426988378167"><ele></ele><time>2015-2-2T20:46:57Z</time></trkpt>
<trkpt lat="46.446954952552915" lon="6.905857985839248"><ele></ele><time>2015-2-2T20:47:0Z</time></trkpt>
<trkpt lat="46.446424964815378" lon="6.906478917226195"><ele></ele><time>2015-2-2T20:47:3Z</time></trkpt>
<trkpt lat="46.445960942655802" lon="6.907146954908967"><ele></ele><time>2015-2-2T20:47:6Z</time></trkpt>
<trkpt lat="46.445532962679863" lon="6.907573929056525"><ele></ele><time>2015-2-2T20:47:9Z</time></trkpt>
<trkpt lat="46.444817986339331" lon="6.90828999504447"><ele></ele><time>2015-2-2T20:47:12Z</time></trkpt>
<trkpt lat="46.444410961121321" lon="6.908693918958306"><ele></ele><time>2015-2-2T20:47:15Z</time></trkpt>
<trkpt lat="46.444011982530355" lon="6.909076971933246"><ele></ele><time>2015-2-2T20:47:18Z</time></trkpt>
<trkpt lat="46.443391973152757" lon="6.909672925248742"><ele></ele><time>2015-2-2T20:47:21Z</time></trkpt>
<trkpt lat="46.443693973124027" lon="6.910259993746877"><ele></ele><time>2015-2-2T20:47:24Z</time></trkpt>
<trkpt lat="46.44385096617043" lon="6.910774977877736"><ele></ele><time>2015-2-2T20:47:27Z</time></trkpt>
<trkpt lat="46.443539997562766" lon="6.911525996401906"><ele></ele><time>2015-2-2T20:47:30Z</time></trkpt>
<trkpt lat="46.443204972893" lon="6.912009967491031"><ele></ele><time>2015-2-2T20:47:33Z</time></trkpt>
<trkpt lat="46.442890986800194" lon="6.912714969366789"><ele></ele><time>2015-2-2T20:47:36Z</time></trkpt>
<trkpt lat="46.44254095852375" lon="6.913390969857574"><ele></ele><time>2015-2-2T20:47:39Z</time></trkpt>
<trkpt lat="46.441972916945815" lon="6.914028916507959"><ele></ele><time>2015-2-2T20:47:42Z</time></trkpt>
<trkpt lat="46.44157494418323" lon="6.914428984746337"><ele></ele><time>2015-2-2T20:47:45Z</time></trkpt>
<trkpt lat="46.441117962822318" lon="6.914734924212098"><ele></ele><time>2015-2-2T20:47:48Z</time></trkpt>
<trkpt lat="46.440503988415003" lon="6.915233982726932"><ele></ele><time>2015-2-2T20:47:51Z</time></trkpt>
<trkpt lat="46.440026974305511" lon="6.915455935522914"><ele></ele><time>2015-2-2T20:47:54Z</time></trkpt>
<trkpt lat="46.439578961580992" lon="6.915087969973683"><ele></ele><time>2015-2-2T20:47:57Z</time></trkpt>
<trkpt lat="46.438991976901889" lon="6.914695948362351"><ele></ele><time>2015-2-2T20:48:0Z</time></trkpt>
<trkpt lat="46.438560979440808" lon="6.914770966395736"><ele></ele><time>2015-2-2T20:48:3Z</time></trkpt>
<trkpt lat="46.438078936189413" lon="6.914429990574718"><ele></ele><time>2015-2-2T20:48:6Z</time></trkpt>
<trkpt lat="46.437443923205137" lon="6.914717992767692"><ele></ele><time>2015-2-2T20:48:9Z</time></trkpt>
<trkpt lat="46.436961963772774" lon="6.914968946948648"><ele></ele><time>2015-2-2T20:48:12Z</time></trkpt>
<trkpt lat="46.436260985210538" lon="6.915227947756648"><ele></ele><time>2015-2-2T20:48:15Z</time></trkpt>
<trkpt lat="46.43570895306766" lon="6.915120994672179"><ele></ele><time>2015-2-2T20:48:18Z</time></trkpt>
<trkpt lat="46.434851987287402" lon="6.914502996951342"><ele></ele><time>2015-2-2T20:48:21Z</time></trkpt>
<trkpt lat="46.435351967811584" lon="6.915265917778015"><ele></ele><time>2015-2-2T20:48:24Z</time></trkpt>
<trkpt lat="46.434971932321787" lon="6.915708985179663"><ele></ele><time>2015-2-2T20:48:27Z</time></trkpt>
<trkpt lat="46.434485949575901" lon="6.915925992652774"><ele></ele><time>2015-2-2T20:48:30Z</time></trkpt>
<trkpt lat="46.43411798402667" lon="6.916194967925549"><ele></ele><time>2015-2-2T20:48:33Z</time></trkpt>
<trkpt lat="46.433611968532205" lon="6.916601993143559"><ele></ele><time>2015-2-2T20:48:36Z</time></trkpt>
<trkpt lat="46.433139983564615" lon="6.916514988988638"><ele></ele><time>2015-2-2T20:48:39Z</time></trkpt>
<trkpt lat="46.432668920606375" lon="6.917038941755891"><ele></ele><time>2015-2-2T20:48:42Z</time></trkpt>
<trkpt lat="46.432234989479184" lon="6.917329961434007"><ele></ele><time>2015-2-2T20:48:45Z</time></trkpt>
<trkpt lat="46.431714976206422" lon="6.917698932811618"><ele></ele><time>2015-2-2T20:48:48Z</time></trkpt>
<trkpt lat="46.430992959067225" lon="6.918439976871014"><ele></ele><time>2015-2-2T20:48:51Z</time></trkpt>
<trkpt lat="46.43052994273603" lon="6.919052945449948"><ele></ele><time>2015-2-2T20:48:54Z</time></trkpt>
<trkpt lat="46.430154936388135" lon="6.919541945680976"><ele></ele><time>2015-2-2T20:48:57Z</time></trkpt>
<trkpt lat="46.4298199955374" lon="6.919992975890636"><ele></ele><time>2015-2-2T20:49:0Z</time></trkpt>
<trkpt lat="46.429406935349107" lon="6.920553976669908"><ele></ele><time>2015-2-2T20:49:3Z</time></trkpt>
<trkpt lat="46.428994964808226" lon="6.92109695635736"><ele></ele><time>2015-2-2T20:49:6Z</time></trkpt>
<trkpt lat="46.428601937368512" lon="6.921429969370365"><ele></ele><time>2015-2-2T20:49:9Z</time></trkpt>
<trkpt lat="46.42810195684433" lon="6.921777985990048"><ele></ele><time>2015-2-2T20:49:12Z</time></trkpt>
<trkpt lat="46.427642963826656" lon="6.92219297401607"><ele></ele><time>2015-2-2T20:49:15Z</time></trkpt>
<trkpt lat="46.427083974704146" lon="6.92262195982039"><ele></ele><time>2015-2-2T20:49:18Z</time></trkpt>
<trkpt lat="46.426529930904508" lon="6.922940975055099"><ele></ele><time>2015-2-2T20:49:21Z</time></trkpt>
<trkpt lat="46.426022993400693" lon="6.923226965591312"><ele></ele><time>2015-2-2T20:49:24Z</time></trkpt>
<trkpt lat="46.425408935174346" lon="6.923625944182277"><ele></ele><time>2015-2-2T20:49:27Z</time></trkpt>
<trkpt lat="46.425013979896903" lon="6.923959963023663"><ele></ele><time>2015-2-2T20:49:30Z</time></trkpt>
<trkpt lat="46.424624975770712" lon="6.924522975459695"><ele></ele><time>2015-2-2T20:49:33Z</time></trkpt>
<trkpt lat="46.424207976087928" lon="6.925272988155484"><ele></ele><time>2015-2-2T20:49:36Z</time></trkpt>
<trkpt lat="46.423787958920002" lon="6.925551937893033"><ele></ele><time>2015-2-2T20:49:39Z</time></trkpt>
<trkpt lat="46.42307298257947" lon="6.925482954829931"><ele></ele><time>2015-2-2T20:49:42Z</time></trkpt>
<trkpt lat="46.422499995678663" lon="6.925368960946798"><ele></ele><time>2015-2-2T20:49:45Z</time></trkpt>
<trkpt lat="46.422009989619255" lon="6.925433920696378"><ele></ele><time>2015-2-2T20:49:48Z</time></trkpt>
<trkpt lat="46.421474972739816" lon="6.925611952319741"><ele></ele><time>2015-2-2T20:49:51Z</time></trkpt>
<trkpt lat="46.420607948675752" lon="6.925870953127742"><ele></ele><time>2015-2-2T20:49:54Z</time></trkpt>
<trkpt lat="46.419952986761928" lon="6.926282923668623"><ele></ele><time>2015-2-2T20:49:57Z</time></trkpt>
<trkpt lat="46.419591978192329" lon="6.926846941933036"><ele></ele><time>2015-2-2T20:50:0Z</time></trkpt>
<trkpt lat="46.419239938259125" lon="6.927537946030498"><ele></ele><time>2015-2-2T20:50:3Z</time></trkpt>
<trkpt lat="46.41873593442142" lon="6.928269937634468"><ele></ele><time>2015-2-2T20:50:6Z</time></trkpt>
<trkpt lat="46.41796094365418" lon="6.928319977596402"><ele></ele><time>2015-2-2T20:50:9Z</time></trkpt>
<trkpt lat="46.41751192510128" lon="6.928038932383061"><ele></ele><time>2015-2-2T20:50:12Z</time></trkpt>
<trkpt lat="46.416075937449932" lon="6.928161978721619"><ele></ele><time>2015-2-2T20:50:15Z</time></trkpt>
<trkpt lat="46.415302958339453" lon="6.928285947069526"><ele></ele><time>2015-2-2T20:50:18Z</time></trkpt>
<trkpt lat="46.414654953405261" lon="6.928524998947978"><ele></ele><time>2015-2-2T20:50:21Z</time></trkpt>
<trkpt lat="46.414205934852362" lon="6.928778970614076"><ele></ele><time>2015-2-2T20:50:24Z</time></trkpt>
<trkpt lat="46.413512919098139" lon="6.92930594086647"><ele></ele><time>2015-2-2T20:50:27Z</time></trkpt>
<trkpt lat="46.412976980209351" lon="6.929805921390653"><ele></ele><time>2015-2-2T20:50:30Z</time></trkpt>
<trkpt lat="46.412509940564632" lon="6.930242953822017"><ele></ele><time>2015-2-2T20:50:33Z</time></trkpt>
<trkpt lat="46.41198992729187" lon="6.930673951283097"><ele></ele><time>2015-2-2T20:50:36Z</time></trkpt>
<trkpt lat="46.411498999223113" lon="6.930880984291434"><ele></ele><time>2015-2-2T20:50:39Z</time></trkpt>
<trkpt lat="46.411029947921634" lon="6.931016938760877"><ele></ele><time>2015-2-2T20:50:42Z</time></trkpt>
<trkpt lat="46.410322934389114" lon="6.931245932355523"><ele></ele><time>2015-2-2T20:50:45Z</time></trkpt>
<trkpt lat="46.409786995500326" lon="6.931321956217289"><ele></ele><time>2015-2-2T20:50:48Z</time></trkpt>
<trkpt lat="46.409200932830572" lon="6.931405942887068"><ele></ele><time>2015-2-2T20:50:51Z</time></trkpt>
<trkpt lat="46.40861495397985" lon="6.931499987840653"><ele></ele><time>2015-2-2T20:50:54Z</time></trkpt>
<trkpt lat="46.408116985112429" lon="6.931425975635648"><ele></ele><time>2015-2-2T20:50:57Z</time></trkpt>
<trkpt lat="46.407500999048352" lon="6.931209973990917"><ele></ele><time>2015-2-2T20:51:0Z</time></trkpt>
<trkpt lat="46.406888952478766" lon="6.930944938212633"><ele></ele><time>2015-2-2T20:51:3Z</time></trkpt>
<trkpt lat="46.406324934214354" lon="6.93059197627008"><ele></ele><time>2015-2-2T20:51:6Z</time></trkpt>
<trkpt lat="46.405807938426733" lon="6.930145975202322"><ele></ele><time>2015-2-2T20:51:9Z</time></trkpt>
<trkpt lat="46.405172925442457" lon="6.929623950272799"><ele></ele><time>2015-2-2T20:51:12Z</time></trkpt>
<trkpt lat="46.404645955190063" lon="6.92919697612524"><ele></ele><time>2015-2-2T20:51:15Z</time></trkpt>
<trkpt lat="46.404033992439508" lon="6.928749969229102"><ele></ele><time>2015-2-2T20:51:18Z</time></trkpt>
<trkpt lat="46.403527976945043" lon="6.928426930680871"><ele></ele><time>2015-2-2T20:51:21Z</time></trkpt>
<trkpt lat="46.40285893343389" lon="6.928027952089906"><ele></ele><time>2015-2-2T20:51:24Z</time></trkpt>
<trkpt lat="46.402406981214881" lon="6.927647916600108"><ele></ele><time>2015-2-2T20:51:27Z</time></trkpt>
<trkpt lat="46.401860984042287" lon="6.926771923899651"><ele></ele><time>2015-2-2T20:51:30Z</time></trkpt>
<trkpt lat="46.401113988831639" lon="6.926457937806845"><ele></ele><time>2015-2-2T20:51:33Z</time></trkpt>
<trkpt lat="46.400654995813966" lon="6.926324917003512"><ele></ele><time>2015-2-2T20:51:36Z</time></trkpt>
<trkpt lat="46.399855948984623" lon="6.926257945597172"><ele></ele><time>2015-2-2T20:51:39Z</time></trkpt>
<trkpt lat="46.399022955447435" lon="6.926290970295668"><ele></ele><time>2015-2-2T20:51:42Z</time></trkpt>
<trkpt lat="46.398850958794355" lon="6.925175925716758"><ele></ele><time>2015-2-2T20:51:45Z</time></trkpt>
<trkpt lat="46.398423984646797" lon="6.924943998456001"><ele></ele><time>2015-2-2T20:51:48Z</time></trkpt>
<trkpt lat="46.397533994168043" lon="6.924274954944849"><ele></ele><time>2015-2-2T20:51:51Z</time></trkpt>
<trkpt lat="46.396986991167068" lon="6.923741949722171"><ele></ele><time>2015-2-2T20:51:54Z</time></trkpt>
<trkpt lat="46.396619947627187" lon="6.923257978633046"><ele></ele><time>2015-2-2T20:51:57Z</time></trkpt>
<trkpt lat="46.39621895737946" lon="6.922709969803691"><ele></ele><time>2015-2-2T20:52:0Z</time></trkpt>
<trkpt lat="46.395492916926742" lon="6.922115944325924"><ele></ele><time>2015-2-2T20:52:3Z</time></trkpt>
<trkpt lat="46.39503694139421" lon="6.921940930187702"><ele></ele><time>2015-2-2T20:52:6Z</time></trkpt>
<trkpt lat="46.39449899084866" lon="6.921882927417755"><ele></ele><time>2015-2-2T20:52:9Z</time></trkpt>
<trkpt lat="46.393923992291093" lon="6.921782931312919"><ele></ele><time>2015-2-2T20:52:12Z</time></trkpt>
<trkpt lat="46.394223980605602" lon="6.921109948307276"><ele></ele><time>2015-2-2T20:52:15Z</time></trkpt>
<trkpt lat="46.394077967852354" lon="6.920053996145725"><ele></ele><time>2015-2-2T20:52:18Z</time></trkpt>
<trkpt lat="46.393848974257708" lon="6.919460976496339"><ele></ele><time>2015-2-2T20:52:21Z</time></trkpt>
<trkpt lat="46.393792983144522" lon="6.918556988239288"><ele></ele><time>2015-2-2T20:52:24Z</time></trkpt>
<trkpt lat="46.393504980951548" lon="6.917627938091755"><ele></ele><time>2015-2-2T20:52:27Z</time></trkpt>
<trkpt lat="46.393504980951548" lon="6.916882954537869"><ele></ele><time>2015-2-2T20:52:30Z</time></trkpt>
<trkpt lat="46.393646970391273" lon="6.916132941842079"><ele></ele><time>2015-2-2T20:52:33Z</time></trkpt>
<trkpt lat="46.393892979249358" lon="6.915463982149959"><ele></ele><time>2015-2-2T20:52:36Z</time></trkpt>
<trkpt lat="46.394106969237328" lon="6.914804996922612"><ele></ele><time>2015-2-2T20:52:39Z</time></trkpt>
<trkpt lat="46.39447895810008" lon="6.914160931482911"><ele></ele><time>2015-2-2T20:52:42Z</time></trkpt>
<trkpt lat="46.394706945866346" lon="6.913304971531034"><ele></ele><time>2015-2-2T20:52:45Z</time></trkpt>
<trkpt lat="46.394579960033298" lon="6.912577925249934"><ele></ele><time>2015-2-2T20:52:48Z</time></trkpt>
<trkpt lat="46.394378961995244" lon="6.911614928394556"><ele></ele><time>2015-2-2T20:52:51Z</time></trkpt>
<trkpt lat="46.394061958417296" lon="6.910520922392607"><ele></ele><time>2015-2-2T20:52:54Z</time></trkpt>
<trkpt lat="46.393793988972902" lon="6.909954976290464"><ele></ele><time>2015-2-2T20:52:57Z</time></trkpt>
<trkpt lat="46.393497940152884" lon="6.909433957189322"><ele></ele><time>2015-2-2T20:53:0Z</time></trkpt>
<trkpt lat="46.393209937959909" lon="6.908910926431418"><ele></ele><time>2015-2-2T20:53:3Z</time></trkpt>
<trkpt lat="46.392894946038723" lon="6.908240960910916"><ele></ele><time>2015-2-2T20:53:6Z</time></trkpt>
<trkpt lat="46.39256595633924" lon="6.907639978453517"><ele></ele><time>2015-2-2T20:53:9Z</time></trkpt>
<trkpt lat="46.391875958070159" lon="6.906796926632524"><ele></ele><time>2015-2-2T20:53:12Z</time></trkpt>
<trkpt lat="46.391141954809427" lon="6.905963933095336"><ele></ele><time>2015-2-2T20:53:15Z</time></trkpt>
<trkpt lat="46.391223929822445" lon="6.905077965930104"><ele></ele><time>2015-2-2T20:53:18Z</time></trkpt>
<trkpt lat="46.391445966437459" lon="6.90442493185401"><ele></ele><time>2015-2-2T20:53:21Z</time></trkpt>
<trkpt lat="46.391561971977353" lon="6.903480961918831"><ele></ele><time>2015-2-2T20:53:24Z</time></trkpt>
<trkpt lat="46.391441943123937" lon="6.902778977528215"><ele></ele><time>2015-2-2T20:53:27Z</time></trkpt>
<trkpt lat="46.39131898060441" lon="6.902133990079165"><ele></ele><time>2015-2-2T20:53:30Z</time></trkpt>
<trkpt lat="46.39119291678071" lon="6.901493947952986"><ele></ele><time>2015-2-2T20:53:33Z</time></trkpt>
<trkpt lat="46.391033995896578" lon="6.900635976344347"><ele></ele><time>2015-2-2T20:53:36Z</time></trkpt>
<trkpt lat="46.390885971486568" lon="6.8998699542135"><ele></ele><time>2015-2-2T20:53:39Z</time></trkpt>
<trkpt lat="46.390691930428147" lon="6.899000918492675"><ele></ele><time>2015-2-2T20:53:42Z</time></trkpt>
<trkpt lat="46.390464948490262" lon="6.898245960474014"><ele></ele><time>2015-2-2T20:53:45Z</time></trkpt>
<trkpt lat="46.39020293019712" lon="6.89737499691546"><ele></ele><time>2015-2-2T20:53:48Z</time></trkpt>
<trkpt lat="46.389992963522673" lon="6.896675946190953"><ele></ele><time>2015-2-2T20:53:51Z</time></trkpt>
<trkpt lat="46.389854997396469" lon="6.896019978448749"><ele></ele><time>2015-2-2T20:53:54Z</time></trkpt>
<trkpt lat="46.389759946614504" lon="6.895008953288198"><ele></ele><time>2015-2-2T20:53:57Z</time></trkpt>
<trkpt lat="46.389460964128375" lon="6.893808916211128"><ele></ele><time>2015-2-2T20:54:0Z</time></trkpt>
<trkpt lat="46.389180924743414" lon="6.893054964020848"><ele></ele><time>2015-2-2T20:54:3Z</time></trkpt>
<trkpt lat="46.388864926993847" lon="6.892122980207205"><ele></ele><time>2015-2-2T20:54:6Z</time></trkpt>
<trkpt lat="46.388656971976161" lon="6.89138294197619"><ele></ele><time>2015-2-2T20:54:9Z</time></trkpt>
<trkpt lat="46.388474917039275" lon="6.890399996191263"><ele></ele><time>2015-2-2T20:54:12Z</time></trkpt>
<trkpt lat="46.388529986143112" lon="6.889303978532553"><ele></ele><time>2015-2-2T20:54:15Z</time></trkpt>
<trkpt lat="46.388640962541103" lon="6.888499986380339"><ele></ele><time>2015-2-2T20:54:18Z</time></trkpt>
<trkpt lat="46.388724949210882" lon="6.887655928730965"><ele></ele><time>2015-2-2T20:54:21Z</time></trkpt>
<trkpt lat="46.388821927830577" lon="6.886829975992441"><ele></ele><time>2015-2-2T20:54:24Z</time></trkpt>
<trkpt lat="46.388928964734077" lon="6.885908972471952"><ele></ele><time>2015-2-2T20:54:27Z</time></trkpt>
<trkpt lat="46.389024937525392" lon="6.885081930086017"><ele></ele><time>2015-2-2T20:54:30Z</time></trkpt>
<trkpt lat="46.389081934466958" lon="6.884065959602594"><ele></ele><time>2015-2-2T20:54:33Z</time></trkpt>
<trkpt lat="46.388985961675644" lon="6.883333967998624"><ele></ele><time>2015-2-2T20:54:36Z</time></trkpt>
<trkpt lat="46.388960983604193" lon="6.88257398083806"><ele></ele><time>2015-2-2T20:54:39Z</time></trkpt>
<trkpt lat="46.389012951403856" lon="6.88180192373693"><ele></ele><time>2015-2-2T20:54:42Z</time></trkpt>
<trkpt lat="46.38876099139452" lon="6.881121983751655"><ele></ele><time>2015-2-2T20:54:45Z</time></trkpt>
<trkpt lat="46.3883769325912" lon="6.880520917475224"><ele></ele><time>2015-2-2T20:54:48Z</time></trkpt>
<trkpt lat="46.387963956221938" lon="6.879830919206142"><ele></ele><time>2015-2-2T20:54:51Z</time></trkpt>
<trkpt lat="46.387873934581876" lon="6.879131952300668"><ele></ele><time>2015-2-2T20:54:54Z</time></trkpt>
<trkpt lat="46.387654999271035" lon="6.878335922956467"><ele></ele><time>2015-2-2T20:54:57Z</time></trkpt>
<trkpt lat="46.387289967387915" lon="6.878202985972166"><ele></ele><time>2015-2-2T20:55:0Z</time></trkpt>
<trkpt lat="46.387394992634654" lon="6.87724594026804"><ele></ele><time>2015-2-2T20:55:3Z</time></trkpt>
<trkpt lat="46.387632954865694" lon="6.876466926187277"><ele></ele><time>2015-2-2T20:55:6Z</time></trkpt>
<trkpt lat="46.387603953480721" lon="6.875375937670469"><ele></ele><time>2015-2-2T20:55:9Z</time></trkpt>
<trkpt lat="46.387234982103109" lon="6.874609999358654"><ele></ele><time>2015-2-2T20:55:12Z</time></trkpt>
<trkpt lat="46.386761991307139" lon="6.873877923935652"><ele></ele><time>2015-2-2T20:55:15Z</time></trkpt>
<trkpt lat="46.386348931118846" lon="6.873235953971744"><ele></ele><time>2015-2-2T20:55:18Z</time></trkpt>
<trkpt lat="46.385945929214358" lon="6.872605970129371"><ele></ele><time>2015-2-2T20:55:21Z</time></trkpt>
<trkpt lat="46.385466987267137" lon="6.871858974918723"><ele></ele><time>2015-2-2T20:55:24Z</time></trkpt>
<trkpt lat="46.384868938475847" lon="6.871995935216546"><ele></ele><time>2015-2-2T20:55:27Z</time></trkpt>
<trkpt lat="46.384560987353325" lon="6.871947990730405"><ele></ele><time>2015-2-2T20:55:30Z</time></trkpt>
<trkpt lat="46.384315984323621" lon="6.871366957202554"><ele></ele><time>2015-2-2T20:55:33Z</time></trkpt>
<trkpt lat="46.38425194658339" lon="6.870533963665366"><ele></ele><time>2015-2-2T20:55:36Z</time></trkpt>
<trkpt lat="46.384222945198417" lon="6.869625952094793"><ele></ele><time>2015-2-2T20:55:39Z</time></trkpt>
<trkpt lat="46.38418598100543" lon="6.868484923616052"><ele></ele><time>2015-2-2T20:55:42Z</time></trkpt>
<trkpt lat="46.384146921336651" lon="6.867553945630789"><ele></ele><time>2015-2-2T20:55:45Z</time></trkpt>
<trkpt lat="46.384071987122297" lon="6.865984937176108"><ele></ele><time>2015-2-2T20:55:48Z</time></trkpt>
<trkpt lat="46.384047931060195" lon="6.865223944187164"><ele></ele><time>2015-2-2T20:55:51Z</time></trkpt>
<trkpt lat="46.384124960750341" lon="6.864240998402238"><ele></ele><time>2015-2-2T20:55:54Z</time></trkpt>
<trkpt lat="46.383812986314297" lon="6.863239947706461"><ele></ele><time>2015-2-2T20:55:57Z</time></trkpt>
<trkpt lat="46.383455917239189" lon="6.862186929211021"><ele></ele><time>2015-2-2T20:56:0Z</time></trkpt>
<trkpt lat="46.383214937523007" lon="6.861446974799037"><ele></ele><time>2015-2-2T20:56:3Z</time></trkpt>
<trkpt lat="46.382913943380117" lon="6.860685981810093"><ele></ele><time>2015-2-2T20:56:6Z</time></trkpt>
<trkpt lat="46.382541954517365" lon="6.859564986079931"><ele></ele><time>2015-2-2T20:56:9Z</time></trkpt>
<trkpt lat="46.382208941504359" lon="6.858516996726394"><ele></ele><time>2015-2-2T20:56:12Z</time></trkpt>
<trkpt lat="46.382108945399523" lon="6.858112988993526"><ele></ele><time>2015-2-2T20:56:15Z</time></trkpt>
<trkpt lat="46.382355960085988" lon="6.858728975057602"><ele></ele><time>2015-2-2T20:56:18Z</time></trkpt>
<trkpt lat="46.382722919806838" lon="6.8581039365381"><ele></ele><time>2015-2-2T20:56:21Z</time></trkpt>
<trkpt lat="46.38313396833837" lon="6.857356941327453"><ele></ele><time>2015-2-2T20:56:24Z</time></trkpt>
<trkpt lat="46.383432950824499" lon="6.85681295581162"><ele></ele><time>2015-2-2T20:56:27Z</time></trkpt>
<trkpt lat="46.383744925260544" lon="6.856301994994283"><ele></ele><time>2015-2-2T20:56:30Z</time></trkpt>
<trkpt lat="46.384201990440488" lon="6.855912990868092"><ele></ele><time>2015-2-2T20:56:33Z</time></trkpt>
<trkpt lat="46.384684955701232" lon="6.855318965390325"><ele></ele><time>2015-2-2T20:56:36Z</time></trkpt>
<trkpt lat="46.384984944015741" lon="6.854780931025744"><ele></ele><time>2015-2-2T20:56:39Z</time></trkpt>
<trkpt lat="46.385437985882163" lon="6.853919941931963"><ele></ele><time>2015-2-2T20:56:42Z</time></trkpt>
<trkpt lat="46.385350981727242" lon="6.853313930332661"><ele></ele><time>2015-2-2T20:56:45Z</time></trkpt>
<trkpt lat="46.385352993384004" lon="6.85268696397543"><ele></ele><time>2015-2-2T20:56:48Z</time></trkpt>
<trkpt lat="46.385941989719868" lon="6.851745927706361"><ele></ele><time>2015-2-2T20:56:51Z</time></trkpt>
<trkpt lat="46.386467954143882" lon="6.851180987432599"><ele></ele><time>2015-2-2T20:56:54Z</time></trkpt>
<trkpt lat="46.386874979361892" lon="6.850134925916791"><ele></ele><time>2015-2-2T20:56:57Z</time></trkpt>
<trkpt lat="46.387284938246012" lon="6.849281983450055"><ele></ele><time>2015-2-2T20:57:0Z</time></trkpt>
<trkpt lat="46.387568917125463" lon="6.848272969946265"><ele></ele><time>2015-2-2T20:57:3Z</time></trkpt>
<trkpt lat="46.387610994279385" lon="6.84748699888587"><ele></ele><time>2015-2-2T20:57:6Z</time></trkpt>
<trkpt lat="46.387563971802592" lon="6.846577981486917"><ele></ele><time>2015-2-2T20:57:9Z</time></trkpt>
<trkpt lat="46.387513931840658" lon="6.845707939937711"><ele></ele><time>2015-2-2T20:57:12Z</time></trkpt>
<trkpt lat="46.387460958212614" lon="6.844880981370807"><ele></ele><time>2015-2-2T20:57:15Z</time></trkpt>
<trkpt lat="46.387341935187578" lon="6.844100961461663"><ele></ele><time>2015-2-2T20:57:18Z</time></trkpt>
<trkpt lat="46.387217966839671" lon="6.843263944610953"><ele></ele><time>2015-2-2T20:57:21Z</time></trkpt>
<trkpt lat="46.387050999328494" lon="6.842134986072779"><ele></ele><time>2015-2-2T20:57:24Z</time></trkpt>
<trkpt lat="46.386865926906466" lon="6.840884992852807"><ele></ele><time>2015-2-2T20:57:27Z</time></trkpt>
<trkpt lat="46.386721925809979" lon="6.839906992390752"><ele></ele><time>2015-2-2T20:57:30Z</time></trkpt>
<trkpt lat="46.386573985219002" lon="6.838934943079948"><ele></ele><time>2015-2-2T20:57:33Z</time></trkpt>
<trkpt lat="46.386406933888793" lon="6.837848983705044"><ele></ele><time>2015-2-2T20:57:36Z</time></trkpt>
<trkpt lat="46.386193949729204" lon="6.836513997986913"><ele></ele><time>2015-2-2T20:57:39Z</time></trkpt>
<trkpt lat="46.386068975552917" lon="6.835570950061083"><ele></ele><time>2015-2-2T20:57:42Z</time></trkpt>
<trkpt lat="46.385955987498164" lon="6.834863936528564"><ele></ele><time>2015-2-2T20:57:45Z</time></trkpt>
<trkpt lat="46.385813998058438" lon="6.833962965756655"><ele></ele><time>2015-2-2T20:57:48Z</time></trkpt>
<trkpt lat="46.38564795255661" lon="6.832810956984758"><ele></ele><time>2015-2-2T20:57:51Z</time></trkpt>
<trkpt lat="46.385519960895181" lon="6.831892970949411"><ele></ele><time>2015-2-2T20:57:54Z</time></trkpt>
<trkpt lat="46.385371936485171" lon="6.830851938575506"><ele></ele><time>2015-2-2T20:57:57Z</time></trkpt>
<trkpt lat="46.385355927050114" lon="6.830028919503093"><ele></ele><time>2015-2-2T20:58:0Z</time></trkpt>
<trkpt lat="46.385421976447105" lon="6.829303968697786"><ele></ele><time>2015-2-2T20:58:3Z</time></trkpt>
<trkpt lat="46.385616939514875" lon="6.828526966273785"><ele></ele><time>2015-2-2T20:58:6Z</time></trkpt>
<trkpt lat="46.385874934494495" lon="6.827697996050119"><ele></ele><time>2015-2-2T20:58:9Z</time></trkpt>
<trkpt lat="46.386179951950908" lon="6.826733993366361"><ele></ele><time>2015-2-2T20:58:12Z</time></trkpt>
<trkpt lat="46.386354966089129" lon="6.826013987883925"><ele></ele><time>2015-2-2T20:58:15Z</time></trkpt>
<trkpt lat="46.386455968022346" lon="6.824836917221546"><ele></ele><time>2015-2-2T20:58:18Z</time></trkpt>
<trkpt lat="46.386587982997298" lon="6.823954973369837"><ele></ele><time>2015-2-2T20:58:21Z</time></trkpt>
<trkpt lat="46.386800967156887" lon="6.823234967887402"><ele></ele><time>2015-2-2T20:58:24Z</time></trkpt>
<trkpt lat="46.387224923819304" lon="6.822519991546869"><ele></ele><time>2015-2-2T20:58:27Z</time></trkpt>
<trkpt lat="46.387600935995579" lon="6.821678951382637"><ele></ele><time>2015-2-2T20:58:30Z</time></trkpt>
<trkpt lat="46.387765975669026" lon="6.820946959778667"><ele></ele><time>2015-2-2T20:58:33Z</time></trkpt>
<trkpt lat="46.387944929301739" lon="6.82022494263947"><ele></ele><time>2015-2-2T20:58:36Z</time></trkpt>
<trkpt lat="46.388184987008572" lon="6.819346938282251"><ele></ele><time>2015-2-2T20:58:39Z</time></trkpt>
<trkpt lat="46.388361928984523" lon="6.818630956113339"><ele></ele><time>2015-2-2T20:58:42Z</time></trkpt>
<trkpt lat="46.388601986691356" lon="6.817722944542766"><ele></ele><time>2015-2-2T20:58:45Z</time></trkpt>
<trkpt lat="46.388856964185834" lon="6.817036969587207"><ele></ele><time>2015-2-2T20:58:48Z</time></trkpt>
<trkpt lat="46.389511926099658" lon="6.816296931356192"><ele></ele><time>2015-2-2T20:58:51Z</time></trkpt>
<trkpt lat="46.390037974342704" lon="6.815632916986942"><ele></ele><time>2015-2-2T20:58:54Z</time></trkpt>
<trkpt lat="46.390033951029181" lon="6.814280999824405"><ele></ele><time>2015-2-2T20:58:57Z</time></trkpt>
<trkpt lat="46.39011693187058" lon="6.813142988830805"><ele></ele><time>2015-2-2T20:59:0Z</time></trkpt>
<trkpt lat="46.390218939632177" lon="6.812301948666573"><ele></ele><time>2015-2-2T20:59:3Z</time></trkpt>
<trkpt lat="46.39033293351531" lon="6.811368959024549"><ele></ele><time>2015-2-2T20:59:6Z</time></trkpt>
<trkpt lat="46.390486992895603" lon="6.81051199324429"><ele></ele><time>2015-2-2T20:59:9Z</time></trkpt>
<trkpt lat="46.390778934583068" lon="6.809671958908439"><ele></ele><time>2015-2-2T20:59:12Z</time></trkpt>
<trkpt lat="46.391351921483874" lon="6.808733940124512"><ele></ele><time>2015-2-2T20:59:15Z</time></trkpt>
<trkpt lat="46.391708990558982" lon="6.808183919638395"><ele></ele><time>2015-2-2T20:59:18Z</time></trkpt>
<trkpt lat="46.392117943614721" lon="6.807025959715247"><ele></ele><time>2015-2-2T20:59:21Z</time></trkpt>
<trkpt lat="46.392419943585992" lon="6.806096993386746"><ele></ele><time>2015-2-2T20:59:24Z</time></trkpt>
<trkpt lat="46.392710963264108" lon="6.805546972900629"><ele></ele><time>2015-2-2T20:59:27Z</time></trkpt>
<trkpt lat="46.393291996791959" lon="6.804492948576808"><ele></ele><time>2015-2-2T20:59:30Z</time></trkpt>
<trkpt lat="46.393661973997951" lon="6.80383094586432"><ele></ele><time>2015-2-2T20:59:33Z</time></trkpt>
<trkpt lat="46.393724922090769" lon="6.803173972293735"><ele></ele><time>2015-2-2T20:59:36Z</time></trkpt>
<trkpt lat="46.393615957349539" lon="6.802330920472741"><ele></ele><time>2015-2-2T20:59:39Z</time></trkpt>
<trkpt lat="46.393480924889445" lon="6.801274968311191"><ele></ele><time>2015-2-2T20:59:42Z</time></trkpt>
<trkpt lat="46.393386963754892" lon="6.800250951200724"><ele></ele><time>2015-2-2T20:59:45Z</time></trkpt>
<trkpt lat="46.393326949328184" lon="6.799462968483567"><ele></ele><time>2015-2-2T20:59:48Z</time></trkpt>
<trkpt lat="46.393240951001644" lon="6.798768946900964"><ele></ele><time>2015-2-2T20:59:51Z</time></trkpt>
<trkpt lat="46.393116982653737" lon="6.797781977802515"><ele></ele><time>2015-2-2T20:59:54Z</time></trkpt>
<trkpt lat="46.393007934093475" lon="6.797106983140111"><ele></ele><time>2015-2-2T20:59:57Z</time></trkpt>
<trkpt lat="46.392807941883802" lon="6.796359987929463"><ele></ele><time>2015-2-2T21:0:0Z</time></trkpt>
<trkpt lat="46.392551958560944" lon="6.792076919227839"><ele></ele><time>2015-2-2T21:0:3Z</time></trkpt>
<trkpt lat="46.392538966611028" lon="6.791167985647917"><ele></ele><time>2015-2-2T21:0:6Z</time></trkpt>
<trkpt lat="46.393444966524839" lon="6.788511928170919"><ele></ele><time>2015-2-2T21:0:9Z</time></trkpt>
<trkpt lat="46.393777979537845" lon="6.787739954888821"><ele></ele><time>2015-2-2T21:0:12Z</time></trkpt>
<trkpt lat="46.393826929852366" lon="6.786821968853474"><ele></ele><time>2015-2-2T21:0:15Z</time></trkpt>
<trkpt lat="46.394036980345845" lon="6.785883950069547"><ele></ele><time>2015-2-2T21:0:18Z</time></trkpt>
<trkpt lat="46.394241917878389" lon="6.78492397069931"><ele></ele><time>2015-2-2T21:0:21Z</time></trkpt>
<trkpt lat="46.394358929246664" lon="6.783736925572157"><ele></ele><time>2015-2-2T21:0:24Z</time></trkpt>
<trkpt lat="46.394523968920112" lon="6.782867973670363"><ele></ele><time>2015-2-2T21:0:27Z</time></trkpt>
<trkpt lat="46.394869973883033" lon="6.781744966283441"><ele></ele><time>2015-2-2T21:0:30Z</time></trkpt>
<trkpt lat="46.395154958590865" lon="6.780852964147925"><ele></ele><time>2015-2-2T21:0:33Z</time></trkpt>
<trkpt lat="46.395475985482335" lon="6.779905976727605"><ele></ele><time>2015-2-2T21:0:36Z</time></trkpt>
<trkpt lat="46.39576893299818" lon="6.779091926291585"><ele></ele><time>2015-2-2T21:0:39Z</time></trkpt>
<trkpt lat="46.396024916321039" lon="6.778486920520663"><ele></ele><time>2015-2-2T21:0:42Z</time></trkpt>
<trkpt lat="46.396503942087293" lon="6.777334995567799"><ele></ele><time>2015-2-2T21:0:45Z</time></trkpt>
<trkpt lat="46.396876936778426" lon="6.776301926001906"><ele></ele><time>2015-2-2T21:0:48Z</time></trkpt>
<trkpt lat="46.397085981443524" lon="6.775385951623321"><ele></ele><time>2015-2-2T21:0:51Z</time></trkpt>
<trkpt lat="46.397075923159719" lon="6.77458992227912"><ele></ele><time>2015-2-2T21:0:54Z</time></trkpt>
<trkpt lat="46.397044993937016" lon="6.773864971473813"><ele></ele><time>2015-2-2T21:0:57Z</time></trkpt>
<trkpt lat="46.397001994773746" lon="6.772737940773368"><ele></ele><time>2015-2-2T21:1:0Z</time></trkpt>
<trkpt lat="46.397175919264555" lon="6.771644940599799"><ele></ele><time>2015-2-2T21:1:3Z</time></trkpt>
<trkpt lat="46.397429974749684" lon="6.770876990631223"><ele></ele><time>2015-2-2T21:1:6Z</time></trkpt>
<trkpt lat="46.39793892391026" lon="6.769761946052313"><ele></ele><time>2015-2-2T21:1:9Z</time></trkpt>
<trkpt lat="46.398226926103234" lon="6.768955942243338"><ele></ele><time>2015-2-2T21:1:12Z</time></trkpt>
<trkpt lat="46.398514928296208" lon="6.768139963969588"><ele></ele><time>2015-2-2T21:1:15Z</time></trkpt>
<trkpt lat="46.398742999881506" lon="6.76741392351687"><ele></ele><time>2015-2-2T21:1:18Z</time></trkpt>
<trkpt lat="46.398868979886174" lon="6.766637926921248"><ele></ele><time>2015-2-2T21:1:21Z</time></trkpt>
<trkpt lat="46.398998983204365" lon="6.765898978337646"><ele></ele><time>2015-2-2T21:1:24Z</time></trkpt>
<trkpt lat="46.399383964017034" lon="6.764894993975759"><ele></ele><time>2015-2-2T21:1:27Z</time></trkpt>
<trkpt lat="46.399617986753583" lon="6.763978935778141"><ele></ele><time>2015-2-2T21:1:30Z</time></trkpt>
<trkpt lat="46.399781936779618" lon="6.763300923630595"><ele></ele><time>2015-2-2T21:1:33Z</time></trkpt>
<trkpt lat="46.399860978126526" lon="6.762642944231629"><ele></ele><time>2015-2-2T21:1:36Z</time></trkpt>
<trkpt lat="46.399939935654402" lon="6.761828977614641"><ele></ele><time>2015-2-2T21:1:39Z</time></trkpt>
<trkpt lat="46.399987963959575" lon="6.761107966303825"><ele></ele><time>2015-2-2T21:1:42Z</time></trkpt>
<trkpt lat="46.40010598115623" lon="6.760206995531917"><ele></ele><time>2015-2-2T21:1:45Z</time></trkpt>
<trkpt lat="46.400237996131182" lon="6.759518925100565"><ele></ele><time>2015-2-2T21:1:48Z</time></trkpt>
<trkpt lat="46.400479981675744" lon="6.758889947086573"><ele></ele><time>2015-2-2T21:1:51Z</time></trkpt>
<trkpt lat="46.401358991861343" lon="6.758095929399133"><ele></ele><time>2015-2-2T21:1:54Z</time></trkpt>
<trkpt lat="46.401884956285357" lon="6.757322950288653"><ele></ele><time>2015-2-2T21:1:57Z</time></trkpt>
<trkpt lat="46.402135994285345" lon="6.756662959232926"><ele></ele><time>2015-2-2T21:2:0Z</time></trkpt>
<trkpt lat="46.4024059753865" lon="6.755927950143814"><ele></ele><time>2015-2-2T21:2:3Z</time></trkpt>
<trkpt lat="46.402684925124049" lon="6.755236946046352"><ele></ele><time>2015-2-2T21:2:6Z</time></trkpt>
<trkpt lat="46.402598926797509" lon="6.754169929772615"><ele></ele><time>2015-2-2T21:2:9Z</time></trkpt>
<trkpt lat="46.402699928730726" lon="6.753158988431096"><ele></ele><time>2015-2-2T21:2:12Z</time></trkpt>
<trkpt lat="46.402953984215856" lon="6.752183921635151"><ele></ele><time>2015-2-2T21:2:15Z</time></trkpt>
<trkpt lat="46.403275933116674" lon="6.750919930636883"><ele></ele><time>2015-2-2T21:2:18Z</time></trkpt>
<trkpt lat="46.403553960844874" lon="6.749866995960474"><ele></ele><time>2015-2-2T21:2:21Z</time></trkpt>
<trkpt lat="46.403716988861561" lon="6.749131986871362"><ele></ele><time>2015-2-2T21:2:24Z</time></trkpt>
<trkpt lat="46.40380198135972" lon="6.748424973338842"><ele></ele><time>2015-2-2T21:2:27Z</time></trkpt>
<trkpt lat="46.403809944167733" lon="6.747266929596663"><ele></ele><time>2015-2-2T21:2:30Z</time></trkpt>
<trkpt lat="46.403795946389437" lon="6.746179964393377"><ele></ele><time>2015-2-2T21:2:33Z</time></trkpt>
<trkpt lat="46.403803993016481" lon="6.745279999449849"><ele></ele><time>2015-2-2T21:2:36Z</time></trkpt>
<trkpt lat="46.403917986899614" lon="6.744612967595458"><ele></ele><time>2015-2-2T21:2:39Z</time></trkpt>
<trkpt lat="46.403878927230835" lon="6.743635972961783"><ele></ele><time>2015-2-2T21:2:42Z</time></trkpt>
<trkpt lat="46.404129965230823" lon="6.741895973682404"><ele></ele><time>2015-2-2T21:2:45Z</time></trkpt>
<trkpt lat="46.404313948005438" lon="6.740859970450401"><ele></ele><time>2015-2-2T21:2:48Z</time></trkpt>
<trkpt lat="46.404463984072208" lon="6.739909965544939"><ele></ele><time>2015-2-2T21:2:51Z</time></trkpt>
<trkpt lat="46.40457596629858" lon="6.73909499309957"><ele></ele><time>2015-2-2T21:2:54Z</time></trkpt>
<trkpt lat="46.404592981562018" lon="6.738347997888923"><ele></ele><time>2015-2-2T21:2:57Z</time></trkpt>
<trkpt lat="46.404625922441483" lon="6.737602930516005"><ele></ele><time>2015-2-2T21:3:0Z</time></trkpt>
<trkpt lat="46.40466196462512" lon="6.736758956685662"><ele></ele><time>2015-2-2T21:3:3Z</time></trkpt>
<trkpt lat="46.40468392521143" lon="6.736017996445298"><ele></ele><time>2015-2-2T21:3:6Z</time></trkpt>
<trkpt lat="46.404878972098231" lon="6.735041923820972"><ele></ele><time>2015-2-2T21:3:9Z</time></trkpt>
<trkpt lat="46.405128920450807" lon="6.733879940584302"><ele></ele><time>2015-2-2T21:3:12Z</time></trkpt>
<trkpt lat="46.405273927375674" lon="6.733233947306871"><ele></ele><time>2015-2-2T21:3:15Z</time></trkpt>
<trkpt lat="46.405508955940604" lon="6.732593988999724"><ele></ele><time>2015-2-2T21:3:18Z</time></trkpt>
<trkpt lat="46.405701991170645" lon="6.731750937178731"><ele></ele><time>2015-2-2T21:3:21Z</time></trkpt>
<trkpt lat="46.405922938138247" lon="6.730625918135047"><ele></ele><time>2015-2-2T21:3:24Z</time></trkpt>
<trkpt lat="46.406125947833061" lon="6.729597961530089"><ele></ele><time>2015-2-2T21:3:27Z</time></trkpt>
<trkpt lat="46.406299956142902" lon="6.728771924972534"><ele></ele><time>2015-2-2T21:3:30Z</time></trkpt>
<trkpt lat="46.40637899748981" lon="6.72811595723033"><ele></ele><time>2015-2-2T21:3:33Z</time></trkpt>
<trkpt lat="46.406360976397991" lon="6.727397963404656"><ele></ele><time>2015-2-2T21:3:36Z</time></trkpt>
<trkpt lat="46.406432976946235" lon="6.726701930165291"><ele></ele><time>2015-2-2T21:3:39Z</time></trkpt>
<trkpt lat="46.406675968319178" lon="6.726042944937944"><ele></ele><time>2015-2-2T21:3:42Z</time></trkpt>
<trkpt lat="46.406950978562236" lon="6.725514968857169"><ele></ele><time>2015-2-2T21:3:45Z</time></trkpt>
<trkpt lat="46.407348951324821" lon="6.724317949265242"><ele></ele><time>2015-2-2T21:3:48Z</time></trkpt>
<trkpt lat="46.407451964914799" lon="6.723608924075961"><ele></ele><time>2015-2-2T21:3:51Z</time></trkpt>
<trkpt lat="46.407265970483422" lon="6.72244593501091"><ele></ele><time>2015-2-2T21:3:54Z</time></trkpt>
<trkpt lat="46.407151976600289" lon="6.721809916198254"><ele></ele><time>2015-2-2T21:3:57Z</time></trkpt>
<trkpt lat="46.407086933031678" lon="6.721082953736186"><ele></ele><time>2015-2-2T21:4:0Z</time></trkpt>
<trkpt lat="46.407118951901793" lon="6.72042497433722"><ele></ele><time>2015-2-2T21:4:3Z</time></trkpt>
<trkpt lat="46.407293966040015" lon="6.719287969172001"><ele></ele><time>2015-2-2T21:4:6Z</time></trkpt>
<trkpt lat="46.407494964078069" lon="6.718338970094919"><ele></ele><time>2015-2-2T21:4:9Z</time></trkpt>
<trkpt lat="46.407451964914799" lon="6.717455936595798"><ele></ele><time>2015-2-2T21:4:12Z</time></trkpt>
<trkpt lat="46.407451964914799" lon="6.716722939163446"><ele></ele><time>2015-2-2T21:4:15Z</time></trkpt>
<trkpt lat="46.407301928848028" lon="6.715356940403581"><ele></ele><time>2015-2-2T21:4:18Z</time></trkpt>
<trkpt lat="46.407514996826649" lon="6.714159920811653"><ele></ele><time>2015-2-2T21:4:21Z</time></trkpt>
<trkpt lat="46.407622955739498" lon="6.712639946490526"><ele></ele><time>2015-2-2T21:4:24Z</time></trkpt>
<trkpt lat="46.407518936321139" lon="6.711945924907923"><ele></ele><time>2015-2-2T21:4:27Z</time></trkpt>
<trkpt lat="46.407600995153189" lon="6.710469955578446"><ele></ele><time>2015-2-2T21:4:30Z</time></trkpt>
<trkpt lat="46.407689927145839" lon="6.709776939824224"><ele></ele><time>2015-2-2T21:4:33Z</time></trkpt>
<trkpt lat="46.407794952392578" lon="6.708710929378867"><ele></ele><time>2015-2-2T21:4:36Z</time></trkpt>
<trkpt lat="46.407759999856353" lon="6.707584988325834"><ele></ele><time>2015-2-2T21:4:39Z</time></trkpt>
<trkpt lat="46.407785983756185" lon="6.706584943458438"><ele></ele><time>2015-2-2T21:4:42Z</time></trkpt>
<trkpt lat="46.407703924924135" lon="6.705830991268158"><ele></ele><time>2015-2-2T21:4:45Z</time></trkpt>
<trkpt lat="46.407588925212622" lon="6.704979976639152"><ele></ele><time>2015-2-2T21:4:48Z</time></trkpt>
<trkpt lat="46.407558917999268" lon="6.704105995595455"><ele></ele><time>2015-2-2T21:4:51Z</time></trkpt>
<trkpt lat="46.407598983496428" lon="6.702907970175147"><ele></ele><time>2015-2-2T21:4:54Z</time></trkpt>
<trkpt lat="46.407645922154188" lon="6.701956959441304"><ele></ele><time>2015-2-2T21:4:57Z</time></trkpt>
<trkpt lat="46.407682970166206" lon="6.70110996812582"><ele></ele><time>2015-2-2T21:5:0Z</time></trkpt>
<trkpt lat="46.407742984592915" lon="6.69969292357564"><ele></ele><time>2015-2-2T21:5:3Z</time></trkpt>
<trkpt lat="46.407810961827636" lon="6.698753982782364"><ele></ele><time>2015-2-2T21:5:6Z</time></trkpt>
<trkpt lat="46.407910957932472" lon="6.698046969249845"><ele></ele><time>2015-2-2T21:5:9Z</time></trkpt>
<trkpt lat="46.408009948208928" lon="6.696957992389798"><ele></ele><time>2015-2-2T21:5:12Z</time></trkpt>
<trkpt lat="46.407971978187561" lon="6.696051992475987"><ele></ele><time>2015-2-2T21:5:15Z</time></trkpt>
<trkpt lat="46.407914981245995" lon="6.695240959525108"><ele></ele><time>2015-2-2T21:5:18Z</time></trkpt>
<trkpt lat="46.407853960990906" lon="6.694330936297774"><ele></ele><time>2015-2-2T21:5:21Z</time></trkpt>
<trkpt lat="46.40782093629241" lon="6.693633981049061"><ele></ele><time>2015-2-2T21:5:24Z</time></trkpt>
<trkpt lat="46.407776931300759" lon="6.692845998331904"><ele></ele><time>2015-2-2T21:5:27Z</time></trkpt>
<trkpt lat="46.407687999308109" lon="6.691266931593418"><ele></ele><time>2015-2-2T21:5:30Z</time></trkpt>
<trkpt lat="46.407642988488078" lon="6.690503926947713"><ele></ele><time>2015-2-2T21:5:33Z</time></trkpt>
<trkpt lat="46.407576939091086" lon="6.689322916790843"><ele></ele><time>2015-2-2T21:5:36Z</time></trkpt>
<trkpt lat="46.407532934099436" lon="6.688515990972519"><ele></ele><time>2015-2-2T21:5:39Z</time></trkpt>
<trkpt lat="46.407436961308122" lon="6.687628934159875"><ele></ele><time>2015-2-2T21:5:42Z</time></trkpt>
<trkpt lat="46.407202938571572" lon="6.686824942007661"><ele></ele><time>2015-2-2T21:5:45Z</time></trkpt>
<trkpt lat="46.407005963847041" lon="6.686207950115204"><ele></ele><time>2015-2-2T21:5:48Z</time></trkpt>
<trkpt lat="46.406799936667085" lon="6.685501942411065"><ele></ele><time>2015-2-2T21:5:51Z</time></trkpt>
<trkpt lat="46.406654929742217" lon="6.684851925820112"><ele></ele><time>2015-2-2T21:5:54Z</time></trkpt>
<trkpt lat="46.40659399330616" lon="6.683730930089951"><ele></ele><time>2015-2-2T21:5:57Z</time></trkpt>
<trkpt lat="46.406631963327527" lon="6.683036992326379"><ele></ele><time>2015-2-2T21:6:0Z</time></trkpt>
<trkpt lat="46.406700946390629" lon="6.682207938283682"><ele></ele><time>2015-2-2T21:6:3Z</time></trkpt>
<trkpt lat="46.406793985515833" lon="6.681244941428304"><ele></ele><time>2015-2-2T21:6:6Z</time></trkpt>
<trkpt lat="46.406879983842373" lon="6.680308934301138"><ele></ele><time>2015-2-2T21:6:9Z</time></trkpt>
<trkpt lat="46.406950978562236" lon="6.679492956027389"><ele></ele><time>2015-2-2T21:6:12Z</time></trkpt>
<trkpt lat="46.407001940533519" lon="6.678550997748971"><ele></ele><time>2015-2-2T21:6:15Z</time></trkpt>
<trkpt lat="46.406800942495465" lon="6.677184998989105"><ele></ele><time>2015-2-2T21:6:18Z</time></trkpt>
<trkpt lat="46.406580917537212" lon="6.676411936059594"><ele></ele><time>2015-2-2T21:6:21Z</time></trkpt>
<trkpt lat="46.406357958912849" lon="6.675686985254288"><ele></ele><time>2015-2-2T21:6:24Z</time></trkpt>
<trkpt lat="46.406039949506521" lon="6.674655927345157"><ele></ele><time>2015-2-2T21:6:27Z</time></trkpt>
<trkpt lat="46.405773991718888" lon="6.67382393963635"><ele></ele><time>2015-2-2T21:6:30Z</time></trkpt>
<trkpt lat="46.405537957325578" lon="6.673028999939561"><ele></ele><time>2015-2-2T21:6:33Z</time></trkpt>
<trkpt lat="46.405320949852467" lon="6.672357944771648"><ele></ele><time>2015-2-2T21:6:36Z</time></trkpt>
<trkpt lat="46.405132943764329" lon="6.671686973422766"><ele></ele><time>2015-2-2T21:6:39Z</time></trkpt>
<trkpt lat="46.404807977378368" lon="6.670415941625834"><ele></ele><time>2015-2-2T21:6:42Z</time></trkpt>
<trkpt lat="46.404689960181713" lon="6.669772965833545"><ele></ele><time>2015-2-2T21:6:45Z</time></trkpt>
<trkpt lat="46.40459499321878" lon="6.669122949242592"><ele></ele><time>2015-2-2T21:6:48Z</time></trkpt>
<trkpt lat="46.404484938830137" lon="6.668426999822259"><ele></ele><time>2015-2-2T21:6:51Z</time></trkpt>
<trkpt lat="46.404365999624133" lon="6.667718980461359"><ele></ele><time>2015-2-2T21:6:54Z</time></trkpt>
<trkpt lat="46.404277989640832" lon="6.666578957810998"><ele></ele><time>2015-2-2T21:6:57Z</time></trkpt>
<trkpt lat="46.404361976310611" lon="6.665269955992699"><ele></ele><time>2015-2-2T21:7:0Z</time></trkpt>
<trkpt lat="46.40438393689692" lon="6.663744952529669"><ele></ele><time>2015-2-2T21:7:3Z</time></trkpt>
<trkpt lat="46.404377985745668" lon="6.663014972582459"><ele></ele><time>2015-2-2T21:7:6Z</time></trkpt>
<trkpt lat="46.404380919411778" lon="6.662090951576829"><ele></ele><time>2015-2-2T21:7:9Z</time></trkpt>
<trkpt lat="46.404458954930305" lon="6.660606935620308"><ele></ele><time>2015-2-2T21:7:12Z</time></trkpt>
<trkpt lat="46.404505977407098" lon="6.659603957086802"><ele></ele><time>2015-2-2T21:7:15Z</time></trkpt>
<trkpt lat="46.404583929106593" lon="6.658317921683192"><ele></ele><time>2015-2-2T21:7:18Z</time></trkpt>
<trkpt lat="46.404628939926624" lon="6.657659942284226"><ele></ele><time>2015-2-2T21:7:21Z</time></trkpt>
<trkpt lat="46.40470395796001" lon="6.656883945688605"><ele></ele><time>2015-2-2T21:7:24Z</time></trkpt>
<trkpt lat="46.404771935194731" lon="6.656192941591144"><ele></ele><time>2015-2-2T21:7:27Z</time></trkpt>
<trkpt lat="46.40487696044147" lon="6.655032970011234"><ele></ele><time>2015-2-2T21:7:30Z</time></trkpt>
<trkpt lat="46.40494192019105" lon="6.654189918190241"><ele></ele><time>2015-2-2T21:7:33Z</time></trkpt>
<trkpt lat="46.405011992901564" lon="6.653521964326501"><ele></ele><time>2015-2-2T21:7:36Z</time></trkpt>
<trkpt lat="46.405127998441458" lon="6.652633985504508"><ele></ele><time>2015-2-2T21:7:39Z</time></trkpt>
<trkpt lat="46.405295971781015" lon="6.65180099196732"><ele></ele><time>2015-2-2T21:7:42Z</time></trkpt>
<trkpt lat="46.405475931242108" lon="6.65089993737638"><ele></ele><time>2015-2-2T21:7:45Z</time></trkpt>
<trkpt lat="46.405632924288511" lon="6.650132993236184"><ele></ele><time>2015-2-2T21:7:48Z</time></trkpt>
<trkpt lat="46.405797963961959" lon="6.649014931172133"><ele></ele><time>2015-2-2T21:7:51Z</time></trkpt>
<trkpt lat="46.405789917334914" lon="6.647847918793559"><ele></ele><time>2015-2-2T21:7:54Z</time></trkpt>
<trkpt lat="46.405730992555618" lon="6.646465994417667"><ele></ele><time>2015-2-2T21:7:57Z</time></trkpt>
<trkpt lat="46.405706936493516" lon="6.645681951195002"><ele></ele><time>2015-2-2T21:8:0Z</time></trkpt>
<trkpt lat="46.405667960643768" lon="6.644711997359991"><ele></ele><time>2015-2-2T21:8:3Z</time></trkpt>
<trkpt lat="46.405590930953622" lon="6.644060974940658"><ele></ele><time>2015-2-2T21:8:6Z</time></trkpt>
<trkpt lat="46.405404936522245" lon="6.643052967265248"><ele></ele><time>2015-2-2T21:8:9Z</time></trkpt>
<trkpt lat="46.405316926538944" lon="6.642394987866283"><ele></ele><time>2015-2-2T21:8:12Z</time></trkpt>
<trkpt lat="46.405231934040785" lon="6.641247924417257"><ele></ele><time>2015-2-2T21:8:15Z</time></trkpt>
<trkpt lat="46.405188934877515" lon="6.640507970005274"><ele></ele><time>2015-2-2T21:8:18Z</time></trkpt>
<trkpt lat="46.405112994834781" lon="6.639338945969939"><ele></ele><time>2015-2-2T21:8:21Z</time></trkpt>
<trkpt lat="46.405223971232772" lon="6.638048971071839"><ele></ele><time>2015-2-2T21:8:24Z</time></trkpt>
<trkpt lat="46.405371995642781" lon="6.637237938120961"><ele></ele><time>2015-2-2T21:8:27Z</time></trkpt>
<trkpt lat="46.405466962605715" lon="6.636561937630177"><ele></ele><time>2015-2-2T21:8:30Z</time></trkpt>
<trkpt lat="46.405388927087188" lon="6.635567927733064"><ele></ele><time>2015-2-2T21:8:33Z</time></trkpt>
<trkpt lat="46.405268982052803" lon="6.63474096916616"><ele></ele><time>2015-2-2T21:8:36Z</time></trkpt>
<trkpt lat="46.405158927664161" lon="6.634065974503756"><ele></ele><time>2015-2-2T21:8:39Z</time></trkpt>
<trkpt lat="46.405052980408072" lon="6.633394919335842"><ele></ele><time>2015-2-2T21:8:42Z</time></trkpt>
<trkpt lat="46.404943931847811" lon="6.632659994065762"><ele></ele><time>2015-2-2T21:8:45Z</time></trkpt>
<trkpt lat="46.404826920479536" lon="6.631890954449773"><ele></ele><time>2015-2-2T21:8:48Z</time></trkpt>
<trkpt lat="46.404675962403417" lon="6.630914965644479"><ele></ele><time>2015-2-2T21:8:51Z</time></trkpt>
<trkpt lat="46.404460966587067" lon="6.629425920546055"><ele></ele><time>2015-2-2T21:8:54Z</time></trkpt>
<trkpt lat="46.404279917478561" lon="6.6282769292593"><ele></ele><time>2015-2-2T21:8:57Z</time></trkpt>
<trkpt lat="46.404197942465544" lon="6.627450976520777"><ele></ele><time>2015-2-2T21:9:0Z</time></trkpt>
<trkpt lat="46.40416894108057" lon="6.626724936068058"><ele></ele><time>2015-2-2T21:9:3Z</time></trkpt>
<trkpt lat="46.404118984937668" lon="6.625688932836056"><ele></ele><time>2015-2-2T21:9:6Z</time></trkpt>
<trkpt lat="46.404045978561044" lon="6.624088995158672"><ele></ele><time>2015-2-2T21:9:9Z</time></trkpt>
<trkpt lat="46.404003985226154" lon="6.62320495583117"><ele></ele><time>2015-2-2T21:9:12Z</time></trkpt>
<trkpt lat="46.403911951929331" lon="6.622395934537053"><ele></ele><time>2015-2-2T21:9:15Z</time></trkpt>
<trkpt lat="46.403795946389437" lon="6.621674923226237"><ele></ele><time>2015-2-2T21:9:18Z</time></trkpt>
<trkpt lat="46.403641970828176" lon="6.620828937739134"><ele></ele><time>2015-2-2T21:9:21Z</time></trkpt>
<trkpt lat="46.403492940589786" lon="6.620071968063712"><ele></ele><time>2015-2-2T21:9:24Z</time></trkpt>
<trkpt lat="46.403333935886621" lon="6.619009980931878"><ele></ele><time>2015-2-2T21:9:27Z</time></trkpt>
<trkpt lat="46.403299989178777" lon="6.618118984624744"><ele></ele><time>2015-2-2T21:9:30Z</time></trkpt>
<trkpt lat="46.403274927288294" lon="6.617062948644161"><ele></ele><time>2015-2-2T21:9:33Z</time></trkpt>
<trkpt lat="46.403267970308661" lon="6.61639298312366"><ele></ele><time>2015-2-2T21:9:36Z</time></trkpt>
<trkpt lat="46.403154982253909" lon="6.615428980439901"><ele></ele><time>2015-2-2T21:9:39Z</time></trkpt>
<trkpt lat="46.403066972270608" lon="6.614648960530758"><ele></ele><time>2015-2-2T21:9:42Z</time></trkpt>
<trkpt lat="46.402982985600829" lon="6.614004978910089"><ele></ele><time>2015-2-2T21:9:45Z</time></trkpt>
<trkpt lat="46.402938980609179" lon="6.612534960731864"><ele></ele><time>2015-2-2T21:9:48Z</time></trkpt>
<trkpt lat="46.402945937588811" lon="6.611717976629734"><ele></ele><time>2015-2-2T21:9:51Z</time></trkpt>
<trkpt lat="46.402850970625877" lon="6.610992942005396"><ele></ele><time>2015-2-2T21:9:54Z</time></trkpt>
<trkpt lat="46.402708981186152" lon="6.610278971493244"><ele></ele><time>2015-2-2T21:9:57Z</time></trkpt>
<trkpt lat="46.402581995353103" lon="6.609649993479252"><ele></ele><time>2015-2-2T21:10:0Z</time></trkpt>
<trkpt lat="46.402401952072978" lon="6.608847929164767"><ele></ele><time>2015-2-2T21:10:3Z</time></trkpt>
<trkpt lat="46.402230961248279" lon="6.607964979484677"><ele></ele><time>2015-2-2T21:10:6Z</time></trkpt>
<trkpt lat="46.402108920738101" lon="6.607321919873357"><ele></ele><time>2015-2-2T21:10:9Z</time></trkpt>
<trkpt lat="46.401909934356809" lon="6.605868916958571"><ele></ele><time>2015-2-2T21:10:12Z</time></trkpt>
<trkpt lat="46.401860984042287" lon="6.605183947831392"><ele></ele><time>2015-2-2T21:10:15Z</time></trkpt>
<trkpt lat="46.401785966008902" lon="6.604279959574342"><ele></ele><time>2015-2-2T21:10:18Z</time></trkpt>
<trkpt lat="46.401731986552477" lon="6.603575963526964"><ele></ele><time>2015-2-2T21:10:21Z</time></trkpt>
<trkpt lat="46.401683958247304" lon="6.602804996073246"><ele></ele><time>2015-2-2T21:10:24Z</time></trkpt>
<trkpt lat="46.401624949648976" lon="6.601973930373788"><ele></ele><time>2015-2-2T21:10:27Z</time></trkpt>
<trkpt lat="46.401529982686043" lon="6.600792920216918"><ele></ele><time>2015-2-2T21:10:30Z</time></trkpt>
<trkpt lat="46.401460999622941" lon="6.599805951118469"><ele></ele><time>2015-2-2T21:10:33Z</time></trkpt>
<trkpt lat="46.401443984359503" lon="6.598479934036732"><ele></ele><time>2015-2-2T21:10:36Z</time></trkpt>
<trkpt lat="46.401496957987547" lon="6.5971639752388"><ele></ele><time>2015-2-2T21:10:39Z</time></trkpt>
<trkpt lat="46.401468962430954" lon="6.596509935334325"><ele></ele><time>2015-2-2T21:10:42Z</time></trkpt>
<trkpt lat="46.401390926912427" lon="6.596016995608807"><ele></ele><time>2015-2-2T21:10:45Z</time></trkpt>
<trkpt lat="46.401193952187896" lon="6.59529497846961"><ele></ele><time>2015-2-2T21:10:48Z</time></trkpt>
<trkpt lat="46.400692965835333" lon="6.594849983230233"><ele></ele><time>2015-2-2T21:10:51Z</time></trkpt>
<trkpt lat="46.400448968634009" lon="6.594283953309059"><ele></ele><time>2015-2-2T21:10:54Z</time></trkpt>
<trkpt lat="46.400392977520823" lon="6.593590937554836"><ele></ele><time>2015-2-2T21:10:57Z</time></trkpt>
<trkpt lat="46.400370933115482" lon="6.592842936515808"><ele></ele><time>2015-2-2T21:11:0Z</time></trkpt>
<trkpt lat="46.400349978357553" lon="6.592093929648399"><ele></ele><time>2015-2-2T21:11:3Z</time></trkpt>
<trkpt lat="46.400830931961536" lon="6.592075992375612"><ele></ele><time>2015-2-2T21:11:6Z</time></trkpt>
<trkpt lat="46.401057997718453" lon="6.591595960780978"><ele></ele><time>2015-2-2T21:11:9Z</time></trkpt>
<trkpt lat="46.401351951062679" lon="6.591137973591685"><ele></ele><time>2015-2-2T21:11:12Z</time></trkpt>
<trkpt lat="46.401652945205569" lon="6.590656936168671"><ele></ele><time>2015-2-2T21:11:15Z</time></trkpt>
<trkpt lat="46.402051923796535" lon="6.590422997251153"><ele></ele><time>2015-2-2T21:11:18Z</time></trkpt>
<trkpt lat="46.402044966816902" lon="6.590217975899577"><ele></ele><time>2015-2-2T21:11:21Z</time></trkpt>
<trkpt lat="46.402066927403212" lon="6.589082982391119"><ele></ele><time>2015-2-2T21:11:24Z</time></trkpt>
<trkpt lat="46.402027951553464" lon="6.588299944996834"><ele></ele><time>2015-2-2T21:11:27Z</time></trkpt>
<trkpt lat="46.401915969327092" lon="6.587655963376164"><ele></ele><time>2015-2-2T21:11:30Z</time></trkpt>
<trkpt lat="46.401839945465326" lon="6.586813917383552"><ele></ele><time>2015-2-2T21:11:33Z</time></trkpt>
<trkpt lat="46.401641964912415" lon="6.585978996008635"><ele></ele><time>2015-2-2T21:11:36Z</time></trkpt>
<trkpt lat="46.401077946648002" lon="6.584691954776645"><ele></ele><time>2015-2-2T21:11:39Z</time></trkpt>
<trkpt lat="46.400607973337173" lon="6.583699956536293"><ele></ele><time>2015-2-2T21:11:42Z</time></trkpt>
<trkpt lat="46.400160966441035" lon="6.582622965797782"><ele></ele><time>2015-2-2T21:11:45Z</time></trkpt>
<trkpt lat="46.399848992004991" lon="6.582072945311666"><ele></ele><time>2015-2-2T21:11:48Z</time></trkpt>
<trkpt lat="46.399384969845414" lon="6.581077929586172"><ele></ele><time>2015-2-2T21:11:51Z</time></trkpt>
<trkpt lat="46.399279944598675" lon="6.58040695823729"><ele></ele><time>2015-2-2T21:11:54Z</time></trkpt>
<trkpt lat="46.399125969037414" lon="6.579257966950536"><ele></ele><time>2015-2-2T21:11:57Z</time></trkpt>
<trkpt lat="46.39896797016263" lon="6.578229926526547"><ele></ele><time>2015-2-2T21:12:0Z</time></trkpt>
<trkpt lat="46.398836961016059" lon="6.577429957687855"><ele></ele><time>2015-2-2T21:12:3Z</time></trkpt>
<trkpt lat="46.398804942145944" lon="6.576593946665525"><ele></ele><time>2015-2-2T21:12:6Z</time></trkpt>
<trkpt lat="46.398655995726585" lon="6.575948959216476"><ele></ele><time>2015-2-2T21:12:9Z</time></trkpt>
<trkpt lat="46.398548958823085" lon="6.575116971507669"><ele></ele><time>2015-2-2T21:12:12Z</time></trkpt>
<trkpt lat="46.398383919149637" lon="6.573990946635604"><ele></ele><time>2015-2-2T21:12:15Z</time></trkpt>
<trkpt lat="46.398266991600394" lon="6.57327295280993"><ele></ele><time>2015-2-2T21:12:18Z</time></trkpt>
<trkpt lat="46.39802391640842" lon="6.571785919368267"><ele></ele><time>2015-2-2T21:12:21Z</time></trkpt>
<trkpt lat="46.397893996909261" lon="6.570805991068482"><ele></ele><time>2015-2-2T21:12:24Z</time></trkpt>
<trkpt lat="46.397778997197747" lon="6.570031922310591"><ele></ele><time>2015-2-2T21:12:27Z</time></trkpt>
<trkpt lat="46.397627955302596" lon="6.568982927128673"><ele></ele><time>2015-2-2T21:12:30Z</time></trkpt>
<trkpt lat="46.39752896502614" lon="6.568250935524702"><ele></ele><time>2015-2-2T21:12:33Z</time></trkpt>
<trkpt lat="46.397401979193091" lon="6.567395981401205"><ele></ele><time>2015-2-2T21:12:36Z</time></trkpt>
<trkpt lat="46.397298965603113" lon="6.566674970090389"><ele></ele><time>2015-2-2T21:12:39Z</time></trkpt>
<trkpt lat="46.39718497171998" lon="6.565889921039343"><ele></ele><time>2015-2-2T21:12:42Z</time></trkpt>
<trkpt lat="46.397051950916648" lon="6.564951986074448"><ele></ele><time>2015-2-2T21:12:45Z</time></trkpt>
<trkpt lat="46.396927982568741" lon="6.564086973667145"><ele></ele><time>2015-2-2T21:12:48Z</time></trkpt>
<trkpt lat="46.396746933460236" lon="6.562825916334987"><ele></ele><time>2015-2-2T21:12:51Z</time></trkpt>
<trkpt lat="46.396650960668921" lon="6.562152933329344"><ele></ele><time>2015-2-2T21:12:54Z</time></trkpt>
<trkpt lat="46.396554987877607" lon="6.561496965587139"><ele></ele><time>2015-2-2T21:12:57Z</time></trkpt>
<trkpt lat="46.396449962630868" lon="6.560787940397859"><ele></ele><time>2015-2-2T21:13:0Z</time></trkpt>
<trkpt lat="46.396355917677283" lon="6.560115963220596"><ele></ele><time>2015-2-2T21:13:3Z</time></trkpt>
<trkpt lat="46.396215939894319" lon="6.559184985235333"><ele></ele><time>2015-2-2T21:13:6Z</time></trkpt>
<trkpt lat="46.396118961274624" lon="6.558528933674097"><ele></ele><time>2015-2-2T21:13:9Z</time></trkpt>
<trkpt lat="46.395961968228221" lon="6.557455966249108"><ele></ele><time>2015-2-2T21:13:12Z</time></trkpt>
<trkpt lat="46.395849986001849" lon="6.556802932173014"><ele></ele><time>2015-2-2T21:13:15Z</time></trkpt>
<trkpt lat="46.395685952156782" lon="6.555921994149685"><ele></ele><time>2015-2-2T21:13:18Z</time></trkpt>
<trkpt lat="46.395546980202198" lon="6.555194947868586"><ele></ele><time>2015-2-2T21:13:21Z</time></trkpt>
<trkpt lat="46.395385963842273" lon="6.554081998765469"><ele></ele><time>2015-2-2T21:13:24Z</time></trkpt>
<trkpt lat="46.395256966352463" lon="6.553390994668007"><ele></ele><time>2015-2-2T21:13:27Z</time></trkpt>
<trkpt lat="46.395044988021255" lon="6.551866997033358"><ele></ele><time>2015-2-2T21:13:30Z</time></trkpt>
<trkpt lat="46.394949937239289" lon="6.550771985203028"><ele></ele><time>2015-2-2T21:13:33Z</time></trkpt>
<trkpt lat="46.394895957782865" lon="6.549883922562003"><ele></ele><time>2015-2-2T21:13:36Z</time></trkpt>
<trkpt lat="46.394854970276356" lon="6.549200965091586"><ele></ele><time>2015-2-2T21:13:39Z</time></trkpt>
<trkpt lat="46.394806941971183" lon="6.548495963215828"><ele></ele><time>2015-2-2T21:13:42Z</time></trkpt>
<trkpt lat="46.394722955301404" lon="6.547280922532082"><ele></ele><time>2015-2-2T21:13:45Z</time></trkpt>
<trkpt lat="46.39464994892478" lon="6.546088932082057"><ele></ele><time>2015-2-2T21:13:48Z</time></trkpt>
<trkpt lat="46.394624970853329" lon="6.545048989355564"><ele></ele><time>2015-2-2T21:13:51Z</time></trkpt>
<trkpt lat="46.394698983058333" lon="6.544293947517872"><ele></ele><time>2015-2-2T21:13:54Z</time></trkpt>
<trkpt lat="46.394874919205904" lon="6.543319970369339"><ele></ele><time>2015-2-2T21:13:57Z</time></trkpt>
<trkpt lat="46.39501397497952" lon="6.542614968493581"><ele></ele><time>2015-2-2T21:14:0Z</time></trkpt>
<trkpt lat="46.395027972757816" lon="6.541754985228181"><ele></ele><time>2015-2-2T21:14:3Z</time></trkpt>
<trkpt lat="46.395027972757816" lon="6.540812943130732"><ele></ele><time>2015-2-2T21:14:6Z</time></trkpt>
<trkpt lat="46.394920935854316" lon="6.540147922933102"><ele></ele><time>2015-2-2T21:14:9Z</time></trkpt>
<trkpt lat="46.394413998350501" lon="6.539285928010941"><ele></ele><time>2015-2-2T21:14:12Z</time></trkpt>
<trkpt lat="46.394128929823637" lon="6.538761975243688"><ele></ele><time>2015-2-2T21:14:15Z</time></trkpt>
<trkpt lat="46.393844950944185" lon="6.537954965606332"><ele></ele><time>2015-2-2T21:14:18Z</time></trkpt>
<trkpt lat="46.393560972064734" lon="6.537174945697188"><ele></ele><time>2015-2-2T21:14:21Z</time></trkpt>
<trkpt lat="46.393153946846724" lon="6.53605998493731"><ele></ele><time>2015-2-2T21:14:24Z</time></trkpt>
<trkpt lat="46.393010951578617" lon="6.53541692532599"><ele></ele><time>2015-2-2T21:14:27Z</time></trkpt>
<trkpt lat="46.392806936055422" lon="6.534846955910325"><ele></ele><time>2015-2-2T21:14:30Z</time></trkpt>
<trkpt lat="46.392472917214036" lon="6.534029971808195"><ele></ele><time>2015-2-2T21:14:33Z</time></trkpt>
<trkpt lat="46.39213596470654" lon="6.533312983810902"><ele></ele><time>2015-2-2T21:14:36Z</time></trkpt>
<trkpt lat="46.391773950308561" lon="6.532508991658688"><ele></ele><time>2015-2-2T21:14:39Z</time></trkpt>
<trkpt lat="46.391507992520928" lon="6.531970957294107"><ele></ele><time>2015-2-2T21:14:42Z</time></trkpt>
<trkpt lat="46.391284950077534" lon="6.531395958736539"><ele></ele><time>2015-2-2T21:14:45Z</time></trkpt>
<trkpt lat="46.39101798646152" lon="6.530165998265147"><ele></ele><time>2015-2-2T21:14:48Z</time></trkpt>
<trkpt lat="46.39091094955802" lon="6.529350942000747"><ele></ele><time>2015-2-2T21:14:51Z</time></trkpt>
<trkpt lat="46.390779940411448" lon="6.528551978990436"><ele></ele><time>2015-2-2T21:14:54Z</time></trkpt>
<trkpt lat="46.390557987615466" lon="6.527630975469947"><ele></ele><time>2015-2-2T21:14:57Z</time></trkpt>
<trkpt lat="46.390305943787098" lon="6.526783984154463"><ele></ele><time>2015-2-2T21:15:0Z</time></trkpt>
<trkpt lat="46.390034956857562" lon="6.526095997542143"><ele></ele><time>2015-2-2T21:15:3Z</time></trkpt>
<trkpt lat="46.389743937179446" lon="6.52548898011446"><ele></ele><time>2015-2-2T21:15:6Z</time></trkpt>
<trkpt lat="46.389224929735065" lon="6.524663949385285"><ele></ele><time>2015-2-2T21:15:9Z</time></trkpt>
<trkpt lat="46.388865932822227" lon="6.524199927225709"><ele></ele><time>2015-2-2T21:15:12Z</time></trkpt>
<trkpt lat="46.388408951461315" lon="6.523715956136584"><ele></ele><time>2015-2-2T21:15:15Z</time></trkpt>
<trkpt lat="46.387992957606912" lon="6.523284958675504"><ele></ele><time>2015-2-2T21:15:18Z</time></trkpt>
<trkpt lat="46.387612922117114" lon="6.522900983691216"><ele></ele><time>2015-2-2T21:15:21Z</time></trkpt>
<trkpt lat="46.387006994336843" lon="6.522000934928656"><ele></ele><time>2015-2-2T21:15:24Z</time></trkpt>
<trkpt lat="46.386782946065068" lon="6.521371956914663"><ele></ele><time>2015-2-2T21:15:27Z</time></trkpt>
<trkpt lat="46.386652942746878" lon="6.520729986950755"><ele></ele><time>2015-2-2T21:15:30Z</time></trkpt>
<trkpt lat="46.386577924713492" lon="6.519889952614904"><ele></ele><time>2015-2-2T21:15:33Z</time></trkpt>
<trkpt lat="46.386467954143882" lon="6.519096940755844"><ele></ele><time>2015-2-2T21:15:36Z</time></trkpt>
<trkpt lat="46.386307943612337" lon="6.518429992720485"><ele></ele><time>2015-2-2T21:15:39Z</time></trkpt>
<trkpt lat="46.385823972523212" lon="6.517157955095172"><ele></ele><time>2015-2-2T21:15:42Z</time></trkpt>
<trkpt lat="46.385319968685508" lon="6.51597292162478"><ele></ele><time>2015-2-2T21:15:45Z</time></trkpt>
<trkpt lat="46.384922917932272" lon="6.515131965279579"><ele></ele><time>2015-2-2T21:15:48Z</time></trkpt>
<trkpt lat="46.384502984583378" lon="6.514269970357418"><ele></ele><time>2015-2-2T21:15:51Z</time></trkpt>
<trkpt lat="46.384077938273549" lon="6.513360952958465"><ele></ele><time>2015-2-2T21:15:54Z</time></trkpt>
<trkpt lat="46.383587932214141" lon="6.512510944157839"><ele></ele><time>2015-2-2T21:15:57Z</time></trkpt>
<trkpt lat="46.383311999961734" lon="6.51197399944067"><ele></ele><time>2015-2-2T21:16:0Z</time></trkpt>
<trkpt lat="46.383034978061914" lon="6.511376956477761"><ele></ele><time>2015-2-2T21:16:3Z</time></trkpt>
<trkpt lat="46.382888965308666" lon="6.510679917410016"><ele></ele><time>2015-2-2T21:16:6Z</time></trkpt>
<trkpt lat="46.382839931175113" lon="6.509921941906214"><ele></ele><time>2015-2-2T21:16:9Z</time></trkpt>
<trkpt lat="46.382882930338383" lon="6.5086689312011"><ele></ele><time>2015-2-2T21:16:12Z</time></trkpt>
<trkpt lat="46.382911931723356" lon="6.507950937375426"><ele></ele><time>2015-2-2T21:16:15Z</time></trkpt>
<trkpt lat="46.382947973906994" lon="6.506922980770469"><ele></ele><time>2015-2-2T21:16:18Z</time></trkpt>
<trkpt lat="46.38296197168529" lon="6.505844984203577"><ele></ele><time>2015-2-2T21:16:21Z</time></trkpt>
<trkpt lat="46.382804978638887" lon="6.504844939336181"><ele></ele><time>2015-2-2T21:16:24Z</time></trkpt>
<trkpt lat="46.382588976994157" lon="6.50365898385644"><ele></ele><time>2015-2-2T21:16:27Z</time></trkpt>
<trkpt lat="46.382412957027555" lon="6.502846945077181"><ele></ele><time>2015-2-2T21:16:30Z</time></trkpt>
<trkpt lat="46.382177928462625" lon="6.50198495015502"><ele></ele><time>2015-2-2T21:16:33Z</time></trkpt>
<trkpt lat="46.381877940148115" lon="6.50110493414104"><ele></ele><time>2015-2-2T21:16:36Z</time></trkpt>
<trkpt lat="46.381510980427265" lon="6.499979998916388"><ele></ele><time>2015-2-2T21:16:39Z</time></trkpt>
<trkpt lat="46.381323980167508" lon="6.499342974275351"><ele></ele><time>2015-2-2T21:16:42Z</time></trkpt>
<trkpt lat="46.381187941879034" lon="6.498291967436671"><ele></ele><time>2015-2-2T21:16:45Z</time></trkpt>
<trkpt lat="46.381141925230622" lon="6.497607920318842"><ele></ele><time>2015-2-2T21:16:48Z</time></trkpt>
<trkpt lat="46.380982920527458" lon="6.496953964233398"><ele></ele><time>2015-2-2T21:16:51Z</time></trkpt>
<trkpt lat="46.380554940551519" lon="6.496745925396681"><ele></ele><time>2015-2-2T21:16:54Z</time></trkpt>
<trkpt lat="46.381018962711096" lon="6.496967962011695"><ele></ele><time>2015-2-2T21:16:57Z</time></trkpt>
<trkpt lat="46.381080988794565" lon="6.496169921010733"><ele></ele><time>2015-2-2T21:17:0Z</time></trkpt>
<trkpt lat="46.380918966606259" lon="6.495437929406762"><ele></ele><time>2015-2-2T21:17:3Z</time></trkpt>
<trkpt lat="46.380400964990258" lon="6.494386922568083"><ele></ele><time>2015-2-2T21:17:6Z</time></trkpt>
<trkpt lat="46.380003998056054" lon="6.493576979264617"><ele></ele><time>2015-2-2T21:17:9Z</time></trkpt>
<trkpt lat="46.379370996728539" lon="6.492559919133782"><ele></ele><time>2015-2-2T21:17:12Z</time></trkpt>
<trkpt lat="46.3790069706738" lon="6.492141997441649"><ele></ele><time>2015-2-2T21:17:15Z</time></trkpt>
<trkpt lat="46.378473965451121" lon="6.491660960018635"><ele></ele><time>2015-2-2T21:17:18Z</time></trkpt>
<trkpt lat="46.37786996550858" lon="6.49113398976624"><ele></ele><time>2015-2-2T21:17:21Z</time></trkpt>
<trkpt lat="46.377383982762694" lon="6.49072595871985"><ele></ele><time>2015-2-2T21:17:24Z</time></trkpt>
<trkpt lat="46.376953991129994" lon="6.490385988727212"><ele></ele><time>2015-2-2T21:17:27Z</time></trkpt>
<trkpt lat="46.376327946782112" lon="6.489958930760622"><ele></ele><time>2015-2-2T21:17:30Z</time></trkpt>
<trkpt lat="46.375777926295996" lon="6.489551989361644"><ele></ele><time>2015-2-2T21:17:33Z</time></trkpt>
<trkpt lat="46.375273922458291" lon="6.489159967750311"><ele></ele><time>2015-2-2T21:17:36Z</time></trkpt>
<trkpt lat="46.374820964410901" lon="6.488773981109262"><ele></ele><time>2015-2-2T21:17:39Z</time></trkpt>
<trkpt lat="46.374319978058338" lon="6.488335942849517"><ele></ele><time>2015-2-2T21:17:42Z</time></trkpt>
<trkpt lat="46.373815974220634" lon="6.487861946225166"><ele></ele><time>2015-2-2T21:17:45Z</time></trkpt>
<trkpt lat="46.37322798371315" lon="6.487276973202825"><ele></ele><time>2015-2-2T21:17:48Z</time></trkpt>
<trkpt lat="46.372795980423689" lon="6.486844969913364"><ele></ele><time>2015-2-2T21:17:51Z</time></trkpt>
<trkpt lat="46.372306980192661" lon="6.486398968845606"><ele></ele><time>2015-2-2T21:17:54Z</time></trkpt>
<trkpt lat="46.371565936133265" lon="6.485701929777861"><ele></ele><time>2015-2-2T21:17:57Z</time></trkpt>
<trkpt lat="46.370872920379043" lon="6.485047973692417"><ele></ele><time>2015-2-2T21:18:0Z</time></trkpt>
<trkpt lat="46.369976978749037" lon="6.484567942097783"><ele></ele><time>2015-2-2T21:18:3Z</time></trkpt>
<trkpt lat="46.369312964379787" lon="6.484048934653401"><ele></ele><time>2015-2-2T21:18:6Z</time></trkpt>
<trkpt lat="46.368836956098676" lon="6.48340193554759"><ele></ele><time>2015-2-2T21:18:9Z</time></trkpt>
<trkpt lat="46.368376957252622" lon="6.482747979462147"><ele></ele><time>2015-2-2T21:18:12Z</time></trkpt>
<trkpt lat="46.368079986423254" lon="6.481738965958357"><ele></ele><time>2015-2-2T21:18:15Z</time></trkpt>
<trkpt lat="46.367585957050323" lon="6.480374978855252"><ele></ele><time>2015-2-2T21:18:18Z</time></trkpt>
<trkpt lat="46.367260990664363" lon="6.479337969794869"><ele></ele><time>2015-2-2T21:18:21Z</time></trkpt>
<trkpt lat="46.367037948220968" lon="6.478638919070363"><ele></ele><time>2015-2-2T21:18:24Z</time></trkpt>
<trkpt lat="46.366194980219007" lon="6.478385953232646"><ele></ele><time>2015-2-2T21:18:27Z</time></trkpt>
<trkpt lat="46.365380929782987" lon="6.47834999486804"><ele></ele><time>2015-2-2T21:18:30Z</time></trkpt>
<trkpt lat="46.364794950932264" lon="6.47832895629108"><ele></ele><time>2015-2-2T21:18:33Z</time></trkpt>
<trkpt lat="46.364158932119608" lon="6.478297943249345"><ele></ele><time>2015-2-2T21:18:36Z</time></trkpt>
<trkpt lat="46.36343196965754" lon="6.478277994319797"><ele></ele><time>2015-2-2T21:18:39Z</time></trkpt>
<trkpt lat="46.362920925021172" lon="6.478254944086075"><ele></ele><time>2015-2-2T21:18:42Z</time></trkpt>
<trkpt lat="46.362432930618525" lon="6.478240946307778"><ele></ele><time>2015-2-2T21:18:45Z</time></trkpt>
<trkpt lat="46.361817950382829" lon="6.478191995993257"><ele></ele><time>2015-2-2T21:18:48Z</time></trkpt>
<trkpt lat="46.36199296452105" lon="6.47860991768539"><ele></ele><time>2015-2-2T21:18:51Z</time></trkpt>
<trkpt lat="46.361853992566466" lon="6.478196941316128"><ele></ele><time>2015-2-2T21:18:54Z</time></trkpt>
<trkpt lat="46.361159970983863" lon="6.477945987135172"><ele></ele><time>2015-2-2T21:18:57Z</time></trkpt>
<trkpt lat="46.360556976869702" lon="6.477343998849392"><ele></ele><time>2015-2-2T21:19:0Z</time></trkpt>
<trkpt lat="46.360039981082082" lon="6.476646959781647"><ele></ele><time>2015-2-2T21:19:3Z</time></trkpt>
<trkpt lat="46.359686935320497" lon="6.476203976199031"><ele></ele><time>2015-2-2T21:19:6Z</time></trkpt>
<trkpt lat="46.359319975599647" lon="6.475781947374344"><ele></ele><time>2015-2-2T21:19:9Z</time></trkpt>
<trkpt lat="46.358892917633057" lon="6.475066971033812"><ele></ele><time>2015-2-2T21:19:12Z</time></trkpt>
<trkpt lat="46.358614973723888" lon="6.474463976919651"><ele></ele><time>2015-2-2T21:19:15Z</time></trkpt>
<trkpt lat="46.358234938234091" lon="6.473629977554083"><ele></ele><time>2015-2-2T21:19:18Z</time></trkpt>
<trkpt lat="46.35786697268486" lon="6.472897985950112"><ele></ele><time>2015-2-2T21:19:21Z</time></trkpt>
<trkpt lat="46.357439998537302" lon="6.4723339676857"><ele></ele><time>2015-2-2T21:19:24Z</time></trkpt>
<trkpt lat="46.357042947784066" lon="6.471851924434304"><ele></ele><time>2015-2-2T21:19:27Z</time></trkpt>
<trkpt lat="46.356495944783092" lon="6.471208948642016"><ele></ele><time>2015-2-2T21:19:30Z</time></trkpt>
<trkpt lat="46.356116998940706" lon="6.470797983929515"><ele></ele><time>2015-2-2T21:19:33Z</time></trkpt>
<trkpt lat="46.355732940137386" lon="6.47042297758162"><ele></ele><time>2015-2-2T21:19:36Z</time></trkpt>
<trkpt lat="46.354936994612217" lon="6.469915956258774"><ele></ele><time>2015-2-2T21:19:39Z</time></trkpt>
<trkpt lat="46.354384962469339" lon="6.469545979052782"><ele></ele><time>2015-2-2T21:19:42Z</time></trkpt>
<trkpt lat="46.353624975308776" lon="6.469037951901555"><ele></ele><time>2015-2-2T21:19:45Z</time></trkpt>
<trkpt lat="46.35305299423635" lon="6.46868297830224"><ele></ele><time>2015-2-2T21:19:48Z</time></trkpt>
<trkpt lat="46.35262199677527" lon="6.468398999422789"><ele></ele><time>2015-2-2T21:19:51Z</time></trkpt>
<trkpt lat="46.352157974615693" lon="6.468147961422801"><ele></ele><time>2015-2-2T21:19:54Z</time></trkpt>
<trkpt lat="46.351532936096191" lon="6.467406917363405"><ele></ele><time>2015-2-2T21:19:57Z</time></trkpt>
<trkpt lat="46.351124988868833" lon="6.467630965635181"><ele></ele><time>2015-2-2T21:20:0Z</time></trkpt>
<trkpt lat="46.350391991436481" lon="6.467280937358737"><ele></ele><time>2015-2-2T21:20:3Z</time></trkpt>
<trkpt lat="46.349948924034834" lon="6.467064935714006"><ele></ele><time>2015-2-2T21:20:6Z</time></trkpt>
<trkpt lat="46.349240988492966" lon="6.466721948236227"><ele></ele><time>2015-2-2T21:20:9Z</time></trkpt>
<trkpt lat="46.348302969709039" lon="6.466101938858628"><ele></ele><time>2015-2-2T21:20:12Z</time></trkpt>
<trkpt lat="46.347483973950148" lon="6.465449994429946"><ele></ele><time>2015-2-2T21:20:15Z</time></trkpt>
<trkpt lat="46.34703797288239" lon="6.465150928124785"><ele></ele><time>2015-2-2T21:20:18Z</time></trkpt>
<trkpt lat="46.346484934911132" lon="6.464886981993914"><ele></ele><time>2015-2-2T21:20:21Z</time></trkpt>
<trkpt lat="46.34589996188879" lon="6.464745998382568"><ele></ele><time>2015-2-2T21:20:24Z</time></trkpt>
<trkpt lat="46.345435939729214" lon="6.464703921228647"><ele></ele><time>2015-2-2T21:20:27Z</time></trkpt>
<trkpt lat="46.344734961166978" lon="6.464681960642338"><ele></ele><time>2015-2-2T21:20:30Z</time></trkpt>
<trkpt lat="46.344140935689211" lon="6.464620940387249"><ele></ele><time>2015-2-2T21:20:33Z</time></trkpt>
<trkpt lat="46.343551939353347" lon="6.464454978704453"><ele></ele><time>2015-2-2T21:20:36Z</time></trkpt>
<trkpt lat="46.343042990192771" lon="6.464220955967903"><ele></ele><time>2015-2-2T21:20:39Z</time></trkpt>
<trkpt lat="46.342501938343048" lon="6.463852990418673"><ele></ele><time>2015-2-2T21:20:42Z</time></trkpt>
<trkpt lat="46.342106983065605" lon="6.463473960757256"><ele></ele><time>2015-2-2T21:20:45Z</time></trkpt>
<trkpt lat="46.341756954789162" lon="6.463037934154272"><ele></ele><time>2015-2-2T21:20:48Z</time></trkpt>
<trkpt lat="46.341199977323413" lon="6.462146937847138"><ele></ele><time>2015-2-2T21:20:51Z</time></trkpt>
<trkpt lat="46.340860929340124" lon="6.461309920996428"><ele></ele><time>2015-2-2T21:20:54Z</time></trkpt>
<trkpt lat="46.340607963502407" lon="6.460488997399807"><ele></ele><time>2015-2-2T21:20:57Z</time></trkpt>
<trkpt lat="46.340365977957845" lon="6.459867982193828"><ele></ele><time>2015-2-2T21:21:0Z</time></trkpt>
<trkpt lat="46.340005975216627" lon="6.459112940356135"><ele></ele><time>2015-2-2T21:21:3Z</time></trkpt>
<trkpt lat="46.339522926136851" lon="6.458363933488727"><ele></ele><time>2015-2-2T21:21:6Z</time></trkpt>
<trkpt lat="46.338967960327864" lon="6.457741996273398"><ele></ele><time>2015-2-2T21:21:9Z</time></trkpt>
<trkpt lat="46.338278967887163" lon="6.457127938047051"><ele></ele><time>2015-2-2T21:21:12Z</time></trkpt>
<trkpt lat="46.337677985429764" lon="6.456569954752922"><ele></ele><time>2015-2-2T21:21:15Z</time></trkpt>
<trkpt lat="46.337151937186718" lon="6.455925973132253"><ele></ele><time>2015-2-2T21:21:18Z</time></trkpt>
<trkpt lat="46.336687998846173" lon="6.4552569296211"><ele></ele><time>2015-2-2T21:21:21Z</time></trkpt>
<trkpt lat="46.336256917566061" lon="6.454649996012449"><ele></ele><time>2015-2-2T21:21:24Z</time></trkpt>
<trkpt lat="46.33584494702518" lon="6.454073991626501"><ele></ele><time>2015-2-2T21:21:27Z</time></trkpt>
<trkpt lat="46.33539299480617" lon="6.453425986692309"><ele></ele><time>2015-2-2T21:21:30Z</time></trkpt>
<trkpt lat="46.33494196459651" lon="6.452776975929737"><ele></ele><time>2015-2-2T21:21:33Z</time></trkpt>
<trkpt lat="46.334488922730088" lon="6.452132994309068"><ele></ele><time>2015-2-2T21:21:36Z</time></trkpt>
<trkpt lat="46.334057925269008" lon="6.451538968831301"><ele></ele><time>2015-2-2T21:21:39Z</time></trkpt>
<trkpt lat="46.333462977781892" lon="6.450789961963892"><ele></ele><time>2015-2-2T21:21:42Z</time></trkpt>
<trkpt lat="46.332887979224324" lon="6.450267937034369"><ele></ele><time>2015-2-2T21:21:45Z</time></trkpt>
<trkpt lat="46.332021960988641" lon="6.449689920991659"><ele></ele><time>2015-2-2T21:21:48Z</time></trkpt>
<trkpt lat="46.331464983522892" lon="6.449265964329243"><ele></ele><time>2015-2-2T21:21:51Z</time></trkpt>
<trkpt lat="46.330962991341949" lon="6.448748968541622"><ele></ele><time>2015-2-2T21:21:54Z</time></trkpt>
<trkpt lat="46.330402996391058" lon="6.448009936138988"><ele></ele><time>2015-2-2T21:21:57Z</time></trkpt>
<trkpt lat="46.329745939001441" lon="6.447161938995123"><ele></ele><time>2015-2-2T21:22:0Z</time></trkpt>
<trkpt lat="46.329388953745365" lon="6.446570931002498"><ele></ele><time>2015-2-2T21:22:3Z</time></trkpt>
<trkpt lat="46.328898947685957" lon="6.446466995403171"><ele></ele><time>2015-2-2T21:22:6Z</time></trkpt>
<trkpt lat="46.328374994918704" lon="6.446198942139745"><ele></ele><time>2015-2-2T21:22:9Z</time></trkpt>
<trkpt lat="46.327246958389878" lon="6.445711953565478"><ele></ele><time>2015-2-2T21:22:12Z</time></trkpt>
<trkpt lat="46.326437937095761" lon="6.445254972204566"><ele></ele><time>2015-2-2T21:22:15Z</time></trkpt>
<trkpt lat="46.325883977115154" lon="6.44485398195684"><ele></ele><time>2015-2-2T21:22:18Z</time></trkpt>
<trkpt lat="46.325128935277462" lon="6.444214945659041"><ele></ele><time>2015-2-2T21:22:21Z</time></trkpt>
<trkpt lat="46.324402978643775" lon="6.443646987900138"><ele></ele><time>2015-2-2T21:22:24Z</time></trkpt>
<trkpt lat="46.323603931814432" lon="6.443120939657092"><ele></ele><time>2015-2-2T21:22:27Z</time></trkpt>
<trkpt lat="46.322664991021156" lon="6.44255792722106"><ele></ele><time>2015-2-2T21:22:30Z</time></trkpt>
<trkpt lat="46.322108935564756" lon="6.442354917526245"><ele></ele><time>2015-2-2T21:22:33Z</time></trkpt>
<trkpt lat="46.321530919522047" lon="6.442201947793365"><ele></ele><time>2015-2-2T21:22:36Z</time></trkpt>
<trkpt lat="46.320901941508055" lon="6.442075967788696"><ele></ele><time>2015-2-2T21:22:39Z</time></trkpt>
<trkpt lat="46.320410929620266" lon="6.441971948370338"><ele></ele><time>2015-2-2T21:22:42Z</time></trkpt>
<trkpt lat="46.319489926099777" lon="6.44180498085916"><ele></ele><time>2015-2-2T21:22:45Z</time></trkpt>
<trkpt lat="46.318967984989285" lon="6.441722922027111"><ele></ele><time>2015-2-2T21:22:48Z</time></trkpt>
<trkpt lat="46.318113952875137" lon="6.441616974771023"><ele></ele><time>2015-2-2T21:22:51Z</time></trkpt>
<trkpt lat="46.31760198622942" lon="6.441561989486218"><ele></ele><time>2015-2-2T21:22:54Z</time></trkpt>
<trkpt lat="46.317078955471516" lon="6.441504992544651"><ele></ele><time>2015-2-2T21:22:57Z</time></trkpt>
<trkpt lat="46.316308993846178" lon="6.441449923440814"><ele></ele><time>2015-2-2T21:23:0Z</time></trkpt>
<trkpt lat="46.315671969205141" lon="6.441382952034473"><ele></ele><time>2015-2-2T21:23:3Z</time></trkpt>
<trkpt lat="46.315175928175449" lon="6.441242974251509"><ele></ele><time>2015-2-2T21:23:6Z</time></trkpt>
<trkpt lat="46.314631942659616" lon="6.440965952351689"><ele></ele><time>2015-2-2T21:23:9Z</time></trkpt>
<trkpt lat="46.313875978812575" lon="6.440541995689273"><ele></ele><time>2015-2-2T21:23:12Z</time></trkpt>
<trkpt lat="46.31339393556118" lon="6.440412998199463"><ele></ele><time>2015-2-2T21:23:15Z</time></trkpt>
<trkpt lat="46.312511991709471" lon="6.440460942685604"><ele></ele><time>2015-2-2T21:23:18Z</time></trkpt>
<trkpt lat="46.311703976243734" lon="6.440558927133679"><ele></ele><time>2015-2-2T21:23:21Z</time></trkpt>
<trkpt lat="46.31083695217967" lon="6.440686918795109"><ele></ele><time>2015-2-2T21:23:24Z</time></trkpt>
<trkpt lat="46.310298917815089" lon="6.440649954602122"><ele></ele><time>2015-2-2T21:23:27Z</time></trkpt>
<trkpt lat="46.309786951169372" lon="6.440361952409148"><ele></ele><time>2015-2-2T21:23:30Z</time></trkpt>
<trkpt lat="46.309307925403118" lon="6.440058946609497"><ele></ele><time>2015-2-2T21:23:33Z</time></trkpt>
<trkpt lat="46.308851949870586" lon="6.439878987148404"><ele></ele><time>2015-2-2T21:23:36Z</time></trkpt>
<trkpt lat="46.308355992659926" lon="6.439730962738395"><ele></ele><time>2015-2-2T21:23:39Z</time></trkpt>
<trkpt lat="46.307688960805535" lon="6.439523929730058"><ele></ele><time>2015-2-2T21:23:42Z</time></trkpt>
<trkpt lat="46.307039950042963" lon="6.439307928085327"><ele></ele><time>2015-2-2T21:23:45Z</time></trkpt>
<trkpt lat="46.306450953707099" lon="6.439067954197526"><ele></ele><time>2015-2-2T21:23:48Z</time></trkpt>
<trkpt lat="46.30587394349277" lon="6.438809959217906"><ele></ele><time>2015-2-2T21:23:51Z</time></trkpt>
<trkpt lat="46.305252928286791" lon="6.438496978953481"><ele></ele><time>2015-2-2T21:23:54Z</time></trkpt>
<trkpt lat="46.304722940549254" lon="6.438003955408931"><ele></ele><time>2015-2-2T21:23:57Z</time></trkpt>
<trkpt lat="46.304199993610382" lon="6.43738092854619"><ele></ele><time>2015-2-2T21:24:0Z</time></trkpt>
<trkpt lat="46.303833955898881" lon="6.436940962448716"><ele></ele><time>2015-2-2T21:24:3Z</time></trkpt>
<trkpt lat="46.303054941818118" lon="6.436094976961613"><ele></ele><time>2015-2-2T21:24:6Z</time></trkpt>
<trkpt lat="46.3025429751724" lon="6.435704967007041"><ele></ele><time>2015-2-2T21:24:9Z</time></trkpt>
<trkpt lat="46.302021956071258" lon="6.435416964814067"><ele></ele><time>2015-2-2T21:24:12Z</time></trkpt>
<trkpt lat="46.301473947241902" lon="6.435191994532943"><ele></ele><time>2015-2-2T21:24:15Z</time></trkpt>
<trkpt lat="46.300593931227922" lon="6.434839954599738"><ele></ele><time>2015-2-2T21:24:18Z</time></trkpt>
<trkpt lat="46.300043994560838" lon="6.434622947126627"><ele></ele><time>2015-2-2T21:24:21Z</time></trkpt>
<trkpt lat="46.299528926610947" lon="6.434387918561697"><ele></ele><time>2015-2-2T21:24:24Z</time></trkpt>
<trkpt lat="46.298812944442034" lon="6.433718958869577"><ele></ele><time>2015-2-2T21:24:27Z</time></trkpt>
<trkpt lat="46.298296954482794" lon="6.432976992800832"><ele></ele><time>2015-2-2T21:24:30Z</time></trkpt>
<trkpt lat="46.297760931774974" lon="6.432203929871321"><ele></ele><time>2015-2-2T21:24:33Z</time></trkpt>
<trkpt lat="46.29736497066915" lon="6.431571934372187"><ele></ele><time>2015-2-2T21:24:36Z</time></trkpt>
<trkpt lat="46.296961968764663" lon="6.430935999378562"><ele></ele><time>2015-2-2T21:24:39Z</time></trkpt>
<trkpt lat="46.296433992683887" lon="6.43011499196291"><ele></ele><time>2015-2-2T21:24:42Z</time></trkpt>
<trkpt lat="46.296052951365709" lon="6.429567988961935"><ele></ele><time>2015-2-2T21:24:45Z</time></trkpt>
<trkpt lat="46.295318948104978" lon="6.428910931572318"><ele></ele><time>2015-2-2T21:24:48Z</time></trkpt>
<trkpt lat="46.294718971475959" lon="6.428586971014738"><ele></ele><time>2015-2-2T21:24:51Z</time></trkpt>
<trkpt lat="46.294091921299696" lon="6.428235936909914"><ele></ele><time>2015-2-2T21:24:54Z</time></trkpt>
<trkpt lat="46.293653966858983" lon="6.428006943315268"><ele></ele><time>2015-2-2T21:24:57Z</time></trkpt>
<trkpt lat="46.293144933879375" lon="6.427742997184396"><ele></ele><time>2015-2-2T21:25:0Z</time></trkpt>
<trkpt lat="46.29250799305737" lon="6.427403949201107"><ele></ele><time>2015-2-2T21:25:3Z</time></trkpt>
<trkpt lat="46.292085964232683" lon="6.427120976150036"><ele></ele><time>2015-2-2T21:25:6Z</time></trkpt>
<trkpt lat="46.291689919307828" lon="6.426725937053561"><ele></ele><time>2015-2-2T21:25:9Z</time></trkpt>
<trkpt lat="46.291276942938566" lon="6.426130989566445"><ele></ele><time>2015-2-2T21:25:12Z</time></trkpt>
<trkpt lat="46.290824990719557" lon="6.425435962155461"><ele></ele><time>2015-2-2T21:25:15Z</time></trkpt>
<trkpt lat="46.290414948016405" lon="6.424761973321438"><ele></ele><time>2015-2-2T21:25:18Z</time></trkpt>
<trkpt lat="46.29003994166851" lon="6.42422997392714"><ele></ele><time>2015-2-2T21:25:21Z</time></trkpt>
<trkpt lat="46.289579942822456" lon="6.423565959557891"><ele></ele><time>2015-2-2T21:25:24Z</time></trkpt>
<trkpt lat="46.289129918441176" lon="6.422904962673783"><ele></ele><time>2015-2-2T21:25:27Z</time></trkpt>
<trkpt lat="46.288775950670242" lon="6.422335999086499"><ele></ele><time>2015-2-2T21:25:30Z</time></trkpt>
<trkpt lat="46.288420977070928" lon="6.421729987487197"><ele></ele><time>2015-2-2T21:25:33Z</time></trkpt>
<trkpt lat="46.28775998018682" lon="6.420949967578054"><ele></ele><time>2015-2-2T21:25:36Z</time></trkpt>
<trkpt lat="46.287263939157128" lon="6.420520981773734"><ele></ele><time>2015-2-2T21:25:39Z</time></trkpt>
<trkpt lat="46.28674996085465" lon="6.420046985149384"><ele></ele><time>2015-2-2T21:25:42Z</time></trkpt>
<trkpt lat="46.286219973117113" lon="6.419157916679978"><ele></ele><time>2015-2-2T21:25:45Z</time></trkpt>
<trkpt lat="46.286055939272046" lon="6.418499937281013"><ele></ele><time>2015-2-2T21:25:48Z</time></trkpt>
<trkpt lat="46.285769948735833" lon="6.4173349365592"><ele></ele><time>2015-2-2T21:25:51Z</time></trkpt>
<trkpt lat="46.285477923229337" lon="6.416158955544233"><ele></ele><time>2015-2-2T21:25:54Z</time></trkpt>
<trkpt lat="46.285235937684774" lon="6.415230995044112"><ele></ele><time>2015-2-2T21:25:57Z</time></trkpt>
<trkpt lat="46.284634955227375" lon="6.413987958803773"><ele></ele><time>2015-2-2T21:26:0Z</time></trkpt>
<trkpt lat="46.284082923084497" lon="6.413113977760077"><ele></ele><time>2015-2-2T21:26:3Z</time></trkpt>
<trkpt lat="46.283557964488864" lon="6.41228592954576"><ele></ele><time>2015-2-2T21:26:6Z</time></trkpt>
<trkpt lat="46.28307893872261" lon="6.411508927121759"><ele></ele><time>2015-2-2T21:26:9Z</time></trkpt>
<trkpt lat="46.282556997612119" lon="6.410666964948177"><ele></ele><time>2015-2-2T21:26:12Z</time></trkpt>
<trkpt lat="46.282222978770733" lon="6.40996397472918"><ele></ele><time>2015-2-2T21:26:15Z</time></trkpt>
<trkpt lat="46.281878985464573" lon="6.408945992588997"><ele></ele><time>2015-2-2T21:26:18Z</time></trkpt>
<trkpt lat="46.281699948012829" lon="6.408347943797708"><ele></ele><time>2015-2-2T21:26:21Z</time></trkpt>
<trkpt lat="46.28142393194139" lon="6.407518973574042"><ele></ele><time>2015-2-2T21:26:24Z</time></trkpt>
<trkpt lat="46.280910959467292" lon="6.406598975881934"><ele></ele><time>2015-2-2T21:26:27Z</time></trkpt>
<trkpt lat="46.280513992533088" lon="6.406130930408835"><ele></ele><time>2015-2-2T21:26:30Z</time></trkpt>
<trkpt lat="46.280095987021923" lon="6.405574958771467"><ele></ele><time>2015-2-2T21:26:33Z</time></trkpt>
<trkpt lat="46.279819970950484" lon="6.405052933841944"><ele></ele><time>2015-2-2T21:26:36Z</time></trkpt>
<trkpt lat="46.27957496792078" lon="6.404363941401243"><ele></ele><time>2015-2-2T21:26:39Z</time></trkpt>
<trkpt lat="46.279113963246346" lon="6.402961984276772"><ele></ele><time>2015-2-2T21:26:42Z</time></trkpt>
<trkpt lat="46.278855968266726" lon="6.402393942698836"><ele></ele><time>2015-2-2T21:26:45Z</time></trkpt>
<trkpt lat="46.278506945818663" lon="6.40180092304945"><ele></ele><time>2015-2-2T21:26:48Z</time></trkpt>
<trkpt lat="46.278186924755573" lon="6.401305971667171"><ele></ele><time>2015-2-2T21:26:51Z</time></trkpt>
<trkpt lat="46.277866987511516" lon="6.400798950344324"><ele></ele><time>2015-2-2T21:26:54Z</time></trkpt>
<trkpt lat="46.277165925130248" lon="6.399721959605813"><ele></ele><time>2015-2-2T21:26:57Z</time></trkpt>
<trkpt lat="46.276808939874172" lon="6.399137992411852"><ele></ele><time>2015-2-2T21:27:0Z</time></trkpt>
<trkpt lat="46.276447931304574" lon="6.398649998009205"><ele></ele><time>2015-2-2T21:27:3Z</time></trkpt>
<trkpt lat="46.275952979922295" lon="6.398097965866327"><ele></ele><time>2015-2-2T21:27:6Z</time></trkpt>
<trkpt lat="46.275495998561382" lon="6.397612988948822"><ele></ele><time>2015-2-2T21:27:9Z</time></trkpt>
<trkpt lat="46.274979924783111" lon="6.397080989554524"><ele></ele><time>2015-2-2T21:27:12Z</time></trkpt>
<trkpt lat="46.274366956204176" lon="6.39625595882535"><ele></ele><time>2015-2-2T21:27:15Z</time></trkpt>
<trkpt lat="46.274023968726397" lon="6.395660927519202"><ele></ele><time>2015-2-2T21:27:18Z</time></trkpt>
<trkpt lat="46.273716939613223" lon="6.395109985023737"><ele></ele><time>2015-2-2T21:27:21Z</time></trkpt>
<trkpt lat="46.273286947980523" lon="6.393929980695248"><ele></ele><time>2015-2-2T21:27:24Z</time></trkpt>
<trkpt lat="46.273146970197558" lon="6.393308965489268"><ele></ele><time>2015-2-2T21:27:27Z</time></trkpt>
<trkpt lat="46.272944966331124" lon="6.392568927258253"><ele></ele><time>2015-2-2T21:27:30Z</time></trkpt>
<trkpt lat="46.272419923916459" lon="6.391079965978861"><ele></ele><time>2015-2-2T21:27:33Z</time></trkpt>
<trkpt lat="46.272042989730835" lon="6.390036921948195"><ele></ele><time>2015-2-2T21:27:36Z</time></trkpt>
<trkpt lat="46.27164694480598" lon="6.388977952301502"><ele></ele><time>2015-2-2T21:27:39Z</time></trkpt>
<trkpt lat="46.271275961771607" lon="6.387976985424757"><ele></ele><time>2015-2-2T21:27:42Z</time></trkpt>
<trkpt lat="46.271008998155594" lon="6.387280952185392"><ele></ele><time>2015-2-2T21:27:45Z</time></trkpt>
<trkpt lat="46.270632985979319" lon="6.386260958388448"><ele></ele><time>2015-2-2T21:27:48Z</time></trkpt>
<trkpt lat="46.270203916355968" lon="6.385096963495016"><ele></ele><time>2015-2-2T21:27:51Z</time></trkpt>
<trkpt lat="46.269764956086874" lon="6.383918970823288"><ele></ele><time>2015-2-2T21:27:54Z</time></trkpt>
<trkpt lat="46.269400930032134" lon="6.382990926504135"><ele></ele><time>2015-2-2T21:27:57Z</time></trkpt>
<trkpt lat="46.268991976976395" lon="6.381900943815708"><ele></ele><time>2015-2-2T21:28:0Z</time></trkpt>
<trkpt lat="46.268764995038509" lon="6.38128194026649"><ele></ele><time>2015-2-2T21:28:3Z</time></trkpt>
<trkpt lat="46.268561985343695" lon="6.380690932273865"><ele></ele><time>2015-2-2T21:28:6Z</time></trkpt>
<trkpt lat="46.268156971782446" lon="6.37962399981916"><ele></ele><time>2015-2-2T21:28:9Z</time></trkpt>
<trkpt lat="46.267800992354751" lon="6.378676928579807"><ele></ele><time>2015-2-2T21:28:12Z</time></trkpt>
<trkpt lat="46.267388937994838" lon="6.37762893922627"><ele></ele><time>2015-2-2T21:28:15Z</time></trkpt>
<trkpt lat="46.266995994374156" lon="6.376544991508126"><ele></ele><time>2015-2-2T21:28:18Z</time></trkpt>
<trkpt lat="46.26666197553277" lon="6.37567394413054"><ele></ele><time>2015-2-2T21:28:21Z</time></trkpt>
<trkpt lat="46.266396939754486" lon="6.374976988881826"><ele></ele><time>2015-2-2T21:28:24Z</time></trkpt>
<trkpt lat="46.266170963644981" lon="6.374374916777015"><ele></ele><time>2015-2-2T21:28:27Z</time></trkpt>
<trkpt lat="46.265818923711777" lon="6.373381996527314"><ele></ele><time>2015-2-2T21:28:30Z</time></trkpt>
<trkpt lat="46.265434948727489" lon="6.372350938618183"><ele></ele><time>2015-2-2T21:28:33Z</time></trkpt>
<trkpt lat="46.265111993998289" lon="6.371460948139429"><ele></ele><time>2015-2-2T21:28:36Z</time></trkpt>
<trkpt lat="46.264861961826682" lon="6.370799951255322"><ele></ele><time>2015-2-2T21:28:39Z</time></trkpt>
<trkpt lat="46.264420989900827" lon="6.369618941098452"><ele></ele><time>2015-2-2T21:28:42Z</time></trkpt>
<trkpt lat="46.264148997142911" lon="6.368857948109508"><ele></ele><time>2015-2-2T21:28:45Z</time></trkpt>
<trkpt lat="46.26389192417264" lon="6.368084968999028"><ele></ele><time>2015-2-2T21:28:48Z</time></trkpt>
<trkpt lat="46.26356896944344" lon="6.367123983800411"><ele></ele><time>2015-2-2T21:28:51Z</time></trkpt>
<trkpt lat="46.263486994430423" lon="6.366423927247524"><ele></ele><time>2015-2-2T21:28:54Z</time></trkpt>
<trkpt lat="46.263442989438772" lon="6.365644996985793"><ele></ele><time>2015-2-2T21:28:57Z</time></trkpt>
<trkpt lat="46.263382975012064" lon="6.364882998168469"><ele></ele><time>2015-2-2T21:29:0Z</time></trkpt>
<trkpt lat="46.263238973915577" lon="6.363562932237983"><ele></ele><time>2015-2-2T21:29:3Z</time></trkpt>
<trkpt lat="46.263143923133612" lon="6.362881986424327"><ele></ele><time>2015-2-2T21:29:6Z</time></trkpt>
<trkpt lat="46.262995982542634" lon="6.361630987375975"><ele></ele><time>2015-2-2T21:29:9Z</time></trkpt>
<trkpt lat="46.262850975617766" lon="6.360385939478874"><ele></ele><time>2015-2-2T21:29:12Z</time></trkpt>
<trkpt lat="46.262710997834802" lon="6.359668951481581"><ele></ele><time>2015-2-2T21:29:15Z</time></trkpt>
<trkpt lat="46.262527937069535" lon="6.3589789532125"><ele></ele><time>2015-2-2T21:29:18Z</time></trkpt>
<trkpt lat="46.262270947918296" lon="6.358139924705029"><ele></ele><time>2015-2-2T21:29:21Z</time></trkpt>
<trkpt lat="46.261817989870906" lon="6.35685296729207"><ele></ele><time>2015-2-2T21:29:24Z</time></trkpt>
<trkpt lat="46.261409958824515" lon="6.356123993173242"><ele></ele><time>2015-2-2T21:29:27Z</time></trkpt>
<trkpt lat="46.260961946099997" lon="6.355640944093466"><ele></ele><time>2015-2-2T21:29:30Z</time></trkpt>
<trkpt lat="46.260597920045257" lon="6.355237942188978"><ele></ele><time>2015-2-2T21:29:33Z</time></trkpt>
<trkpt lat="46.260423995554447" lon="6.354598989710212"><ele></ele><time>2015-2-2T21:29:36Z</time></trkpt>
<trkpt lat="46.260706968605518" lon="6.35391091927886"><ele></ele><time>2015-2-2T21:29:39Z</time></trkpt>
<trkpt lat="46.260973932221532" lon="6.35326199233532"><ele></ele><time>2015-2-2T21:29:42Z</time></trkpt>
<trkpt lat="46.260917941108346" lon="6.352611975744367"><ele></ele><time>2015-2-2T21:29:45Z</time></trkpt>
<trkpt lat="46.260896986350417" lon="6.351558957248926"><ele></ele><time>2015-2-2T21:29:48Z</time></trkpt>
<trkpt lat="46.260772934183478" lon="6.350831994786859"><ele></ele><time>2015-2-2T21:29:51Z</time></trkpt>
<trkpt lat="46.260599931702018" lon="6.349768918007612"><ele></ele><time>2015-2-2T21:29:54Z</time></trkpt>
<trkpt lat="46.260458948090672" lon="6.348649933934212"><ele></ele><time>2015-2-2T21:29:57Z</time></trkpt>
<trkpt lat="46.260274965316057" lon="6.347911991178989"><ele></ele><time>2015-2-2T21:30:0Z</time></trkpt>
<trkpt lat="46.260010935366154" lon="6.347145969048142"><ele></ele><time>2015-2-2T21:30:3Z</time></trkpt>
<trkpt lat="46.259604999795556" lon="6.346093956381083"><ele></ele><time>2015-2-2T21:30:6Z</time></trkpt>
<trkpt lat="46.259432919323444" lon="6.345390966162086"><ele></ele><time>2015-2-2T21:30:9Z</time></trkpt>
<trkpt lat="46.25929394736886" lon="6.344629973173142"><ele></ele><time>2015-2-2T21:30:12Z</time></trkpt>
<trkpt lat="46.259145922958851" lon="6.343753980472684"><ele></ele><time>2015-2-2T21:30:15Z</time></trkpt>
<trkpt lat="46.259013991802931" lon="6.34303892031312"><ele></ele><time>2015-2-2T21:30:18Z</time></trkpt>
<trkpt lat="46.258813999593258" lon="6.342066954821348"><ele></ele><time>2015-2-2T21:30:21Z</time></trkpt>
<trkpt lat="46.258396999910474" lon="6.340882927179337"><ele></ele><time>2015-2-2T21:30:24Z</time></trkpt>
<trkpt lat="46.258050994947553" lon="6.34013794362545"><ele></ele><time>2015-2-2T21:30:27Z</time></trkpt>
<trkpt lat="46.257721921429038" lon="6.339435959234834"><ele></ele><time>2015-2-2T21:30:30Z</time></trkpt>
<trkpt lat="46.257226970046759" lon="6.338381934911013"><ele></ele><time>2015-2-2T21:30:33Z</time></trkpt>
<trkpt lat="46.256731934845448" lon="6.337484987452626"><ele></ele><time>2015-2-2T21:30:36Z</time></trkpt>
<trkpt lat="46.256135981529951" lon="6.336604971438646"><ele></ele><time>2015-2-2T21:30:39Z</time></trkpt>
<trkpt lat="46.255687968805432" lon="6.336026955395937"><ele></ele><time>2015-2-2T21:30:42Z</time></trkpt>
<trkpt lat="46.255185976624489" lon="6.335618924349546"><ele></ele><time>2015-2-2T21:30:45Z</time></trkpt>
<trkpt lat="46.254637967795134" lon="6.335364952683449"><ele></ele><time>2015-2-2T21:30:48Z</time></trkpt>
<trkpt lat="46.253859959542751" lon="6.335147945210338"><ele></ele><time>2015-2-2T21:30:51Z</time></trkpt>
<trkpt lat="46.253200974315405" lon="6.334973936900497"><ele></ele><time>2015-2-2T21:30:54Z</time></trkpt>
<trkpt lat="46.252517933025956" lon="6.334771933034062"><ele></ele><time>2015-2-2T21:30:57Z</time></trkpt>
<trkpt lat="46.251823995262384" lon="6.334584932774305"><ele></ele><time>2015-2-2T21:31:0Z</time></trkpt>
<trkpt lat="46.251138942316175" lon="6.33440094999969"><ele></ele><time>2015-2-2T21:31:3Z</time></trkpt>
<trkpt lat="46.25067894347012" lon="6.334233982488513"><ele></ele><time>2015-2-2T21:31:6Z</time></trkpt>
<trkpt lat="46.250145938247442" lon="6.333868950605393"><ele></ele><time>2015-2-2T21:31:9Z</time></trkpt>
<trkpt lat="46.249681999906898" lon="6.333342986181378"><ele></ele><time>2015-2-2T21:31:12Z</time></trkpt>
<trkpt lat="46.249214960262179" lon="6.332734962925315"><ele></ele><time>2015-2-2T21:31:15Z</time></trkpt>
<trkpt lat="46.248829979449511" lon="6.332260966300964"><ele></ele><time>2015-2-2T21:31:18Z</time></trkpt>
<trkpt lat="46.248213993385434" lon="6.331804990768433"><ele></ele><time>2015-2-2T21:31:21Z</time></trkpt>
<trkpt lat="46.247615944594145" lon="6.331492932513356"><ele></ele><time>2015-2-2T21:31:24Z</time></trkpt>
<trkpt lat="46.247213948518038" lon="6.331179952248931"><ele></ele><time>2015-2-2T21:31:27Z</time></trkpt>
<trkpt lat="46.246781945228577" lon="6.330688940361142"><ele></ele><time>2015-2-2T21:31:30Z</time></trkpt>
<trkpt lat="46.246457984670997" lon="6.330124922096729"><ele></ele><time>2015-2-2T21:31:33Z</time></trkpt>
<trkpt lat="46.245960937812924" lon="6.329125966876745"><ele></ele><time>2015-2-2T21:31:36Z</time></trkpt>
<trkpt lat="46.245540920644999" lon="6.328255925327539"><ele></ele><time>2015-2-2T21:31:39Z</time></trkpt>
<trkpt lat="46.245223917067051" lon="6.327777989208698"><ele></ele><time>2015-2-2T21:31:42Z</time></trkpt>
<trkpt lat="46.244803983718157" lon="6.327489987015724"><ele></ele><time>2015-2-2T21:31:45Z</time></trkpt>
<trkpt lat="46.244480945169926" lon="6.327192932367325"><ele></ele><time>2015-2-2T21:31:48Z</time></trkpt>
<trkpt lat="46.244239965453744" lon="6.326646935194731"><ele></ele><time>2015-2-2T21:31:51Z</time></trkpt>
<trkpt lat="46.244180956855416" lon="6.32720198482275"><ele></ele><time>2015-2-2T21:31:54Z</time></trkpt>
<trkpt lat="46.244523944333196" lon="6.326919933781028"><ele></ele><time>2015-2-2T21:31:57Z</time></trkpt>
<trkpt lat="46.244194954633713" lon="6.326443925499916"><ele></ele><time>2015-2-2T21:32:0Z</time></trkpt>
<trkpt lat="46.244120942428708" lon="6.325579918920994"><ele></ele><time>2015-2-2T21:32:3Z</time></trkpt>
<trkpt lat="46.244026981294155" lon="6.324642989784479"><ele></ele><time>2015-2-2T21:32:6Z</time></trkpt>
<trkpt lat="46.243520965799689" lon="6.324435956776142"><ele></ele><time>2015-2-2T21:32:9Z</time></trkpt>
<trkpt lat="46.24283691868186" lon="6.324602924287319"><ele></ele><time>2015-2-2T21:32:12Z</time></trkpt>
<trkpt lat="46.242060922086239" lon="6.324030943214893"><ele></ele><time>2015-2-2T21:32:15Z</time></trkpt>
<trkpt lat="46.24165297485888" lon="6.323561975732446"><ele></ele><time>2015-2-2T21:32:18Z</time></trkpt>
<trkpt lat="46.241443930193782" lon="6.322868959978223"><ele></ele><time>2015-2-2T21:32:21Z</time></trkpt>
<trkpt lat="46.241254918277264" lon="6.321626929566264"><ele></ele><time>2015-2-2T21:32:24Z</time></trkpt>
<trkpt lat="46.241194987669587" lon="6.320546921342611"><ele></ele><time>2015-2-2T21:32:27Z</time></trkpt>
<trkpt lat="46.241478966549039" lon="6.319495998322964"><ele></ele><time>2015-2-2T21:32:30Z</time></trkpt>
<trkpt lat="46.241722963750362" lon="6.318407943472266"><ele></ele><time>2015-2-2T21:32:33Z</time></trkpt>
<trkpt lat="46.241443930193782" lon="6.317387949675322"><ele></ele><time>2015-2-2T21:32:36Z</time></trkpt>
<trkpt lat="46.241433955729008" lon="6.316407937556505"><ele></ele><time>2015-2-2T21:32:39Z</time></trkpt>
<trkpt lat="46.241569994017482" lon="6.315625989809632"><ele></ele><time>2015-2-2T21:32:42Z</time></trkpt>
<trkpt lat="46.241793958470225" lon="6.314986953511834"><ele></ele><time>2015-2-2T21:32:45Z</time></trkpt>
<trkpt lat="46.242133928462863" lon="6.314028985798359"><ele></ele><time>2015-2-2T21:32:48Z</time></trkpt>
<trkpt lat="46.242040973156691" lon="6.313090967014432"><ele></ele><time>2015-2-2T21:32:51Z</time></trkpt>
<trkpt lat="46.242054970934987" lon="6.312005929648876"><ele></ele><time>2015-2-2T21:32:54Z</time></trkpt>
<trkpt lat="46.242123953998089" lon="6.311143934726715"><ele></ele><time>2015-2-2T21:32:57Z</time></trkpt>
<trkpt lat="46.242451937869191" lon="6.31027297116816"><ele></ele><time>2015-2-2T21:33:0Z</time></trkpt>
<trkpt lat="46.242703981697559" lon="6.309601999819279"><ele></ele><time>2015-2-2T21:33:3Z</time></trkpt>
<trkpt lat="46.242319922894239" lon="6.309096990153194"><ele></ele><time>2015-2-2T21:33:6Z</time></trkpt>
<trkpt lat="46.241776943206787" lon="6.308662975206971"><ele></ele><time>2015-2-2T21:33:9Z</time></trkpt>
<trkpt lat="46.241283919662237" lon="6.308250920847058"><ele></ele><time>2015-2-2T21:33:12Z</time></trkpt>
<trkpt lat="46.240546982735395" lon="6.307691931724548"><ele></ele><time>2015-2-2T21:33:15Z</time></trkpt>
<trkpt lat="46.240050941705704" lon="6.30732798948884"><ele></ele><time>2015-2-2T21:33:18Z</time></trkpt>
<trkpt lat="46.23959194868803" lon="6.307315919548273"><ele></ele><time>2015-2-2T21:33:21Z</time></trkpt>
<trkpt lat="46.239357925951481" lon="6.308227954432368"><ele></ele><time>2015-2-2T21:33:24Z</time></trkpt>
<trkpt lat="46.239153994247317" lon="6.308972937986255"><ele></ele><time>2015-2-2T21:33:27Z</time></trkpt>
<trkpt lat="46.238701958209276" lon="6.308934967964888"><ele></ele><time>2015-2-2T21:33:30Z</time></trkpt>
<trkpt lat="46.238073986023664" lon="6.308443956077099"><ele></ele><time>2015-2-2T21:33:33Z</time></trkpt>
<trkpt lat="46.237260941416025" lon="6.308131981641054"><ele></ele><time>2015-2-2T21:33:36Z</time></trkpt>
<trkpt lat="46.236844947561622" lon="6.307863928377628"><ele></ele><time>2015-2-2T21:33:39Z</time></trkpt>
<trkpt lat="46.236265925690532" lon="6.307683968916535"><ele></ele><time>2015-2-2T21:33:42Z</time></trkpt>
<trkpt lat="46.235535945743322" lon="6.307354979217053"><ele></ele><time>2015-2-2T21:33:45Z</time></trkpt>
<trkpt lat="46.235086927190423" lon="6.30711198784411"><ele></ele><time>2015-2-2T21:33:48Z</time></trkpt>
<trkpt lat="46.234511928632855" lon="6.306553920730948"><ele></ele><time>2015-2-2T21:33:51Z</time></trkpt>
<trkpt lat="46.233763927593827" lon="6.306148990988731"><ele></ele><time>2015-2-2T21:33:54Z</time></trkpt>
<trkpt lat="46.233167974278331" lon="6.305577931925654"><ele></ele><time>2015-2-2T21:33:57Z</time></trkpt>
<trkpt lat="46.233065966516733" lon="6.304977955296636"><ele></ele><time>2015-2-2T21:34:0Z</time></trkpt>
<trkpt lat="46.232483927160501" lon="6.304038930684328"><ele></ele><time>2015-2-2T21:34:3Z</time></trkpt>
<trkpt lat="46.231600977480412" lon="6.30335396155715"><ele></ele><time>2015-2-2T21:34:6Z</time></trkpt>
<trkpt lat="46.230916930362582" lon="6.302935956045985"><ele></ele><time>2015-2-2T21:34:9Z</time></trkpt>
<trkpt lat="46.230389960110188" lon="6.302488949149847"><ele></ele><time>2015-2-2T21:34:12Z</time></trkpt>
<trkpt lat="46.229998944327235" lon="6.302125928923488"><ele></ele><time>2015-2-2T21:34:15Z</time></trkpt>
<trkpt lat="46.229582950472832" lon="6.301835998892784"><ele></ele><time>2015-2-2T21:34:18Z</time></trkpt>
<trkpt lat="46.22886897996068" lon="6.301538944244385"><ele></ele><time>2015-2-2T21:34:21Z</time></trkpt>
<trkpt lat="46.228063981980085" lon="6.301552942022681"><ele></ele><time>2015-2-2T21:34:24Z</time></trkpt>
<trkpt lat="46.22747297398746" lon="6.301495945081115"><ele></ele><time>2015-2-2T21:34:27Z</time></trkpt>
<trkpt lat="46.226883977651596" lon="6.301301987841725"><ele></ele><time>2015-2-2T21:34:30Z</time></trkpt>
<trkpt lat="46.226455997675657" lon="6.300488943234086"><ele></ele><time>2015-2-2T21:34:33Z</time></trkpt>
<trkpt lat="46.226091971620917" lon="6.299593923613429"><ele></ele><time>2015-2-2T21:34:36Z</time></trkpt>
<trkpt lat="46.225852919742465" lon="6.29895094782114"><ele></ele><time>2015-2-2T21:34:39Z</time></trkpt>
<trkpt lat="46.225551925599575" lon="6.298216944560409"><ele></ele><time>2015-2-2T21:34:42Z</time></trkpt>
<trkpt lat="46.225246991962194" lon="6.297497944906354"><ele></ele><time>2015-2-2T21:34:45Z</time></trkpt>
<trkpt lat="46.224774923175573" lon="6.29667392000556"><ele></ele><time>2015-2-2T21:34:48Z</time></trkpt>
<trkpt lat="46.22448893263936" lon="6.296069920063019"><ele></ele><time>2015-2-2T21:34:51Z</time></trkpt>
<trkpt lat="46.224704934284091" lon="6.295466925948858"><ele></ele><time>2015-2-2T21:34:54Z</time></trkpt>
<trkpt lat="46.22500098310411" lon="6.2948879878968"><ele></ele><time>2015-2-2T21:34:57Z</time></trkpt>
<trkpt lat="46.22474692761898" lon="6.293886937201023"><ele></ele><time>2015-2-2T21:35:0Z</time></trkpt>
<trkpt lat="46.224380973726511" lon="6.2928899936378"><ele></ele><time>2015-2-2T21:35:3Z</time></trkpt>
<trkpt lat="46.224126918241382" lon="6.292217932641506"><ele></ele><time>2015-2-2T21:35:6Z</time></trkpt>
<trkpt lat="46.223840927705169" lon="6.291566994041205"><ele></ele><time>2015-2-2T21:35:9Z</time></trkpt>
<trkpt lat="46.223589973524213" lon="6.290875989943743"><ele></ele><time>2015-2-2T21:35:12Z</time></trkpt>
<trkpt lat="46.223267940804362" lon="6.289993962273002"><ele></ele><time>2015-2-2T21:35:15Z</time></trkpt>
<trkpt lat="46.222803918644786" lon="6.289120987057686"><ele></ele><time>2015-2-2T21:35:18Z</time></trkpt>
<trkpt lat="46.222000932320952" lon="6.288258992135525"><ele></ele><time>2015-2-2T21:35:21Z</time></trkpt>
<trkpt lat="46.221636990085244" lon="6.287680976092815"><ele></ele><time>2015-2-2T21:35:24Z</time></trkpt>
<trkpt lat="46.221292996779084" lon="6.287029953673482"><ele></ele><time>2015-2-2T21:35:27Z</time></trkpt>
<trkpt lat="46.220846995711327" lon="6.286197965964675"><ele></ele><time>2015-2-2T21:35:30Z</time></trkpt>
<trkpt lat="46.220399988815188" lon="6.285354997962713"><ele></ele><time>2015-2-2T21:35:33Z</time></trkpt>
<trkpt lat="46.220041997730732" lon="6.284676985815167"><ele></ele><time>2015-2-2T21:35:36Z</time></trkpt>
<trkpt lat="46.219463981688023" lon="6.283662943169475"><ele></ele><time>2015-2-2T21:35:39Z</time></trkpt>
<trkpt lat="46.219069948419929" lon="6.282996917143464"><ele></ele><time>2015-2-2T21:35:42Z</time></trkpt>
<trkpt lat="46.218651942908764" lon="6.282253945246339"><ele></ele><time>2015-2-2T21:35:45Z</time></trkpt>
<trkpt lat="46.218247935175896" lon="6.281489934772253"><ele></ele><time>2015-2-2T21:35:48Z</time></trkpt>
<trkpt lat="46.217764969915152" lon="6.28066498786211"><ele></ele><time>2015-2-2T21:35:51Z</time></trkpt>
<trkpt lat="46.217449977993965" lon="6.280122930184007"><ele></ele><time>2015-2-2T21:35:54Z</time></trkpt>
<trkpt lat="46.217102967202663" lon="6.279507949948311"><ele></ele><time>2015-2-2T21:35:57Z</time></trkpt>
<trkpt lat="46.216766936704516" lon="6.278949966654182"><ele></ele><time>2015-2-2T21:36:0Z</time></trkpt>
<trkpt lat="46.216273996978998" lon="6.27817397005856"><ele></ele><time>2015-2-2T21:36:3Z</time></trkpt>
<trkpt lat="46.215556925162673" lon="6.277146935462952"><ele></ele><time>2015-2-2T21:36:6Z</time></trkpt>
<trkpt lat="46.215254925191402" lon="6.276190979406238"><ele></ele><time>2015-2-2T21:36:9Z</time></trkpt>
<trkpt lat="46.2149269413203" lon="6.27471492625773"><ele></ele><time>2015-2-2T21:36:12Z</time></trkpt>
<trkpt lat="46.214820994064212" lon="6.274039931595326"><ele></ele><time>2015-2-2T21:36:15Z</time></trkpt>
<trkpt lat="46.214733989909291" lon="6.273378934711218"><ele></ele><time>2015-2-2T21:36:18Z</time></trkpt>
<trkpt lat="46.214465936645865" lon="6.272057946771383"><ele></ele><time>2015-2-2T21:36:21Z</time></trkpt>
<trkpt lat="46.214330988004804" lon="6.271337941288948"><ele></ele><time>2015-2-2T21:36:24Z</time></trkpt>
<trkpt lat="46.214167959988117" lon="6.270571919158101"><ele></ele><time>2015-2-2T21:36:27Z</time></trkpt>
<trkpt lat="46.213846933096647" lon="6.269825929775834"><ele></ele><time>2015-2-2T21:36:30Z</time></trkpt>
<trkpt lat="46.213519955053926" lon="6.268966952338815"><ele></ele><time>2015-2-2T21:36:33Z</time></trkpt>
<trkpt lat="46.213372936472297" lon="6.268321964889765"><ele></ele><time>2015-2-2T21:36:36Z</time></trkpt>
<trkpt lat="46.21318694204092" lon="6.267498945817351"><ele></ele><time>2015-2-2T21:36:39Z</time></trkpt>
<trkpt lat="46.212901957333088" lon="6.266171922907233"><ele></ele><time>2015-2-2T21:36:42Z</time></trkpt>
<trkpt lat="46.212754938751459" lon="6.265461975708604"><ele></ele><time>2015-2-2T21:36:45Z</time></trkpt>
<trkpt lat="46.212605992332101" lon="6.26476694829762"><ele></ele><time>2015-2-2T21:36:48Z</time></trkpt>
<trkpt lat="46.212413962930441" lon="6.263860948383808"><ele></ele><time>2015-2-2T21:36:51Z</time></trkpt>
<trkpt lat="46.212248923256993" lon="6.263125939294696"><ele></ele><time>2015-2-2T21:36:54Z</time></trkpt>
<trkpt lat="46.212094947695732" lon="6.262457985430956"><ele></ele><time>2015-2-2T21:36:57Z</time></trkpt>
<trkpt lat="46.211890932172537" lon="6.261782990768552"><ele></ele><time>2015-2-2T21:37:0Z</time></trkpt>
<trkpt lat="46.211607959121466" lon="6.261017974466085"><ele></ele><time>2015-2-2T21:37:3Z</time></trkpt>
<trkpt lat="46.211247956380248" lon="6.260073920711875"><ele></ele><time>2015-2-2T21:37:6Z</time></trkpt>
<trkpt lat="46.21095391921699" lon="6.259301947429776"><ele></ele><time>2015-2-2T21:37:9Z</time></trkpt>
<trkpt lat="46.210491992533207" lon="6.257885992527008"><ele></ele><time>2015-2-2T21:37:12Z</time></trkpt>
<trkpt lat="46.210293928161263" lon="6.257123993709683"><ele></ele><time>2015-2-2T21:37:15Z</time></trkpt>
<trkpt lat="46.210141964256763" lon="6.256441958248615"><ele></ele><time>2015-2-2T21:37:18Z</time></trkpt>
<trkpt lat="46.209869971498847" lon="6.255688928067684"><ele></ele><time>2015-2-2T21:37:21Z</time></trkpt>
<trkpt lat="46.209546932950616" lon="6.255233958363533"><ele></ele><time>2015-2-2T21:37:24Z</time></trkpt>
<trkpt lat="46.209139991551638" lon="6.254675975069404"><ele></ele><time>2015-2-2T21:37:27Z</time></trkpt>
<trkpt lat="46.209117947146297" lon="6.253983965143561"><ele></ele><time>2015-2-2T21:37:30Z</time></trkpt>
<trkpt lat="46.208490980789065" lon="6.253202939406037"><ele></ele><time>2015-2-2T21:37:33Z</time></trkpt>
<trkpt lat="46.207992928102612" lon="6.252683931961656"><ele></ele><time>2015-2-2T21:37:36Z</time></trkpt>
<trkpt lat="46.207516919821501" lon="6.252142963930965"><ele></ele><time>2015-2-2T21:37:39Z</time></trkpt>
<trkpt lat="46.207114923745394" lon="6.251599984243512"><ele></ele><time>2015-2-2T21:37:42Z</time></trkpt>
<trkpt lat="46.206730948761106" lon="6.250849971547723"><ele></ele><time>2015-2-2T21:37:45Z</time></trkpt>
<trkpt lat="46.206461973488331" lon="6.250263992697001"><ele></ele><time>2015-2-2T21:37:48Z</time></trkpt>
<trkpt lat="46.206175982952118" lon="6.249707937240601"><ele></ele><time>2015-2-2T21:37:51Z</time></trkpt>
<trkpt lat="46.205719923600554" lon="6.249355981126428"><ele></ele><time>2015-2-2T21:37:54Z</time></trkpt>
<trkpt lat="46.205166969448328" lon="6.249681953340769"><ele></ele><time>2015-2-2T21:37:57Z</time></trkpt>
<trkpt lat="46.204622983932495" lon="6.249499982222915"><ele></ele><time>2015-2-2T21:38:0Z</time></trkpt>
<trkpt lat="46.204172959551215" lon="6.249521942809224"><ele></ele><time>2015-2-2T21:38:3Z</time></trkpt>
<trkpt lat="46.203555967658758" lon="6.249850932508707"><ele></ele><time>2015-2-2T21:38:6Z</time></trkpt>
<trkpt lat="46.203299984335899" lon="6.249237963929772"><ele></ele><time>2015-2-2T21:38:9Z</time></trkpt>
<trkpt lat="46.203177943825722" lon="6.248516952618957"><ele></ele><time>2015-2-2T21:38:12Z</time></trkpt>
<trkpt lat="46.203018939122558" lon="6.248498931527138"><ele></ele><time>2015-2-2T21:38:15Z</time></trkpt>
<trkpt lat="46.203179955482483" lon="6.247735926881433"><ele></ele><time>2015-2-2T21:38:18Z</time></trkpt>
<trkpt lat="46.203292943537235" lon="6.246950961649418"><ele></ele><time>2015-2-2T21:38:21Z</time></trkpt>
<trkpt lat="46.202829927206039" lon="6.24663295224309"><ele></ele><time>2015-2-2T21:38:24Z</time></trkpt>
<trkpt lat="46.203258996829391" lon="6.246943920850754"><ele></ele><time>2015-2-2T21:38:27Z</time></trkpt>
<trkpt lat="46.203617993742228" lon="6.24637495726347"><ele></ele><time>2015-2-2T21:38:30Z</time></trkpt>
<trkpt lat="46.203775992617011" lon="6.245674984529614"><ele></ele><time>2015-2-2T21:38:33Z</time></trkpt>
<trkpt lat="46.203621933236718" lon="6.244719950482249"><ele></ele><time>2015-2-2T21:38:36Z</time></trkpt>
<trkpt lat="46.203417917713523" lon="6.24381797388196"><ele></ele><time>2015-2-2T21:38:39Z</time></trkpt>
<trkpt lat="46.203028997406363" lon="6.242972994223237"><ele></ele><time>2015-2-2T21:38:42Z</time></trkpt>
<trkpt lat="46.202348973602057" lon="6.242628917098045"><ele></ele><time>2015-2-2T21:38:45Z</time></trkpt>
<trkpt lat="46.201779926195741" lon="6.241747979074717"><ele></ele><time>2015-2-2T21:38:48Z</time></trkpt>
<trkpt lat="46.2014349270612" lon="6.241129981353879"><ele></ele><time>2015-2-2T21:38:51Z</time></trkpt>
<trkpt lat="46.200924972072244" lon="6.240214928984642"><ele></ele><time>2015-2-2T21:38:54Z</time></trkpt>
<trkpt lat="46.200643926858902" lon="6.239707991480827"><ele></ele><time>2015-2-2T21:38:57Z</time></trkpt>
<trkpt lat="46.200277972966433" lon="6.239045988768339"><ele></ele><time>2015-2-2T21:39:0Z</time></trkpt>
<trkpt lat="46.199970943853259" lon="6.238494962453842"><ele></ele><time>2015-2-2T21:39:3Z</time></trkpt>
<trkpt lat="46.199546987190843" lon="6.23773799277842"><ele></ele><time>2015-2-2T21:39:6Z</time></trkpt>
<trkpt lat="46.199180949479342" lon="6.237141955643892"><ele></ele><time>2015-2-2T21:39:9Z</time></trkpt>
<trkpt lat="46.198729919269681" lon="6.236313991248608"><ele></ele><time>2015-2-2T21:39:12Z</time></trkpt>
<trkpt lat="46.198202949017286" lon="6.235375972464681"><ele></ele><time>2015-2-2T21:39:15Z</time></trkpt>
<trkpt lat="46.197751918807626" lon="6.234594946727157"><ele></ele><time>2015-2-2T21:39:18Z</time></trkpt>
<trkpt lat="46.197322933003306" lon="6.233845939859748"><ele></ele><time>2015-2-2T21:39:21Z</time></trkpt>
<trkpt lat="46.196951949968934" lon="6.233222996816039"><ele></ele><time>2015-2-2T21:39:24Z</time></trkpt>
<trkpt lat="46.196569986641407" lon="6.232593934983015"><ele></ele><time>2015-2-2T21:39:27Z</time></trkpt>
<trkpt lat="46.196070928126574" lon="6.231772927567363"><ele></ele><time>2015-2-2T21:39:30Z</time></trkpt>
<trkpt lat="46.195774963125587" lon="6.231198934838176"><ele></ele><time>2015-2-2T21:39:33Z</time></trkpt>
<trkpt lat="46.195292919874191" lon="6.230078944936395"><ele></ele><time>2015-2-2T21:39:36Z</time></trkpt>
<trkpt lat="46.195023944601417" lon="6.229556920006871"><ele></ele><time>2015-2-2T21:39:39Z</time></trkpt>
<trkpt lat="46.194239985197783" lon="6.228874968364835"><ele></ele><time>2015-2-2T21:39:42Z</time></trkpt>
<trkpt lat="46.193926921114326" lon="6.22826099395752"><ele></ele><time>2015-2-2T21:39:45Z</time></trkpt>
<trkpt lat="46.193690970540047" lon="6.22813199646771"><ele></ele><time>2015-2-2T21:39:48Z</time></trkpt>
<trkpt lat="46.193518973886967" lon="6.227809963747859"><ele></ele><time>2015-2-2T21:39:51Z</time></trkpt>
<trkpt lat="46.192960990592837" lon="6.2277249712497"><ele></ele><time>2015-2-2T21:39:54Z</time></trkpt>
<trkpt lat="46.192485988140106" lon="6.227654982358217"><ele></ele><time>2015-2-2T21:39:57Z</time></trkpt>
<trkpt lat="46.192017942667007" lon="6.227585999295116"><ele></ele><time>2015-2-2T21:40:0Z</time></trkpt>
<trkpt lat="46.191441938281059" lon="6.227499917149544"><ele></ele><time>2015-2-2T21:40:3Z</time></trkpt>
<trkpt lat="46.190740959718823" lon="6.227371925488114"><ele></ele><time>2015-2-2T21:40:6Z</time></trkpt>
<trkpt lat="46.189857926219702" lon="6.227187942713499"><ele></ele><time>2015-2-2T21:40:9Z</time></trkpt>
<trkpt lat="46.189190978184342" lon="6.227325992658734"><ele></ele><time>2015-2-2T21:40:12Z</time></trkpt>
<trkpt lat="46.18873592466116" lon="6.227523973211646"><ele></ele><time>2015-2-2T21:40:15Z</time></trkpt>
<trkpt lat="46.188695942983031" lon="6.227740980684757"><ele></ele><time>2015-2-2T21:40:18Z</time></trkpt>
<trkpt lat="46.189008923247457" lon="6.22824196703732"><ele></ele><time>2015-2-2T21:40:21Z</time></trkpt>
<trkpt lat="46.188925942406058" lon="6.228168960660696"><ele></ele><time>2015-2-2T21:40:24Z</time></trkpt>
<trkpt lat="46.18854196742177" lon="6.227718936279416"><ele></ele><time>2015-2-2T21:40:27Z</time></trkpt>
<trkpt lat="46.188011979684234" lon="6.228171978145838"><ele></ele><time>2015-2-2T21:40:30Z</time></trkpt>
<trkpt lat="46.187438992783427" lon="6.228815959766507"><ele></ele><time>2015-2-2T21:40:33Z</time></trkpt>
<trkpt lat="46.186815965920687" lon="6.229427922517061"><ele></ele><time>2015-2-2T21:40:36Z</time></trkpt>
<trkpt lat="46.186014991253614" lon="6.229612994939089"><ele></ele><time>2015-2-2T21:40:39Z</time></trkpt>
<trkpt lat="46.185086946934462" lon="6.229237988591194"><ele></ele><time>2015-2-2T21:40:42Z</time></trkpt>
<trkpt lat="46.184542961418629" lon="6.228795927017927"><ele></ele><time>2015-2-2T21:40:45Z</time></trkpt>
<trkpt lat="46.184131996706128" lon="6.229572929441929"><ele></ele><time>2015-2-2T21:40:48Z</time></trkpt>
<trkpt lat="46.183831924572587" lon="6.230546990409493"><ele></ele><time>2015-2-2T21:40:51Z</time></trkpt>
<trkpt lat="46.183458929881454" lon="6.230776989832521"><ele></ele><time>2015-2-2T21:40:54Z</time></trkpt>
<trkpt lat="46.182707995176315" lon="6.230447916314006"><ele></ele><time>2015-2-2T21:40:57Z</time></trkpt>
<trkpt lat="46.182054961100221" lon="6.229951959103346"><ele></ele><time>2015-2-2T21:41:0Z</time></trkpt>
<trkpt lat="46.181538971140981" lon="6.22978993691504"><ele></ele><time>2015-2-2T21:41:3Z</time></trkpt>
<trkpt lat="46.181046953424811" lon="6.229711985215545"><ele></ele><time>2015-2-2T21:41:6Z</time></trkpt>
<trkpt lat="46.180438930168748" lon="6.229762947186828"><ele></ele><time>2015-2-2T21:41:9Z</time></trkpt>
<trkpt lat="46.180156962946057" lon="6.230318918824196"><ele></ele><time>2015-2-2T21:41:12Z</time></trkpt>
<trkpt lat="46.179781956598163" lon="6.231070943176746"><ele></ele><time>2015-2-2T21:41:15Z</time></trkpt>
<trkpt lat="46.17951993830502" lon="6.231716936454177"><ele></ele><time>2015-2-2T21:41:18Z</time></trkpt>
<trkpt lat="46.179288933053613" lon="6.232315991073847"><ele></ele><time>2015-2-2T21:41:21Z</time></trkpt>
<trkpt lat="46.178895989432931" lon="6.233232971280813"><ele></ele><time>2015-2-2T21:41:24Z</time></trkpt>
<trkpt lat="46.178413946181536" lon="6.233990946784616"><ele></ele><time>2015-2-2T21:41:27Z</time></trkpt>
<trkpt lat="46.177856968715787" lon="6.234616991132498"><ele></ele><time>2015-2-2T21:41:30Z</time></trkpt>
<trkpt lat="46.177393952384591" lon="6.235016975551844"><ele></ele><time>2015-2-2T21:41:33Z</time></trkpt>
<trkpt lat="46.176799926906824" lon="6.235432969406247"><ele></ele><time>2015-2-2T21:41:36Z</time></trkpt>
<trkpt lat="46.176231969147921" lon="6.235505975782871"><ele></ele><time>2015-2-2T21:41:39Z</time></trkpt>
<trkpt lat="46.175838941708207" lon="6.235861955210567"><ele></ele><time>2015-2-2T21:41:42Z</time></trkpt>
<trkpt lat="46.176320984959602" lon="6.23548393137753"><ele></ele><time>2015-2-2T21:41:45Z</time></trkpt>
<trkpt lat="46.175803989171982" lon="6.235615946352482"><ele></ele><time>2015-2-2T21:41:48Z</time></trkpt>
<trkpt lat="46.175216920673847" lon="6.236157920211554"><ele></ele><time>2015-2-2T21:41:51Z</time></trkpt>
<trkpt lat="46.174708977341652" lon="6.236584978178144"><ele></ele><time>2015-2-2T21:41:54Z</time></trkpt>
<trkpt lat="46.174185946583748" lon="6.236972976475954"><ele></ele><time>2015-2-2T21:41:57Z</time></trkpt>
<trkpt lat="46.173639949411154" lon="6.237376984208822"><ele></ele><time>2015-2-2T21:42:0Z</time></trkpt>
<trkpt lat="46.173162935301661" lon="6.237699938938022"><ele></ele><time>2015-2-2T21:42:3Z</time></trkpt>
<trkpt lat="46.172719951719046" lon="6.238014930859208"><ele></ele><time>2015-2-2T21:42:6Z</time></trkpt>
<trkpt lat="46.172247966751456" lon="6.238239984959364"><ele></ele><time>2015-2-2T21:42:9Z</time></trkpt>
<trkpt lat="46.171614965423942" lon="6.238541984930635"><ele></ele><time>2015-2-2T21:42:12Z</time></trkpt>
<trkpt lat="46.171064944937825" lon="6.238753963261843"><ele></ele><time>2015-2-2T21:42:15Z</time></trkpt>
<trkpt lat="46.17053696885705" lon="6.238717921078205"><ele></ele><time>2015-2-2T21:42:18Z</time></trkpt>
<trkpt lat="46.170057943090796" lon="6.238694954663515"><ele></ele><time>2015-2-2T21:42:21Z</time></trkpt>
<trkpt lat="46.169446986168623" lon="6.238655978813767"><ele></ele><time>2015-2-2T21:42:24Z</time></trkpt>
<trkpt lat="46.168837957084179" lon="6.238628989085555"><ele></ele><time>2015-2-2T21:42:27Z</time></trkpt>
<trkpt lat="46.168178971856833" lon="6.238613985478878"><ele></ele><time>2015-2-2T21:42:30Z</time></trkpt>
<trkpt lat="46.167644960805774" lon="6.238603927195072"><ele></ele><time>2015-2-2T21:42:33Z</time></trkpt>
<trkpt lat="46.167021933943033" lon="6.238560928031802"><ele></ele><time>2015-2-2T21:42:36Z</time></trkpt>
<trkpt lat="46.166534945368767" lon="6.238525975495577"><ele></ele><time>2015-2-2T21:42:39Z</time></trkpt>
<trkpt lat="46.166086932644248" lon="6.23829597607255"><ele></ele><time>2015-2-2T21:42:42Z</time></trkpt>
<trkpt lat="46.165610924363136" lon="6.237869923934341"><ele></ele><time>2015-2-2T21:42:45Z</time></trkpt>
<trkpt lat="46.165194930508733" lon="6.237505981698632"><ele></ele><time>2015-2-2T21:42:48Z</time></trkpt>
<trkpt lat="46.164690926671028" lon="6.237079929560423"><ele></ele><time>2015-2-2T21:42:51Z</time></trkpt>
<trkpt lat="46.164236962795258" lon="6.236837944015861"><ele></ele><time>2015-2-2T21:42:54Z</time></trkpt>
<trkpt lat="46.163726923987269" lon="6.236571986228228"><ele></ele><time>2015-2-2T21:42:57Z</time></trkpt>
<trkpt lat="46.163347978144884" lon="6.236207960173488"><ele></ele><time>2015-2-2T21:43:0Z</time></trkpt>
<trkpt lat="46.162959979847074" lon="6.235534977167845"><ele></ele><time>2015-2-2T21:43:3Z</time></trkpt>
<trkpt lat="46.162570975720882" lon="6.234825951978564"><ele></ele><time>2015-2-2T21:43:6Z</time></trkpt>
<trkpt lat="46.162191946059465" lon="6.234233938157558"><ele></ele><time>2015-2-2T21:43:9Z</time></trkpt>
<trkpt lat="46.161280917003751" lon="6.230045920237899"><ele></ele><time>2015-2-2T21:43:12Z</time></trkpt>
<trkpt lat="46.161375967785716" lon="6.229274952784181"><ele></ele><time>2015-2-2T21:43:15Z</time></trkpt>
<trkpt lat="46.161183938384056" lon="6.228340957313776"><ele></ele><time>2015-2-2T21:43:18Z</time></trkpt>
<trkpt lat="46.160867940634489" lon="6.227683983743191"><ele></ele><time>2015-2-2T21:43:21Z</time></trkpt>
<trkpt lat="46.160490922629833" lon="6.227135974913836"><ele></ele><time>2015-2-2T21:43:24Z</time></trkpt>
<trkpt lat="46.160112982615829" lon="6.22661093249917"><ele></ele><time>2015-2-2T21:43:27Z</time></trkpt>
<trkpt lat="46.159659940749407" lon="6.22609494253993"><ele></ele><time>2015-2-2T21:43:30Z</time></trkpt>
<trkpt lat="46.159224919974804" lon="6.225725971162319"><ele></ele><time>2015-2-2T21:43:33Z</time></trkpt>
<trkpt lat="46.158602982759476" lon="6.225638967007399"><ele></ele><time>2015-2-2T21:43:36Z</time></trkpt>
<trkpt lat="46.158049944788218" lon="6.22583594173193"><ele></ele><time>2015-2-2T21:43:39Z</time></trkpt>
<trkpt lat="46.157287945970893" lon="6.225603930652142"><ele></ele><time>2015-2-2T21:43:42Z</time></trkpt>
<trkpt lat="46.156599959358573" lon="6.225418942049146"><ele></ele><time>2015-2-2T21:43:45Z</time></trkpt>
<trkpt lat="46.15594994276762" lon="6.225286927074194"><ele></ele><time>2015-2-2T21:43:48Z</time></trkpt>
<trkpt lat="46.155288945883512" lon="6.224981993436813"><ele></ele><time>2015-2-2T21:43:51Z</time></trkpt>
<trkpt lat="46.154653932899237" lon="6.224424932152033"><ele></ele><time>2015-2-2T21:43:54Z</time></trkpt>
<trkpt lat="46.154268952086568" lon="6.22407297603786"><ele></ele><time>2015-2-2T21:43:57Z</time></trkpt>
<trkpt lat="46.153672998771071" lon="6.223459923639894"><ele></ele><time>2015-2-2T21:44:0Z</time></trkpt>
<trkpt lat="46.153277959674597" lon="6.222610920667648"><ele></ele><time>2015-2-2T21:44:3Z</time></trkpt>
<trkpt lat="46.152891973033547" lon="6.221678936854005"><ele></ele><time>2015-2-2T21:44:6Z</time></trkpt>
<trkpt lat="46.152327954769135" lon="6.221066974103451"><ele></ele><time>2015-2-2T21:44:9Z</time></trkpt>
<trkpt lat="46.151920929551125" lon="6.220762962475419"><ele></ele><time>2015-2-2T21:44:12Z</time></trkpt>
<trkpt lat="46.151312990114093" lon="6.220300951972604"><ele></ele><time>2015-2-2T21:44:15Z</time></trkpt>
<trkpt lat="46.150504974648356" lon="6.219686977565289"><ele></ele><time>2015-2-2T21:44:18Z</time></trkpt>
<trkpt lat="46.150024943053722" lon="6.219321945682168"><ele></ele><time>2015-2-2T21:44:21Z</time></trkpt>
<trkpt lat="46.149387918412685" lon="6.218969989567995"><ele></ele><time>2015-2-2T21:44:24Z</time></trkpt>
<trkpt lat="46.148714935407043" lon="6.219146931543946"><ele></ele><time>2015-2-2T21:44:27Z</time></trkpt>
<trkpt lat="46.14808595739305" lon="6.219130922108889"><ele></ele><time>2015-2-2T21:44:30Z</time></trkpt>
<trkpt lat="46.147184986621141" lon="6.218697996810079"><ele></ele><time>2015-2-2T21:44:33Z</time></trkpt>
<trkpt lat="46.14647495560348" lon="6.218351991847158"><ele></ele><time>2015-2-2T21:44:36Z</time></trkpt>
<trkpt lat="46.145677920430899" lon="6.21788595803082"><ele></ele><time>2015-2-2T21:44:39Z</time></trkpt>
<trkpt lat="46.145218927413225" lon="6.21756493113935"><ele></ele><time>2015-2-2T21:44:42Z</time></trkpt>
<trkpt lat="46.144272945821285" lon="6.217402992770076"><ele></ele><time>2015-2-2T21:44:45Z</time></trkpt>
<trkpt lat="46.143373986706138" lon="6.217092946171761"><ele></ele><time>2015-2-2T21:44:48Z</time></trkpt>
<trkpt lat="46.14247695542872" lon="6.216690950095654"><ele></ele><time>2015-2-2T21:44:51Z</time></trkpt>
<trkpt lat="46.141856946051121" lon="6.216421974822879"><ele></ele><time>2015-2-2T21:44:54Z</time></trkpt>
<trkpt lat="46.141034932807088" lon="6.216072952374816"><ele></ele><time>2015-2-2T21:44:57Z</time></trkpt>
<trkpt lat="46.140552973374724" lon="6.215966921299696"><ele></ele><time>2015-2-2T21:45:0Z</time></trkpt>
<trkpt lat="46.140002952888608" lon="6.21599298901856"><ele></ele><time>2015-2-2T21:45:3Z</time></trkpt>
<trkpt lat="46.139401970431209" lon="6.215896932408214"><ele></ele><time>2015-2-2T21:45:6Z</time></trkpt>
<trkpt lat="46.138723958283663" lon="6.215329980477691"><ele></ele><time>2015-2-2T21:45:9Z</time></trkpt>
<trkpt lat="46.138315927237272" lon="6.2149219494313"><ele></ele><time>2015-2-2T21:45:12Z</time></trkpt>
<trkpt lat="46.137675968930125" lon="6.214598994702101"><ele></ele><time>2015-2-2T21:45:15Z</time></trkpt>
<trkpt lat="46.137113962322474" lon="6.214334964752197"><ele></ele><time>2015-2-2T21:45:18Z</time></trkpt>
<trkpt lat="46.136536952108145" lon="6.213589981198311"><ele></ele><time>2015-2-2T21:45:21Z</time></trkpt>
<trkpt lat="46.136189941316843" lon="6.213135933503509"><ele></ele><time>2015-2-2T21:45:24Z</time></trkpt>
<trkpt lat="46.135631958022714" lon="6.212696973234415"><ele></ele><time>2015-2-2T21:45:27Z</time></trkpt>
<trkpt lat="46.13493399694562" lon="6.212243931367993"><ele></ele><time>2015-2-2T21:45:30Z</time></trkpt>
<trkpt lat="46.134490929543972" lon="6.211943943053484"><ele></ele><time>2015-2-2T21:45:33Z</time></trkpt>
<trkpt lat="46.133983992040157" lon="6.211407920345664"><ele></ele><time>2015-2-2T21:45:36Z</time></trkpt>
<trkpt lat="46.133575960993767" lon="6.211049929261208"><ele></ele><time>2015-2-2T21:45:39Z</time></trkpt>
<trkpt lat="46.132907923310995" lon="6.210773997008801"><ele></ele><time>2015-2-2T21:45:42Z</time></trkpt>
<trkpt lat="46.132435938343406" lon="6.210237974300981"><ele></ele><time>2015-2-2T21:45:45Z</time></trkpt>
<trkpt lat="46.131968982517719" lon="6.209629951044917"><ele></ele><time>2015-2-2T21:45:48Z</time></trkpt>
<trkpt lat="46.131504960358143" lon="6.209021927788854"><ele></ele><time>2015-2-2T21:45:51Z</time></trkpt>
<trkpt lat="46.131196925416589" lon="6.208296976983547"><ele></ele><time>2015-2-2T21:45:54Z</time></trkpt>
<trkpt lat="46.130803981795907" lon="6.207889951765537"><ele></ele><time>2015-2-2T21:45:57Z</time></trkpt>
<trkpt lat="46.130159916356206" lon="6.207612929865718"><ele></ele><time>2015-2-2T21:46:0Z</time></trkpt>
<trkpt lat="46.129488945007324" lon="6.207298943772912"><ele></ele><time>2015-2-2T21:46:3Z</time></trkpt>
<trkpt lat="46.128936996683478" lon="6.207042960450053"><ele></ele><time>2015-2-2T21:46:6Z</time></trkpt>
<trkpt lat="46.128347916528583" lon="6.206720927730203"><ele></ele><time>2015-2-2T21:46:9Z</time></trkpt>
<trkpt lat="46.127841984853148" lon="6.206117933616042"><ele></ele><time>2015-2-2T21:46:12Z</time></trkpt>
<trkpt lat="46.12728894688189" lon="6.205733958631754"><ele></ele><time>2015-2-2T21:46:15Z</time></trkpt>
<trkpt lat="46.126711936667562" lon="6.205545952543616"><ele></ele><time>2015-2-2T21:46:18Z</time></trkpt>
<trkpt lat="46.126130986958742" lon="6.205368926748633"><ele></ele><time>2015-2-2T21:46:21Z</time></trkpt>
<trkpt lat="46.12552598118782" lon="6.205181926488876"><ele></ele><time>2015-2-2T21:46:24Z</time></trkpt>
<trkpt lat="46.125021977350116" lon="6.205045972019434"><ele></ele><time>2015-2-2T21:46:27Z</time></trkpt>
<trkpt lat="46.124531971290708" lon="6.205194918438792"><ele></ele><time>2015-2-2T21:46:30Z</time></trkpt>
<trkpt lat="46.123918918892741" lon="6.205564979463816"><ele></ele><time>2015-2-2T21:46:33Z</time></trkpt>
<trkpt lat="46.123300921171904" lon="6.205840995535255"><ele></ele><time>2015-2-2T21:46:36Z</time></trkpt>
<trkpt lat="46.122843939810991" lon="6.206051968038082"><ele></ele><time>2015-2-2T21:46:39Z</time></trkpt>
<trkpt lat="46.122224936261773" lon="6.205887934193015"><ele></ele><time>2015-2-2T21:46:42Z</time></trkpt>
<trkpt lat="46.12169997766614" lon="6.20615498162806"><ele></ele><time>2015-2-2T21:46:45Z</time></trkpt>
<trkpt lat="46.121156997978687" lon="6.206296971067786"><ele></ele><time>2015-2-2T21:46:48Z</time></trkpt>
<trkpt lat="46.120489966124296" lon="6.206506937742233"><ele></ele><time>2015-2-2T21:46:51Z</time></trkpt>
<trkpt lat="46.120029967278242" lon="6.206645993515849"><ele></ele><time>2015-2-2T21:46:54Z</time></trkpt>
<trkpt lat="46.119465949013829" lon="6.206630989909172"><ele></ele><time>2015-2-2T21:46:57Z</time></trkpt>
<trkpt lat="46.118912994861603" lon="6.206464944407344"><ele></ele><time>2015-2-2T21:47:0Z</time></trkpt>
<trkpt lat="46.118468921631575" lon="6.206159926950932"><ele></ele><time>2015-2-2T21:47:3Z</time></trkpt>
<trkpt lat="46.118135992437601" lon="6.206525964662433"><ele></ele><time>2015-2-2T21:47:6Z</time></trkpt>
<trkpt lat="46.118282927200198" lon="6.207211939617991"><ele></ele><time>2015-2-2T21:47:9Z</time></trkpt>
<trkpt lat="46.117877997457981" lon="6.20763991959393"><ele></ele><time>2015-2-2T21:47:12Z</time></trkpt>
<trkpt lat="46.117377933114767" lon="6.207512933760881"><ele></ele><time>2015-2-2T21:47:15Z</time></trkpt>
<trkpt lat="46.116882981732488" lon="6.20716399513185"><ele></ele><time>2015-2-2T21:47:18Z</time></trkpt>
<trkpt lat="46.116448966786265" lon="6.207312941551209"><ele></ele><time>2015-2-2T21:47:21Z</time></trkpt>
<trkpt lat="46.116450978443027" lon="6.207956923171878"><ele></ele><time>2015-2-2T21:47:24Z</time></trkpt>
<trkpt lat="46.116766976192594" lon="6.208521947264671"><ele></ele><time>2015-2-2T21:47:27Z</time></trkpt>
<trkpt lat="46.117290928959846" lon="6.209008935838938"><ele></ele><time>2015-2-2T21:47:30Z</time></trkpt>
<trkpt lat="46.117725949734449" lon="6.209391988813877"><ele></ele><time>2015-2-2T21:47:33Z</time></trkpt>
<trkpt lat="46.117957960814238" lon="6.209800941869617"><ele></ele><time>2015-2-2T21:47:36Z</time></trkpt>
<trkpt lat="46.117403917014599" lon="6.209655934944749"><ele></ele><time>2015-2-2T21:47:39Z</time></trkpt>
<trkpt lat="46.116872923448682" lon="6.209592986851931"><ele></ele><time>2015-2-2T21:47:42Z</time></trkpt>
<trkpt lat="46.116316951811314" lon="6.209543952718377"><ele></ele><time>2015-2-2T21:47:45Z</time></trkpt>
<trkpt lat="46.11574798822403" lon="6.209455942735076"><ele></ele><time>2015-2-2T21:47:48Z</time></trkpt>
<trkpt lat="46.115215988829732" lon="6.209360975772142"><ele></ele><time>2015-2-2T21:47:51Z</time></trkpt>
<trkpt lat="46.114594973623753" lon="6.20927095413208"><ele></ele><time>2015-2-2T21:47:54Z</time></trkpt>
<trkpt lat="46.114045958966017" lon="6.209325939416885"><ele></ele><time>2015-2-2T21:47:57Z</time></trkpt>
<trkpt lat="46.113504990935326" lon="6.209338931366801"><ele></ele><time>2015-2-2T21:48:0Z</time></trkpt>
<trkpt lat="46.112928986549377" lon="6.209296938031912"><ele></ele><time>2015-2-2T21:48:3Z</time></trkpt>
<trkpt lat="46.112896967679262" lon="6.209927927702665"><ele></ele><time>2015-2-2T21:48:6Z</time></trkpt>
<trkpt lat="46.113384962081909" lon="6.210203943774104"><ele></ele><time>2015-2-2T21:48:9Z</time></trkpt>
<trkpt lat="46.113877985626459" lon="6.210814984515309"><ele></ele><time>2015-2-2T21:48:12Z</time></trkpt>
<trkpt lat="46.114085940644145" lon="6.211361987516284"><ele></ele><time>2015-2-2T21:48:15Z</time></trkpt>
<trkpt lat="46.113474983721972" lon="6.211565919220448"><ele></ele><time>2015-2-2T21:48:18Z</time></trkpt>
<trkpt lat="46.112951952964067" lon="6.211742945015431"><ele></ele><time>2015-2-2T21:48:21Z</time></trkpt>
<trkpt lat="46.112437974661589" lon="6.211931956931949"><ele></ele><time>2015-2-2T21:48:24Z</time></trkpt>
<trkpt lat="46.111884936690331" lon="6.211918964982033"><ele></ele><time>2015-2-2T21:48:27Z</time></trkpt>
<trkpt lat="46.111295940354466" lon="6.211892981082201"><ele></ele><time>2015-2-2T21:48:30Z</time></trkpt>
<trkpt lat="46.11069998703897" lon="6.211858950555325"><ele></ele><time>2015-2-2T21:48:33Z</time></trkpt>
<trkpt lat="46.110101938247681" lon="6.211831960827112"><ele></ele><time>2015-2-2T21:48:36Z</time></trkpt>
<trkpt lat="46.109744952991605" lon="6.212236974388361"><ele></ele><time>2015-2-2T21:48:39Z</time></trkpt>
<trkpt lat="46.109290989115834" lon="6.212753970175982"><ele></ele><time>2015-2-2T21:48:42Z</time></trkpt>
<trkpt lat="46.108588920906186" lon="6.213222937658429"><ele></ele><time>2015-2-2T21:48:45Z</time></trkpt>
<trkpt lat="46.108053987845778" lon="6.213442962616682"><ele></ele><time>2015-2-2T21:48:48Z</time></trkpt>
<trkpt lat="46.107399947941303" lon="6.213634992018342"><ele></ele><time>2015-2-2T21:48:51Z</time></trkpt>
<trkpt lat="46.106579946354032" lon="6.213756948709488"><ele></ele><time>2015-2-2T21:48:54Z</time></trkpt>
<trkpt lat="46.106122964993119" lon="6.213817968964577"><ele></ele><time>2015-2-2T21:48:57Z</time></trkpt>
<trkpt lat="46.105538997799158" lon="6.213890975341201"><ele></ele><time>2015-2-2T21:49:0Z</time></trkpt>
<trkpt lat="46.105081932619214" lon="6.214157938957214"><ele></ele><time>2015-2-2T21:49:3Z</time></trkpt>
<trkpt lat="46.104677924886346" lon="6.214458933100104"><ele></ele><time>2015-2-2T21:49:6Z</time></trkpt>
<trkpt lat="46.104240976274014" lon="6.214778954163194"><ele></ele><time>2015-2-2T21:49:9Z</time></trkpt>
<trkpt lat="46.103516947478056" lon="6.214847937226296"><ele></ele><time>2015-2-2T21:49:12Z</time></trkpt>
<trkpt lat="46.10290096141398" lon="6.214828994125128"><ele></ele><time>2015-2-2T21:49:15Z</time></trkpt>
<trkpt lat="46.102100992575288" lon="6.214870987460017"><ele></ele><time>2015-2-2T21:49:18Z</time></trkpt>
<trkpt lat="46.101609980687499" lon="6.214828994125128"><ele></ele><time>2015-2-2T21:49:21Z</time></trkpt>
<trkpt lat="46.101082926616073" lon="6.215047929435968"><ele></ele><time>2015-2-2T21:49:24Z</time></trkpt>
<trkpt lat="46.100632986053824" lon="6.215298967435956"><ele></ele><time>2015-2-2T21:49:27Z</time></trkpt>
<trkpt lat="46.099962936714292" lon="6.215491918846965"><ele></ele><time>2015-2-2T21:49:30Z</time></trkpt>
<trkpt lat="46.099419957026839" lon="6.215583952143788"><ele></ele><time>2015-2-2T21:49:33Z</time></trkpt>
<trkpt lat="46.098987953737378" lon="6.216074964031577"><ele></ele><time>2015-2-2T21:49:36Z</time></trkpt>
<trkpt lat="46.098379930481315" lon="6.216926984488964"><ele></ele><time>2015-2-2T21:49:39Z</time></trkpt>
<trkpt lat="46.097984975203872" lon="6.217374997213483"><ele></ele><time>2015-2-2T21:49:42Z</time></trkpt>
<trkpt lat="46.097567975521088" lon="6.217778921127319"><ele></ele><time>2015-2-2T21:49:45Z</time></trkpt>
<trkpt lat="46.097170924767852" lon="6.21810095384717"><ele></ele><time>2015-2-2T21:49:48Z</time></trkpt>
<trkpt lat="46.096681924536824" lon="6.218560952693224"><ele></ele><time>2015-2-2T21:49:51Z</time></trkpt>
<trkpt lat="46.095947921276093" lon="6.219234941527247"><ele></ele><time>2015-2-2T21:49:54Z</time></trkpt>
<trkpt lat="46.095410976558924" lon="6.219557980075479"><ele></ele><time>2015-2-2T21:49:57Z</time></trkpt>
<trkpt lat="46.094793984666467" lon="6.219359999522567"><ele></ele><time>2015-2-2T21:50:0Z</time></trkpt>
<trkpt lat="46.094346977770329" lon="6.219104938209057"><ele></ele><time>2015-2-2T21:50:3Z</time></trkpt>
<trkpt lat="46.093702996149659" lon="6.218569921329618"><ele></ele><time>2015-2-2T21:50:6Z</time></trkpt>
<trkpt lat="46.093037975952029" lon="6.218218971043825"><ele></ele><time>2015-2-2T21:50:9Z</time></trkpt>
<trkpt lat="46.092431964352727" lon="6.218132972717285"><ele></ele><time>2015-2-2T21:50:12Z</time></trkpt>
<trkpt lat="46.092257956042886" lon="6.21889597736299"><ele></ele><time>2015-2-2T21:50:15Z</time></trkpt>
<trkpt lat="46.09183793887496" lon="6.218912992626429"><ele></ele><time>2015-2-2T21:50:18Z</time></trkpt>
<trkpt lat="46.091645993292332" lon="6.218325924128294"><ele></ele><time>2015-2-2T21:50:21Z</time></trkpt>
<trkpt lat="46.091680945828557" lon="6.217840947210789"><ele></ele><time>2015-2-2T21:50:24Z</time></trkpt>
<trkpt lat="46.091619925573468" lon="6.218431955203414"><ele></ele><time>2015-2-2T21:50:27Z</time></trkpt>
<trkpt lat="46.091194963082671" lon="6.218819953501225"><ele></ele><time>2015-2-2T21:50:30Z</time></trkpt>
<trkpt lat="46.090559950098395" lon="6.218443941324949"><ele></ele><time>2015-2-2T21:50:33Z</time></trkpt>
<trkpt lat="46.089811949059367" lon="6.217931974679232"><ele></ele><time>2015-2-2T21:50:36Z</time></trkpt>
<trkpt lat="46.089278943836689" lon="6.217825943604112"><ele></ele><time>2015-2-2T21:50:39Z</time></trkpt>
<trkpt lat="46.088695982471108" lon="6.217767940834165"><ele></ele><time>2015-2-2T21:50:42Z</time></trkpt>
<trkpt lat="46.088195918127894" lon="6.217588987201452"><ele></ele><time>2015-2-2T21:50:45Z</time></trkpt>
<trkpt lat="46.087639946490526" lon="6.217017928138375"><ele></ele><time>2015-2-2T21:50:48Z</time></trkpt>
<trkpt lat="46.08758294954896" lon="6.216409988701344"><ele></ele><time>2015-2-2T21:50:51Z</time></trkpt>
<trkpt lat="46.087151952087879" lon="6.216121986508369"><ele></ele><time>2015-2-2T21:50:54Z</time></trkpt>
<trkpt lat="46.086657922714949" lon="6.215674979612231"><ele></ele><time>2015-2-2T21:50:57Z</time></trkpt>
<trkpt lat="46.086244946345687" lon="6.215332997962833"><ele></ele><time>2015-2-2T21:51:0Z</time></trkpt>
<trkpt lat="46.08577799052" lon="6.214899988844991"><ele></ele><time>2015-2-2T21:51:3Z</time></trkpt>
<trkpt lat="46.085248924791813" lon="6.214588936418295"><ele></ele><time>2015-2-2T21:51:6Z</time></trkpt>
<trkpt lat="46.084759924560785" lon="6.214488940313458"><ele></ele><time>2015-2-2T21:51:9Z</time></trkpt>
<trkpt lat="46.084284922108054" lon="6.214353991672397"><ele></ele><time>2015-2-2T21:51:12Z</time></trkpt>
<trkpt lat="46.083739930763841" lon="6.21425399556756"><ele></ele><time>2015-2-2T21:51:15Z</time></trkpt>
<trkpt lat="46.083368947729468" lon="6.21382593177259"><ele></ele><time>2015-2-2T21:51:18Z</time></trkpt>
<trkpt lat="46.0831359308213" lon="6.213273983448744"><ele></ele><time>2015-2-2T21:51:21Z</time></trkpt>
<trkpt lat="46.08274893835187" lon="6.212783977389336"><ele></ele><time>2015-2-2T21:51:24Z</time></trkpt>
<trkpt lat="46.082537965849042" lon="6.211889963597059"><ele></ele><time>2015-2-2T21:51:27Z</time></trkpt>
<trkpt lat="46.082600997760892" lon="6.211082953959703"><ele></ele><time>2015-2-2T21:51:30Z</time></trkpt>
<trkpt lat="46.082369992509484" lon="6.210527988150716"><ele></ele><time>2015-2-2T21:51:33Z</time></trkpt>
<trkpt lat="46.082116942852736" lon="6.209861962124705"><ele></ele><time>2015-2-2T21:51:36Z</time></trkpt>
<trkpt lat="46.081861965358257" lon="6.209284951910377"><ele></ele><time>2015-2-2T21:51:39Z</time></trkpt>
<trkpt lat="46.081331977620721" lon="6.209426941350102"><ele></ele><time>2015-2-2T21:51:42Z</time></trkpt>
<trkpt lat="46.080833924934268" lon="6.209521992132068"><ele></ele><time>2015-2-2T21:51:45Z</time></trkpt>
<trkpt lat="46.080207964405417" lon="6.209625927731395"><ele></ele><time>2015-2-2T21:51:48Z</time></trkpt>
<trkpt lat="46.07952794060111" lon="6.209801947697997"><ele></ele><time>2015-2-2T21:51:51Z</time></trkpt>
<trkpt lat="46.079024942591786" lon="6.210143929347396"><ele></ele><time>2015-2-2T21:51:54Z</time></trkpt>
<trkpt lat="46.078217932954431" lon="6.210205955430865"><ele></ele><time>2015-2-2T21:51:57Z</time></trkpt>
<trkpt lat="46.077558947727084" lon="6.210257923230529"><ele></ele><time>2015-2-2T21:52:0Z</time></trkpt>
<trkpt lat="46.076812958344817" lon="6.210463950410485"><ele></ele><time>2015-2-2T21:52:3Z</time></trkpt>
<trkpt lat="46.076293950900435" lon="6.210579955950379"><ele></ele><time>2015-2-2T21:52:6Z</time></trkpt>
<trkpt lat="46.075537987053394" lon="6.21058096177876"><ele></ele><time>2015-2-2T21:52:9Z</time></trkpt>
<trkpt lat="46.074936920776963" lon="6.210638964548707"><ele></ele><time>2015-2-2T21:52:12Z</time></trkpt>
<trkpt lat="46.074374997988343" lon="6.210615998134017"><ele></ele><time>2015-2-2T21:52:15Z</time></trkpt>
<trkpt lat="46.073870994150639" lon="6.210274938493967"><ele></ele><time>2015-2-2T21:52:18Z</time></trkpt>
<trkpt lat="46.07333991676569" lon="6.209894986823201"><ele></ele><time>2015-2-2T21:52:21Z</time></trkpt>
<trkpt lat="46.072761984542012" lon="6.209482932463288"><ele></ele><time>2015-2-2T21:52:24Z</time></trkpt>
<trkpt lat="46.072174999862909" lon="6.20922694914043"><ele></ele><time>2015-2-2T21:52:27Z</time></trkpt>
<trkpt lat="46.07163998298347" lon="6.208891924470663"><ele></ele><time>2015-2-2T21:52:30Z</time></trkpt>
<trkpt lat="46.071012932807207" lon="6.208300916478038"><ele></ele><time>2015-2-2T21:52:33Z</time></trkpt>
<trkpt lat="46.070592999458313" lon="6.207941919565201"><ele></ele><time>2015-2-2T21:52:36Z</time></trkpt>
<trkpt lat="46.070105927065015" lon="6.207726923748851"><ele></ele><time>2015-2-2T21:52:39Z</time></trkpt>
<trkpt lat="46.069452976807952" lon="6.20785097591579"><ele></ele><time>2015-2-2T21:52:42Z</time></trkpt>
<trkpt lat="46.069056931883097" lon="6.208158927038312"><ele></ele><time>2015-2-2T21:52:45Z</time></trkpt>
<trkpt lat="46.068418985232711" lon="6.20911899022758"><ele></ele><time>2015-2-2T21:52:48Z</time></trkpt>
<trkpt lat="46.067727981135249" lon="6.209758948534727"><ele></ele><time>2015-2-2T21:52:51Z</time></trkpt>
<trkpt lat="46.066970927640796" lon="6.210090955719352"><ele></ele><time>2015-2-2T21:52:54Z</time></trkpt>
<trkpt lat="46.066517969593406" lon="6.210867958143354"><ele></ele><time>2015-2-2T21:52:57Z</time></trkpt>
<trkpt lat="46.066510928794742" lon="6.211752919480205"><ele></ele><time>2015-2-2T21:53:0Z</time></trkpt>
<trkpt lat="46.06616492383182" lon="6.212440989911556"><ele></ele><time>2015-2-2T21:53:3Z</time></trkpt>
<trkpt lat="46.06568799354136" lon="6.212403941899538"><ele></ele><time>2015-2-2T21:53:6Z</time></trkpt>
<trkpt lat="46.065243920311332" lon="6.212518941611052"><ele></ele><time>2015-2-2T21:53:9Z</time></trkpt>
<trkpt lat="46.06450698338449" lon="6.212160950526595"><ele></ele><time>2015-2-2T21:53:12Z</time></trkpt>
<trkpt lat="46.063836934044957" lon="6.211657952517271"><ele></ele><time>2015-2-2T21:53:15Z</time></trkpt>
<trkpt lat="46.063084993511438" lon="6.211083959788084"><ele></ele><time>2015-2-2T21:53:18Z</time></trkpt>
<trkpt lat="46.062390971928835" lon="6.2105149962008"><ele></ele><time>2015-2-2T21:53:21Z</time></trkpt>
<trkpt lat="46.061870958656073" lon="6.209454936906695"><ele></ele><time>2015-2-2T21:53:24Z</time></trkpt>
<trkpt lat="46.061509950086474" lon="6.20855899527669"><ele></ele><time>2015-2-2T21:53:27Z</time></trkpt>
<trkpt lat="46.061140978708863" lon="6.207759948447347"><ele></ele><time>2015-2-2T21:53:30Z</time></trkpt>
<trkpt lat="46.060701934620738" lon="6.207348983734846"><ele></ele><time>2015-2-2T21:53:33Z</time></trkpt>
<trkpt lat="46.060171946883202" lon="6.207333980128169"><ele></ele><time>2015-2-2T21:53:36Z</time></trkpt>
<trkpt lat="46.059380946680903" lon="6.207630950957537"><ele></ele><time>2015-2-2T21:53:39Z</time></trkpt>
<trkpt lat="46.058926982805133" lon="6.20785198174417"><ele></ele><time>2015-2-2T21:53:42Z</time></trkpt>
<trkpt lat="46.058412920683622" lon="6.207940997555852"><ele></ele><time>2015-2-2T21:53:45Z</time></trkpt>
<trkpt lat="46.057544974610209" lon="6.208239980041981"><ele></ele><time>2015-2-2T21:53:48Z</time></trkpt>
<trkpt lat="46.056680968031287" lon="6.208455981686711"><ele></ele><time>2015-2-2T21:53:51Z</time></trkpt>
<trkpt lat="46.056096917018294" lon="6.208749935030937"><ele></ele><time>2015-2-2T21:53:54Z</time></trkpt>
<trkpt lat="46.055708918720484" lon="6.209201971068978"><ele></ele><time>2015-2-2T21:53:57Z</time></trkpt>
<trkpt lat="46.055132998153567" lon="6.209468934684992"><ele></ele><time>2015-2-2T21:54:0Z</time></trkpt>
<trkpt lat="46.054421961307526" lon="6.209162995219231"><ele></ele><time>2015-2-2T21:54:3Z</time></trkpt>
<trkpt lat="46.053718971088529" lon="6.209004996344447"><ele></ele><time>2015-2-2T21:54:6Z</time></trkpt>
<trkpt lat="46.053125951439142" lon="6.208560923114419"><ele></ele><time>2015-2-2T21:54:9Z</time></trkpt>
<trkpt lat="46.052538966760039" lon="6.208178959786892"><ele></ele><time>2015-2-2T21:54:12Z</time></trkpt>
<trkpt lat="46.051872940734029" lon="6.207638997584581"><ele></ele><time>2015-2-2T21:54:15Z</time></trkpt>
<trkpt lat="46.051212949678302" lon="6.206837939098477"><ele></ele><time>2015-2-2T21:54:18Z</time></trkpt>
<trkpt lat="46.050785975530744" lon="6.206374922767282"><ele></ele><time>2015-2-2T21:54:21Z</time></trkpt>
<trkpt lat="46.050193961709738" lon="6.206357991322875"><ele></ele><time>2015-2-2T21:54:24Z</time></trkpt>
<trkpt lat="46.049490971490741" lon="6.206230921670795"><ele></ele><time>2015-2-2T21:54:27Z</time></trkpt>
<trkpt lat="46.048601986840367" lon="6.206023972481489"><ele></ele><time>2015-2-2T21:54:30Z</time></trkpt>
<trkpt lat="46.047751978039742" lon="6.205874942243099"><ele></ele><time>2015-2-2T21:54:33Z</time></trkpt>
<trkpt lat="46.047005988657475" lon="6.205804953351617"><ele></ele><time>2015-2-2T21:54:36Z</time></trkpt>
<trkpt lat="46.046484969556332" lon="6.205698922276497"><ele></ele><time>2015-2-2T21:54:39Z</time></trkpt>
<trkpt lat="46.045717941597104" lon="6.205409998074174"><ele></ele><time>2015-2-2T21:54:42Z</time></trkpt>
<trkpt lat="46.045132968574762" lon="6.205175975337625"><ele></ele><time>2015-2-2T21:54:45Z</time></trkpt>
<trkpt lat="46.044733989983797" lon="6.204859977588058"><ele></ele><time>2015-2-2T21:54:48Z</time></trkpt>
<trkpt lat="46.04431196115911" lon="6.204597959294915"><ele></ele><time>2015-2-2T21:54:51Z</time></trkpt>
<trkpt lat="46.043635960668325" lon="6.204300988465548"><ele></ele><time>2015-2-2T21:54:54Z</time></trkpt>
<trkpt lat="46.042968928813934" lon="6.204158999025822"><ele></ele><time>2015-2-2T21:54:57Z</time></trkpt>
<trkpt lat="46.042351936921477" lon="6.203702939674258"><ele></ele><time>2015-2-2T21:55:0Z</time></trkpt>
<trkpt lat="46.041930997744203" lon="6.203412925824523"><ele></ele><time>2015-2-2T21:55:3Z</time></trkpt>
<trkpt lat="46.041246950626373" lon="6.203047977760434"><ele></ele><time>2015-2-2T21:55:6Z</time></trkpt>
<trkpt lat="46.040792986750603" lon="6.202794928103685"><ele></ele><time>2015-2-2T21:55:9Z</time></trkpt>
<trkpt lat="46.040172977373004" lon="6.202725945040584"><ele></ele><time>2015-2-2T21:55:12Z</time></trkpt>
<trkpt lat="46.039558919146657" lon="6.202555960044265"><ele></ele><time>2015-2-2T21:55:15Z</time></trkpt>
<trkpt lat="46.038940921425819" lon="6.202290924265981"><ele></ele><time>2015-2-2T21:55:18Z</time></trkpt>
<trkpt lat="46.038482934236526" lon="6.20215798728168"><ele></ele><time>2015-2-2T21:55:21Z</time></trkpt>
<trkpt lat="46.038006925955415" lon="6.20190192013979"><ele></ele><time>2015-2-2T21:55:24Z</time></trkpt>
<trkpt lat="46.037447936832905" lon="6.201546946540475"><ele></ele><time>2015-2-2T21:55:27Z</time></trkpt>
<trkpt lat="46.036951979622245" lon="6.201208988204598"><ele></ele><time>2015-2-2T21:55:30Z</time></trkpt>
<trkpt lat="46.036494998261333" lon="6.200719987973571"><ele></ele><time>2015-2-2T21:55:33Z</time></trkpt>
<trkpt lat="46.036135917529464" lon="6.200157981365919"><ele></ele><time>2015-2-2T21:55:36Z</time></trkpt>
<trkpt lat="46.035725958645344" lon="6.199635956436396"><ele></ele><time>2015-2-2T21:55:39Z</time></trkpt>
<trkpt lat="46.035358998924494" lon="6.19900094345212"><ele></ele><time>2015-2-2T21:55:42Z</time></trkpt>
<trkpt lat="46.034968988969922" lon="6.198603976517916"><ele></ele><time>2015-2-2T21:55:45Z</time></trkpt>
<trkpt lat="46.034502955153584" lon="6.19822695851326"><ele></ele><time>2015-2-2T21:55:48Z</time></trkpt>
<trkpt lat="46.034125937148929" lon="6.197500918060541"><ele></ele><time>2015-2-2T21:55:51Z</time></trkpt>
<trkpt lat="46.033668955788016" lon="6.197256920859218"><ele></ele><time>2015-2-2T21:55:54Z</time></trkpt>
<trkpt lat="46.033062944188714" lon="6.196774961426854"><ele></ele><time>2015-2-2T21:55:57Z</time></trkpt>
<trkpt lat="46.032652985304594" lon="6.196340946480632"><ele></ele><time>2015-2-2T21:56:0Z</time></trkpt>
<trkpt lat="46.032328940927982" lon="6.19582193903625"><ele></ele><time>2015-2-2T21:56:3Z</time></trkpt>
<trkpt lat="46.032107993960381" lon="6.195344924926758"><ele></ele><time>2015-2-2T21:56:6Z</time></trkpt>
<trkpt lat="46.031596949324012" lon="6.194708989933133"><ele></ele><time>2015-2-2T21:56:9Z</time></trkpt>
<trkpt lat="46.031165951862931" lon="6.194133991375566"><ele></ele><time>2015-2-2T21:56:12Z</time></trkpt>
<trkpt lat="46.031318921595812" lon="6.193566955626011"><ele></ele><time>2015-2-2T21:56:15Z</time></trkpt>
<trkpt lat="46.031702980399132" lon="6.1929009296"><ele></ele><time>2015-2-2T21:56:18Z</time></trkpt>
<trkpt lat="46.031716978177428" lon="6.191978920251131"><ele></ele><time>2015-2-2T21:56:21Z</time></trkpt>
<trkpt lat="46.031565936282277" lon="6.191147938370705"><ele></ele><time>2015-2-2T21:56:24Z</time></trkpt>
<trkpt lat="46.030792957171798" lon="6.188549967482686"><ele></ele><time>2015-2-2T21:56:27Z</time></trkpt>
<trkpt lat="46.030447958037257" lon="6.187712950631976"><ele></ele><time>2015-2-2T21:56:30Z</time></trkpt>
<trkpt lat="46.030195998027921" lon="6.18711699731648"><ele></ele><time>2015-2-2T21:56:33Z</time></trkpt>
<trkpt lat="46.029845969751477" lon="6.186320967972279"><ele></ele><time>2015-2-2T21:56:36Z</time></trkpt>
<trkpt lat="46.029560985043645" lon="6.18563893251121"><ele></ele><time>2015-2-2T21:56:39Z</time></trkpt>
<trkpt lat="46.029306929558516" lon="6.185051947832108"><ele></ele><time>2015-2-2T21:56:42Z</time></trkpt>
<trkpt lat="46.028937958180904" lon="6.184184923768044"><ele></ele><time>2015-2-2T21:56:45Z</time></trkpt>
<trkpt lat="46.028459938243032" lon="6.183907985687256"><ele></ele><time>2015-2-2T21:56:48Z</time></trkpt>
<trkpt lat="46.028042938560247" lon="6.184201939031482"><ele></ele><time>2015-2-2T21:56:51Z</time></trkpt>
<trkpt lat="46.027697939425707" lon="6.184952957555652"><ele></ele><time>2015-2-2T21:56:54Z</time></trkpt>
<trkpt lat="46.027256967499852" lon="6.185568943619728"><ele></ele><time>2015-2-2T21:56:57Z</time></trkpt>
<trkpt lat="46.026752963662148" lon="6.186148971319199"><ele></ele><time>2015-2-2T21:57:0Z</time></trkpt>
<trkpt lat="46.026123985648155" lon="6.186277968809009"><ele></ele><time>2015-2-2T21:57:3Z</time></trkpt>
<trkpt lat="46.025616964325309" lon="6.186079988256097"><ele></ele><time>2015-2-2T21:57:6Z</time></trkpt>
<trkpt lat="46.025241957977414" lon="6.185644967481494"><ele></ele><time>2015-2-2T21:57:9Z</time></trkpt>
<trkpt lat="46.024913974106312" lon="6.185042979195714"><ele></ele><time>2015-2-2T21:57:12Z</time></trkpt>
<trkpt lat="46.024604933336377" lon="6.184395980089903"><ele></ele><time>2015-2-2T21:57:15Z</time></trkpt>
<trkpt lat="46.024436959996819" lon="6.183379925787449"><ele></ele><time>2015-2-2T21:57:18Z</time></trkpt>
<trkpt lat="46.024466967210174" lon="6.182711971923709"><ele></ele><time>2015-2-2T21:57:21Z</time></trkpt>
<trkpt lat="46.024303939193487" lon="6.182062961161137"><ele></ele><time>2015-2-2T21:57:24Z</time></trkpt>
<trkpt lat="46.02400696836412" lon="6.180689921602607"><ele></ele><time>2015-2-2T21:57:27Z</time></trkpt>
<trkpt lat="46.023766994476318" lon="6.180126992985606"><ele></ele><time>2015-2-2T21:57:30Z</time></trkpt>
<trkpt lat="46.02331998758018" lon="6.179934963583946"><ele></ele><time>2015-2-2T21:57:33Z</time></trkpt>
<trkpt lat="46.022880943492055" lon="6.179237924516201"><ele></ele><time>2015-2-2T21:57:36Z</time></trkpt>
<trkpt lat="46.022342992946506" lon="6.178935924544931"><ele></ele><time>2015-2-2T21:57:39Z</time></trkpt>
<trkpt lat="46.021834965795279" lon="6.178538957610726"><ele></ele><time>2015-2-2T21:57:42Z</time></trkpt>
<trkpt lat="46.021379996091127" lon="6.178220948204398"><ele></ele><time>2015-2-2T21:57:45Z</time></trkpt>
<trkpt lat="46.020898958668113" lon="6.177978962659836"><ele></ele><time>2015-2-2T21:57:48Z</time></trkpt>
<trkpt lat="46.020301999524236" lon="6.177886929363012"><ele></ele><time>2015-2-2T21:57:51Z</time></trkpt>
<trkpt lat="46.019851975142956" lon="6.177672939375043"><ele></ele><time>2015-2-2T21:57:54Z</time></trkpt>
<trkpt lat="46.019395999610424" lon="6.177014959976077"><ele></ele><time>2015-2-2T21:57:57Z</time></trkpt>
<trkpt lat="46.019144961610436" lon="6.176471980288625"><ele></ele><time>2015-2-2T21:58:0Z</time></trkpt>
<trkpt lat="46.018881937488914" lon="6.175642926245928"><ele></ele><time>2015-2-2T21:58:3Z</time></trkpt>
<trkpt lat="46.018574992194772" lon="6.175031969323754"><ele></ele><time>2015-2-2T21:58:6Z</time></trkpt>
<trkpt lat="46.018667947500944" lon="6.174360997974873"><ele></ele><time>2015-2-2T21:58:9Z</time></trkpt>
<trkpt lat="46.018316997215152" lon="6.173545941710472"><ele></ele><time>2015-2-2T21:58:12Z</time></trkpt>
<trkpt lat="46.018138965591788" lon="6.172303995117545"><ele></ele><time>2015-2-2T21:58:15Z</time></trkpt>
<trkpt lat="46.018059924244881" lon="6.171618942171335"><ele></ele><time>2015-2-2T21:58:18Z</time></trkpt>
<trkpt lat="46.018241979181767" lon="6.170773962512612"><ele></ele><time>2015-2-2T21:58:21Z</time></trkpt>
<trkpt lat="46.018036957830191" lon="6.170330978929997"><ele></ele><time>2015-2-2T21:58:24Z</time></trkpt>
<trkpt lat="46.017361963167787" lon="6.16967098787427"><ele></ele><time>2015-2-2T21:58:27Z</time></trkpt>
<trkpt lat="46.016842955723405" lon="6.169144939631224"><ele></ele><time>2015-2-2T21:58:30Z</time></trkpt>
<trkpt lat="46.016593929380178" lon="6.169612985104322"><ele></ele><time>2015-2-2T21:58:33Z</time></trkpt>
<trkpt lat="46.016688980162144" lon="6.170797934755683"><ele></ele><time>2015-2-2T21:58:36Z</time></trkpt>
<trkpt lat="46.016383962705731" lon="6.171553982421756"><ele></ele><time>2015-2-2T21:58:39Z</time></trkpt>
<trkpt lat="46.015699999406934" lon="6.171891940757632"><ele></ele><time>2015-2-2T21:58:42Z</time></trkpt>
<trkpt lat="46.014466937631369" lon="6.171198925003409"><ele></ele><time>2015-2-2T21:58:45Z</time></trkpt>
<trkpt lat="46.013700999319553" lon="6.170673966407776"><ele></ele><time>2015-2-2T21:58:48Z</time></trkpt>
<trkpt lat="46.013059951364994" lon="6.170260990038514"><ele></ele><time>2015-2-2T21:58:51Z</time></trkpt>
<trkpt lat="46.012099971994758" lon="6.170024955645204"><ele></ele><time>2015-2-2T21:58:54Z</time></trkpt>
<trkpt lat="46.011500917375088" lon="6.170108942314982"><ele></ele><time>2015-2-2T21:58:57Z</time></trkpt>
<trkpt lat="46.010550996288657" lon="6.170243974775076"><ele></ele><time>2015-2-2T21:59:0Z</time></trkpt>
<trkpt lat="46.009967951104045" lon="6.170333996415138"><ele></ele><time>2015-2-2T21:59:3Z</time></trkpt>
<trkpt lat="46.009464953094721" lon="6.170129980891943"><ele></ele><time>2015-2-2T21:59:6Z</time></trkpt>
<trkpt lat="46.009414996951818" lon="6.169353984296322"><ele></ele><time>2015-2-2T21:59:9Z</time></trkpt>
<trkpt lat="46.00935498252511" lon="6.168588967993856"><ele></ele><time>2015-2-2T21:59:12Z</time></trkpt>
<trkpt lat="46.009279964491725" lon="6.167681962251663"><ele></ele><time>2015-2-2T21:59:15Z</time></trkpt>
<trkpt lat="46.00920595228672" lon="6.166897919028997"><ele></ele><time>2015-2-2T21:59:18Z</time></trkpt>
<trkpt lat="46.009098999202251" lon="6.165703916922212"><ele></ele><time>2015-2-2T21:59:21Z</time></trkpt>
<trkpt lat="46.00879498757422" lon="6.164854997768998"><ele></ele><time>2015-2-2T21:59:24Z</time></trkpt>
<trkpt lat="46.008869921788573" lon="6.164069948717952"><ele></ele><time>2015-2-2T21:59:27Z</time></trkpt>
<trkpt lat="46.008574962615967" lon="6.163458991795778"><ele></ele><time>2015-2-2T21:59:30Z</time></trkpt>
<trkpt lat="46.008972935378551" lon="6.164451995864511"><ele></ele><time>2015-2-2T21:59:33Z</time></trkpt>
<trkpt lat="46.00888492539525" lon="6.165036968886852"><ele></ele><time>2015-2-2T21:59:36Z</time></trkpt>
<trkpt lat="46.008488964289427" lon="6.164652993902564"><ele></ele><time>2015-2-2T21:59:39Z</time></trkpt>
<trkpt lat="46.007919916883111" lon="6.165552958846092"><ele></ele><time>2015-2-2T21:59:42Z</time></trkpt>
<trkpt lat="46.007495960220695" lon="6.166204987093806"><ele></ele><time>2015-2-2T21:59:45Z</time></trkpt>
<trkpt lat="46.006378987804055" lon="6.166505981236696"><ele></ele><time>2015-2-2T21:59:48Z</time></trkpt>
<trkpt lat="46.00531792268157" lon="6.166239939630032"><ele></ele><time>2015-2-2T21:59:51Z</time></trkpt>
<trkpt lat="46.004568999633193" lon="6.165776923298836"><ele></ele><time>2015-2-2T21:59:54Z</time></trkpt>
<trkpt lat="46.00413297303021" lon="6.165438964962959"><ele></ele><time>2015-2-2T21:59:57Z</time></trkpt>
<trkpt lat="46.003234935924411" lon="6.165811959654093"><ele></ele><time>2015-2-2T22:0:0Z</time></trkpt>
<trkpt lat="46.002943916246295" lon="6.165499985218048"><ele></ele><time>2015-2-2T22:0:3Z</time></trkpt>
<trkpt lat="46.002847943454981" lon="6.16483798250556"><ele></ele><time>2015-2-2T22:0:6Z</time></trkpt>
<trkpt lat="46.002639988437295" lon="6.164138931781054"><ele></ele><time>2015-2-2T22:0:9Z</time></trkpt>
<trkpt lat="46.001979997381568" lon="6.163897952064872"><ele></ele><time>2015-2-2T22:0:12Z</time></trkpt>
<trkpt lat="46.00147096440196" lon="6.163670970126987"><ele></ele><time>2015-2-2T22:0:15Z</time></trkpt>
<trkpt lat="46.00080493837595" lon="6.1633559782058"><ele></ele><time>2015-2-2T22:0:18Z</time></trkpt>
<trkpt lat="46.000124998390675" lon="6.163244917988777"><ele></ele><time>2015-2-2T22:0:21Z</time></trkpt>
<trkpt lat="45.9995779953897" lon="6.162972925230861"><ele></ele><time>2015-2-2T22:0:24Z</time></trkpt>
<trkpt lat="45.999155966565013" lon="6.162171950563788"><ele></ele><time>2015-2-2T22:0:27Z</time></trkpt>
<trkpt lat="45.998723963275552" lon="6.161032933741808"><ele></ele><time>2015-2-2T22:0:30Z</time></trkpt>
<trkpt lat="45.998390950262547" lon="6.160202957689762"><ele></ele><time>2015-2-2T22:0:33Z</time></trkpt>
<trkpt lat="45.998024996370077" lon="6.159562999382615"><ele></ele><time>2015-2-2T22:0:36Z</time></trkpt>
<trkpt lat="45.997488973662257" lon="6.15908095613122"><ele></ele><time>2015-2-2T22:0:39Z</time></trkpt>
<trkpt lat="45.997028974816203" lon="6.158844921737909"><ele></ele><time>2015-2-2T22:0:42Z</time></trkpt>
<trkpt lat="45.996364960446954" lon="6.158572928979993"><ele></ele><time>2015-2-2T22:0:45Z</time></trkpt>
<trkpt lat="45.995773952454329" lon="6.158074960112572"><ele></ele><time>2015-2-2T22:0:48Z</time></trkpt>
<trkpt lat="45.995370950549841" lon="6.15762191824615"><ele></ele><time>2015-2-2T22:0:51Z</time></trkpt>
<trkpt lat="45.994538962841034" lon="6.157271973788738"><ele></ele><time>2015-2-2T22:0:54Z</time></trkpt>
<trkpt lat="45.994088938459754" lon="6.15714599378407"><ele></ele><time>2015-2-2T22:0:57Z</time></trkpt>
<trkpt lat="45.993555933237076" lon="6.156850950792432"><ele></ele><time>2015-2-2T22:1:0Z</time></trkpt>
<trkpt lat="45.993036925792694" lon="6.156763946637511"><ele></ele><time>2015-2-2T22:1:3Z</time></trkpt>
<trkpt lat="45.992463938891888" lon="6.156576946377754"><ele></ele><time>2015-2-2T22:1:6Z</time></trkpt>
<trkpt lat="45.991930933669209" lon="6.156109990552068"><ele></ele><time>2015-2-2T22:1:9Z</time></trkpt>
<trkpt lat="45.991442939266562" lon="6.155784940347076"><ele></ele><time>2015-2-2T22:1:12Z</time></trkpt>
<trkpt lat="45.99100892432034" lon="6.155464919283986"><ele></ele><time>2015-2-2T22:1:15Z</time></trkpt>
<trkpt lat="45.99053492769599" lon="6.155065940693021"><ele></ele><time>2015-2-2T22:1:18Z</time></trkpt>
<trkpt lat="45.990150952711701" lon="6.154543999582529"><ele></ele><time>2015-2-2T22:1:21Z</time></trkpt>
<trkpt lat="45.989690953865647" lon="6.154317939653993"><ele></ele><time>2015-2-2T22:1:24Z</time></trkpt>
<trkpt lat="45.989028951153159" lon="6.154091963544488"><ele></ele><time>2015-2-2T22:1:27Z</time></trkpt>
<trkpt lat="45.988396955654025" lon="6.154644917696714"><ele></ele><time>2015-2-2T22:1:30Z</time></trkpt>
<trkpt lat="45.987867973744869" lon="6.154949935153127"><ele></ele><time>2015-2-2T22:1:33Z</time></trkpt>
<trkpt lat="45.987383918836713" lon="6.155061917379499"><ele></ele><time>2015-2-2T22:1:36Z</time></trkpt>
<trkpt lat="45.986927943304181" lon="6.155091924592853"><ele></ele><time>2015-2-2T22:1:39Z</time></trkpt>
<trkpt lat="45.986396949738264" lon="6.154843987897039"><ele></ele><time>2015-2-2T22:1:42Z</time></trkpt>
<trkpt lat="45.985865956172347" lon="6.154983965680003"><ele></ele><time>2015-2-2T22:1:45Z</time></trkpt>
<trkpt lat="45.985307972878218" lon="6.155047919601202"><ele></ele><time>2015-2-2T22:1:48Z</time></trkpt>
<trkpt lat="45.984675977379084" lon="6.155108939856291"><ele></ele><time>2015-2-2T22:1:51Z</time></trkpt>
<trkpt lat="45.984128974378109" lon="6.155161997303367"><ele></ele><time>2015-2-2T22:1:54Z</time></trkpt>
<trkpt lat="45.983640979975462" lon="6.155175995081663"><ele></ele><time>2015-2-2T22:1:57Z</time></trkpt>
<trkpt lat="45.983087942004204" lon="6.155006932094693"><ele></ele><time>2015-2-2T22:2:0Z</time></trkpt>
<trkpt lat="45.982620986178517" lon="6.154751954600215"><ele></ele><time>2015-2-2T22:2:3Z</time></trkpt>
<trkpt lat="45.981910955160856" lon="6.154951946809888"><ele></ele><time>2015-2-2T22:2:6Z</time></trkpt>
<trkpt lat="45.980850979685783" lon="6.154925962910056"><ele></ele><time>2015-2-2T22:2:9Z</time></trkpt>
<trkpt lat="45.980098955333233" lon="6.154795959591866"><ele></ele><time>2015-2-2T22:2:12Z</time></trkpt>
<trkpt lat="45.979359922930598" lon="6.154575934633613"><ele></ele><time>2015-2-2T22:2:15Z</time></trkpt>
<trkpt lat="45.978339929133654" lon="6.154755977913737"><ele></ele><time>2015-2-2T22:2:18Z</time></trkpt>
<trkpt lat="45.977597963064909" lon="6.154914982616901"><ele></ele><time>2015-2-2T22:2:21Z</time></trkpt>
<trkpt lat="45.976946940645576" lon="6.154542993754149"><ele></ele><time>2015-2-2T22:2:24Z</time></trkpt>
<trkpt lat="45.976358950138092" lon="6.154519943520427"><ele></ele><time>2015-2-2T22:2:27Z</time></trkpt>
<trkpt lat="45.975886965170503" lon="6.154465964064002"><ele></ele><time>2015-2-2T22:2:30Z</time></trkpt>
<trkpt lat="45.975295957177877" lon="6.154071930795908"><ele></ele><time>2015-2-2T22:2:33Z</time></trkpt>
<trkpt lat="45.974814919754863" lon="6.15370899438858"><ele></ele><time>2015-2-2T22:2:36Z</time></trkpt>
<trkpt lat="45.974389957264066" lon="6.153267938643694"><ele></ele><time>2015-2-2T22:2:39Z</time></trkpt>
<trkpt lat="45.973959965631366" lon="6.15282797254622"><ele></ele><time>2015-2-2T22:2:42Z</time></trkpt>
<trkpt lat="45.97366894595325" lon="6.152131939306855"><ele></ele><time>2015-2-2T22:2:45Z</time></trkpt>
<trkpt lat="45.973399970680475" lon="6.151267932727933"><ele></ele><time>2015-2-2T22:2:48Z</time></trkpt>
<trkpt lat="45.973038962110877" lon="6.150560919195414"><ele></ele><time>2015-2-2T22:2:51Z</time></trkpt>
<trkpt lat="45.972562953829765" lon="6.150260930880904"><ele></ele><time>2015-2-2T22:2:54Z</time></trkpt>
<trkpt lat="45.971930958330631" lon="6.150063956156373"><ele></ele><time>2015-2-2T22:2:57Z</time></trkpt>
<trkpt lat="45.971374986693263" lon="6.149954991415143"><ele></ele><time>2015-2-2T22:3:0Z</time></trkpt>
<trkpt lat="45.970804933458567" lon="6.149594988673925"><ele></ele><time>2015-2-2T22:3:3Z</time></trkpt>
<trkpt lat="45.970232952386141" lon="6.149376975372434"><ele></ele><time>2015-2-2T22:3:6Z</time></trkpt>
<trkpt lat="45.969727942720056" lon="6.14908997900784"><ele></ele><time>2015-2-2T22:3:9Z</time></trkpt>
<trkpt lat="45.969302980229259" lon="6.148470975458622"><ele></ele><time>2015-2-2T22:3:12Z</time></trkpt>
<trkpt lat="45.968942977488041" lon="6.147893965244293"><ele></ele><time>2015-2-2T22:3:15Z</time></trkpt>
<trkpt lat="45.968475937843323" lon="6.147330952808261"><ele></ele><time>2015-2-2T22:3:18Z</time></trkpt>
<trkpt lat="45.967727936804295" lon="6.147186951711774"><ele></ele><time>2015-2-2T22:3:21Z</time></trkpt>
<trkpt lat="45.967226950451732" lon="6.147107994183898"><ele></ele><time>2015-2-2T22:3:24Z</time></trkpt>
<trkpt lat="45.966625967994332" lon="6.147493980824947"><ele></ele><time>2015-2-2T22:3:27Z</time></trkpt>
<trkpt lat="45.966147948056459" lon="6.146999951452017"><ele></ele><time>2015-2-2T22:3:30Z</time></trkpt>
<trkpt lat="45.965762967243791" lon="6.146610947325826"><ele></ele><time>2015-2-2T22:3:33Z</time></trkpt>
<trkpt lat="45.965394917875528" lon="6.146219931542873"><ele></ele><time>2015-2-2T22:3:36Z</time></trkpt>
<trkpt lat="45.965005997568369" lon="6.145781977102161"><ele></ele><time>2015-2-2T22:3:39Z</time></trkpt>
<trkpt lat="45.964542981237173" lon="6.145498920232058"><ele></ele><time>2015-2-2T22:3:42Z</time></trkpt>
<trkpt lat="45.964102931320667" lon="6.145293982699513"><ele></ele><time>2015-2-2T22:3:45Z</time></trkpt>
<trkpt lat="45.96371996216476" lon="6.144893998280168"><ele></ele><time>2015-2-2T22:3:48Z</time></trkpt>
<trkpt lat="45.963258957490325" lon="6.144517986103892"><ele></ele><time>2015-2-2T22:3:51Z</time></trkpt>
<trkpt lat="45.96253995783627" lon="6.144446991384029"><ele></ele><time>2015-2-2T22:3:54Z</time></trkpt>
<trkpt lat="45.962026985362172" lon="6.144426958635449"><ele></ele><time>2015-2-2T22:3:57Z</time></trkpt>
<trkpt lat="45.961528932675719" lon="6.144425952807069"><ele></ele><time>2015-2-2T22:4:0Z</time></trkpt>
<trkpt lat="45.96086491830647" lon="6.144425952807069"><ele></ele><time>2015-2-2T22:4:3Z</time></trkpt>
<trkpt lat="45.960336942225695" lon="6.144382953643799"><ele></ele><time>2015-2-2T22:4:6Z</time></trkpt>
<trkpt lat="45.959670916199684" lon="6.144219925627112"><ele></ele><time>2015-2-2T22:4:9Z</time></trkpt>
<trkpt lat="45.958936996757984" lon="6.144174998626113"><ele></ele><time>2015-2-2T22:4:12Z</time></trkpt>
<trkpt lat="45.958272982388735" lon="6.144285975024104"><ele></ele><time>2015-2-2T22:4:15Z</time></trkpt>
<trkpt lat="45.957680968567729" lon="6.144465934485197"><ele></ele><time>2015-2-2T22:4:18Z</time></trkpt>
<trkpt lat="45.957019971683621" lon="6.144597949460149"><ele></ele><time>2015-2-2T22:4:21Z</time></trkpt>
<trkpt lat="45.956355957314372" lon="6.144491918385029"><ele></ele><time>2015-2-2T22:4:24Z</time></trkpt>
<trkpt lat="45.9555549826473" lon="6.144339954480529"><ele></ele><time>2015-2-2T22:4:27Z</time></trkpt>
<trkpt lat="45.9551059640944" lon="6.144246999174357"><ele></ele><time>2015-2-2T22:4:30Z</time></trkpt>
<trkpt lat="45.954580921679735" lon="6.14427893422544"><ele></ele><time>2015-2-2T22:4:33Z</time></trkpt>
<trkpt lat="45.953825963661075" lon="6.144624939188361"><ele></ele><time>2015-2-2T22:4:36Z</time></trkpt>
<trkpt lat="45.953367976471782" lon="6.144955940544605"><ele></ele><time>2015-2-2T22:4:39Z</time></trkpt>
<trkpt lat="45.953048961237073" lon="6.145428931340575"><ele></ele><time>2015-2-2T22:4:42Z</time></trkpt>
<trkpt lat="45.952571947127581" lon="6.146225966513157"><ele></ele><time>2015-2-2T22:4:45Z</time></trkpt>
<trkpt lat="45.952272964641452" lon="6.146765928715468"><ele></ele><time>2015-2-2T22:4:48Z</time></trkpt>
<trkpt lat="45.952199958264828" lon="6.146987965330482"><ele></ele><time>2015-2-2T22:4:51Z</time></trkpt>
<trkpt lat="45.952549986541271" lon="6.146261924877763"><ele></ele><time>2015-2-2T22:4:54Z</time></trkpt>
<trkpt lat="45.953248953446746" lon="6.145128943026066"><ele></ele><time>2015-2-2T22:4:57Z</time></trkpt>
<trkpt lat="45.953417932614684" lon="6.144720995798707"><ele></ele><time>2015-2-2T22:5:0Z</time></trkpt>
<trkpt lat="45.952918957918882" lon="6.144682941958308"><ele></ele><time>2015-2-2T22:5:3Z</time></trkpt>
<trkpt lat="45.952315963804722" lon="6.144616976380348"><ele></ele><time>2015-2-2T22:5:6Z</time></trkpt>
<trkpt lat="45.951656978577375" lon="6.144597949460149"><ele></ele><time>2015-2-2T22:5:9Z</time></trkpt>
<trkpt lat="45.951198991388083" lon="6.144425952807069"><ele></ele><time>2015-2-2T22:5:12Z</time></trkpt>
<trkpt lat="45.9507439378649" lon="6.143957991153002"><ele></ele><time>2015-2-2T22:5:15Z</time></trkpt>
<trkpt lat="45.950375972315669" lon="6.143371928483248"><ele></ele><time>2015-2-2T22:5:18Z</time></trkpt>
<trkpt lat="45.950213950127363" lon="6.14253893494606"><ele></ele><time>2015-2-2T22:5:21Z</time></trkpt>
<trkpt lat="45.949957966804504" lon="6.141637964174151"><ele></ele><time>2015-2-2T22:5:24Z</time></trkpt>
<trkpt lat="45.949753951281309" lon="6.140986941754818"><ele></ele><time>2015-2-2T22:5:27Z</time></trkpt>
<trkpt lat="45.949502997100353" lon="6.141766961663961"><ele></ele><time>2015-2-2T22:5:30Z</time></trkpt>
<trkpt lat="45.94917694106698" lon="6.142651923000813"><ele></ele><time>2015-2-2T22:5:33Z</time></trkpt>
<trkpt lat="45.948939984664321" lon="6.143239997327328"><ele></ele><time>2015-2-2T22:5:36Z</time></trkpt>
<trkpt lat="45.948496917262673" lon="6.142697939649224"><ele></ele><time>2015-2-2T22:5:39Z</time></trkpt>
<trkpt lat="45.94855492003262" lon="6.141964942216873"><ele></ele><time>2015-2-2T22:5:42Z</time></trkpt>
<trkpt lat="45.947887971997261" lon="6.142390994355083"><ele></ele><time>2015-2-2T22:5:45Z</time></trkpt>
<trkpt lat="45.947488993406296" lon="6.142743956297636"><ele></ele><time>2015-2-2T22:5:48Z</time></trkpt>
<trkpt lat="45.947155980393291" lon="6.14317998290062"><ele></ele><time>2015-2-2T22:5:51Z</time></trkpt>
<trkpt lat="45.946909971535206" lon="6.14296892657876"><ele></ele><time>2015-2-2T22:5:54Z</time></trkpt>
<trkpt lat="45.947055984288454" lon="6.142005929723382"><ele></ele><time>2015-2-2T22:5:57Z</time></trkpt>
<trkpt lat="45.947055984288454" lon="6.141125997528434"><ele></ele><time>2015-2-2T22:6:0Z</time></trkpt>
<trkpt lat="45.94661895185709" lon="6.141538973897696"><ele></ele><time>2015-2-2T22:6:3Z</time></trkpt>
<trkpt lat="45.946395993232727" lon="6.141401929780841"><ele></ele><time>2015-2-2T22:6:6Z</time></trkpt>
<trkpt lat="45.945958960801363" lon="6.141037987545133"><ele></ele><time>2015-2-2T22:6:9Z</time></trkpt>
<trkpt lat="45.945646986365318" lon="6.140548987314105"><ele></ele><time>2015-2-2T22:6:12Z</time></trkpt>
<trkpt lat="45.945066958665848" lon="6.139978934079409"><ele></ele><time>2015-2-2T22:6:15Z</time></trkpt>
<trkpt lat="45.944888927042484" lon="6.139790927991271"><ele></ele><time>2015-2-2T22:6:18Z</time></trkpt>
<trkpt lat="45.944494977593422" lon="6.139525976032019"><ele></ele><time>2015-2-2T22:6:21Z</time></trkpt>
<trkpt lat="45.945071987807751" lon="6.139053991064429"><ele></ele><time>2015-2-2T22:6:24Z</time></trkpt>
<trkpt lat="45.945382956415415" lon="6.138286963105202"><ele></ele><time>2015-2-2T22:6:27Z</time></trkpt>
<trkpt lat="45.945211965590715" lon="6.137666953727603"><ele></ele><time>2015-2-2T22:6:30Z</time></trkpt>
<trkpt lat="45.94457695260644" lon="6.137526975944638"><ele></ele><time>2015-2-2T22:6:33Z</time></trkpt>
<trkpt lat="45.943906987085938" lon="6.137654967606068"><ele></ele><time>2015-2-2T22:6:36Z</time></trkpt>
<trkpt lat="45.943197961896658" lon="6.137752952054143"><ele></ele><time>2015-2-2T22:6:39Z</time></trkpt>
<trkpt lat="45.942722959443927" lon="6.13770492374897"><ele></ele><time>2015-2-2T22:6:42Z</time></trkpt>
<trkpt lat="45.942307971417904" lon="6.13746696151793"><ele></ele><time>2015-2-2T22:6:45Z</time></trkpt>
<trkpt lat="45.941904969513416" lon="6.137042921036482"><ele></ele><time>2015-2-2T22:6:48Z</time></trkpt>
<trkpt lat="45.941211953759193" lon="6.136307995766401"><ele></ele><time>2015-2-2T22:6:51Z</time></trkpt>
<trkpt lat="45.940771987661719" lon="6.135690920054913"><ele></ele><time>2015-2-2T22:6:54Z</time></trkpt>
<trkpt lat="45.940366974100471" lon="6.135393949225545"><ele></ele><time>2015-2-2T22:6:57Z</time></trkpt>
<trkpt lat="45.939842937514186" lon="6.134980972856283"><ele></ele><time>2015-2-2T22:7:0Z</time></trkpt>
<trkpt lat="45.939276991412044" lon="6.134422989562154"><ele></ele><time>2015-2-2T22:7:3Z</time></trkpt>
<trkpt lat="45.938919922336936" lon="6.13402895629406"><ele></ele><time>2015-2-2T22:7:6Z</time></trkpt>
<trkpt lat="45.938486997038126" lon="6.133546996861696"><ele></ele><time>2015-2-2T22:7:9Z</time></trkpt>
<trkpt lat="45.938099920749664" lon="6.132960934191942"><ele></ele><time>2015-2-2T22:7:12Z</time></trkpt>
<trkpt lat="45.938497977331281" lon="6.132191978394985"><ele></ele><time>2015-2-2T22:7:15Z</time></trkpt>
<trkpt lat="45.938917994499207" lon="6.131798950955272"><ele></ele><time>2015-2-2T22:7:18Z</time></trkpt>
<trkpt lat="45.939660966396332" lon="6.131089925765991"><ele></ele><time>2015-2-2T22:7:21Z</time></trkpt>
<trkpt lat="45.940112918615341" lon="6.130673931911588"><ele></ele><time>2015-2-2T22:7:24Z</time></trkpt>
<trkpt lat="45.940505946055055" lon="6.130308983847499"><ele></ele><time>2015-2-2T22:7:27Z</time></trkpt>
<trkpt lat="45.940915988758206" lon="6.129739936441183"><ele></ele><time>2015-2-2T22:7:30Z</time></trkpt>
<trkpt lat="45.940846921876073" lon="6.12885095179081"><ele></ele><time>2015-2-2T22:7:33Z</time></trkpt>
<trkpt lat="45.94081892631948" lon="6.128024999052286"><ele></ele><time>2015-2-2T22:7:36Z</time></trkpt>
<trkpt lat="45.940760923549533" lon="6.127565922215581"><ele></ele><time>2015-2-2T22:7:39Z</time></trkpt>
<trkpt lat="45.940192965790629" lon="6.127472966909409"><ele></ele><time>2015-2-2T22:7:42Z</time></trkpt>
<trkpt lat="45.939543955028057" lon="6.127351932227612"><ele></ele><time>2015-2-2T22:7:45Z</time></trkpt>
<trkpt lat="45.938573917374015" lon="6.12678992561996"><ele></ele><time>2015-2-2T22:7:48Z</time></trkpt>
<trkpt lat="45.938009982928634" lon="6.126388935372233"><ele></ele><time>2015-2-2T22:7:51Z</time></trkpt>
<trkpt lat="45.937538919970393" lon="6.126290950924158"><ele></ele><time>2015-2-2T22:7:54Z</time></trkpt>
<trkpt lat="45.936899967491627" lon="6.126110991463065"><ele></ele><time>2015-2-2T22:7:57Z</time></trkpt>
<trkpt lat="45.936423959210515" lon="6.126347947865725"><ele></ele><time>2015-2-2T22:8:0Z</time></trkpt>
<trkpt lat="45.936015928164124" lon="6.126964939758182"><ele></ele><time>2015-2-2T22:8:3Z</time></trkpt>
<trkpt lat="45.935928924009204" lon="6.12771394662559"><ele></ele><time>2015-2-2T22:8:6Z</time></trkpt>
<trkpt lat="45.936199994757771" lon="6.128418948501349"><ele></ele><time>2015-2-2T22:8:9Z</time></trkpt>
<trkpt lat="45.936185996979475" lon="6.128409979864955"><ele></ele><time>2015-2-2T22:8:12Z</time></trkpt>
<trkpt lat="45.935892965644598" lon="6.127379927784205"><ele></ele><time>2015-2-2T22:8:15Z</time></trkpt>
<trkpt lat="45.936416918411851" lon="6.126358928158879"><ele></ele><time>2015-2-2T22:8:18Z</time></trkpt>
<trkpt lat="45.936933998018503" lon="6.126115936785936"><ele></ele><time>2015-2-2T22:8:21Z</time></trkpt>
<trkpt lat="45.937426937744021" lon="6.126255998387933"><ele></ele><time>2015-2-2T22:8:24Z</time></trkpt>
<trkpt lat="45.93802297487855" lon="6.12655196338892"><ele></ele><time>2015-2-2T22:8:27Z</time></trkpt>
<trkpt lat="45.938236964866519" lon="6.125849978998303"><ele></ele><time>2015-2-2T22:8:30Z</time></trkpt>
<trkpt lat="45.938044935464859" lon="6.124453973025084"><ele></ele><time>2015-2-2T22:8:33Z</time></trkpt>
<trkpt lat="45.937749976292253" lon="6.123991962522268"><ele></ele><time>2015-2-2T22:8:36Z</time></trkpt>
<trkpt lat="45.937052937224507" lon="6.124928975477815"><ele></ele><time>2015-2-2T22:8:39Z</time></trkpt>
<trkpt lat="45.936667956411839" lon="6.125503974035382"><ele></ele><time>2015-2-2T22:8:42Z</time></trkpt>
<trkpt lat="45.935946945101023" lon="6.125620985403657"><ele></ele><time>2015-2-2T22:8:45Z</time></trkpt>
<trkpt lat="45.935361972078681" lon="6.12549995072186"><ele></ele><time>2015-2-2T22:8:48Z</time></trkpt>
<trkpt lat="45.935112945735455" lon="6.126367980614305"><ele></ele><time>2015-2-2T22:8:51Z</time></trkpt>
<trkpt lat="45.934601984918118" lon="6.127116987481713"><ele></ele><time>2015-2-2T22:8:54Z</time></trkpt>
<trkpt lat="45.934015922248363" lon="6.127550918608904"><ele></ele><time>2015-2-2T22:8:57Z</time></trkpt>
<trkpt lat="45.933511918410659" lon="6.12805793993175"><ele></ele><time>2015-2-2T22:9:0Z</time></trkpt>
<trkpt lat="45.932562919333577" lon="6.12773297354579"><ele></ele><time>2015-2-2T22:9:3Z</time></trkpt>
<trkpt lat="45.931982975453138" lon="6.126984972506762"><ele></ele><time>2015-2-2T22:9:6Z</time></trkpt>
<trkpt lat="45.931604951620102" lon="6.126322969794273"><ele></ele><time>2015-2-2T22:9:9Z</time></trkpt>
<trkpt lat="45.930967926979065" lon="6.125210942700505"><ele></ele><time>2015-2-2T22:9:12Z</time></trkpt>
<trkpt lat="45.930636925622821" lon="6.124611971899867"><ele></ele><time>2015-2-2T22:9:15Z</time></trkpt>
<trkpt lat="45.930379936471581" lon="6.123860953375697"><ele></ele><time>2015-2-2T22:9:18Z</time></trkpt>
<trkpt lat="45.929760932922363" lon="6.123761963099241"><ele></ele><time>2015-2-2T22:9:21Z</time></trkpt>
<trkpt lat="45.929310992360115" lon="6.123847961425781"><ele></ele><time>2015-2-2T22:9:24Z</time></trkpt>
<trkpt lat="45.928816962987185" lon="6.123847961425781"><ele></ele><time>2015-2-2T22:9:27Z</time></trkpt>
<trkpt lat="45.928279934450984" lon="6.123847961425781"><ele></ele><time>2015-2-2T22:9:30Z</time></trkpt>
<trkpt lat="45.927730919793248" lon="6.123854918405414"><ele></ele><time>2015-2-2T22:9:33Z</time></trkpt>
<trkpt lat="45.927271926775575" lon="6.123890960589051"><ele></ele><time>2015-2-2T22:9:36Z</time></trkpt>
<trkpt lat="45.926676979288459" lon="6.123924991115928"><ele></ele><time>2015-2-2T22:9:39Z</time></trkpt>
<trkpt lat="45.926230978220701" lon="6.123826922848821"><ele></ele><time>2015-2-2T22:9:42Z</time></trkpt>
<trkpt lat="45.925642987713218" lon="6.123895989730954"><ele></ele><time>2015-2-2T22:9:45Z</time></trkpt>
<trkpt lat="45.925877932459116" lon="6.123826922848821"><ele></ele><time>2015-2-2T22:9:48Z</time></trkpt>
<trkpt lat="45.925898971036077" lon="6.124505940824747"><ele></ele><time>2015-2-2T22:9:51Z</time></trkpt>
<trkpt lat="45.925893941894174" lon="6.125344969332218"><ele></ele><time>2015-2-2T22:9:54Z</time></trkpt>
<trkpt lat="45.925528993830085" lon="6.125666918233037"><ele></ele><time>2015-2-2T22:9:57Z</time></trkpt>
<trkpt lat="45.924849975854158" lon="6.125441947951913"><ele></ele><time>2015-2-2T22:10:0Z</time></trkpt>
<trkpt lat="45.924365920946002" lon="6.12541395239532"><ele></ele><time>2015-2-2T22:10:3Z</time></trkpt>
<trkpt lat="45.923299994319677" lon="6.125453934073448"><ele></ele><time>2015-2-2T22:10:6Z</time></trkpt>
<trkpt lat="45.922625921666622" lon="6.125493999570608"><ele></ele><time>2015-2-2T22:10:9Z</time></trkpt>
<trkpt lat="45.92199694365263" lon="6.125521995127201"><ele></ele><time>2015-2-2T22:10:12Z</time></trkpt>
<trkpt lat="45.920990947633982" lon="6.125550996512175"><ele></ele><time>2015-2-2T22:10:15Z</time></trkpt>
<trkpt lat="45.920042954385281" lon="6.125593995675445"><ele></ele><time>2015-2-2T22:10:18Z</time></trkpt>
<trkpt lat="45.919431997463107" lon="6.125607993453741"><ele></ele><time>2015-2-2T22:10:21Z</time></trkpt>
<trkpt lat="45.918896980583668" lon="6.125623919069767"><ele></ele><time>2015-2-2T22:10:24Z</time></trkpt>
<trkpt lat="45.918413931503892" lon="6.125639928504825"><ele></ele><time>2015-2-2T22:10:27Z</time></trkpt>
<trkpt lat="45.917534921318293" lon="6.12567194737494"><ele></ele><time>2015-2-2T22:10:30Z</time></trkpt>
<trkpt lat="45.91653797775507" lon="6.125756939873099"><ele></ele><time>2015-2-2T22:10:33Z</time></trkpt>
<trkpt lat="45.915507925674319" lon="6.125778984278441"><ele></ele><time>2015-2-2T22:10:36Z</time></trkpt>
<trkpt lat="45.914702927693725" lon="6.125763980671763"><ele></ele><time>2015-2-2T22:10:39Z</time></trkpt>
<trkpt lat="45.913981916382909" lon="6.125782923772931"><ele></ele><time>2015-2-2T22:10:42Z</time></trkpt>
<trkpt lat="45.912923952564597" lon="6.125819971784949"><ele></ele><time>2015-2-2T22:10:45Z</time></trkpt>
<trkpt lat="45.911787953227758" lon="6.125864982604981"><ele></ele><time>2015-2-2T22:10:48Z</time></trkpt>
<trkpt lat="45.910957977175713" lon="6.125887949019671"><ele></ele><time>2015-2-2T22:10:51Z</time></trkpt>
<trkpt lat="45.909756934270263" lon="6.125928936526179"><ele></ele><time>2015-2-2T22:10:54Z</time></trkpt>
<trkpt lat="45.908853951841593" lon="6.125950980931521"><ele></ele><time>2015-2-2T22:10:57Z</time></trkpt>
<trkpt lat="45.908099999651313" lon="6.125973947346211"><ele></ele><time>2015-2-2T22:11:0Z</time></trkpt>
<trkpt lat="45.907259965315461" lon="6.126020969823003"><ele></ele><time>2015-2-2T22:11:3Z</time></trkpt>
<trkpt lat="45.906517999246716" lon="6.126103950664401"><ele></ele><time>2015-2-2T22:11:6Z</time></trkpt>
<trkpt lat="45.906048947945237" lon="6.126099927350879"><ele></ele><time>2015-2-2T22:11:9Z</time></trkpt>
<trkpt lat="45.905747953802347" lon="6.125627942383289"><ele></ele><time>2015-2-2T22:11:12Z</time></trkpt>
<trkpt lat="45.905336989089847" lon="6.126091964542866"><ele></ele><time>2015-2-2T22:11:15Z</time></trkpt>
<trkpt lat="45.905071953311563" lon="6.125619979575276"><ele></ele><time>2015-2-2T22:11:18Z</time></trkpt>
<trkpt lat="45.904608936980367" lon="6.125293923541904"><ele></ele><time>2015-2-2T22:11:21Z</time></trkpt>
<trkpt lat="45.904112979769707" lon="6.125470949336886"><ele></ele><time>2015-2-2T22:11:24Z</time></trkpt>
<trkpt lat="45.903764963150024" lon="6.124928975477815"><ele></ele><time>2015-2-2T22:11:27Z</time></trkpt>
<trkpt lat="45.903449971228838" lon="6.124075949192047"><ele></ele><time>2015-2-2T22:11:30Z</time></trkpt>
<trkpt lat="45.90294093824923" lon="6.123613938689232"><ele></ele><time>2015-2-2T22:11:33Z</time></trkpt>
<trkpt lat="45.902495943009853" lon="6.12302795983851"><ele></ele><time>2015-2-2T22:11:36Z</time></trkpt>
<trkpt lat="45.902097970247269" lon="6.122506940737367"><ele></ele><time>2015-2-2T22:11:39Z</time></trkpt>
<trkpt lat="45.901578962802887" lon="6.121806968003511"><ele></ele><time>2015-2-2T22:11:42Z</time></trkpt>
<trkpt lat="45.901412917301059" lon="6.121213948354125"><ele></ele><time>2015-2-2T22:11:45Z</time></trkpt>
<trkpt lat="45.90098493732512" lon="6.121260970830917"><ele></ele><time>2015-2-2T22:11:48Z</time></trkpt>
<trkpt lat="45.900771953165531" lon="6.121336994692683"><ele></ele><time>2015-2-2T22:11:51Z</time></trkpt>
<trkpt lat="45.900318995118141" lon="6.121405977755785"><ele></ele><time>2015-2-2T22:11:54Z</time></trkpt>
<trkpt lat="45.899764951318502" lon="6.121634971350431"><ele></ele><time>2015-2-2T22:11:57Z</time></trkpt>
<trkpt lat="45.899111917242408" lon="6.12195298075676"><ele></ele><time>2015-2-2T22:12:0Z</time></trkpt>
<trkpt lat="45.898667927831411" lon="6.122108967974782"><ele></ele><time>2015-2-2T22:12:3Z</time></trkpt>
<trkpt lat="45.89797792956233" lon="6.122432928532362"><ele></ele><time>2015-2-2T22:12:6Z</time></trkpt>
<trkpt lat="45.897389939054847" lon="6.122568966820836"><ele></ele><time>2015-2-2T22:12:9Z</time></trkpt>
<trkpt lat="45.896348990499973" lon="6.122909942641854"><ele></ele><time>2015-2-2T22:12:12Z</time></trkpt>
<trkpt lat="45.895838951691985" lon="6.123041957616806"><ele></ele><time>2015-2-2T22:12:15Z</time></trkpt>
<trkpt lat="45.895324973389506" lon="6.12341595813632"><ele></ele><time>2015-2-2T22:12:18Z</time></trkpt>
<trkpt lat="45.895261941477656" lon="6.123462980613112"><ele></ele><time>2015-2-2T22:12:21Z</time></trkpt>
<trkpt lat="45.895727975293994" lon="6.123108929023147"><ele></ele><time>2015-2-2T22:12:24Z</time></trkpt>
<trkpt lat="45.896397940814495" lon="6.122903991490603"><ele></ele><time>2015-2-2T22:12:27Z</time></trkpt>
<trkpt lat="45.896904962137341" lon="6.122760996222496"><ele></ele><time>2015-2-2T22:12:30Z</time></trkpt>
<trkpt lat="45.897335959598422" lon="6.122411973774433"><ele></ele><time>2015-2-2T22:12:33Z</time></trkpt>
<trkpt lat="45.897190952673554" lon="6.121420981362462"><ele></ele><time>2015-2-2T22:12:36Z</time></trkpt>
<trkpt lat="45.896803960204124" lon="6.120770964771509"><ele></ele><time>2015-2-2T22:12:39Z</time></trkpt>
<trkpt lat="45.896162996068597" lon="6.120186997577548"><ele></ele><time>2015-2-2T22:12:42Z</time></trkpt>
<trkpt lat="45.895751947537065" lon="6.119842920452356"><ele></ele><time>2015-2-2T22:12:45Z</time></trkpt>
<trkpt lat="45.895286919549108" lon="6.119435979053378"><ele></ele><time>2015-2-2T22:12:48Z</time></trkpt>
<trkpt lat="45.894544953480363" lon="6.118802977725864"><ele></ele><time>2015-2-2T22:12:51Z</time></trkpt>
<trkpt lat="45.893801981583238" lon="6.118134940043092"><ele></ele><time>2015-2-2T22:12:54Z</time></trkpt>
<trkpt lat="45.893393950536847" lon="6.117771919816732"><ele></ele><time>2015-2-2T22:12:57Z</time></trkpt>
<trkpt lat="45.892916936427355" lon="6.11735693179071"><ele></ele><time>2015-2-2T22:13:0Z</time></trkpt>
<trkpt lat="45.892156949266791" lon="6.116673974320293"><ele></ele><time>2015-2-2T22:13:3Z</time></trkpt>
<trkpt lat="45.891687981784344" lon="6.116252951323986"><ele></ele><time>2015-2-2T22:13:6Z</time></trkpt>
<trkpt lat="45.89123192243278" lon="6.115848943591118"><ele></ele><time>2015-2-2T22:13:9Z</time></trkpt>
<trkpt lat="45.890510994940996" lon="6.115191970020533"><ele></ele><time>2015-2-2T22:13:12Z</time></trkpt>
<trkpt lat="45.890045966953039" lon="6.114814952015877"><ele></ele><time>2015-2-2T22:13:15Z</time></trkpt>
<trkpt lat="45.88972695171833" lon="6.114516975358129"><ele></ele><time>2015-2-2T22:13:18Z</time></trkpt>
<trkpt lat="45.889169974252582" lon="6.113890931010246"><ele></ele><time>2015-2-2T22:13:21Z</time></trkpt>
<trkpt lat="45.888570919632912" lon="6.113257929682732"><ele></ele><time>2015-2-2T22:13:24Z</time></trkpt>
<trkpt lat="45.888133971020579" lon="6.112788962200284"><ele></ele><time>2015-2-2T22:13:27Z</time></trkpt>
<trkpt lat="45.887746978551149" lon="6.112381936982274"><ele></ele><time>2015-2-2T22:13:30Z</time></trkpt>
<trkpt lat="45.887348921969533" lon="6.112012965604663"><ele></ele><time>2015-2-2T22:13:33Z</time></trkpt>
<trkpt lat="45.887035941705108" lon="6.111257923766971"><ele></ele><time>2015-2-2T22:13:36Z</time></trkpt>
<trkpt lat="45.8866529725492" lon="6.110626934096217"><ele></ele><time>2015-2-2T22:13:39Z</time></trkpt>
<trkpt lat="45.886146957054734" lon="6.11009493470192"><ele></ele><time>2015-2-2T22:13:42Z</time></trkpt>
<trkpt lat="45.885668937116861" lon="6.109655974432826"><ele></ele><time>2015-2-2T22:13:45Z</time></trkpt>
<trkpt lat="45.885197957977653" lon="6.109256995841861"><ele></ele><time>2015-2-2T22:13:48Z</time></trkpt>
<trkpt lat="45.884770983830094" lon="6.108944937586784"><ele></ele><time>2015-2-2T22:13:51Z</time></trkpt>
<trkpt lat="45.884298998862505" lon="6.108740922063589"><ele></ele><time>2015-2-2T22:13:54Z</time></trkpt>
<trkpt lat="45.88381695561111" lon="6.108639920130372"><ele></ele><time>2015-2-2T22:13:57Z</time></trkpt>
<trkpt lat="45.883338935673237" lon="6.108528943732381"><ele></ele><time>2015-2-2T22:14:0Z</time></trkpt>
<trkpt lat="45.882885977625847" lon="6.108425930142403"><ele></ele><time>2015-2-2T22:14:3Z</time></trkpt>
<trkpt lat="45.882436959072948" lon="6.10831294208765"><ele></ele><time>2015-2-2T22:14:6Z</time></trkpt>
<trkpt lat="45.881739920005202" lon="6.108198948204517"><ele></ele><time>2015-2-2T22:14:9Z</time></trkpt>
<trkpt lat="45.881256954744458" lon="6.107830982655287"><ele></ele><time>2015-2-2T22:14:12Z</time></trkpt>
<trkpt lat="45.880651948973536" lon="6.10725992359221"><ele></ele><time>2015-2-2T22:14:15Z</time></trkpt>
<trkpt lat="45.88020795956254" lon="6.106824986636639"><ele></ele><time>2015-2-2T22:14:18Z</time></trkpt>
<trkpt lat="45.879435986280441" lon="6.106106992810965"><ele></ele><time>2015-2-2T22:14:21Z</time></trkpt>
<trkpt lat="45.878989985212684" lon="6.105702985078096"><ele></ele><time>2015-2-2T22:14:24Z</time></trkpt>
<trkpt lat="45.878194961696863" lon="6.105334935709834"><ele></ele><time>2015-2-2T22:14:27Z</time></trkpt>
<trkpt lat="45.877684922888875" lon="6.105148941278458"><ele></ele><time>2015-2-2T22:14:30Z</time></trkpt>
<trkpt lat="45.876891994848847" lon="6.104805953800678"><ele></ele><time>2015-2-2T22:14:33Z</time></trkpt>
<trkpt lat="45.876246923580766" lon="6.104300944134593"><ele></ele><time>2015-2-2T22:14:36Z</time></trkpt>
<trkpt lat="45.875684916973114" lon="6.10377699136734"><ele></ele><time>2015-2-2T22:14:39Z</time></trkpt>
<trkpt lat="45.875230953097343" lon="6.103270975872874"><ele></ele><time>2015-2-2T22:14:42Z</time></trkpt>
<trkpt lat="45.874802973121405" lon="6.102535966783762"><ele></ele><time>2015-2-2T22:14:45Z</time></trkpt>
<trkpt lat="45.874193944036961" lon="6.101841945201159"><ele></ele><time>2015-2-2T22:14:48Z</time></trkpt>
<trkpt lat="45.873571923002601" lon="6.101239956915379"><ele></ele><time>2015-2-2T22:14:51Z</time></trkpt>
<trkpt lat="45.87303196080029" lon="6.100699994713068"><ele></ele><time>2015-2-2T22:14:54Z</time></trkpt>
<trkpt lat="45.872427960857749" lon="6.100101945921779"><ele></ele><time>2015-2-2T22:14:57Z</time></trkpt>
<trkpt lat="45.871974918991327" lon="6.099658962339163"><ele></ele><time>2015-2-2T22:15:0Z</time></trkpt>
<trkpt lat="45.871432945132256" lon="6.099121933802962"><ele></ele><time>2015-2-2T22:15:3Z</time></trkpt>
<trkpt lat="45.870945956557989" lon="6.098634945228696"><ele></ele><time>2015-2-2T22:15:6Z</time></trkpt>
<trkpt lat="45.870323935523629" lon="6.098013930022717"><ele></ele><time>2015-2-2T22:15:9Z</time></trkpt>
<trkpt lat="45.869929986074567" lon="6.097639929503202"><ele></ele><time>2015-2-2T22:15:12Z</time></trkpt>
<trkpt lat="45.869286926463246" lon="6.096977926790714"><ele></ele><time>2015-2-2T22:15:15Z</time></trkpt>
<trkpt lat="45.868849977850914" lon="6.096568973734975"><ele></ele><time>2015-2-2T22:15:18Z</time></trkpt>
<trkpt lat="45.868400959298015" lon="6.096133952960372"><ele></ele><time>2015-2-2T22:15:21Z</time></trkpt>
<trkpt lat="45.867913970723748" lon="6.095645958557725"><ele></ele><time>2015-2-2T22:15:24Z</time></trkpt>
<trkpt lat="45.867526978254318" lon="6.095258966088295"><ele></ele><time>2015-2-2T22:15:27Z</time></trkpt>
<trkpt lat="45.867022974416614" lon="6.094722943380475"><ele></ele><time>2015-2-2T22:15:30Z</time></trkpt>
<trkpt lat="45.866688955575228" lon="6.094116931781173"><ele></ele><time>2015-2-2T22:15:33Z</time></trkpt>
<trkpt lat="45.866410927847028" lon="6.093539921566844"><ele></ele><time>2015-2-2T22:15:36Z</time></trkpt>
<trkpt lat="45.866130972281098" lon="6.092951931059361"><ele></ele><time>2015-2-2T22:15:39Z</time></trkpt>
<trkpt lat="45.865741968154907" lon="6.092132935300469"><ele></ele><time>2015-2-2T22:15:42Z</time></trkpt>
<trkpt lat="45.865421947091818" lon="6.091478979215026"><ele></ele><time>2015-2-2T22:15:45Z</time></trkpt>
<trkpt lat="45.8650809712708" lon="6.090767942368984"><ele></ele><time>2015-2-2T22:15:48Z</time></trkpt>
<trkpt lat="45.864546960219741" lon="6.089624986052513"><ele></ele><time>2015-2-2T22:15:51Z</time></trkpt>
<trkpt lat="45.864185951650143" lon="6.088903974741697"><ele></ele><time>2015-2-2T22:15:54Z</time></trkpt>
<trkpt lat="45.863819997757673" lon="6.088138958439231"><ele></ele><time>2015-2-2T22:15:57Z</time></trkpt>
<trkpt lat="45.863521937280893" lon="6.087455917149782"><ele></ele><time>2015-2-2T22:16:0Z</time></trkpt>
<trkpt lat="45.863436944782734" lon="6.087379977107048"><ele></ele><time>2015-2-2T22:16:3Z</time></trkpt>
<trkpt lat="45.863027991726995" lon="6.087826984003186"><ele></ele><time>2015-2-2T22:16:6Z</time></trkpt>
<trkpt lat="45.862629935145378" lon="6.088389996439219"><ele></ele><time>2015-2-2T22:16:9Z</time></trkpt>
<trkpt lat="45.862233974039555" lon="6.089118970558047"><ele></ele><time>2015-2-2T22:16:12Z</time></trkpt>
<trkpt lat="45.861582951620221" lon="6.089121988043189"><ele></ele><time>2015-2-2T22:16:15Z</time></trkpt>
<trkpt lat="45.861132927238941" lon="6.089110923931003"><ele></ele><time>2015-2-2T22:16:18Z</time></trkpt>
<trkpt lat="45.860438989475369" lon="6.089276969432831"><ele></ele><time>2015-2-2T22:16:21Z</time></trkpt>
<trkpt lat="45.859920987859368" lon="6.089273951947689"><ele></ele><time>2015-2-2T22:16:24Z</time></trkpt>
<trkpt lat="45.859322939068079" lon="6.08903992921114"><ele></ele><time>2015-2-2T22:16:27Z</time></trkpt>
<trkpt lat="45.858666971325874" lon="6.088980920612812"><ele></ele><time>2015-2-2T22:16:30Z</time></trkpt>
<trkpt lat="45.85786297917366" lon="6.089164987206459"><ele></ele><time>2015-2-2T22:16:33Z</time></trkpt>
<trkpt lat="45.857384959235787" lon="6.089236987754703"><ele></ele><time>2015-2-2T22:16:36Z</time></trkpt>
<trkpt lat="45.856879949569702" lon="6.089160963892937"><ele></ele><time>2015-2-2T22:16:39Z</time></trkpt>
<trkpt lat="45.856346944347024" lon="6.089064991101623"><ele></ele><time>2015-2-2T22:16:42Z</time></trkpt>
<trkpt lat="45.855872947722673" lon="6.089179990813136"><ele></ele><time>2015-2-2T22:16:45Z</time></trkpt>
<trkpt lat="45.855259979143739" lon="6.0893389955163"><ele></ele><time>2015-2-2T22:16:48Z</time></trkpt>
<trkpt lat="45.854781959205866" lon="6.089757923036814"><ele></ele><time>2015-2-2T22:16:51Z</time></trkpt>
<trkpt lat="45.854389937594533" lon="6.090114992111921"><ele></ele><time>2015-2-2T22:16:54Z</time></trkpt>
<trkpt lat="45.853788955137134" lon="6.089979959651828"><ele></ele><time>2015-2-2T22:16:57Z</time></trkpt>
<trkpt lat="45.853364998474717" lon="6.08951099216938"><ele></ele><time>2015-2-2T22:17:0Z</time></trkpt>
<trkpt lat="45.852686986327171" lon="6.089279986917973"><ele></ele><time>2015-2-2T22:17:3Z</time></trkpt>
<trkpt lat="45.852145934477448" lon="6.089316951110959"><ele></ele><time>2015-2-2T22:17:6Z</time></trkpt>
<trkpt lat="45.851408997550607" lon="6.089322986081243"><ele></ele><time>2015-2-2T22:17:9Z</time></trkpt>
<trkpt lat="45.850833998993039" lon="6.08893197029829"><ele></ele><time>2015-2-2T22:17:12Z</time></trkpt>
<trkpt lat="45.850393949076533" lon="6.088791992515326"><ele></ele><time>2015-2-2T22:17:15Z</time></trkpt>
<trkpt lat="45.849937973544002" lon="6.088678920641542"><ele></ele><time>2015-2-2T22:17:18Z</time></trkpt>
<trkpt lat="45.849459953606129" lon="6.088369963690639"><ele></ele><time>2015-2-2T22:17:21Z</time></trkpt>
<trkpt lat="45.849005989730358" lon="6.088016917929053"><ele></ele><time>2015-2-2T22:17:24Z</time></trkpt>
<trkpt lat="45.848585972562432" lon="6.087682982906699"><ele></ele><time>2015-2-2T22:17:27Z</time></trkpt>
<trkpt lat="45.84804592654109" lon="6.087494976818562"><ele></ele><time>2015-2-2T22:17:30Z</time></trkpt>
<trkpt lat="45.847500935196877" lon="6.086959959939122"><ele></ele><time>2015-2-2T22:17:33Z</time></trkpt>
<trkpt lat="45.847124923020601" lon="6.086440952494741"><ele></ele><time>2015-2-2T22:17:36Z</time></trkpt>
<trkpt lat="45.84662695415318" lon="6.085902918130159"><ele></ele><time>2015-2-2T22:17:39Z</time></trkpt>
<trkpt lat="45.846085986122489" lon="6.08559999614954"><ele></ele><time>2015-2-2T22:17:42Z</time></trkpt>
<trkpt lat="45.845664963126183" lon="6.085339989513159"><ele></ele><time>2015-2-2T22:17:45Z</time></trkpt>
<trkpt lat="45.845016958191991" lon="6.085144942626357"><ele></ele><time>2015-2-2T22:17:48Z</time></trkpt>
<trkpt lat="45.84443592466414" lon="6.084786951541901"><ele></ele><time>2015-2-2T22:17:51Z</time></trkpt>
<trkpt lat="45.844059996306896" lon="6.084187980741262"><ele></ele><time>2015-2-2T22:17:54Z</time></trkpt>
<trkpt lat="45.843569990247488" lon="6.083938954398036"><ele></ele><time>2015-2-2T22:17:57Z</time></trkpt>
<trkpt lat="45.843121977522969" lon="6.084439940750599"><ele></ele><time>2015-2-2T22:18:0Z</time></trkpt>
<trkpt lat="45.842644963413477" lon="6.084837997332215"><ele></ele><time>2015-2-2T22:18:3Z</time></trkpt>
<trkpt lat="45.842164931818843" lon="6.084858952090144"><ele></ele><time>2015-2-2T22:18:6Z</time></trkpt>
<trkpt lat="45.841595968231559" lon="6.084477994590998"><ele></ele><time>2015-2-2T22:18:9Z</time></trkpt>
<trkpt lat="45.841171927750111" lon="6.084046997129917"><ele></ele><time>2015-2-2T22:18:12Z</time></trkpt>
<trkpt lat="45.840634983032942" lon="6.083887992426753"><ele></ele><time>2015-2-2T22:18:15Z</time></trkpt>
<trkpt lat="45.839891927316785" lon="6.083672996610403"><ele></ele><time>2015-2-2T22:18:18Z</time></trkpt>
<trkpt lat="45.83919195458293" lon="6.083309976384044"><ele></ele><time>2015-2-2T22:18:21Z</time></trkpt>
<trkpt lat="45.838616956025362" lon="6.082752998918295"><ele></ele><time>2015-2-2T22:18:24Z</time></trkpt>
<trkpt lat="45.838133990764618" lon="6.082143969833851"><ele></ele><time>2015-2-2T22:18:27Z</time></trkpt>
<trkpt lat="45.837658988311887" lon="6.081719929352403"><ele></ele><time>2015-2-2T22:18:30Z</time></trkpt>
<trkpt lat="45.83695993758738" lon="6.08093798160553"><ele></ele><time>2015-2-2T22:18:33Z</time></trkpt>
<trkpt lat="45.836580991744995" lon="6.080420985817909"><ele></ele><time>2015-2-2T22:18:36Z</time></trkpt>
<trkpt lat="45.835995934903622" lon="6.079680947586894"><ele></ele><time>2015-2-2T22:18:39Z</time></trkpt>
<trkpt lat="45.835411967709661" lon="6.078855916857719"><ele></ele><time>2015-2-2T22:18:42Z</time></trkpt>
<trkpt lat="45.83517299965024" lon="6.078093918040395"><ele></ele><time>2015-2-2T22:18:45Z</time></trkpt>
<trkpt lat="45.834671929478645" lon="6.077681947499514"><ele></ele><time>2015-2-2T22:18:48Z</time></trkpt>
<trkpt lat="45.834255935624242" lon="6.077157994732261"><ele></ele><time>2015-2-2T22:18:51Z</time></trkpt>
<trkpt lat="45.833832984790206" lon="6.07679195702076"><ele></ele><time>2015-2-2T22:18:54Z</time></trkpt>
<trkpt lat="45.832966966554523" lon="6.076546953991056"><ele></ele><time>2015-2-2T22:18:57Z</time></trkpt>
<trkpt lat="45.832418957725167" lon="6.076511917635799"><ele></ele><time>2015-2-2T22:19:0Z</time></trkpt>
<trkpt lat="45.831877989694476" lon="6.076739989221096"><ele></ele><time>2015-2-2T22:19:3Z</time></trkpt>
<trkpt lat="45.831239959225059" lon="6.076697995886207"><ele></ele><time>2015-2-2T22:19:6Z</time></trkpt>
<trkpt lat="45.830861935392022" lon="6.076227938756347"><ele></ele><time>2015-2-2T22:19:9Z</time></trkpt>
<trkpt lat="45.83051199093461" lon="6.075708931311965"><ele></ele><time>2015-2-2T22:19:12Z</time></trkpt>
<trkpt lat="45.830154921859503" lon="6.075159916654229"><ele></ele><time>2015-2-2T22:19:15Z</time></trkpt>
<trkpt lat="45.829575983807445" lon="6.074360953643918"><ele></ele><time>2015-2-2T22:19:18Z</time></trkpt>
<trkpt lat="45.828878944739699" lon="6.073771957308054"><ele></ele><time>2015-2-2T22:19:21Z</time></trkpt>
<trkpt lat="45.828387932851911" lon="6.073486972600222"><ele></ele><time>2015-2-2T22:19:24Z</time></trkpt>
<trkpt lat="45.827789967879653" lon="6.073426958173513"><ele></ele><time>2015-2-2T22:19:27Z</time></trkpt>
<trkpt lat="45.827293926849961" lon="6.073185978457332"><ele></ele><time>2015-2-2T22:19:30Z</time></trkpt>
<trkpt lat="45.826533939689398" lon="6.073117917403579"><ele></ele><time>2015-2-2T22:19:33Z</time></trkpt>
<trkpt lat="45.825918959453702" lon="6.07294793240726"><ele></ele><time>2015-2-2T22:19:36Z</time></trkpt>
<trkpt lat="45.825390983372927" lon="6.072885990142822"><ele></ele><time>2015-2-2T22:19:39Z</time></trkpt>
<trkpt lat="45.824843980371952" lon="6.072630928829312"><ele></ele><time>2015-2-2T22:19:42Z</time></trkpt>
<trkpt lat="45.824422957375646" lon="6.071716966107488"><ele></ele><time>2015-2-2T22:19:45Z</time></trkpt>
<trkpt lat="45.824309969320893" lon="6.070987991988659"><ele></ele><time>2015-2-2T22:19:48Z</time></trkpt>
<trkpt lat="45.824029929935932" lon="6.07043294236064"><ele></ele><time>2015-2-2T22:19:51Z</time></trkpt>
<trkpt lat="45.823630951344967" lon="6.069685947149992"><ele></ele><time>2015-2-2T22:19:54Z</time></trkpt>
<trkpt lat="45.823370944708586" lon="6.069114971905947"><ele></ele><time>2015-2-2T22:19:57Z</time></trkpt>
<trkpt lat="45.823180926963687" lon="6.068461937829852"><ele></ele><time>2015-2-2T22:20:0Z</time></trkpt>
<trkpt lat="45.823373962193727" lon="6.067860955372453"><ele></ele><time>2015-2-2T22:20:3Z</time></trkpt>
<trkpt lat="45.823051929473877" lon="6.0665029194206"><ele></ele><time>2015-2-2T22:20:6Z</time></trkpt>
<trkpt lat="45.822730986401439" lon="6.065733963623643"><ele></ele><time>2015-2-2T22:20:9Z</time></trkpt>
<trkpt lat="45.822273921221495" lon="6.0659209638834"><ele></ele><time>2015-2-2T22:20:12Z</time></trkpt>
<trkpt lat="45.821633962914348" lon="6.066215923056006"><ele></ele><time>2015-2-2T22:20:15Z</time></trkpt>
<trkpt lat="45.821147980168462" lon="6.066523957997561"><ele></ele><time>2015-2-2T22:20:18Z</time></trkpt>
<trkpt lat="45.820723939687014" lon="6.065997993573546"><ele></ele><time>2015-2-2T22:20:21Z</time></trkpt>
<trkpt lat="45.819993959739804" lon="6.065140943974257"><ele></ele><time>2015-2-2T22:20:24Z</time></trkpt>
<trkpt lat="45.819478975608945" lon="6.06403193436563"><ele></ele><time>2015-2-2T22:20:27Z</time></trkpt>
<trkpt lat="45.81918996758759" lon="6.063465988263488"><ele></ele><time>2015-2-2T22:20:30Z</time></trkpt>
<trkpt lat="45.818747989833355" lon="6.063060974702239"><ele></ele><time>2015-2-2T22:20:33Z</time></trkpt>
<trkpt lat="45.817849952727556" lon="6.06280792504549"><ele></ele><time>2015-2-2T22:20:36Z</time></trkpt>
<trkpt lat="45.817227931693196" lon="6.062695942819119"><ele></ele><time>2015-2-2T22:20:39Z</time></trkpt>
<trkpt lat="45.816338947042823" lon="6.062529981136322"><ele></ele><time>2015-2-2T22:20:42Z</time></trkpt>
<trkpt lat="45.815843995660543" lon="6.062421938404441"><ele></ele><time>2015-2-2T22:20:45Z</time></trkpt>
<trkpt lat="45.815206971019506" lon="6.062199985608459"><ele></ele><time>2015-2-2T22:20:48Z</time></trkpt>
<trkpt lat="45.814321925863624" lon="6.062509948387742"><ele></ele><time>2015-2-2T22:20:51Z</time></trkpt>
<trkpt lat="45.813716920092702" lon="6.062478935346007"><ele></ele><time>2015-2-2T22:20:54Z</time></trkpt>
<trkpt lat="45.813229931518435" lon="6.062437947839499"><ele></ele><time>2015-2-2T22:20:57Z</time></trkpt>
<trkpt lat="45.81265895627439" lon="6.062084985896945"><ele></ele><time>2015-2-2T22:21:0Z</time></trkpt>
<trkpt lat="45.812093932181597" lon="6.061691958457232"><ele></ele><time>2015-2-2T22:21:3Z</time></trkpt>
<trkpt lat="45.811618929728866" lon="6.06121595017612"><ele></ele><time>2015-2-2T22:21:6Z</time></trkpt>
<trkpt lat="45.811068993061781" lon="6.061179991811514"><ele></ele><time>2015-2-2T22:21:9Z</time></trkpt>
<trkpt lat="45.810431968420744" lon="6.061568995937705"><ele></ele><time>2015-2-2T22:21:12Z</time></trkpt>
<trkpt lat="45.809766948223114" lon="6.062148939818144"><ele></ele><time>2015-2-2T22:21:15Z</time></trkpt>
<trkpt lat="45.809088936075568" lon="6.061908965930343"><ele></ele><time>2015-2-2T22:21:18Z</time></trkpt>
<trkpt lat="45.808430956676602" lon="6.061391970142722"><ele></ele><time>2015-2-2T22:21:21Z</time></trkpt>
<trkpt lat="45.80745798535645" lon="6.060615973547101"><ele></ele><time>2015-2-2T22:21:24Z</time></trkpt>
<trkpt lat="45.807048948481679" lon="6.060229986906052"><ele></ele><time>2015-2-2T22:21:27Z</time></trkpt>
<trkpt lat="45.806240933015943" lon="6.059669991955161"><ele></ele><time>2015-2-2T22:21:30Z</time></trkpt>
<trkpt lat="45.805702982470393" lon="6.059381989762187"><ele></ele><time>2015-2-2T22:21:33Z</time></trkpt>
<trkpt lat="45.805124966427684" lon="6.059115948155522"><ele></ele><time>2015-2-2T22:21:36Z</time></trkpt>
<trkpt lat="45.804580980911851" lon="6.058876980096102"><ele></ele><time>2015-2-2T22:21:39Z</time></trkpt>
<trkpt lat="45.803801966831088" lon="6.058521922677755"><ele></ele><time>2015-2-2T22:21:42Z</time></trkpt>
<trkpt lat="45.803155973553658" lon="6.058205924928188"><ele></ele><time>2015-2-2T22:21:45Z</time></trkpt>
<trkpt lat="45.802482990548015" lon="6.05794994160533"><ele></ele><time>2015-2-2T22:21:48Z</time></trkpt>
<trkpt lat="45.801798943430185" lon="6.057762941345573"><ele></ele><time>2015-2-2T22:21:51Z</time></trkpt>
<trkpt lat="45.801176922395825" lon="6.057621957734227"><ele></ele><time>2015-2-2T22:21:54Z</time></trkpt>
<trkpt lat="45.800481978803873" lon="6.057461947202683"><ele></ele><time>2015-2-2T22:21:57Z</time></trkpt>
<trkpt lat="45.79967899248004" lon="6.057535959407687"><ele></ele><time>2015-2-2T22:22:0Z</time></trkpt>
<trkpt lat="45.799220921471715" lon="6.057760929688811"><ele></ele><time>2015-2-2T22:22:3Z</time></trkpt>
<trkpt lat="45.798298995941877" lon="6.057556997984648"><ele></ele><time>2015-2-2T22:22:6Z</time></trkpt>
<trkpt lat="45.797828938812017" lon="6.057253992184997"><ele></ele><time>2015-2-2T22:22:9Z</time></trkpt>
<trkpt lat="45.797207923606038" lon="6.056861970573664"><ele></ele><time>2015-2-2T22:22:12Z</time></trkpt>
<trkpt lat="45.796658992767334" lon="6.056505991145968"><ele></ele><time>2015-2-2T22:22:15Z</time></trkpt>
<trkpt lat="45.796118946745992" lon="6.05616794899106"><ele></ele><time>2015-2-2T22:22:18Z</time></trkpt>
<trkpt lat="45.795655930414796" lon="6.055980948731303"><ele></ele><time>2015-2-2T22:22:21Z</time></trkpt>
<trkpt lat="45.794994933530688" lon="6.05580291710794"><ele></ele><time>2015-2-2T22:22:24Z</time></trkpt>
<trkpt lat="45.79452496021986" lon="6.055762935429812"><ele></ele><time>2015-2-2T22:22:27Z</time></trkpt>
<trkpt lat="45.794013999402523" lon="6.055783974006772"><ele></ele><time>2015-2-2T22:22:30Z</time></trkpt>
<trkpt lat="45.793346967548132" lon="6.055446937680244"><ele></ele><time>2015-2-2T22:22:33Z</time></trkpt>
<trkpt lat="45.792580945417285" lon="6.055257925763726"><ele></ele><time>2015-2-2T22:22:36Z</time></trkpt>
<trkpt lat="45.792073924094439" lon="6.055378960445523"><ele></ele><time>2015-2-2T22:22:39Z</time></trkpt>
<trkpt lat="45.791641920804977" lon="6.055574929341674"><ele></ele><time>2015-2-2T22:22:42Z</time></trkpt>
<trkpt lat="45.791115956380963" lon="6.055577946826816"><ele></ele><time>2015-2-2T22:22:45Z</time></trkpt>
<trkpt lat="45.790548920631409" lon="6.055406956002116"><ele></ele><time>2015-2-2T22:22:48Z</time></trkpt>
<trkpt lat="45.790095962584019" lon="6.05509196408093"><ele></ele><time>2015-2-2T22:22:51Z</time></trkpt>
<trkpt lat="45.789671922102571" lon="6.05479096993804"><ele></ele><time>2015-2-2T22:22:54Z</time></trkpt>
<trkpt lat="45.789266992360353" lon="6.054484946653247"><ele></ele><time>2015-2-2T22:22:57Z</time></trkpt>
<trkpt lat="45.788460988551378" lon="6.054479917511344"><ele></ele><time>2015-2-2T22:23:0Z</time></trkpt>
<trkpt lat="45.787790939211845" lon="6.054276991635561"><ele></ele><time>2015-2-2T22:23:3Z</time></trkpt>
<trkpt lat="45.78724293038249" lon="6.054205996915698"><ele></ele><time>2015-2-2T22:23:6Z</time></trkpt>
<trkpt lat="45.786772957071662" lon="6.054453933611512"><ele></ele><time>2015-2-2T22:23:9Z</time></trkpt>
<trkpt lat="45.785877937451005" lon="6.054112957790494"><ele></ele><time>2015-2-2T22:23:12Z</time></trkpt>
<trkpt lat="45.785239990800619" lon="6.053838953375816"><ele></ele><time>2015-2-2T22:23:15Z</time></trkpt>
<trkpt lat="45.7842549495399" lon="6.053659999743104"><ele></ele><time>2015-2-2T22:23:18Z</time></trkpt>
<trkpt lat="45.783572997897863" lon="6.053368980064988"><ele></ele><time>2015-2-2T22:23:21Z</time></trkpt>
<trkpt lat="45.782852992415428" lon="6.053203940391541"><ele></ele><time>2015-2-2T22:23:24Z</time></trkpt>
<trkpt lat="45.78219392336905" lon="6.052960949018598"><ele></ele><time>2015-2-2T22:23:27Z</time></trkpt>
<trkpt lat="45.781511971727014" lon="6.052895989269018"><ele></ele><time>2015-2-2T22:23:30Z</time></trkpt>
<trkpt lat="45.781000927090645" lon="6.052887942641974"><ele></ele><time>2015-2-2T22:23:33Z</time></trkpt>
<trkpt lat="45.780270947143435" lon="6.052827928215265"><ele></ele><time>2015-2-2T22:23:36Z</time></trkpt>
<trkpt lat="45.779697960242629" lon="6.052988944575191"><ele></ele><time>2015-2-2T22:23:39Z</time></trkpt>
<trkpt lat="45.778863960877061" lon="6.05343796312809"><ele></ele><time>2015-2-2T22:23:42Z</time></trkpt>
<trkpt lat="45.778354927897453" lon="6.053700987249613"><ele></ele><time>2015-2-2T22:23:45Z</time></trkpt>
<trkpt lat="45.777918985113502" lon="6.05393098667264"><ele></ele><time>2015-2-2T22:23:48Z</time></trkpt>
<trkpt lat="45.777284977957606" lon="6.054252935573459"><ele></ele><time>2015-2-2T22:23:51Z</time></trkpt>
<trkpt lat="45.776492971926928" lon="6.054645963013172"><ele></ele><time>2015-2-2T22:23:54Z</time></trkpt>
<trkpt lat="45.775954937562346" lon="6.054912926629186"><ele></ele><time>2015-2-2T22:23:57Z</time></trkpt>
<trkpt lat="45.775390919297934" lon="6.055211992934346"><ele></ele><time>2015-2-2T22:24:0Z</time></trkpt>
<trkpt lat="45.774948941543698" lon="6.055448949337006"><ele></ele><time>2015-2-2T22:24:3Z</time></trkpt>
<trkpt lat="45.773948980495334" lon="6.055820938199759"><ele></ele><time>2015-2-2T22:24:6Z</time></trkpt>
<trkpt lat="45.773453945294023" lon="6.055965945124626"><ele></ele><time>2015-2-2T22:24:9Z</time></trkpt>
<trkpt lat="45.772881964221597" lon="6.056158980354667"><ele></ele><time>2015-2-2T22:24:12Z</time></trkpt>
<trkpt lat="45.772304954007268" lon="6.056191921234131"><ele></ele><time>2015-2-2T22:24:15Z</time></trkpt>
<trkpt lat="45.771420998498797" lon="6.056008944287896"><ele></ele><time>2015-2-2T22:24:18Z</time></trkpt>
<trkpt lat="45.770630920305848" lon="6.055826973170042"><ele></ele><time>2015-2-2T22:24:21Z</time></trkpt>
<trkpt lat="45.76973095536232" lon="6.05560895986855"><ele></ele><time>2015-2-2T22:24:24Z</time></trkpt>
<trkpt lat="45.769211947917938" lon="6.055715996772051"><ele></ele><time>2015-2-2T22:24:27Z</time></trkpt>
<trkpt lat="45.768398987129331" lon="6.056751916185021"><ele></ele><time>2015-2-2T22:24:30Z</time></trkpt>
<trkpt lat="45.768046947196126" lon="6.057178974151611"><ele></ele><time>2015-2-2T22:24:33Z</time></trkpt>
<trkpt lat="45.767205990850925" lon="6.057361951097846"><ele></ele><time>2015-2-2T22:24:36Z</time></trkpt>
<trkpt lat="45.766754960641265" lon="6.057336973026395"><ele></ele><time>2015-2-2T22:24:39Z</time></trkpt>
<trkpt lat="45.76616395264864" lon="6.057120971381664"><ele></ele><time>2015-2-2T22:24:42Z</time></trkpt>
<trkpt lat="45.765505973249674" lon="6.057049976661801"><ele></ele><time>2015-2-2T22:24:45Z</time></trkpt>
<trkpt lat="45.764902979135513" lon="6.057248963043094"><ele></ele><time>2015-2-2T22:24:48Z</time></trkpt>
<trkpt lat="45.764442980289459" lon="6.05674596503377"><ele></ele><time>2015-2-2T22:24:51Z</time></trkpt>
<trkpt lat="45.764106949791312" lon="6.056002993136644"><ele></ele><time>2015-2-2T22:24:54Z</time></trkpt>
<trkpt lat="45.763725992292166" lon="6.055136974900961"><ele></ele><time>2015-2-2T22:24:57Z</time></trkpt>
<trkpt lat="45.763378981500864" lon="6.054346980527043"><ele></ele><time>2015-2-2T22:25:0Z</time></trkpt>
<trkpt lat="45.76341493986547" lon="6.053516920655966"><ele></ele><time>2015-2-2T22:25:3Z</time></trkpt>
<trkpt lat="45.763442935422063" lon="6.052781995385885"><ele></ele><time>2015-2-2T22:25:6Z</time></trkpt>
<trkpt lat="45.763858929276466" lon="6.052409922704101"><ele></ele><time>2015-2-2T22:25:9Z</time></trkpt>
<trkpt lat="45.763925984501839" lon="6.051771976053715"><ele></ele><time>2015-2-2T22:25:12Z</time></trkpt>
<trkpt lat="45.763928918167949" lon="6.051034955307841"><ele></ele><time>2015-2-2T22:25:15Z</time></trkpt>
<trkpt lat="45.764244999736547" lon="6.050479989498854"><ele></ele><time>2015-2-2T22:25:18Z</time></trkpt>
<trkpt lat="45.76453291811049" lon="6.049927957355976"><ele></ele><time>2015-2-2T22:25:21Z</time></trkpt>
<trkpt lat="45.764343990013003" lon="6.049232929944992"><ele></ele><time>2015-2-2T22:25:24Z</time></trkpt>
<trkpt lat="45.764223961159587" lon="6.048379987478256"><ele></ele><time>2015-2-2T22:25:27Z</time></trkpt>
<trkpt lat="45.764365950599313" lon="6.047585969790816"><ele></ele><time>2015-2-2T22:25:30Z</time></trkpt>
<trkpt lat="45.76427592895925" lon="6.04684098623693"><ele></ele><time>2015-2-2T22:25:33Z</time></trkpt>
<trkpt lat="45.764139974489808" lon="6.045965999364853"><ele></ele><time>2015-2-2T22:25:36Z</time></trkpt>
<trkpt lat="45.763999996706843" lon="6.045169970020652"><ele></ele><time>2015-2-2T22:25:39Z</time></trkpt>
<trkpt lat="45.764127988368273" lon="6.044456921517849"><ele></ele><time>2015-2-2T22:25:42Z</time></trkpt>
<trkpt lat="45.764304930344224" lon="6.043729959055781"><ele></ele><time>2015-2-2T22:25:45Z</time></trkpt>
<trkpt lat="45.764504922553897" lon="6.043006936088204"><ele></ele><time>2015-2-2T22:25:48Z</time></trkpt>
<trkpt lat="45.76474498026073" lon="6.042285924777389"><ele></ele><time>2015-2-2T22:25:51Z</time></trkpt>
<trkpt lat="45.764899961650372" lon="6.041675973683596"><ele></ele><time>2015-2-2T22:25:54Z</time></trkpt>
<trkpt lat="45.76504597440362" lon="6.040928978472948"><ele></ele><time>2015-2-2T22:25:57Z</time></trkpt>
<trkpt lat="45.765169942751527" lon="6.040284996852279"><ele></ele><time>2015-2-2T22:26:0Z</time></trkpt>
<trkpt lat="45.765287959948182" lon="6.039583934471011"><ele></ele><time>2015-2-2T22:26:3Z</time></trkpt>
<trkpt lat="45.765259964391589" lon="6.038921931758523"><ele></ele><time>2015-2-2T22:26:6Z</time></trkpt>
<trkpt lat="45.765180923044682" lon="6.038049962371588"><ele></ele><time>2015-2-2T22:26:9Z</time></trkpt>
<trkpt lat="45.765161979943514" lon="6.037012953311205"><ele></ele><time>2015-2-2T22:26:12Z</time></trkpt>
<trkpt lat="45.765087967738509" lon="6.036156993359327"><ele></ele><time>2015-2-2T22:26:15Z</time></trkpt>
<trkpt lat="45.764942960813642" lon="6.035036919638515"><ele></ele><time>2015-2-2T22:26:18Z</time></trkpt>
<trkpt lat="45.764913959428668" lon="6.034306939691305"><ele></ele><time>2015-2-2T22:26:21Z</time></trkpt>
<trkpt lat="45.764868948608637" lon="6.033289963379502"><ele></ele><time>2015-2-2T22:26:24Z</time></trkpt>
<trkpt lat="45.764849921688437" lon="6.0325319878757"><ele></ele><time>2015-2-2T22:26:27Z</time></trkpt>
<trkpt lat="45.764815974980593" lon="6.031303955242038"><ele></ele><time>2015-2-2T22:26:30Z</time></trkpt>
<trkpt lat="45.764962993562222" lon="6.030626948922873"><ele></ele><time>2015-2-2T22:26:33Z</time></trkpt>
<trkpt lat="45.764901973307133" lon="6.029894957318902"><ele></ele><time>2015-2-2T22:26:36Z</time></trkpt>
<trkpt lat="45.764212980866432" lon="6.028999937698245"><ele></ele><time>2015-2-2T22:26:39Z</time></trkpt>
<trkpt lat="45.763571932911873" lon="6.028184965252876"><ele></ele><time>2015-2-2T22:26:42Z</time></trkpt>
<trkpt lat="45.763249984011054" lon="6.027728989720345"><ele></ele><time>2015-2-2T22:26:45Z</time></trkpt>
<trkpt lat="45.762691916897893" lon="6.026773955672979"><ele></ele><time>2015-2-2T22:26:48Z</time></trkpt>
<trkpt lat="45.762431994080544" lon="6.02621597237885"><ele></ele><time>2015-2-2T22:26:51Z</time></trkpt>
<trkpt lat="45.762051958590746" lon="6.025175945833325"><ele></ele><time>2015-2-2T22:26:54Z</time></trkpt>
<trkpt lat="45.762004936113954" lon="6.023946991190314"><ele></ele><time>2015-2-2T22:26:57Z</time></trkpt>
<trkpt lat="45.762047935277224" lon="6.023157918825746"><ele></ele><time>2015-2-2T22:27:0Z</time></trkpt>
<trkpt lat="45.761912986636162" lon="6.022019991651177"><ele></ele><time>2015-2-2T22:27:3Z</time></trkpt>
<trkpt lat="45.761745935305953" lon="6.021314989775419"><ele></ele><time>2015-2-2T22:27:6Z</time></trkpt>
<trkpt lat="45.761491963639855" lon="6.020240932703018"><ele></ele><time>2015-2-2T22:27:9Z</time></trkpt>
<trkpt lat="45.761162973940372" lon="6.018906952813268"><ele></ele><time>2015-2-2T22:27:12Z</time></trkpt>
<trkpt lat="45.760851921513677" lon="6.017591999843717"><ele></ele><time>2015-2-2T22:27:15Z</time></trkpt>
<trkpt lat="45.760602978989482" lon="6.016559936106205"><ele></ele><time>2015-2-2T22:27:18Z</time></trkpt>
<trkpt lat="45.760397957637906" lon="6.01573096588254"><ele></ele><time>2015-2-2T22:27:21Z</time></trkpt>
<trkpt lat="45.76012596487999" lon="6.014599995687604"><ele></ele><time>2015-2-2T22:27:24Z</time></trkpt>
<trkpt lat="45.75989093631506" lon="6.013771947473288"><ele></ele><time>2015-2-2T22:27:27Z</time></trkpt>
<trkpt lat="45.759611986577511" lon="6.012708954513073"><ele></ele><time>2015-2-2T22:27:30Z</time></trkpt>
<trkpt lat="45.759267993271351" lon="6.011560969054699"><ele></ele><time>2015-2-2T22:27:33Z</time></trkpt>
<trkpt lat="45.758927939459682" lon="6.010455982759595"><ele></ele><time>2015-2-2T22:27:36Z</time></trkpt>
<trkpt lat="45.758556956425309" lon="6.009324928745627"><ele></ele><time>2015-2-2T22:27:39Z</time></trkpt>
<trkpt lat="45.758286975324154" lon="6.008473997935653"><ele></ele><time>2015-2-2T22:27:42Z</time></trkpt>
<trkpt lat="45.757987992838025" lon="6.007512928918004"><ele></ele><time>2015-2-2T22:27:45Z</time></trkpt>
<trkpt lat="45.75774491764605" lon="6.006748918443918"><ele></ele><time>2015-2-2T22:27:48Z</time></trkpt>
<trkpt lat="45.757412994280457" lon="6.005722973495722"><ele></ele><time>2015-2-2T22:27:51Z</time></trkpt>
<trkpt lat="45.757152987644076" lon="6.00503196939826"><ele></ele><time>2015-2-2T22:27:54Z</time></trkpt>
<trkpt lat="45.756728947162628" lon="6.004235940054059"><ele></ele><time>2015-2-2T22:27:57Z</time></trkpt>
<trkpt lat="45.755763938650489" lon="6.00316297262907"><ele></ele><time>2015-2-2T22:28:0Z</time></trkpt>
<trkpt lat="45.755236968398094" lon="6.00260398350656"><ele></ele><time>2015-2-2T22:28:3Z</time></trkpt>
<trkpt lat="45.754738999530673" lon="6.002070978283882"><ele></ele><time>2015-2-2T22:28:6Z</time></trkpt>
<trkpt lat="45.754245975986123" lon="6.00153093226254"><ele></ele><time>2015-2-2T22:28:9Z</time></trkpt>
<trkpt lat="45.753713976591825" lon="6.000964986160398"><ele></ele><time>2015-2-2T22:28:12Z</time></trkpt>
<trkpt lat="45.753129925578833" lon="6.000279933214188"><ele></ele><time>2015-2-2T22:28:15Z</time></trkpt>
<trkpt lat="45.752462977543473" lon="5.999398995190859"><ele></ele><time>2015-2-2T22:28:18Z</time></trkpt>
<trkpt lat="45.751756969839334" lon="5.998470950871706"><ele></ele><time>2015-2-2T22:28:21Z</time></trkpt>
<trkpt lat="45.751349944621325" lon="5.997865945100784"><ele></ele><time>2015-2-2T22:28:24Z</time></trkpt>
<trkpt lat="45.751108964905143" lon="5.996786942705512"><ele></ele><time>2015-2-2T22:28:27Z</time></trkpt>
<trkpt lat="45.750979967415333" lon="5.995601993054152"><ele></ele><time>2015-2-2T22:28:30Z</time></trkpt>
<trkpt lat="45.750833954662085" lon="5.994989946484566"><ele></ele><time>2015-2-2T22:28:33Z</time></trkpt>
<trkpt lat="45.750341936945915" lon="5.993684967979789"><ele></ele><time>2015-2-2T22:28:36Z</time></trkpt>
<trkpt lat="45.749948993325233" lon="5.992738986387849"><ele></ele><time>2015-2-2T22:28:39Z</time></trkpt>
<trkpt lat="45.749448928982019" lon="5.991942957043648"><ele></ele><time>2015-2-2T22:28:42Z</time></trkpt>
<trkpt lat="45.748891951516271" lon="5.991102922707796"><ele></ele><time>2015-2-2T22:28:45Z</time></trkpt>
<trkpt lat="45.748493978753686" lon="5.990215949714184"><ele></ele><time>2015-2-2T22:28:48Z</time></trkpt>
<trkpt lat="45.748327933251858" lon="5.989408940076828"><ele></ele><time>2015-2-2T22:28:51Z</time></trkpt>
<trkpt lat="45.748165994882584" lon="5.988627998158336"><ele></ele><time>2015-2-2T22:28:54Z</time></trkpt>
<trkpt lat="45.747746983543038" lon="5.987705988809466"><ele></ele><time>2015-2-2T22:28:57Z</time></trkpt>
<trkpt lat="45.747350938618183" lon="5.987066952511668"><ele></ele><time>2015-2-2T22:29:0Z</time></trkpt>
<trkpt lat="45.746793961152434" lon="5.986024998128414"><ele></ele><time>2015-2-2T22:29:3Z</time></trkpt>
<trkpt lat="45.746347960084677" lon="5.984814986586571"><ele></ele><time>2015-2-2T22:29:6Z</time></trkpt>
<trkpt lat="45.746170934289694" lon="5.983861964195967"><ele></ele><time>2015-2-2T22:29:9Z</time></trkpt>
<trkpt lat="45.745649999007583" lon="5.982605936005712"><ele></ele><time>2015-2-2T22:29:12Z</time></trkpt>
<trkpt lat="45.745412958785892" lon="5.981995984911919"><ele></ele><time>2015-2-2T22:29:15Z</time></trkpt>
<trkpt lat="45.745072988793254" lon="5.980996945872903"><ele></ele><time>2015-2-2T22:29:18Z</time></trkpt>
<trkpt lat="45.744652971625328" lon="5.979980975389481"><ele></ele><time>2015-2-2T22:29:21Z</time></trkpt>
<trkpt lat="45.744084930047393" lon="5.979623990133405"><ele></ele><time>2015-2-2T22:29:24Z</time></trkpt>
<trkpt lat="45.743937995284796" lon="5.978222955018282"><ele></ele><time>2015-2-2T22:29:27Z</time></trkpt>
<trkpt lat="45.743772955611348" lon="5.977415945380926"><ele></ele><time>2015-2-2T22:29:30Z</time></trkpt>
<trkpt lat="45.743205919861794" lon="5.976659981533885"><ele></ele><time>2015-2-2T22:29:33Z</time></trkpt>
<trkpt lat="45.742900986224413" lon="5.976074924692512"><ele></ele><time>2015-2-2T22:29:36Z</time></trkpt>
<trkpt lat="45.742181986570358" lon="5.975110922008753"><ele></ele><time>2015-2-2T22:29:39Z</time></trkpt>
<trkpt lat="45.741417976096272" lon="5.973265981301665"><ele></ele><time>2015-2-2T22:29:42Z</time></trkpt>
<trkpt lat="45.740926964208484" lon="5.972153954207897"><ele></ele><time>2015-2-2T22:29:45Z</time></trkpt>
<trkpt lat="45.740667963400483" lon="5.971081992611289"><ele></ele><time>2015-2-2T22:29:48Z</time></trkpt>
<trkpt lat="45.740749938413501" lon="5.970229972153902"><ele></ele><time>2015-2-2T22:29:51Z</time></trkpt>
<trkpt lat="45.740223973989487" lon="5.969564951956272"><ele></ele><time>2015-2-2T22:29:54Z</time></trkpt>
<trkpt lat="45.739799933508039" lon="5.969069916754961"><ele></ele><time>2015-2-2T22:29:57Z</time></trkpt>
<trkpt lat="45.73926399461925" lon="5.968860955908895"><ele></ele><time>2015-2-2T22:30:0Z</time></trkpt>
<trkpt lat="45.738440975546837" lon="5.968618970364332"><ele></ele><time>2015-2-2T22:30:3Z</time></trkpt>
<trkpt lat="45.738032944500446" lon="5.968018993735313"><ele></ele><time>2015-2-2T22:30:6Z</time></trkpt>
<trkpt lat="45.737477978691459" lon="5.967717999592423"><ele></ele><time>2015-2-2T22:30:9Z</time></trkpt>
<trkpt lat="45.736956959590316" lon="5.967649938538671"><ele></ele><time>2015-2-2T22:30:12Z</time></trkpt>
<trkpt lat="45.736345918849111" lon="5.966839995235205"><ele></ele><time>2015-2-2T22:30:15Z</time></trkpt>
<trkpt lat="45.735983988270164" lon="5.966348983347416"><ele></ele><time>2015-2-2T22:30:18Z</time></trkpt>
<trkpt lat="45.735629936680198" lon="5.965899964794517"><ele></ele><time>2015-2-2T22:30:21Z</time></trkpt>
<trkpt lat="45.735000958666205" lon="5.965457987040281"><ele></ele><time>2015-2-2T22:30:24Z</time></trkpt>
<trkpt lat="45.734123960137367" lon="5.964398933574557"><ele></ele><time>2015-2-2T22:30:27Z</time></trkpt>
<trkpt lat="45.73370193131268" lon="5.963490922003985"><ele></ele><time>2015-2-2T22:30:30Z</time></trkpt>
<trkpt lat="45.73357293382287" lon="5.962727917358279"><ele></ele><time>2015-2-2T22:30:33Z</time></trkpt>
<trkpt lat="45.733117964118719" lon="5.961363930255175"><ele></ele><time>2015-2-2T22:30:36Z</time></trkpt>
<trkpt lat="45.733051998540759" lon="5.960713997483254"><ele></ele><time>2015-2-2T22:30:39Z</time></trkpt>
<trkpt lat="45.73281797580421" lon="5.960007989779115"><ele></ele><time>2015-2-2T22:30:42Z</time></trkpt>
<trkpt lat="45.732334926724434" lon="5.959430979564786"><ele></ele><time>2015-2-2T22:30:45Z</time></trkpt>
<trkpt lat="45.732040973380208" lon="5.95864593051374"><ele></ele><time>2015-2-2T22:30:48Z</time></trkpt>
<trkpt lat="45.732157984748483" lon="5.957711935043335"><ele></ele><time>2015-2-2T22:30:51Z</time></trkpt>
<trkpt lat="45.731884986162186" lon="5.95679797232151"><ele></ele><time>2015-2-2T22:30:54Z</time></trkpt>
<trkpt lat="45.731685999780893" lon="5.956102944910526"><ele></ele><time>2015-2-2T22:30:57Z</time></trkpt>
<trkpt lat="45.731707960367203" lon="5.95544496551156"><ele></ele><time>2015-2-2T22:31:0Z</time></trkpt>
<trkpt lat="45.731685999780893" lon="5.954635944217444"><ele></ele><time>2015-2-2T22:31:3Z</time></trkpt>
<trkpt lat="45.731614921241999" lon="5.953965978696942"><ele></ele><time>2015-2-2T22:31:6Z</time></trkpt>
<trkpt lat="45.731310993432999" lon="5.953307999297977"><ele></ele><time>2015-2-2T22:31:9Z</time></trkpt>
<trkpt lat="45.731123993173242" lon="5.952696958556771"><ele></ele><time>2015-2-2T22:31:12Z</time></trkpt>
<trkpt lat="45.730900950729847" lon="5.951761957257986"><ele></ele><time>2015-2-2T22:31:15Z</time></trkpt>
<trkpt lat="45.730659971013665" lon="5.951122920960188"><ele></ele><time>2015-2-2T22:31:18Z</time></trkpt>
<trkpt lat="45.730176921933889" lon="5.950326975435019"><ele></ele><time>2015-2-2T22:31:21Z</time></trkpt>
<trkpt lat="45.729729998856783" lon="5.950120948255062"><ele></ele><time>2015-2-2T22:31:24Z</time></trkpt>
<trkpt lat="45.729475943371654" lon="5.949394991621375"><ele></ele><time>2015-2-2T22:31:27Z</time></trkpt>
<trkpt lat="45.729232951998711" lon="5.948504917323589"><ele></ele><time>2015-2-2T22:31:30Z</time></trkpt>
<trkpt lat="45.728830955922604" lon="5.948108956217766"><ele></ele><time>2015-2-2T22:31:33Z</time></trkpt>
<trkpt lat="45.728303985670209" lon="5.947627918794751"><ele></ele><time>2015-2-2T22:31:36Z</time></trkpt>
<trkpt lat="45.728033920750022" lon="5.946923922747374"><ele></ele><time>2015-2-2T22:31:39Z</time></trkpt>
<trkpt lat="45.727664949372411" lon="5.946406926959753"><ele></ele><time>2015-2-2T22:31:42Z</time></trkpt>
<trkpt lat="45.727114928886294" lon="5.945745930075645"><ele></ele><time>2015-2-2T22:31:45Z</time></trkpt>
<trkpt lat="45.727157928049564" lon="5.944876978173852"><ele></ele><time>2015-2-2T22:31:48Z</time></trkpt>
<trkpt lat="45.727056926116347" lon="5.944230984896421"><ele></ele><time>2015-2-2T22:31:51Z</time></trkpt>
<trkpt lat="45.726979980245233" lon="5.943093979731202"><ele></ele><time>2015-2-2T22:31:54Z</time></trkpt>
<trkpt lat="45.72710394859314" lon="5.942446980625391"><ele></ele><time>2015-2-2T22:31:57Z</time></trkpt>
<trkpt lat="45.727026918902993" lon="5.941632930189371"><ele></ele><time>2015-2-2T22:32:0Z</time></trkpt>
<trkpt lat="45.726768923923373" lon="5.940645961090922"><ele></ele><time>2015-2-2T22:32:3Z</time></trkpt>
<trkpt lat="45.726574966683984" lon="5.939954956993461"><ele></ele><time>2015-2-2T22:32:6Z</time></trkpt>
<trkpt lat="45.726480921730399" lon="5.939200920984149"><ele></ele><time>2015-2-2T22:32:9Z</time></trkpt>
<trkpt lat="45.726644955575466" lon="5.938465995714068"><ele></ele><time>2015-2-2T22:32:12Z</time></trkpt>
<trkpt lat="45.72661193087697" lon="5.937407948076725"><ele></ele><time>2015-2-2T22:32:15Z</time></trkpt>
<trkpt lat="45.726356953382492" lon="5.936815934255719"><ele></ele><time>2015-2-2T22:32:18Z</time></trkpt>
<trkpt lat="45.726069957017899" lon="5.936076985672116"><ele></ele><time>2015-2-2T22:32:21Z</time></trkpt>
<trkpt lat="45.725955963134766" lon="5.935411965474486"><ele></ele><time>2015-2-2T22:32:24Z</time></trkpt>
<trkpt lat="45.725883962586522" lon="5.934536978602409"><ele></ele><time>2015-2-2T22:32:27Z</time></trkpt>
<trkpt lat="45.725236963480711" lon="5.933674983680248"><ele></ele><time>2015-2-2T22:32:30Z</time></trkpt>
<trkpt lat="45.72499698959291" lon="5.933113982900977"><ele></ele><time>2015-2-2T22:32:33Z</time></trkpt>
<trkpt lat="45.724947955459356" lon="5.932353995740414"><ele></ele><time>2015-2-2T22:32:36Z</time></trkpt>
<trkpt lat="45.724763972684741" lon="5.931168962270021"><ele></ele><time>2015-2-2T22:32:39Z</time></trkpt>
<trkpt lat="45.724348984658718" lon="5.930281989276409"><ele></ele><time>2015-2-2T22:32:42Z</time></trkpt>
<trkpt lat="45.724134994670749" lon="5.929585956037045"><ele></ele><time>2015-2-2T22:32:45Z</time></trkpt>
<trkpt lat="45.724004991352558" lon="5.928483987227082"><ele></ele><time>2015-2-2T22:32:48Z</time></trkpt>
<trkpt lat="45.723843974992633" lon="5.927801951766014"><ele></ele><time>2015-2-2T22:32:51Z</time></trkpt>
<trkpt lat="45.723511967808008" lon="5.926967952400446"><ele></ele><time>2015-2-2T22:32:54Z</time></trkpt>
<trkpt lat="45.723208962008357" lon="5.92590294778347"><ele></ele><time>2015-2-2T22:32:57Z</time></trkpt>
<trkpt lat="45.723046939820051" lon="5.925143966451287"><ele></ele><time>2015-2-2T22:33:0Z</time></trkpt>
<trkpt lat="45.722845941781998" lon="5.924189938232303"><ele></ele><time>2015-2-2T22:33:3Z</time></trkpt>
<trkpt lat="45.722577972337604" lon="5.923413941636682"><ele></ele><time>2015-2-2T22:33:6Z</time></trkpt>
<trkpt lat="45.72214194573462" lon="5.923083946108818"><ele></ele><time>2015-2-2T22:33:9Z</time></trkpt>
<trkpt lat="45.72179694660008" lon="5.922815976664424"><ele></ele><time>2015-2-2T22:33:12Z</time></trkpt>
<trkpt lat="45.72095699608326" lon="5.923132980242372"><ele></ele><time>2015-2-2T22:33:15Z</time></trkpt>
<trkpt lat="45.720069939270616" lon="5.922892922535539"><ele></ele><time>2015-2-2T22:33:18Z</time></trkpt>
<trkpt lat="45.71939293295145" lon="5.922605926170945"><ele></ele><time>2015-2-2T22:33:21Z</time></trkpt>
<trkpt lat="45.718819946050644" lon="5.922217927873135"><ele></ele><time>2015-2-2T22:33:24Z</time></trkpt>
<trkpt lat="45.718405963853002" lon="5.921848956495524"><ele></ele><time>2015-2-2T22:33:27Z</time></trkpt>
<trkpt lat="45.717940935865045" lon="5.921626919880509"><ele></ele><time>2015-2-2T22:33:30Z</time></trkpt>
<trkpt lat="45.717366943135858" lon="5.921220984309912"><ele></ele><time>2015-2-2T22:33:33Z</time></trkpt>
<trkpt lat="45.716801919043064" lon="5.920796943828464"><ele></ele><time>2015-2-2T22:33:36Z</time></trkpt>
<trkpt lat="45.716069927439094" lon="5.920235943049192"><ele></ele><time>2015-2-2T22:33:39Z</time></trkpt>
<trkpt lat="45.715485960245132" lon="5.919751971960068"><ele></ele><time>2015-2-2T22:33:42Z</time></trkpt>
<trkpt lat="45.7150939386338" lon="5.919095920398831"><ele></ele><time>2015-2-2T22:33:45Z</time></trkpt>
<trkpt lat="45.71438692510128" lon="5.919134980067611"><ele></ele><time>2015-2-2T22:33:48Z</time></trkpt>
<trkpt lat="45.71386992931366" lon="5.919372942298651"><ele></ele><time>2015-2-2T22:33:51Z</time></trkpt>
<trkpt lat="45.71337497793138" lon="5.919440919533372"><ele></ele><time>2015-2-2T22:33:54Z</time></trkpt>
<trkpt lat="45.712501918897033" lon="5.918909925967455"><ele></ele><time>2015-2-2T22:33:57Z</time></trkpt>
<trkpt lat="45.711973942816257" lon="5.918541960418224"><ele></ele><time>2015-2-2T22:34:0Z</time></trkpt>
<trkpt lat="45.711558954790235" lon="5.918238954618573"><ele></ele><time>2015-2-2T22:34:3Z</time></trkpt>
<trkpt lat="45.711134998127818" lon="5.917919939383864"><ele></ele><time>2015-2-2T22:34:6Z</time></trkpt>
<trkpt lat="45.710660917684436" lon="5.917571922764182"><ele></ele><time>2015-2-2T22:34:9Z</time></trkpt>
<trkpt lat="45.710230926051736" lon="5.917267994955182"><ele></ele><time>2015-2-2T22:34:12Z</time></trkpt>
<trkpt lat="45.709403967484832" lon="5.916672963649035"><ele></ele><time>2015-2-2T22:34:15Z</time></trkpt>
<trkpt lat="45.708973975852132" lon="5.916365934535861"><ele></ele><time>2015-2-2T22:34:18Z</time></trkpt>
<trkpt lat="45.708384979516268" lon="5.915950946509838"><ele></ele><time>2015-2-2T22:34:21Z</time></trkpt>
<trkpt lat="45.707481997087598" lon="5.915300929918885"><ele></ele><time>2015-2-2T22:34:24Z</time></trkpt>
<trkpt lat="45.706979921087623" lon="5.914939921349287"><ele></ele><time>2015-2-2T22:34:27Z</time></trkpt>
<trkpt lat="45.706457979977131" lon="5.914563992992044"><ele></ele><time>2015-2-2T22:34:30Z</time></trkpt>
<trkpt lat="45.705846939235926" lon="5.914136935025454"><ele></ele><time>2015-2-2T22:34:33Z</time></trkpt>
<trkpt lat="45.705374954268336" lon="5.913792941719294"><ele></ele><time>2015-2-2T22:34:36Z</time></trkpt>
<trkpt lat="45.704727955162525" lon="5.913340989500284"><ele></ele><time>2015-2-2T22:34:39Z</time></trkpt>
<trkpt lat="45.704031921923161" lon="5.912876967340708"><ele></ele><time>2015-2-2T22:34:42Z</time></trkpt>
<trkpt lat="45.703551974147558" lon="5.912674963474274"><ele></ele><time>2015-2-2T22:34:45Z</time></trkpt>
<trkpt lat="45.703056938946247" lon="5.912593994289637"><ele></ele><time>2015-2-2T22:34:48Z</time></trkpt>
<trkpt lat="45.702530974522233" lon="5.912542948499322"><ele></ele><time>2015-2-2T22:34:51Z</time></trkpt>
<trkpt lat="45.701790936291218" lon="5.912483939900994"><ele></ele><time>2015-2-2T22:34:54Z</time></trkpt>
<trkpt lat="45.701118959113955" lon="5.912419985979796"><ele></ele><time>2015-2-2T22:34:57Z</time></trkpt>
<trkpt lat="45.700450921431184" lon="5.912355948239565"><ele></ele><time>2015-2-2T22:35:0Z</time></trkpt>
<trkpt lat="45.699893943965435" lon="5.912302974611521"><ele></ele><time>2015-2-2T22:35:3Z</time></trkpt>
<trkpt lat="45.699220960959792" lon="5.912244971841574"><ele></ele><time>2015-2-2T22:35:6Z</time></trkpt>
<trkpt lat="45.698262993246317" lon="5.912162996828556"><ele></ele><time>2015-2-2T22:35:9Z</time></trkpt>
<trkpt lat="45.697697969153523" lon="5.912088984623551"><ele></ele><time>2015-2-2T22:35:12Z</time></trkpt>
<trkpt lat="45.696967989206314" lon="5.912009943276644"><ele></ele><time>2015-2-2T22:35:15Z</time></trkpt>
<trkpt lat="45.696303974837065" lon="5.911974990740418"><ele></ele><time>2015-2-2T22:35:18Z</time></trkpt>
<trkpt lat="45.695803994312882" lon="5.911953952163458"><ele></ele><time>2015-2-2T22:35:21Z</time></trkpt>
<trkpt lat="45.695121958851814" lon="5.911880945786834"><ele></ele><time>2015-2-2T22:35:24Z</time></trkpt>
<trkpt lat="45.694500943645835" lon="5.911815986037254"><ele></ele><time>2015-2-2T22:35:27Z</time></trkpt>
<trkpt lat="45.693900967016816" lon="5.911752954125404"><ele></ele><time>2015-2-2T22:35:30Z</time></trkpt>
<trkpt lat="45.693340972065926" lon="5.911579951643944"><ele></ele><time>2015-2-2T22:35:33Z</time></trkpt>
<trkpt lat="45.69296495988965" lon="5.911631919443607"><ele></ele><time>2015-2-2T22:35:36Z</time></trkpt>
<trkpt lat="45.692366994917393" lon="5.912041962146759"><ele></ele><time>2015-2-2T22:35:39Z</time></trkpt>
<trkpt lat="45.69188897497952" lon="5.912393918260932"><ele></ele><time>2015-2-2T22:35:42Z</time></trkpt>
<trkpt lat="45.691368961706758" lon="5.912738917395473"><ele></ele><time>2015-2-2T22:35:45Z</time></trkpt>
<trkpt lat="45.690822964534163" lon="5.913065979257226"><ele></ele><time>2015-2-2T22:35:48Z</time></trkpt>
<trkpt lat="45.690293982625008" lon="5.913232946768403"><ele></ele><time>2015-2-2T22:35:51Z</time></trkpt>
<trkpt lat="45.689602978527546" lon="5.913410978391767"><ele></ele><time>2015-2-2T22:35:54Z</time></trkpt>
<trkpt lat="45.689099980518222" lon="5.913559924811125"><ele></ele><time>2015-2-2T22:35:57Z</time></trkpt>
<trkpt lat="45.688569992780685" lon="5.913723958656192"><ele></ele><time>2015-2-2T22:36:0Z</time></trkpt>
<trkpt lat="45.68812994286418" lon="5.913879945874214"><ele></ele><time>2015-2-2T22:36:3Z</time></trkpt>
<trkpt lat="45.687672961503267" lon="5.913996957242489"><ele></ele><time>2015-2-2T22:36:6Z</time></trkpt>
<trkpt lat="45.687058987095952" lon="5.91384993866086"><ele></ele><time>2015-2-2T22:36:9Z</time></trkpt>
<trkpt lat="45.686414921656251" lon="5.913570988923311"><ele></ele><time>2015-2-2T22:36:12Z</time></trkpt>
<trkpt lat="45.68587395362556" lon="5.913351969793439"><ele></ele><time>2015-2-2T22:36:15Z</time></trkpt>
<trkpt lat="45.685405991971493" lon="5.913125993683934"><ele></ele><time>2015-2-2T22:36:18Z</time></trkpt>
<trkpt lat="45.684653967618942" lon="5.912802955135703"><ele></ele><time>2015-2-2T22:36:21Z</time></trkpt>
<trkpt lat="45.684094978496432" lon="5.912551917135716"><ele></ele><time>2015-2-2T22:36:24Z</time></trkpt>
<trkpt lat="45.683450996875763" lon="5.912265926599503"><ele></ele><time>2015-2-2T22:36:27Z</time></trkpt>
<trkpt lat="45.682708946987987" lon="5.911939954385161"><ele></ele><time>2015-2-2T22:36:30Z</time></trkpt>
<trkpt lat="45.681805964559317" lon="5.911554973572493"><ele></ele><time>2015-2-2T22:36:33Z</time></trkpt>
<trkpt lat="45.680840956047177" lon="5.911043928936124"><ele></ele><time>2015-2-2T22:36:36Z</time></trkpt>
<trkpt lat="45.680339969694614" lon="5.910625923424959"><ele></ele><time>2015-2-2T22:36:39Z</time></trkpt>
<trkpt lat="45.679582916200161" lon="5.910505978390575"><ele></ele><time>2015-2-2T22:36:42Z</time></trkpt>
<trkpt lat="45.678696949034929" lon="5.910147987306118"><ele></ele><time>2015-2-2T22:36:45Z</time></trkpt>
<trkpt lat="45.677969986572862" lon="5.909791924059391"><ele></ele><time>2015-2-2T22:36:48Z</time></trkpt>
<trkpt lat="45.677166916429996" lon="5.909427981823683"><ele></ele><time>2015-2-2T22:36:51Z</time></trkpt>
<trkpt lat="45.676717981696129" lon="5.909232934936881"><ele></ele><time>2015-2-2T22:36:54Z</time></trkpt>
<trkpt lat="45.676000993698835" lon="5.908905956894159"><ele></ele><time>2015-2-2T22:36:57Z</time></trkpt>
<trkpt lat="45.675551975145936" lon="5.908727925270796"><ele></ele><time>2015-2-2T22:37:0Z</time></trkpt>
<trkpt lat="45.674712946638465" lon="5.908439923077822"><ele></ele><time>2015-2-2T22:37:3Z</time></trkpt>
<trkpt lat="45.673679960891604" lon="5.908328946679831"><ele></ele><time>2015-2-2T22:37:6Z</time></trkpt>
<trkpt lat="45.673130946233869" lon="5.908349985256791"><ele></ele><time>2015-2-2T22:37:9Z</time></trkpt>
<trkpt lat="45.67263993434608" lon="5.908367922529578"><ele></ele><time>2015-2-2T22:37:12Z</time></trkpt>
<trkpt lat="45.672151939943433" lon="5.908385943621397"><ele></ele><time>2015-2-2T22:37:15Z</time></trkpt>
<trkpt lat="45.671276953071356" lon="5.908429948613048"><ele></ele><time>2015-2-2T22:37:18Z</time></trkpt>
<trkpt lat="45.670815948396921" lon="5.908451993018389"><ele></ele><time>2015-2-2T22:37:21Z</time></trkpt>
<trkpt lat="45.670126955956221" lon="5.908483928069472"><ele></ele><time>2015-2-2T22:37:24Z</time></trkpt>
<trkpt lat="45.669494960457087" lon="5.908518964424729"><ele></ele><time>2015-2-2T22:37:27Z</time></trkpt>
<trkpt lat="45.668701948598027" lon="5.908563975244761"><ele></ele><time>2015-2-2T22:37:30Z</time></trkpt>
<trkpt lat="45.667879935353994" lon="5.908608986064792"><ele></ele><time>2015-2-2T22:37:33Z</time></trkpt>
<trkpt lat="45.666906964033842" lon="5.908654918894172"><ele></ele><time>2015-2-2T22:37:36Z</time></trkpt>
<trkpt lat="45.666298940777779" lon="5.908696996048093"><ele></ele><time>2015-2-2T22:37:39Z</time></trkpt>
<trkpt lat="45.665752943605185" lon="5.90873496606946"><ele></ele><time>2015-2-2T22:37:42Z</time></trkpt>
<trkpt lat="45.664860941469669" lon="5.908798919990659"><ele></ele><time>2015-2-2T22:37:45Z</time></trkpt>
<trkpt lat="45.664373952895403" lon="5.908846948295832"><ele></ele><time>2015-2-2T22:37:48Z</time></trkpt>
<trkpt lat="45.663917977362871" lon="5.908767990767956"><ele></ele><time>2015-2-2T22:37:51Z</time></trkpt>
<trkpt lat="45.663401987403631" lon="5.908893970772624"><ele></ele><time>2015-2-2T22:37:54Z</time></trkpt>
<trkpt lat="45.662816930562258" lon="5.908974939957261"><ele></ele><time>2015-2-2T22:37:57Z</time></trkpt>
<trkpt lat="45.662287948653102" lon="5.908988937735558"><ele></ele><time>2015-2-2T22:38:0Z</time></trkpt>
<trkpt lat="45.66176894120872" lon="5.909021962434053"><ele></ele><time>2015-2-2T22:38:3Z</time></trkpt>
<trkpt lat="45.661257980391383" lon="5.909086922183633"><ele></ele><time>2015-2-2T22:38:6Z</time></trkpt>
<trkpt lat="45.660890936851501" lon="5.908816941082478"><ele></ele><time>2015-2-2T22:38:9Z</time></trkpt>
<trkpt lat="45.660947933793068" lon="5.908178994432092"><ele></ele><time>2015-2-2T22:38:12Z</time></trkpt>
<trkpt lat="45.660416940227151" lon="5.908147981390357"><ele></ele><time>2015-2-2T22:38:15Z</time></trkpt>
<trkpt lat="45.659775976091623" lon="5.908210929483175"><ele></ele><time>2015-2-2T22:38:18Z</time></trkpt>
<trkpt lat="45.659466935321689" lon="5.907700974494219"><ele></ele><time>2015-2-2T22:38:21Z</time></trkpt>
<trkpt lat="45.659013977274299" lon="5.907617993652821"><ele></ele><time>2015-2-2T22:38:24Z</time></trkpt>
<trkpt lat="45.658445935696363" lon="5.907521937042475"><ele></ele><time>2015-2-2T22:38:27Z</time></trkpt>
<trkpt lat="45.657751997932792" lon="5.907395957037807"><ele></ele><time>2015-2-2T22:38:30Z</time></trkpt>
<trkpt lat="45.657151937484741" lon="5.907253967598081"><ele></ele><time>2015-2-2T22:38:33Z</time></trkpt>
<trkpt lat="45.656559923663735" lon="5.907281963154674"><ele></ele><time>2015-2-2T22:38:36Z</time></trkpt>
<trkpt lat="45.655779987573624" lon="5.907263942062855"><ele></ele><time>2015-2-2T22:38:39Z</time></trkpt>
<trkpt lat="45.655002985149622" lon="5.907245920971036"><ele></ele><time>2015-2-2T22:38:42Z</time></trkpt>
<trkpt lat="45.654390938580036" lon="5.90723292902112"><ele></ele><time>2015-2-2T22:38:45Z</time></trkpt>
<trkpt lat="45.653809988871217" lon="5.907199988141656"><ele></ele><time>2015-2-2T22:38:48Z</time></trkpt>
<trkpt lat="45.653518969193101" lon="5.906389961019158"><ele></ele><time>2015-2-2T22:38:51Z</time></trkpt>
<trkpt lat="45.652984958142042" lon="5.906299939379096"><ele></ele><time>2015-2-2T22:38:54Z</time></trkpt>
<trkpt lat="45.652678934857249" lon="5.905817979946733"><ele></ele><time>2015-2-2T22:38:57Z</time></trkpt>
<trkpt lat="45.652214996516705" lon="5.905470969155431"><ele></ele><time>2015-2-2T22:39:0Z</time></trkpt>
<trkpt lat="45.651535978540778" lon="5.905169975012541"><ele></ele><time>2015-2-2T22:39:3Z</time></trkpt>
<trkpt lat="45.65119793638587" lon="5.904593970626593"><ele></ele><time>2015-2-2T22:39:6Z</time></trkpt>
<trkpt lat="45.650606928393245" lon="5.90443798340857"><ele></ele><time>2015-2-2T22:39:9Z</time></trkpt>
<trkpt lat="45.650205938145518" lon="5.904829921200872"><ele></ele><time>2015-2-2T22:39:12Z</time></trkpt>
<trkpt lat="45.649373950436711" lon="5.905179949477315"><ele></ele><time>2015-2-2T22:39:15Z</time></trkpt>
<trkpt lat="45.64887598156929" lon="5.905193947255611"><ele></ele><time>2015-2-2T22:39:18Z</time></trkpt>
<trkpt lat="45.648825941607356" lon="5.904301945120096"><ele></ele><time>2015-2-2T22:39:21Z</time></trkpt>
<trkpt lat="45.64883197657764" lon="5.903697945177555"><ele></ele><time>2015-2-2T22:39:24Z</time></trkpt>
<trkpt lat="45.648747989907861" lon="5.903006941080093"><ele></ele><time>2015-2-2T22:39:27Z</time></trkpt>
<trkpt lat="45.648154970258474" lon="5.902635958045721"><ele></ele><time>2015-2-2T22:39:30Z</time></trkpt>
<trkpt lat="45.647623976692557" lon="5.901302983984351"><ele></ele><time>2015-2-2T22:39:33Z</time></trkpt>
<trkpt lat="45.647361958399415" lon="5.900773918256164"><ele></ele><time>2015-2-2T22:39:36Z</time></trkpt>
<trkpt lat="45.646934984251857" lon="5.900164972990751"><ele></ele><time>2015-2-2T22:39:39Z</time></trkpt>
<trkpt lat="45.646563917398453" lon="5.899722995236516"><ele></ele><time>2015-2-2T22:39:42Z</time></trkpt>
<trkpt lat="45.646387981250882" lon="5.899103991687298"><ele></ele><time>2015-2-2T22:39:45Z</time></trkpt>
<trkpt lat="45.646392926573753" lon="5.898169996216893"><ele></ele><time>2015-2-2T22:39:48Z</time></trkpt>
<trkpt lat="45.646488983184099" lon="5.897365920245647"><ele></ele><time>2015-2-2T22:39:51Z</time></trkpt>
<trkpt lat="45.64683792181313" lon="5.896556982770562"><ele></ele><time>2015-2-2T22:39:54Z</time></trkpt>
<trkpt lat="45.647395988926291" lon="5.895714936777949"><ele></ele><time>2015-2-2T22:39:57Z</time></trkpt>
<trkpt lat="45.647809971123934" lon="5.895114960148931"><ele></ele><time>2015-2-2T22:40:0Z</time></trkpt>
<trkpt lat="45.648009963333607" lon="5.894343992695212"><ele></ele><time>2015-2-2T22:40:3Z</time></trkpt>
<trkpt lat="45.647769989445806" lon="5.893506975844502"><ele></ele><time>2015-2-2T22:40:6Z</time></trkpt>
<trkpt lat="45.648000994697213" lon="5.892954943701625"><ele></ele><time>2015-2-2T22:40:9Z</time></trkpt>
<trkpt lat="45.648028990253806" lon="5.891966968774796"><ele></ele><time>2015-2-2T22:40:12Z</time></trkpt>
<trkpt lat="45.648088920861483" lon="5.890965918079019"><ele></ele><time>2015-2-2T22:40:15Z</time></trkpt>
<trkpt lat="45.648099984973669" lon="5.890292935073376"><ele></ele><time>2015-2-2T22:40:18Z</time></trkpt>
<trkpt lat="45.648110965266824" lon="5.889572929590941"><ele></ele><time>2015-2-2T22:40:21Z</time></trkpt>
<trkpt lat="45.648122951388359" lon="5.888747982680798"><ele></ele><time>2015-2-2T22:40:24Z</time></trkpt>
<trkpt lat="45.648139966651797" lon="5.887541994452477"><ele></ele><time>2015-2-2T22:40:27Z</time></trkpt>
<trkpt lat="45.648152958601713" lon="5.886770943179727"><ele></ele><time>2015-2-2T22:40:30Z</time></trkpt>
<trkpt lat="45.648171985521913" lon="5.886105922982097"><ele></ele><time>2015-2-2T22:40:33Z</time></trkpt>
<trkpt lat="45.648171985521913" lon="5.885277958586812"><ele></ele><time>2015-2-2T22:40:36Z</time></trkpt>
<trkpt lat="45.648171985521913" lon="5.884254947304726"><ele></ele><time>2015-2-2T22:40:39Z</time></trkpt>
<trkpt lat="45.648182965815067" lon="5.88318994268775"><ele></ele><time>2015-2-2T22:40:42Z</time></trkpt>
<trkpt lat="45.648197969421744" lon="5.882050925865769"><ele></ele><time>2015-2-2T22:40:45Z</time></trkpt>
<trkpt lat="45.648213978856802" lon="5.881063956767321"><ele></ele><time>2015-2-2T22:40:48Z</time></trkpt>
<trkpt lat="45.64823099412024" lon="5.880097942426801"><ele></ele><time>2015-2-2T22:40:51Z</time></trkpt>
<trkpt lat="45.648241974413395" lon="5.879023969173431"><ele></ele><time>2015-2-2T22:40:54Z</time></trkpt>
<trkpt lat="45.64825396053493" lon="5.878320978954434"><ele></ele><time>2015-2-2T22:40:57Z</time></trkpt>
<trkpt lat="45.648271981626749" lon="5.877192942425609"><ele></ele><time>2015-2-2T22:41:0Z</time></trkpt>
<trkpt lat="45.648286985233426" lon="5.87614294141531"><ele></ele><time>2015-2-2T22:41:3Z</time></trkpt>
<trkpt lat="45.648300983011723" lon="5.875225961208344"><ele></ele><time>2015-2-2T22:41:6Z</time></trkpt>
<trkpt lat="45.648352950811386" lon="5.874482989311218"><ele></ele><time>2015-2-2T22:41:9Z</time></trkpt>
<trkpt lat="45.648365942761302" lon="5.873840935528278"><ele></ele><time>2015-2-2T22:41:12Z</time></trkpt>
<trkpt lat="45.648303916677833" lon="5.873194942250848"><ele></ele><time>2015-2-2T22:41:15Z</time></trkpt>
<trkpt lat="45.648271981626749" lon="5.872425986453891"><ele></ele><time>2015-2-2T22:41:18Z</time></trkpt>
<trkpt lat="45.648249937221408" lon="5.871613947674632"><ele></ele><time>2015-2-2T22:41:21Z</time></trkpt>
<trkpt lat="45.648215990513563" lon="5.870508961379528"><ele></ele><time>2015-2-2T22:41:24Z</time></trkpt>
<trkpt lat="45.648161927238107" lon="5.869208928197622"><ele></ele><time>2015-2-2T22:41:27Z</time></trkpt>
<trkpt lat="45.648119933903217" lon="5.868284991011024"><ele></ele><time>2015-2-2T22:41:30Z</time></trkpt>
<trkpt lat="45.648077940568328" lon="5.867366921156645"><ele></ele><time>2015-2-2T22:41:33Z</time></trkpt>
<trkpt lat="45.648044999688864" lon="5.866419933736324"><ele></ele><time>2015-2-2T22:41:36Z</time></trkpt>
<trkpt lat="45.648021949455142" lon="5.865647960454226"><ele></ele><time>2015-2-2T22:41:39Z</time></trkpt>
<trkpt lat="45.647957995533943" lon="5.864982940256596"><ele></ele><time>2015-2-2T22:41:42Z</time></trkpt>
<trkpt lat="45.648365942761302" lon="5.864981934428215"><ele></ele><time>2015-2-2T22:41:45Z</time></trkpt>
<trkpt lat="45.648193946108222" lon="5.865037925541401"><ele></ele><time>2015-2-2T22:41:48Z</time></trkpt>
<trkpt lat="45.648751929402351" lon="5.865035997703672"><ele></ele><time>2015-2-2T22:41:51Z</time></trkpt>
<trkpt lat="45.649330951273441" lon="5.864974977448583"><ele></ele><time>2015-2-2T22:41:54Z</time></trkpt>
<trkpt lat="45.649056946858764" lon="5.86503298021853"><ele></ele><time>2015-2-2T22:41:57Z</time></trkpt>
<trkpt lat="45.648486977443099" lon="5.864977994933724"><ele></ele><time>2015-2-2T22:42:0Z</time></trkpt>
<trkpt lat="45.648193946108222" lon="5.865219980478287"><ele></ele><time>2015-2-2T22:42:3Z</time></trkpt>
<trkpt lat="45.647740988060832" lon="5.865114955231547"><ele></ele><time>2015-2-2T22:42:6Z</time></trkpt>
<trkpt lat="45.647170934826136" lon="5.864746989682317"><ele></ele><time>2015-2-2T22:42:9Z</time></trkpt>
<trkpt lat="45.646694926545024" lon="5.865274965763092"><ele></ele><time>2015-2-2T22:42:12Z</time></trkpt>
<trkpt lat="45.646162927150726" lon="5.865134987980127"><ele></ele><time>2015-2-2T22:42:15Z</time></trkpt>
<trkpt lat="45.64623299986124" lon="5.865170946344733"><ele></ele><time>2015-2-2T22:42:18Z</time></trkpt>
<trkpt lat="45.645726984366775" lon="5.865684924647212"><ele></ele><time>2015-2-2T22:42:21Z</time></trkpt>
<trkpt lat="45.645196996629238" lon="5.866040987893939"><ele></ele><time>2015-2-2T22:42:24Z</time></trkpt>
<trkpt lat="45.644610933959484" lon="5.866181971505284"><ele></ele><time>2015-2-2T22:42:27Z</time></trkpt>
<trkpt lat="45.644120927900076" lon="5.866231927648187"><ele></ele><time>2015-2-2T22:42:30Z</time></trkpt>
<trkpt lat="45.643967958167195" lon="5.86677398532629"><ele></ele><time>2015-2-2T22:42:33Z</time></trkpt>
<trkpt lat="45.643190955743194" lon="5.867091994732618"><ele></ele><time>2015-2-2T22:42:36Z</time></trkpt>
<trkpt lat="45.642663985490799" lon="5.867370944470167"><ele></ele><time>2015-2-2T22:42:39Z</time></trkpt>
<trkpt lat="45.642226953059435" lon="5.867616953328252"><ele></ele><time>2015-2-2T22:42:42Z</time></trkpt>
<trkpt lat="45.641301926225424" lon="5.868207961320877"><ele></ele><time>2015-2-2T22:42:45Z</time></trkpt>
<trkpt lat="45.64075299538672" lon="5.868512978777289"><ele></ele><time>2015-2-2T22:42:48Z</time></trkpt>
<trkpt lat="45.640119994059205" lon="5.868818918243051"><ele></ele><time>2015-2-2T22:42:51Z</time></trkpt>
<trkpt lat="45.639453968033195" lon="5.868969960138202"><ele></ele><time>2015-2-2T22:42:54Z</time></trkpt>
<trkpt lat="45.638946946710348" lon="5.869414955377579"><ele></ele><time>2015-2-2T22:42:57Z</time></trkpt>
<trkpt lat="45.638191988691688" lon="5.869720978662372"><ele></ele><time>2015-2-2T22:43:0Z</time></trkpt>
<trkpt lat="45.637390930205584" lon="5.869794990867376"><ele></ele><time>2015-2-2T22:43:3Z</time></trkpt>
<trkpt lat="45.636874940246344" lon="5.869852993637323"><ele></ele><time>2015-2-2T22:43:6Z</time></trkpt>
<trkpt lat="45.636430950835347" lon="5.869986936450005"><ele></ele><time>2015-2-2T22:43:9Z</time></trkpt>
<trkpt lat="45.635969946160913" lon="5.870085926726461"><ele></ele><time>2015-2-2T22:43:12Z</time></trkpt>
<trkpt lat="45.635442975908518" lon="5.870197992771864"><ele></ele><time>2015-2-2T22:43:15Z</time></trkpt>
<trkpt lat="45.634575951844454" lon="5.870739966630936"><ele></ele><time>2015-2-2T22:43:18Z</time></trkpt>
<trkpt lat="45.633744969964027" lon="5.870912969112396"><ele></ele><time>2015-2-2T22:43:21Z</time></trkpt>
<trkpt lat="45.632850956171751" lon="5.870990920811892"><ele></ele><time>2015-2-2T22:43:24Z</time></trkpt>
<trkpt lat="45.632385928183794" lon="5.871192924678326"><ele></ele><time>2015-2-2T22:43:27Z</time></trkpt>
<trkpt lat="45.631898939609528" lon="5.871489979326725"><ele></ele><time>2015-2-2T22:43:30Z</time></trkpt>
<trkpt lat="45.63130097463727" lon="5.871872948482633"><ele></ele><time>2015-2-2T22:43:33Z</time></trkpt>
<trkpt lat="45.630858996883035" lon="5.872013932093978"><ele></ele><time>2015-2-2T22:43:36Z</time></trkpt>
<trkpt lat="45.63013999722898" lon="5.872067995369434"><ele></ele><time>2015-2-2T22:43:39Z</time></trkpt>
<trkpt lat="45.629428960382938" lon="5.872696973383427"><ele></ele><time>2015-2-2T22:43:42Z</time></trkpt>
<trkpt lat="45.629052948206663" lon="5.873114978894591"><ele></ele><time>2015-2-2T22:43:45Z</time></trkpt>
<trkpt lat="45.628516925498843" lon="5.873615965247154"><ele></ele><time>2015-2-2T22:43:48Z</time></trkpt>
<trkpt lat="45.628036977723241" lon="5.873712943866849"><ele></ele><time>2015-2-2T22:43:51Z</time></trkpt>
<trkpt lat="45.627533979713917" lon="5.873502977192402"><ele></ele><time>2015-2-2T22:43:54Z</time></trkpt>
<trkpt lat="45.626774998381734" lon="5.873206928372383"><ele></ele><time>2015-2-2T22:43:57Z</time></trkpt>
<trkpt lat="45.625968994572759" lon="5.873270966112614"><ele></ele><time>2015-2-2T22:44:0Z</time></trkpt>
<trkpt lat="45.625267932191491" lon="5.873718978837133"><ele></ele><time>2015-2-2T22:44:3Z</time></trkpt>
<trkpt lat="45.624804999679327" lon="5.87412097491324"><ele></ele><time>2015-2-2T22:44:6Z</time></trkpt>
<trkpt lat="45.624289931729436" lon="5.874529927968979"><ele></ele><time>2015-2-2T22:44:9Z</time></trkpt>
<trkpt lat="45.62384694814682" lon="5.874948939308524"><ele></ele><time>2015-2-2T22:44:12Z</time></trkpt>
<trkpt lat="45.623346967622638" lon="5.875415978953242"><ele></ele><time>2015-2-2T22:44:15Z</time></trkpt>
<trkpt lat="45.62279099598527" lon="5.876116957515478"><ele></ele><time>2015-2-2T22:44:18Z</time></trkpt>
<trkpt lat="45.622416995465755" lon="5.876509984955192"><ele></ele><time>2015-2-2T22:44:21Z</time></trkpt>
<trkpt lat="45.621625995263457" lon="5.87736695073545"><ele></ele><time>2015-2-2T22:44:24Z</time></trkpt>
<trkpt lat="45.621080920100212" lon="5.877904985100031"><ele></ele><time>2015-2-2T22:44:27Z</time></trkpt>
<trkpt lat="45.620704991742969" lon="5.878260964527726"><ele></ele><time>2015-2-2T22:44:30Z</time></trkpt>
<trkpt lat="45.620250944048166" lon="5.8787009306252"><ele></ele><time>2015-2-2T22:44:33Z</time></trkpt>
<trkpt lat="45.61956999823451" lon="5.879358993843198"><ele></ele><time>2015-2-2T22:44:36Z</time></trkpt>
<trkpt lat="45.618865918368101" lon="5.880062989890575"><ele></ele><time>2015-2-2T22:44:39Z</time></trkpt>
<trkpt lat="45.618440955877304" lon="5.88046096265316"><ele></ele><time>2015-2-2T22:44:42Z</time></trkpt>
<trkpt lat="45.617775935679674" lon="5.881127994507551"><ele></ele><time>2015-2-2T22:44:45Z</time></trkpt>
<trkpt lat="45.617233961820602" lon="5.882036928087473"><ele></ele><time>2015-2-2T22:44:48Z</time></trkpt>
<trkpt lat="45.616892985999584" lon="5.882535986602306"><ele></ele><time>2015-2-2T22:44:51Z</time></trkpt>
<trkpt lat="45.61649895273149" lon="5.882954997941852"><ele></ele><time>2015-2-2T22:44:54Z</time></trkpt>
<trkpt lat="45.616052951663733" lon="5.883239982649684"><ele></ele><time>2015-2-2T22:44:57Z</time></trkpt>
<trkpt lat="45.615185927599669" lon="5.883408961817622"><ele></ele><time>2015-2-2T22:45:0Z</time></trkpt>
<trkpt lat="45.614236928522587" lon="5.883389934897423"><ele></ele><time>2015-2-2T22:45:3Z</time></trkpt>
<trkpt lat="45.613403934985399" lon="5.883377948775888"><ele></ele><time>2015-2-2T22:45:6Z</time></trkpt>
<trkpt lat="45.612848969176412" lon="5.883371997624636"><ele></ele><time>2015-2-2T22:45:9Z</time></trkpt>
<trkpt lat="45.612311940640211" lon="5.883427988737822"><ele></ele><time>2015-2-2T22:45:12Z</time></trkpt>
<trkpt lat="45.6116649415344" lon="5.88353494182229"><ele></ele><time>2015-2-2T22:45:15Z</time></trkpt>
<trkpt lat="45.611075945198536" lon="5.883695958182216"><ele></ele><time>2015-2-2T22:45:18Z</time></trkpt>
<trkpt lat="45.610511926934123" lon="5.883896956220269"><ele></ele><time>2015-2-2T22:45:21Z</time></trkpt>
<trkpt lat="45.610059974715114" lon="5.884055960923433"><ele></ele><time>2015-2-2T22:45:24Z</time></trkpt>
<trkpt lat="45.609555970877409" lon="5.884279925376177"><ele></ele><time>2015-2-2T22:45:27Z</time></trkpt>
<trkpt lat="45.609004944562912" lon="5.884544961154461"><ele></ele><time>2015-2-2T22:45:30Z</time></trkpt>
<trkpt lat="45.608496917411685" lon="5.884810918942094"><ele></ele><time>2015-2-2T22:45:33Z</time></trkpt>
<trkpt lat="45.607927953824401" lon="5.885029938071966"><ele></ele><time>2015-2-2T22:45:36Z</time></trkpt>
<trkpt lat="45.607102923095226" lon="5.885385917499661"><ele></ele><time>2015-2-2T22:45:39Z</time></trkpt>
<trkpt lat="45.606238916516304" lon="5.885769976302981"><ele></ele><time>2015-2-2T22:45:42Z</time></trkpt>
<trkpt lat="45.605752933770418" lon="5.886030988767743"><ele></ele><time>2015-2-2T22:45:45Z</time></trkpt>
<trkpt lat="45.605103923007846" lon="5.886381939053536"><ele></ele><time>2015-2-2T22:45:48Z</time></trkpt>
<trkpt lat="45.604597991332412" lon="5.886829951778054"><ele></ele><time>2015-2-2T22:45:51Z</time></trkpt>
<trkpt lat="45.603920985013247" lon="5.88748499751091"><ele></ele><time>2015-2-2T22:45:54Z</time></trkpt>
<trkpt lat="45.60345595702529" lon="5.887961927801371"><ele></ele><time>2015-2-2T22:45:57Z</time></trkpt>
<trkpt lat="45.603052955120802" lon="5.888411952182651"><ele></ele><time>2015-2-2T22:46:0Z</time></trkpt>
<trkpt lat="45.602480974048376" lon="5.889058951288462"><ele></ele><time>2015-2-2T22:46:3Z</time></trkpt>
<trkpt lat="45.601937994360924" lon="5.88913899846375"><ele></ele><time>2015-2-2T22:46:6Z</time></trkpt>
<trkpt lat="45.601590983569622" lon="5.889557925984263"><ele></ele><time>2015-2-2T22:46:9Z</time></trkpt>
<trkpt lat="45.601239949464798" lon="5.889973919838667"><ele></ele><time>2015-2-2T22:46:12Z</time></trkpt>
<trkpt lat="45.600561937317252" lon="5.890663918107748"><ele></ele><time>2015-2-2T22:46:15Z</time></trkpt>
<trkpt lat="45.599819971248507" lon="5.891027944162488"><ele></ele><time>2015-2-2T22:46:18Z</time></trkpt>
<trkpt lat="45.599185964092612" lon="5.891267918050289"><ele></ele><time>2015-2-2T22:46:21Z</time></trkpt>
<trkpt lat="45.598604930564761" lon="5.891499929130077"><ele></ele><time>2015-2-2T22:46:24Z</time></trkpt>
<trkpt lat="45.598007971420884" lon="5.89180595241487"><ele></ele><time>2015-2-2T22:46:27Z</time></trkpt>
<trkpt lat="45.597488963976502" lon="5.892060929909349"><ele></ele><time>2015-2-2T22:46:30Z</time></trkpt>
<trkpt lat="45.59690591879189" lon="5.892349937930703"><ele></ele><time>2015-2-2T22:46:33Z</time></trkpt>
<trkpt lat="45.596372997388244" lon="5.892490921542049"><ele></ele><time>2015-2-2T22:46:36Z</time></trkpt>
<trkpt lat="45.595920961350203" lon="5.892541967332363"><ele></ele><time>2015-2-2T22:46:39Z</time></trkpt>
<trkpt lat="45.595274968072772" lon="5.892690997570753"><ele></ele><time>2015-2-2T22:46:42Z</time></trkpt>
<trkpt lat="45.594794936478138" lon="5.892915967851877"><ele></ele><time>2015-2-2T22:46:45Z</time></trkpt>
<trkpt lat="45.594114996492863" lon="5.893532959744334"><ele></ele><time>2015-2-2T22:46:48Z</time></trkpt>
<trkpt lat="45.593678969889879" lon="5.89403796941042"><ele></ele><time>2015-2-2T22:46:51Z</time></trkpt>
<trkpt lat="45.593310920521617" lon="5.894529987126589"><ele></ele><time>2015-2-2T22:46:54Z</time></trkpt>
<trkpt lat="45.592904984951019" lon="5.895118983462453"><ele></ele><time>2015-2-2T22:46:57Z</time></trkpt>
<trkpt lat="45.59256493113935" lon="5.895613934844732"><ele></ele><time>2015-2-2T22:47:0Z</time></trkpt>
<trkpt lat="45.592169975861907" lon="5.896144928410649"><ele></ele><time>2015-2-2T22:47:3Z</time></trkpt>
<trkpt lat="45.591745935380459" lon="5.89674792252481"><ele></ele><time>2015-2-2T22:47:6Z</time></trkpt>
<trkpt lat="45.591350980103016" lon="5.897247986868024"><ele></ele><time>2015-2-2T22:47:9Z</time></trkpt>
<trkpt lat="45.590937919914722" lon="5.897688958793879"><ele></ele><time>2015-2-2T22:47:12Z</time></trkpt>
<trkpt lat="45.590603984892368" lon="5.8981869276613"><ele></ele><time>2015-2-2T22:47:15Z</time></trkpt>
<trkpt lat="45.590223949402571" lon="5.898681962862611"><ele></ele><time>2015-2-2T22:47:18Z</time></trkpt>
<trkpt lat="45.589862940832973" lon="5.899178925901651"><ele></ele><time>2015-2-2T22:47:21Z</time></trkpt>
<trkpt lat="45.589459938928485" lon="5.899746967479587"><ele></ele><time>2015-2-2T22:47:24Z</time></trkpt>
<trkpt lat="45.589000945910811" lon="5.900497986003757"><ele></ele><time>2015-2-2T22:47:27Z</time></trkpt>
<trkpt lat="45.58858897536993" lon="5.900927977636457"><ele></ele><time>2015-2-2T22:47:30Z</time></trkpt>
<trkpt lat="45.588233917951584" lon="5.901363920420408"><ele></ele><time>2015-2-2T22:47:33Z</time></trkpt>
<trkpt lat="45.58783795684576" lon="5.901870941743255"><ele></ele><time>2015-2-2T22:47:36Z</time></trkpt>
<trkpt lat="45.587360942736268" lon="5.902530932798982"><ele></ele><time>2015-2-2T22:47:39Z</time></trkpt>
<trkpt lat="45.586942937225103" lon="5.903082964941859"><ele></ele><time>2015-2-2T22:47:42Z</time></trkpt>
<trkpt lat="45.586517974734306" lon="5.903718983754516"><ele></ele><time>2015-2-2T22:47:45Z</time></trkpt>
<trkpt lat="45.586089994758368" lon="5.904289958998561"><ele></ele><time>2015-2-2T22:47:48Z</time></trkpt>
<trkpt lat="45.585704930126667" lon="5.904661947861314"><ele></ele><time>2015-2-2T22:47:51Z</time></trkpt>
<trkpt lat="45.585320955142379" lon="5.90499697253108"><ele></ele><time>2015-2-2T22:47:54Z</time></trkpt>
<trkpt lat="45.584969921037555" lon="5.905431993305683"><ele></ele><time>2015-2-2T22:47:57Z</time></trkpt>
<trkpt lat="45.584627939388156" lon="5.905946977436543"><ele></ele><time>2015-2-2T22:48:0Z</time></trkpt>
<trkpt lat="45.584284951910377" lon="5.906427931040525"><ele></ele><time>2015-2-2T22:48:3Z</time></trkpt>
<trkpt lat="45.583658991381526" lon="5.906610991805792"><ele></ele><time>2015-2-2T22:48:6Z</time></trkpt>
<trkpt lat="45.582729941233993" lon="5.906838979572058"><ele></ele><time>2015-2-2T22:48:9Z</time></trkpt>
<trkpt lat="45.582164917141199" lon="5.907085994258523"><ele></ele><time>2015-2-2T22:48:12Z</time></trkpt>
<trkpt lat="45.58169293217361" lon="5.907375924289227"><ele></ele><time>2015-2-2T22:48:15Z</time></trkpt>
<trkpt lat="45.580871924757957" lon="5.907707931473851"><ele></ele><time>2015-2-2T22:48:18Z</time></trkpt>
<trkpt lat="45.580011941492558" lon="5.908036921173334"><ele></ele><time>2015-2-2T22:48:21Z</time></trkpt>
<trkpt lat="45.579226976260543" lon="5.908109927549958"><ele></ele><time>2015-2-2T22:48:24Z</time></trkpt>
<trkpt lat="45.578523986041546" lon="5.908034993335605"><ele></ele><time>2015-2-2T22:48:27Z</time></trkpt>
<trkpt lat="45.577703984454274" lon="5.907586980611086"><ele></ele><time>2015-2-2T22:48:30Z</time></trkpt>
<trkpt lat="45.576926982030272" lon="5.907124970108271"><ele></ele><time>2015-2-2T22:48:33Z</time></trkpt>
<trkpt lat="45.576309990137815" lon="5.906757926568389"><ele></ele><time>2015-2-2T22:48:36Z</time></trkpt>
<trkpt lat="45.575835993513465" lon="5.906475959345698"><ele></ele><time>2015-2-2T22:48:39Z</time></trkpt>
<trkpt lat="45.575085980817676" lon="5.906081926077604"><ele></ele><time>2015-2-2T22:48:42Z</time></trkpt>
<trkpt lat="45.574644925072789" lon="5.905820997431874"><ele></ele><time>2015-2-2T22:48:45Z</time></trkpt>
<trkpt lat="45.573998931795359" lon="5.905391927808523"><ele></ele><time>2015-2-2T22:48:48Z</time></trkpt>
<trkpt lat="45.573370959609747" lon="5.904700923711062"><ele></ele><time>2015-2-2T22:48:51Z</time></trkpt>
<trkpt lat="45.572845917195082" lon="5.904585923999548"><ele></ele><time>2015-2-2T22:48:54Z</time></trkpt>
<trkpt lat="45.572186931967735" lon="5.9041169565171"><ele></ele><time>2015-2-2T22:48:57Z</time></trkpt>
<trkpt lat="45.571590978652239" lon="5.903590992093086"><ele></ele><time>2015-2-2T22:49:0Z</time></trkpt>
<trkpt lat="45.570998964831233" lon="5.90293594636023"><ele></ele><time>2015-2-2T22:49:3Z</time></trkpt>
<trkpt lat="45.570620940998197" lon="5.902280984446406"><ele></ele><time>2015-2-2T22:49:6Z</time></trkpt>
<trkpt lat="45.570184998214245" lon="5.901590986177325"><ele></ele><time>2015-2-2T22:49:9Z</time></trkpt>
<trkpt lat="45.569893978536129" lon="5.901036942377687"><ele></ele><time>2015-2-2T22:49:12Z</time></trkpt>
<trkpt lat="45.569268940016627" lon="5.900212917476893"><ele></ele><time>2015-2-2T22:49:15Z</time></trkpt>
<trkpt lat="45.568868955597281" lon="5.899874959141016"><ele></ele><time>2015-2-2T22:49:18Z</time></trkpt>
<trkpt lat="45.568351959809661" lon="5.899566924199462"><ele></ele><time>2015-2-2T22:49:21Z</time></trkpt>
<trkpt lat="45.56757696904242" lon="5.899347988888621"><ele></ele><time>2015-2-2T22:49:24Z</time></trkpt>
<trkpt lat="45.567119987681508" lon="5.899292919784784"><ele></ele><time>2015-2-2T22:49:27Z</time></trkpt>
<trkpt lat="45.566692929714918" lon="5.899491989985108"><ele></ele><time>2015-2-2T22:49:30Z</time></trkpt>
<trkpt lat="45.566321946680546" lon="5.899948971346021"><ele></ele><time>2015-2-2T22:49:33Z</time></trkpt>
<trkpt lat="45.565636977553368" lon="5.900740977376699"><ele></ele><time>2015-2-2T22:49:36Z</time></trkpt>
<trkpt lat="45.564898950979114" lon="5.900955973193049"><ele></ele><time>2015-2-2T22:49:39Z</time></trkpt>
<trkpt lat="45.564354965463281" lon="5.900695966556668"><ele></ele><time>2015-2-2T22:49:42Z</time></trkpt>
<trkpt lat="45.563869988545775" lon="5.90041995048523"><ele></ele><time>2015-2-2T22:49:45Z</time></trkpt>
<trkpt lat="45.563412923365831" lon="5.900131948292255"><ele></ele><time>2015-2-2T22:49:48Z</time></trkpt>
<trkpt lat="45.562763996422291" lon="5.899826930835843"><ele></ele><time>2015-2-2T22:49:51Z</time></trkpt>
<trkpt lat="45.562363928183913" lon="5.899423928931356"><ele></ele><time>2015-2-2T22:49:54Z</time></trkpt>
<trkpt lat="45.561972996219993" lon="5.899028973653913"><ele></ele><time>2015-2-2T22:49:57Z</time></trkpt>
<trkpt lat="45.561468992382288" lon="5.89852798730135"><ele></ele><time>2015-2-2T22:50:0Z</time></trkpt>
<trkpt lat="45.561229940503836" lon="5.898287929594517"><ele></ele><time>2015-2-2T22:50:3Z</time></trkpt>
<trkpt lat="45.560843953862786" lon="5.897881994023919"><ele></ele><time>2015-2-2T22:50:6Z</time></trkpt>
<trkpt lat="45.560254957526922" lon="5.897331973537803"><ele></ele><time>2015-2-2T22:50:9Z</time></trkpt>
<trkpt lat="45.5598209425807" lon="5.896941963583231"><ele></ele><time>2015-2-2T22:50:12Z</time></trkpt>
<trkpt lat="45.559408972039819" lon="5.896574920043349"><ele></ele><time>2015-2-2T22:50:15Z</time></trkpt>
<trkpt lat="45.559318950399756" lon="5.895924987271428"><ele></ele><time>2015-2-2T22:50:18Z</time></trkpt>
<trkpt lat="45.558668933808804" lon="5.895673949271441"><ele></ele><time>2015-2-2T22:50:21Z</time></trkpt>
<trkpt lat="45.558214969933033" lon="5.895319981500506"><ele></ele><time>2015-2-2T22:50:24Z</time></trkpt>
<trkpt lat="45.557699985802174" lon="5.894844979047775"><ele></ele><time>2015-2-2T22:50:27Z</time></trkpt>
<trkpt lat="45.557009987533092" lon="5.894142994657159"><ele></ele><time>2015-2-2T22:50:30Z</time></trkpt>
<trkpt lat="45.556630957871675" lon="5.893782991915941"><ele></ele><time>2015-2-2T22:50:33Z</time></trkpt>
<trkpt lat="45.556248994544148" lon="5.893414942547679"><ele></ele><time>2015-2-2T22:50:36Z</time></trkpt>
<trkpt lat="45.555856972932816" lon="5.89302895590663"><ele></ele><time>2015-2-2T22:50:39Z</time></trkpt>
<trkpt lat="45.555455982685089" lon="5.892643975093961"><ele></ele><time>2015-2-2T22:50:42Z</time></trkpt>
<trkpt lat="45.55500796996057" lon="5.892207948490977"><ele></ele><time>2015-2-2T22:50:45Z</time></trkpt>
<trkpt lat="45.5542759783566" lon="5.891725989058614"><ele></ele><time>2015-2-2T22:50:48Z</time></trkpt>
<trkpt lat="45.553855961188674" lon="5.891553992405534"><ele></ele><time>2015-2-2T22:50:51Z</time></trkpt>
<trkpt lat="45.553393950685859" lon="5.891344947740436"><ele></ele><time>2015-2-2T22:50:54Z</time></trkpt>
<trkpt lat="45.55253597907722" lon="5.891012940555811"><ele></ele><time>2015-2-2T22:50:57Z</time></trkpt>
<trkpt lat="45.55176199413836" lon="5.890684956684709"><ele></ele><time>2015-2-2T22:51:0Z</time></trkpt>
<trkpt lat="45.551226977258921" lon="5.890489993616939"><ele></ele><time>2015-2-2T22:51:3Z</time></trkpt>
<trkpt lat="45.550797991454601" lon="5.890220934525132"><ele></ele><time>2015-2-2T22:51:6Z</time></trkpt>
<trkpt lat="45.550262974575162" lon="5.890081962570548"><ele></ele><time>2015-2-2T22:51:9Z</time></trkpt>
<trkpt lat="45.549396956339478" lon="5.889752972871065"><ele></ele><time>2015-2-2T22:51:12Z</time></trkpt>
<trkpt lat="45.54894994944334" lon="5.889538982883096"><ele></ele><time>2015-2-2T22:51:15Z</time></trkpt>
<trkpt lat="45.54811293259263" lon="5.888986950740218"><ele></ele><time>2015-2-2T22:51:18Z</time></trkpt>
<trkpt lat="45.5474669393152" lon="5.888253953307867"><ele></ele><time>2015-2-2T22:51:21Z</time></trkpt>
<trkpt lat="45.547019932419062" lon="5.887370919808745"><ele></ele><time>2015-2-2T22:51:24Z</time></trkpt>
<trkpt lat="45.546614918857813" lon="5.886489981785417"><ele></ele><time>2015-2-2T22:51:27Z</time></trkpt>
<trkpt lat="45.546228932216763" lon="5.885682972148061"><ele></ele><time>2015-2-2T22:51:30Z</time></trkpt>
<trkpt lat="45.545753929764032" lon="5.884622996672988"><ele></ele><time>2015-2-2T22:51:33Z</time></trkpt>
<trkpt lat="45.5453169811517" lon="5.883720936253667"><ele></ele><time>2015-2-2T22:51:36Z</time></trkpt>
<trkpt lat="45.544926971197128" lon="5.882883919402957"><ele></ele><time>2015-2-2T22:51:39Z</time></trkpt>
<trkpt lat="45.544691942632198" lon="5.882131978869438"><ele></ele><time>2015-2-2T22:51:42Z</time></trkpt>
<trkpt lat="45.544432941824198" lon="5.881560919806361"><ele></ele><time>2015-2-2T22:51:45Z</time></trkpt>
<trkpt lat="45.543991969898343" lon="5.880533969029784"><ele></ele><time>2015-2-2T22:51:48Z</time></trkpt>
<trkpt lat="45.543518979102373" lon="5.879502994939685"><ele></ele><time>2015-2-2T22:51:51Z</time></trkpt>
<trkpt lat="45.543157970532775" lon="5.87904098443687"><ele></ele><time>2015-2-2T22:51:54Z</time></trkpt>
<trkpt lat="45.542730996385217" lon="5.878737978637219"><ele></ele><time>2015-2-2T22:51:57Z</time></trkpt>
<trkpt lat="45.542077962309122" lon="5.878021996468306"><ele></ele><time>2015-2-2T22:52:0Z</time></trkpt>
<trkpt lat="45.541705973446369" lon="5.877459989860654"><ele></ele><time>2015-2-2T22:52:3Z</time></trkpt>
<trkpt lat="45.54125796072185" lon="5.876518953591585"><ele></ele><time>2015-2-2T22:52:6Z</time></trkpt>
<trkpt lat="45.540923941880465" lon="5.875776987522841"><ele></ele><time>2015-2-2T22:52:9Z</time></trkpt>
<trkpt lat="45.540711963549256" lon="5.874839974567294"><ele></ele><time>2015-2-2T22:52:12Z</time></trkpt>
<trkpt lat="45.540662929415703" lon="5.874087950214744"><ele></ele><time>2015-2-2T22:52:15Z</time></trkpt>
<trkpt lat="45.540409963577986" lon="5.873403986915946"><ele></ele><time>2015-2-2T22:52:18Z</time></trkpt>
<trkpt lat="45.539965974166989" lon="5.872457921504974"><ele></ele><time>2015-2-2T22:52:21Z</time></trkpt>
<trkpt lat="45.539561966434121" lon="5.871574971824884"><ele></ele><time>2015-2-2T22:52:24Z</time></trkpt>
<trkpt lat="45.539100961759686" lon="5.870782965794206"><ele></ele><time>2015-2-2T22:52:27Z</time></trkpt>
<trkpt lat="45.538555970415473" lon="5.869873948395252"><ele></ele><time>2015-2-2T22:52:30Z</time></trkpt>
<trkpt lat="45.538114998489618" lon="5.869113961234689"><ele></ele><time>2015-2-2T22:52:33Z</time></trkpt>
<trkpt lat="45.537616945803165" lon="5.868274932727218"><ele></ele><time>2015-2-2T22:52:36Z</time></trkpt>
<trkpt lat="45.536996936425567" lon="5.867575965821743"><ele></ele><time>2015-2-2T22:52:39Z</time></trkpt>
<trkpt lat="45.53625195287168" lon="5.8669029828161"><ele></ele><time>2015-2-2T22:52:42Z</time></trkpt>
<trkpt lat="45.535580981522799" lon="5.866288924589753"><ele></ele><time>2015-2-2T22:52:45Z</time></trkpt>
<trkpt lat="45.534999947994947" lon="5.865795984864235"><ele></ele><time>2015-2-2T22:52:48Z</time></trkpt>
<trkpt lat="45.534348925575614" lon="5.865507982671261"><ele></ele><time>2015-2-2T22:52:51Z</time></trkpt>
<trkpt lat="45.533923963084817" lon="5.865063993260264"><ele></ele><time>2015-2-2T22:52:54Z</time></trkpt>
<trkpt lat="45.533566977828741" lon="5.864595947787166"><ele></ele><time>2015-2-2T22:52:57Z</time></trkpt>
<trkpt lat="45.533042941242456" lon="5.86404693312943"><ele></ele><time>2015-2-2T22:53:0Z</time></trkpt>
<trkpt lat="45.532668940722942" lon="5.863240929320455"><ele></ele><time>2015-2-2T22:53:3Z</time></trkpt>
<trkpt lat="45.532258981838822" lon="5.862782942131162"><ele></ele><time>2015-2-2T22:53:6Z</time></trkpt>
<trkpt lat="45.531775932759047" lon="5.862423945218325"><ele></ele><time>2015-2-2T22:53:9Z</time></trkpt>
<trkpt lat="45.53124594502151" lon="5.862252954393625"><ele></ele><time>2015-2-2T22:53:12Z</time></trkpt>
<trkpt lat="45.530777983367443" lon="5.862106941640377"><ele></ele><time>2015-2-2T22:53:15Z</time></trkpt>
<trkpt lat="45.530290994793177" lon="5.861931927502155"><ele></ele><time>2015-2-2T22:53:18Z</time></trkpt>
<trkpt lat="45.529864942654967" lon="5.861713998019695"><ele></ele><time>2015-2-2T22:53:21Z</time></trkpt>
<trkpt lat="45.529302936047316" lon="5.861209994181991"><ele></ele><time>2015-2-2T22:53:24Z</time></trkpt>
<trkpt lat="45.528853917494416" lon="5.860700961202383"><ele></ele><time>2015-2-2T22:53:27Z</time></trkpt>
<trkpt lat="45.528474971652031" lon="5.860270969569683"><ele></ele><time>2015-2-2T22:53:30Z</time></trkpt>
<trkpt lat="45.528115974739194" lon="5.859857993200421"><ele></ele><time>2015-2-2T22:53:33Z</time></trkpt>
<trkpt lat="45.527733927592635" lon="5.85931995883584"><ele></ele><time>2015-2-2T22:53:36Z</time></trkpt>
<trkpt lat="45.527445925399661" lon="5.858764993026853"><ele></ele><time>2015-2-2T22:53:39Z</time></trkpt>
<trkpt lat="45.527177955955267" lon="5.858166944235563"><ele></ele><time>2015-2-2T22:53:42Z</time></trkpt>
<trkpt lat="45.526716951280832" lon="5.857768971472979"><ele></ele><time>2015-2-2T22:53:45Z</time></trkpt>
<trkpt lat="45.526182940229774" lon="5.85738399066031"><ele></ele><time>2015-2-2T22:53:48Z</time></trkpt>
<trkpt lat="45.525778932496905" lon="5.856862971559167"><ele></ele><time>2015-2-2T22:53:51Z</time></trkpt>
<trkpt lat="45.525384983047843" lon="5.856282943859696"><ele></ele><time>2015-2-2T22:53:54Z</time></trkpt>
<trkpt lat="45.525026991963387" lon="5.855744993314147"><ele></ele><time>2015-2-2T22:53:57Z</time></trkpt>
<trkpt lat="45.524536985903978" lon="5.855250963941217"><ele></ele><time>2015-2-2T22:54:0Z</time></trkpt>
<trkpt lat="45.523928962647915" lon="5.855106962844729"><ele></ele><time>2015-2-2T22:54:3Z</time></trkpt>
<trkpt lat="45.5233149882406" lon="5.854996992275119"><ele></ele><time>2015-2-2T22:54:6Z</time></trkpt>
<trkpt lat="45.52284199744463" lon="5.855144932866097"><ele></ele><time>2015-2-2T22:54:9Z</time></trkpt>
<trkpt lat="45.522297928109765" lon="5.855218945071101"><ele></ele><time>2015-2-2T22:54:12Z</time></trkpt>
<trkpt lat="45.521673979237676" lon="5.855056922882795"><ele></ele><time>2015-2-2T22:54:15Z</time></trkpt>
<trkpt lat="45.521156983450055" lon="5.854861959815025"><ele></ele><time>2015-2-2T22:54:18Z</time></trkpt>
<trkpt lat="45.52063194103539" lon="5.854447977617383"><ele></ele><time>2015-2-2T22:54:21Z</time></trkpt>
<trkpt lat="45.520129948854446" lon="5.854132985696197"><ele></ele><time>2015-2-2T22:54:24Z</time></trkpt>
<trkpt lat="45.519277928397059" lon="5.853782957419753"><ele></ele><time>2015-2-2T22:54:27Z</time></trkpt>
<trkpt lat="45.518830921500921" lon="5.853598974645138"><ele></ele><time>2015-2-2T22:54:30Z</time></trkpt>
<trkpt lat="45.518318954855204" lon="5.85338699631393"><ele></ele><time>2015-2-2T22:54:33Z</time></trkpt>
<trkpt lat="45.517327962443233" lon="5.852987933903933"><ele></ele><time>2015-2-2T22:54:36Z</time></trkpt>
<trkpt lat="45.516641987487674" lon="5.852707978338003"><ele></ele><time>2015-2-2T22:54:39Z</time></trkpt>
<trkpt lat="45.515718972310424" lon="5.852328948676586"><ele></ele><time>2015-2-2T22:54:42Z</time></trkpt>
<trkpt lat="45.515136932954192" lon="5.852087968960404"><ele></ele><time>2015-2-2T22:54:45Z</time></trkpt>
<trkpt lat="45.51470099017024" lon="5.85190792568028"><ele></ele><time>2015-2-2T22:54:48Z</time></trkpt>
<trkpt lat="45.514260940253735" lon="5.851727966219187"><ele></ele><time>2015-2-2T22:54:51Z</time></trkpt>
<trkpt lat="45.513715948909521" lon="5.851506935432553"><ele></ele><time>2015-2-2T22:54:54Z</time></trkpt>
<trkpt lat="45.513143967837095" lon="5.851277941837907"><ele></ele><time>2015-2-2T22:54:57Z</time></trkpt>
<trkpt lat="45.512233944609761" lon="5.850902935490012"><ele></ele><time>2015-2-2T22:55:0Z</time></trkpt>
<trkpt lat="45.511569930240512" lon="5.850614933297038"><ele></ele><time>2015-2-2T22:55:3Z</time></trkpt>
<trkpt lat="45.511116972193122" lon="5.850450983271003"><ele></ele><time>2015-2-2T22:55:6Z</time></trkpt>
<trkpt lat="45.510183982551098" lon="5.850190976634622"><ele></ele><time>2015-2-2T22:55:9Z</time></trkpt>
<trkpt lat="45.509704956784844" lon="5.850071953609586"><ele></ele><time>2015-2-2T22:55:12Z</time></trkpt>
<trkpt lat="45.50922391936183" lon="5.849954942241311"><ele></ele><time>2015-2-2T22:55:15Z</time></trkpt>
<trkpt lat="45.508246924728155" lon="5.849595945328474"><ele></ele><time>2015-2-2T22:55:18Z</time></trkpt>
<trkpt lat="45.507760941982269" lon="5.849367957562208"><ele></ele><time>2015-2-2T22:55:21Z</time></trkpt>
<trkpt lat="45.507302954792976" lon="5.849141981452704"><ele></ele><time>2015-2-2T22:55:24Z</time></trkpt>
<trkpt lat="45.506687974557281" lon="5.848887925967574"><ele></ele><time>2015-2-2T22:55:27Z</time></trkpt>
<trkpt lat="45.507114948704839" lon="5.84904994815588"><ele></ele><time>2015-2-2T22:55:30Z</time></trkpt>
<trkpt lat="45.506937922909856" lon="5.849768947809935"><ele></ele><time>2015-2-2T22:55:33Z</time></trkpt>
<trkpt lat="45.506923925131559" lon="5.848955987021327"><ele></ele><time>2015-2-2T22:55:36Z</time></trkpt>
<trkpt lat="45.506209954619408" lon="5.848603947088122"><ele></ele><time>2015-2-2T22:55:39Z</time></trkpt>
<trkpt lat="45.505771916359663" lon="5.848386939615011"><ele></ele><time>2015-2-2T22:55:42Z</time></trkpt>
<trkpt lat="45.505068926140666" lon="5.84804093465209"><ele></ele><time>2015-2-2T22:55:45Z</time></trkpt>
<trkpt lat="45.504481941461563" lon="5.847698953002691"><ele></ele><time>2015-2-2T22:55:48Z</time></trkpt>
<trkpt lat="45.503943990916014" lon="5.847216993570328"><ele></ele><time>2015-2-2T22:55:51Z</time></trkpt>
<trkpt lat="45.503442920744419" lon="5.84660092368722"><ele></ele><time>2015-2-2T22:55:54Z</time></trkpt>
<trkpt lat="45.50294796936214" lon="5.84591394290328"><ele></ele><time>2015-2-2T22:55:57Z</time></trkpt>
<trkpt lat="45.502401972189546" lon="5.845174994319677"><ele></ele><time>2015-2-2T22:56:0Z</time></trkpt>
<trkpt lat="45.501951947808266" lon="5.844583986327052"><ele></ele><time>2015-2-2T22:56:3Z</time></trkpt>
<trkpt lat="45.501443920657039" lon="5.843954924494028"><ele></ele><time>2015-2-2T22:56:6Z</time></trkpt>
<trkpt lat="45.500916950404644" lon="5.843537924811244"><ele></ele><time>2015-2-2T22:56:9Z</time></trkpt>
<trkpt lat="45.500215971842408" lon="5.842910958454013"><ele></ele><time>2015-2-2T22:56:12Z</time></trkpt>
<trkpt lat="45.499615995213389" lon="5.842084921896458"><ele></ele><time>2015-2-2T22:56:15Z</time></trkpt>
<trkpt lat="45.499432934448123" lon="5.841038944199681"><ele></ele><time>2015-2-2T22:56:18Z</time></trkpt>
<trkpt lat="45.499064968898892" lon="5.840359926223755"><ele></ele><time>2015-2-2T22:56:21Z</time></trkpt>
<trkpt lat="45.498505979776382" lon="5.839753998443484"><ele></ele><time>2015-2-2T22:56:24Z</time></trkpt>
<trkpt lat="45.497892927378416" lon="5.83935996517539"><ele></ele><time>2015-2-2T22:56:27Z</time></trkpt>
<trkpt lat="45.497251963242888" lon="5.839110938832164"><ele></ele><time>2015-2-2T22:56:30Z</time></trkpt>
<trkpt lat="45.496716946363449" lon="5.838845986872912"><ele></ele><time>2015-2-2T22:56:33Z</time></trkpt>
<trkpt lat="45.496367923915386" lon="5.838432926684618"><ele></ele><time>2015-2-2T22:56:36Z</time></trkpt>
<trkpt lat="45.496026948094368" lon="5.838001929223537"><ele></ele><time>2015-2-2T22:56:39Z</time></trkpt>
<trkpt lat="45.495476927608252" lon="5.837625917047262"><ele></ele><time>2015-2-2T22:56:42Z</time></trkpt>
<trkpt lat="45.494959931820631" lon="5.837269937619567"><ele></ele><time>2015-2-2T22:56:45Z</time></trkpt>
<trkpt lat="45.494366995990276" lon="5.836885962635279"><ele></ele><time>2015-2-2T22:56:48Z</time></trkpt>
<trkpt lat="45.493477927520871" lon="5.83637491799891"><ele></ele><time>2015-2-2T22:56:51Z</time></trkpt>
<trkpt lat="45.493009965866804" lon="5.836108960211277"><ele></ele><time>2015-2-2T22:56:54Z</time></trkpt>
<trkpt lat="45.492370929569006" lon="5.835747951641679"><ele></ele><time>2015-2-2T22:56:57Z</time></trkpt>
<trkpt lat="45.491584958508611" lon="5.835377974435687"><ele></ele><time>2015-2-2T22:57:0Z</time></trkpt>
<trkpt lat="45.491015994921327" lon="5.835370933637023"><ele></ele><time>2015-2-2T22:57:3Z</time></trkpt>
<trkpt lat="45.490555996075273" lon="5.835370933637023"><ele></ele><time>2015-2-2T22:57:6Z</time></trkpt>
<trkpt lat="45.489841941744089" lon="5.835392978042364"><ele></ele><time>2015-2-2T22:57:9Z</time></trkpt>
<trkpt lat="45.489288987591863" lon="5.835392978042364"><ele></ele><time>2015-2-2T22:57:12Z</time></trkpt>
<trkpt lat="45.488719940185547" lon="5.835400940850377"><ele></ele><time>2015-2-2T22:57:15Z</time></trkpt>
<trkpt lat="45.488233957439661" lon="5.835409993305802"><ele></ele><time>2015-2-2T22:57:18Z</time></trkpt>
<trkpt lat="45.487627945840359" lon="5.835402952507138"><ele></ele><time>2015-2-2T22:57:21Z</time></trkpt>
<trkpt lat="45.486950939521194" lon="5.835261968895793"><ele></ele><time>2015-2-2T22:57:24Z</time></trkpt>
<trkpt lat="45.486263958737254" lon="5.834860978648067"><ele></ele><time>2015-2-2T22:57:27Z</time></trkpt>
<trkpt lat="45.485613942146301" lon="5.834417995065451"><ele></ele><time>2015-2-2T22:57:30Z</time></trkpt>
<trkpt lat="45.484872981905937" lon="5.833914997056127"><ele></ele><time>2015-2-2T22:57:33Z</time></trkpt>
<trkpt lat="45.484287925064564" lon="5.833525992929936"><ele></ele><time>2015-2-2T22:57:36Z</time></trkpt>
<trkpt lat="45.483684930950403" lon="5.833125924691558"><ele></ele><time>2015-2-2T22:57:39Z</time></trkpt>
<trkpt lat="45.483076991513371" lon="5.83272191695869"><ele></ele><time>2015-2-2T22:57:42Z</time></trkpt>
<trkpt lat="45.482513979077339" lon="5.832347916439176"><ele></ele><time>2015-2-2T22:57:45Z</time></trkpt>
<trkpt lat="45.481858933344483" lon="5.831917924806476"><ele></ele><time>2015-2-2T22:57:48Z</time></trkpt>
<trkpt lat="45.481418967247009" lon="5.831633945927024"><ele></ele><time>2015-2-2T22:57:51Z</time></trkpt>
<trkpt lat="45.480991993099451" lon="5.831342926248908"><ele></ele><time>2015-2-2T22:57:54Z</time></trkpt>
<trkpt lat="45.480048945173621" lon="5.830712942406535"><ele></ele><time>2015-2-2T22:57:57Z</time></trkpt>
<trkpt lat="45.479471934959292" lon="5.830301977694035"><ele></ele><time>2015-2-2T22:58:0Z</time></trkpt>
<trkpt lat="45.478990981355309" lon="5.829999977722764"><ele></ele><time>2015-2-2T22:58:3Z</time></trkpt>
<trkpt lat="45.478468956425786" lon="5.829377956688404"><ele></ele><time>2015-2-2T22:58:6Z</time></trkpt>
<trkpt lat="45.478050950914621" lon="5.82850799895823"><ele></ele><time>2015-2-2T22:58:9Z</time></trkpt>
<trkpt lat="45.477666975930333" lon="5.827968958765268"><ele></ele><time>2015-2-2T22:58:12Z</time></trkpt>
<trkpt lat="45.477116955444217" lon="5.827450957149267"><ele></ele><time>2015-2-2T22:58:15Z</time></trkpt>
<trkpt lat="45.47645797021687" lon="5.826996993273497"><ele></ele><time>2015-2-2T22:58:18Z</time></trkpt>
<trkpt lat="45.476002916693687" lon="5.826579993590713"><ele></ele><time>2015-2-2T22:58:21Z</time></trkpt>
<trkpt lat="45.475559933111072" lon="5.82595394924283"><ele></ele><time>2015-2-2T22:58:24Z</time></trkpt>
<trkpt lat="45.475234966725111" lon="5.825494956225157"><ele></ele><time>2015-2-2T22:58:27Z</time></trkpt>
<trkpt lat="45.474887955933809" lon="5.825017942115665"><ele></ele><time>2015-2-2T22:58:30Z</time></trkpt>
<trkpt lat="45.47452594153583" lon="5.824506981298327"><ele></ele><time>2015-2-2T22:58:33Z</time></trkpt>
<trkpt lat="45.474142972379923" lon="5.823966935276985"><ele></ele><time>2015-2-2T22:58:36Z</time></trkpt>
<trkpt lat="45.473651960492134" lon="5.823269980028272"><ele></ele><time>2015-2-2T22:58:39Z</time></trkpt>
<trkpt lat="45.473286928609014" lon="5.822749966755509"><ele></ele><time>2015-2-2T22:58:42Z</time></trkpt>
<trkpt lat="45.472888955846429" lon="5.822190977632999"><ele></ele><time>2015-2-2T22:58:45Z</time></trkpt>
<trkpt lat="45.472391992807388" lon="5.821486981585622"><ele></ele><time>2015-2-2T22:58:48Z</time></trkpt>
<trkpt lat="45.472064930945635" lon="5.821023965254426"><ele></ele><time>2015-2-2T22:58:51Z</time></trkpt>
<trkpt lat="45.471420949324965" lon="5.820079995319247"><ele></ele><time>2015-2-2T22:58:54Z</time></trkpt>
<trkpt lat="45.471045942977071" lon="5.81954799592495"><ele></ele><time>2015-2-2T22:58:57Z</time></trkpt>
<trkpt lat="45.470685940235853" lon="5.8190359454602"><ele></ele><time>2015-2-2T22:59:0Z</time></trkpt>
<trkpt lat="45.47031294554472" lon="5.818507969379425"><ele></ele><time>2015-2-2T22:59:3Z</time></trkpt>
<trkpt lat="45.470331972464919" lon="5.818533953279257"><ele></ele><time>2015-2-2T22:59:6Z</time></trkpt>
<trkpt lat="45.469933999702334" lon="5.817964989691973"><ele></ele><time>2015-2-2T22:59:9Z</time></trkpt>
<trkpt lat="45.469255987554789" lon="5.817021941766143"><ele></ele><time>2015-2-2T22:59:12Z</time></trkpt>
<trkpt lat="45.468825995922089" lon="5.816484997048974"><ele></ele><time>2015-2-2T22:59:15Z</time></trkpt>
<trkpt lat="45.468408996239305" lon="5.816086940467358"><ele></ele><time>2015-2-2T22:59:18Z</time></trkpt>
<trkpt lat="45.467958971858025" lon="5.815740935504437"><ele></ele><time>2015-2-2T22:59:21Z</time></trkpt>
<trkpt lat="45.467515988275409" lon="5.815466931089759"><ele></ele><time>2015-2-2T22:59:24Z</time></trkpt>
<trkpt lat="45.467040985822678" lon="5.815247995778918"><ele></ele><time>2015-2-2T22:59:27Z</time></trkpt>
<trkpt lat="45.466516949236393" lon="5.814966950565577"><ele></ele><time>2015-2-2T22:59:30Z</time></trkpt>
<trkpt lat="45.465812953189015" lon="5.814614994451404"><ele></ele><time>2015-2-2T22:59:33Z</time></trkpt>
<trkpt lat="45.465106945484877" lon="5.814261948689818"><ele></ele><time>2015-2-2T22:59:36Z</time></trkpt>
<trkpt lat="45.464286943897605" lon="5.813781917095184"><ele></ele><time>2015-2-2T22:59:39Z</time></trkpt>
<trkpt lat="45.463777994737029" lon="5.813373969867826"><ele></ele><time>2015-2-2T22:59:42Z</time></trkpt>
<trkpt lat="45.46294491738081" lon="5.812712972983718"><ele></ele><time>2015-2-2T22:59:45Z</time></trkpt>
<trkpt lat="45.461897933855653" lon="5.811918955296278"><ele></ele><time>2015-2-2T22:59:48Z</time></trkpt>
<trkpt lat="45.461122943088412" lon="5.811359966173768"><ele></ele><time>2015-2-2T22:59:51Z</time></trkpt>
<trkpt lat="45.460381982848048" lon="5.810861997306347"><ele></ele><time>2015-2-2T22:59:54Z</time></trkpt>
<trkpt lat="45.459640938788652" lon="5.809936970472336"><ele></ele><time>2015-2-2T22:59:57Z</time></trkpt>
<trkpt lat="45.459144981577992" lon="5.809047985821962"><ele></ele><time>2015-2-2T23:0:0Z</time></trkpt>
<trkpt lat="45.458704931661487" lon="5.807984992861748"><ele></ele><time>2015-2-2T23:0:3Z</time></trkpt>
<trkpt lat="45.458852956071496" lon="5.807009926065803"><ele></ele><time>2015-2-2T23:0:6Z</time></trkpt>
<trkpt lat="45.458811968564987" lon="5.806048940867186"><ele></ele><time>2015-2-2T23:0:9Z</time></trkpt>
<trkpt lat="45.458321962505579" lon="5.805035987868905"><ele></ele><time>2015-2-2T23:0:12Z</time></trkpt>
<trkpt lat="45.457856934517622" lon="5.804154966026545"><ele></ele><time>2015-2-2T23:0:15Z</time></trkpt>
<trkpt lat="45.457471953704953" lon="5.803428925573826"><ele></ele><time>2015-2-2T23:0:18Z</time></trkpt>
<trkpt lat="45.456882957369089" lon="5.802498953416944"><ele></ele><time>2015-2-2T23:0:21Z</time></trkpt>
<trkpt lat="45.456405943259597" lon="5.802111960947514"><ele></ele><time>2015-2-2T23:0:24Z</time></trkpt>
<trkpt lat="45.455566998571157" lon="5.8021489251405"><ele></ele><time>2015-2-2T23:0:27Z</time></trkpt>
<trkpt lat="45.454686982557178" lon="5.80223391763866"><ele></ele><time>2015-2-2T23:0:30Z</time></trkpt>
<trkpt lat="45.453891959041357" lon="5.801940970122814"><ele></ele><time>2015-2-2T23:0:33Z</time></trkpt>
<trkpt lat="45.453334981575608" lon="5.801250971853733"><ele></ele><time>2015-2-2T23:0:36Z</time></trkpt>
<trkpt lat="45.452981935814023" lon="5.800129976123571"><ele></ele><time>2015-2-2T23:0:39Z</time></trkpt>
<trkpt lat="45.453047985211015" lon="5.798908984288573"><ele></ele><time>2015-2-2T23:0:42Z</time></trkpt>
<trkpt lat="45.45351292937994" lon="5.797821935266256"><ele></ele><time>2015-2-2T23:0:45Z</time></trkpt>
<trkpt lat="45.454019950702786" lon="5.797073934227228"><ele></ele><time>2015-2-2T23:0:48Z</time></trkpt>
<trkpt lat="45.454337960109115" lon="5.796022927388549"><ele></ele><time>2015-2-2T23:0:51Z</time></trkpt>
<trkpt lat="45.454272916540504" lon="5.795050961896777"><ele></ele><time>2015-2-2T23:0:54Z</time></trkpt>
<trkpt lat="45.453959936276078" lon="5.794295920059085"><ele></ele><time>2015-2-2T23:0:57Z</time></trkpt>
<trkpt lat="45.453730942681432" lon="5.793723938986659"><ele></ele><time>2015-2-2T23:1:0Z</time></trkpt>
<trkpt lat="45.453599933534861" lon="5.792751973494887"><ele></ele><time>2015-2-2T23:1:3Z</time></trkpt>
<trkpt lat="45.453550983220339" lon="5.791913950815797"><ele></ele><time>2015-2-2T23:1:6Z</time></trkpt>
<trkpt lat="45.453643938526511" lon="5.790019975975156"><ele></ele><time>2015-2-2T23:1:9Z</time></trkpt>
<trkpt lat="45.454447930678725" lon="5.787884937599301"><ele></ele><time>2015-2-2T23:1:12Z</time></trkpt>
<trkpt lat="45.45518796890974" lon="5.787516972050071"><ele></ele><time>2015-2-2T23:1:15Z</time></trkpt>
<trkpt lat="45.456118946895003" lon="5.787069965153933"><ele></ele><time>2015-2-2T23:1:18Z</time></trkpt>
<trkpt lat="45.456742979586124" lon="5.786863937973976"><ele></ele><time>2015-2-2T23:1:21Z</time></trkpt>
<trkpt lat="45.457043973729014" lon="5.786019964143634"><ele></ele><time>2015-2-2T23:1:24Z</time></trkpt>
<trkpt lat="45.456517925485969" lon="5.78457098454237"><ele></ele><time>2015-2-2T23:1:27Z</time></trkpt>
<trkpt lat="45.456235958263278" lon="5.783563982695341"><ele></ele><time>2015-2-2T23:1:30Z</time></trkpt>
<trkpt lat="45.455841924995184" lon="5.781815936788917"><ele></ele><time>2015-2-2T23:1:33Z</time></trkpt>
<trkpt lat="45.455463984981179" lon="5.780228991061449"><ele></ele><time>2015-2-2T23:1:36Z</time></trkpt>
<trkpt lat="45.455348985269666" lon="5.779276974499226"><ele></ele><time>2015-2-2T23:1:39Z</time></trkpt>
<trkpt lat="45.455317972227931" lon="5.778177939355373"><ele></ele><time>2015-2-2T23:1:42Z</time></trkpt>
<trkpt lat="45.455254940316081" lon="5.777505962178111"><ele></ele><time>2015-2-2T23:1:45Z</time></trkpt>
<trkpt lat="45.454967943951488" lon="5.776267955079675"><ele></ele><time>2015-2-2T23:1:48Z</time></trkpt>
<trkpt lat="45.455349991098046" lon="5.774636920541525"><ele></ele><time>2015-2-2T23:1:51Z</time></trkpt>
<trkpt lat="45.455357953906059" lon="5.773697979748249"><ele></ele><time>2015-2-2T23:1:54Z</time></trkpt>
<trkpt lat="45.454863924533129" lon="5.77226391993463"><ele></ele><time>2015-2-2T23:1:57Z</time></trkpt>
<trkpt lat="45.454488918185234" lon="5.771303940564394"><ele></ele><time>2015-2-2T23:2:0Z</time></trkpt>
<trkpt lat="45.454165963456035" lon="5.77077797614038"><ele></ele><time>2015-2-2T23:2:3Z</time></trkpt>
<trkpt lat="45.453363982960582" lon="5.769909946247935"><ele></ele><time>2015-2-2T23:2:6Z</time></trkpt>
<trkpt lat="45.452497964724898" lon="5.769031941890717"><ele></ele><time>2015-2-2T23:2:9Z</time></trkpt>
<trkpt lat="45.451593976467848" lon="5.768074980005622"><ele></ele><time>2015-2-2T23:2:12Z</time></trkpt>
<trkpt lat="45.451025934889913" lon="5.767485983669758"><ele></ele><time>2015-2-2T23:2:15Z</time></trkpt>
<trkpt lat="45.450445991009474" lon="5.766904950141907"><ele></ele><time>2015-2-2T23:2:18Z</time></trkpt>
<trkpt lat="45.449878955259919" lon="5.766443945467472"><ele></ele><time>2015-2-2T23:2:21Z</time></trkpt>
<trkpt lat="45.449288953095675" lon="5.765993921086192"><ele></ele><time>2015-2-2T23:2:24Z</time></trkpt>
<trkpt lat="45.448833983391523" lon="5.765636935830116"><ele></ele><time>2015-2-2T23:2:27Z</time></trkpt>
<trkpt lat="45.448160916566849" lon="5.765153970569372"><ele></ele><time>2015-2-2T23:2:30Z</time></trkpt>
<trkpt lat="45.447539985179901" lon="5.764692965894938"><ele></ele><time>2015-2-2T23:2:33Z</time></trkpt>
<trkpt lat="45.446896925568581" lon="5.764228943735361"><ele></ele><time>2015-2-2T23:2:36Z</time></trkpt>
<trkpt lat="45.446337936446071" lon="5.763923926278949"><ele></ele><time>2015-2-2T23:2:39Z</time></trkpt>
<trkpt lat="45.445804931223392" lon="5.763787971809506"><ele></ele><time>2015-2-2T23:2:42Z</time></trkpt>
<trkpt lat="45.444645965471864" lon="5.763852931559086"><ele></ele><time>2015-2-2T23:2:45Z</time></trkpt>
<trkpt lat="45.44390894472599" lon="5.763923926278949"><ele></ele><time>2015-2-2T23:2:48Z</time></trkpt>
<trkpt lat="45.443109981715679" lon="5.764085948467255"><ele></ele><time>2015-2-2T23:2:51Z</time></trkpt>
<trkpt lat="45.442271959036589" lon="5.764397922903299"><ele></ele><time>2015-2-2T23:2:54Z</time></trkpt>
<trkpt lat="45.441425973549485" lon="5.764748957008123"><ele></ele><time>2015-2-2T23:2:57Z</time></trkpt>
<trkpt lat="45.440628938376904" lon="5.765027990564704"><ele></ele><time>2015-2-2T23:3:0Z</time></trkpt>
<trkpt lat="45.439866939559579" lon="5.765230916440487"><ele></ele><time>2015-2-2T23:3:3Z</time></trkpt>
<trkpt lat="45.439158920198679" lon="5.76534197665751"><ele></ele><time>2015-2-2T23:3:6Z</time></trkpt>
<trkpt lat="45.438414942473173" lon="5.765410959720612"><ele></ele><time>2015-2-2T23:3:9Z</time></trkpt>
<trkpt lat="45.437880931422114" lon="5.76545194722712"><ele></ele><time>2015-2-2T23:3:12Z</time></trkpt>
<trkpt lat="45.437344992533326" lon="5.765490923076868"><ele></ele><time>2015-2-2T23:3:15Z</time></trkpt>
<trkpt lat="45.436463970690966" lon="5.765555966645479"><ele></ele><time>2015-2-2T23:3:18Z</time></trkpt>
<trkpt lat="45.43598192743957" lon="5.765590919181705"><ele></ele><time>2015-2-2T23:3:21Z</time></trkpt>
<trkpt lat="45.435410952195525" lon="5.765588991343975"><ele></ele><time>2015-2-2T23:3:24Z</time></trkpt>
<trkpt lat="45.434794966131449" lon="5.765554960817099"><ele></ele><time>2015-2-2T23:3:27Z</time></trkpt>
<trkpt lat="45.434168921783566" lon="5.765458988025785"><ele></ele><time>2015-2-2T23:3:30Z</time></trkpt>
<trkpt lat="45.433698948472738" lon="5.765348933637142"><ele></ele><time>2015-2-2T23:3:33Z</time></trkpt>
<trkpt lat="45.433101989328861" lon="5.765199987217784"><ele></ele><time>2015-2-2T23:3:36Z</time></trkpt>
<trkpt lat="45.432427916675806" lon="5.764933945611119"><ele></ele><time>2015-2-2T23:3:39Z</time></trkpt>
<trkpt lat="45.431977976113558" lon="5.764737976714969"><ele></ele><time>2015-2-2T23:3:42Z</time></trkpt>
<trkpt lat="45.431396942585707" lon="5.764428935945034"><ele></ele><time>2015-2-2T23:3:45Z</time></trkpt>
<trkpt lat="45.430695964023471" lon="5.763984946534038"><ele></ele><time>2015-2-2T23:3:48Z</time></trkpt>
<trkpt lat="45.430003954097629" lon="5.763502987101674"><ele></ele><time>2015-2-2T23:3:51Z</time></trkpt>
<trkpt lat="45.429506991058588" lon="5.763146923854947"><ele></ele><time>2015-2-2T23:3:54Z</time></trkpt>
<trkpt lat="45.428799977526069" lon="5.762613918632269"><ele></ele><time>2015-2-2T23:3:57Z</time></trkpt>
<trkpt lat="45.428074942901731" lon="5.762108992785215"><ele></ele><time>2015-2-2T23:4:0Z</time></trkpt>
<trkpt lat="45.427539926022291" lon="5.761558972299099"><ele></ele><time>2015-2-2T23:4:3Z</time></trkpt>
<trkpt lat="45.427043968811631" lon="5.76095899567008"><ele></ele><time>2015-2-2T23:4:6Z</time></trkpt>
<trkpt lat="45.426645996049047" lon="5.760388942435384"><ele></ele><time>2015-2-2T23:4:9Z</time></trkpt>
<trkpt lat="45.426245927810669" lon="5.759710930287838"><ele></ele><time>2015-2-2T23:4:12Z</time></trkpt>
<trkpt lat="45.425933953374624" lon="5.759033923968673"><ele></ele><time>2015-2-2T23:4:15Z</time></trkpt>
<trkpt lat="45.425571938976645" lon="5.75827494263649"><ele></ele><time>2015-2-2T23:4:18Z</time></trkpt>
<trkpt lat="45.425160974264145" lon="5.757404984906316"><ele></ele><time>2015-2-2T23:4:21Z</time></trkpt>
<trkpt lat="45.424519926309586" lon="5.756526980549097"><ele></ele><time>2015-2-2T23:4:24Z</time></trkpt>
<trkpt lat="45.424080966040492" lon="5.75561092235148"><ele></ele><time>2015-2-2T23:4:27Z</time></trkpt>
<trkpt lat="45.423457939177752" lon="5.754872979596257"><ele></ele><time>2015-2-2T23:4:30Z</time></trkpt>
<trkpt lat="45.42280993424356" lon="5.754225980490446"><ele></ele><time>2015-2-2T23:4:33Z</time></trkpt>
<trkpt lat="45.42227097786963" lon="5.753812920302153"><ele></ele><time>2015-2-2T23:4:36Z</time></trkpt>
<trkpt lat="45.421475954353809" lon="5.75331293977797"><ele></ele><time>2015-2-2T23:4:39Z</time></trkpt>
<trkpt lat="45.420602979138494" lon="5.752879930660129"><ele></ele><time>2015-2-2T23:4:42Z</time></trkpt>
<trkpt lat="45.419804938137531" lon="5.752504924312234"><ele></ele><time>2015-2-2T23:4:45Z</time></trkpt>
<trkpt lat="45.418807994574308" lon="5.752035956829786"><ele></ele><time>2015-2-2T23:4:48Z</time></trkpt>
<trkpt lat="45.418258979916573" lon="5.751778967678547"><ele></ele><time>2015-2-2T23:4:51Z</time></trkpt>
<trkpt lat="45.417606951668859" lon="5.751472944393754"><ele></ele><time>2015-2-2T23:4:54Z</time></trkpt>
<trkpt lat="45.417175954207778" lon="5.751269934698939"><ele></ele><time>2015-2-2T23:4:57Z</time></trkpt>
<trkpt lat="45.416484950110316" lon="5.750942956656218"><ele></ele><time>2015-2-2T23:5:0Z</time></trkpt>
<trkpt lat="45.415919926017523" lon="5.750674987211824"><ele></ele><time>2015-2-2T23:5:3Z</time></trkpt>
<trkpt lat="45.415247948840261" lon="5.750369969755411"><ele></ele><time>2015-2-2T23:5:6Z</time></trkpt>
<trkpt lat="45.414755931124091" lon="5.750140976160765"><ele></ele><time>2015-2-2T23:5:9Z</time></trkpt>
<trkpt lat="45.414176993072033" lon="5.749969985336065"><ele></ele><time>2015-2-2T23:5:12Z</time></trkpt>
<trkpt lat="45.413639964535832" lon="5.749647952616215"><ele></ele><time>2015-2-2T23:5:15Z</time></trkpt>
<trkpt lat="45.412991959601641" lon="5.749301947653294"><ele></ele><time>2015-2-2T23:5:18Z</time></trkpt>
<trkpt lat="45.41232492774725" lon="5.749027943238616"><ele></ele><time>2015-2-2T23:5:21Z</time></trkpt>
<trkpt lat="45.411564940586686" lon="5.748667940497398"><ele></ele><time>2015-2-2T23:5:24Z</time></trkpt>
<trkpt lat="45.411072922870517" lon="5.74843592941761"><ele></ele><time>2015-2-2T23:5:27Z</time></trkpt>
<trkpt lat="45.410158960148692" lon="5.748002920299768"><ele></ele><time>2015-2-2T23:5:30Z</time></trkpt>
<trkpt lat="45.409477930516005" lon="5.747683988884091"><ele></ele><time>2015-2-2T23:5:33Z</time></trkpt>
<trkpt lat="45.40875599719584" lon="5.747352987527847"><ele></ele><time>2015-2-2T23:5:36Z</time></trkpt>
<trkpt lat="45.40819994173944" lon="5.747104967013001"><ele></ele><time>2015-2-2T23:5:39Z</time></trkpt>
<trkpt lat="45.407696943730116" lon="5.746877985075116"><ele></ele><time>2015-2-2T23:5:42Z</time></trkpt>
<trkpt lat="45.407143989577889" lon="5.746619990095496"><ele></ele><time>2015-2-2T23:5:45Z</time></trkpt>
<trkpt lat="45.406524986028671" lon="5.746330982074142"><ele></ele><time>2015-2-2T23:5:48Z</time></trkpt>
<trkpt lat="45.405908999964595" lon="5.746042979881167"><ele></ele><time>2015-2-2T23:5:51Z</time></trkpt>
<trkpt lat="45.40547096170485" lon="5.745837958529592"><ele></ele><time>2015-2-2T23:5:54Z</time></trkpt>
<trkpt lat="45.404789932072163" lon="5.745521960780025"><ele></ele><time>2015-2-2T23:5:57Z</time></trkpt>
<trkpt lat="45.404218956828117" lon="5.745256925001741"><ele></ele><time>2015-2-2T23:6:0Z</time></trkpt>
<trkpt lat="45.403599953278899" lon="5.744968922808766"><ele></ele><time>2015-2-2T23:6:3Z</time></trkpt>
<trkpt lat="45.402873996645212" lon="5.744628952816129"><ele></ele><time>2015-2-2T23:6:6Z</time></trkpt>
<trkpt lat="45.402371920645237" lon="5.744394930079579"><ele></ele><time>2015-2-2T23:6:9Z</time></trkpt>
<trkpt lat="45.401772949844599" lon="5.744116986170411"><ele></ele><time>2015-2-2T23:6:12Z</time></trkpt>
<trkpt lat="45.401178924366832" lon="5.743840970098972"><ele></ele><time>2015-2-2T23:6:15Z</time></trkpt>
<trkpt lat="45.400533936917782" lon="5.743540981784463"><ele></ele><time>2015-2-2T23:6:18Z</time></trkpt>
<trkpt lat="45.400044936686754" lon="5.743313999846578"><ele></ele><time>2015-2-2T23:6:21Z</time></trkpt>
<trkpt lat="45.399565994739532" lon="5.743091963231564"><ele></ele><time>2015-2-2T23:6:24Z</time></trkpt>
<trkpt lat="45.398989990353584" lon="5.74297696352005"><ele></ele><time>2015-2-2T23:6:27Z</time></trkpt>
<trkpt lat="45.398554969578981" lon="5.742672951892018"><ele></ele><time>2015-2-2T23:6:30Z</time></trkpt>
<trkpt lat="45.39777796715498" lon="5.742257963865995"><ele></ele><time>2015-2-2T23:6:33Z</time></trkpt>
<trkpt lat="45.397118981927633" lon="5.741951940581203"><ele></ele><time>2015-2-2T23:6:36Z</time></trkpt>
<trkpt lat="45.396644985303283" lon="5.74173292145133"><ele></ele><time>2015-2-2T23:6:39Z</time></trkpt>
<trkpt lat="45.396140981465578" lon="5.741500994190574"><ele></ele><time>2015-2-2T23:6:42Z</time></trkpt>
<trkpt lat="45.395327936857939" lon="5.741144930943847"><ele></ele><time>2015-2-2T23:6:45Z</time></trkpt>
<trkpt lat="45.394860981032252" lon="5.740962959825993"><ele></ele><time>2015-2-2T23:6:48Z</time></trkpt>
<trkpt lat="45.394103927537799" lon="5.740650985389948"><ele></ele><time>2015-2-2T23:6:51Z</time></trkpt>
<trkpt lat="45.393474949523807" lon="5.740423919633031"><ele></ele><time>2015-2-2T23:6:54Z</time></trkpt>
<trkpt lat="45.392934987321496" lon="5.740231974050403"><ele></ele><time>2015-2-2T23:6:57Z</time></trkpt>
<trkpt lat="45.392422936856747" lon="5.740050924941897"><ele></ele><time>2015-2-2T23:7:0Z</time></trkpt>
<trkpt lat="45.391569994390011" lon="5.739717995747924"><ele></ele><time>2015-2-2T23:7:3Z</time></trkpt>
<trkpt lat="45.390870943665504" lon="5.739225978031755"><ele></ele><time>2015-2-2T23:7:6Z</time></trkpt>
<trkpt lat="45.390375992283225" lon="5.738811995834112"><ele></ele><time>2015-2-2T23:7:9Z</time></trkpt>
<trkpt lat="45.389955975115299" lon="5.73846498504281"><ele></ele><time>2015-2-2T23:7:12Z</time></trkpt>
<trkpt lat="45.389534952118993" lon="5.738138929009438"><ele></ele><time>2015-2-2T23:7:15Z</time></trkpt>
<trkpt lat="45.388888958841562" lon="5.737617993727326"><ele></ele><time>2015-2-2T23:7:18Z</time></trkpt>
<trkpt lat="45.388461984694004" lon="5.737376930192113"><ele></ele><time>2015-2-2T23:7:21Z</time></trkpt>
<trkpt lat="45.387730998918414" lon="5.737223960459232"><ele></ele><time>2015-2-2T23:7:24Z</time></trkpt>
<trkpt lat="45.38710193708539" lon="5.736655918881297"><ele></ele><time>2015-2-2T23:7:27Z</time></trkpt>
<trkpt lat="45.387032954022288" lon="5.735950917005539"><ele></ele><time>2015-2-2T23:7:30Z</time></trkpt>
<trkpt lat="45.387032954022288" lon="5.735123958438635"><ele></ele><time>2015-2-2T23:7:33Z</time></trkpt>
<trkpt lat="45.387032954022288" lon="5.734472936019301"><ele></ele><time>2015-2-2T23:7:36Z</time></trkpt>
<trkpt lat="45.387246944010258" lon="5.733779920265079"><ele></ele><time>2015-2-2T23:7:39Z</time></trkpt>
<trkpt lat="45.387424975633621" lon="5.732850953936577"><ele></ele><time>2015-2-2T23:7:42Z</time></trkpt>
<trkpt lat="45.387606946751475" lon="5.731609929352999"><ele></ele><time>2015-2-2T23:7:45Z</time></trkpt>
<trkpt lat="45.387966949492693" lon="5.731401974335313"><ele></ele><time>2015-2-2T23:7:48Z</time></trkpt>
<trkpt lat="45.388203989714384" lon="5.731822997331619"><ele></ele><time>2015-2-2T23:7:51Z</time></trkpt>
<trkpt lat="45.388619983568788" lon="5.731643959879875"><ele></ele><time>2015-2-2T23:7:54Z</time></trkpt>
<trkpt lat="45.388204995542765" lon="5.731418989598751"><ele></ele><time>2015-2-2T23:7:57Z</time></trkpt>
<trkpt lat="45.387735944241285" lon="5.731331985443831"><ele></ele><time>2015-2-2T23:8:0Z</time></trkpt>
<trkpt lat="45.387773998081684" lon="5.730213923379779"><ele></ele><time>2015-2-2T23:8:3Z</time></trkpt>
<trkpt lat="45.387947922572494" lon="5.729098962619901"><ele></ele><time>2015-2-2T23:8:6Z</time></trkpt>
<trkpt lat="45.388055965304375" lon="5.728398989886046"><ele></ele><time>2015-2-2T23:8:9Z</time></trkpt>
<trkpt lat="45.388162918388844" lon="5.727668926119804"><ele></ele><time>2015-2-2T23:8:12Z</time></trkpt>
<trkpt lat="45.388271966949105" lon="5.726853953674436"><ele></ele><time>2015-2-2T23:8:15Z</time></trkpt>
<trkpt lat="45.388390989974141" lon="5.726028922945261"><ele></ele><time>2015-2-2T23:8:18Z</time></trkpt>
<trkpt lat="45.388500960543752" lon="5.725268935784698"><ele></ele><time>2015-2-2T23:8:21Z</time></trkpt>
<trkpt lat="45.388567931950092" lon="5.724559994414449"><ele></ele><time>2015-2-2T23:8:24Z</time></trkpt>
<trkpt lat="45.388577990233898" lon="5.723131969571114"><ele></ele><time>2015-2-2T23:8:27Z</time></trkpt>
<trkpt lat="45.388498948886991" lon="5.72232898324728"><ele></ele><time>2015-2-2T23:8:30Z</time></trkpt>
<trkpt lat="45.388403981924057" lon="5.721530942246318"><ele></ele><time>2015-2-2T23:8:33Z</time></trkpt>
<trkpt lat="45.388252940028906" lon="5.72078294120729"><ele></ele><time>2015-2-2T23:8:36Z</time></trkpt>
<trkpt lat="45.388076920062304" lon="5.720060924068093"><ele></ele><time>2015-2-2T23:8:39Z</time></trkpt>
<trkpt lat="45.387837952002883" lon="5.719324992969632"><ele></ele><time>2015-2-2T23:8:42Z</time></trkpt>
<trkpt lat="45.387512985616922" lon="5.71856995113194"><ele></ele><time>2015-2-2T23:8:45Z</time></trkpt>
<trkpt lat="45.387229928746819" lon="5.717976931482554"><ele></ele><time>2015-2-2T23:8:48Z</time></trkpt>
<trkpt lat="45.386894987896085" lon="5.71730294264853"><ele></ele><time>2015-2-2T23:8:51Z</time></trkpt>
<trkpt lat="45.386552922427654" lon="5.716629959642887"><ele></ele><time>2015-2-2T23:8:54Z</time></trkpt>
<trkpt lat="45.38613491691649" lon="5.715793948620558"><ele></ele><time>2015-2-2T23:8:57Z</time></trkpt>
<trkpt lat="45.385782960802317" lon="5.715090958401561"><ele></ele><time>2015-2-2T23:9:0Z</time></trkpt>
<trkpt lat="45.385407954454422" lon="5.714340945705771"><ele></ele><time>2015-2-2T23:9:3Z</time></trkpt>
<trkpt lat="45.385078964754939" lon="5.713673997670412"><ele></ele><time>2015-2-2T23:9:6Z</time></trkpt>
<trkpt lat="45.38475994952023" lon="5.713014928624034"><ele></ele><time>2015-2-2T23:9:9Z</time></trkpt>
<trkpt lat="45.384406987577677" lon="5.712285954505205"><ele></ele><time>2015-2-2T23:9:12Z</time></trkpt>
<trkpt lat="45.384022928774357" lon="5.711494954302907"><ele></ele><time>2015-2-2T23:9:15Z</time></trkpt>
<trkpt lat="45.38366393186152" lon="5.710778972133994"><ele></ele><time>2015-2-2T23:9:18Z</time></trkpt>
<trkpt lat="45.383182978257537" lon="5.709819998592138"><ele></ele><time>2015-2-2T23:9:21Z</time></trkpt>
<trkpt lat="45.382882989943027" lon="5.709213986992836"><ele></ele><time>2015-2-2T23:9:24Z</time></trkpt>
<trkpt lat="45.382485939189792" lon="5.708410916849971"><ele></ele><time>2015-2-2T23:9:27Z</time></trkpt>
<trkpt lat="45.381863918155432" lon="5.707535929977894"><ele></ele><time>2015-2-2T23:9:30Z</time></trkpt>
<trkpt lat="45.381398973986506" lon="5.707044918090105"><ele></ele><time>2015-2-2T23:9:33Z</time></trkpt>
<trkpt lat="45.381089933216572" lon="5.706562958657742"><ele></ele><time>2015-2-2T23:9:36Z</time></trkpt>
<trkpt lat="45.380810983479023" lon="5.705924928188324"><ele></ele><time>2015-2-2T23:9:39Z</time></trkpt>
<trkpt lat="45.380479982122779" lon="5.70522696711123"><ele></ele><time>2015-2-2T23:9:42Z</time></trkpt>
<trkpt lat="45.380164990201592" lon="5.704540992155671"><ele></ele><time>2015-2-2T23:9:45Z</time></trkpt>
<trkpt lat="45.379844969138503" lon="5.703838923946023"><ele></ele><time>2015-2-2T23:9:48Z</time></trkpt>
<trkpt lat="45.379636930301785" lon="5.703246993944049"><ele></ele><time>2015-2-2T23:9:51Z</time></trkpt>
<trkpt lat="45.379349933937192" lon="5.702088950201869"><ele></ele><time>2015-2-2T23:9:54Z</time></trkpt>
<trkpt lat="45.378908962011337" lon="5.701114973053336"><ele></ele><time>2015-2-2T23:9:57Z</time></trkpt>
<trkpt lat="45.378395989537239" lon="5.700230933725834"><ele></ele><time>2015-2-2T23:10:0Z</time></trkpt>
<trkpt lat="45.377886956557631" lon="5.699349995702505"><ele></ele><time>2015-2-2T23:10:3Z</time></trkpt>
<trkpt lat="45.377426957711577" lon="5.698556983843446"><ele></ele><time>2015-2-2T23:10:6Z</time></trkpt>
<trkpt lat="45.376911973580718" lon="5.698034958913922"><ele></ele><time>2015-2-2T23:10:9Z</time></trkpt>
<trkpt lat="45.376382991671562" lon="5.697716949507594"><ele></ele><time>2015-2-2T23:10:12Z</time></trkpt>
<trkpt lat="45.375848980620503" lon="5.697459960356355"><ele></ele><time>2015-2-2T23:10:15Z</time></trkpt>
<trkpt lat="45.3751549590379" lon="5.697102975100279"><ele></ele><time>2015-2-2T23:10:18Z</time></trkpt>
<trkpt lat="45.374664952978492" lon="5.696938941255212"><ele></ele><time>2015-2-2T23:10:21Z</time></trkpt>
<trkpt lat="45.373895997181535" lon="5.696598971262574"><ele></ele><time>2015-2-2T23:10:24Z</time></trkpt>
<trkpt lat="45.373533982783556" lon="5.696128997951746"><ele></ele><time>2015-2-2T23:10:27Z</time></trkpt>
<trkpt lat="45.373146990314126" lon="5.695483926683664"><ele></ele><time>2015-2-2T23:10:30Z</time></trkpt>
<trkpt lat="45.372752957046032" lon="5.694796945899725"><ele></ele><time>2015-2-2T23:10:33Z</time></trkpt>
<trkpt lat="45.37231994792819" lon="5.694016925990582"><ele></ele><time>2015-2-2T23:10:36Z</time></trkpt>
<trkpt lat="45.372019959613681" lon="5.693252999335527"><ele></ele><time>2015-2-2T23:10:39Z</time></trkpt>
<trkpt lat="45.371804963797331" lon="5.692518996074796"><ele></ele><time>2015-2-2T23:10:42Z</time></trkpt>
<trkpt lat="45.371731957420707" lon="5.691208988428116"><ele></ele><time>2015-2-2T23:10:45Z</time></trkpt>
<trkpt lat="45.371679989621043" lon="5.690569952130318"><ele></ele><time>2015-2-2T23:10:48Z</time></trkpt>
<trkpt lat="45.371355945244431" lon="5.689519951120019"><ele></ele><time>2015-2-2T23:10:51Z</time></trkpt>
<trkpt lat="45.370898963883519" lon="5.688639935106039"><ele></ele><time>2015-2-2T23:10:54Z</time></trkpt>
<trkpt lat="45.370251964777708" lon="5.687805935740471"><ele></ele><time>2015-2-2T23:10:57Z</time></trkpt>
<trkpt lat="45.369463982060552" lon="5.687059946358204"><ele></ele><time>2015-2-2T23:11:0Z</time></trkpt>
<trkpt lat="45.368895940482616" lon="5.686610927805305"><ele></ele><time>2015-2-2T23:11:3Z</time></trkpt>
<trkpt lat="45.36810795776546" lon="5.686011957004666"><ele></ele><time>2015-2-2T23:11:6Z</time></trkpt>
<trkpt lat="45.367400944232941" lon="5.685621947050095"><ele></ele><time>2015-2-2T23:11:9Z</time></trkpt>
<trkpt lat="45.366634922102094" lon="5.685017947107554"><ele></ele><time>2015-2-2T23:11:12Z</time></trkpt>
<trkpt lat="45.366272991523147" lon="5.684619974344969"><ele></ele><time>2015-2-2T23:11:15Z</time></trkpt>
<trkpt lat="45.365842999890447" lon="5.684157963842154"><ele></ele><time>2015-2-2T23:11:18Z</time></trkpt>
<trkpt lat="45.365239921957254" lon="5.68350593559444"><ele></ele><time>2015-2-2T23:11:21Z</time></trkpt>
<trkpt lat="45.36469392478466" lon="5.682934960350394"><ele></ele><time>2015-2-2T23:11:24Z</time></trkpt>
<trkpt lat="45.364020941779017" lon="5.68221696652472"><ele></ele><time>2015-2-2T23:11:27Z</time></trkpt>
<trkpt lat="45.363491959869862" lon="5.68161397241056"><ele></ele><time>2015-2-2T23:11:30Z</time></trkpt>
<trkpt lat="45.363169927150011" lon="5.680977953597903"><ele></ele><time>2015-2-2T23:11:33Z</time></trkpt>
<trkpt lat="45.362808918580413" lon="5.679921917617321"><ele></ele><time>2015-2-2T23:11:36Z</time></trkpt>
<trkpt lat="45.362883936613798" lon="5.679149944335222"><ele></ele><time>2015-2-2T23:11:39Z</time></trkpt>
<trkpt lat="45.362543966621161" lon="5.678667984902859"><ele></ele><time>2015-2-2T23:11:42Z</time></trkpt>
<trkpt lat="45.36179194226861" lon="5.678226929157972"><ele></ele><time>2015-2-2T23:11:45Z</time></trkpt>
<trkpt lat="45.361409978941083" lon="5.677788974717259"><ele></ele><time>2015-2-2T23:11:48Z</time></trkpt>
<trkpt lat="45.361105967313051" lon="5.677302991971374"><ele></ele><time>2015-2-2T23:11:51Z</time></trkpt>
<trkpt lat="45.360548989847302" lon="5.676805945113301"><ele></ele><time>2015-2-2T23:11:54Z</time></trkpt>
<trkpt lat="45.359805934131145" lon="5.676368996500969"><ele></ele><time>2015-2-2T23:11:57Z</time></trkpt>
<trkpt lat="45.359344929456711" lon="5.676105972379446"><ele></ele><time>2015-2-2T23:12:0Z</time></trkpt>
<trkpt lat="45.358790969476104" lon="5.675670951604843"><ele></ele><time>2015-2-2T23:12:3Z</time></trkpt>
<trkpt lat="45.358143970370293" lon="5.67538395524025"><ele></ele><time>2015-2-2T23:12:6Z</time></trkpt>
<trkpt lat="45.357487918809056" lon="5.67489193752408"><ele></ele><time>2015-2-2T23:12:9Z</time></trkpt>
<trkpt lat="45.356858940795064" lon="5.674315933138132"><ele></ele><time>2015-2-2T23:12:12Z</time></trkpt>
<trkpt lat="45.356224933639169" lon="5.673755938187242"><ele></ele><time>2015-2-2T23:12:15Z</time></trkpt>
<trkpt lat="45.35571095533669" lon="5.673391995951533"><ele></ele><time>2015-2-2T23:12:18Z</time></trkpt>
<trkpt lat="45.355052975937724" lon="5.672886986285448"><ele></ele><time>2015-2-2T23:12:21Z</time></trkpt>
<trkpt lat="45.354509996250272" lon="5.672508962452412"><ele></ele><time>2015-2-2T23:12:24Z</time></trkpt>
<trkpt lat="45.35390499047935" lon="5.672260941937566"><ele></ele><time>2015-2-2T23:12:27Z</time></trkpt>
<trkpt lat="45.353146931156516" lon="5.67214191891253"><ele></ele><time>2015-2-2T23:12:30Z</time></trkpt>
<trkpt lat="45.352290971204638" lon="5.67190395668149"><ele></ele><time>2015-2-2T23:12:33Z</time></trkpt>
<trkpt lat="45.351773975417018" lon="5.671521993353963"><ele></ele><time>2015-2-2T23:12:36Z</time></trkpt>
<trkpt lat="45.351339960470796" lon="5.671146987006068"><ele></ele><time>2015-2-2T23:12:39Z</time></trkpt>
<trkpt lat="45.350855989381671" lon="5.670717917382717"><ele></ele><time>2015-2-2T23:12:42Z</time></trkpt>
<trkpt lat="45.350468996912241" lon="5.669998917728663"><ele></ele><time>2015-2-2T23:12:45Z</time></trkpt>
<trkpt lat="45.350117962807417" lon="5.669323923066258"><ele></ele><time>2015-2-2T23:12:48Z</time></trkpt>
<trkpt lat="45.349527960643172" lon="5.668819919228554"><ele></ele><time>2015-2-2T23:12:51Z</time></trkpt>
<trkpt lat="45.348873920738697" lon="5.668479949235916"><ele></ele><time>2015-2-2T23:12:54Z</time></trkpt>
<trkpt lat="45.348209990188479" lon="5.668352963402867"><ele></ele><time>2015-2-2T23:12:57Z</time></trkpt>
<trkpt lat="45.347390994429588" lon="5.668136961758137"><ele></ele><time>2015-2-2T23:13:0Z</time></trkpt>
<trkpt lat="45.346649950370193" lon="5.667780982330442"><ele></ele><time>2015-2-2T23:13:3Z</time></trkpt>
<trkpt lat="45.345899937674403" lon="5.667689954861999"><ele></ele><time>2015-2-2T23:13:6Z</time></trkpt>
<trkpt lat="45.34531194716692" lon="5.667511923238635"><ele></ele><time>2015-2-2T23:13:9Z</time></trkpt>
<trkpt lat="45.344590935856104" lon="5.667067933827639"><ele></ele><time>2015-2-2T23:13:12Z</time></trkpt>
<trkpt lat="45.344086932018399" lon="5.666775992140174"><ele></ele><time>2015-2-2T23:13:15Z</time></trkpt>
<trkpt lat="45.343507993966341" lon="5.666422946378589"><ele></ele><time>2015-2-2T23:13:18Z</time></trkpt>
<trkpt lat="45.343631962314248" lon="5.665742922574282"><ele></ele><time>2015-2-2T23:13:21Z</time></trkpt>
<trkpt lat="45.343225942924619" lon="5.666255978867412"><ele></ele><time>2015-2-2T23:13:24Z</time></trkpt>
<trkpt lat="45.342846997082233" lon="5.665743928402662"><ele></ele><time>2015-2-2T23:13:27Z</time></trkpt>
<trkpt lat="45.342342993244529" lon="5.665315948426724"><ele></ele><time>2015-2-2T23:13:30Z</time></trkpt>
<trkpt lat="45.341819962486625" lon="5.664931973442435"><ele></ele><time>2015-2-2T23:13:33Z</time></trkpt>
<trkpt lat="45.341278994455934" lon="5.664433920755982"><ele></ele><time>2015-2-2T23:13:36Z</time></trkpt>
<trkpt lat="45.340679939836264" lon="5.663913991302252"><ele></ele><time>2015-2-2T23:13:39Z</time></trkpt>
<trkpt lat="45.3401979804039" lon="5.66360997967422"><ele></ele><time>2015-2-2T23:13:42Z</time></trkpt>
<trkpt lat="45.339822974056005" lon="5.663190968334675"><ele></ele><time>2015-2-2T23:13:45Z</time></trkpt>
<trkpt lat="45.33916893415153" lon="5.662578921765089"><ele></ele><time>2015-2-2T23:13:48Z</time></trkpt>
<trkpt lat="45.338669959455729" lon="5.662099979817867"><ele></ele><time>2015-2-2T23:13:51Z</time></trkpt>
<trkpt lat="45.338017931208014" lon="5.661778952926397"><ele></ele><time>2015-2-2T23:13:54Z</time></trkpt>
<trkpt lat="45.337508982047439" lon="5.66150494851172"><ele></ele><time>2015-2-2T23:13:57Z</time></trkpt>
<trkpt lat="45.337134981527925" lon="5.660906983539462"><ele></ele><time>2015-2-2T23:14:0Z</time></trkpt>
<trkpt lat="45.336736924946308" lon="5.660310946404934"><ele></ele><time>2015-2-2T23:14:3Z</time></trkpt>
<trkpt lat="45.336364936083555" lon="5.659929988905788"><ele></ele><time>2015-2-2T23:14:6Z</time></trkpt>
<trkpt lat="45.335906948894262" lon="5.659681968390942"><ele></ele><time>2015-2-2T23:14:9Z</time></trkpt>
<trkpt lat="45.335424989461899" lon="5.65948499366641"><ele></ele><time>2015-2-2T23:14:12Z</time></trkpt>
<trkpt lat="45.334774972870946" lon="5.65929195843637"><ele></ele><time>2015-2-2T23:14:15Z</time></trkpt>
<trkpt lat="45.334195950999856" lon="5.659200930967927"><ele></ele><time>2015-2-2T23:14:18Z</time></trkpt>
<trkpt lat="45.33349396660924" lon="5.659144939854741"><ele></ele><time>2015-2-2T23:14:21Z</time></trkpt>
<trkpt lat="45.332764992490411" lon="5.658901948481798"><ele></ele><time>2015-2-2T23:14:24Z</time></trkpt>
<trkpt lat="45.332065941765904" lon="5.65858393907547"><ele></ele><time>2015-2-2T23:14:27Z</time></trkpt>
<trkpt lat="45.331613989546895" lon="5.658452929928899"><ele></ele><time>2015-2-2T23:14:30Z</time></trkpt>
<trkpt lat="45.33093698322773" lon="5.658390987664461"><ele></ele><time>2015-2-2T23:14:33Z</time></trkpt>
<trkpt lat="45.330500956624746" lon="5.658228965476155"><ele></ele><time>2015-2-2T23:14:36Z</time></trkpt>
<trkpt lat="45.32979997806251" lon="5.658252937719226"><ele></ele><time>2015-2-2T23:14:39Z</time></trkpt>
<trkpt lat="45.329304942861199" lon="5.658229971304536"><ele></ele><time>2015-2-2T23:14:42Z</time></trkpt>
<trkpt lat="45.328988945111632" lon="5.657759997993708"><ele></ele><time>2015-2-2T23:14:45Z</time></trkpt>
<trkpt lat="45.328158969059587" lon="5.657137976959348"><ele></ele><time>2015-2-2T23:14:48Z</time></trkpt>
<trkpt lat="45.327219944447279" lon="5.656818961724639"><ele></ele><time>2015-2-2T23:14:51Z</time></trkpt>
<trkpt lat="45.326557941734791" lon="5.656681917607784"><ele></ele><time>2015-2-2T23:14:54Z</time></trkpt>
<trkpt lat="45.325763924047351" lon="5.656343959271908"><ele></ele><time>2015-2-2T23:14:57Z</time></trkpt>
<trkpt lat="45.324952974915504" lon="5.655948920175433"><ele></ele><time>2015-2-2T23:15:0Z</time></trkpt>
<trkpt lat="45.324432961642742" lon="5.655582966282964"><ele></ele><time>2015-2-2T23:15:3Z</time></trkpt>
<trkpt lat="45.32354892231524" lon="5.654909983277321"><ele></ele><time>2015-2-2T23:15:6Z</time></trkpt>
<trkpt lat="45.322825983166695" lon="5.654276981949806"><ele></ele><time>2015-2-2T23:15:9Z</time></trkpt>
<trkpt lat="45.322144953534007" lon="5.653889989480376"><ele></ele><time>2015-2-2T23:15:12Z</time></trkpt>
<trkpt lat="45.321227973327041" lon="5.653771972283721"><ele></ele><time>2015-2-2T23:15:15Z</time></trkpt>
<trkpt lat="45.320470919832587" lon="5.653505930677056"><ele></ele><time>2015-2-2T23:15:18Z</time></trkpt>
<trkpt lat="45.319567937403917" lon="5.653189932927489"><ele></ele><time>2015-2-2T23:15:21Z</time></trkpt>
<trkpt lat="45.318876933306456" lon="5.653020953759551"><ele></ele><time>2015-2-2T23:15:24Z</time></trkpt>
<trkpt lat="45.318226916715503" lon="5.652822973206639"><ele></ele><time>2015-2-2T23:15:27Z</time></trkpt>
<trkpt lat="45.31768293119967" lon="5.652490966022015"><ele></ele><time>2015-2-2T23:15:30Z</time></trkpt>
<trkpt lat="45.317199965938926" lon="5.652176979929209"><ele></ele><time>2015-2-2T23:15:33Z</time></trkpt>
<trkpt lat="45.316688921302557" lon="5.651735924184322"><ele></ele><time>2015-2-2T23:15:36Z</time></trkpt>
<trkpt lat="45.315745957195759" lon="5.651232926174998"><ele></ele><time>2015-2-2T23:15:39Z</time></trkpt>
<trkpt lat="45.314997956156731" lon="5.650680977851152"><ele></ele><time>2015-2-2T23:15:42Z</time></trkpt>
<trkpt lat="45.314389932900667" lon="5.650229947641492"><ele></ele><time>2015-2-2T23:15:45Z</time></trkpt>
<trkpt lat="45.314041916280985" lon="5.649820994585753"><ele></ele><time>2015-2-2T23:15:48Z</time></trkpt>
<trkpt lat="45.313652995973825" lon="5.649061929434538"><ele></ele><time>2015-2-2T23:15:51Z</time></trkpt>
<trkpt lat="45.313153937458992" lon="5.648404955863953"><ele></ele><time>2015-2-2T23:15:54Z</time></trkpt>
<trkpt lat="45.312592936679721" lon="5.648219967260957"><ele></ele><time>2015-2-2T23:15:57Z</time></trkpt>
<trkpt lat="45.312065966427326" lon="5.647851917892695"><ele></ele><time>2015-2-2T23:16:0Z</time></trkpt>
<trkpt lat="45.311643937602639" lon="5.647442964836955"><ele></ele><time>2015-2-2T23:16:3Z</time></trkpt>
<trkpt lat="45.311243953183293" lon="5.646784985437989"><ele></ele><time>2015-2-2T23:16:6Z</time></trkpt>
<trkpt lat="45.310756964609027" lon="5.64586297608912"><ele></ele><time>2015-2-2T23:16:9Z</time></trkpt>
<trkpt lat="45.310514979064465" lon="5.645245984196663"><ele></ele><time>2015-2-2T23:16:12Z</time></trkpt>
<trkpt lat="45.310272993519902" lon="5.644363956525922"><ele></ele><time>2015-2-2T23:16:15Z</time></trkpt>
<trkpt lat="45.309941992163658" lon="5.643701953813434"><ele></ele><time>2015-2-2T23:16:18Z</time></trkpt>
<trkpt lat="45.309523986652493" lon="5.643361983820796"><ele></ele><time>2015-2-2T23:16:21Z</time></trkpt>
<trkpt lat="45.309214945882559" lon="5.642850939184427"><ele></ele><time>2015-2-2T23:16:24Z</time></trkpt>
<trkpt lat="45.309265991672873" lon="5.642188936471939"><ele></ele><time>2015-2-2T23:16:27Z</time></trkpt>
<trkpt lat="45.309658935293555" lon="5.641399947926402"><ele></ele><time>2015-2-2T23:16:30Z</time></trkpt>
<trkpt lat="45.309821963310242" lon="5.640703998506069"><ele></ele><time>2015-2-2T23:16:33Z</time></trkpt>
<trkpt lat="45.309223998337984" lon="5.639817947521806"><ele></ele><time>2015-2-2T23:16:36Z</time></trkpt>
<trkpt lat="45.308448923751712" lon="5.638649929314852"><ele></ele><time>2015-2-2T23:16:39Z</time></trkpt>
<trkpt lat="45.308065954595804" lon="5.63799899071455"><ele></ele><time>2015-2-2T23:16:42Z</time></trkpt>
<trkpt lat="45.307660941034555" lon="5.637498926371336"><ele></ele><time>2015-2-2T23:16:45Z</time></trkpt>
<trkpt lat="45.306890979409218" lon="5.637059966102243"><ele></ele><time>2015-2-2T23:16:48Z</time></trkpt>
<trkpt lat="45.306425951421261" lon="5.636623939499259"><ele></ele><time>2015-2-2T23:16:51Z</time></trkpt>
<trkpt lat="45.305671999230981" lon="5.636298973113298"><ele></ele><time>2015-2-2T23:16:54Z</time></trkpt>
<trkpt lat="45.304935984313488" lon="5.635964954271913"><ele></ele><time>2015-2-2T23:16:57Z</time></trkpt>
<trkpt lat="45.304365931078792" lon="5.635949950665236"><ele></ele><time>2015-2-2T23:17:0Z</time></trkpt>
<trkpt lat="45.303860921412706" lon="5.635475954040885"><ele></ele><time>2015-2-2T23:17:3Z</time></trkpt>
<trkpt lat="45.303191961720586" lon="5.635321978479624"><ele></ele><time>2015-2-2T23:17:6Z</time></trkpt>
<trkpt lat="45.302214967086911" lon="5.635297922417522"><ele></ele><time>2015-2-2T23:17:9Z</time></trkpt>
<trkpt lat="45.301497979089618" lon="5.635091979056597"><ele></ele><time>2015-2-2T23:17:12Z</time></trkpt>
<trkpt lat="45.301002943888307" lon="5.63488595187664"><ele></ele><time>2015-2-2T23:17:15Z</time></trkpt>
<trkpt lat="45.300795994699001" lon="5.635028947144747"><ele></ele><time>2015-2-2T23:17:18Z</time></trkpt>
<trkpt lat="45.301592946052551" lon="5.635604951530695"><ele></ele><time>2015-2-2T23:17:21Z</time></trkpt>
<trkpt lat="45.302096949890256" lon="5.63604399561882"><ele></ele><time>2015-2-2T23:17:24Z</time></trkpt>
<trkpt lat="45.302727939561009" lon="5.636247927322984"><ele></ele><time>2015-2-2T23:17:27Z</time></trkpt>
<trkpt lat="45.30302993953228" lon="5.637024929746985"><ele></ele><time>2015-2-2T23:17:30Z</time></trkpt>
<trkpt lat="45.303239990025759" lon="5.637818947434425"><ele></ele><time>2015-2-2T23:17:33Z</time></trkpt>
<trkpt lat="45.303295981138945" lon="5.638568960130215"><ele></ele><time>2015-2-2T23:17:36Z</time></trkpt>
<trkpt lat="45.303690936416388" lon="5.638925945386291"><ele></ele><time>2015-2-2T23:17:39Z</time></trkpt>
<trkpt lat="45.303475940600038" lon="5.638753948733211"><ele></ele><time>2015-2-2T23:17:42Z</time></trkpt>
<trkpt lat="45.303060952574015" lon="5.638826955109835"><ele></ele><time>2015-2-2T23:17:45Z</time></trkpt>
<trkpt lat="45.302344970405102" lon="5.638489918783307"><ele></ele><time>2015-2-2T23:17:48Z</time></trkpt>
<trkpt lat="45.301766954362392" lon="5.638293949887157"><ele></ele><time>2015-2-2T23:17:51Z</time></trkpt>
<trkpt lat="45.301110986620188" lon="5.638153972104192"><ele></ele><time>2015-2-2T23:17:54Z</time></trkpt>
<trkpt lat="45.300462981685996" lon="5.63804391771555"><ele></ele><time>2015-2-2T23:17:57Z</time></trkpt>
<trkpt lat="45.299845989793539" lon="5.63804492354393"><ele></ele><time>2015-2-2T23:18:0Z</time></trkpt>
<trkpt lat="45.299366964027286" lon="5.638110972940922"><ele></ele><time>2015-2-2T23:18:3Z</time></trkpt>
<trkpt lat="45.298771932721138" lon="5.637867981567979"><ele></ele><time>2015-2-2T23:18:6Z</time></trkpt>
<trkpt lat="45.298333978280425" lon="5.637078993022442"><ele></ele><time>2015-2-2T23:18:9Z</time></trkpt>
<trkpt lat="45.298047987744212" lon="5.636329986155033"><ele></ele><time>2015-2-2T23:18:12Z</time></trkpt>
<trkpt lat="45.297918990254402" lon="5.636543976143003"><ele></ele><time>2015-2-2T23:18:15Z</time></trkpt>
<trkpt lat="45.297534931451082" lon="5.636872965842485"><ele></ele><time>2015-2-2T23:18:18Z</time></trkpt>
<trkpt lat="45.297112986445427" lon="5.63718393445015"><ele></ele><time>2015-2-2T23:18:21Z</time></trkpt>
<trkpt lat="45.296610994264483" lon="5.637390967458487"><ele></ele><time>2015-2-2T23:18:24Z</time></trkpt>
<trkpt lat="45.296156946569681" lon="5.637596994638443"><ele></ele><time>2015-2-2T23:18:27Z</time></trkpt>
<trkpt lat="45.295527968555689" lon="5.637875944375992"><ele></ele><time>2015-2-2T23:18:30Z</time></trkpt>
<trkpt lat="45.294878957793117" lon="5.63817392103374"><ele></ele><time>2015-2-2T23:18:33Z</time></trkpt>
<trkpt lat="45.294332960620522" lon="5.638509951531887"><ele></ele><time>2015-2-2T23:18:36Z</time></trkpt>
<trkpt lat="45.293858963996172" lon="5.638774987310171"><ele></ele><time>2015-2-2T23:18:39Z</time></trkpt>
<trkpt lat="45.292993951588869" lon="5.639279996976256"><ele></ele><time>2015-2-2T23:18:42Z</time></trkpt>
<trkpt lat="45.292322980239987" lon="5.639669923111796"><ele></ele><time>2015-2-2T23:18:45Z</time></trkpt>
<trkpt lat="45.291852923110127" lon="5.639941999688745"><ele></ele><time>2015-2-2T23:18:48Z</time></trkpt>
<trkpt lat="45.291218999773264" lon="5.640305941924453"><ele></ele><time>2015-2-2T23:18:51Z</time></trkpt>
<trkpt lat="45.290479967370629" lon="5.640739956870675"><ele></ele><time>2015-2-2T23:18:54Z</time></trkpt>
<trkpt lat="45.289784939959645" lon="5.641150921583176"><ele></ele><time>2015-2-2T23:18:57Z</time></trkpt>
<trkpt lat="45.289353942498565" lon="5.64124396070838"><ele></ele><time>2015-2-2T23:19:0Z</time></trkpt>
<trkpt lat="45.288748936727643" lon="5.640540970489383"><ele></ele><time>2015-2-2T23:19:3Z</time></trkpt>
<trkpt lat="45.288277957588434" lon="5.640034954994917"><ele></ele><time>2015-2-2T23:19:6Z</time></trkpt>
<trkpt lat="45.287722991779447" lon="5.639685932546854"><ele></ele><time>2015-2-2T23:19:9Z</time></trkpt>
<trkpt lat="45.287241954356432" lon="5.639515947550535"><ele></ele><time>2015-2-2T23:19:12Z</time></trkpt>
<trkpt lat="45.286305947229266" lon="5.639284942299128"><ele></ele><time>2015-2-2T23:19:15Z</time></trkpt>
<trkpt lat="45.285857934504747" lon="5.639197938144207"><ele></ele><time>2015-2-2T23:19:18Z</time></trkpt>
<trkpt lat="45.285428948700428" lon="5.638938937336206"><ele></ele><time>2015-2-2T23:19:21Z</time></trkpt>
<trkpt lat="45.284722940996289" lon="5.638139974325895"><ele></ele><time>2015-2-2T23:19:24Z</time></trkpt>
<trkpt lat="45.284383976832032" lon="5.637666983529925"><ele></ele><time>2015-2-2T23:19:27Z</time></trkpt>
<trkpt lat="45.283952979370952" lon="5.636936919763684"><ele></ele><time>2015-2-2T23:19:30Z</time></trkpt>
<trkpt lat="45.283596999943256" lon="5.636290926486254"><ele></ele><time>2015-2-2T23:19:33Z</time></trkpt>
<trkpt lat="45.28324194252491" lon="5.63569899648428"><ele></ele><time>2015-2-2T23:19:36Z</time></trkpt>
<trkpt lat="45.28291798196733" lon="5.635137995705009"><ele></ele><time>2015-2-2T23:19:39Z</time></trkpt>
<trkpt lat="45.28261992149055" lon="5.634645977988839"><ele></ele><time>2015-2-2T23:19:42Z</time></trkpt>
<trkpt lat="45.282274922356009" lon="5.634115990251303"><ele></ele><time>2015-2-2T23:19:45Z</time></trkpt>
<trkpt lat="45.281859934329987" lon="5.633470918983221"><ele></ele><time>2015-2-2T23:19:48Z</time></trkpt>
<trkpt lat="45.281377974897623" lon="5.633046962320805"><ele></ele><time>2015-2-2T23:19:51Z</time></trkpt>
<trkpt lat="45.280481949448586" lon="5.632544970139861"><ele></ele><time>2015-2-2T23:19:54Z</time></trkpt>
<trkpt lat="45.279735960066319" lon="5.632050940766931"><ele></ele><time>2015-2-2T23:19:57Z</time></trkpt>
<trkpt lat="45.27920295484364" lon="5.631776936352253"><ele></ele><time>2015-2-2T23:20:0Z</time></trkpt>
<trkpt lat="45.278720995411277" lon="5.631948933005333"><ele></ele><time>2015-2-2T23:20:3Z</time></trkpt>
<trkpt lat="45.278018927201629" lon="5.632213968783617"><ele></ele><time>2015-2-2T23:20:6Z</time></trkpt>
<trkpt lat="45.27724695391953" lon="5.632481938228011"><ele></ele><time>2015-2-2T23:20:9Z</time></trkpt>
<trkpt lat="45.276765916496515" lon="5.632618982344866"><ele></ele><time>2015-2-2T23:20:12Z</time></trkpt>
<trkpt lat="45.275939963757992" lon="5.632855938747525"><ele></ele><time>2015-2-2T23:20:15Z</time></trkpt>
<trkpt lat="45.275434954091907" lon="5.633023995906115"><ele></ele><time>2015-2-2T23:20:18Z</time></trkpt>
<trkpt lat="45.274578994140029" lon="5.633306968957186"><ele></ele><time>2015-2-2T23:20:21Z</time></trkpt>
<trkpt lat="45.274054957553744" lon="5.633426997810602"><ele></ele><time>2015-2-2T23:20:24Z</time></trkpt>
<trkpt lat="45.27359395287931" lon="5.633484916761518"><ele></ele><time>2015-2-2T23:20:27Z</time></trkpt>
<trkpt lat="45.273413993418217" lon="5.632755942642689"><ele></ele><time>2015-2-2T23:20:30Z</time></trkpt>
<trkpt lat="45.27331592515111" lon="5.631911968812347"><ele></ele><time>2015-2-2T23:20:33Z</time></trkpt>
<trkpt lat="45.273200925439596" lon="5.630846964195371"><ele></ele><time>2015-2-2T23:20:36Z</time></trkpt>
<trkpt lat="45.273131942376494" lon="5.630134921520948"><ele></ele><time>2015-2-2T23:20:39Z</time></trkpt>
<trkpt lat="45.273042926564813" lon="5.629516923800111"><ele></ele><time>2015-2-2T23:20:42Z</time></trkpt>
<trkpt lat="45.272883921861649" lon="5.629650950431824"><ele></ele><time>2015-2-2T23:20:45Z</time></trkpt>
<trkpt lat="45.273046949878335" lon="5.628879982978106"><ele></ele><time>2015-2-2T23:20:48Z</time></trkpt>
<trkpt lat="45.273081986233592" lon="5.628125946968794"><ele></ele><time>2015-2-2T23:20:51Z</time></trkpt>
<trkpt lat="45.273475935682654" lon="5.627441983669996"><ele></ele><time>2015-2-2T23:20:54Z</time></trkpt>
<trkpt lat="45.273419944569468" lon="5.626844940707088"><ele></ele><time>2015-2-2T23:20:57Z</time></trkpt>
<trkpt lat="45.272788954898715" lon="5.626652995124459"><ele></ele><time>2015-2-2T23:21:0Z</time></trkpt>
<trkpt lat="45.272367931902409" lon="5.625295965000987"><ele></ele><time>2015-2-2T23:21:3Z</time></trkpt>
<trkpt lat="45.272167939692736" lon="5.624643936753273"><ele></ele><time>2015-2-2T23:21:6Z</time></trkpt>
<trkpt lat="45.271938946098089" lon="5.623982939869165"><ele></ele><time>2015-2-2T23:21:9Z</time></trkpt>
<trkpt lat="45.271651949733496" lon="5.623123962432146"><ele></ele><time>2015-2-2T23:21:12Z</time></trkpt>
<trkpt lat="45.271297981962562" lon="5.622818944975734"><ele></ele><time>2015-2-2T23:21:15Z</time></trkpt>
<trkpt lat="45.271460926160216" lon="5.622412925586104"><ele></ele><time>2015-2-2T23:21:18Z</time></trkpt>
<trkpt lat="45.272128963842988" lon="5.622158953920007"><ele></ele><time>2015-2-2T23:21:21Z</time></trkpt>
<trkpt lat="45.272631961852312" lon="5.622030962258577"><ele></ele><time>2015-2-2T23:21:24Z</time></trkpt>
<trkpt lat="45.273341992869973" lon="5.62165193259716"><ele></ele><time>2015-2-2T23:21:27Z</time></trkpt>
<trkpt lat="45.274011958390474" lon="5.621467949822545"><ele></ele><time>2015-2-2T23:21:30Z</time></trkpt>
<trkpt lat="45.274573964998126" lon="5.62134699895978"><ele></ele><time>2015-2-2T23:21:33Z</time></trkpt>
<trkpt lat="45.275475941598415" lon="5.621431991457939"><ele></ele><time>2015-2-2T23:21:36Z</time></trkpt>
<trkpt lat="45.276389988139272" lon="5.621190927922726"><ele></ele><time>2015-2-2T23:21:39Z</time></trkpt>
<trkpt lat="45.277003962546587" lon="5.621034940704703"><ele></ele><time>2015-2-2T23:21:42Z</time></trkpt>
<trkpt lat="45.277787921950221" lon="5.620832936838269"><ele></ele><time>2015-2-2T23:21:45Z</time></trkpt>
<trkpt lat="45.278360992670059" lon="5.620706956833601"><ele></ele><time>2015-2-2T23:21:48Z</time></trkpt>
<trkpt lat="45.279125925153494" lon="5.620671920478344"><ele></ele><time>2015-2-2T23:21:51Z</time></trkpt>
<trkpt lat="45.27984794229269" lon="5.620656916871667"><ele></ele><time>2015-2-2T23:21:54Z</time></trkpt>
<trkpt lat="45.280760983005166" lon="5.620578965172172"><ele></ele><time>2015-2-2T23:21:57Z</time></trkpt>
<trkpt lat="45.281633958220482" lon="5.62042691744864"><ele></ele><time>2015-2-2T23:22:0Z</time></trkpt>
<trkpt lat="45.282139973714948" lon="5.620321976020932"><ele></ele><time>2015-2-2T23:22:3Z</time></trkpt>
<trkpt lat="45.282606929540634" lon="5.620217956602573"><ele></ele><time>2015-2-2T23:22:6Z</time></trkpt>
<trkpt lat="45.283425925299525" lon="5.620050989091396"><ele></ele><time>2015-2-2T23:22:9Z</time></trkpt>
<trkpt lat="45.284244921058416" lon="5.619876980781555"><ele></ele><time>2015-2-2T23:22:12Z</time></trkpt>
<trkpt lat="45.284888986498117" lon="5.619764998555183"><ele></ele><time>2015-2-2T23:22:15Z</time></trkpt>
<trkpt lat="45.285600945353508" lon="5.619615968316793"><ele></ele><time>2015-2-2T23:22:18Z</time></trkpt>
<trkpt lat="45.286332936957479" lon="5.619353950023651"><ele></ele><time>2015-2-2T23:22:21Z</time></trkpt>
<trkpt lat="45.287486957386136" lon="5.619094949215651"><ele></ele><time>2015-2-2T23:22:24Z</time></trkpt>
<trkpt lat="45.288232946768403" lon="5.618935944512487"><ele></ele><time>2015-2-2T23:22:27Z</time></trkpt>
<trkpt lat="45.288821943104267" lon="5.618798984214664"><ele></ele><time>2015-2-2T23:22:30Z</time></trkpt>
<trkpt lat="45.289360983297229" lon="5.618658922612667"><ele></ele><time>2015-2-2T23:22:33Z</time></trkpt>
<trkpt lat="45.289985937997699" lon="5.618528919294477"><ele></ele><time>2015-2-2T23:22:36Z</time></trkpt>
<trkpt lat="45.290593961253762" lon="5.618395982310176"><ele></ele><time>2015-2-2T23:22:39Z</time></trkpt>
<trkpt lat="45.291217993944883" lon="5.61829699203372"><ele></ele><time>2015-2-2T23:22:42Z</time></trkpt>
<trkpt lat="45.29183498583734" lon="5.618161959573627"><ele></ele><time>2015-2-2T23:22:45Z</time></trkpt>
<trkpt lat="45.292348964139819" lon="5.6180389970541"><ele></ele><time>2015-2-2T23:22:48Z</time></trkpt>
<trkpt lat="45.292830923572183" lon="5.617858953773975"><ele></ele><time>2015-2-2T23:22:51Z</time></trkpt>
<trkpt lat="45.293649919331074" lon="5.61763096600771"><ele></ele><time>2015-2-2T23:22:54Z</time></trkpt>
<trkpt lat="45.294383922591805" lon="5.617472967132926"><ele></ele><time>2015-2-2T23:22:57Z</time></trkpt>
<trkpt lat="45.295138964429498" lon="5.617308933287859"><ele></ele><time>2015-2-2T23:23:0Z</time></trkpt>
<trkpt lat="45.295592928305268" lon="5.617216983810067"><ele></ele><time>2015-2-2T23:23:3Z</time></trkpt>
<trkpt lat="45.29630396515131" lon="5.616931999102235"><ele></ele><time>2015-2-2T23:23:6Z</time></trkpt>
<trkpt lat="45.297067975625396" lon="5.616243928670883"><ele></ele><time>2015-2-2T23:23:9Z</time></trkpt>
<trkpt lat="45.297578936442733" lon="5.615626936778426"><ele></ele><time>2015-2-2T23:23:12Z</time></trkpt>
<trkpt lat="45.298206992447376" lon="5.615166937932372"><ele></ele><time>2015-2-2T23:23:15Z</time></trkpt>
<trkpt lat="45.298635978251696" lon="5.614718925207853"><ele></ele><time>2015-2-2T23:23:18Z</time></trkpt>
<trkpt lat="45.299165965989232" lon="5.614179968833923"><ele></ele><time>2015-2-2T23:23:21Z</time></trkpt>
<trkpt lat="45.299607943743467" lon="5.613654926419258"><ele></ele><time>2015-2-2T23:23:24Z</time></trkpt>
<trkpt lat="45.299958977848291" lon="5.613041957840323"><ele></ele><time>2015-2-2T23:23:27Z</time></trkpt>
<trkpt lat="45.300485948100686" lon="5.611899923533201"><ele></ele><time>2015-2-2T23:23:30Z</time></trkpt>
<trkpt lat="45.300716953352094" lon="5.611330959945917"><ele></ele><time>2015-2-2T23:23:33Z</time></trkpt>
<trkpt lat="45.300986934453249" lon="5.61069393530488"><ele></ele><time>2015-2-2T23:23:36Z</time></trkpt>
<trkpt lat="45.301359929144382" lon="5.60981098562479"><ele></ele><time>2015-2-2T23:23:39Z</time></trkpt>
<trkpt lat="45.301652960479259" lon="5.609074970707297"><ele></ele><time>2015-2-2T23:23:42Z</time></trkpt>
<trkpt lat="45.301939956843853" lon="5.60832898132503"><ele></ele><time>2015-2-2T23:23:45Z</time></trkpt>
<trkpt lat="45.302223935723305" lon="5.607632948085666"><ele></ele><time>2015-2-2T23:23:48Z</time></trkpt>
<trkpt lat="45.302466927096248" lon="5.606964994221926"><ele></ele><time>2015-2-2T23:23:51Z</time></trkpt>
<trkpt lat="45.302647976204753" lon="5.606353953480721"><ele></ele><time>2015-2-2T23:23:54Z</time></trkpt>
<trkpt lat="45.302767921239138" lon="5.605728998780251"><ele></ele><time>2015-2-2T23:23:57Z</time></trkpt>
<trkpt lat="45.302852997556329" lon="5.604980997741222"><ele></ele><time>2015-2-2T23:24:0Z</time></trkpt>
<trkpt lat="45.302974954247475" lon="5.60415898449719"><ele></ele><time>2015-2-2T23:24:3Z</time></trkpt>
<trkpt lat="45.303084924817085" lon="5.603123987093568"><ele></ele><time>2015-2-2T23:24:6Z</time></trkpt>
<trkpt lat="45.303156925365329" lon="5.601815991103649"><ele></ele><time>2015-2-2T23:24:9Z</time></trkpt>
<trkpt lat="45.303190955892205" lon="5.600877972319722"><ele></ele><time>2015-2-2T23:24:12Z</time></trkpt>
<trkpt lat="45.303159942850471" lon="5.600238936021924"><ele></ele><time>2015-2-2T23:24:15Z</time></trkpt>
<trkpt lat="45.303237978368998" lon="5.599364954978228"><ele></ele><time>2015-2-2T23:24:18Z</time></trkpt>
<trkpt lat="45.303336968645453" lon="5.598179921507835"><ele></ele><time>2015-2-2T23:24:21Z</time></trkpt>
<trkpt lat="45.30330796726048" lon="5.597468968480825"><ele></ele><time>2015-2-2T23:24:24Z</time></trkpt>
<trkpt lat="45.303246947005391" lon="5.596807971596718"><ele></ele><time>2015-2-2T23:24:27Z</time></trkpt>
<trkpt lat="45.303160948678851" lon="5.593404918909073"><ele></ele><time>2015-2-2T23:24:30Z</time></trkpt>
<trkpt lat="45.302939917892218" lon="5.592221980914474"><ele></ele><time>2015-2-2T23:24:33Z</time></trkpt>
<trkpt lat="45.302710924297571" lon="5.591103918850422"><ele></ele><time>2015-2-2T23:24:36Z</time></trkpt>
<trkpt lat="45.302395932376385" lon="5.589998932555318"><ele></ele><time>2015-2-2T23:24:39Z</time></trkpt>
<trkpt lat="45.302118994295597" lon="5.58925093151629"><ele></ele><time>2015-2-2T23:24:42Z</time></trkpt>
<trkpt lat="45.301816994324327" lon="5.588548947125673"><ele></ele><time>2015-2-2T23:24:45Z</time></trkpt>
<trkpt lat="45.301349954679608" lon="5.587672954425216"><ele></ele><time>2015-2-2T23:24:48Z</time></trkpt>
<trkpt lat="45.30098794028163" lon="5.587069960311055"><ele></ele><time>2015-2-2T23:24:51Z</time></trkpt>
<trkpt lat="45.300361979752779" lon="5.586151974275708"><ele></ele><time>2015-2-2T23:24:54Z</time></trkpt>
<trkpt lat="45.299881948158145" lon="5.585481924936175"><ele></ele><time>2015-2-2T23:24:57Z</time></trkpt>
<trkpt lat="45.29939797706902" lon="5.584779940545559"><ele></ele><time>2015-2-2T23:25:0Z</time></trkpt>
<trkpt lat="45.298964967951179" lon="5.584152974188328"><ele></ele><time>2015-2-2T23:25:3Z</time></trkpt>
<trkpt lat="45.298477979376912" lon="5.583436992019415"><ele></ele><time>2015-2-2T23:25:6Z</time></trkpt>
<trkpt lat="45.29802493751049" lon="5.58275998570025"><ele></ele><time>2015-2-2T23:25:9Z</time></trkpt>
<trkpt lat="45.297609949484468" lon="5.582170989364386"><ele></ele><time>2015-2-2T23:25:12Z</time></trkpt>
<trkpt lat="45.29729294590652" lon="5.581670925021172"><ele></ele><time>2015-2-2T23:25:15Z</time></trkpt>
<trkpt lat="45.296859936788678" lon="5.580694936215878"><ele></ele><time>2015-2-2T23:25:18Z</time></trkpt>
<trkpt lat="45.296668997034431" lon="5.579952970147133"><ele></ele><time>2015-2-2T23:25:21Z</time></trkpt>
<trkpt lat="45.296503957360983" lon="5.579267917200923"><ele></ele><time>2015-2-2T23:25:24Z</time></trkpt>
<trkpt lat="45.296380994841456" lon="5.578558975830674"><ele></ele><time>2015-2-2T23:25:27Z</time></trkpt>
<trkpt lat="45.296358950436115" lon="5.57783997617662"><ele></ele><time>2015-2-2T23:25:30Z</time></trkpt>
<trkpt lat="45.296403961256146" lon="5.576593922451139"><ele></ele><time>2015-2-2T23:25:33Z</time></trkpt>
<trkpt lat="45.296543939039111" lon="5.575881963595748"><ele></ele><time>2015-2-2T23:25:36Z</time></trkpt>
<trkpt lat="45.296814925968647" lon="5.574932964518666"><ele></ele><time>2015-2-2T23:25:39Z</time></trkpt>
<trkpt lat="45.29712094925344" lon="5.573797971010208"><ele></ele><time>2015-2-2T23:25:42Z</time></trkpt>
<trkpt lat="45.297324964776635" lon="5.573056926950812"><ele></ele><time>2015-2-2T23:25:45Z</time></trkpt>
<trkpt lat="45.297673987224698" lon="5.5717399623245"><ele></ele><time>2015-2-2T23:25:48Z</time></trkpt>
<trkpt lat="45.297927958890796" lon="5.570720974355936"><ele></ele><time>2015-2-2T23:25:51Z</time></trkpt>
<trkpt lat="45.298227947205305" lon="5.569624956697226"><ele></ele><time>2015-2-2T23:25:54Z</time></trkpt>
<trkpt lat="45.298429951071739" lon="5.568915931507945"><ele></ele><time>2015-2-2T23:25:57Z</time></trkpt>
<trkpt lat="45.29862591996789" lon="5.568220987915993"><ele></ele><time>2015-2-2T23:26:0Z</time></trkpt>
<trkpt lat="45.298845944926143" lon="5.566982980817556"><ele></ele><time>2015-2-2T23:26:3Z</time></trkpt>
<trkpt lat="45.298895984888077" lon="5.566184939816594"><ele></ele><time>2015-2-2T23:26:6Z</time></trkpt>
<trkpt lat="45.298869917169213" lon="5.565406931564212"><ele></ele><time>2015-2-2T23:26:9Z</time></trkpt>
<trkpt lat="45.298765981569886" lon="5.56473596021533"><ele></ele><time>2015-2-2T23:26:12Z</time></trkpt>
<trkpt lat="45.298607982695103" lon="5.564088961109519"><ele></ele><time>2015-2-2T23:26:15Z</time></trkpt>
<trkpt lat="45.298348981887102" lon="5.563387982547283"><ele></ele><time>2015-2-2T23:26:18Z</time></trkpt>
<trkpt lat="45.297882948070765" lon="5.562496986240149"><ele></ele><time>2015-2-2T23:26:21Z</time></trkpt>
<trkpt lat="45.297290934249759" lon="5.561781926080585"><ele></ele><time>2015-2-2T23:26:24Z</time></trkpt>
<trkpt lat="45.296895978972316" lon="5.561301978304982"><ele></ele><time>2015-2-2T23:26:27Z</time></trkpt>
<trkpt lat="45.296545950695872" lon="5.560881961137056"><ele></ele><time>2015-2-2T23:26:30Z</time></trkpt>
<trkpt lat="45.296145966276526" lon="5.560380974784493"><ele></ele><time>2015-2-2T23:26:33Z</time></trkpt>
<trkpt lat="45.295733995735645" lon="5.559859955683351"><ele></ele><time>2015-2-2T23:26:36Z</time></trkpt>
<trkpt lat="45.295247929170728" lon="5.559247992932797"><ele></ele><time>2015-2-2T23:26:39Z</time></trkpt>
<trkpt lat="45.294911982491612" lon="5.558757986873388"><ele></ele><time>2015-2-2T23:26:42Z</time></trkpt>
<trkpt lat="45.29458693228662" lon="5.558146946132183"><ele></ele><time>2015-2-2T23:26:45Z</time></trkpt>
<trkpt lat="45.294272946193814" lon="5.557414954528213"><ele></ele><time>2015-2-2T23:26:48Z</time></trkpt>
<trkpt lat="45.294063985347748" lon="5.556814977899194"><ele></ele><time>2015-2-2T23:26:51Z</time></trkpt>
<trkpt lat="45.293902968987823" lon="5.55618298240006"><ele></ele><time>2015-2-2T23:26:54Z</time></trkpt>
<trkpt lat="45.293766930699348" lon="5.555480998009443"><ele></ele><time>2015-2-2T23:26:57Z</time></trkpt>
<trkpt lat="45.29368394985795" lon="5.55474498309195"><ele></ele><time>2015-2-2T23:27:0Z</time></trkpt>
<trkpt lat="45.293670957908034" lon="5.554010979831219"><ele></ele><time>2015-2-2T23:27:3Z</time></trkpt>
<trkpt lat="45.293690990656614" lon="5.553232971578836"><ele></ele><time>2015-2-2T23:27:6Z</time></trkpt>
<trkpt lat="45.293727954849601" lon="5.552419926971197"><ele></ele><time>2015-2-2T23:27:9Z</time></trkpt>
<trkpt lat="45.293825939297676" lon="5.5510089173913"><ele></ele><time>2015-2-2T23:27:12Z</time></trkpt>
<trkpt lat="45.293858963996172" lon="5.550199979916215"><ele></ele><time>2015-2-2T23:27:15Z</time></trkpt>
<trkpt lat="45.29372694902122" lon="5.54860096424818"><ele></ele><time>2015-2-2T23:27:18Z</time></trkpt>
<trkpt lat="45.293652936816216" lon="5.547749949619174"><ele></ele><time>2015-2-2T23:27:21Z</time></trkpt>
<trkpt lat="45.293592922389507" lon="5.547017958015204"><ele></ele><time>2015-2-2T23:27:24Z</time></trkpt>
<trkpt lat="45.293523939326406" lon="5.546204997226596"><ele></ele><time>2015-2-2T23:27:27Z</time></trkpt>
<trkpt lat="45.293433917686343" lon="5.54522791877389"><ele></ele><time>2015-2-2T23:27:30Z</time></trkpt>
<trkpt lat="45.29333995655179" lon="5.544567927718163"><ele></ele><time>2015-2-2T23:27:33Z</time></trkpt>
<trkpt lat="45.29322998598218" lon="5.54378991946578"><ele></ele><time>2015-2-2T23:27:36Z</time></trkpt>
<trkpt lat="45.293063940480351" lon="5.542594995349646"><ele></ele><time>2015-2-2T23:27:39Z</time></trkpt>
<trkpt lat="45.292882975190878" lon="5.54133796133101"><ele></ele><time>2015-2-2T23:27:42Z</time></trkpt>
<trkpt lat="45.292754983529449" lon="5.540569927543402"><ele></ele><time>2015-2-2T23:27:45Z</time></trkpt>
<trkpt lat="45.292600924149156" lon="5.539719918742776"><ele></ele><time>2015-2-2T23:27:48Z</time></trkpt>
<trkpt lat="45.292411996051669" lon="5.538763962686062"><ele></ele><time>2015-2-2T23:27:51Z</time></trkpt>
<trkpt lat="45.292269922792912" lon="5.53800892084837"><ele></ele><time>2015-2-2T23:27:54Z</time></trkpt>
<trkpt lat="45.292153917253017" lon="5.537342978641391"><ele></ele><time>2015-2-2T23:27:57Z</time></trkpt>
<trkpt lat="45.291932970285416" lon="5.536106983199716"><ele></ele><time>2015-2-2T23:28:0Z</time></trkpt>
<trkpt lat="45.291766924783587" lon="5.535239959135652"><ele></ele><time>2015-2-2T23:28:3Z</time></trkpt>
<trkpt lat="45.291636921465397" lon="5.534585919231176"><ele></ele><time>2015-2-2T23:28:6Z</time></trkpt>
<trkpt lat="45.29149292036891" lon="5.533874966204166"><ele></ele><time>2015-2-2T23:28:9Z</time></trkpt>
<trkpt lat="45.291323941200972" lon="5.533207934349775"><ele></ele><time>2015-2-2T23:28:12Z</time></trkpt>
<trkpt lat="45.290956981480122" lon="5.53203396499157"><ele></ele><time>2015-2-2T23:28:15Z</time></trkpt>
<trkpt lat="45.290615921840072" lon="5.531201977282763"><ele></ele><time>2015-2-2T23:28:18Z</time></trkpt>
<trkpt lat="45.290139997377992" lon="5.530292959883809"><ele></ele><time>2015-2-2T23:28:21Z</time></trkpt>
<trkpt lat="45.289628952741623" lon="5.52941394969821"><ele></ele><time>2015-2-2T23:28:24Z</time></trkpt>
<trkpt lat="45.289009949192405" lon="5.528623955324292"><ele></ele><time>2015-2-2T23:28:27Z</time></trkpt>
<trkpt lat="45.288566965609789" lon="5.52838196977973"><ele></ele><time>2015-2-2T23:28:30Z</time></trkpt>
<trkpt lat="45.287656942382455" lon="5.527857933193445"><ele></ele><time>2015-2-2T23:28:33Z</time></trkpt>
<trkpt lat="45.286886980757117" lon="5.527089983224869"><ele></ele><time>2015-2-2T23:28:36Z</time></trkpt>
<trkpt lat="45.286373924463987" lon="5.526976995170116"><ele></ele><time>2015-2-2T23:28:39Z</time></trkpt>
<trkpt lat="45.285867992788553" lon="5.526654962450266"><ele></ele><time>2015-2-2T23:28:42Z</time></trkpt>
<trkpt lat="45.285409921780229" lon="5.526436949148774"><ele></ele><time>2015-2-2T23:28:45Z</time></trkpt>
<trkpt lat="45.28476795181632" lon="5.526119945570827"><ele></ele><time>2015-2-2T23:28:48Z</time></trkpt>
<trkpt lat="45.284005952998996" lon="5.525825992226601"><ele></ele><time>2015-2-2T23:28:51Z</time></trkpt>
<trkpt lat="45.283479988574982" lon="5.525639997795224"><ele></ele><time>2015-2-2T23:28:54Z</time></trkpt>
<trkpt lat="45.282563930377364" lon="5.525371944531798"><ele></ele><time>2015-2-2T23:28:57Z</time></trkpt>
<trkpt lat="45.282013993710279" lon="5.52517899312079"><ele></ele><time>2015-2-2T23:29:0Z</time></trkpt>
<trkpt lat="45.281298933550715" lon="5.52492099814117"><ele></ele><time>2015-2-2T23:29:3Z</time></trkpt>
<trkpt lat="45.28040299192071" lon="5.52462293766439"><ele></ele><time>2015-2-2T23:29:6Z</time></trkpt>
<trkpt lat="45.279904939234257" lon="5.524429986253381"><ele></ele><time>2015-2-2T23:29:9Z</time></trkpt>
<trkpt lat="45.27892199344933" lon="5.524094961583614"><ele></ele><time>2015-2-2T23:29:12Z</time></trkpt>
<trkpt lat="45.278370967134833" lon="5.523886922746897"><ele></ele><time>2015-2-2T23:29:15Z</time></trkpt>
<trkpt lat="45.277628917247057" lon="5.523577965795994"><ele></ele><time>2015-2-2T23:29:18Z</time></trkpt>
<trkpt lat="45.277161961421371" lon="5.523402951657772"><ele></ele><time>2015-2-2T23:29:21Z</time></trkpt>
<trkpt lat="45.276692993938923" lon="5.52322693169117"><ele></ele><time>2015-2-2T23:29:24Z</time></trkpt>
<trkpt lat="45.276211956515908" lon="5.523058958351612"><ele></ele><time>2015-2-2T23:29:27Z</time></trkpt>
<trkpt lat="45.275602927431464" lon="5.522815966978669"><ele></ele><time>2015-2-2T23:29:30Z</time></trkpt>
<trkpt lat="45.275066988542676" lon="5.52258194424212"><ele></ele><time>2015-2-2T23:29:33Z</time></trkpt>
<trkpt lat="45.274586956948042" lon="5.522398967295885"><ele></ele><time>2015-2-2T23:29:36Z</time></trkpt>
<trkpt lat="45.274142967537045" lon="5.522253960371018"><ele></ele><time>2015-2-2T23:29:39Z</time></trkpt>
<trkpt lat="45.273566963151097" lon="5.522127980366349"><ele></ele><time>2015-2-2T23:29:42Z</time></trkpt>
<trkpt lat="45.273079974576831" lon="5.521976938471198"><ele></ele><time>2015-2-2T23:29:45Z</time></trkpt>
<trkpt lat="45.272598937153816" lon="5.521805947646499"><ele></ele><time>2015-2-2T23:29:48Z</time></trkpt>
<trkpt lat="45.272094933316112" lon="5.521667981520295"><ele></ele><time>2015-2-2T23:29:51Z</time></trkpt>
<trkpt lat="45.271458998322487" lon="5.521478969603777"><ele></ele><time>2015-2-2T23:29:54Z</time></trkpt>
<trkpt lat="45.270738992840052" lon="5.521199936047196"><ele></ele><time>2015-2-2T23:29:57Z</time></trkpt>
<trkpt lat="45.270041953772306" lon="5.521052917465568"><ele></ele><time>2015-2-2T23:30:0Z</time></trkpt>
<trkpt lat="45.269476929679513" lon="5.520888967439532"><ele></ele><time>2015-2-2T23:30:3Z</time></trkpt>
<trkpt lat="45.268741920590401" lon="5.520661985501647"><ele></ele><time>2015-2-2T23:30:6Z</time></trkpt>
<trkpt lat="45.26824395172298" lon="5.520534999668598"><ele></ele><time>2015-2-2T23:30:9Z</time></trkpt>
<trkpt lat="45.267445994541049" lon="5.520291924476624"><ele></ele><time>2015-2-2T23:30:12Z</time></trkpt>
<trkpt lat="45.266948947682977" lon="5.52013392560184"><ele></ele><time>2015-2-2T23:30:15Z</time></trkpt>
<trkpt lat="45.266477968543768" lon="5.519927982240915"><ele></ele><time>2015-2-2T23:30:18Z</time></trkpt>
<trkpt lat="45.265850918367505" lon="5.519439987838268"><ele></ele><time>2015-2-2T23:30:21Z</time></trkpt>
<trkpt lat="45.26540994644165" lon="5.519122984260321"><ele></ele><time>2015-2-2T23:30:24Z</time></trkpt>
<trkpt lat="45.264977943152189" lon="5.518779996782541"><ele></ele><time>2015-2-2T23:30:27Z</time></trkpt>
<trkpt lat="45.264533953741193" lon="5.518451929092407"><ele></ele><time>2015-2-2T23:30:30Z</time></trkpt>
<trkpt lat="45.263977982103825" lon="5.518062924966216"><ele></ele><time>2015-2-2T23:30:33Z</time></trkpt>
<trkpt lat="45.26345394551754" lon="5.517706945538521"><ele></ele><time>2015-2-2T23:30:36Z</time></trkpt>
<trkpt lat="45.263022948056459" lon="5.517391953617334"><ele></ele><time>2015-2-2T23:30:39Z</time></trkpt>
<trkpt lat="45.262611983343959" lon="5.517115937545896"><ele></ele><time>2015-2-2T23:30:42Z</time></trkpt>
<trkpt lat="45.261701960116625" lon="5.516486959531903"><ele></ele><time>2015-2-2T23:30:45Z</time></trkpt>
<trkpt lat="45.261237937957048" lon="5.516077922657132"><ele></ele><time>2015-2-2T23:30:48Z</time></trkpt>
<trkpt lat="45.260794954374433" lon="5.515656983479857"><ele></ele><time>2015-2-2T23:30:51Z</time></trkpt>
<trkpt lat="45.260151978582144" lon="5.514982994645834"><ele></ele><time>2015-2-2T23:30:54Z</time></trkpt>
<trkpt lat="45.259662978351116" lon="5.514481924474239"><ele></ele><time>2015-2-2T23:30:57Z</time></trkpt>
<trkpt lat="45.259295934811234" lon="5.514109935611486"><ele></ele><time>2015-2-2T23:31:0Z</time></trkpt>
<trkpt lat="45.258704926818609" lon="5.513572990894318"><ele></ele><time>2015-2-2T23:31:3Z</time></trkpt>
<trkpt lat="45.258221961557865" lon="5.513087930157781"><ele></ele><time>2015-2-2T23:31:6Z</time></trkpt>
<trkpt lat="45.257768919691443" lon="5.5126569326967"><ele></ele><time>2015-2-2T23:31:9Z</time></trkpt>
<trkpt lat="45.257232980802655" lon="5.512110935524106"><ele></ele><time>2015-2-2T23:31:12Z</time></trkpt>
<trkpt lat="45.256863925606012" lon="5.511707933619618"><ele></ele><time>2015-2-2T23:31:15Z</time></trkpt>
<trkpt lat="45.256465952843428" lon="5.511325970292091"><ele></ele><time>2015-2-2T23:31:18Z</time></trkpt>
<trkpt lat="45.25576195679605" lon="5.51065793260932"><ele></ele><time>2015-2-2T23:31:21Z</time></trkpt>
<trkpt lat="45.255319979041815" lon="5.510218972340226"><ele></ele><time>2015-2-2T23:31:24Z</time></trkpt>
<trkpt lat="45.254722936078906" lon="5.509631987661123"><ele></ele><time>2015-2-2T23:31:27Z</time></trkpt>
<trkpt lat="45.254222955554724" lon="5.509135946631432"><ele></ele><time>2015-2-2T23:31:30Z</time></trkpt>
<trkpt lat="45.253748958930373" lon="5.508670918643475"><ele></ele><time>2015-2-2T23:31:33Z</time></trkpt>
<trkpt lat="45.253255935385823" lon="5.508187953382731"><ele></ele><time>2015-2-2T23:31:36Z</time></trkpt>
<trkpt lat="45.252835918217897" lon="5.507782939821482"><ele></ele><time>2015-2-2T23:31:39Z</time></trkpt>
<trkpt lat="45.25243098847568" lon="5.507448920980096"><ele></ele><time>2015-2-2T23:31:42Z</time></trkpt>
<trkpt lat="45.252027986571193" lon="5.507075926288962"><ele></ele><time>2015-2-2T23:31:45Z</time></trkpt>
<trkpt lat="45.251475954428315" lon="5.506606958806515"><ele></ele><time>2015-2-2T23:31:48Z</time></trkpt>
<trkpt lat="45.250912941992283" lon="5.506129944697022"><ele></ele><time>2015-2-2T23:31:51Z</time></trkpt>
<trkpt lat="45.250439951196313" lon="5.505827944725752"><ele></ele><time>2015-2-2T23:31:54Z</time></trkpt>
<trkpt lat="45.2497239690274" lon="5.505313966423273"><ele></ele><time>2015-2-2T23:31:57Z</time></trkpt>
<trkpt lat="45.248990971595049" lon="5.504856985062361"><ele></ele><time>2015-2-2T23:32:0Z</time></trkpt>
<trkpt lat="45.248481938615441" lon="5.504546938464046"><ele></ele><time>2015-2-2T23:32:3Z</time></trkpt>
<trkpt lat="45.247664954513311" lon="5.504077970981598"><ele></ele><time>2015-2-2T23:32:6Z</time></trkpt>
<trkpt lat="45.246990965679288" lon="5.503709921613336"><ele></ele><time>2015-2-2T23:32:9Z</time></trkpt>
<trkpt lat="45.246350923553109" lon="5.503398953005672"><ele></ele><time>2015-2-2T23:32:12Z</time></trkpt>
<trkpt lat="45.245593953877687" lon="5.502992933616042"><ele></ele><time>2015-2-2T23:32:15Z</time></trkpt>
<trkpt lat="45.245142923668027" lon="5.502720940858126"><ele></ele><time>2015-2-2T23:32:18Z</time></trkpt>
<trkpt lat="45.244313953444362" lon="5.502070924267173"><ele></ele><time>2015-2-2T23:32:21Z</time></trkpt>
<trkpt lat="45.243902988731861" lon="5.501721985638142"><ele></ele><time>2015-2-2T23:32:24Z</time></trkpt>
<trkpt lat="45.243153981864452" lon="5.501065934076905"><ele></ele><time>2015-2-2T23:32:27Z</time></trkpt>
<trkpt lat="45.242693983018398" lon="5.500648934394121"><ele></ele><time>2015-2-2T23:32:30Z</time></trkpt>
<trkpt lat="45.242209928110242" lon="5.500201927497983"><ele></ele><time>2015-2-2T23:32:33Z</time></trkpt>
<trkpt lat="45.24138892069459" lon="5.49937698058784"><ele></ele><time>2015-2-2T23:32:36Z</time></trkpt>
<trkpt lat="45.24080696515739" lon="5.498741967603564"><ele></ele><time>2015-2-2T23:32:39Z</time></trkpt>
<trkpt lat="45.240386947989464" lon="5.49825799651444"><ele></ele><time>2015-2-2T23:32:42Z</time></trkpt>
<trkpt lat="45.240006996318698" lon="5.497822975739837"><ele></ele><time>2015-2-2T23:32:45Z</time></trkpt>
<trkpt lat="45.239535933360457" lon="5.497144963592291"><ele></ele><time>2015-2-2T23:32:48Z</time></trkpt>
<trkpt lat="45.239020949229598" lon="5.49619697034359"><ele></ele><time>2015-2-2T23:32:51Z</time></trkpt>
<trkpt lat="45.238718949258327" lon="5.495636975392699"><ele></ele><time>2015-2-2T23:32:54Z</time></trkpt>
<trkpt lat="45.23842298425734" lon="5.495079997926951"><ele></ele><time>2015-2-2T23:32:57Z</time></trkpt>
<trkpt lat="45.237983940169215" lon="5.494205933064222"><ele></ele><time>2015-2-2T23:33:0Z</time></trkpt>
<trkpt lat="45.237724939361215" lon="5.493683991953731"><ele></ele><time>2015-2-2T23:33:3Z</time></trkpt>
<trkpt lat="45.237285979092121" lon="5.492828954011202"><ele></ele><time>2015-2-2T23:33:6Z</time></trkpt>
<trkpt lat="45.236841989681125" lon="5.49202797934413"><ele></ele><time>2015-2-2T23:33:9Z</time></trkpt>
<trkpt lat="45.236345948651433" lon="5.491139916703105"><ele></ele><time>2015-2-2T23:33:12Z</time></trkpt>
<trkpt lat="45.235970942303538" lon="5.490454947575927"><ele></ele><time>2015-2-2T23:33:15Z</time></trkpt>
<trkpt lat="45.235551930963993" lon="5.489707952365279"><ele></ele><time>2015-2-2T23:33:18Z</time></trkpt>
<trkpt lat="45.235216990113258" lon="5.489108981564641"><ele></ele><time>2015-2-2T23:33:21Z</time></trkpt>
<trkpt lat="45.234870985150337" lon="5.488617969676852"><ele></ele><time>2015-2-2T23:33:24Z</time></trkpt>
<trkpt lat="45.2345119882375" lon="5.488041965290904"><ele></ele><time>2015-2-2T23:33:27Z</time></trkpt>
<trkpt lat="45.234202947467566" lon="5.487565957009792"><ele></ele><time>2015-2-2T23:33:30Z</time></trkpt>
<trkpt lat="45.23377999663353" lon="5.486929938197136"><ele></ele><time>2015-2-2T23:33:33Z</time></trkpt>
<trkpt lat="45.23335293866694" lon="5.48642392270267"><ele></ele><time>2015-2-2T23:33:36Z</time></trkpt>
<trkpt lat="45.232935938984156" lon="5.486000971868634"><ele></ele><time>2015-2-2T23:33:39Z</time></trkpt>
<trkpt lat="45.232359934598207" lon="5.485581960529089"><ele></ele><time>2015-2-2T23:33:42Z</time></trkpt>
<trkpt lat="45.231815949082375" lon="5.485322959721088"><ele></ele><time>2015-2-2T23:33:45Z</time></trkpt>
<trkpt lat="45.231189988553524" lon="5.485039986670017"><ele></ele><time>2015-2-2T23:33:48Z</time></trkpt>
<trkpt lat="45.230462942272425" lon="5.484883999451995"><ele></ele><time>2015-2-2T23:33:51Z</time></trkpt>
<trkpt lat="45.229590972885489" lon="5.484795989468694"><ele></ele><time>2015-2-2T23:33:54Z</time></trkpt>
<trkpt lat="45.228913966566324" lon="5.484860949218273"><ele></ele><time>2015-2-2T23:33:57Z</time></trkpt>
<trkpt lat="45.228246934711933" lon="5.484970919787884"><ele></ele><time>2015-2-2T23:34:0Z</time></trkpt>
<trkpt lat="45.227591972798109" lon="5.485104946419597"><ele></ele><time>2015-2-2T23:34:3Z</time></trkpt>
<trkpt lat="45.226817987859249" lon="5.485292952507734"><ele></ele><time>2015-2-2T23:34:6Z</time></trkpt>
<trkpt lat="45.225973930209875" lon="5.485522951930761"><ele></ele><time>2015-2-2T23:34:9Z</time></trkpt>
<trkpt lat="45.225521977990866" lon="5.485680950805545"><ele></ele><time>2015-2-2T23:34:12Z</time></trkpt>
<trkpt lat="45.2245859708637" lon="5.485757980495691"><ele></ele><time>2015-2-2T23:34:15Z</time></trkpt>
<trkpt lat="45.224075932055712" lon="5.485752951353788"><ele></ele><time>2015-2-2T23:34:18Z</time></trkpt>
<trkpt lat="45.223604952916503" lon="5.485646920278668"><ele></ele><time>2015-2-2T23:34:21Z</time></trkpt>
<trkpt lat="45.222924929112196" lon="5.485387919470668"><ele></ele><time>2015-2-2T23:34:24Z</time></trkpt>
<trkpt lat="45.222408939152956" lon="5.485001932829619"><ele></ele><time>2015-2-2T23:34:27Z</time></trkpt>
<trkpt lat="45.222054971382022" lon="5.484519973397255"><ele></ele><time>2015-2-2T23:34:30Z</time></trkpt>
<trkpt lat="45.221650963649154" lon="5.483906920999289"><ele></ele><time>2015-2-2T23:34:33Z</time></trkpt>
<trkpt lat="45.221242932602763" lon="5.483277942985296"><ele></ele><time>2015-2-2T23:34:36Z</time></trkpt>
<trkpt lat="45.220581935718656" lon="5.482191983610392"><ele></ele><time>2015-2-2T23:34:39Z</time></trkpt>
<trkpt lat="45.220246994867921" lon="5.481559988111258"><ele></ele><time>2015-2-2T23:34:42Z</time></trkpt>
<trkpt lat="45.219941977411509" lon="5.480931932106614"><ele></ele><time>2015-2-2T23:34:45Z</time></trkpt>
<trkpt lat="45.21968993358314" lon="5.480374954640865"><ele></ele><time>2015-2-2T23:34:48Z</time></trkpt>
<trkpt lat="45.21932196803391" lon="5.479558976367116"><ele></ele><time>2015-2-2T23:34:51Z</time></trkpt>
<trkpt lat="45.218861969187856" lon="5.478907953947783"><ele></ele><time>2015-2-2T23:34:54Z</time></trkpt>
<trkpt lat="45.218477994203568" lon="5.478401938453317"><ele></ele><time>2015-2-2T23:34:57Z</time></trkpt>
<trkpt lat="45.218134922906756" lon="5.477968929335475"><ele></ele><time>2015-2-2T23:35:0Z</time></trkpt>
<trkpt lat="45.217680959030986" lon="5.47746391966939"><ele></ele><time>2015-2-2T23:35:3Z</time></trkpt>
<trkpt lat="45.217192964628339" lon="5.477018924430013"><ele></ele><time>2015-2-2T23:35:6Z</time></trkpt>
<trkpt lat="45.216748975217342" lon="5.476638972759247"><ele></ele><time>2015-2-2T23:35:9Z</time></trkpt>
<trkpt lat="45.215949928388" lon="5.475996918976307"><ele></ele><time>2015-2-2T23:35:12Z</time></trkpt>
<trkpt lat="45.215461933985353" lon="5.475573968142271"><ele></ele><time>2015-2-2T23:35:15Z</time></trkpt>
<trkpt lat="45.214973939582705" lon="5.475158980116248"><ele></ele><time>2015-2-2T23:35:18Z</time></trkpt>
<trkpt lat="45.214563980698586" lon="5.474758995696902"><ele></ele><time>2015-2-2T23:35:21Z</time></trkpt>
<trkpt lat="45.213873982429504" lon="5.474021974951029"><ele></ele><time>2015-2-2T23:35:24Z</time></trkpt>
<trkpt lat="45.2131989877671" lon="5.473148999735713"><ele></ele><time>2015-2-2T23:35:27Z</time></trkpt>
<trkpt lat="45.212785927578807" lon="5.472500994801521"><ele></ele><time>2015-2-2T23:35:30Z</time></trkpt>
<trkpt lat="45.212438916787505" lon="5.471977964043617"><ele></ele><time>2015-2-2T23:35:33Z</time></trkpt>
<trkpt lat="45.212009930983186" lon="5.471306992694736"><ele></ele><time>2015-2-2T23:35:36Z</time></trkpt>
<trkpt lat="45.211670966818929" lon="5.470794942229986"><ele></ele><time>2015-2-2T23:35:39Z</time></trkpt>
<trkpt lat="45.211347928270698" lon="5.470297979190946"><ele></ele><time>2015-2-2T23:35:42Z</time></trkpt>
<trkpt lat="45.210810983553529" lon="5.469483928754926"><ele></ele><time>2015-2-2T23:35:45Z</time></trkpt>
<trkpt lat="45.210496997460723" lon="5.46901797875762"><ele></ele><time>2015-2-2T23:35:48Z</time></trkpt>
<trkpt lat="45.210141940042377" lon="5.468480950221419"><ele></ele><time>2015-2-2T23:35:51Z</time></trkpt>
<trkpt lat="45.209552943706512" lon="5.467594983056188"><ele></ele><time>2015-2-2T23:35:54Z</time></trkpt>
<trkpt lat="45.209020944312215" lon="5.46671899035573"><ele></ele><time>2015-2-2T23:35:57Z</time></trkpt>
<trkpt lat="45.20877099595964" lon="5.466173999011517"><ele></ele><time>2015-2-2T23:36:0Z</time></trkpt>
<trkpt lat="45.208333963528275" lon="5.466497959569097"><ele></ele><time>2015-2-2T23:36:3Z</time></trkpt>
<trkpt lat="45.207775980234146" lon="5.467354925349355"><ele></ele><time>2015-2-2T23:36:6Z</time></trkpt>
<trkpt lat="45.207339953631163" lon="5.467144958674908"><ele></ele><time>2015-2-2T23:36:9Z</time></trkpt>
<trkpt lat="45.206959918141365" lon="5.466500977054238"><ele></ele><time>2015-2-2T23:36:12Z</time></trkpt>
<trkpt lat="45.206511989235878" lon="5.465758927166462"><ele></ele><time>2015-2-2T23:36:15Z</time></trkpt>
<trkpt lat="45.206181993708014" lon="5.465206978842616"><ele></ele><time>2015-2-2T23:36:18Z</time></trkpt>
<trkpt lat="45.205851998180151" lon="5.464652935042977"><ele></ele><time>2015-2-2T23:36:21Z</time></trkpt>
<trkpt lat="45.205479925498366" lon="5.464304918423295"><ele></ele><time>2015-2-2T23:36:24Z</time></trkpt>
<trkpt lat="45.20488397218287" lon="5.46484999358654"><ele></ele><time>2015-2-2T23:36:27Z</time></trkpt>
<trkpt lat="45.204361947253346" lon="5.465056942775846"><ele></ele><time>2015-2-2T23:36:30Z</time></trkpt>
<trkpt lat="45.203925920650363" lon="5.464841946959496"><ele></ele><time>2015-2-2T23:36:33Z</time></trkpt>
<trkpt lat="45.203216979280114" lon="5.464621922001243"><ele></ele><time>2015-2-2T23:36:36Z</time></trkpt>
<trkpt lat="45.202775923535228" lon="5.464454954490066"><ele></ele><time>2015-2-2T23:36:39Z</time></trkpt>
<trkpt lat="45.202315924689174" lon="5.464197965338826"><ele></ele><time>2015-2-2T23:36:42Z</time></trkpt>
<trkpt lat="45.201977966353297" lon="5.463747940957546"><ele></ele><time>2015-2-2T23:36:45Z</time></trkpt>
<trkpt lat="45.201642941683531" lon="5.463159950450063"><ele></ele><time>2015-2-2T23:36:48Z</time></trkpt>
<trkpt lat="45.201237928122282" lon="5.462475987151265"><ele></ele><time>2015-2-2T23:36:51Z</time></trkpt>
<trkpt lat="45.20078094676137" lon="5.461664954200387"><ele></ele><time>2015-2-2T23:36:54Z</time></trkpt>
<trkpt lat="45.200475929304957" lon="5.460986942052841"><ele></ele><time>2015-2-2T23:36:57Z</time></trkpt>
<trkpt lat="45.200514988973737" lon="5.460035931318998"><ele></ele><time>2015-2-2T23:37:0Z</time></trkpt>
<trkpt lat="45.20037199370563" lon="5.45920193195343"><ele></ele><time>2015-2-2T23:37:3Z</time></trkpt>
<trkpt lat="45.200129924342036" lon="5.458581922575831"><ele></ele><time>2015-2-2T23:37:6Z</time></trkpt>
<trkpt lat="45.199709990993142" lon="5.457726968452334"><ele></ele><time>2015-2-2T23:37:9Z</time></trkpt>
<trkpt lat="45.199187966063619" lon="5.457009980455041"><ele></ele><time>2015-2-2T23:37:12Z</time></trkpt>
<trkpt lat="45.198733918368816" lon="5.456497929990292"><ele></ele><time>2015-2-2T23:37:15Z</time></trkpt>
<trkpt lat="45.19832999445498" lon="5.456059975549579"><ele></ele><time>2015-2-2T23:37:18Z</time></trkpt>
<trkpt lat="45.197724988684058" lon="5.455442983657122"><ele></ele><time>2015-2-2T23:37:21Z</time></trkpt>
<trkpt lat="45.197083940729499" lon="5.454666987061501"><ele></ele><time>2015-2-2T23:37:24Z</time></trkpt>
<trkpt lat="45.19641799852252" lon="5.453744977712631"><ele></ele><time>2015-2-2T23:37:27Z</time></trkpt>
<trkpt lat="45.195857919752598" lon="5.452943919226527"><ele></ele><time>2015-2-2T23:37:30Z</time></trkpt>
<trkpt lat="45.195480985566974" lon="5.452490961179137"><ele></ele><time>2015-2-2T23:37:33Z</time></trkpt>
<trkpt lat="45.194970946758986" lon="5.452086953446269"><ele></ele><time>2015-2-2T23:37:36Z</time></trkpt>
<trkpt lat="45.194563921540976" lon="5.451688980683684"><ele></ele><time>2015-2-2T23:37:39Z</time></trkpt>
<trkpt lat="45.194210959598422" lon="5.451023960486054"><ele></ele><time>2015-2-2T23:37:42Z</time></trkpt>
<trkpt lat="45.193986995145679" lon="5.450406968593597"><ele></ele><time>2015-2-2T23:37:45Z</time></trkpt>
<trkpt lat="45.193718941882253" lon="5.449405917897821"><ele></ele><time>2015-2-2T23:37:48Z</time></trkpt>
<trkpt lat="45.193497994914651" lon="5.448340997099876"><ele></ele><time>2015-2-2T23:37:51Z</time></trkpt>
<trkpt lat="45.193117959424853" lon="5.447236932814121"><ele></ele><time>2015-2-2T23:37:54Z</time></trkpt>
<trkpt lat="45.192880919203162" lon="5.44669495895505"><ele></ele><time>2015-2-2T23:37:57Z</time></trkpt>
<trkpt lat="45.192609932273626" lon="5.446076961234212"><ele></ele><time>2015-2-2T23:38:0Z</time></trkpt>
<trkpt lat="45.192378927022219" lon="5.445473967120051"><ele></ele><time>2015-2-2T23:38:3Z</time></trkpt>
<trkpt lat="45.192141970619559" lon="5.444851946085692"><ele></ele><time>2015-2-2T23:38:6Z</time></trkpt>
<trkpt lat="45.191872995346785" lon="5.444151973351836"><ele></ele><time>2015-2-2T23:38:9Z</time></trkpt>
<trkpt lat="45.19154098816216" lon="5.4431729670614"><ele></ele><time>2015-2-2T23:38:12Z</time></trkpt>
<trkpt lat="45.191259942948818" lon="5.442590927705169"><ele></ele><time>2015-2-2T23:38:15Z</time></trkpt>
<trkpt lat="45.190671952441335" lon="5.441858936101198"><ele></ele><time>2015-2-2T23:38:18Z</time></trkpt>
<trkpt lat="45.190078932791948" lon="5.441263988614082"><ele></ele><time>2015-2-2T23:38:21Z</time></trkpt>
<trkpt lat="45.189626980572939" lon="5.440562926232815"><ele></ele><time>2015-2-2T23:38:24Z</time></trkpt>
<trkpt lat="45.18934995867312" lon="5.439864965155721"><ele></ele><time>2015-2-2T23:38:27Z</time></trkpt>
<trkpt lat="45.189218949526548" lon="5.439208997413516"><ele></ele><time>2015-2-2T23:38:30Z</time></trkpt>
<trkpt lat="45.188921978697181" lon="5.438669957220554"><ele></ele><time>2015-2-2T23:38:33Z</time></trkpt>
<trkpt lat="45.188421998172998" lon="5.43827299028635"><ele></ele><time>2015-2-2T23:38:36Z</time></trkpt>
<trkpt lat="45.187924951314926" lon="5.437350980937481"><ele></ele><time>2015-2-2T23:38:39Z</time></trkpt>
<trkpt lat="45.187621945515275" lon="5.436573978513479"><ele></ele><time>2015-2-2T23:38:42Z</time></trkpt>
<trkpt lat="45.187422959133983" lon="5.435973918065429"><ele></ele><time>2015-2-2T23:38:45Z</time></trkpt>
<trkpt lat="45.187125988304615" lon="5.435385927557945"><ele></ele><time>2015-2-2T23:38:48Z</time></trkpt>
<trkpt lat="45.186502961441875" lon="5.435019973665476"><ele></ele><time>2015-2-2T23:38:51Z</time></trkpt>
<trkpt lat="45.186096942052245" lon="5.433767968788743"><ele></ele><time>2015-2-2T23:38:54Z</time></trkpt>
<trkpt lat="45.185886975377798" lon="5.432949978858233"><ele></ele><time>2015-2-2T23:38:57Z</time></trkpt>
<trkpt lat="45.185436950996518" lon="5.432141963392496"><ele></ele><time>2015-2-2T23:39:0Z</time></trkpt>
<trkpt lat="45.184913920238614" lon="5.431487923488021"><ele></ele><time>2015-2-2T23:39:3Z</time></trkpt>
<trkpt lat="45.184435984119773" lon="5.430594999343157"><ele></ele><time>2015-2-2T23:39:6Z</time></trkpt>
<trkpt lat="45.184112945571542" lon="5.429474925622344"><ele></ele><time>2015-2-2T23:39:9Z</time></trkpt>
<trkpt lat="45.183966932818294" lon="5.428773947060108"><ele></ele><time>2015-2-2T23:39:12Z</time></trkpt>
<trkpt lat="45.183812957257032" lon="5.428073974326253"><ele></ele><time>2015-2-2T23:39:15Z</time></trkpt>
<trkpt lat="45.183640960603952" lon="5.427377941086888"><ele></ele><time>2015-2-2T23:39:18Z</time></trkpt>
<trkpt lat="45.183500982820988" lon="5.426767989993095"><ele></ele><time>2015-2-2T23:39:21Z</time></trkpt>
<trkpt lat="45.183282969519496" lon="5.425826953724027"><ele></ele><time>2015-2-2T23:39:24Z</time></trkpt>
<trkpt lat="45.183049952611327" lon="5.42516796849668"><ele></ele><time>2015-2-2T23:39:27Z</time></trkpt>
<trkpt lat="45.182630941271782" lon="5.424278983846307"><ele></ele><time>2015-2-2T23:39:30Z</time></trkpt>
<trkpt lat="45.182157950475812" lon="5.423377929255366"><ele></ele><time>2015-2-2T23:39:33Z</time></trkpt>
<trkpt lat="45.181857962161303" lon="5.422433959320188"><ele></ele><time>2015-2-2T23:39:36Z</time></trkpt>
<trkpt lat="45.181612959131598" lon="5.421894919127226"><ele></ele><time>2015-2-2T23:39:39Z</time></trkpt>
<trkpt lat="45.181201994419098" lon="5.421314975246787"><ele></ele><time>2015-2-2T23:39:42Z</time></trkpt>
<trkpt lat="45.180774936452508" lon="5.420854976400733"><ele></ele><time>2015-2-2T23:39:45Z</time></trkpt>
<trkpt lat="45.18043396063149" lon="5.420320965349674"><ele></ele><time>2015-2-2T23:39:48Z</time></trkpt>
<trkpt lat="45.180005980655551" lon="5.419438937678933"><ele></ele><time>2015-2-2T23:39:51Z</time></trkpt>
<trkpt lat="45.17957498319447" lon="5.418740976601839"><ele></ele><time>2015-2-2T23:39:54Z</time></trkpt>
<trkpt lat="45.17886696383357" lon="5.418044943362474"><ele></ele><time>2015-2-2T23:39:57Z</time></trkpt>
<trkpt lat="45.178409982472658" lon="5.417599948123097"><ele></ele><time>2015-2-2T23:40:0Z</time></trkpt>
<trkpt lat="45.178007986396551" lon="5.417278921231628"><ele></ele><time>2015-2-2T23:40:3Z</time></trkpt>
<trkpt lat="45.177526948973536" lon="5.416850941255689"><ele></ele><time>2015-2-2T23:40:6Z</time></trkpt>
<trkpt lat="45.177099974825978" lon="5.416550952941179"><ele></ele><time>2015-2-2T23:40:9Z</time></trkpt>
<trkpt lat="45.176328923553228" lon="5.416079973801971"><ele></ele><time>2015-2-2T23:40:12Z</time></trkpt>
<trkpt lat="45.175905972719193" lon="5.415837988257408"><ele></ele><time>2015-2-2T23:40:15Z</time></trkpt>
<trkpt lat="45.175297949463129" lon="5.415470944717526"><ele></ele><time>2015-2-2T23:40:18Z</time></trkpt>
<trkpt lat="45.174818923696876" lon="5.415188977494836"><ele></ele><time>2015-2-2T23:40:21Z</time></trkpt>
<trkpt lat="45.174364959821105" lon="5.41492092423141"><ele></ele><time>2015-2-2T23:40:24Z</time></trkpt>
<trkpt lat="45.173915941268206" lon="5.414655972272158"><ele></ele><time>2015-2-2T23:40:27Z</time></trkpt>
<trkpt lat="45.173389976844192" lon="5.414344919845462"><ele></ele><time>2015-2-2T23:40:30Z</time></trkpt>
<trkpt lat="45.172790922224522" lon="5.413937978446484"><ele></ele><time>2015-2-2T23:40:33Z</time></trkpt>
<trkpt lat="45.172252971678972" lon="5.413475967943668"><ele></ele><time>2015-2-2T23:40:36Z</time></trkpt>
<trkpt lat="45.171835971996188" lon="5.41309392079711"><ele></ele><time>2015-2-2T23:40:39Z</time></trkpt>
<trkpt lat="45.171370944008231" lon="5.412665940821171"><ele></ele><time>2015-2-2T23:40:42Z</time></trkpt>
<trkpt lat="45.170952938497066" lon="5.412279954180121"><ele></ele><time>2015-2-2T23:40:45Z</time></trkpt>
<trkpt lat="45.170299988240004" lon="5.41152399033308"><ele></ele><time>2015-2-2T23:40:48Z</time></trkpt>
<trkpt lat="45.169947948306799" lon="5.411079917103052"><ele></ele><time>2015-2-2T23:40:51Z</time></trkpt>
<trkpt lat="45.169350989162922" lon="5.410335939377546"><ele></ele><time>2015-2-2T23:40:54Z</time></trkpt>
<trkpt lat="45.168827958405018" lon="5.40956798940897"><ele></ele><time>2015-2-2T23:40:57Z</time></trkpt>
<trkpt lat="45.16855294816196" lon="5.408456968143582"><ele></ele><time>2015-2-2T23:41:0Z</time></trkpt>
<trkpt lat="45.16850994899869" lon="5.407691951841116"><ele></ele><time>2015-2-2T23:41:3Z</time></trkpt>
<trkpt lat="45.168456975370646" lon="5.406911931931973"><ele></ele><time>2015-2-2T23:41:6Z</time></trkpt>
<trkpt lat="45.168342981487513" lon="5.406084973365068"><ele></ele><time>2015-2-2T23:41:9Z</time></trkpt>
<trkpt lat="45.168155981227756" lon="5.405348958447576"><ele></ele><time>2015-2-2T23:41:12Z</time></trkpt>
<trkpt lat="45.167909972369671" lon="5.40473791770637"><ele></ele><time>2015-2-2T23:41:15Z</time></trkpt>
<trkpt lat="45.167418960481882" lon="5.403689928352833"><ele></ele><time>2015-2-2T23:41:18Z</time></trkpt>
<trkpt lat="45.166917974129319" lon="5.40262995287776"><ele></ele><time>2015-2-2T23:41:21Z</time></trkpt>
<trkpt lat="45.166474990546703" lon="5.401734933257103"><ele></ele><time>2015-2-2T23:41:24Z</time></trkpt>
<trkpt lat="45.166099984198809" lon="5.401086928322911"><ele></ele><time>2015-2-2T23:41:27Z</time></trkpt>
<trkpt lat="45.165524985641241" lon="5.400170953944325"><ele></ele><time>2015-2-2T23:41:30Z</time></trkpt>
<trkpt lat="45.16483792103827" lon="5.399088934063911"><ele></ele><time>2015-2-2T23:41:33Z</time></trkpt>
<trkpt lat="45.164398960769176" lon="5.398409999907017"><ele></ele><time>2015-2-2T23:41:36Z</time></trkpt>
<trkpt lat="45.163839971646667" lon="5.397470975294709"><ele></ele><time>2015-2-2T23:41:39Z</time></trkpt>
<trkpt lat="45.163384918123484" lon="5.396670922636986"><ele></ele><time>2015-2-2T23:41:42Z</time></trkpt>
<trkpt lat="45.16283892095089" lon="5.395744973793626"><ele></ele><time>2015-2-2T23:41:45Z</time></trkpt>
<trkpt lat="45.16223793849349" lon="5.39472296833992"><ele></ele><time>2015-2-2T23:41:48Z</time></trkpt>
<trkpt lat="45.161691941320896" lon="5.393786961212754"><ele></ele><time>2015-2-2T23:41:51Z</time></trkpt>
<trkpt lat="45.161172933876514" lon="5.392791945487261"><ele></ele><time>2015-2-2T23:41:54Z</time></trkpt>
<trkpt lat="45.160575974732637" lon="5.391546981409192"><ele></ele><time>2015-2-2T23:41:57Z</time></trkpt>
<trkpt lat="45.160125950351357" lon="5.39079294539988"><ele></ele><time>2015-2-2T23:42:0Z</time></trkpt>
<trkpt lat="45.159451961517334" lon="5.389838917180896"><ele></ele><time>2015-2-2T23:42:3Z</time></trkpt>
<trkpt lat="45.15892893075943" lon="5.389079935848713"><ele></ele><time>2015-2-2T23:42:6Z</time></trkpt>
<trkpt lat="45.158419981598854" lon="5.38821391761303"><ele></ele><time>2015-2-2T23:42:9Z</time></trkpt>
<trkpt lat="45.157963922247291" lon="5.387281933799386"><ele></ele><time>2015-2-2T23:42:12Z</time></trkpt>
<trkpt lat="45.157498978078365" lon="5.386312985792756"><ele></ele><time>2015-2-2T23:42:15Z</time></trkpt>
<trkpt lat="45.156893972307444" lon="5.385057963430882"><ele></ele><time>2015-2-2T23:42:18Z</time></trkpt>
<trkpt lat="45.15651997178793" lon="5.384423956274986"><ele></ele><time>2015-2-2T23:42:21Z</time></trkpt>
<trkpt lat="45.155797954648733" lon="5.383436987176538"><ele></ele><time>2015-2-2T23:42:24Z</time></trkpt>
<trkpt lat="45.155303925275803" lon="5.382741959765554"><ele></ele><time>2015-2-2T23:42:27Z</time></trkpt>
<trkpt lat="45.154997985810041" lon="5.382168972864747"><ele></ele><time>2015-2-2T23:42:30Z</time></trkpt>
<trkpt lat="45.154575956985354" lon="5.381303960457444"><ele></ele><time>2015-2-2T23:42:33Z</time></trkpt>
<trkpt lat="45.153989978134632" lon="5.380200985819101"><ele></ele><time>2015-2-2T23:42:36Z</time></trkpt>
<trkpt lat="45.153268966823816" lon="5.379497995600104"><ele></ele><time>2015-2-2T23:42:39Z</time></trkpt>
<trkpt lat="45.152528928592801" lon="5.379090970382094"><ele></ele><time>2015-2-2T23:42:42Z</time></trkpt>
<trkpt lat="45.151981925591826" lon="5.37880196236074"><ele></ele><time>2015-2-2T23:42:45Z</time></trkpt>
<trkpt lat="45.151246916502714" lon="5.378388985991478"><ele></ele><time>2015-2-2T23:42:48Z</time></trkpt>
<trkpt lat="45.150578962638974" lon="5.377943990752101"><ele></ele><time>2015-2-2T23:42:51Z</time></trkpt>
<trkpt lat="45.15005199238658" lon="5.377506958320737"><ele></ele><time>2015-2-2T23:42:54Z</time></trkpt>
<trkpt lat="45.149629963561893" lon="5.377134969457984"><ele></ele><time>2015-2-2T23:42:57Z</time></trkpt>
<trkpt lat="45.149247916415334" lon="5.376789970323443"><ele></ele><time>2015-2-2T23:43:0Z</time></trkpt>
<trkpt lat="45.14867995865643" lon="5.376283954828978"><ele></ele><time>2015-2-2T23:43:3Z</time></trkpt>
<trkpt lat="45.148282991722226" lon="5.375952953472734"><ele></ele><time>2015-2-2T23:43:6Z</time></trkpt>
<trkpt lat="45.147653929889202" lon="5.375418942421675"><ele></ele><time>2015-2-2T23:43:9Z</time></trkpt>
<trkpt lat="45.147137939929962" lon="5.374988950788975"><ele></ele><time>2015-2-2T23:43:12Z</time></trkpt>
<trkpt lat="45.14653293415904" lon="5.374266933649778"><ele></ele><time>2015-2-2T23:43:15Z</time></trkpt>
<trkpt lat="45.146103948354721" lon="5.3738599922508"><ele></ele><time>2015-2-2T23:43:18Z</time></trkpt>
<trkpt lat="45.145356953144073" lon="5.373419942334294"><ele></ele><time>2015-2-2T23:43:21Z</time></trkpt>
<trkpt lat="45.144681958481669" lon="5.372902946546674"><ele></ele><time>2015-2-2T23:43:24Z</time></trkpt>
<trkpt lat="45.144244926050305" lon="5.372378993779421"><ele></ele><time>2015-2-2T23:43:27Z</time></trkpt>
<trkpt lat="45.143763972446322" lon="5.371805923059583"><ele></ele><time>2015-2-2T23:43:30Z</time></trkpt>
<trkpt lat="45.143022928386927" lon="5.370915932580829"><ele></ele><time>2015-2-2T23:43:33Z</time></trkpt>
<trkpt lat="45.142030930146575" lon="5.369738945737481"><ele></ele><time>2015-2-2T23:43:36Z</time></trkpt>
<trkpt lat="45.14146096073091" lon="5.369062945246697"><ele></ele><time>2015-2-2T23:43:39Z</time></trkpt>
<trkpt lat="45.140764927491546" lon="5.368232969194651"><ele></ele><time>2015-2-2T23:43:42Z</time></trkpt>
<trkpt lat="45.140030924230814" lon="5.36737097427249"><ele></ele><time>2015-2-2T23:43:45Z</time></trkpt>
<trkpt lat="45.139291975647211" lon="5.366499926894903"><ele></ele><time>2015-2-2T23:43:48Z</time></trkpt>
<trkpt lat="45.138671966269612" lon="5.365788973867893"><ele></ele><time>2015-2-2T23:43:51Z</time></trkpt>
<trkpt lat="45.138181960210204" lon="5.36532998085022"><ele></ele><time>2015-2-2T23:43:54Z</time></trkpt>
<trkpt lat="45.137368999421597" lon="5.364589942619205"><ele></ele><time>2015-2-2T23:43:57Z</time></trkpt>
<trkpt lat="45.136728957295418" lon="5.363907990977168"><ele></ele><time>2015-2-2T23:44:0Z</time></trkpt>
<trkpt lat="45.136208944022655" lon="5.363346990197897"><ele></ele><time>2015-2-2T23:44:3Z</time></trkpt>
<trkpt lat="45.135806947946548" lon="5.362925967201591"><ele></ele><time>2015-2-2T23:44:6Z</time></trkpt>
<trkpt lat="45.135352984070778" lon="5.362539980560541"><ele></ele><time>2015-2-2T23:44:9Z</time></trkpt>
<trkpt lat="45.134624931961298" lon="5.36200094036758"><ele></ele><time>2015-2-2T23:44:12Z</time></trkpt>
<trkpt lat="45.133969970047474" lon="5.361519986763597"><ele></ele><time>2015-2-2T23:44:15Z</time></trkpt>
<trkpt lat="45.133035974577069" lon="5.360818924382329"><ele></ele><time>2015-2-2T23:44:18Z</time></trkpt>
<trkpt lat="45.132332984358072" lon="5.360296983271837"><ele></ele><time>2015-2-2T23:44:21Z</time></trkpt>
<trkpt lat="45.131728984415531" lon="5.359545964747667"><ele></ele><time>2015-2-2T23:44:24Z</time></trkpt>
<trkpt lat="45.131236966699362" lon="5.358130931854248"><ele></ele><time>2015-2-2T23:44:27Z</time></trkpt>
<trkpt lat="45.130883920937777" lon="5.357023933902383"><ele></ele><time>2015-2-2T23:44:30Z</time></trkpt>
<trkpt lat="45.130492988973856" lon="5.356097985059023"><ele></ele><time>2015-2-2T23:44:33Z</time></trkpt>
<trkpt lat="45.129743982106447" lon="5.35456795245409"><ele></ele><time>2015-2-2T23:44:36Z</time></trkpt>
<trkpt lat="45.128129962831736" lon="5.351671921089292"><ele></ele><time>2015-2-2T23:44:39Z</time></trkpt>
<trkpt lat="45.127736935392022" lon="5.350781930610538"><ele></ele><time>2015-2-2T23:44:42Z</time></trkpt>
<trkpt lat="45.126857925206423" lon="5.348836993798614"><ele></ele><time>2015-2-2T23:44:45Z</time></trkpt>
<trkpt lat="45.126600936055183" lon="5.348178930580616"><ele></ele><time>2015-2-2T23:44:48Z</time></trkpt>
<trkpt lat="45.126052927225828" lon="5.345260938629508"><ele></ele><time>2015-2-2T23:44:51Z</time></trkpt>
<trkpt lat="45.125859975814819" lon="5.343984961509705"><ele></ele><time>2015-2-2T23:44:54Z</time></trkpt>
<trkpt lat="45.125719998031855" lon="5.343052977696061"><ele></ele><time>2015-2-2T23:44:57Z</time></trkpt>
<trkpt lat="45.125565938651562" lon="5.342055950313807"><ele></ele><time>2015-2-2T23:45:0Z</time></trkpt>
<trkpt lat="45.125441970303655" lon="5.341119943186641"><ele></ele><time>2015-2-2T23:45:3Z</time></trkpt>
<trkpt lat="45.125349937006831" lon="5.340396920219064"><ele></ele><time>2015-2-2T23:45:6Z</time></trkpt>
<trkpt lat="45.125193949788809" lon="5.339350942522287"><ele></ele><time>2015-2-2T23:45:9Z</time></trkpt>
<trkpt lat="45.125054977834225" lon="5.338500933721662"><ele></ele><time>2015-2-2T23:45:12Z</time></trkpt>
<trkpt lat="45.124886920675635" lon="5.337523939087987"><ele></ele><time>2015-2-2T23:45:15Z</time></trkpt>
<trkpt lat="45.124727999791503" lon="5.336695974692702"><ele></ele><time>2015-2-2T23:45:18Z</time></trkpt>
<trkpt lat="45.124280992895365" lon="5.335859963670373"><ele></ele><time>2015-2-2T23:45:21Z</time></trkpt>
<trkpt lat="45.123416986316442" lon="5.335106933489442"><ele></ele><time>2015-2-2T23:45:24Z</time></trkpt>
<trkpt lat="45.12300593778491" lon="5.334763946011663"><ele></ele><time>2015-2-2T23:45:27Z</time></trkpt>
<trkpt lat="45.122616933658719" lon="5.334436967968941"><ele></ele><time>2015-2-2T23:45:30Z</time></trkpt>
<trkpt lat="45.122212925925851" lon="5.334086939692497"><ele></ele><time>2015-2-2T23:45:33Z</time></trkpt>
<trkpt lat="45.121674975380301" lon="5.33348897472024"><ele></ele><time>2015-2-2T23:45:36Z</time></trkpt>
<trkpt lat="45.121346991509199" lon="5.333050936460495"><ele></ele><time>2015-2-2T23:45:39Z</time></trkpt>
<trkpt lat="45.120971985161304" lon="5.332521954551339"><ele></ele><time>2015-2-2T23:45:42Z</time></trkpt>
<trkpt lat="45.120607959106565" lon="5.332023985683918"><ele></ele><time>2015-2-2T23:45:45Z</time></trkpt>
<trkpt lat="45.120243933051825" lon="5.331521993502975"><ele></ele><time>2015-2-2T23:45:48Z</time></trkpt>
<trkpt lat="45.119816958904266" lon="5.330944983288646"><ele></ele><time>2015-2-2T23:45:51Z</time></trkpt>
<trkpt lat="45.119322929531336" lon="5.330269988626242"><ele></ele><time>2015-2-2T23:45:54Z</time></trkpt>
<trkpt lat="45.118906935676932" lon="5.329696917906404"><ele></ele><time>2015-2-2T23:45:57Z</time></trkpt>
<trkpt lat="45.118508962914348" lon="5.329152932390571"><ele></ele><time>2015-2-2T23:46:0Z</time></trkpt>
<trkpt lat="45.11812892742455" lon="5.32863199710846"><ele></ele><time>2015-2-2T23:46:3Z</time></trkpt>
<trkpt lat="45.117674963548779" lon="5.328012993559241"><ele></ele><time>2015-2-2T23:46:6Z</time></trkpt>
<trkpt lat="45.117290988564491" lon="5.327483927831054"><ele></ele><time>2015-2-2T23:46:9Z</time></trkpt>
<trkpt lat="45.116755971685052" lon="5.327347973361611"><ele></ele><time>2015-2-2T23:46:12Z</time></trkpt>
<trkpt lat="45.116069996729493" lon="5.327446963638067"><ele></ele><time>2015-2-2T23:46:15Z</time></trkpt>
<trkpt lat="45.115595916286111" lon="5.327479988336563"><ele></ele><time>2015-2-2T23:46:18Z</time></trkpt>
<trkpt lat="45.115102976560593" lon="5.327331963926554"><ele></ele><time>2015-2-2T23:46:21Z</time></trkpt>
<trkpt lat="45.114666949957609" lon="5.327178994193673"><ele></ele><time>2015-2-2T23:46:24Z</time></trkpt>
<trkpt lat="45.114179961383343" lon="5.326994927600026"><ele></ele><time>2015-2-2T23:46:27Z</time></trkpt>
<trkpt lat="45.113606974482536" lon="5.326882945373654"><ele></ele><time>2015-2-2T23:46:30Z</time></trkpt>
<trkpt lat="45.113194920122623" lon="5.326460916548967"><ele></ele><time>2015-2-2T23:46:33Z</time></trkpt>
<trkpt lat="45.112787978723645" lon="5.326143996790052"><ele></ele><time>2015-2-2T23:46:36Z</time></trkpt>
<trkpt lat="45.112344995141029" lon="5.325960936024785"><ele></ele><time>2015-2-2T23:46:39Z</time></trkpt>
<trkpt lat="45.111584924161434" lon="5.325669916346669"><ele></ele><time>2015-2-2T23:46:42Z</time></trkpt>
<trkpt lat="45.110907917842269" lon="5.325314942747355"><ele></ele><time>2015-2-2T23:46:45Z</time></trkpt>
<trkpt lat="45.110074924305081" lon="5.324757965281606"><ele></ele><time>2015-2-2T23:46:48Z</time></trkpt>
<trkpt lat="45.109589947387576" lon="5.324435932561755"><ele></ele><time>2015-2-2T23:46:51Z</time></trkpt>
<trkpt lat="45.109055936336517" lon="5.324221942573786"><ele></ele><time>2015-2-2T23:46:54Z</time></trkpt>
<trkpt lat="45.108600966632366" lon="5.323895970359445"><ele></ele><time>2015-2-2T23:46:57Z</time></trkpt>
<trkpt lat="45.108142979443073" lon="5.323555916547775"><ele></ele><time>2015-2-2T23:47:0Z</time></trkpt>
<trkpt lat="45.107786916196346" lon="5.323165990412235"><ele></ele><time>2015-2-2T23:47:3Z</time></trkpt>
<trkpt lat="45.107267992570996" lon="5.322527959942818"><ele></ele><time>2015-2-2T23:47:6Z</time></trkpt>
<trkpt lat="45.106819979846478" lon="5.321874925866723"><ele></ele><time>2015-2-2T23:47:9Z</time></trkpt>
<trkpt lat="45.10637397877872" lon="5.321223987266421"><ele></ele><time>2015-2-2T23:47:12Z</time></trkpt>
<trkpt lat="45.105975922197104" lon="5.320878988131881"><ele></ele><time>2015-2-2T23:47:15Z</time></trkpt>
<trkpt lat="45.105401929467916" lon="5.320437932386994"><ele></ele><time>2015-2-2T23:47:18Z</time></trkpt>
<trkpt lat="45.104976966977119" lon="5.32012595795095"><ele></ele><time>2015-2-2T23:47:21Z</time></trkpt>
<trkpt lat="45.104457959532738" lon="5.319681968539953"><ele></ele><time>2015-2-2T23:47:24Z</time></trkpt>
<trkpt lat="45.104039954021573" lon="5.319244936108589"><ele></ele><time>2015-2-2T23:47:27Z</time></trkpt>
<trkpt lat="45.103594958782196" lon="5.318809999153018"><ele></ele><time>2015-2-2T23:47:30Z</time></trkpt>
<trkpt lat="45.103062959387898" lon="5.318306917324662"><ele></ele><time>2015-2-2T23:47:33Z</time></trkpt>
<trkpt lat="45.102525930851698" lon="5.317778941243887"><ele></ele><time>2015-2-2T23:47:36Z</time></trkpt>
<trkpt lat="45.102066937834024" lon="5.317262951284647"><ele></ele><time>2015-2-2T23:47:39Z</time></trkpt>
<trkpt lat="45.101618925109506" lon="5.316764982417226"><ele></ele><time>2015-2-2T23:47:42Z</time></trkpt>
<trkpt lat="45.101103940978646" lon="5.316284950822592"><ele></ele><time>2015-2-2T23:47:45Z</time></trkpt>
<trkpt lat="45.10063991881907" lon="5.315955961123109"><ele></ele><time>2015-2-2T23:47:48Z</time></trkpt>
<trkpt lat="45.099980933591723" lon="5.315474923700094"><ele></ele><time>2015-2-2T23:47:51Z</time></trkpt>
<trkpt lat="45.099353967234492" lon="5.31460496596992"><ele></ele><time>2015-2-2T23:47:54Z</time></trkpt>
<trkpt lat="45.098871923983097" lon="5.314053939655423"><ele></ele><time>2015-2-2T23:47:57Z</time></trkpt>
<trkpt lat="45.098326932638884" lon="5.313526969403029"><ele></ele><time>2015-2-2T23:48:0Z</time></trkpt>
<trkpt lat="45.097837932407856" lon="5.313112987205386"><ele></ele><time>2015-2-2T23:48:3Z</time></trkpt>
<trkpt lat="45.097409952431917" lon="5.312808975577354"><ele></ele><time>2015-2-2T23:48:6Z</time></trkpt>
<trkpt lat="45.096874935552478" lon="5.312469927594066"><ele></ele><time>2015-2-2T23:48:9Z</time></trkpt>
<trkpt lat="45.096208993345499" lon="5.31204697676003"><ele></ele><time>2015-2-2T23:48:12Z</time></trkpt>
<trkpt lat="45.095451939851046" lon="5.31157499179244"><ele></ele><time>2015-2-2T23:48:15Z</time></trkpt>
<trkpt lat="45.095058996230364" lon="5.311011979356408"><ele></ele><time>2015-2-2T23:48:18Z</time></trkpt>
<trkpt lat="45.094557926058769" lon="5.310494983568788"><ele></ele><time>2015-2-2T23:48:21Z</time></trkpt>
<trkpt lat="45.093960966914892" lon="5.309997936710715"><ele></ele><time>2015-2-2T23:48:24Z</time></trkpt>
<trkpt lat="45.093242973089218" lon="5.30940692871809"><ele></ele><time>2015-2-2T23:48:27Z</time></trkpt>
<trkpt lat="45.092809963971376" lon="5.309036951512098"><ele></ele><time>2015-2-2T23:48:30Z</time></trkpt>
<trkpt lat="45.092224990949035" lon="5.308531941846013"><ele></ele><time>2015-2-2T23:48:33Z</time></trkpt>
<trkpt lat="45.091703971847892" lon="5.308095999062061"><ele></ele><time>2015-2-2T23:48:36Z</time></trkpt>
<trkpt lat="45.091322930529714" lon="5.307713951915503"><ele></ele><time>2015-2-2T23:48:39Z</time></trkpt>
<trkpt lat="45.090881958603859" lon="5.307190921157599"><ele></ele><time>2015-2-2T23:48:42Z</time></trkpt>
<trkpt lat="45.090517932549119" lon="5.306778950616717"><ele></ele><time>2015-2-2T23:48:45Z</time></trkpt>
<trkpt lat="45.0899179559201" lon="5.306131951510906"><ele></ele><time>2015-2-2T23:48:48Z</time></trkpt>
<trkpt lat="45.089194932952523" lon="5.305352937430143"><ele></ele><time>2015-2-2T23:48:51Z</time></trkpt>
<trkpt lat="45.08843494579196" lon="5.304711973294616"><ele></ele><time>2015-2-2T23:48:54Z</time></trkpt>
<trkpt lat="45.087908981367946" lon="5.304330931976438"><ele></ele><time>2015-2-2T23:48:57Z</time></trkpt>
<trkpt lat="45.087412940338254" lon="5.303978975862265"><ele></ele><time>2015-2-2T23:49:0Z</time></trkpt>
<trkpt lat="45.086940955370665" lon="5.303487963974476"><ele></ele><time>2015-2-2T23:49:3Z</time></trkpt>
<trkpt lat="45.086417924612761" lon="5.302913971245289"><ele></ele><time>2015-2-2T23:49:6Z</time></trkpt>
<trkpt lat="45.085971923545003" lon="5.302424971014261"><ele></ele><time>2015-2-2T23:49:9Z</time></trkpt>
<trkpt lat="45.085296928882599" lon="5.30197192914784"><ele></ele><time>2015-2-2T23:49:12Z</time></trkpt>
<trkpt lat="45.084810946136713" lon="5.301533974707127"><ele></ele><time>2015-2-2T23:49:15Z</time></trkpt>
<trkpt lat="45.084240976721048" lon="5.300944978371263"><ele></ele><time>2015-2-2T23:49:18Z</time></trkpt>
<trkpt lat="45.083788940683007" lon="5.300468970090151"><ele></ele><time>2015-2-2T23:49:21Z</time></trkpt>
<trkpt lat="45.083303963765502" lon="5.299949962645769"><ele></ele><time>2015-2-2T23:49:24Z</time></trkpt>
<trkpt lat="45.082771964371204" lon="5.299389967694879"><ele></ele><time>2015-2-2T23:49:27Z</time></trkpt>
<trkpt lat="45.082243988290429" lon="5.298848999664187"><ele></ele><time>2015-2-2T23:49:30Z</time></trkpt>
<trkpt lat="45.081759933382273" lon="5.298423953354359"><ele></ele><time>2015-2-2T23:49:33Z</time></trkpt>
<trkpt lat="45.081213936209679" lon="5.297968983650208"><ele></ele><time>2015-2-2T23:49:36Z</time></trkpt>
<trkpt lat="45.080615971237421" lon="5.297477971762419"><ele></ele><time>2015-2-2T23:49:39Z</time></trkpt>
<trkpt lat="45.080088917165995" lon="5.297058960422874"><ele></ele><time>2015-2-2T23:49:42Z</time></trkpt>
<trkpt lat="45.079696979373693" lon="5.296740951016545"><ele></ele><time>2015-2-2T23:49:45Z</time></trkpt>
<trkpt lat="45.079286936670542" lon="5.296348929405212"><ele></ele><time>2015-2-2T23:49:48Z</time></trkpt>
<trkpt lat="45.078539941459894" lon="5.295594977214932"><ele></ele><time>2015-2-2T23:49:51Z</time></trkpt>
<trkpt lat="45.078123947605491" lon="5.295158950611949"><ele></ele><time>2015-2-2T23:49:54Z</time></trkpt>
<trkpt lat="45.077517936006188" lon="5.294524943456054"><ele></ele><time>2015-2-2T23:49:57Z</time></trkpt>
<trkpt lat="45.077043939381838" lon="5.29408891685307"><ele></ele><time>2015-2-2T23:50:0Z</time></trkpt>
<trkpt lat="45.076400963589549" lon="5.293274950236082"><ele></ele><time>2015-2-2T23:50:3Z</time></trkpt>
<trkpt lat="45.075926966965199" lon="5.29266893863678"><ele></ele><time>2015-2-2T23:50:6Z</time></trkpt>
<trkpt lat="45.075535951182246" lon="5.2921739872545"><ele></ele><time>2015-2-2T23:50:9Z</time></trkpt>
<trkpt lat="45.075045945122838" lon="5.291608963161707"><ele></ele><time>2015-2-2T23:50:12Z</time></trkpt>
<trkpt lat="45.074281934648752" lon="5.290612941607833"><ele></ele><time>2015-2-2T23:50:15Z</time></trkpt>
<trkpt lat="45.073984963819385" lon="5.290034925565124"><ele></ele><time>2015-2-2T23:50:18Z</time></trkpt>
<trkpt lat="45.073708947747946" lon="5.289453975856304"><ele></ele><time>2015-2-2T23:50:21Z</time></trkpt>
<trkpt lat="45.073359925299883" lon="5.288765989243984"><ele></ele><time>2015-2-2T23:50:24Z</time></trkpt>
<trkpt lat="45.073028923943639" lon="5.28813692741096"><ele></ele><time>2015-2-2T23:50:27Z</time></trkpt>
<trkpt lat="45.072637991979718" lon="5.28703797608614"><ele></ele><time>2015-2-2T23:50:30Z</time></trkpt>
<trkpt lat="45.072478987276554" lon="5.286379996687174"><ele></ele><time>2015-2-2T23:50:33Z</time></trkpt>
<trkpt lat="45.072125941514969" lon="5.285337958484888"><ele></ele><time>2015-2-2T23:50:36Z</time></trkpt>
<trkpt lat="45.071830982342362" lon="5.284613929688931"><ele></ele><time>2015-2-2T23:50:39Z</time></trkpt>
<trkpt lat="45.071324966847897" lon="5.283636935055256"><ele></ele><time>2015-2-2T23:50:42Z</time></trkpt>
<trkpt lat="45.070954989641905" lon="5.282750967890024"><ele></ele><time>2015-2-2T23:50:45Z</time></trkpt>
<trkpt lat="45.07057897746563" lon="5.281626954674721"><ele></ele><time>2015-2-2T23:50:48Z</time></trkpt>
<trkpt lat="45.070319976657629" lon="5.28067896142602"><ele></ele><time>2015-2-2T23:50:51Z</time></trkpt>
<trkpt lat="45.070177987217903" lon="5.280032968148589"><ele></ele><time>2015-2-2T23:50:54Z</time></trkpt>
<trkpt lat="45.070012947544456" lon="5.279341964051127"><ele></ele><time>2015-2-2T23:50:57Z</time></trkpt>
<trkpt lat="45.06978495977819" lon="5.278717931360006"><ele></ele><time>2015-2-2T23:51:0Z</time></trkpt>
<trkpt lat="45.06950693204999" lon="5.278002955019474"><ele></ele><time>2015-2-2T23:51:3Z</time></trkpt>
<trkpt lat="45.069214990362525" lon="5.277460981160402"><ele></ele><time>2015-2-2T23:51:6Z</time></trkpt>
<trkpt lat="45.068268924951553" lon="5.27636094018817"><ele></ele><time>2015-2-2T23:51:9Z</time></trkpt>
<trkpt lat="45.06761496886611" lon="5.275599947199225"><ele></ele><time>2015-2-2T23:51:12Z</time></trkpt>
<trkpt lat="45.067111970856786" lon="5.275003993883729"><ele></ele><time>2015-2-2T23:51:15Z</time></trkpt>
<trkpt lat="45.066710980609059" lon="5.274393958970904"><ele></ele><time>2015-2-2T23:51:18Z</time></trkpt>
<trkpt lat="45.066055934876204" lon="5.272714979946613"><ele></ele><time>2015-2-2T23:51:21Z</time></trkpt>
<trkpt lat="45.065648993477225" lon="5.271614938974381"><ele></ele><time>2015-2-2T23:51:24Z</time></trkpt>
<trkpt lat="45.065305922180414" lon="5.270692929625511"><ele></ele><time>2015-2-2T23:51:27Z</time></trkpt>
<trkpt lat="45.064886994659901" lon="5.269538993015885"><ele></ele><time>2015-2-2T23:51:30Z</time></trkpt>
<trkpt lat="45.064596980810165" lon="5.268759978935123"><ele></ele><time>2015-2-2T23:51:33Z</time></trkpt>
<trkpt lat="45.064354995265603" lon="5.267846938222647"><ele></ele><time>2015-2-2T23:51:36Z</time></trkpt>
<trkpt lat="45.063825929537416" lon="5.266658971086144"><ele></ele><time>2015-2-2T23:51:39Z</time></trkpt>
<trkpt lat="45.063438937067986" lon="5.265584997832775"><ele></ele><time>2015-2-2T23:51:42Z</time></trkpt>
<trkpt lat="45.063195945695043" lon="5.264987954869866"><ele></ele><time>2015-2-2T23:51:45Z</time></trkpt>
<trkpt lat="45.062795961275697" lon="5.264392923563719"><ele></ele><time>2015-2-2T23:51:48Z</time></trkpt>
<trkpt lat="45.062525980174541" lon="5.263782972469926"><ele></ele><time>2015-2-2T23:51:51Z</time></trkpt>
<trkpt lat="45.062355995178223" lon="5.26207197457552"><ele></ele><time>2015-2-2T23:51:54Z</time></trkpt>
<trkpt lat="45.062253987416625" lon="5.26082499884069"><ele></ele><time>2015-2-2T23:51:57Z</time></trkpt>
<trkpt lat="45.062132952734828" lon="5.259427987039089"><ele></ele><time>2015-2-2T23:52:0Z</time></trkpt>
<trkpt lat="45.062005966901779" lon="5.258755926042795"><ele></ele><time>2015-2-2T23:52:3Z</time></trkpt>
<trkpt lat="45.061799939721823" lon="5.257846992462874"><ele></ele><time>2015-2-2T23:52:6Z</time></trkpt>
<trkpt lat="45.061679994687438" lon="5.256661958992481"><ele></ele><time>2015-2-2T23:52:9Z</time></trkpt>
<trkpt lat="45.061435997486115" lon="5.255667949095368"><ele></ele><time>2015-2-2T23:52:12Z</time></trkpt>
<trkpt lat="45.061337929219007" lon="5.254941992461681"><ele></ele><time>2015-2-2T23:52:15Z</time></trkpt>
<trkpt lat="45.061399955302477" lon="5.25418795645237"><ele></ele><time>2015-2-2T23:52:18Z</time></trkpt>
<trkpt lat="45.06153498776257" lon="5.253200987353921"><ele></ele><time>2015-2-2T23:52:21Z</time></trkpt>
<trkpt lat="45.06168594583869" lon="5.25260092690587"><ele></ele><time>2015-2-2T23:52:24Z</time></trkpt>
<trkpt lat="45.061784936115146" lon="5.251870946958661"><ele></ele><time>2015-2-2T23:52:27Z</time></trkpt>
<trkpt lat="45.061896918341517" lon="5.250803930684924"><ele></ele><time>2015-2-2T23:52:30Z</time></trkpt>
<trkpt lat="45.061976965516806" lon="5.249921986833215"><ele></ele><time>2015-2-2T23:52:33Z</time></trkpt>
<trkpt lat="45.061951987445354" lon="5.249204998835921"><ele></ele><time>2015-2-2T23:52:36Z</time></trkpt>
<trkpt lat="45.061924997717142" lon="5.24853696115315"><ele></ele><time>2015-2-2T23:52:39Z</time></trkpt>
<trkpt lat="45.061778984963894" lon="5.247579999268055"><ele></ele><time>2015-2-2T23:52:42Z</time></trkpt>
<trkpt lat="45.061070965602994" lon="5.247180936858058"><ele></ele><time>2015-2-2T23:52:45Z</time></trkpt>
<trkpt lat="45.060398988425732" lon="5.246964935213327"><ele></ele><time>2015-2-2T23:52:48Z</time></trkpt>
<trkpt lat="45.059962961822748" lon="5.24662597104907"><ele></ele><time>2015-2-2T23:52:51Z</time></trkpt>
<trkpt lat="45.059852991253138" lon="5.245791971683502"><ele></ele><time>2015-2-2T23:52:54Z</time></trkpt>
<trkpt lat="45.05979398265481" lon="5.244938945397735"><ele></ele><time>2015-2-2T23:52:57Z</time></trkpt>
<trkpt lat="45.0598169490695" lon="5.244216928258538"><ele></ele><time>2015-2-2T23:53:0Z</time></trkpt>
<trkpt lat="45.060192961245775" lon="5.243332972750068"><ele></ele><time>2015-2-2T23:53:3Z</time></trkpt>
<trkpt lat="45.060576936230063" lon="5.243010940030217"><ele></ele><time>2015-2-2T23:53:6Z</time></trkpt>
<trkpt lat="45.060561932623386" lon="5.243097944185138"><ele></ele><time>2015-2-2T23:53:9Z</time></trkpt>
<trkpt lat="45.061003994196653" lon="5.242837937548757"><ele></ele><time>2015-2-2T23:53:12Z</time></trkpt>
<trkpt lat="45.061509925872087" lon="5.242798961699009"><ele></ele><time>2015-2-2T23:53:15Z</time></trkpt>
<trkpt lat="45.062017953023314" lon="5.242706928402185"><ele></ele><time>2015-2-2T23:53:18Z</time></trkpt>
<trkpt lat="45.062584988772869" lon="5.242610955610871"><ele></ele><time>2015-2-2T23:53:21Z</time></trkpt>
<trkpt lat="45.063040964305401" lon="5.242566950619221"><ele></ele><time>2015-2-2T23:53:24Z</time></trkpt>
<trkpt lat="45.063808998093009" lon="5.242009973153472"><ele></ele><time>2015-2-2T23:53:27Z</time></trkpt>
<trkpt lat="45.064681973308325" lon="5.241450984030962"><ele></ele><time>2015-2-2T23:53:30Z</time></trkpt>
<trkpt lat="45.065132919698954" lon="5.241166921332479"><ele></ele><time>2015-2-2T23:53:33Z</time></trkpt>
<trkpt lat="45.065593924373388" lon="5.240621929988265"><ele></ele><time>2015-2-2T23:53:36Z</time></trkpt>
<trkpt lat="45.065683946013451" lon="5.238909926265478"><ele></ele><time>2015-2-2T23:53:39Z</time></trkpt>
<trkpt lat="45.065699955448508" lon="5.238256976008415"><ele></ele><time>2015-2-2T23:53:42Z</time></trkpt>
<trkpt lat="45.065564922988415" lon="5.237137991935015"><ele></ele><time>2015-2-2T23:53:45Z</time></trkpt>
<trkpt lat="45.065775979310274" lon="5.236131995916367"><ele></ele><time>2015-2-2T23:53:48Z</time></trkpt>
<trkpt lat="45.066050989553332" lon="5.235606953501701"><ele></ele><time>2015-2-2T23:53:51Z</time></trkpt>
<trkpt lat="45.066130952909589" lon="5.234464919194579"><ele></ele><time>2015-2-2T23:53:54Z</time></trkpt>
<trkpt lat="45.066103963181376" lon="5.23296095430851"><ele></ele><time>2015-2-2T23:53:57Z</time></trkpt>
<trkpt lat="45.066001955419779" lon="5.232318984344602"><ele></ele><time>2015-2-2T23:54:0Z</time></trkpt>
<trkpt lat="45.065547991544008" lon="5.232004998251796"><ele></ele><time>2015-2-2T23:54:3Z</time></trkpt>
<trkpt lat="45.064733941107988" lon="5.231334948912263"><ele></ele><time>2015-2-2T23:54:6Z</time></trkpt>
<trkpt lat="45.064287940040231" lon="5.230980981141329"><ele></ele><time>2015-2-2T23:54:9Z</time></trkpt>
<trkpt lat="45.063596935942769" lon="5.23038293235004"><ele></ele><time>2015-2-2T23:54:12Z</time></trkpt>
<trkpt lat="45.063054962083697" lon="5.22980491630733"><ele></ele><time>2015-2-2T23:54:15Z</time></trkpt>
<trkpt lat="45.06241693161428" lon="5.229056999087334"><ele></ele><time>2015-2-2T23:54:18Z</time></trkpt>
<trkpt lat="45.062005966901779" lon="5.22834193892777"><ele></ele><time>2015-2-2T23:54:21Z</time></trkpt>
<trkpt lat="45.061664991080761" lon="5.227350946515799"><ele></ele><time>2015-2-2T23:54:24Z</time></trkpt>
<trkpt lat="45.061366930603981" lon="5.226314943283796"><ele></ele><time>2015-2-2T23:54:27Z</time></trkpt>
<trkpt lat="45.06112796254456" lon="5.225660987198353"><ele></ele><time>2015-2-2T23:54:30Z</time></trkpt>
<trkpt lat="45.060889916494489" lon="5.225030919536948"><ele></ele><time>2015-2-2T23:54:33Z</time></trkpt>
<trkpt lat="45.060638962313533" lon="5.224355924874544"><ele></ele><time>2015-2-2T23:54:36Z</time></trkpt>
<trkpt lat="45.060444921255112" lon="5.223758965730667"><ele></ele><time>2015-2-2T23:54:39Z</time></trkpt>
<trkpt lat="45.060207964852452" lon="5.223147924989462"><ele></ele><time>2015-2-2T23:54:42Z</time></trkpt>
<trkpt lat="45.059389974921942" lon="5.222220970317721"><ele></ele><time>2015-2-2T23:54:45Z</time></trkpt>
<trkpt lat="45.059052938595414" lon="5.221751919016242"><ele></ele><time>2015-2-2T23:54:48Z</time></trkpt>
<trkpt lat="45.058629987761378" lon="5.22103694267571"><ele></ele><time>2015-2-2T23:54:51Z</time></trkpt>
<trkpt lat="45.058126989752054" lon="5.220172936096788"><ele></ele><time>2015-2-2T23:54:54Z</time></trkpt>
<trkpt lat="45.057750977575779" lon="5.219588968902826"><ele></ele><time>2015-2-2T23:54:57Z</time></trkpt>
<trkpt lat="45.057327942922711" lon="5.219077924266458"><ele></ele><time>2015-2-2T23:55:0Z</time></trkpt>
<trkpt lat="45.056754956021905" lon="5.218523964285851"><ele></ele><time>2015-2-2T23:55:3Z</time></trkpt>
<trkpt lat="45.056204935535789" lon="5.218013925477862"><ele></ele><time>2015-2-2T23:55:6Z</time></trkpt>
<trkpt lat="45.055596996098757" lon="5.217435993254185"><ele></ele><time>2015-2-2T23:55:9Z</time></trkpt>
<trkpt lat="45.055028954520822" lon="5.216883961111307"><ele></ele><time>2015-2-2T23:55:12Z</time></trkpt>
<trkpt lat="45.054440964013338" lon="5.21628993563354"><ele></ele><time>2015-2-2T23:55:15Z</time></trkpt>
<trkpt lat="45.053992951288819" lon="5.215832954272628"><ele></ele><time>2015-2-2T23:55:18Z</time></trkpt>
<trkpt lat="45.053409989923239" lon="5.21523498930037"><ele></ele><time>2015-2-2T23:55:21Z</time></trkpt>
<trkpt lat="45.052796937525272" lon="5.214613974094391"><ele></ele><time>2015-2-2T23:55:24Z</time></trkpt>
<trkpt lat="45.052347918972373" lon="5.214152969419956"><ele></ele><time>2015-2-2T23:55:27Z</time></trkpt>
<trkpt lat="45.051898984238505" lon="5.213693976402283"><ele></ele><time>2015-2-2T23:55:30Z</time></trkpt>
<trkpt lat="45.051335971802473" lon="5.213122917339206"><ele></ele><time>2015-2-2T23:55:33Z</time></trkpt>
<trkpt lat="45.05083498544991" lon="5.212614974007011"><ele></ele><time>2015-2-2T23:55:36Z</time></trkpt>
<trkpt lat="45.050397953018546" lon="5.212179953232408"><ele></ele><time>2015-2-2T23:55:39Z</time></trkpt>
<trkpt lat="45.049978941679001" lon="5.211757924407721"><ele></ele><time>2015-2-2T23:55:42Z</time></trkpt>
<trkpt lat="45.049520954489708" lon="5.211286945268512"><ele></ele><time>2015-2-2T23:55:45Z</time></trkpt>
<trkpt lat="45.048923995345831" lon="5.210672970861197"><ele></ele><time>2015-2-2T23:55:48Z</time></trkpt>
<trkpt lat="45.048497943207622" lon="5.21025094203651"><ele></ele><time>2015-2-2T23:55:51Z</time></trkpt>
<trkpt lat="45.047695962712169" lon="5.209451979026198"><ele></ele><time>2015-2-2T23:55:54Z</time></trkpt>
<trkpt lat="45.047326991334558" lon="5.209017964079976"><ele></ele><time>2015-2-2T23:55:57Z</time></trkpt>
<trkpt lat="45.04673196002841" lon="5.208112969994545"><ele></ele><time>2015-2-2T23:56:0Z</time></trkpt>
<trkpt lat="45.046304985880852" lon="5.20743696950376"><ele></ele><time>2015-2-2T23:56:3Z</time></trkpt>
<trkpt lat="45.045962920412421" lon="5.206904970109463"><ele></ele><time>2015-2-2T23:56:6Z</time></trkpt>
<trkpt lat="45.045655975118279" lon="5.206429967656732"><ele></ele><time>2015-2-2T23:56:9Z</time></trkpt>
<trkpt lat="45.045280968770385" lon="5.205745920538902"><ele></ele><time>2015-2-2T23:56:12Z</time></trkpt>
<trkpt lat="45.044993972405791" lon="5.204967996105552"><ele></ele><time>2015-2-2T23:56:15Z</time></trkpt>
<trkpt lat="45.044672945514321" lon="5.203979937359691"><ele></ele><time>2015-2-2T23:56:18Z</time></trkpt>
<trkpt lat="45.044481921941042" lon="5.203400999307632"><ele></ele><time>2015-2-2T23:56:21Z</time></trkpt>
<trkpt lat="45.044291988015175" lon="5.202789958566427"><ele></ele><time>2015-2-2T23:56:24Z</time></trkpt>
<trkpt lat="45.044008931145072" lon="5.202098954468966"><ele></ele><time>2015-2-2T23:56:27Z</time></trkpt>
<trkpt lat="45.043549938127398" lon="5.20120695233345"><ele></ele><time>2015-2-2T23:56:30Z</time></trkpt>
<trkpt lat="45.043264953419566" lon="5.20062793046236"><ele></ele><time>2015-2-2T23:56:33Z</time></trkpt>
<trkpt lat="45.042971922084689" lon="5.20006894133985"><ele></ele><time>2015-2-2T23:56:36Z</time></trkpt>
<trkpt lat="45.042646955698729" lon="5.199511963874102"><ele></ele><time>2015-2-2T23:56:39Z</time></trkpt>
<trkpt lat="45.042447969317436" lon="5.198829928413034"><ele></ele><time>2015-2-2T23:56:42Z</time></trkpt>
<trkpt lat="45.041785966604948" lon="5.198172954842448"><ele></ele><time>2015-2-2T23:56:45Z</time></trkpt>
<trkpt lat="45.041288919746876" lon="5.197947984561324"><ele></ele><time>2015-2-2T23:56:48Z</time></trkpt>
<trkpt lat="45.04065197892487" lon="5.197866931557655"><ele></ele><time>2015-2-2T23:56:51Z</time></trkpt>
<trkpt lat="45.040000956505537" lon="5.197772970423102"><ele></ele><time>2015-2-2T23:56:54Z</time></trkpt>
<trkpt lat="45.039483960717916" lon="5.197675991803408"><ele></ele><time>2015-2-2T23:56:57Z</time></trkpt>
<trkpt lat="45.039705997332931" lon="5.196792958304286"><ele></ele><time>2015-2-2T23:57:0Z</time></trkpt>
<trkpt lat="45.039898948743939" lon="5.196187952533364"><ele></ele><time>2015-2-2T23:57:3Z</time></trkpt>
<trkpt lat="45.04009198397398" lon="5.19557498395443"><ele></ele><time>2015-2-2T23:57:6Z</time></trkpt>
<trkpt lat="45.040331957861781" lon="5.194778954610229"><ele></ele><time>2015-2-2T23:57:9Z</time></trkpt>
<trkpt lat="45.040625995025039" lon="5.193870943039656"><ele></ele><time>2015-2-2T23:57:12Z</time></trkpt>
<trkpt lat="45.040707970038056" lon="5.192995956167579"><ele></ele><time>2015-2-2T23:57:15Z</time></trkpt>
<trkpt lat="45.040592970326543" lon="5.192190958186984"><ele></ele><time>2015-2-2T23:57:18Z</time></trkpt>
<trkpt lat="45.040723979473114" lon="5.191219998523593"><ele></ele><time>2015-2-2T23:57:21Z</time></trkpt>
<trkpt lat="45.04114399664104" lon="5.190622955560684"><ele></ele><time>2015-2-2T23:57:24Z</time></trkpt>
<trkpt lat="45.041546998545527" lon="5.190219953656197"><ele></ele><time>2015-2-2T23:57:27Z</time></trkpt>
<trkpt lat="45.042037926614285" lon="5.189660964533687"><ele></ele><time>2015-2-2T23:57:30Z</time></trkpt>
<trkpt lat="45.042465990409255" lon="5.188729986548424"><ele></ele><time>2015-2-2T23:57:33Z</time></trkpt>
<trkpt lat="45.042895982041955" lon="5.188158927485347"><ele></ele><time>2015-2-2T23:57:36Z</time></trkpt>
<trkpt lat="45.0433599203825" lon="5.187516957521439"><ele></ele><time>2015-2-2T23:57:39Z</time></trkpt>
<trkpt lat="45.043711960315704" lon="5.186369977891445"><ele></ele><time>2015-2-2T23:57:42Z</time></trkpt>
<trkpt lat="45.043930979445577" lon="5.185542935505509"><ele></ele><time>2015-2-2T23:57:45Z</time></trkpt>
<trkpt lat="45.04395998083055" lon="5.185318971052766"><ele></ele><time>2015-2-2T23:57:48Z</time></trkpt>
<trkpt lat="45.043670972809196" lon="5.186375929042697"><ele></ele><time>2015-2-2T23:57:51Z</time></trkpt>
<trkpt lat="45.04340291954577" lon="5.187323922291398"><ele></ele><time>2015-2-2T23:57:54Z</time></trkpt>
<trkpt lat="45.042869998142123" lon="5.188138978555799"><ele></ele><time>2015-2-2T23:57:57Z</time></trkpt>
<trkpt lat="45.042510917410254" lon="5.188602916896343"><ele></ele><time>2015-2-2T23:58:0Z</time></trkpt>
<trkpt lat="45.042051924392581" lon="5.189575972035527"><ele></ele><time>2015-2-2T23:58:3Z</time></trkpt>
<trkpt lat="45.041430993005633" lon="5.190315926447511"><ele></ele><time>2015-2-2T23:58:6Z</time></trkpt>
<trkpt lat="45.040835961699486" lon="5.190973989665508"><ele></ele><time>2015-2-2T23:58:9Z</time></trkpt>
<trkpt lat="45.040470929816365" lon="5.191478999331594"><ele></ele><time>2015-2-2T23:58:12Z</time></trkpt>
<trkpt lat="45.040265992283821" lon="5.19061298109591"><ele></ele><time>2015-2-2T23:58:15Z</time></trkpt>
<trkpt lat="45.040066922083497" lon="5.189416967332363"><ele></ele><time>2015-2-2T23:58:18Z</time></trkpt>
<trkpt lat="45.039933985099196" lon="5.188701990991831"><ele></ele><time>2015-2-2T23:58:21Z</time></trkpt>
<trkpt lat="45.039779925718904" lon="5.187813928350806"><ele></ele><time>2015-2-2T23:58:24Z</time></trkpt>
<trkpt lat="45.039563924074173" lon="5.186715982854366"><ele></ele><time>2015-2-2T23:58:27Z</time></trkpt>
<trkpt lat="45.039313975721598" lon="5.186139978468418"><ele></ele><time>2015-2-2T23:58:30Z</time></trkpt>
<trkpt lat="45.039046928286552" lon="5.185583923012018"><ele></ele><time>2015-2-2T23:58:33Z</time></trkpt>
<trkpt lat="45.038554994389415" lon="5.184887973591685"><ele></ele><time>2015-2-2T23:58:36Z</time></trkpt>
<trkpt lat="45.038102958351374" lon="5.18451196141541"><ele></ele><time>2015-2-2T23:58:39Z</time></trkpt>
<trkpt lat="45.037922998890281" lon="5.1833969168365"><ele></ele><time>2015-2-2T23:58:42Z</time></trkpt>
<trkpt lat="45.037977984175086" lon="5.182238956913352"><ele></ele><time>2015-2-2T23:58:45Z</time></trkpt>
<trkpt lat="45.037859966978431" lon="5.18103196285665"><ele></ele><time>2015-2-2T23:58:48Z</time></trkpt>
<trkpt lat="45.037778997793794" lon="5.180198969319463"><ele></ele><time>2015-2-2T23:58:51Z</time></trkpt>
<trkpt lat="45.037690987810493" lon="5.179402939975262"><ele></ele><time>2015-2-2T23:58:54Z</time></trkpt>
<trkpt lat="45.037595937028527" lon="5.178406918421388"><ele></ele><time>2015-2-2T23:58:57Z</time></trkpt>
<trkpt lat="45.037522930651903" lon="5.177755979821086"><ele></ele><time>2015-2-2T23:59:0Z</time></trkpt>
<trkpt lat="45.037219924852252" lon="5.176376989111304"><ele></ele><time>2015-2-2T23:59:3Z</time></trkpt>
<trkpt lat="45.037044994533062" lon="5.175556987524033"><ele></ele><time>2015-2-2T23:59:6Z</time></trkpt>
<trkpt lat="45.036982968449593" lon="5.174921974539757"><ele></ele><time>2015-2-2T23:59:9Z</time></trkpt>
<trkpt lat="45.036985985934734" lon="5.174244968220592"><ele></ele><time>2015-2-2T23:59:12Z</time></trkpt>
<trkpt lat="45.037007946521044" lon="5.173453968018293"><ele></ele><time>2015-2-2T23:59:15Z</time></trkpt>
<trkpt lat="45.037029990926385" lon="5.172573952004314"><ele></ele><time>2015-2-2T23:59:18Z</time></trkpt>
<trkpt lat="45.037077935412526" lon="5.171716986224055"><ele></ele><time>2015-2-2T23:59:21Z</time></trkpt>
<trkpt lat="45.037293937057257" lon="5.170923974364996"><ele></ele><time>2015-2-2T23:59:24Z</time></trkpt>
<trkpt lat="45.037373984232545" lon="5.170069942250848"><ele></ele><time>2015-2-2T23:59:27Z</time></trkpt>
<trkpt lat="45.037778997793794" lon="5.16951497644186"><ele></ele><time>2015-2-2T23:59:30Z</time></trkpt>
<trkpt lat="45.038147969171405" lon="5.169105939567089"><ele></ele><time>2015-2-2T23:59:33Z</time></trkpt>
<trkpt lat="45.038818940520287" lon="5.168537981808186"><ele></ele><time>2015-2-2T23:59:36Z</time></trkpt>
<trkpt lat="45.039398968219757" lon="5.168064991012216"><ele></ele><time>2015-2-2T23:59:39Z</time></trkpt>
<trkpt lat="45.039829965680838" lon="5.167505918070674"><ele></ele><time>2015-2-2T23:59:42Z</time></trkpt>
<trkpt lat="45.040100952610373" lon="5.166925974190235"><ele></ele><time>2015-2-2T23:59:45Z</time></trkpt>
<trkpt lat="45.040258951485157" lon="5.165925929322839"><ele></ele><time>2015-2-2T23:59:48Z</time></trkpt>
<trkpt lat="45.040233973413706" lon="5.164741985499859"><ele></ele><time>2015-2-2T23:59:51Z</time></trkpt>
<trkpt lat="45.040156943723559" lon="5.163824921473861"><ele></ele><time>2015-2-2T23:59:54Z</time></trkpt>
<trkpt lat="45.040017971768975" lon="5.162886986508966"><ele></ele><time>2015-2-2T23:59:57Z</time></trkpt>
<trkpt lat="45.039971955120564" lon="5.161730954423547"><ele></ele><time>2015-2-3T0:0:0Z</time></trkpt>
<trkpt lat="45.040002968162298" lon="5.160583974793553"><ele></ele><time>2015-2-3T0:0:3Z</time></trkpt>
<trkpt lat="45.040350984781981" lon="5.159676969051361"><ele></ele><time>2015-2-3T0:0:6Z</time></trkpt>
<trkpt lat="45.040691960602999" lon="5.159251922741532"><ele></ele><time>2015-2-3T0:0:9Z</time></trkpt>
<trkpt lat="45.040984991937876" lon="5.158761916682124"><ele></ele><time>2015-2-3T0:0:12Z</time></trkpt>
<trkpt lat="45.041237957775593" lon="5.158160934224725"><ele></ele><time>2015-2-3T0:0:15Z</time></trkpt>
<trkpt lat="45.041610952466726" lon="5.156843969598413"><ele></ele><time>2015-2-3T0:0:18Z</time></trkpt>
<trkpt lat="45.04174598492682" lon="5.156036959961057"><ele></ele><time>2015-2-3T0:0:21Z</time></trkpt>
<trkpt lat="45.041857967153192" lon="5.155229950323701"><ele></ele><time>2015-2-3T0:0:24Z</time></trkpt>
<trkpt lat="45.041948994621634" lon="5.154553949832916"><ele></ele><time>2015-2-3T0:0:27Z</time></trkpt>
<trkpt lat="45.041988976299763" lon="5.153803937137127"><ele></ele><time>2015-2-3T0:0:30Z</time></trkpt>
<trkpt lat="45.042015966027975" lon="5.153122991323471"><ele></ele><time>2015-2-3T0:0:33Z</time></trkpt>
<trkpt lat="45.042043961584568" lon="5.152330985292792"><ele></ele><time>2015-2-3T0:0:36Z</time></trkpt>
<trkpt lat="45.042040944099426" lon="5.151569992303848"><ele></ele><time>2015-2-3T0:0:39Z</time></trkpt>
<trkpt lat="45.042214952409267" lon="5.150785949081183"><ele></ele><time>2015-2-3T0:0:42Z</time></trkpt>
<trkpt lat="45.042274966835976" lon="5.150039959698916"><ele></ele><time>2015-2-3T0:0:45Z</time></trkpt>
<trkpt lat="45.04217597655952" lon="5.149389943107963"><ele></ele><time>2015-2-3T0:0:48Z</time></trkpt>
<trkpt lat="45.04185494966805" lon="5.148555943742394"><ele></ele><time>2015-2-3T0:0:51Z</time></trkpt>
<trkpt lat="45.041496958583593" lon="5.147862927988172"><ele></ele><time>2015-2-3T0:0:54Z</time></trkpt>
<trkpt lat="45.041464939713478" lon="5.147163961082697"><ele></ele><time>2015-2-3T0:0:57Z</time></trkpt>
<trkpt lat="45.041823936626315" lon="5.146797923371196"><ele></ele><time>2015-2-3T0:1:0Z</time></trkpt>
<trkpt lat="45.042353924363852" lon="5.146756935864687"><ele></ele><time>2015-2-3T0:1:3Z</time></trkpt>
<trkpt lat="45.04288692958653" lon="5.146164922043681"><ele></ele><time>2015-2-3T0:1:6Z</time></trkpt>
<trkpt lat="45.043348940089345" lon="5.145515995100141"><ele></ele><time>2015-2-3T0:1:9Z</time></trkpt>
<trkpt lat="45.04378798417747" lon="5.145264957100153"><ele></ele><time>2015-2-3T0:1:12Z</time></trkpt>
<trkpt lat="45.044395923614502" lon="5.144955916330218"><ele></ele><time>2015-2-3T0:1:15Z</time></trkpt>
<trkpt lat="45.044870926067233" lon="5.144726922735572"><ele></ele><time>2015-2-3T0:1:18Z</time></trkpt>
<trkpt lat="45.045254984870553" lon="5.143981939181685"><ele></ele><time>2015-2-3T0:1:21Z</time></trkpt>
<trkpt lat="45.044997995719314" lon="5.142794977873564"><ele></ele><time>2015-2-3T0:1:24Z</time></trkpt>
<trkpt lat="45.044678980484605" lon="5.14171295799315"><ele></ele><time>2015-2-3T0:1:27Z</time></trkpt>
<trkpt lat="45.044392989948392" lon="5.140693970024586"><ele></ele><time>2015-2-3T0:1:30Z</time></trkpt>
<trkpt lat="45.0440679397434" lon="5.139615973457694"><ele></ele><time>2015-2-3T0:1:33Z</time></trkpt>
<trkpt lat="45.043728975579143" lon="5.138761941343546"><ele></ele><time>2015-2-3T0:1:36Z</time></trkpt>
<trkpt lat="45.043583968654275" lon="5.137839931994677"><ele></ele><time>2015-2-3T0:1:39Z</time></trkpt>
<trkpt lat="45.043918993324041" lon="5.137047925963998"><ele></ele><time>2015-2-3T0:1:42Z</time></trkpt>
<trkpt lat="45.043921926990151" lon="5.135743953287602"><ele></ele><time>2015-2-3T0:1:45Z</time></trkpt>
<trkpt lat="45.04357198253274" lon="5.135007938370109"><ele></ele><time>2015-2-3T0:1:48Z</time></trkpt>
<trkpt lat="45.043353969231248" lon="5.134419947862625"><ele></ele><time>2015-2-3T0:1:51Z</time></trkpt>
<trkpt lat="45.042860945686698" lon="5.133804967626929"><ele></ele><time>2015-2-3T0:1:54Z</time></trkpt>
<trkpt lat="45.042498931288719" lon="5.133186969906092"><ele></ele><time>2015-2-3T0:1:57Z</time></trkpt>
<trkpt lat="45.042082937434316" lon="5.132737951353192"><ele></ele><time>2015-2-3T0:2:0Z</time></trkpt>
<trkpt lat="45.041708936914802" lon="5.132312988862395"><ele></ele><time>2015-2-3T0:2:3Z</time></trkpt>
<trkpt lat="45.041202921420336" lon="5.131724998354912"><ele></ele><time>2015-2-3T0:2:6Z</time></trkpt>
<trkpt lat="45.040553994476795" lon="5.131005998700857"><ele></ele><time>2015-2-3T0:2:9Z</time></trkpt>
<trkpt lat="45.040032975375652" lon="5.1304339338094"><ele></ele><time>2015-2-3T0:2:12Z</time></trkpt>
<trkpt lat="45.039534922689199" lon="5.129837980493903"><ele></ele><time>2015-2-3T0:2:15Z</time></trkpt>
<trkpt lat="45.039034942165017" lon="5.12912392616272"><ele></ele><time>2015-2-3T0:2:18Z</time></trkpt>
<trkpt lat="45.0386749394238" lon="5.128548927605152"><ele></ele><time>2015-2-3T0:2:21Z</time></trkpt>
<trkpt lat="45.03837394528091" lon="5.128014916554093"><ele></ele><time>2015-2-3T0:2:24Z</time></trkpt>
<trkpt lat="45.037952922284603" lon="5.12725492939353"><ele></ele><time>2015-2-3T0:2:27Z</time></trkpt>
<trkpt lat="45.037570958957076" lon="5.126508940011263"><ele></ele><time>2015-2-3T0:2:30Z</time></trkpt>
<trkpt lat="45.03734196536243" lon="5.125946933403611"><ele></ele><time>2015-2-3T0:2:33Z</time></trkpt>
<trkpt lat="45.037043988704681" lon="5.12521293014288"><ele></ele><time>2015-2-3T0:2:36Z</time></trkpt>
<trkpt lat="45.036785993725061" lon="5.124543970450759"><ele></ele><time>2015-2-3T0:2:39Z</time></trkpt>
<trkpt lat="45.036489944905043" lon="5.1237509585917"><ele></ele><time>2015-2-3T0:2:42Z</time></trkpt>
<trkpt lat="45.036176964640617" lon="5.122686959803104"><ele></ele><time>2015-2-3T0:2:45Z</time></trkpt>
<trkpt lat="45.03592693246901" lon="5.121865952387452"><ele></ele><time>2015-2-3T0:2:48Z</time></trkpt>
<trkpt lat="45.03571193665266" lon="5.121161956340075"><ele></ele><time>2015-2-3T0:2:51Z</time></trkpt>
<trkpt lat="45.035512950271368" lon="5.120500959455967"><ele></ele><time>2015-2-3T0:2:54Z</time></trkpt>
<trkpt lat="45.035249926149845" lon="5.119651956483722"><ele></ele><time>2015-2-3T0:2:57Z</time></trkpt>
<trkpt lat="45.035024955868721" lon="5.118882916867733"><ele></ele><time>2015-2-3T0:3:0Z</time></trkpt>
<trkpt lat="45.034862933680415" lon="5.118157966062427"><ele></ele><time>2015-2-3T0:3:3Z</time></trkpt>
<trkpt lat="45.034712981432676" lon="5.117285996675491"><ele></ele><time>2015-2-3T0:3:6Z</time></trkpt>
<trkpt lat="45.034568980336189" lon="5.116353929042816"><ele></ele><time>2015-2-3T0:3:9Z</time></trkpt>
<trkpt lat="45.034455992281437" lon="5.115616992115974"><ele></ele><time>2015-2-3T0:3:12Z</time></trkpt>
<trkpt lat="45.034353984519839" lon="5.114936968311667"><ele></ele><time>2015-2-3T0:3:15Z</time></trkpt>
<trkpt lat="45.034223981201649" lon="5.114082936197519"><ele></ele><time>2015-2-3T0:3:18Z</time></trkpt>
<trkpt lat="45.034116944298148" lon="5.113355973735452"><ele></ele><time>2015-2-3T0:3:21Z</time></trkpt>
<trkpt lat="45.033986940979958" lon="5.112527925521135"><ele></ele><time>2015-2-3T0:3:24Z</time></trkpt>
<trkpt lat="45.033880993723869" lon="5.111831976100802"><ele></ele><time>2015-2-3T0:3:27Z</time></trkpt>
<trkpt lat="45.033834977075458" lon="5.111099984496832"><ele></ele><time>2015-2-3T0:3:30Z</time></trkpt>
<trkpt lat="45.033944947645068" lon="5.109620997682214"><ele></ele><time>2015-2-3T0:3:33Z</time></trkpt>
<trkpt lat="45.034014936536551" lon="5.108709968626499"><ele></ele><time>2015-2-3T0:3:36Z</time></trkpt>
<trkpt lat="45.034072939306498" lon="5.107942940667272"><ele></ele><time>2015-2-3T0:3:39Z</time></trkpt>
<trkpt lat="45.034143934026361" lon="5.106974998489022"><ele></ele><time>2015-2-3T0:3:42Z</time></trkpt>
<trkpt lat="45.034215934574604" lon="5.106006972491741"><ele></ele><time>2015-2-3T0:3:45Z</time></trkpt>
<trkpt lat="45.034280978143215" lon="5.105103990063071"><ele></ele><time>2015-2-3T0:3:48Z</time></trkpt>
<trkpt lat="45.034346943721175" lon="5.10422095656395"><ele></ele><time>2015-2-3T0:3:51Z</time></trkpt>
<trkpt lat="45.034435959532857" lon="5.102987978607416"><ele></ele><time>2015-2-3T0:3:54Z</time></trkpt>
<trkpt lat="45.034499997273088" lon="5.102154985070229"><ele></ele><time>2015-2-3T0:3:57Z</time></trkpt>
<trkpt lat="45.034559927880764" lon="5.101326936855912"><ele></ele><time>2015-2-3T0:4:0Z</time></trkpt>
<trkpt lat="45.034611979499459" lon="5.10058899410069"><ele></ele><time>2015-2-3T0:4:3Z</time></trkpt>
<trkpt lat="45.034671993926167" lon="5.099787935614586"><ele></ele><time>2015-2-3T0:4:6Z</time></trkpt>
<trkpt lat="45.034724967554212" lon="5.099024930968881"><ele></ele><time>2015-2-3T0:4:9Z</time></trkpt>
<trkpt lat="45.034781964495778" lon="5.098149944096804"><ele></ele><time>2015-2-3T0:4:12Z</time></trkpt>
<trkpt lat="45.034848935902119" lon="5.097141936421394"><ele></ele><time>2015-2-3T0:4:15Z</time></trkpt>
<trkpt lat="45.034934934228659" lon="5.095746936276555"><ele></ele><time>2015-2-3T0:4:18Z</time></trkpt>
<trkpt lat="45.035016993060708" lon="5.094638932496309"><ele></ele><time>2015-2-3T0:4:21Z</time></trkpt>
<trkpt lat="45.035052951425314" lon="5.093859918415546"><ele></ele><time>2015-2-3T0:4:24Z</time></trkpt>
<trkpt lat="45.034621953964233" lon="5.093804933130741"><ele></ele><time>2015-2-3T0:4:27Z</time></trkpt>
<trkpt lat="45.034016948193312" lon="5.094127971678972"><ele></ele><time>2015-2-3T0:4:30Z</time></trkpt>
<trkpt lat="45.033531971275806" lon="5.094328969717026"><ele></ele><time>2015-2-3T0:4:33Z</time></trkpt>
<trkpt lat="45.032777935266495" lon="5.094450926408172"><ele></ele><time>2015-2-3T0:4:36Z</time></trkpt>
<trkpt lat="45.032128924503922" lon="5.094319917261601"><ele></ele><time>2015-2-3T0:4:39Z</time></trkpt>
<trkpt lat="45.031354939565063" lon="5.094416979700327"><ele></ele><time>2015-2-3T0:4:42Z</time></trkpt>
<trkpt lat="45.031015975400805" lon="5.094085978344083"><ele></ele><time>2015-2-3T0:4:45Z</time></trkpt>
<trkpt lat="45.030570980161428" lon="5.093628996983171"><ele></ele><time>2015-2-3T0:4:48Z</time></trkpt>
<trkpt lat="45.029847957193851" lon="5.093674929812551"><ele></ele><time>2015-2-3T0:4:51Z</time></trkpt>
<trkpt lat="45.029119988903403" lon="5.093805938959122"><ele></ele><time>2015-2-3T0:4:54Z</time></trkpt>
<trkpt lat="45.028605926781893" lon="5.0939089525491"><ele></ele><time>2015-2-3T0:4:57Z</time></trkpt>
<trkpt lat="45.028156992048025" lon="5.093771992251277"><ele></ele><time>2015-2-3T0:5:0Z</time></trkpt>
<trkpt lat="45.02763194963336" lon="5.093609970062971"><ele></ele><time>2015-2-3T0:5:3Z</time></trkpt>
<trkpt lat="45.027108918875456" lon="5.093366978690028"><ele></ele><time>2015-2-3T0:5:6Z</time></trkpt>
<trkpt lat="45.026628971099854" lon="5.092925922945142"><ele></ele><time>2015-2-3T0:5:9Z</time></trkpt>
<trkpt lat="45.026073921471834" lon="5.092648984864354"><ele></ele><time>2015-2-3T0:5:12Z</time></trkpt>
<trkpt lat="45.02531192265451" lon="5.09270497597754"><ele></ele><time>2015-2-3T0:5:15Z</time></trkpt>
<trkpt lat="45.024847984313965" lon="5.092707993462682"><ele></ele><time>2015-2-3T0:5:18Z</time></trkpt>
<trkpt lat="45.024139964953065" lon="5.092775970697403"><ele></ele><time>2015-2-3T0:5:21Z</time></trkpt>
<trkpt lat="45.023544933646917" lon="5.092493919655681"><ele></ele><time>2015-2-3T0:5:24Z</time></trkpt>
<trkpt lat="45.022829957306385" lon="5.091725969687104"><ele></ele><time>2015-2-3T0:5:27Z</time></trkpt>
<trkpt lat="45.022112969309092" lon="5.090983919799328"><ele></ele><time>2015-2-3T0:5:30Z</time></trkpt>
<trkpt lat="45.021706949919462" lon="5.090554933995009"><ele></ele><time>2015-2-3T0:5:33Z</time></trkpt>
<trkpt lat="45.021202946081758" lon="5.090025952085853"><ele></ele><time>2015-2-3T0:5:36Z</time></trkpt>
<trkpt lat="45.020431978628039" lon="5.089284991845489"><ele></ele><time>2015-2-3T0:5:39Z</time></trkpt>
<trkpt lat="45.019792942330241" lon="5.088547971099615"><ele></ele><time>2015-2-3T0:5:42Z</time></trkpt>
<trkpt lat="45.019166981801391" lon="5.087707936763763"><ele></ele><time>2015-2-3T0:5:45Z</time></trkpt>
<trkpt lat="45.01854294911027" lon="5.086950967088342"><ele></ele><time>2015-2-3T0:5:48Z</time></trkpt>
<trkpt lat="45.017912965267897" lon="5.086310924962163"><ele></ele><time>2015-2-3T0:5:51Z</time></trkpt>
<trkpt lat="45.017329920083284" lon="5.085618998855352"><ele></ele><time>2015-2-3T0:5:54Z</time></trkpt>
<trkpt lat="45.016713934019208" lon="5.084728924557567"><ele></ele><time>2015-2-3T0:5:57Z</time></trkpt>
<trkpt lat="45.016322918236256" lon="5.084129953756928"><ele></ele><time>2015-2-3T0:6:0Z</time></trkpt>
<trkpt lat="45.016085961833596" lon="5.082957996055484"><ele></ele><time>2015-2-3T0:6:3Z</time></trkpt>
<trkpt lat="45.016000969335437" lon="5.082325916737318"><ele></ele><time>2015-2-3T0:6:6Z</time></trkpt>
<trkpt lat="45.015940954908729" lon="5.081625944003463"><ele></ele><time>2015-2-3T0:6:9Z</time></trkpt>
<trkpt lat="45.015700981020927" lon="5.080681974068284"><ele></ele><time>2015-2-3T0:6:12Z</time></trkpt>
<trkpt lat="45.015369979664683" lon="5.079593919217587"><ele></ele><time>2015-2-3T0:6:15Z</time></trkpt>
<trkpt lat="45.015097986906767" lon="5.078836949542165"><ele></ele><time>2015-2-3T0:6:18Z</time></trkpt>
<trkpt lat="45.014872932806611" lon="5.078278966248035"><ele></ele><time>2015-2-3T0:6:21Z</time></trkpt>
<trkpt lat="45.014501949772239" lon="5.077637918293476"><ele></ele><time>2015-2-3T0:6:24Z</time></trkpt>
<trkpt lat="45.014157956466079" lon="5.077138943597674"><ele></ele><time>2015-2-3T0:6:27Z</time></trkpt>
<trkpt lat="45.013703992590308" lon="5.076412986963987"><ele></ele><time>2015-2-3T0:6:30Z</time></trkpt>
<trkpt lat="45.013289926573634" lon="5.075760958716273"><ele></ele><time>2015-2-3T0:6:33Z</time></trkpt>
<trkpt lat="45.012907963246107" lon="5.075175985693932"><ele></ele><time>2015-2-3T0:6:36Z</time></trkpt>
<trkpt lat="45.012535974383354" lon="5.074598975479603"><ele></ele><time>2015-2-3T0:6:39Z</time></trkpt>
<trkpt lat="45.012143952772021" lon="5.07399195805192"><ele></ele><time>2015-2-3T0:6:42Z</time></trkpt>
<trkpt lat="45.01175494864583" lon="5.073408996686339"><ele></ele><time>2015-2-3T0:6:45Z</time></trkpt>
<trkpt lat="45.011372985318303" lon="5.072819916531444"><ele></ele><time>2015-2-3T0:6:48Z</time></trkpt>
<trkpt lat="45.010948944836855" lon="5.072189932689071"><ele></ele><time>2015-2-3T0:6:51Z</time></trkpt>
<trkpt lat="45.010434966534376" lon="5.071444949135184"><ele></ele><time>2015-2-3T0:6:54Z</time></trkpt>
<trkpt lat="45.009976979345083" lon="5.070734918117523"><ele></ele><time>2015-2-3T0:6:57Z</time></trkpt>
<trkpt lat="45.00960398465395" lon="5.070140976458788"><ele></ele><time>2015-2-3T0:7:0Z</time></trkpt>
<trkpt lat="45.009221937507391" lon="5.069495989009738"><ele></ele><time>2015-2-3T0:7:3Z</time></trkpt>
<trkpt lat="45.008629923686385" lon="5.068510947749019"><ele></ele><time>2015-2-3T0:7:6Z</time></trkpt>
<trkpt lat="45.00829498283565" lon="5.067942989990115"><ele></ele><time>2015-2-3T0:7:9Z</time></trkpt>
<trkpt lat="45.007905978709459" lon="5.067357933148742"><ele></ele><time>2015-2-3T0:7:12Z</time></trkpt>
<trkpt lat="45.007190918549895" lon="5.066440952941775"><ele></ele><time>2015-2-3T0:7:15Z</time></trkpt>
<trkpt lat="45.006765956059098" lon="5.065808957442641"><ele></ele><time>2015-2-3T0:7:18Z</time></trkpt>
<trkpt lat="45.00612398609519" lon="5.06483699195087"><ele></ele><time>2015-2-3T0:7:21Z</time></trkpt>
<trkpt lat="45.005532978102565" lon="5.063841976225376"><ele></ele><time>2015-2-3T0:7:24Z</time></trkpt>
<trkpt lat="45.005174987018108" lon="5.063309976831079"><ele></ele><time>2015-2-3T0:7:27Z</time></trkpt>
<trkpt lat="45.004866952076554" lon="5.062839919701219"><ele></ele><time>2015-2-3T0:7:30Z</time></trkpt>
<trkpt lat="45.004245936870575" lon="5.061920927837491"><ele></ele><time>2015-2-3T0:7:33Z</time></trkpt>
<trkpt lat="45.003908984363079" lon="5.061409967020154"><ele></ele><time>2015-2-3T0:7:36Z</time></trkpt>
<trkpt lat="45.003580916672945" lon="5.060937982052565"><ele></ele><time>2015-2-3T0:7:39Z</time></trkpt>
<trkpt lat="45.003195935860276" lon="5.060477983206511"><ele></ele><time>2015-2-3T0:7:42Z</time></trkpt>
<trkpt lat="45.002744989469647" lon="5.060116974636912"><ele></ele><time>2015-2-3T0:7:45Z</time></trkpt>
<trkpt lat="45.001913923770189" lon="5.059538958594203"><ele></ele><time>2015-2-3T0:7:48Z</time></trkpt>
<trkpt lat="45.001194924116135" lon="5.058923978358507"><ele></ele><time>2015-2-3T0:7:51Z</time></trkpt>
<trkpt lat="45.00064792111516" lon="5.058408994227648"><ele></ele><time>2015-2-3T0:7:54Z</time></trkpt>
<trkpt lat="45.000267969444394" lon="5.058053936809301"><ele></ele><time>2015-2-3T0:7:57Z</time></trkpt>
<trkpt lat="44.999844934791327" lon="5.057667950168252"><ele></ele><time>2015-2-3T0:8:0Z</time></trkpt>
<trkpt lat="44.999427935108542" lon="5.057287998497486"><ele></ele><time>2015-2-3T0:8:3Z</time></trkpt>
<trkpt lat="44.999152924865484" lon="5.05648392252624"><ele></ele><time>2015-2-3T0:8:6Z</time></trkpt>
<trkpt lat="44.998696949332952" lon="5.05600699223578"><ele></ele><time>2015-2-3T0:8:9Z</time></trkpt>
<trkpt lat="44.99819596298039" lon="5.055573983117938"><ele></ele><time>2015-2-3T0:8:12Z</time></trkpt>
<trkpt lat="44.997564973309636" lon="5.055104931816459"><ele></ele><time>2015-2-3T0:8:15Z</time></trkpt>
<trkpt lat="44.996807919815183" lon="5.05452792160213"><ele></ele><time>2015-2-3T0:8:18Z</time></trkpt>
<trkpt lat="44.996122950688004" lon="5.053823925554752"><ele></ele><time>2015-2-3T0:8:21Z</time></trkpt>
<trkpt lat="44.99566194601357" lon="5.05332394503057"><ele></ele><time>2015-2-3T0:8:24Z</time></trkpt>
<trkpt lat="44.994853930547833" lon="5.052452981472015"><ele></ele><time>2015-2-3T0:8:27Z</time></trkpt>
<trkpt lat="44.994436930865049" lon="5.05196699872613"><ele></ele><time>2015-2-3T0:8:30Z</time></trkpt>
<trkpt lat="44.994109952822328" lon="5.051376996561885"><ele></ele><time>2015-2-3T0:8:33Z</time></trkpt>
<trkpt lat="44.993912978097796" lon="5.050646932795644"><ele></ele><time>2015-2-3T0:8:36Z</time></trkpt>
<trkpt lat="44.993786998093128" lon="5.049717966467142"><ele></ele><time>2015-2-3T0:8:39Z</time></trkpt>
<trkpt lat="44.993681972846389" lon="5.048944987356663"><ele></ele><time>2015-2-3T0:8:42Z</time></trkpt>
<trkpt lat="44.993395982310176" lon="5.047996994107962"><ele></ele><time>2015-2-3T0:8:45Z</time></trkpt>
<trkpt lat="44.993193978443742" lon="5.047401962801814"><ele></ele><time>2015-2-3T0:8:48Z</time></trkpt>
<trkpt lat="44.99297596514225" lon="5.04672696813941"><ele></ele><time>2015-2-3T0:8:51Z</time></trkpt>
<trkpt lat="44.992784941568971" lon="5.046127997338772"><ele></ele><time>2015-2-3T0:8:54Z</time></trkpt>
<trkpt lat="44.992536921054125" lon="5.045407991856337"><ele></ele><time>2015-2-3T0:8:57Z</time></trkpt>
<trkpt lat="44.992289990186691" lon="5.044763926416636"><ele></ele><time>2015-2-3T0:9:0Z</time></trkpt>
<trkpt lat="44.992037946358323" lon="5.04421197809279"><ele></ele><time>2015-2-3T0:9:3Z</time></trkpt>
<trkpt lat="44.99177098274231" lon="5.043667992576957"><ele></ele><time>2015-2-3T0:9:6Z</time></trkpt>
<trkpt lat="44.991517933085561" lon="5.04313699901104"><ele></ele><time>2015-2-3T0:9:9Z</time></trkpt>
<trkpt lat="44.99121492728591" lon="5.042487988248467"><ele></ele><time>2015-2-3T0:9:12Z</time></trkpt>
<trkpt lat="44.990984927862883" lon="5.041916929185391"><ele></ele><time>2015-2-3T0:9:15Z</time></trkpt>
<trkpt lat="44.990648981183767" lon="5.040669953450561"><ele></ele><time>2015-2-3T0:9:18Z</time></trkpt>
<trkpt lat="44.990071970969439" lon="5.039411997422576"><ele></ele><time>2015-2-3T0:9:21Z</time></trkpt>
<trkpt lat="44.989550951868296" lon="5.03864798694849"><ele></ele><time>2015-2-3T0:9:24Z</time></trkpt>
<trkpt lat="44.989201929420233" lon="5.038161920383573"><ele></ele><time>2015-2-3T0:9:27Z</time></trkpt>
<trkpt lat="44.988650986924767" lon="5.037196995690465"><ele></ele><time>2015-2-3T0:9:30Z</time></trkpt>
<trkpt lat="44.988221917301416" lon="5.036699948832393"><ele></ele><time>2015-2-3T0:9:33Z</time></trkpt>
<trkpt lat="44.987850934267044" lon="5.036191921681166"><ele></ele><time>2015-2-3T0:9:36Z</time></trkpt>
<trkpt lat="44.987552957609296" lon="5.035548945888877"><ele></ele><time>2015-2-3T0:9:39Z</time></trkpt>
<trkpt lat="44.986796993762255" lon="5.03512398339808"><ele></ele><time>2015-2-3T0:9:42Z</time></trkpt>
<trkpt lat="44.98637898825109" lon="5.034851990640163"><ele></ele><time>2015-2-3T0:9:45Z</time></trkpt>
<trkpt lat="44.985880935564637" lon="5.034523922950029"><ele></ele><time>2015-2-3T0:9:48Z</time></trkpt>
<trkpt lat="44.985467959195375" lon="5.034198956564069"><ele></ele><time>2015-2-3T0:9:51Z</time></trkpt>
<trkpt lat="44.985033944249153" lon="5.033760918304324"><ele></ele><time>2015-2-3T0:9:54Z</time></trkpt>
<trkpt lat="44.984648963436484" lon="5.033354982733727"><ele></ele><time>2015-2-3T0:9:57Z</time></trkpt>
<trkpt lat="44.984169937670231" lon="5.03290998749435"><ele></ele><time>2015-2-3T0:10:0Z</time></trkpt>
<trkpt lat="44.983752937987447" lon="5.032640928402543"><ele></ele><time>2015-2-3T0:10:3Z</time></trkpt>
<trkpt lat="44.9832649435848" lon="5.032428950071335"><ele></ele><time>2015-2-3T0:10:6Z</time></trkpt>
<trkpt lat="44.982495987787843" lon="5.03231093287468"><ele></ele><time>2015-2-3T0:10:9Z</time></trkpt>
<trkpt lat="44.981972957029939" lon="5.032207919284701"><ele></ele><time>2015-2-3T0:10:12Z</time></trkpt>
<trkpt lat="44.981272984296083" lon="5.032020919024944"><ele></ele><time>2015-2-3T0:10:15Z</time></trkpt>
<trkpt lat="44.98059899546206" lon="5.031672986224294"><ele></ele><time>2015-2-3T0:10:18Z</time></trkpt>
<trkpt lat="44.979944955557585" lon="5.031015928834677"><ele></ele><time>2015-2-3T0:10:21Z</time></trkpt>
<trkpt lat="44.979515969753265" lon="5.030674953013659"><ele></ele><time>2015-2-3T0:10:24Z</time></trkpt>
<trkpt lat="44.978768974542618" lon="5.030410923063755"><ele></ele><time>2015-2-3T0:10:27Z</time></trkpt>
<trkpt lat="44.978304952383041" lon="5.030324924737215"><ele></ele><time>2015-2-3T0:10:30Z</time></trkpt>
<trkpt lat="44.97767798602581" lon="5.030162986367941"><ele></ele><time>2015-2-3T0:10:33Z</time></trkpt>
<trkpt lat="44.977314965799451" lon="5.029661916196346"><ele></ele><time>2015-2-3T0:10:36Z</time></trkpt>
<trkpt lat="44.97673493809998" lon="5.028930930420756"><ele></ele><time>2015-2-3T0:10:39Z</time></trkpt>
<trkpt lat="44.976420952007174" lon="5.028441930189729"><ele></ele><time>2015-2-3T0:10:42Z</time></trkpt>
<trkpt lat="44.975829944014549" lon="5.027902973815799"><ele></ele><time>2015-2-3T0:10:45Z</time></trkpt>
<trkpt lat="44.975328957661986" lon="5.027768947184086"><ele></ele><time>2015-2-3T0:10:48Z</time></trkpt>
<trkpt lat="44.974664943292737" lon="5.027575995773077"><ele></ele><time>2015-2-3T0:10:51Z</time></trkpt>
<trkpt lat="44.974093968048692" lon="5.027237953618169"><ele></ele><time>2015-2-3T0:10:54Z</time></trkpt>
<trkpt lat="44.973474964499474" lon="5.026859929785132"><ele></ele><time>2015-2-3T0:10:57Z</time></trkpt>
<trkpt lat="44.972813967615366" lon="5.026449970901012"><ele></ele><time>2015-2-3T0:11:0Z</time></trkpt>
<trkpt lat="44.97224098071456" lon="5.026087956503034"><ele></ele><time>2015-2-3T0:11:3Z</time></trkpt>
<trkpt lat="44.971498930826783" lon="5.02562896348536"><ele></ele><time>2015-2-3T0:11:6Z</time></trkpt>
<trkpt lat="44.971054941415787" lon="5.025373985990882"><ele></ele><time>2015-2-3T0:11:9Z</time></trkpt>
<trkpt lat="44.970527971163392" lon="5.025023957714438"><ele></ele><time>2015-2-3T0:11:12Z</time></trkpt>
<trkpt lat="44.96985599398613" lon="5.024627996608615"><ele></ele><time>2015-2-3T0:11:15Z</time></trkpt>
<trkpt lat="44.969399934634566" lon="5.024362960830331"><ele></ele><time>2015-2-3T0:11:18Z</time></trkpt>
<trkpt lat="44.96925794519484" lon="5.024256929755211"><ele></ele><time>2015-2-3T0:11:21Z</time></trkpt>
<trkpt lat="44.968703985214233" lon="5.023999940603972"><ele></ele><time>2015-2-3T0:11:24Z</time></trkpt>
<trkpt lat="44.967998983338475" lon="5.023855939507484"><ele></ele><time>2015-2-3T0:11:27Z</time></trkpt>
<trkpt lat="44.967083930969238" lon="5.023776981979609"><ele></ele><time>2015-2-3T0:11:30Z</time></trkpt>
<trkpt lat="44.966514967381954" lon="5.023710932582617"><ele></ele><time>2015-2-3T0:11:33Z</time></trkpt>
<trkpt lat="44.965396989136934" lon="5.023627951741219"><ele></ele><time>2015-2-3T0:11:36Z</time></trkpt>
<trkpt lat="44.964914945885539" lon="5.023589981719852"><ele></ele><time>2015-2-3T0:11:39Z</time></trkpt>
<trkpt lat="44.964434998109937" lon="5.023554945364595"><ele></ele><time>2015-2-3T0:11:42Z</time></trkpt>
<trkpt lat="44.963422967121005" lon="5.023479927331209"><ele></ele><time>2015-2-3T0:11:45Z</time></trkpt>
<trkpt lat="44.962803963571787" lon="5.0234389398247"><ele></ele><time>2015-2-3T0:11:48Z</time></trkpt>
<trkpt lat="44.962290991097689" lon="5.023392923176289"><ele></ele><time>2015-2-3T0:11:51Z</time></trkpt>
<trkpt lat="44.961409969255328" lon="5.023332992568612"><ele></ele><time>2015-2-3T0:11:54Z</time></trkpt>
<trkpt lat="44.960932955145836" lon="5.023297956213355"><ele></ele><time>2015-2-3T0:11:57Z</time></trkpt>
<trkpt lat="44.960437919944525" lon="5.023256968706846"><ele></ele><time>2015-2-3T0:12:0Z</time></trkpt>
<trkpt lat="44.959587994962931" lon="5.023198965936899"><ele></ele><time>2015-2-3T0:12:3Z</time></trkpt>
<trkpt lat="44.958634972572327" lon="5.023124953731895"><ele></ele><time>2015-2-3T0:12:6Z</time></trkpt>
<trkpt lat="44.95812795124948" lon="5.02309394069016"><ele></ele><time>2015-2-3T0:12:9Z</time></trkpt>
<trkpt lat="44.95763199403882" lon="5.023054964840412"><ele></ele><time>2015-2-3T0:12:12Z</time></trkpt>
<trkpt lat="44.957133941352367" lon="5.023013977333903"><ele></ele><time>2015-2-3T0:12:15Z</time></trkpt>
<trkpt lat="44.956174967810512" lon="5.023032920435071"><ele></ele><time>2015-2-3T0:12:18Z</time></trkpt>
<trkpt lat="44.955671969801188" lon="5.023107938468456"><ele></ele><time>2015-2-3T0:12:21Z</time></trkpt>
<trkpt lat="44.955223957076669" lon="5.023206928744912"><ele></ele><time>2015-2-3T0:12:24Z</time></trkpt>
<trkpt lat="44.954601936042309" lon="5.023406920954585"><ele></ele><time>2015-2-3T0:12:27Z</time></trkpt>
<trkpt lat="44.954005982726812" lon="5.023659970611334"><ele></ele><time>2015-2-3T0:12:30Z</time></trkpt>
<trkpt lat="44.953561993315816" lon="5.023849988356233"><ele></ele><time>2015-2-3T0:12:33Z</time></trkpt>
<trkpt lat="44.953093947842717" lon="5.024048974737525"><ele></ele><time>2015-2-3T0:12:36Z</time></trkpt>
<trkpt lat="44.952363967895508" lon="5.024372935295105"><ele></ele><time>2015-2-3T0:12:39Z</time></trkpt>
<trkpt lat="44.951502978801727" lon="5.024745929986239"><ele></ele><time>2015-2-3T0:12:42Z</time></trkpt>
<trkpt lat="44.950960921123624" lon="5.024985987693071"><ele></ele><time>2015-2-3T0:12:45Z</time></trkpt>
<trkpt lat="44.950489941984415" lon="5.025186985731125"><ele></ele><time>2015-2-3T0:12:48Z</time></trkpt>
<trkpt lat="44.950033966451883" lon="5.025388989597559"><ele></ele><time>2015-2-3T0:12:51Z</time></trkpt>
<trkpt lat="44.949157973751426" lon="5.025752931833267"><ele></ele><time>2015-2-3T0:12:54Z</time></trkpt>
<trkpt lat="44.948704931885004" lon="5.02594999037683"><ele></ele><time>2015-2-3T0:12:57Z</time></trkpt>
<trkpt lat="44.948196988552809" lon="5.026176972314715"><ele></ele><time>2015-2-3T0:13:0Z</time></trkpt>
<trkpt lat="44.947751993313432" lon="5.026371935382485"><ele></ele><time>2015-2-3T0:13:3Z</time></trkpt>
<trkpt lat="44.947274979203939" lon="5.026580980047584"><ele></ele><time>2015-2-3T0:13:6Z</time></trkpt>
<trkpt lat="44.946712972596288" lon="5.026827994734049"><ele></ele><time>2015-2-3T0:13:9Z</time></trkpt>
<trkpt lat="44.946109978482127" lon="5.027086995542049"><ele></ele><time>2015-2-3T0:13:12Z</time></trkpt>
<trkpt lat="44.945396929979324" lon="5.027390923351049"><ele></ele><time>2015-2-3T0:13:15Z</time></trkpt>
<trkpt lat="44.944438962265849" lon="5.02779895439744"><ele></ele><time>2015-2-3T0:13:18Z</time></trkpt>
<trkpt lat="44.943982986733317" lon="5.027967933565378"><ele></ele><time>2015-2-3T0:13:21Z</time></trkpt>
<trkpt lat="44.943188969045877" lon="5.028222994878888"><ele></ele><time>2015-2-3T0:13:24Z</time></trkpt>
<trkpt lat="44.942280957475305" lon="5.028379987925291"><ele></ele><time>2015-2-3T0:13:27Z</time></trkpt>
<trkpt lat="44.941789945587516" lon="5.028435979038477"><ele></ele><time>2015-2-3T0:13:30Z</time></trkpt>
<trkpt lat="44.941065916791558" lon="5.028560953214765"><ele></ele><time>2015-2-3T0:13:33Z</time></trkpt>
<trkpt lat="44.940613964572549" lon="5.02846397459507"><ele></ele><time>2015-2-3T0:13:36Z</time></trkpt>
<trkpt lat="44.939724979922175" lon="5.028073964640498"><ele></ele><time>2015-2-3T0:13:39Z</time></trkpt>
<trkpt lat="44.939029952511191" lon="5.027729971334338"><ele></ele><time>2015-2-3T0:13:42Z</time></trkpt>
<trkpt lat="44.938541958108544" lon="5.027466947212815"><ele></ele><time>2015-2-3T0:13:45Z</time></trkpt>
<trkpt lat="44.937709970399737" lon="5.027103926986456"><ele></ele><time>2015-2-3T0:13:48Z</time></trkpt>
<trkpt lat="44.937262963503599" lon="5.026884991675615"><ele></ele><time>2015-2-3T0:13:51Z</time></trkpt>
<trkpt lat="44.936699951067567" lon="5.026615932583809"><ele></ele><time>2015-2-3T0:13:54Z</time></trkpt>
<trkpt lat="44.93623299524188" lon="5.026373947039247"><ele></ele><time>2015-2-3T0:13:57Z</time></trkpt>
<trkpt lat="44.935553977265954" lon="5.025988966226578"><ele></ele><time>2015-2-3T0:14:0Z</time></trkpt>
<trkpt lat="44.934750990942121" lon="5.02560599707067"><ele></ele><time>2015-2-3T0:14:3Z</time></trkpt>
<trkpt lat="44.934314964339137" lon="5.025405921041966"><ele></ele><time>2015-2-3T0:14:6Z</time></trkpt>
<trkpt lat="44.933867957442999" lon="5.025183968245983"><ele></ele><time>2015-2-3T0:14:9Z</time></trkpt>
<trkpt lat="44.933403935283422" lon="5.024961931630969"><ele></ele><time>2015-2-3T0:14:12Z</time></trkpt>
<trkpt lat="44.932920970022678" lon="5.024740984663367"><ele></ele><time>2015-2-3T0:14:15Z</time></trkpt>
<trkpt lat="44.932244969531894" lon="5.024405959993601"><ele></ele><time>2015-2-3T0:14:18Z</time></trkpt>
<trkpt lat="44.931762926280499" lon="5.024172943085432"><ele></ele><time>2015-2-3T0:14:21Z</time></trkpt>
<trkpt lat="44.931285995990038" lon="5.023923916742206"><ele></ele><time>2015-2-3T0:14:24Z</time></trkpt>
<trkpt lat="44.930846951901913" lon="5.023713950067759"><ele></ele><time>2015-2-3T0:14:27Z</time></trkpt>
<trkpt lat="44.930396927520633" lon="5.023488979786634"><ele></ele><time>2015-2-3T0:14:30Z</time></trkpt>
<trkpt lat="44.929725956171751" lon="5.023181950673461"><ele></ele><time>2015-2-3T0:14:33Z</time></trkpt>
<trkpt lat="44.929298982024193" lon="5.02285597845912"><ele></ele><time>2015-2-3T0:14:36Z</time></trkpt>
<trkpt lat="44.928836971521378" lon="5.022736955434084"><ele></ele><time>2015-2-3T0:14:39Z</time></trkpt>
<trkpt lat="44.928292986005545" lon="5.022478960454464"><ele></ele><time>2015-2-3T0:14:42Z</time></trkpt>
<trkpt lat="44.927857965230942" lon="5.022273939102888"><ele></ele><time>2015-2-3T0:14:45Z</time></trkpt>
<trkpt lat="44.927411964163184" lon="5.022052992135286"><ele></ele><time>2015-2-3T0:14:48Z</time></trkpt>
<trkpt lat="44.926967974752188" lon="5.021837996318936"><ele></ele><time>2015-2-3T0:14:51Z</time></trkpt>
<trkpt lat="44.92604797706008" lon="5.021395934745669"><ele></ele><time>2015-2-3T0:14:54Z</time></trkpt>
<trkpt lat="44.925437942147255" lon="5.021101981401444"><ele></ele><time>2015-2-3T0:14:57Z</time></trkpt>
<trkpt lat="44.924832936376333" lon="5.02081498503685"><ele></ele><time>2015-2-3T0:15:0Z</time></trkpt>
<trkpt lat="44.924246957525611" lon="5.020620943978429"><ele></ele><time>2015-2-3T0:15:3Z</time></trkpt>
<trkpt lat="44.923604987561703" lon="5.020416928455234"><ele></ele><time>2015-2-3T0:15:6Z</time></trkpt>
<trkpt lat="44.923076927661896" lon="5.020254990085959"><ele></ele><time>2015-2-3T0:15:9Z</time></trkpt>
<trkpt lat="44.922544928267598" lon="5.020151976495981"><ele></ele><time>2015-2-3T0:15:12Z</time></trkpt>
<trkpt lat="44.921964984387159" lon="5.020048962906003"><ele></ele><time>2015-2-3T0:15:15Z</time></trkpt>
<trkpt lat="44.921490987762809" lon="5.019971933215857"><ele></ele><time>2015-2-3T0:15:18Z</time></trkpt>
<trkpt lat="44.920937949791551" lon="5.0198919698596"><ele></ele><time>2015-2-3T0:15:21Z</time></trkpt>
<trkpt lat="44.920395975932479" lon="5.019879983738065"><ele></ele><time>2015-2-3T0:15:24Z</time></trkpt>
<trkpt lat="44.91981896571815" lon="5.019875960424542"><ele></ele><time>2015-2-3T0:15:27Z</time></trkpt>
<trkpt lat="44.919300964102149" lon="5.019866991788149"><ele></ele><time>2015-2-3T0:15:30Z</time></trkpt>
<trkpt lat="44.918777933344245" lon="5.019858945161104"><ele></ele><time>2015-2-3T0:15:33Z</time></trkpt>
<trkpt lat="44.918287927284837" lon="5.019843941554427"><ele></ele><time>2015-2-3T0:15:36Z</time></trkpt>
<trkpt lat="44.917817953974009" lon="5.019821980968118"><ele></ele><time>2015-2-3T0:15:39Z</time></trkpt>
<trkpt lat="44.917256953194737" lon="5.019799936562777"><ele></ele><time>2015-2-3T0:15:42Z</time></trkpt>
<trkpt lat="44.916665945202112" lon="5.019782921299338"><ele></ele><time>2015-2-3T0:15:45Z</time></trkpt>
<trkpt lat="44.916116930544376" lon="5.019783927127719"><ele></ele><time>2015-2-3T0:15:48Z</time></trkpt>
<trkpt lat="44.915577974170446" lon="5.019787950441241"><ele></ele><time>2015-2-3T0:15:51Z</time></trkpt>
<trkpt lat="44.91500792093575" lon="5.019792979583144"><ele></ele><time>2015-2-3T0:15:54Z</time></trkpt>
<trkpt lat="44.914518920704722" lon="5.019783927127719"><ele></ele><time>2015-2-3T0:15:57Z</time></trkpt>
<trkpt lat="44.913961943238974" lon="5.019766995683312"><ele></ele><time>2015-2-3T0:16:0Z</time></trkpt>
<trkpt lat="44.91348291747272" lon="5.019365921616554"><ele></ele><time>2015-2-3T0:16:3Z</time></trkpt>
<trkpt lat="44.913098942488432" lon="5.019745957106352"><ele></ele><time>2015-2-3T0:16:6Z</time></trkpt>
<trkpt lat="44.912882940843701" lon="5.020155999809504"><ele></ele><time>2015-2-3T0:16:9Z</time></trkpt>
<trkpt lat="44.912242982536554" lon="5.019809994846582"><ele></ele><time>2015-2-3T0:16:12Z</time></trkpt>
<trkpt lat="44.911615932360291" lon="5.019822986796498"><ele></ele><time>2015-2-3T0:16:15Z</time></trkpt>
<trkpt lat="44.911108994856477" lon="5.019833967089653"><ele></ele><time>2015-2-3T0:16:18Z</time></trkpt>
<trkpt lat="44.910314977169037" lon="5.01982793211937"><ele></ele><time>2015-2-3T0:16:21Z</time></trkpt>
<trkpt lat="44.909706953912973" lon="5.019821980968118"><ele></ele><time>2015-2-3T0:16:24Z</time></trkpt>
<trkpt lat="44.909057943150401" lon="5.019832961261272"><ele></ele><time>2015-2-3T0:16:27Z</time></trkpt>
<trkpt lat="44.908525943756104" lon="5.019853999838233"><ele></ele><time>2015-2-3T0:16:30Z</time></trkpt>
<trkpt lat="44.907988999038935" lon="5.019873948767781"><ele></ele><time>2015-2-3T0:16:33Z</time></trkpt>
<trkpt lat="44.907473931089044" lon="5.019885934889317"><ele></ele><time>2015-2-3T0:16:36Z</time></trkpt>
<trkpt lat="44.906960958614945" lon="5.019893981516361"><ele></ele><time>2015-2-3T0:16:39Z</time></trkpt>
<trkpt lat="44.906509928405285" lon="5.019894987344742"><ele></ele><time>2015-2-3T0:16:42Z</time></trkpt>
<trkpt lat="44.905516924336553" lon="5.019862968474627"><ele></ele><time>2015-2-3T0:16:45Z</time></trkpt>
<trkpt lat="44.904941925778985" lon="5.01984897069633"><ele></ele><time>2015-2-3T0:16:48Z</time></trkpt>
<trkpt lat="44.904463989660144" lon="5.019807983189821"><ele></ele><time>2015-2-3T0:16:51Z</time></trkpt>
<trkpt lat="44.903738955035806" lon="5.019516963511705"><ele></ele><time>2015-2-3T0:16:54Z</time></trkpt>
<trkpt lat="44.903217935934663" lon="5.019293921068311"><ele></ele><time>2015-2-3T0:16:57Z</time></trkpt>
<trkpt lat="44.902738993987441" lon="5.019095940515399"><ele></ele><time>2015-2-3T0:17:0Z</time></trkpt>
<trkpt lat="44.902255944907665" lon="5.018489928916097"><ele></ele><time>2015-2-3T0:17:3Z</time></trkpt>
<trkpt lat="44.901652950793505" lon="5.017749974504113"><ele></ele><time>2015-2-3T0:17:6Z</time></trkpt>
<trkpt lat="44.901303928345442" lon="5.016940953209996"><ele></ele><time>2015-2-3T0:17:9Z</time></trkpt>
<trkpt lat="44.901003940030932" lon="5.016440972685814"><ele></ele><time>2015-2-3T0:17:12Z</time></trkpt>
<trkpt lat="44.900725996121764" lon="5.017217975109816"><ele></ele><time>2015-2-3T0:17:15Z</time></trkpt>
<trkpt lat="44.900507982820272" lon="5.017835972830653"><ele></ele><time>2015-2-3T0:17:18Z</time></trkpt>
<trkpt lat="44.900077991187572" lon="5.018233945593238"><ele></ele><time>2015-2-3T0:17:21Z</time></trkpt>
<trkpt lat="44.9001369997859" lon="5.018842974677682"><ele></ele><time>2015-2-3T0:17:24Z</time></trkpt>
<trkpt lat="44.900690959766507" lon="5.019137933850288"><ele></ele><time>2015-2-3T0:17:27Z</time></trkpt>
<trkpt lat="44.900744939222932" lon="5.019679991528392"><ele></ele><time>2015-2-3T0:17:30Z</time></trkpt>
<trkpt lat="44.900151919573545" lon="5.019437922164798"><ele></ele><time>2015-2-3T0:17:33Z</time></trkpt>
<trkpt lat="44.899620926007628" lon="5.019278917461634"><ele></ele><time>2015-2-3T0:17:36Z</time></trkpt>
<trkpt lat="44.899774985387921" lon="5.019468935206533"><ele></ele><time>2015-2-3T0:17:39Z</time></trkpt>
<trkpt lat="44.899883950129151" lon="5.019336920231581"><ele></ele><time>2015-2-3T0:17:42Z</time></trkpt>
<trkpt lat="44.900449980050325" lon="5.019717961549759"><ele></ele><time>2015-2-3T0:17:45Z</time></trkpt>
<trkpt lat="44.900936968624592" lon="5.020067989826202"><ele></ele><time>2015-2-3T0:17:48Z</time></trkpt>
<trkpt lat="44.901563934981823" lon="5.020555984228849"><ele></ele><time>2015-2-3T0:17:51Z</time></trkpt>
<trkpt lat="44.901934918016195" lon="5.020991927012801"><ele></ele><time>2015-2-3T0:17:54Z</time></trkpt>
<trkpt lat="44.901405936107039" lon="5.020909951999784"><ele></ele><time>2015-2-3T0:17:57Z</time></trkpt>
<trkpt lat="44.900934956967831" lon="5.020810961723328"><ele></ele><time>2015-2-3T0:18:0Z</time></trkpt>
<trkpt lat="44.900452997535467" lon="5.020703924819827"><ele></ele><time>2015-2-3T0:18:3Z</time></trkpt>
<trkpt lat="44.89990096539259" lon="5.020637959241867"><ele></ele><time>2015-2-3T0:18:6Z</time></trkpt>
<trkpt lat="44.899737937375903" lon="5.020409971475601"><ele></ele><time>2015-2-3T0:18:9Z</time></trkpt>
<trkpt lat="44.899792922660708" lon="5.020264964550734"><ele></ele><time>2015-2-3T0:18:12Z</time></trkpt>
<trkpt lat="44.899370977655053" lon="5.02006396651268"><ele></ele><time>2015-2-3T0:18:15Z</time></trkpt>
<trkpt lat="44.898895975202322" lon="5.01976297236979"><ele></ele><time>2015-2-3T0:18:18Z</time></trkpt>
<trkpt lat="44.898592969402671" lon="5.019499948248267"><ele></ele><time>2015-2-3T0:18:21Z</time></trkpt>
<trkpt lat="44.898838978260756" lon="5.019634980708361"><ele></ele><time>2015-2-3T0:18:24Z</time></trkpt>
<trkpt lat="44.899285985156894" lon="5.019510928541422"><ele></ele><time>2015-2-3T0:18:27Z</time></trkpt>
<trkpt lat="44.899598965421319" lon="5.019211946055293"><ele></ele><time>2015-2-3T0:18:30Z</time></trkpt>
<trkpt lat="44.900228949263692" lon="5.019515957683325"><ele></ele><time>2015-2-3T0:18:33Z</time></trkpt>
<trkpt lat="44.900684924796224" lon="5.019845953211188"><ele></ele><time>2015-2-3T0:18:36Z</time></trkpt>
<trkpt lat="44.901063954457641" lon="5.020181983709335"><ele></ele><time>2015-2-3T0:18:39Z</time></trkpt>
<trkpt lat="44.90067595615983" lon="5.019837990403175"><ele></ele><time>2015-2-3T0:18:42Z</time></trkpt>
<trkpt lat="44.900285946205258" lon="5.019522998481989"><ele></ele><time>2015-2-3T0:18:45Z</time></trkpt>
<trkpt lat="44.899846985936165" lon="5.019282940775156"><ele></ele><time>2015-2-3T0:18:48Z</time></trkpt>
<trkpt lat="44.899360919371247" lon="5.019196942448616"><ele></ele><time>2015-2-3T0:18:51Z</time></trkpt>
<trkpt lat="44.898789944127202" lon="5.019315965473652"><ele></ele><time>2015-2-3T0:18:54Z</time></trkpt>
<trkpt lat="44.898005984723568" lon="5.019187973812223"><ele></ele><time>2015-2-3T0:18:57Z</time></trkpt>
<trkpt lat="44.897294947877526" lon="5.018935929983854"><ele></ele><time>2015-2-3T0:19:0Z</time></trkpt>
<trkpt lat="44.896767977625132" lon="5.018758988007903"><ele></ele><time>2015-2-3T0:19:3Z</time></trkpt>
<trkpt lat="44.89616397768259" lon="5.018564946949482"><ele></ele><time>2015-2-3T0:19:6Z</time></trkpt>
<trkpt lat="44.895711941644549" lon="5.018392950296402"><ele></ele><time>2015-2-3T0:19:9Z</time></trkpt>
<trkpt lat="44.895205926150084" lon="5.018202932551503"><ele></ele><time>2015-2-3T0:19:12Z</time></trkpt>
<trkpt lat="44.894552975893021" lon="5.017983997240663"><ele></ele><time>2015-2-3T0:19:15Z</time></trkpt>
<trkpt lat="44.894042937085032" lon="5.017803953960538"><ele></ele><time>2015-2-3T0:19:18Z</time></trkpt>
<trkpt lat="44.893418988212943" lon="5.017578983679414"><ele></ele><time>2015-2-3T0:19:21Z</time></trkpt>
<trkpt lat="44.892946919426322" lon="5.017384942620993"><ele></ele><time>2015-2-3T0:19:24Z</time></trkpt>
<trkpt lat="44.892518939450383" lon="5.017163995653391"><ele></ele><time>2015-2-3T0:19:27Z</time></trkpt>
<trkpt lat="44.89223194308579" lon="5.01662596128881"><ele></ele><time>2015-2-3T0:19:30Z</time></trkpt>
<trkpt lat="44.891558960080147" lon="5.01673492603004"><ele></ele><time>2015-2-3T0:19:33Z</time></trkpt>
<trkpt lat="44.890891928225756" lon="5.016640964895487"><ele></ele><time>2015-2-3T0:19:36Z</time></trkpt>
<trkpt lat="44.890298992395401" lon="5.016407947987318"><ele></ele><time>2015-2-3T0:19:39Z</time></trkpt>
<trkpt lat="44.889621986076236" lon="5.01602497883141"><ele></ele><time>2015-2-3T0:19:42Z</time></trkpt>
<trkpt lat="44.889076994732022" lon="5.015777964144945"><ele></ele><time>2015-2-3T0:19:45Z</time></trkpt>
<trkpt lat="44.888588916510344" lon="5.015633963048458"><ele></ele><time>2015-2-3T0:19:48Z</time></trkpt>
<trkpt lat="44.887992963194847" lon="5.015540923923254"><ele></ele><time>2015-2-3T0:19:51Z</time></trkpt>
<trkpt lat="44.887463981285691" lon="5.015408992767334"><ele></ele><time>2015-2-3T0:19:54Z</time></trkpt>
<trkpt lat="44.88675395026803" lon="5.015158960595727"><ele></ele><time>2015-2-3T0:19:57Z</time></trkpt>
<trkpt lat="44.886114997789264" lon="5.014946982264519"><ele></ele><time>2015-2-3T0:20:0Z</time></trkpt>
<trkpt lat="44.885581992566586" lon="5.014754952862859"><ele></ele><time>2015-2-3T0:20:3Z</time></trkpt>
<trkpt lat="44.885046975687146" lon="5.014575999230146"><ele></ele><time>2015-2-3T0:20:6Z</time></trkpt>
<trkpt lat="44.884389918297529" lon="5.014345999807119"><ele></ele><time>2015-2-3T0:20:9Z</time></trkpt>
<trkpt lat="44.883800921961665" lon="5.014137960970402"><ele></ele><time>2015-2-3T0:20:12Z</time></trkpt>
<trkpt lat="44.88325391896069" lon="5.013931933790445"><ele></ele><time>2015-2-3T0:20:15Z</time></trkpt>
<trkpt lat="44.882657965645194" lon="5.013712998479605"><ele></ele><time>2015-2-3T0:20:18Z</time></trkpt>
<trkpt lat="44.882014989852905" lon="5.013476964086294"><ele></ele><time>2015-2-3T0:20:21Z</time></trkpt>
<trkpt lat="44.881477961316705" lon="5.013278983533382"><ele></ele><time>2015-2-3T0:20:24Z</time></trkpt>
<trkpt lat="44.880928946658969" lon="5.013083936646581"><ele></ele><time>2015-2-3T0:20:27Z</time></trkpt>
<trkpt lat="44.880423936992884" lon="5.012908922508359"><ele></ele><time>2015-2-3T0:20:30Z</time></trkpt>
<trkpt lat="44.879904929548502" lon="5.012721922248602"><ele></ele><time>2015-2-3T0:20:33Z</time></trkpt>
<trkpt lat="44.879358932375908" lon="5.012521930038929"><ele></ele><time>2015-2-3T0:20:36Z</time></trkpt>
<trkpt lat="44.87880396656692" lon="5.012355968356133"><ele></ele><time>2015-2-3T0:20:39Z</time></trkpt>
<trkpt lat="44.878205917775631" lon="5.012230994179845"><ele></ele><time>2015-2-3T0:20:42Z</time></trkpt>
<trkpt lat="44.87755891866982" lon="5.012108953669667"><ele></ele><time>2015-2-3T0:20:45Z</time></trkpt>
<trkpt lat="44.876779988408089" lon="5.011929916217923"><ele></ele><time>2015-2-3T0:20:48Z</time></trkpt>
<trkpt lat="44.876214964315295" lon="5.011630933731794"><ele></ele><time>2015-2-3T0:20:51Z</time></trkpt>
<trkpt lat="44.875351963564754" lon="5.011665970087051"><ele></ele><time>2015-2-3T0:20:54Z</time></trkpt>
<trkpt lat="44.874712927266955" lon="5.011594975367189"><ele></ele><time>2015-2-3T0:20:57Z</time></trkpt>
<trkpt lat="44.874104987829924" lon="5.011516939848661"><ele></ele><time>2015-2-3T0:21:0Z</time></trkpt>
<trkpt lat="44.873583968728781" lon="5.011441921815276"><ele></ele><time>2015-2-3T0:21:3Z</time></trkpt>
<trkpt lat="44.872776959091425" lon="5.011291969567537"><ele></ele><time>2015-2-3T0:21:6Z</time></trkpt>
<trkpt lat="44.872245965525508" lon="5.011192979291081"><ele></ele><time>2015-2-3T0:21:9Z</time></trkpt>
<trkpt lat="44.871788984164596" lon="5.011107986792922"><ele></ele><time>2015-2-3T0:21:12Z</time></trkpt>
<trkpt lat="44.870847947895527" lon="5.010928949341178"><ele></ele><time>2015-2-3T0:21:15Z</time></trkpt>
<trkpt lat="44.870281917974353" lon="5.010821996256709"><ele></ele><time>2015-2-3T0:21:18Z</time></trkpt>
<trkpt lat="44.86977799795568" lon="5.010720994323492"><ele></ele><time>2015-2-3T0:21:21Z</time></trkpt>
<trkpt lat="44.869164945557714" lon="5.010569952428341"><ele></ele><time>2015-2-3T0:21:24Z</time></trkpt>
<trkpt lat="44.868659935891628" lon="5.010389992967248"><ele></ele><time>2015-2-3T0:21:27Z</time></trkpt>
<trkpt lat="44.868065994232893" lon="5.010155970230699"><ele></ele><time>2015-2-3T0:21:30Z</time></trkpt>
<trkpt lat="44.867518991231918" lon="5.009934939444065"><ele></ele><time>2015-2-3T0:21:33Z</time></trkpt>
<trkpt lat="44.867024961858988" lon="5.009725978597999"><ele></ele><time>2015-2-3T0:21:36Z</time></trkpt>
<trkpt lat="44.866579966619611" lon="5.00947393476963"><ele></ele><time>2015-2-3T0:21:39Z</time></trkpt>
<trkpt lat="44.866156931966543" lon="5.009132958948612"><ele></ele><time>2015-2-3T0:21:42Z</time></trkpt>
<trkpt lat="44.865773962810636" lon="5.008738925680518"><ele></ele><time>2015-2-3T0:21:45Z</time></trkpt>
<trkpt lat="44.865090921521187" lon="5.007939962670207"><ele></ele><time>2015-2-3T0:21:48Z</time></trkpt>
<trkpt lat="44.864670988172293" lon="5.007480969652534"><ele></ele><time>2015-2-3T0:21:51Z</time></trkpt>
<trkpt lat="44.863945953547955" lon="5.006944946944714"><ele></ele><time>2015-2-3T0:21:54Z</time></trkpt>
<trkpt lat="44.86320398747921" lon="5.006791977211833"><ele></ele><time>2015-2-3T0:21:57Z</time></trkpt>
<trkpt lat="44.862479958683252" lon="5.006794994696975"><ele></ele><time>2015-2-3T0:22:0Z</time></trkpt>
<trkpt lat="44.861930944025517" lon="5.006814943626523"><ele></ele><time>2015-2-3T0:22:3Z</time></trkpt>
<trkpt lat="44.861376984044909" lon="5.006852997466922"><ele></ele><time>2015-2-3T0:22:6Z</time></trkpt>
<trkpt lat="44.860684974119067" lon="5.00689197331667"><ele></ele><time>2015-2-3T0:22:9Z</time></trkpt>
<trkpt lat="44.859815938398242" lon="5.006923992186785"><ele></ele><time>2015-2-3T0:22:12Z</time></trkpt>
<trkpt lat="44.859240939840674" lon="5.006933966651559"><ele></ele><time>2015-2-3T0:22:15Z</time></trkpt>
<trkpt lat="44.858605926856399" lon="5.006945952773094"><ele></ele><time>2015-2-3T0:22:18Z</time></trkpt>
<trkpt lat="44.858052972704172" lon="5.006913933902979"><ele></ele><time>2015-2-3T0:22:21Z</time></trkpt>
<trkpt lat="44.857397926971316" lon="5.006794994696975"><ele></ele><time>2015-2-3T0:22:24Z</time></trkpt>
<trkpt lat="44.856720920652151" lon="5.006222929805517"><ele></ele><time>2015-2-3T0:22:27Z</time></trkpt>
<trkpt lat="44.856022959575057" lon="5.005608955398202"><ele></ele><time>2015-2-3T0:22:30Z</time></trkpt>
<trkpt lat="44.855361962690949" lon="5.005017947405577"><ele></ele><time>2015-2-3T0:22:33Z</time></trkpt>
<trkpt lat="44.854772966355085" lon="5.004548979923129"><ele></ele><time>2015-2-3T0:22:36Z</time></trkpt>
<trkpt lat="44.854347920045257" lon="5.00427296385169"><ele></ele><time>2015-2-3T0:22:39Z</time></trkpt>
<trkpt lat="44.854605998843908" lon="5.003380961716175"><ele></ele><time>2015-2-3T0:22:42Z</time></trkpt>
<trkpt lat="44.854262927547097" lon="5.003109974786639"><ele></ele><time>2015-2-3T0:22:45Z</time></trkpt>
<trkpt lat="44.853767976164818" lon="5.003163954243064"><ele></ele><time>2015-2-3T0:22:48Z</time></trkpt>
<trkpt lat="44.853229941800237" lon="5.003180969506502"><ele></ele><time>2015-2-3T0:22:51Z</time></trkpt>
<trkpt lat="44.85269894823432" lon="5.003215922042728"><ele></ele><time>2015-2-3T0:22:54Z</time></trkpt>
<trkpt lat="44.851970979943871" lon="5.002870922908187"><ele></ele><time>2015-2-3T0:22:57Z</time></trkpt>
<trkpt lat="44.851526990532875" lon="5.002605970948935"><ele></ele><time>2015-2-3T0:23:0Z</time></trkpt>
<trkpt lat="44.850718975067139" lon="5.002115964889526"><ele></ele><time>2015-2-3T0:23:3Z</time></trkpt>
<trkpt lat="44.850060995668173" lon="5.001718997955322"><ele></ele><time>2015-2-3T0:23:6Z</time></trkpt>
<trkpt lat="44.849631926044822" lon="5.001473994925618"><ele></ele><time>2015-2-3T0:23:9Z</time></trkpt>
<trkpt lat="44.848962966352701" lon="5.001065963879228"><ele></ele><time>2015-2-3T0:23:12Z</time></trkpt>
<trkpt lat="44.848515959456563" lon="5.000787936151028"><ele></ele><time>2015-2-3T0:23:15Z</time></trkpt>
<trkpt lat="44.847883963957429" lon="5.000386945903301"><ele></ele><time>2015-2-3T0:23:18Z</time></trkpt>
<trkpt lat="44.847318939864635" lon="5.00001696869731"><ele></ele><time>2015-2-3T0:23:21Z</time></trkpt>
<trkpt lat="44.846913926303387" lon="4.999713962897658"><ele></ele><time>2015-2-3T0:23:24Z</time></trkpt>
<trkpt lat="44.846428949385881" lon="4.999205935746431"><ele></ele><time>2015-2-3T0:23:27Z</time></trkpt>
<trkpt lat="44.846078921109438" lon="4.998794971033931"><ele></ele><time>2015-2-3T0:23:30Z</time></trkpt>
<trkpt lat="44.84567197971046" lon="4.998335978016257"><ele></ele><time>2015-2-3T0:23:33Z</time></trkpt>
<trkpt lat="44.844960942864418" lon="4.997533997520804"><ele></ele><time>2015-2-3T0:23:36Z</time></trkpt>
<trkpt lat="44.844526927918196" lon="4.997078943997622"><ele></ele><time>2015-2-3T0:23:39Z</time></trkpt>
<trkpt lat="44.843946984037757" lon="4.99657996930182"><ele></ele><time>2015-2-3T0:23:42Z</time></trkpt>
<trkpt lat="44.84341599047184" lon="4.995766924694181"><ele></ele><time>2015-2-3T0:23:45Z</time></trkpt>
<trkpt lat="44.842695984989405" lon="4.994916999712586"><ele></ele><time>2015-2-3T0:23:48Z</time></trkpt>
<trkpt lat="44.84225794672966" lon="4.994424981996417"><ele></ele><time>2015-2-3T0:23:51Z</time></trkpt>
<trkpt lat="44.841724941506982" lon="4.993823999539018"><ele></ele><time>2015-2-3T0:23:54Z</time></trkpt>
<trkpt lat="44.841193947941065" lon="4.993221927434206"><ele></ele><time>2015-2-3T0:23:57Z</time></trkpt>
<trkpt lat="44.840782983228564" lon="4.9927559774369"><ele></ele><time>2015-2-3T0:24:0Z</time></trkpt>
<trkpt lat="44.840329941362143" lon="4.992246944457293"><ele></ele><time>2015-2-3T0:24:3Z</time></trkpt>
<trkpt lat="44.839535923674703" lon="4.991328958421946"><ele></ele><time>2015-2-3T0:24:6Z</time></trkpt>
<trkpt lat="44.839032925665379" lon="4.990745997056365"><ele></ele><time>2015-2-3T0:24:9Z</time></trkpt>
<trkpt lat="44.838431943207979" lon="4.990046946331859"><ele></ele><time>2015-2-3T0:24:12Z</time></trkpt>
<trkpt lat="44.838189957663417" lon="4.989509917795658"><ele></ele><time>2015-2-3T0:24:15Z</time></trkpt>
<trkpt lat="44.838113933801651" lon="4.988784966990352"><ele></ele><time>2015-2-3T0:24:18Z</time></trkpt>
<trkpt lat="44.838072946295142" lon="4.988147942349315"><ele></ele><time>2015-2-3T0:24:21Z</time></trkpt>
<trkpt lat="44.837780920788646" lon="4.987012948840857"><ele></ele><time>2015-2-3T0:24:24Z</time></trkpt>
<trkpt lat="44.837521919980645" lon="4.986158916726708"><ele></ele><time>2015-2-3T0:24:27Z</time></trkpt>
<trkpt lat="44.837296949699521" lon="4.985442934557796"><ele></ele><time>2015-2-3T0:24:30Z</time></trkpt>
<trkpt lat="44.836984975263476" lon="4.984342977404594"><ele></ele><time>2015-2-3T0:24:33Z</time></trkpt>
<trkpt lat="44.836815996095538" lon="4.983490956947208"><ele></ele><time>2015-2-3T0:24:36Z</time></trkpt>
<trkpt lat="44.836690938100219" lon="4.98284999281168"><ele></ele><time>2015-2-3T0:24:39Z</time></trkpt>
<trkpt lat="44.836553977802396" lon="4.982091933488846"><ele></ele><time>2015-2-3T0:24:42Z</time></trkpt>
<trkpt lat="44.836217947304249" lon="4.981197919696569"><ele></ele><time>2015-2-3T0:24:45Z</time></trkpt>
<trkpt lat="44.835709920153022" lon="4.980655945837498"><ele></ele><time>2015-2-3T0:24:48Z</time></trkpt>
<trkpt lat="44.835171969607472" lon="4.980002995580435"><ele></ele><time>2015-2-3T0:24:51Z</time></trkpt>
<trkpt lat="44.834742983803153" lon="4.979611979797483"><ele></ele><time>2015-2-3T0:24:54Z</time></trkpt>
<trkpt lat="44.834229927510023" lon="4.979400923475623"><ele></ele><time>2015-2-3T0:24:57Z</time></trkpt>
<trkpt lat="44.833534983918071" lon="4.979051984846592"><ele></ele><time>2015-2-3T0:25:0Z</time></trkpt>
<trkpt lat="44.833092922344804" lon="4.978729952126741"><ele></ele><time>2015-2-3T0:25:3Z</time></trkpt>
<trkpt lat="44.832325978204608" lon="4.978138944134116"><ele></ele><time>2015-2-3T0:25:6Z</time></trkpt>
<trkpt lat="44.831695994362235" lon="4.977728985249996"><ele></ele><time>2015-2-3T0:25:9Z</time></trkpt>
<trkpt lat="44.830857971683145" lon="4.977653967216611"><ele></ele><time>2015-2-3T0:25:12Z</time></trkpt>
<trkpt lat="44.830375928431749" lon="4.977622954174876"><ele></ele><time>2015-2-3T0:25:15Z</time></trkpt>
<trkpt lat="44.829841917380691" lon="4.97756696306169"><ele></ele><time>2015-2-3T0:25:18Z</time></trkpt>
<trkpt lat="44.829339925199747" lon="4.977561933919787"><ele></ele><time>2015-2-3T0:25:21Z</time></trkpt>
<trkpt lat="44.828955950215459" lon="4.977544918656349"><ele></ele><time>2015-2-3T0:25:24Z</time></trkpt>
<trkpt lat="44.828302999958396" lon="4.9774179328233"><ele></ele><time>2015-2-3T0:25:27Z</time></trkpt>
<trkpt lat="44.827436981722713" lon="4.976954916492105"><ele></ele><time>2015-2-3T0:25:30Z</time></trkpt>
<trkpt lat="44.826563922688365" lon="4.976677978411317"><ele></ele><time>2015-2-3T0:25:33Z</time></trkpt>
<trkpt lat="44.825853975489736" lon="4.975820928812027"><ele></ele><time>2015-2-3T0:25:36Z</time></trkpt>
<trkpt lat="44.825750961899757" lon="4.974623993039131"><ele></ele><time>2015-2-3T0:25:39Z</time></trkpt>
<trkpt lat="44.825736964121461" lon="4.973793933168054"><ele></ele><time>2015-2-3T0:25:42Z</time></trkpt>
<trkpt lat="44.825720954686403" lon="4.972931938245893"><ele></ele><time>2015-2-3T0:25:45Z</time></trkpt>
<trkpt lat="44.825704945251346" lon="4.97214999049902"><ele></ele><time>2015-2-3T0:25:48Z</time></trkpt>
<trkpt lat="44.8254569247365" lon="4.971298975870013"><ele></ele><time>2015-2-3T0:25:51Z</time></trkpt>
<trkpt lat="44.825104968622327" lon="4.970855992287397"><ele></ele><time>2015-2-3T0:25:54Z</time></trkpt>
<trkpt lat="44.824691992253065" lon="4.970360957086086"><ele></ele><time>2015-2-3T0:25:57Z</time></trkpt>
<trkpt lat="44.824261916801333" lon="4.969890983775258"><ele></ele><time>2015-2-3T0:26:0Z</time></trkpt>
<trkpt lat="44.823889927938581" lon="4.969514971598983"><ele></ele><time>2015-2-3T0:26:3Z</time></trkpt>
<trkpt lat="44.823242928832769" lon="4.968863949179649"><ele></ele><time>2015-2-3T0:26:6Z</time></trkpt>
<trkpt lat="44.822854930534959" lon="4.968471927568317"><ele></ele><time>2015-2-3T0:26:9Z</time></trkpt>
<trkpt lat="44.822126962244511" lon="4.967730967327952"><ele></ele><time>2015-2-3T0:26:12Z</time></trkpt>
<trkpt lat="44.821623964235187" lon="4.967216989025474"><ele></ele><time>2015-2-3T0:26:15Z</time></trkpt>
<trkpt lat="44.821229930967093" lon="4.966821949928999"><ele></ele><time>2015-2-3T0:26:18Z</time></trkpt>
<trkpt lat="44.820627942681313" lon="4.966215938329697"><ele></ele><time>2015-2-3T0:26:21Z</time></trkpt>
<trkpt lat="44.820261988788843" lon="4.965486964210868"><ele></ele><time>2015-2-3T0:26:24Z</time></trkpt>
<trkpt lat="44.820016985759139" lon="4.964122977107763"><ele></ele><time>2015-2-3T0:26:27Z</time></trkpt>
<trkpt lat="44.819985972717404" lon="4.963484946638346"><ele></ele><time>2015-2-3T0:26:30Z</time></trkpt>
<trkpt lat="44.819920929148793" lon="4.962291950359941"><ele></ele><time>2015-2-3T0:26:33Z</time></trkpt>
<trkpt lat="44.819871978834271" lon="4.961405983194709"><ele></ele><time>2015-2-3T0:26:36Z</time></trkpt>
<trkpt lat="44.819831997156143" lon="4.960562931373715"><ele></ele><time>2015-2-3T0:26:39Z</time></trkpt>
<trkpt lat="44.819603925570846" lon="4.959759945049882"><ele></ele><time>2015-2-3T0:26:42Z</time></trkpt>
<trkpt lat="44.819121966138482" lon="4.959364989772439"><ele></ele><time>2015-2-3T0:26:45Z</time></trkpt>
<trkpt lat="44.818508997559547" lon="4.958882946521044"><ele></ele><time>2015-2-3T0:26:48Z</time></trkpt>
<trkpt lat="44.817977920174599" lon="4.958383971825242"><ele></ele><time>2015-2-3T0:26:51Z</time></trkpt>
<trkpt lat="44.8174649477005" lon="4.957908969372511"><ele></ele><time>2015-2-3T0:26:54Z</time></trkpt>
<trkpt lat="44.817074937745929" lon="4.957546954974532"><ele></ele><time>2015-2-3T0:26:57Z</time></trkpt>
<trkpt lat="44.816539920866489" lon="4.957051919773221"><ele></ele><time>2015-2-3T0:27:0Z</time></trkpt>
<trkpt lat="44.816164998337626" lon="4.956698957830668"><ele></ele><time>2015-2-3T0:27:3Z</time></trkpt>
<trkpt lat="44.815780939534307" lon="4.956314982846379"><ele></ele><time>2015-2-3T0:27:6Z</time></trkpt>
<trkpt lat="44.815360922366381" lon="4.955912986770272"><ele></ele><time>2015-2-3T0:27:9Z</time></trkpt>
<trkpt lat="44.814569922164083" lon="4.955136990174651"><ele></ele><time>2015-2-3T0:27:12Z</time></trkpt>
<trkpt lat="44.814163986593485" lon="4.954728959128261"><ele></ele><time>2015-2-3T0:27:15Z</time></trkpt>
<trkpt lat="44.813372986391187" lon="4.95393393561244"><ele></ele><time>2015-2-3T0:27:18Z</time></trkpt>
<trkpt lat="44.81288499198854" lon="4.95350293815136"><ele></ele><time>2015-2-3T0:27:21Z</time></trkpt>
<trkpt lat="44.812364978715777" lon="4.95309691876173"><ele></ele><time>2015-2-3T0:27:24Z</time></trkpt>
<trkpt lat="44.81196197681129" lon="4.952797936275601"><ele></ele><time>2015-2-3T0:27:27Z</time></trkpt>
<trkpt lat="44.811321934685111" lon="4.952308936044574"><ele></ele><time>2015-2-3T0:27:30Z</time></trkpt>
<trkpt lat="44.810905940830708" lon="4.951979946345091"><ele></ele><time>2015-2-3T0:27:33Z</time></trkpt>
<trkpt lat="44.810368996113539" lon="4.95156797580421"><ele></ele><time>2015-2-3T0:27:36Z</time></trkpt>
<trkpt lat="44.809761978685856" lon="4.951096996665001"><ele></ele><time>2015-2-3T0:27:39Z</time></trkpt>
<trkpt lat="44.809143980965018" lon="4.95081796310842"><ele></ele><time>2015-2-3T0:27:42Z</time></trkpt>
<trkpt lat="44.808388939127326" lon="4.950675973668695"><ele></ele><time>2015-2-3T0:27:45Z</time></trkpt>
<trkpt lat="44.807546976953745" lon="4.950518980622292"><ele></ele><time>2015-2-3T0:27:48Z</time></trkpt>
<trkpt lat="44.807037943974137" lon="4.950378919020295"><ele></ele><time>2015-2-3T0:27:51Z</time></trkpt>
<trkpt lat="44.806606946513057" lon="4.950164929032326"><ele></ele><time>2015-2-3T0:27:54Z</time></trkpt>
<trkpt lat="44.806079976260662" lon="4.949793945997953"><ele></ele><time>2015-2-3T0:27:57Z</time></trkpt>
<trkpt lat="44.805652918294072" lon="4.949494963511825"><ele></ele><time>2015-2-3T0:28:0Z</time></trkpt>
<trkpt lat="44.805058976635337" lon="4.949060948565602"><ele></ele><time>2015-2-3T0:28:3Z</time></trkpt>
<trkpt lat="44.804569976404309" lon="4.948452925309539"><ele></ele><time>2015-2-3T0:28:6Z</time></trkpt>
<trkpt lat="44.804162951186299" lon="4.947973983362317"><ele></ele><time>2015-2-3T0:28:9Z</time></trkpt>
<trkpt lat="44.803359964862466" lon="4.947446929290891"><ele></ele><time>2015-2-3T0:28:12Z</time></trkpt>
<trkpt lat="44.802821930497885" lon="4.947051974013448"><ele></ele><time>2015-2-3T0:28:15Z</time></trkpt>
<trkpt lat="44.802245926111937" lon="4.946719966828823"><ele></ele><time>2015-2-3T0:28:18Z</time></trkpt>
<trkpt lat="44.801658941432834" lon="4.946366921067238"><ele></ele><time>2015-2-3T0:28:21Z</time></trkpt>
<trkpt lat="44.801149992272258" lon="4.945771973580122"><ele></ele><time>2015-2-3T0:28:24Z</time></trkpt>
<trkpt lat="44.800981935113668" lon="4.944728929549456"><ele></ele><time>2015-2-3T0:28:27Z</time></trkpt>
<trkpt lat="44.800839945673943" lon="4.943499974906445"><ele></ele><time>2015-2-3T0:28:30Z</time></trkpt>
<trkpt lat="44.800377935171127" lon="4.94245994836092"><ele></ele><time>2015-2-3T0:28:33Z</time></trkpt>
<trkpt lat="44.799963952973485" lon="4.941805992275477"><ele></ele><time>2015-2-3T0:28:36Z</time></trkpt>
<trkpt lat="44.799596993252635" lon="4.941214984282851"><ele></ele><time>2015-2-3T0:28:39Z</time></trkpt>
<trkpt lat="44.799187956377864" lon="4.940832937136293"><ele></ele><time>2015-2-3T0:28:42Z</time></trkpt>
<trkpt lat="44.798716977238655" lon="4.94039498269558"><ele></ele><time>2015-2-3T0:28:45Z</time></trkpt>
<trkpt lat="44.798498963937163" lon="4.939736919477582"><ele></ele><time>2015-2-3T0:28:48Z</time></trkpt>
<trkpt lat="44.798272987827659" lon="4.939079945906997"><ele></ele><time>2015-2-3T0:28:51Z</time></trkpt>
<trkpt lat="44.797723973169923" lon="4.938501929864287"><ele></ele><time>2015-2-3T0:28:54Z</time></trkpt>
<trkpt lat="44.797278977930546" lon="4.938017958775163"><ele></ele><time>2015-2-3T0:28:57Z</time></trkpt>
<trkpt lat="44.796883938834071" lon="4.93758293800056"><ele></ele><time>2015-2-3T0:29:0Z</time></trkpt>
<trkpt lat="44.796487977728248" lon="4.937164932489395"><ele></ele><time>2015-2-3T0:29:3Z</time></trkpt>
<trkpt lat="44.796024961397052" lon="4.936696970835328"><ele></ele><time>2015-2-3T0:29:6Z</time></trkpt>
<trkpt lat="44.795650960877538" lon="4.936198918148875"><ele></ele><time>2015-2-3T0:29:9Z</time></trkpt>
<trkpt lat="44.795324988663197" lon="4.935717964544892"><ele></ele><time>2015-2-3T0:29:12Z</time></trkpt>
<trkpt lat="44.794974960386753" lon="4.935208931565285"><ele></ele><time>2015-2-3T0:29:15Z</time></trkpt>
<trkpt lat="44.794484954327345" lon="4.934495966881514"><ele></ele><time>2015-2-3T0:29:18Z</time></trkpt>
<trkpt lat="44.794021937996149" lon="4.933836981654167"><ele></ele><time>2015-2-3T0:29:21Z</time></trkpt>
<trkpt lat="44.793723961338401" lon="4.933117982000113"><ele></ele><time>2015-2-3T0:29:24Z</time></trkpt>
<trkpt lat="44.793027928099036" lon="4.932591933757067"><ele></ele><time>2015-2-3T0:29:27Z</time></trkpt>
<trkpt lat="44.792334996163845" lon="4.932469977065921"><ele></ele><time>2015-2-3T0:29:30Z</time></trkpt>
<trkpt lat="44.791537960991263" lon="4.93263996206224"><ele></ele><time>2015-2-3T0:29:33Z</time></trkpt>
<trkpt lat="44.790807981044054" lon="4.932565949857235"><ele></ele><time>2015-2-3T0:29:36Z</time></trkpt>
<trkpt lat="44.790222924202681" lon="4.932241989299655"><ele></ele><time>2015-2-3T0:29:39Z</time></trkpt>
<trkpt lat="44.78974599391222" lon="4.931814931333065"><ele></ele><time>2015-2-3T0:29:42Z</time></trkpt>
<trkpt lat="44.789181975647807" lon="4.931197939440608"><ele></ele><time>2015-2-3T0:29:45Z</time></trkpt>
<trkpt lat="44.788568923249841" lon="4.930485980585218"><ele></ele><time>2015-2-3T0:29:48Z</time></trkpt>
<trkpt lat="44.788064919412136" lon="4.929913999512792"><ele></ele><time>2015-2-3T0:29:51Z</time></trkpt>
<trkpt lat="44.787467960268259" lon="4.929240932688117"><ele></ele><time>2015-2-3T0:29:54Z</time></trkpt>
<trkpt lat="44.786863960325718" lon="4.928536936640739"><ele></ele><time>2015-2-3T0:29:57Z</time></trkpt>
<trkpt lat="44.786495994776487" lon="4.927963949739933"><ele></ele><time>2015-2-3T0:30:0Z</time></trkpt>
<trkpt lat="44.786206986755133" lon="4.927453994750977"><ele></ele><time>2015-2-3T0:30:3Z</time></trkpt>
<trkpt lat="44.785790992900729" lon="4.926712950691581"><ele></ele><time>2015-2-3T0:30:6Z</time></trkpt>
<trkpt lat="44.785501984879375" lon="4.926205929368734"><ele></ele><time>2015-2-3T0:30:9Z</time></trkpt>
<trkpt lat="44.785215994343162" lon="4.92570192553103"><ele></ele><time>2015-2-3T0:30:12Z</time></trkpt>
<trkpt lat="44.784764964133501" lon="4.924895921722055"><ele></ele><time>2015-2-3T0:30:15Z</time></trkpt>
<trkpt lat="44.784421976655722" lon="4.924357971176505"><ele></ele><time>2015-2-3T0:30:18Z</time></trkpt>
<trkpt lat="44.783952925354242" lon="4.923835946246982"><ele></ele><time>2015-2-3T0:30:21Z</time></trkpt>
<trkpt lat="44.783519916236401" lon="4.923395980149508"><ele></ele><time>2015-2-3T0:30:24Z</time></trkpt>
<trkpt lat="44.782838970422745" lon="4.922751998528838"><ele></ele><time>2015-2-3T0:30:27Z</time></trkpt>
<trkpt lat="44.782426999881864" lon="4.922358971089125"><ele></ele><time>2015-2-3T0:30:30Z</time></trkpt>
<trkpt lat="44.781948979943991" lon="4.921903917565942"><ele></ele><time>2015-2-3T0:30:33Z</time></trkpt>
<trkpt lat="44.7811299841851" lon="4.921544920653105"><ele></ele><time>2015-2-3T0:30:36Z</time></trkpt>
<trkpt lat="44.780352981761098" lon="4.921409972012043"><ele></ele><time>2015-2-3T0:30:39Z</time></trkpt>
<trkpt lat="44.779790975153446" lon="4.921314921230078"><ele></ele><time>2015-2-3T0:30:42Z</time></trkpt>
<trkpt lat="44.779179934412241" lon="4.921201933175325"><ele></ele><time>2015-2-3T0:30:45Z</time></trkpt>
<trkpt lat="44.77866293862462" lon="4.92110394872725"><ele></ele><time>2015-2-3T0:30:48Z</time></trkpt>
<trkpt lat="44.7779749520123" lon="4.920986937358975"><ele></ele><time>2015-2-3T0:30:51Z</time></trkpt>
<trkpt lat="44.777115974575281" lon="4.920831955969334"><ele></ele><time>2015-2-3T0:30:54Z</time></trkpt>
<trkpt lat="44.776591937988997" lon="4.920711927115917"><ele></ele><time>2015-2-3T0:30:57Z</time></trkpt>
<trkpt lat="44.775854917243123" lon="4.920301968231797"><ele></ele><time>2015-2-3T0:31:0Z</time></trkpt>
<trkpt lat="44.775235997512937" lon="4.919514991343021"><ele></ele><time>2015-2-3T0:31:3Z</time></trkpt>
<trkpt lat="44.774715984240174" lon="4.918581917881966"><ele></ele><time>2015-2-3T0:31:6Z</time></trkpt>
<trkpt lat="44.774346929043531" lon="4.91794497705996"><ele></ele><time>2015-2-3T0:31:9Z</time></trkpt>
<trkpt lat="44.773987932130694" lon="4.91732195019722"><ele></ele><time>2015-2-3T0:31:12Z</time></trkpt>
<trkpt lat="44.773650979623199" lon="4.916715938597918"><ele></ele><time>2015-2-3T0:31:15Z</time></trkpt>
<trkpt lat="44.77335199713707" lon="4.916194919496775"><ele></ele><time>2015-2-3T0:31:18Z</time></trkpt>
<trkpt lat="44.773039938881993" lon="4.9156479164958"><ele></ele><time>2015-2-3T0:31:21Z</time></trkpt>
<trkpt lat="44.772599972784519" lon="4.914906956255436"><ele></ele><time>2015-2-3T0:31:24Z</time></trkpt>
<trkpt lat="44.772141985595226" lon="4.914309997111559"><ele></ele><time>2015-2-3T0:31:27Z</time></trkpt>
<trkpt lat="44.771725991740823" lon="4.913803981617093"><ele></ele><time>2015-2-3T0:31:30Z</time></trkpt>
<trkpt lat="44.771232968196273" lon="4.913205932825804"><ele></ele><time>2015-2-3T0:31:33Z</time></trkpt>
<trkpt lat="44.770734999328852" lon="4.912604950368404"><ele></ele><time>2015-2-3T0:31:36Z</time></trkpt>
<trkpt lat="44.770212974399328" lon="4.911967925727367"><ele></ele><time>2015-2-3T0:31:39Z</time></trkpt>
<trkpt lat="44.769749958068132" lon="4.911381946876645"><ele></ele><time>2015-2-3T0:31:42Z</time></trkpt>
<trkpt lat="44.769359948113561" lon="4.910841984674335"><ele></ele><time>2015-2-3T0:31:45Z</time></trkpt>
<trkpt lat="44.768902966752648" lon="4.910417944192886"><ele></ele><time>2015-2-3T0:31:48Z</time></trkpt>
<trkpt lat="44.768472975119948" lon="4.910176964476705"><ele></ele><time>2015-2-3T0:31:51Z</time></trkpt>
<trkpt lat="44.767538979649544" lon="4.91003698669374"><ele></ele><time>2015-2-3T0:31:54Z</time></trkpt>
<trkpt lat="44.766765916720033" lon="4.910259945318103"><ele></ele><time>2015-2-3T0:31:57Z</time></trkpt>
<trkpt lat="44.766354952007532" lon="4.910481981933117"><ele></ele><time>2015-2-3T0:32:0Z</time></trkpt>
<trkpt lat="44.766033925116062" lon="4.910951955243945"><ele></ele><time>2015-2-3T0:32:3Z</time></trkpt>
<trkpt lat="44.765587924048305" lon="4.911560984328389"><ele></ele><time>2015-2-3T0:32:6Z</time></trkpt>
<trkpt lat="44.765220964327455" lon="4.912041937932372"><ele></ele><time>2015-2-3T0:32:9Z</time></trkpt>
<trkpt lat="44.764629956334829" lon="4.912707963958383"><ele></ele><time>2015-2-3T0:32:12Z</time></trkpt>
<trkpt lat="44.764226954430342" lon="4.913189923390746"><ele></ele><time>2015-2-3T0:32:15Z</time></trkpt>
<trkpt lat="44.763790927827358" lon="4.91364698857069"><ele></ele><time>2015-2-3T0:32:18Z</time></trkpt>
<trkpt lat="44.763055918738246" lon="4.914263980463147"><ele></ele><time>2015-2-3T0:32:21Z</time></trkpt>
<trkpt lat="44.762560967355967" lon="4.914704952389002"><ele></ele><time>2015-2-3T0:32:24Z</time></trkpt>
<trkpt lat="44.762229965999722" lon="4.91515095345676"><ele></ele><time>2015-2-3T0:32:27Z</time></trkpt>
<trkpt lat="44.761850936338305" lon="4.916128953918815"><ele></ele><time>2015-2-3T0:32:30Z</time></trkpt>
<trkpt lat="44.761727973818779" lon="4.917253972962499"><ele></ele><time>2015-2-3T0:32:33Z</time></trkpt>
<trkpt lat="44.761799974367023" lon="4.917991999536753"><ele></ele><time>2015-2-3T0:32:36Z</time></trkpt>
<trkpt lat="44.761670976877213" lon="4.918687948957086"><ele></ele><time>2015-2-3T0:32:39Z</time></trkpt>
<trkpt lat="44.761263951659203" lon="4.919294966384769"><ele></ele><time>2015-2-3T0:32:42Z</time></trkpt>
<trkpt lat="44.760420983657241" lon="4.919646922498941"><ele></ele><time>2015-2-3T0:32:45Z</time></trkpt>
<trkpt lat="44.75992594845593" lon="4.919785978272557"><ele></ele><time>2015-2-3T0:32:48Z</time></trkpt>
<trkpt lat="44.759381962940097" lon="4.919928973540664"><ele></ele><time>2015-2-3T0:32:51Z</time></trkpt>
<trkpt lat="44.758928921073675" lon="4.919988987967372"><ele></ele><time>2015-2-3T0:32:54Z</time></trkpt>
<trkpt lat="44.758383929729462" lon="4.920015977695584"><ele></ele><time>2015-2-3T0:32:57Z</time></trkpt>
<trkpt lat="44.757417999207973" lon="4.920046990737319"><ele></ele><time>2015-2-3T0:33:0Z</time></trkpt>
<trkpt lat="44.756924975663424" lon="4.920073980465531"><ele></ele><time>2015-2-3T0:33:3Z</time></trkpt>
<trkpt lat="44.75594999268651" lon="4.920172970741987"><ele></ele><time>2015-2-3T0:33:6Z</time></trkpt>
<trkpt lat="44.75547892972827" lon="4.920240947976708"><ele></ele><time>2015-2-3T0:33:9Z</time></trkpt>
<trkpt lat="44.755015997216105" lon="4.920343961566687"><ele></ele><time>2015-2-3T0:33:12Z</time></trkpt>
<trkpt lat="44.754555998370051" lon="4.920459967106581"><ele></ele><time>2015-2-3T0:33:15Z</time></trkpt>
<trkpt lat="44.753745971247554" lon="4.920553928241134"><ele></ele><time>2015-2-3T0:33:18Z</time></trkpt>
<trkpt lat="44.753232998773456" lon="4.920513946563005"><ele></ele><time>2015-2-3T0:33:21Z</time></trkpt>
<trkpt lat="44.752695970237255" lon="4.920449992641807"><ele></ele><time>2015-2-3T0:33:24Z</time></trkpt>
<trkpt lat="44.752199929207563" lon="4.920387966558337"><ele></ele><time>2015-2-3T0:33:27Z</time></trkpt>
<trkpt lat="44.751205919310451" lon="4.920221921056509"><ele></ele><time>2015-2-3T0:33:30Z</time></trkpt>
<trkpt lat="44.75025599822402" lon="4.920055959373713"><ele></ele><time>2015-2-3T0:33:33Z</time></trkpt>
<trkpt lat="44.749582931399345" lon="4.919932996854186"><ele></ele><time>2015-2-3T0:33:36Z</time></trkpt>
<trkpt lat="44.748978931456804" lon="4.919799976050854"><ele></ele><time>2015-2-3T0:33:39Z</time></trkpt>
<trkpt lat="44.748202934861183" lon="4.919488923624158"><ele></ele><time>2015-2-3T0:33:42Z</time></trkpt>
<trkpt lat="44.747712928801775" lon="4.919221960008144"><ele></ele><time>2015-2-3T0:33:45Z</time></trkpt>
<trkpt lat="44.747025948017836" lon="4.918876960873604"><ele></ele><time>2015-2-3T0:33:48Z</time></trkpt>
<trkpt lat="44.746589921414852" lon="4.918658947572112"><ele></ele><time>2015-2-3T0:33:51Z</time></trkpt>
<trkpt lat="44.745698925107718" lon="4.918204983696342"><ele></ele><time>2015-2-3T0:33:54Z</time></trkpt>
<trkpt lat="44.74508092738688" lon="4.917887980118394"><ele></ele><time>2015-2-3T0:33:57Z</time></trkpt>
<trkpt lat="44.744548927992582" lon="4.917687987908721"><ele></ele><time>2015-2-3T0:34:0Z</time></trkpt>
<trkpt lat="44.743968984112144" lon="4.917588997632265"><ele></ele><time>2015-2-3T0:34:3Z</time></trkpt>
<trkpt lat="44.743507979437709" lon="4.917590925469995"><ele></ele><time>2015-2-3T0:34:6Z</time></trkpt>
<trkpt lat="44.742950918152928" lon="4.917699974030256"><ele></ele><time>2015-2-3T0:34:9Z</time></trkpt>
<trkpt lat="44.742513969540596" lon="4.917849926277995"><ele></ele><time>2015-2-3T0:34:12Z</time></trkpt>
<trkpt lat="44.741959925740957" lon="4.918044973164797"><ele></ele><time>2015-2-3T0:34:15Z</time></trkpt>
<trkpt lat="44.741452988237143" lon="4.918229961767793"><ele></ele><time>2015-2-3T0:34:18Z</time></trkpt>
<trkpt lat="44.740895926952362" lon="4.918430959805846"><ele></ele><time>2015-2-3T0:34:21Z</time></trkpt>
<trkpt lat="44.740410950034857" lon="4.91860899142921"><ele></ele><time>2015-2-3T0:34:24Z</time></trkpt>
<trkpt lat="44.739745929837227" lon="4.918840918689966"><ele></ele><time>2015-2-3T0:34:27Z</time></trkpt>
<trkpt lat="44.739226922392845" lon="4.919022973626852"><ele></ele><time>2015-2-3T0:34:30Z</time></trkpt>
<trkpt lat="44.73861395381391" lon="4.919242998585105"><ele></ele><time>2015-2-3T0:34:33Z</time></trkpt>
<trkpt lat="44.738047923892736" lon="4.919486995786429"><ele></ele><time>2015-2-3T0:34:36Z</time></trkpt>
<trkpt lat="44.737466974183917" lon="4.919810956344008"><ele></ele><time>2015-2-3T0:34:39Z</time></trkpt>
<trkpt lat="44.736940925940871" lon="4.920103987678886"><ele></ele><time>2015-2-3T0:34:42Z</time></trkpt>
<trkpt lat="44.736280934885144" lon="4.920506989583373"><ele></ele><time>2015-2-3T0:34:45Z</time></trkpt>
<trkpt lat="44.735783971846104" lon="4.920834973454475"><ele></ele><time>2015-2-3T0:34:48Z</time></trkpt>
<trkpt lat="44.735287930816412" lon="4.921026919037104"><ele></ele><time>2015-2-3T0:34:51Z</time></trkpt>
<trkpt lat="44.73513194359839" lon="4.921657992526889"><ele></ele><time>2015-2-3T0:34:54Z</time></trkpt>
<trkpt lat="44.735130937770009" lon="4.922402976080775"><ele></ele><time>2015-2-3T0:34:57Z</time></trkpt>
<trkpt lat="44.73493698053062" lon="4.923308975994587"><ele></ele><time>2015-2-3T0:35:0Z</time></trkpt>
<trkpt lat="44.734926922246814" lon="4.923970978707075"><ele></ele><time>2015-2-3T0:35:3Z</time></trkpt>
<trkpt lat="44.734707986935973" lon="4.924791986122727"><ele></ele><time>2015-2-3T0:35:6Z</time></trkpt>
<trkpt lat="44.734187973663211" lon="4.924789974465966"><ele></ele><time>2015-2-3T0:35:9Z</time></trkpt>
<trkpt lat="44.733530916273594" lon="4.924665922299027"><ele></ele><time>2015-2-3T0:35:12Z</time></trkpt>
<trkpt lat="44.733046945184469" lon="4.924598950892687"><ele></ele><time>2015-2-3T0:35:15Z</time></trkpt>
<trkpt lat="44.732389971613884" lon="4.924444975331426"><ele></ele><time>2015-2-3T0:35:18Z</time></trkpt>
<trkpt lat="44.731942964717746" lon="4.924709927290678"><ele></ele><time>2015-2-3T0:35:21Z</time></trkpt>
<trkpt lat="44.731749929487705" lon="4.925287943333387"><ele></ele><time>2015-2-3T0:35:24Z</time></trkpt>
<trkpt lat="44.731234945356846" lon="4.925368996337056"><ele></ele><time>2015-2-3T0:35:27Z</time></trkpt>
<trkpt lat="44.730726918205619" lon="4.925118964165449"><ele></ele><time>2015-2-3T0:35:30Z</time></trkpt>
<trkpt lat="44.730186956003308" lon="4.924877984449267"><ele></ele><time>2015-2-3T0:35:33Z</time></trkpt>
<trkpt lat="44.729581950232387" lon="4.924793997779489"><ele></ele><time>2015-2-3T0:35:36Z</time></trkpt>
<trkpt lat="44.728925982490182" lon="4.924727948382497"><ele></ele><time>2015-2-3T0:35:39Z</time></trkpt>
<trkpt lat="44.728327933698893" lon="4.924793997779489"><ele></ele><time>2015-2-3T0:35:42Z</time></trkpt>
<trkpt lat="44.728132970631123" lon="4.925607964396477"><ele></ele><time>2015-2-3T0:35:45Z</time></trkpt>
<trkpt lat="44.728009924292564" lon="4.926227973774076"><ele></ele><time>2015-2-3T0:35:48Z</time></trkpt>
<trkpt lat="44.7274399548769" lon="4.926606919616461"><ele></ele><time>2015-2-3T0:35:51Z</time></trkpt>
<trkpt lat="44.726671921089292" lon="4.926637932658196"><ele></ele><time>2015-2-3T0:35:54Z</time></trkpt>
<trkpt lat="44.725912939757109" lon="4.926217999309301"><ele></ele><time>2015-2-3T0:35:57Z</time></trkpt>
<trkpt lat="44.725491916760802" lon="4.925927985459566"><ele></ele><time>2015-2-3T0:36:0Z</time></trkpt>
<trkpt lat="44.724830919876695" lon="4.925905941054225"><ele></ele><time>2015-2-3T0:36:3Z</time></trkpt>
<trkpt lat="44.724152991548181" lon="4.926075926050544"><ele></ele><time>2015-2-3T0:36:6Z</time></trkpt>
<trkpt lat="44.723435919731855" lon="4.926021946594119"><ele></ele><time>2015-2-3T0:36:9Z</time></trkpt>
<trkpt lat="44.722984973341227" lon="4.925890937447548"><ele></ele><time>2015-2-3T0:36:12Z</time></trkpt>
<trkpt lat="44.722106968984008" lon="4.925751965492964"><ele></ele><time>2015-2-3T0:36:15Z</time></trkpt>
<trkpt lat="44.721569940447807" lon="4.925607964396477"><ele></ele><time>2015-2-3T0:36:18Z</time></trkpt>
<trkpt lat="44.720896957442164" lon="4.925514925271273"><ele></ele><time>2015-2-3T0:36:21Z</time></trkpt>
<trkpt lat="44.72019899636507" lon="4.925424987450242"><ele></ele><time>2015-2-3T0:36:24Z</time></trkpt>
<trkpt lat="44.719508998095989" lon="4.925305964425206"><ele></ele><time>2015-2-3T0:36:27Z</time></trkpt>
<trkpt lat="44.718588916584849" lon="4.925337983295322"><ele></ele><time>2015-2-3T0:36:30Z</time></trkpt>
<trkpt lat="44.717869916930795" lon="4.92554996162653"><ele></ele><time>2015-2-3T0:36:33Z</time></trkpt>
<trkpt lat="44.717080928385258" lon="4.926188997924328"><ele></ele><time>2015-2-3T0:36:36Z</time></trkpt>
<trkpt lat="44.716651942580938" lon="4.926631981506944"><ele></ele><time>2015-2-3T0:36:39Z</time></trkpt>
<trkpt lat="44.716112986207008" lon="4.92705593816936"><ele></ele><time>2015-2-3T0:36:42Z</time></trkpt>
<trkpt lat="44.715592972934246" lon="4.927138919010758"><ele></ele><time>2015-2-3T0:36:45Z</time></trkpt>
<trkpt lat="44.714682949706912" lon="4.926905985921621"><ele></ele><time>2015-2-3T0:36:48Z</time></trkpt>
<trkpt lat="44.713973924517632" lon="4.92640994489193"><ele></ele><time>2015-2-3T0:36:51Z</time></trkpt>
<trkpt lat="44.713181918486953" lon="4.926233924925327"><ele></ele><time>2015-2-3T0:36:54Z</time></trkpt>
<trkpt lat="44.712733989581466" lon="4.926330987364054"><ele></ele><time>2015-2-3T0:36:57Z</time></trkpt>
<trkpt lat="44.712255969643593" lon="4.926468953490257"><ele></ele><time>2015-2-3T0:37:0Z</time></trkpt>
<trkpt lat="44.711787924170494" lon="4.9267309717834"><ele></ele><time>2015-2-3T0:37:3Z</time></trkpt>
<trkpt lat="44.711216948926449" lon="4.92718099616468"><ele></ele><time>2015-2-3T0:37:6Z</time></trkpt>
<trkpt lat="44.710611943155527" lon="4.927380988374353"><ele></ele><time>2015-2-3T0:37:9Z</time></trkpt>
<trkpt lat="44.709808956831694" lon="4.927413929253817"><ele></ele><time>2015-2-3T0:37:12Z</time></trkpt>
<trkpt lat="44.709238987416029" lon="4.927472937852144"><ele></ele><time>2015-2-3T0:37:15Z</time></trkpt>
<trkpt lat="44.708560975268483" lon="4.927779966965318"><ele></ele><time>2015-2-3T0:37:18Z</time></trkpt>
<trkpt lat="44.70782496035099" lon="4.928055983036757"><ele></ele><time>2015-2-3T0:37:21Z</time></trkpt>
<trkpt lat="44.707255996763706" lon="4.9282799474895"><ele></ele><time>2015-2-3T0:37:24Z</time></trkpt>
<trkpt lat="44.706777976825833" lon="4.928297968581319"><ele></ele><time>2015-2-3T0:37:27Z</time></trkpt>
<trkpt lat="44.706137934699655" lon="4.928118931129575"><ele></ele><time>2015-2-3T0:37:30Z</time></trkpt>
<trkpt lat="44.705543993040919" lon="4.928298974409699"><ele></ele><time>2015-2-3T0:37:33Z</time></trkpt>
<trkpt lat="44.704983998090029" lon="4.928356977179647"><ele></ele><time>2015-2-3T0:37:36Z</time></trkpt>
<trkpt lat="44.704337920993567" lon="4.928645985201001"><ele></ele><time>2015-2-3T0:37:39Z</time></trkpt>
<trkpt lat="44.703976996243" lon="4.929111935198307"><ele></ele><time>2015-2-3T0:37:42Z</time></trkpt>
<trkpt lat="44.703387999907136" lon="4.929565982893109"><ele></ele><time>2015-2-3T0:37:45Z</time></trkpt>
<trkpt lat="44.702703952789307" lon="4.929673941805959"><ele></ele><time>2015-2-3T0:37:48Z</time></trkpt>
<trkpt lat="44.701896943151951" lon="4.929667990654707"><ele></ele><time>2015-2-3T0:37:51Z</time></trkpt>
<trkpt lat="44.700993960723281" lon="4.929547961801291"><ele></ele><time>2015-2-3T0:37:54Z</time></trkpt>
<trkpt lat="44.700423991307616" lon="4.929693974554539"><ele></ele><time>2015-2-3T0:37:57Z</time></trkpt>
<trkpt lat="44.699839940294623" lon="4.93042797781527"><ele></ele><time>2015-2-3T0:38:0Z</time></trkpt>
<trkpt lat="44.699196964502335" lon="4.931087968870997"><ele></ele><time>2015-2-3T0:38:3Z</time></trkpt>
<trkpt lat="44.698611991479993" lon="4.931762963533402"><ele></ele><time>2015-2-3T0:38:6Z</time></trkpt>
<trkpt lat="44.698091978207231" lon="4.932543989270926"><ele></ele><time>2015-2-3T0:38:9Z</time></trkpt>
<trkpt lat="44.697483954951167" lon="4.933064924553037"><ele></ele><time>2015-2-3T0:38:12Z</time></trkpt>
<trkpt lat="44.696776941418648" lon="4.933451917022467"><ele></ele><time>2015-2-3T0:38:15Z</time></trkpt>
<trkpt lat="44.696106975898147" lon="4.933558953925967"><ele></ele><time>2015-2-3T0:38:18Z</time></trkpt>
<trkpt lat="44.695393927395344" lon="4.933588961139321"><ele></ele><time>2015-2-3T0:38:21Z</time></trkpt>
<trkpt lat="44.694899981841445" lon="4.933510925620794"><ele></ele><time>2015-2-3T0:38:24Z</time></trkpt>
<trkpt lat="44.694594964385033" lon="4.932892927899957"><ele></ele><time>2015-2-3T0:38:27Z</time></trkpt>
<trkpt lat="44.694012925028801" lon="4.932926958426833"><ele></ele><time>2015-2-3T0:38:30Z</time></trkpt>
<trkpt lat="44.693523924797773" lon="4.933375976979733"><ele></ele><time>2015-2-3T0:38:33Z</time></trkpt>
<trkpt lat="44.693051939830184" lon="4.933619974181056"><ele></ele><time>2015-2-3T0:38:36Z</time></trkpt>
<trkpt lat="44.692339980974793" lon="4.933647969737649"><ele></ele><time>2015-2-3T0:38:39Z</time></trkpt>
<trkpt lat="44.691694993525743" lon="4.933683928102255"><ele></ele><time>2015-2-3T0:38:42Z</time></trkpt>
<trkpt lat="44.691209932789207" lon="4.933665990829468"><ele></ele><time>2015-2-3T0:38:45Z</time></trkpt>
<trkpt lat="44.690798968076706" lon="4.933302970603108"><ele></ele><time>2015-2-3T0:38:48Z</time></trkpt>
<trkpt lat="44.690344920381904" lon="4.932903992012143"><ele></ele><time>2015-2-3T0:38:51Z</time></trkpt>
<trkpt lat="44.689802946522832" lon="4.932681955397129"><ele></ele><time>2015-2-3T0:38:54Z</time></trkpt>
<trkpt lat="44.689347976818681" lon="4.932479951530695"><ele></ele><time>2015-2-3T0:38:57Z</time></trkpt>
<trkpt lat="44.689121916890144" lon="4.933038940653205"><ele></ele><time>2015-2-3T0:39:0Z</time></trkpt>
<trkpt lat="44.688867945224047" lon="4.933534981682897"><ele></ele><time>2015-2-3T0:39:3Z</time></trkpt>
<trkpt lat="44.688241984695196" lon="4.933743942528963"><ele></ele><time>2015-2-3T0:39:6Z</time></trkpt>
<trkpt lat="44.687733957543969" lon="4.933921974152327"><ele></ele><time>2015-2-3T0:39:9Z</time></trkpt>
<trkpt lat="44.687142949551344" lon="4.934148956090212"><ele></ele><time>2015-2-3T0:39:12Z</time></trkpt>
<trkpt lat="44.686692925170064" lon="4.934469982981682"><ele></ele><time>2015-2-3T0:39:15Z</time></trkpt>
<trkpt lat="44.686184981837869" lon="4.934871979057789"><ele></ele><time>2015-2-3T0:39:18Z</time></trkpt>
<trkpt lat="44.685724982991815" lon="4.935317980125547"><ele></ele><time>2015-2-3T0:39:21Z</time></trkpt>
<trkpt lat="44.685594979673624" lon="4.936038991436362"><ele></ele><time>2015-2-3T0:39:24Z</time></trkpt>
<trkpt lat="44.68511494807899" lon="4.936043936759234"><ele></ele><time>2015-2-3T0:39:27Z</time></trkpt>
<trkpt lat="44.684597952291369" lon="4.935966990888119"><ele></ele><time>2015-2-3T0:39:30Z</time></trkpt>
<trkpt lat="44.684174917638302" lon="4.936252981424332"><ele></ele><time>2015-2-3T0:39:33Z</time></trkpt>
<trkpt lat="44.683665968477726" lon="4.936512988060713"><ele></ele><time>2015-2-3T0:39:36Z</time></trkpt>
<trkpt lat="44.683172944933176" lon="4.936680961400271"><ele></ele><time>2015-2-3T0:39:39Z</time></trkpt>
<trkpt lat="44.682694924995303" lon="4.936712980270386"><ele></ele><time>2015-2-3T0:39:42Z</time></trkpt>
<trkpt lat="44.682066952809691" lon="4.936751956120133"><ele></ele><time>2015-2-3T0:39:45Z</time></trkpt>
<trkpt lat="44.681543922051787" lon="4.936813982203603"><ele></ele><time>2015-2-3T0:39:48Z</time></trkpt>
<trkpt lat="44.681005971506238" lon="4.937085974961519"><ele></ele><time>2015-2-3T0:39:51Z</time></trkpt>
<trkpt lat="44.680401971563697" lon="4.937597941607237"><ele></ele><time>2015-2-3T0:39:54Z</time></trkpt>
<trkpt lat="44.67987198382616" lon="4.938039919361472"><ele></ele><time>2015-2-3T0:39:57Z</time></trkpt>
<trkpt lat="44.679413996636868" lon="4.938423978164792"><ele></ele><time>2015-2-3T0:40:0Z</time></trkpt>
<trkpt lat="44.678916949778795" lon="4.938836954534054"><ele></ele><time>2015-2-3T0:40:3Z</time></trkpt>
<trkpt lat="44.678351925686002" lon="4.939311956986785"><ele></ele><time>2015-2-3T0:40:6Z</time></trkpt>
<trkpt lat="44.677890921011567" lon="4.939696937799454"><ele></ele><time>2015-2-3T0:40:9Z</time></trkpt>
<trkpt lat="44.677411979064345" lon="4.940099939703941"><ele></ele><time>2015-2-3T0:40:12Z</time></trkpt>
<trkpt lat="44.677066979929805" lon="4.940505959093571"><ele></ele><time>2015-2-3T0:40:15Z</time></trkpt>
<trkpt lat="44.676817953586578" lon="4.941172990947962"><ele></ele><time>2015-2-3T0:40:18Z</time></trkpt>
<trkpt lat="44.676529951393604" lon="4.941853936761618"><ele></ele><time>2015-2-3T0:40:21Z</time></trkpt>
<trkpt lat="44.675855962559581" lon="4.942110925912857"><ele></ele><time>2015-2-3T0:40:24Z</time></trkpt>
<trkpt lat="44.675375930964947" lon="4.942131964489818"><ele></ele><time>2015-2-3T0:40:27Z</time></trkpt>
<trkpt lat="44.674774948507547" lon="4.941798951476812"><ele></ele><time>2015-2-3T0:40:30Z</time></trkpt>
<trkpt lat="44.674183940514922" lon="4.941548919305205"><ele></ele><time>2015-2-3T0:40:33Z</time></trkpt>
<trkpt lat="44.673712961375713" lon="4.941380945965648"><ele></ele><time>2015-2-3T0:40:36Z</time></trkpt>
<trkpt lat="44.673059927299619" lon="4.941304922103882"><ele></ele><time>2015-2-3T0:40:39Z</time></trkpt>
<trkpt lat="44.672627924010158" lon="4.941088920459151"><ele></ele><time>2015-2-3T0:40:42Z</time></trkpt>
<trkpt lat="44.672177983447909" lon="4.940663957968354"><ele></ele><time>2015-2-3T0:40:45Z</time></trkpt>
<trkpt lat="44.671824937686324" lon="4.940192978829145"><ele></ele><time>2015-2-3T0:40:48Z</time></trkpt>
<trkpt lat="44.671501982957125" lon="4.939442966133356"><ele></ele><time>2015-2-3T0:40:51Z</time></trkpt>
<trkpt lat="44.671036954969168" lon="4.939049938693643"><ele></ele><time>2015-2-3T0:40:54Z</time></trkpt>
<trkpt lat="44.670640993863344" lon="4.93872094899416"><ele></ele><time>2015-2-3T0:40:57Z</time></trkpt>
<trkpt lat="44.67026892118156" lon="4.938008990138769"><ele></ele><time>2015-2-3T0:41:0Z</time></trkpt>
<trkpt lat="44.670212930068374" lon="4.937205919995904"><ele></ele><time>2015-2-3T0:41:3Z</time></trkpt>
<trkpt lat="44.669912941753864" lon="4.936586916446686"><ele></ele><time>2015-2-3T0:41:6Z</time></trkpt>
<trkpt lat="44.669418996199965" lon="4.936028933152556"><ele></ele><time>2015-2-3T0:41:9Z</time></trkpt>
<trkpt lat="44.668976934626698" lon="4.935822989791632"><ele></ele><time>2015-2-3T0:41:12Z</time></trkpt>
<trkpt lat="44.668580973520875" lon="4.936029938980937"><ele></ele><time>2015-2-3T0:41:15Z</time></trkpt>
<trkpt lat="44.668269921094179" lon="4.936810964718461"><ele></ele><time>2015-2-3T0:41:18Z</time></trkpt>
<trkpt lat="44.667695928364992" lon="4.936921941116452"><ele></ele><time>2015-2-3T0:41:21Z</time></trkpt>
<trkpt lat="44.667288986966014" lon="4.936617929488421"><ele></ele><time>2015-2-3T0:41:24Z</time></trkpt>
<trkpt lat="44.667104920372367" lon="4.936180980876088"><ele></ele><time>2015-2-3T0:41:27Z</time></trkpt>
<trkpt lat="44.666970977559686" lon="4.935333989560604"><ele></ele><time>2015-2-3T0:41:30Z</time></trkpt>
<trkpt lat="44.666716922074556" lon="4.934730995446444"><ele></ele><time>2015-2-3T0:41:33Z</time></trkpt>
<trkpt lat="44.666427997872233" lon="4.93405994027853"><ele></ele><time>2015-2-3T0:41:36Z</time></trkpt>
<trkpt lat="44.666277961805463" lon="4.933322919532657"><ele></ele><time>2015-2-3T0:41:39Z</time></trkpt>
<trkpt lat="44.666385920718312" lon="4.932507947087288"><ele></ele><time>2015-2-3T0:41:42Z</time></trkpt>
<trkpt lat="44.666806943714619" lon="4.932188931852579"><ele></ele><time>2015-2-3T0:41:45Z</time></trkpt>
<trkpt lat="44.667295943945646" lon="4.932399988174439"><ele></ele><time>2015-2-3T0:41:48Z</time></trkpt>
<trkpt lat="44.667606996372342" lon="4.931953987106681"><ele></ele><time>2015-2-3T0:41:51Z</time></trkpt>
<trkpt lat="44.667523931711912" lon="4.931324925273657"><ele></ele><time>2015-2-3T0:41:54Z</time></trkpt>
<trkpt lat="44.66738797724247" lon="4.930683961138129"><ele></ele><time>2015-2-3T0:41:57Z</time></trkpt>
<trkpt lat="44.667315976694226" lon="4.929859936237335"><ele></ele><time>2015-2-3T0:42:0Z</time></trkpt>
<trkpt lat="44.667446985840797" lon="4.929241938516498"><ele></ele><time>2015-2-3T0:42:3Z</time></trkpt>
<trkpt lat="44.667770946398377" lon="4.928339961916208"><ele></ele><time>2015-2-3T0:42:6Z</time></trkpt>
<trkpt lat="44.668127931654453" lon="4.927545944228768"><ele></ele><time>2015-2-3T0:42:9Z</time></trkpt>
<trkpt lat="44.6682049613446" lon="4.926852928474546"><ele></ele><time>2015-2-3T0:42:12Z</time></trkpt>
<trkpt lat="44.668010920286179" lon="4.925686921924353"><ele></ele><time>2015-2-3T0:42:15Z</time></trkpt>
<trkpt lat="44.667924921959639" lon="4.924860969185829"><ele></ele><time>2015-2-3T0:42:18Z</time></trkpt>
<trkpt lat="44.668193981051445" lon="4.924161918461323"><ele></ele><time>2015-2-3T0:42:21Z</time></trkpt>
<trkpt lat="44.668226921930909" lon="4.923285925760865"><ele></ele><time>2015-2-3T0:42:24Z</time></trkpt>
<trkpt lat="44.66781897470355" lon="4.922530967742205"><ele></ele><time>2015-2-3T0:42:27Z</time></trkpt>
<trkpt lat="44.667424941435456" lon="4.922007936984301"><ele></ele><time>2015-2-3T0:42:30Z</time></trkpt>
<trkpt lat="44.66704691760242" lon="4.920761967077851"><ele></ele><time>2015-2-3T0:42:33Z</time></trkpt>
<trkpt lat="44.667149931192398" lon="4.920086972415447"><ele></ele><time>2015-2-3T0:42:36Z</time></trkpt>
<trkpt lat="44.667441956698895" lon="4.919495964422822"><ele></ele><time>2015-2-3T0:42:39Z</time></trkpt>
<trkpt lat="44.667800953611732" lon="4.918463984504342"><ele></ele><time>2015-2-3T0:42:42Z</time></trkpt>
<trkpt lat="44.667971944436431" lon="4.917819919064641"><ele></ele><time>2015-2-3T0:42:45Z</time></trkpt>
<trkpt lat="44.668147964403033" lon="4.917138973250985"><ele></ele><time>2015-2-3T0:42:48Z</time></trkpt>
<trkpt lat="44.6683119982481" lon="4.916501948609948"><ele></ele><time>2015-2-3T0:42:51Z</time></trkpt>
<trkpt lat="44.668481983244419" lon="4.915897948667407"><ele></ele><time>2015-2-3T0:42:54Z</time></trkpt>
<trkpt lat="44.668990932404995" lon="4.91482699289918"><ele></ele><time>2015-2-3T0:42:57Z</time></trkpt>
<trkpt lat="44.669251944869757" lon="4.914286946877837"><ele></ele><time>2015-2-3T0:43:0Z</time></trkpt>
<trkpt lat="44.669441962614655" lon="4.913147930055857"><ele></ele><time>2015-2-3T0:43:3Z</time></trkpt>
<trkpt lat="44.669466940686107" lon="4.912415938451886"><ele></ele><time>2015-2-3T0:43:6Z</time></trkpt>
<trkpt lat="44.669488985091448" lon="4.91178092546761"><ele></ele><time>2015-2-3T0:43:9Z</time></trkpt>
<trkpt lat="44.669873965904117" lon="4.910807954147458"><ele></ele><time>2015-2-3T0:43:12Z</time></trkpt>
<trkpt lat="44.670365983620286" lon="4.910113932564855"><ele></ele><time>2015-2-3T0:43:15Z</time></trkpt>
<trkpt lat="44.670864958316088" lon="4.909262917935848"><ele></ele><time>2015-2-3T0:43:18Z</time></trkpt>
<trkpt lat="44.671346917748451" lon="4.908360941335559"><ele></ele><time>2015-2-3T0:43:21Z</time></trkpt>
<trkpt lat="44.671511957421899" lon="4.907133998349309"><ele></ele><time>2015-2-3T0:43:24Z</time></trkpt>
<trkpt lat="44.671460995450616" lon="4.90640795789659"><ele></ele><time>2015-2-3T0:43:27Z</time></trkpt>
<trkpt lat="44.67138497158885" lon="4.905520984902978"><ele></ele><time>2015-2-3T0:43:30Z</time></trkpt>
<trkpt lat="44.671362927183509" lon="4.90485998801887"><ele></ele><time>2015-2-3T0:43:33Z</time></trkpt>
<trkpt lat="44.671213980764151" lon="4.904191950336099"><ele></ele><time>2015-2-3T0:43:36Z</time></trkpt>
<trkpt lat="44.670817935839295" lon="4.903014963492751"><ele></ele><time>2015-2-3T0:43:39Z</time></trkpt>
<trkpt lat="44.670564970001578" lon="4.902224969118834"><ele></ele><time>2015-2-3T0:43:42Z</time></trkpt>
<trkpt lat="44.670210918411613" lon="4.901395998895168"><ele></ele><time>2015-2-3T0:43:45Z</time></trkpt>
<trkpt lat="44.669165946543217" lon="4.900635927915573"><ele></ele><time>2015-2-3T0:43:48Z</time></trkpt>
<trkpt lat="44.66798996552825" lon="4.899937966838479"><ele></ele><time>2015-2-3T0:43:51Z</time></trkpt>
<trkpt lat="44.666897971183062" lon="4.899247968569398"><ele></ele><time>2015-2-3T0:43:54Z</time></trkpt>
<trkpt lat="44.666156927123666" lon="4.898769948631525"><ele></ele><time>2015-2-3T0:43:57Z</time></trkpt>
<trkpt lat="44.665742944926023" lon="4.898274997249246"><ele></ele><time>2015-2-3T0:44:0Z</time></trkpt>
<trkpt lat="44.665178926661611" lon="4.897373942658305"><ele></ele><time>2015-2-3T0:44:3Z</time></trkpt>
<trkpt lat="44.664838956668973" lon="4.896671958267689"><ele></ele><time>2015-2-3T0:44:6Z</time></trkpt>
<trkpt lat="44.664458921179175" lon="4.896175917237997"><ele></ele><time>2015-2-3T0:44:9Z</time></trkpt>
<trkpt lat="44.663945948705077" lon="4.89547192119062"><ele></ele><time>2015-2-3T0:44:12Z</time></trkpt>
<trkpt lat="44.663690971210599" lon="4.894917961210012"><ele></ele><time>2015-2-3T0:44:15Z</time></trkpt>
<trkpt lat="44.664099924266338" lon="4.894321924075484"><ele></ele><time>2015-2-3T0:44:18Z</time></trkpt>
<trkpt lat="44.664128925651312" lon="4.893609965220094"><ele></ele><time>2015-2-3T0:44:21Z</time></trkpt>
<trkpt lat="44.663677979260683" lon="4.892821982502937"><ele></ele><time>2015-2-3T0:44:24Z</time></trkpt>
<trkpt lat="44.663314959034324" lon="4.892102982848883"><ele></ele><time>2015-2-3T0:44:27Z</time></trkpt>
<trkpt lat="44.662729986011982" lon="4.891746919602156"><ele></ele><time>2015-2-3T0:44:30Z</time></trkpt>
<trkpt lat="44.662255989387631" lon="4.89143393933773"><ele></ele><time>2015-2-3T0:44:33Z</time></trkpt>
<trkpt lat="44.66184695251286" lon="4.89115197211504"><ele></ele><time>2015-2-3T0:44:36Z</time></trkpt>
<trkpt lat="44.661351917311549" lon="4.890360971912742"><ele></ele><time>2015-2-3T0:44:39Z</time></trkpt>
<trkpt lat="44.660754958167672" lon="4.889680948108435"><ele></ele><time>2015-2-3T0:44:42Z</time></trkpt>
<trkpt lat="44.660097984597087" lon="4.889137968420982"><ele></ele><time>2015-2-3T0:44:45Z</time></trkpt>
<trkpt lat="44.659542934969068" lon="4.888688949868083"><ele></ele><time>2015-2-3T0:44:48Z</time></trkpt>
<trkpt lat="44.658975983038545" lon="4.888180922716856"><ele></ele><time>2015-2-3T0:44:51Z</time></trkpt>
<trkpt lat="44.658456975594163" lon="4.887017933651805"><ele></ele><time>2015-2-3T0:44:54Z</time></trkpt>
<trkpt lat="44.658133937045932" lon="4.88616993650794"><ele></ele><time>2015-2-3T0:44:57Z</time></trkpt>
<trkpt lat="44.657766977325082" lon="4.885537941008806"><ele></ele><time>2015-2-3T0:45:0Z</time></trkpt>
<trkpt lat="44.657162977382541" lon="4.885410955175757"><ele></ele><time>2015-2-3T0:45:3Z</time></trkpt>
<trkpt lat="44.656659979373217" lon="4.885677918791771"><ele></ele><time>2015-2-3T0:45:6Z</time></trkpt>
<trkpt lat="44.656210960820317" lon="4.885717984288931"><ele></ele><time>2015-2-3T0:45:9Z</time></trkpt>
<trkpt lat="44.655680973082781" lon="4.885518997907639"><ele></ele><time>2015-2-3T0:45:12Z</time></trkpt>
<trkpt lat="44.655175963416696" lon="4.885299978777766"><ele></ele><time>2015-2-3T0:45:15Z</time></trkpt>
<trkpt lat="44.654424944892526" lon="4.88468793220818"><ele></ele><time>2015-2-3T0:45:18Z</time></trkpt>
<trkpt lat="44.653975926339626" lon="4.884267998859286"><ele></ele><time>2015-2-3T0:45:21Z</time></trkpt>
<trkpt lat="44.653566973283887" lon="4.883686965331435"><ele></ele><time>2015-2-3T0:45:24Z</time></trkpt>
<trkpt lat="44.653622964397073" lon="4.88286092877388"><ele></ele><time>2015-2-3T0:45:27Z</time></trkpt>
<trkpt lat="44.653473934158683" lon="4.882047967985272"><ele></ele><time>2015-2-3T0:45:30Z</time></trkpt>
<trkpt lat="44.653016952797771" lon="4.881627950817347"><ele></ele><time>2015-2-3T0:45:33Z</time></trkpt>
<trkpt lat="44.652635995298624" lon="4.881287980824709"><ele></ele><time>2015-2-3T0:45:36Z</time></trkpt>
<trkpt lat="44.652245985344052" lon="4.88090199418366"><ele></ele><time>2015-2-3T0:45:39Z</time></trkpt>
<trkpt lat="44.651755979284644" lon="4.880137983709574"><ele></ele><time>2015-2-3T0:45:42Z</time></trkpt>
<trkpt lat="44.651241917163134" lon="4.879312952980399"><ele></ele><time>2015-2-3T0:45:45Z</time></trkpt>
<trkpt lat="44.650551918894053" lon="4.879020927473903"><ele></ele><time>2015-2-3T0:45:48Z</time></trkpt>
<trkpt lat="44.649797966703773" lon="4.879050934687257"><ele></ele><time>2015-2-3T0:45:51Z</time></trkpt>
<trkpt lat="44.649285916239023" lon="4.879067949950695"><ele></ele><time>2015-2-3T0:45:54Z</time></trkpt>
<trkpt lat="44.648798927664757" lon="4.879061998799443"><ele></ele><time>2015-2-3T0:45:57Z</time></trkpt>
<trkpt lat="44.648426938802004" lon="4.878518935292959"><ele></ele><time>2015-2-3T0:46:0Z</time></trkpt>
<trkpt lat="44.648299952968955" lon="4.877673955634236"><ele></ele><time>2015-2-3T0:46:3Z</time></trkpt>
<trkpt lat="44.647931987419724" lon="4.877222925424576"><ele></ele><time>2015-2-3T0:46:6Z</time></trkpt>
<trkpt lat="44.64743091724813" lon="4.876968953758478"><ele></ele><time>2015-2-3T0:46:9Z</time></trkpt>
<trkpt lat="44.646801939234138" lon="4.87667097710073"><ele></ele><time>2015-2-3T0:46:12Z</time></trkpt>
<trkpt lat="44.646392986178398" lon="4.876382974907756"><ele></ele><time>2015-2-3T0:46:15Z</time></trkpt>
<trkpt lat="44.645887976512313" lon="4.875894980505109"><ele></ele><time>2015-2-3T0:46:18Z</time></trkpt>
<trkpt lat="44.645692929625511" lon="4.875322999432683"><ele></ele><time>2015-2-3T0:46:21Z</time></trkpt>
<trkpt lat="44.64540995657444" lon="4.874821929261088"><ele></ele><time>2015-2-3T0:46:24Z</time></trkpt>
<trkpt lat="44.644923973828554" lon="4.874271992594004"><ele></ele><time>2015-2-3T0:46:27Z</time></trkpt>
<trkpt lat="44.644488953053951" lon="4.873866979032755"><ele></ele><time>2015-2-3T0:46:30Z</time></trkpt>
<trkpt lat="44.644110929220915" lon="4.8734709341079"><ele></ele><time>2015-2-3T0:46:33Z</time></trkpt>
<trkpt lat="44.643751932308078" lon="4.872968941926956"><ele></ele><time>2015-2-3T0:46:36Z</time></trkpt>
<trkpt lat="44.64323895983398" lon="4.872852936387062"><ele></ele><time>2015-2-3T0:46:39Z</time></trkpt>
<trkpt lat="44.636111995205283" lon="4.869612995535135"><ele></ele><time>2015-2-3T0:46:42Z</time></trkpt>
<trkpt lat="44.63522594422102" lon="4.869082923978567"><ele></ele><time>2015-2-3T0:46:45Z</time></trkpt>
<trkpt lat="44.63466695509851" lon="4.868639940395951"><ele></ele><time>2015-2-3T0:46:48Z</time></trkpt>
<trkpt lat="44.633957929909229" lon="4.86809796653688"><ele></ele><time>2015-2-3T0:46:51Z</time></trkpt>
<trkpt lat="44.633215963840485" lon="4.867536965757608"><ele></ele><time>2015-2-3T0:46:54Z</time></trkpt>
<trkpt lat="44.632525965571404" lon="4.867009995505214"><ele></ele><time>2015-2-3T0:46:57Z</time></trkpt>
<trkpt lat="44.631643937900662" lon="4.866339946165681"><ele></ele><time>2015-2-3T0:47:0Z</time></trkpt>
<trkpt lat="44.63099392130971" lon="4.865748938173056"><ele></ele><time>2015-2-3T0:47:3Z</time></trkpt>
<trkpt lat="44.63015497662127" lon="4.864756939932704"><ele></ele><time>2015-2-3T0:47:6Z</time></trkpt>
<trkpt lat="44.629630940034986" lon="4.864116981625557"><ele></ele><time>2015-2-3T0:47:9Z</time></trkpt>
<trkpt lat="44.629179993644357" lon="4.863581964746118"><ele></ele><time>2015-2-3T0:47:12Z</time></trkpt>
<trkpt lat="44.628803981468081" lon="4.863125989213586"><ele></ele><time>2015-2-3T0:47:15Z</time></trkpt>
<trkpt lat="44.628388993442059" lon="4.862639922648668"><ele></ele><time>2015-2-3T0:47:18Z</time></trkpt>
<trkpt lat="44.628045922145247" lon="4.862223928794265"><ele></ele><time>2015-2-3T0:47:21Z</time></trkpt>
<trkpt lat="44.627658929675817" lon="4.861108968034387"><ele></ele><time>2015-2-3T0:47:24Z</time></trkpt>
<trkpt lat="44.627465978264809" lon="4.860430955886841"><ele></ele><time>2015-2-3T0:47:27Z</time></trkpt>
<trkpt lat="44.627197925001383" lon="4.85948296263814"><ele></ele><time>2015-2-3T0:47:30Z</time></trkpt>
<trkpt lat="44.626885950565338" lon="4.858502950519323"><ele></ele><time>2015-2-3T0:47:33Z</time></trkpt>
<trkpt lat="44.626559978350997" lon="4.857876989990473"><ele></ele><time>2015-2-3T0:47:36Z</time></trkpt>
<trkpt lat="44.626264935359359" lon="4.857369968667626"><ele></ele><time>2015-2-3T0:47:39Z</time></trkpt>
<trkpt lat="44.625833937898278" lon="4.85662498511374"><ele></ele><time>2015-2-3T0:47:42Z</time></trkpt>
<trkpt lat="44.625418949872255" lon="4.855925934389234"><ele></ele><time>2015-2-3T0:47:45Z</time></trkpt>
<trkpt lat="44.625072944909334" lon="4.855333920568228"><ele></ele><time>2015-2-3T0:47:48Z</time></trkpt>
<trkpt lat="44.624663991853595" lon="4.854607963934541"><ele></ele><time>2015-2-3T0:47:51Z</time></trkpt>
<trkpt lat="44.624236933887005" lon="4.853884940966964"><ele></ele><time>2015-2-3T0:47:54Z</time></trkpt>
<trkpt lat="44.623680962249637" lon="4.852945916354656"><ele></ele><time>2015-2-3T0:47:57Z</time></trkpt>
<trkpt lat="44.62327997200191" lon="4.852294977754355"><ele></ele><time>2015-2-3T0:48:0Z</time></trkpt>
<trkpt lat="44.622803963720798" lon="4.85183397307992"><ele></ele><time>2015-2-3T0:48:3Z</time></trkpt>
<trkpt lat="44.622131986543536" lon="4.851945955306292"><ele></ele><time>2015-2-3T0:48:6Z</time></trkpt>
<trkpt lat="44.621583977714181" lon="4.851691983640194"><ele></ele><time>2015-2-3T0:48:9Z</time></trkpt>
<trkpt lat="44.620827930048108" lon="4.851208934560418"><ele></ele><time>2015-2-3T0:48:12Z</time></trkpt>
<trkpt lat="44.620042964816093" lon="4.850540980696678"><ele></ele><time>2015-2-3T0:48:15Z</time></trkpt>
<trkpt lat="44.619577936828136" lon="4.850091962143779"><ele></ele><time>2015-2-3T0:48:18Z</time></trkpt>
<trkpt lat="44.618968991562724" lon="4.849829943850637"><ele></ele><time>2015-2-3T0:48:21Z</time></trkpt>
<trkpt lat="44.618562972173095" lon="4.849439933896065"><ele></ele><time>2015-2-3T0:48:24Z</time></trkpt>
<trkpt lat="44.618027955293655" lon="4.848712971433997"><ele></ele><time>2015-2-3T0:48:27Z</time></trkpt>
<trkpt lat="44.617388918995857" lon="4.847795991227031"><ele></ele><time>2015-2-3T0:48:30Z</time></trkpt>
<trkpt lat="44.616952976211905" lon="4.847271954640746"><ele></ele><time>2015-2-3T0:48:33Z</time></trkpt>
<trkpt lat="44.616279993206263" lon="4.84659293666482"><ele></ele><time>2015-2-3T0:48:36Z</time></trkpt>
<trkpt lat="44.61584497243166" lon="4.846083987504244"><ele></ele><time>2015-2-3T0:48:39Z</time></trkpt>
<trkpt lat="44.615077944472432" lon="4.845763966441155"><ele></ele><time>2015-2-3T0:48:42Z</time></trkpt>
<trkpt lat="44.614606965333223" lon="4.845637986436486"><ele></ele><time>2015-2-3T0:48:45Z</time></trkpt>
<trkpt lat="44.614037917926908" lon="4.845504965633154"><ele></ele><time>2015-2-3T0:48:48Z</time></trkpt>
<trkpt lat="44.613529974594712" lon="4.845263985916972"><ele></ele><time>2015-2-3T0:48:51Z</time></trkpt>
<trkpt lat="44.612939972430468" lon="4.84504597261548"><ele></ele><time>2015-2-3T0:48:54Z</time></trkpt>
<trkpt lat="44.612275958061218" lon="4.844955950975418"><ele></ele><time>2015-2-3T0:48:57Z</time></trkpt>
<trkpt lat="44.611575985327363" lon="4.845093917101622"><ele></ele><time>2015-2-3T0:49:0Z</time></trkpt>
<trkpt lat="44.610964944586158" lon="4.845118978992105"><ele></ele><time>2015-2-3T0:49:3Z</time></trkpt>
<trkpt lat="44.610305959358811" lon="4.845000961795449"><ele></ele><time>2015-2-3T0:49:6Z</time></trkpt>
<trkpt lat="44.60987395606935" lon="4.844802981242538"><ele></ele><time>2015-2-3T0:49:9Z</time></trkpt>
<trkpt lat="44.609574973583221" lon="4.845261974260211"><ele></ele><time>2015-2-3T0:49:12Z</time></trkpt>
<trkpt lat="44.609317984431982" lon="4.845916936174035"><ele></ele><time>2015-2-3T0:49:15Z</time></trkpt>
<trkpt lat="44.608965944498777" lon="4.846671978011727"><ele></ele><time>2015-2-3T0:49:18Z</time></trkpt>
<trkpt lat="44.608579957857728" lon="4.847002979367971"><ele></ele><time>2015-2-3T0:49:21Z</time></trkpt>
<trkpt lat="44.608080983161926" lon="4.847005996853113"><ele></ele><time>2015-2-3T0:49:24Z</time></trkpt>
<trkpt lat="44.60746793076396" lon="4.846883956342936"><ele></ele><time>2015-2-3T0:49:27Z</time></trkpt>
<trkpt lat="44.606863930821419" lon="4.846819918602705"><ele></ele><time>2015-2-3T0:49:30Z</time></trkpt>
<trkpt lat="44.60620092228055" lon="4.846876999363303"><ele></ele><time>2015-2-3T0:49:33Z</time></trkpt>
<trkpt lat="44.60566196590662" lon="4.846929972991347"><ele></ele><time>2015-2-3T0:49:36Z</time></trkpt>
<trkpt lat="44.604961993172765" lon="4.84706399962306"><ele></ele><time>2015-2-3T0:49:39Z</time></trkpt>
<trkpt lat="44.604297978803515" lon="4.847270948812366"><ele></ele><time>2015-2-3T0:49:42Z</time></trkpt>
<trkpt lat="44.603529945015907" lon="4.84751595184207"><ele></ele><time>2015-2-3T0:49:45Z</time></trkpt>
<trkpt lat="44.602984953671694" lon="4.847612930461764"><ele></ele><time>2015-2-3T0:49:48Z</time></trkpt>
<trkpt lat="44.601870998740196" lon="4.847155949100852"><ele></ele><time>2015-2-3T0:49:51Z</time></trkpt>
<trkpt lat="44.601233974099159" lon="4.846859984099865"><ele></ele><time>2015-2-3T0:49:54Z</time></trkpt>
<trkpt lat="44.600548921152949" lon="4.846536945551634"><ele></ele><time>2015-2-3T0:49:57Z</time></trkpt>
<trkpt lat="44.600074924528599" lon="4.846494952216744"><ele></ele><time>2015-2-3T0:50:0Z</time></trkpt>
<trkpt lat="44.599733948707581" lon="4.84749399125576"><ele></ele><time>2015-2-3T0:50:3Z</time></trkpt>
<trkpt lat="44.599147969856858" lon="4.848298989236355"><ele></ele><time>2015-2-3T0:50:6Z</time></trkpt>
<trkpt lat="44.598052958026528" lon="4.848107965663075"><ele></ele><time>2015-2-3T0:50:9Z</time></trkpt>
<trkpt lat="44.597082920372486" lon="4.847784927114844"><ele></ele><time>2015-2-3T0:50:12Z</time></trkpt>
<trkpt lat="44.596468945965171" lon="4.847580995410681"><ele></ele><time>2015-2-3T0:50:15Z</time></trkpt>
<trkpt lat="44.595725974068046" lon="4.84734395518899"><ele></ele><time>2015-2-3T0:50:18Z</time></trkpt>
<trkpt lat="44.595164973288774" lon="4.847178999334574"><ele></ele><time>2015-2-3T0:50:21Z</time></trkpt>
<trkpt lat="44.594604978337884" lon="4.84702292829752"><ele></ele><time>2015-2-3T0:50:24Z</time></trkpt>
<trkpt lat="44.594152942299843" lon="4.846991999074817"><ele></ele><time>2015-2-3T0:50:27Z</time></trkpt>
<trkpt lat="44.593609962612391" lon="4.846928967162967"><ele></ele><time>2015-2-3T0:50:30Z</time></trkpt>
<trkpt lat="44.59302993491292" lon="4.846863923594356"><ele></ele><time>2015-2-3T0:50:33Z</time></trkpt>
<trkpt lat="44.592376984655857" lon="4.846774991601706"><ele></ele><time>2015-2-3T0:50:36Z</time></trkpt>
<trkpt lat="44.5917599927634" lon="4.846691926941276"><ele></ele><time>2015-2-3T0:50:39Z</time></trkpt>
<trkpt lat="44.591287923976779" lon="4.846664937213063"><ele></ele><time>2015-2-3T0:50:42Z</time></trkpt>
<trkpt lat="44.590662969276309" lon="4.846654962748289"><ele></ele><time>2015-2-3T0:50:45Z</time></trkpt>
<trkpt lat="44.590111942961812" lon="4.846513979136944"><ele></ele><time>2015-2-3T0:50:48Z</time></trkpt>
<trkpt lat="44.589490927755833" lon="4.846323961392045"><ele></ele><time>2015-2-3T0:50:51Z</time></trkpt>
<trkpt lat="44.58873295225203" lon="4.846095973625779"><ele></ele><time>2015-2-3T0:50:54Z</time></trkpt>
<trkpt lat="44.588156947866082" lon="4.84592498280108"><ele></ele><time>2015-2-3T0:50:57Z</time></trkpt>
<trkpt lat="44.587547918781638" lon="4.845711998641491"><ele></ele><time>2015-2-3T0:51:0Z</time></trkpt>
<trkpt lat="44.587064953520894" lon="4.845376973971725"><ele></ele><time>2015-2-3T0:51:3Z</time></trkpt>
<trkpt lat="44.586406974121928" lon="4.845309918746352"><ele></ele><time>2015-2-3T0:51:6Z</time></trkpt>
<trkpt lat="44.585374994203448" lon="4.845114955678582"><ele></ele><time>2015-2-3T0:51:9Z</time></trkpt>
<trkpt lat="44.584634955972433" lon="4.844906916841865"><ele></ele><time>2015-2-3T0:51:12Z</time></trkpt>
<trkpt lat="44.584020981565118" lon="4.844741960987449"><ele></ele><time>2015-2-3T0:51:15Z</time></trkpt>
<trkpt lat="44.583396948873997" lon="4.844579938799143"><ele></ele><time>2015-2-3T0:51:18Z</time></trkpt>
<trkpt lat="44.582813987508416" lon="4.844548925757408"><ele></ele><time>2015-2-3T0:51:21Z</time></trkpt>
<trkpt lat="44.582140920683742" lon="4.844530988484621"><ele></ele><time>2015-2-3T0:51:24Z</time></trkpt>
<trkpt lat="44.58151294849813" lon="4.844510955736041"><ele></ele><time>2015-2-3T0:51:27Z</time></trkpt>
<trkpt lat="44.581015985459089" lon="4.844492934644222"><ele></ele><time>2015-2-3T0:51:30Z</time></trkpt>
<trkpt lat="44.580479962751269" lon="4.843991948291659"><ele></ele><time>2015-2-3T0:51:33Z</time></trkpt>
<trkpt lat="44.580091964453459" lon="4.843563968315721"><ele></ele><time>2015-2-3T0:51:36Z</time></trkpt>
<trkpt lat="44.579698937013745" lon="4.843144956976175"><ele></ele><time>2015-2-3T0:51:39Z</time></trkpt>
<trkpt lat="44.579355949535966" lon="4.842715971171856"><ele></ele><time>2015-2-3T0:51:42Z</time></trkpt>
<trkpt lat="44.578280970454216" lon="4.843484926968813"><ele></ele><time>2015-2-3T0:51:45Z</time></trkpt>
<trkpt lat="44.577810997143388" lon="4.843859933316708"><ele></ele><time>2015-2-3T0:51:48Z</time></trkpt>
<trkpt lat="44.577261982485652" lon="4.844347927719355"><ele></ele><time>2015-2-3T0:51:51Z</time></trkpt>
<trkpt lat="44.576736940070987" lon="4.844821924343705"><ele></ele><time>2015-2-3T0:51:54Z</time></trkpt>
<trkpt lat="44.576301919296384" lon="4.845228949561715"><ele></ele><time>2015-2-3T0:51:57Z</time></trkpt>
<trkpt lat="44.575899923220277" lon="4.845674950629473"><ele></ele><time>2015-2-3T0:52:0Z</time></trkpt>
<trkpt lat="44.57541192881763" lon="4.846272999420762"><ele></ele><time>2015-2-3T0:52:3Z</time></trkpt>
<trkpt lat="44.574962994083762" lon="4.846841963008046"><ele></ele><time>2015-2-3T0:52:6Z</time></trkpt>
<trkpt lat="44.574503917247057" lon="4.847424924373627"><ele></ele><time>2015-2-3T0:52:9Z</time></trkpt>
<trkpt lat="44.57401399500668" lon="4.848044933751226"><ele></ele><time>2015-2-3T0:52:12Z</time></trkpt>
<trkpt lat="44.573421981185675" lon="4.848768962547183"><ele></ele><time>2015-2-3T0:52:15Z</time></trkpt>
<trkpt lat="44.572754949331284" lon="4.84932292252779"><ele></ele><time>2015-2-3T0:52:18Z</time></trkpt>
<trkpt lat="44.572265949100256" lon="4.849539930000901"><ele></ele><time>2015-2-3T0:52:21Z</time></trkpt>
<trkpt lat="44.571384927257895" lon="4.849720979109407"><ele></ele><time>2015-2-3T0:52:24Z</time></trkpt>
<trkpt lat="44.570854939520359" lon="4.849817957729101"><ele></ele><time>2015-2-3T0:52:27Z</time></trkpt>
<trkpt lat="44.570332998409867" lon="4.849915942177177"><ele></ele><time>2015-2-3T0:52:30Z</time></trkpt>
<trkpt lat="44.569844920188189" lon="4.850010992959142"><ele></ele><time>2015-2-3T0:52:33Z</time></trkpt>
<trkpt lat="44.56888091750443" lon="4.850194975733757"><ele></ele><time>2015-2-3T0:52:36Z</time></trkpt>
<trkpt lat="44.568301979452372" lon="4.850350962951779"><ele></ele><time>2015-2-3T0:52:39Z</time></trkpt>
<trkpt lat="44.567520953714848" lon="4.850685987621546"><ele></ele><time>2015-2-3T0:52:42Z</time></trkpt>
<trkpt lat="44.566982919350266" lon="4.85089092515409"><ele></ele><time>2015-2-3T0:52:45Z</time></trkpt>
<trkpt lat="44.56617197021842" lon="4.850798975676298"><ele></ele><time>2015-2-3T0:52:48Z</time></trkpt>
<trkpt lat="44.565715994685888" lon="4.850717922672629"><ele></ele><time>2015-2-3T0:52:51Z</time></trkpt>
<trkpt lat="44.565226994454861" lon="4.85063293017447"><ele></ele><time>2015-2-3T0:52:54Z</time></trkpt>
<trkpt lat="44.564297944307327" lon="4.850481972098351"><ele></ele><time>2015-2-3T0:52:57Z</time></trkpt>
<trkpt lat="44.563820930197835" lon="4.850472919642925"><ele></ele><time>2015-2-3T0:53:0Z</time></trkpt>
<trkpt lat="44.562808983027935" lon="4.850626979023218"><ele></ele><time>2015-2-3T0:53:3Z</time></trkpt>
<trkpt lat="44.562272960320115" lon="4.850705936551094"><ele></ele><time>2015-2-3T0:53:6Z</time></trkpt>
<trkpt lat="44.561507944017649" lon="4.850827977061272"><ele></ele><time>2015-2-3T0:53:9Z</time></trkpt>
<trkpt lat="44.560617953538895" lon="4.850944988429546"><ele></ele><time>2015-2-3T0:53:12Z</time></trkpt>
<trkpt lat="44.559741960838437" lon="4.851084966212511"><ele></ele><time>2015-2-3T0:53:15Z</time></trkpt>
<trkpt lat="44.558927994221449" lon="4.851205917075276"><ele></ele><time>2015-2-3T0:53:18Z</time></trkpt>
<trkpt lat="44.558249982073903" lon="4.851299962028861"><ele></ele><time>2015-2-3T0:53:21Z</time></trkpt>
<trkpt lat="44.5577079243958" lon="4.851378919556737"><ele></ele><time>2015-2-3T0:53:24Z</time></trkpt>
<trkpt lat="44.557069977745414" lon="4.851476987823844"><ele></ele><time>2015-2-3T0:53:27Z</time></trkpt>
<trkpt lat="44.556488944217563" lon="4.851562986150384"><ele></ele><time>2015-2-3T0:53:30Z</time></trkpt>
<trkpt lat="44.555908916518092" lon="4.851613948121667"><ele></ele><time>2015-2-3T0:53:33Z</time></trkpt>
<trkpt lat="44.555391920730472" lon="4.851553933694959"><ele></ele><time>2015-2-3T0:53:36Z</time></trkpt>
<trkpt lat="44.554884983226657" lon="4.851499954238534"><ele></ele><time>2015-2-3T0:53:39Z</time></trkpt>
<trkpt lat="44.554041931405663" lon="4.851466929540038"><ele></ele><time>2015-2-3T0:53:42Z</time></trkpt>
<trkpt lat="44.552962929010391" lon="4.851452931761742"><ele></ele><time>2015-2-3T0:53:45Z</time></trkpt>
<trkpt lat="44.552241917699575" lon="4.851430971175432"><ele></ele><time>2015-2-3T0:53:48Z</time></trkpt>
<trkpt lat="44.551620986312628" lon="4.851406998932362"><ele></ele><time>2015-2-3T0:53:51Z</time></trkpt>
<trkpt lat="44.551124945282936" lon="4.851455949246883"><ele></ele><time>2015-2-3T0:53:54Z</time></trkpt>
<trkpt lat="44.550473922863603" lon="4.851664993911982"><ele></ele><time>2015-2-3T0:53:57Z</time></trkpt>
<trkpt lat="44.550131941214204" lon="4.850755976513028"><ele></ele><time>2015-2-3T0:54:0Z</time></trkpt>
<trkpt lat="44.549598935991526" lon="4.849691977724433"><ele></ele><time>2015-2-3T0:54:3Z</time></trkpt>
<trkpt lat="44.549124939367175" lon="4.84884699806571"><ele></ele><time>2015-2-3T0:54:6Z</time></trkpt>
<trkpt lat="44.548317929729819" lon="4.847648972645402"><ele></ele><time>2015-2-3T0:54:9Z</time></trkpt>
<trkpt lat="44.547797916457057" lon="4.846892924979329"><ele></ele><time>2015-2-3T0:54:12Z</time></trkpt>
<trkpt lat="44.547230964526534" lon="4.846073929220438"><ele></ele><time>2015-2-3T0:54:15Z</time></trkpt>
<trkpt lat="44.546728972345591" lon="4.845357947051525"><ele></ele><time>2015-2-3T0:54:18Z</time></trkpt>
<trkpt lat="44.546369975432754" lon="4.844861989840865"><ele></ele><time>2015-2-3T0:54:21Z</time></trkpt>
<trkpt lat="44.545914921909571" lon="4.844662919640541"><ele></ele><time>2015-2-3T0:54:24Z</time></trkpt>
<trkpt lat="44.545382922515273" lon="4.844355974346399"><ele></ele><time>2015-2-3T0:54:27Z</time></trkpt>
<trkpt lat="44.544974975287914" lon="4.843917936086655"><ele></ele><time>2015-2-3T0:54:30Z</time></trkpt>
<trkpt lat="44.544500978663564" lon="4.843064993619919"><ele></ele><time>2015-2-3T0:54:33Z</time></trkpt>
<trkpt lat="44.544105939567089" lon="4.842356974259019"><ele></ele><time>2015-2-3T0:54:36Z</time></trkpt>
<trkpt lat="44.543759934604168" lon="4.842412965372205"><ele></ele><time>2015-2-3T0:54:39Z</time></trkpt>
<trkpt lat="44.543388951569796" lon="4.843058958649635"><ele></ele><time>2015-2-3T0:54:42Z</time></trkpt>
<trkpt lat="44.543039929121733" lon="4.843483921140432"><ele></ele><time>2015-2-3T0:54:45Z</time></trkpt>
<trkpt lat="44.542470965534449" lon="4.84392698854208"><ele></ele><time>2015-2-3T0:54:48Z</time></trkpt>
<trkpt lat="44.541953969746828" lon="4.843873931095004"><ele></ele><time>2015-2-3T0:54:51Z</time></trkpt>
<trkpt lat="44.54105693846941" lon="4.843767983838916"><ele></ele><time>2015-2-3T0:54:54Z</time></trkpt>
<trkpt lat="44.540601968765259" lon="4.843735964968801"><ele></ele><time>2015-2-3T0:54:57Z</time></trkpt>
<trkpt lat="44.540077932178974" lon="4.843962946906686"><ele></ele><time>2015-2-3T0:55:0Z</time></trkpt>
<trkpt lat="44.539677947759628" lon="4.844265952706337"><ele></ele><time>2015-2-3T0:55:3Z</time></trkpt>
<trkpt lat="44.539019968360662" lon="4.844816979020834"><ele></ele><time>2015-2-3T0:55:6Z</time></trkpt>
<trkpt lat="44.538636999204755" lon="4.845189973711968"><ele></ele><time>2015-2-3T0:55:9Z</time></trkpt>
<trkpt lat="44.53815495595336" lon="4.845659947022796"><ele></ele><time>2015-2-3T0:55:12Z</time></trkpt>
<trkpt lat="44.537732927128673" lon="4.846029924228787"><ele></ele><time>2015-2-3T0:55:15Z</time></trkpt>
<trkpt lat="44.537290949374437" lon="4.846179960295558"><ele></ele><time>2015-2-3T0:55:18Z</time></trkpt>
<trkpt lat="44.536645961925387" lon="4.846262941136956"><ele></ele><time>2015-2-3T0:55:21Z</time></trkpt>
<trkpt lat="44.536060988903046" lon="4.846425969153643"><ele></ele><time>2015-2-3T0:55:24Z</time></trkpt>
<trkpt lat="44.535467969253659" lon="4.846668960526586"><ele></ele><time>2015-2-3T0:55:27Z</time></trkpt>
<trkpt lat="44.534801943227649" lon="4.847088977694511"><ele></ele><time>2015-2-3T0:55:30Z</time></trkpt>
<trkpt lat="44.534123931080103" lon="4.84747395850718"><ele></ele><time>2015-2-3T0:55:33Z</time></trkpt>
<trkpt lat="44.533222960308194" lon="4.847651990130544"><ele></ele><time>2015-2-3T0:55:36Z</time></trkpt>
<trkpt lat="44.532735971733928" lon="4.847659952938557"><ele></ele><time>2015-2-3T0:55:39Z</time></trkpt>
<trkpt lat="44.532007919624448" lon="4.848068989813328"><ele></ele><time>2015-2-3T0:55:42Z</time></trkpt>
<trkpt lat="44.531610952690244" lon="4.848443996161223"><ele></ele><time>2015-2-3T0:55:45Z</time></trkpt>
<trkpt lat="44.530921960249543" lon="4.849088983610272"><ele></ele><time>2015-2-3T0:55:48Z</time></trkpt>
<trkpt lat="44.530284935608506" lon="4.849688960239291"><ele></ele><time>2015-2-3T0:55:51Z</time></trkpt>
<trkpt lat="44.52960398979485" lon="4.850326990708709"><ele></ele><time>2015-2-3T0:55:54Z</time></trkpt>
<trkpt lat="44.529208950698376" lon="4.850697973743081"><ele></ele><time>2015-2-3T0:55:57Z</time></trkpt>
<trkpt lat="44.528609979897738" lon="4.851260986179113"><ele></ele><time>2015-2-3T0:56:0Z</time></trkpt>
<trkpt lat="44.52794898301363" lon="4.851874960586429"><ele></ele><time>2015-2-3T0:56:3Z</time></trkpt>
<trkpt lat="44.527393933385611" lon="4.852414922788739"><ele></ele><time>2015-2-3T0:56:6Z</time></trkpt>
<trkpt lat="44.527044994756579" lon="4.853021940216422"><ele></ele><time>2015-2-3T0:56:9Z</time></trkpt>
<trkpt lat="44.526623971760273" lon="4.854012932628393"><ele></ele><time>2015-2-3T0:56:12Z</time></trkpt>
<trkpt lat="44.526158943772316" lon="4.854699997231364"><ele></ele><time>2015-2-3T0:56:15Z</time></trkpt>
<trkpt lat="44.52582391910255" lon="4.855144992470741"><ele></ele><time>2015-2-3T0:56:18Z</time></trkpt>
<trkpt lat="44.525258978828788" lon="4.855903973802924"><ele></ele><time>2015-2-3T0:56:21Z</time></trkpt>
<trkpt lat="44.524613991379738" lon="4.856751970946789"><ele></ele><time>2015-2-3T0:56:24Z</time></trkpt>
<trkpt lat="44.524237979203463" lon="4.857256980612874"><ele></ele><time>2015-2-3T0:56:27Z</time></trkpt>
<trkpt lat="44.52386892400682" lon="4.857740951701999"><ele></ele><time>2015-2-3T0:56:30Z</time></trkpt>
<trkpt lat="44.523389982059598" lon="4.858374958857894"><ele></ele><time>2015-2-3T0:56:33Z</time></trkpt>
<trkpt lat="44.52283794991672" lon="4.859116924926639"><ele></ele><time>2015-2-3T0:56:36Z</time></trkpt>
<trkpt lat="44.522339981049299" lon="4.859782950952649"><ele></ele><time>2015-2-3T0:56:39Z</time></trkpt>
<trkpt lat="44.521880988031626" lon="4.860384939238429"><ele></ele><time>2015-2-3T0:56:42Z</time></trkpt>
<trkpt lat="44.521369943395257" lon="4.861056916415691"><ele></ele><time>2015-2-3T0:56:45Z</time></trkpt>
<trkpt lat="44.520874992012978" lon="4.861703999340534"><ele></ele><time>2015-2-3T0:56:48Z</time></trkpt>
<trkpt lat="44.520423961803317" lon="4.862166931852698"><ele></ele><time>2015-2-3T0:56:51Z</time></trkpt>
<trkpt lat="44.519861955195665" lon="4.86204095184803"><ele></ele><time>2015-2-3T0:56:54Z</time></trkpt>
<trkpt lat="44.519326938316226" lon="4.861778933554888"><ele></ele><time>2015-2-3T0:56:57Z</time></trkpt>
<trkpt lat="44.518698966130614" lon="4.861475927755237"><ele></ele><time>2015-2-3T0:57:0Z</time></trkpt>
<trkpt lat="44.517988935112953" lon="4.861123971641064"><ele></ele><time>2015-2-3T0:57:3Z</time></trkpt>
<trkpt lat="44.517307989299297" lon="4.860795987769961"><ele></ele><time>2015-2-3T0:57:6Z</time></trkpt>
<trkpt lat="44.51667096465826" lon="4.860564982518554"><ele></ele><time>2015-2-3T0:57:9Z</time></trkpt>
<trkpt lat="44.516007956117392" lon="4.860454928129911"><ele></ele><time>2015-2-3T0:57:12Z</time></trkpt>
<trkpt lat="44.515610989183187" lon="4.860930936411023"><ele></ele><time>2015-2-3T0:57:15Z</time></trkpt>
<trkpt lat="44.515719953924417" lon="4.861786980181932"><ele></ele><time>2015-2-3T0:57:18Z</time></trkpt>
<trkpt lat="44.515805952250957" lon="4.862472955137491"><ele></ele><time>2015-2-3T0:57:21Z</time></trkpt>
<trkpt lat="44.515992952510715" lon="4.863120960071683"><ele></ele><time>2015-2-3T0:57:24Z</time></trkpt>
<trkpt lat="44.516140976920724" lon="4.863862926140428"><ele></ele><time>2015-2-3T0:57:27Z</time></trkpt>
<trkpt lat="44.516087919473648" lon="4.864530963823199"><ele></ele><time>2015-2-3T0:57:30Z</time></trkpt>
<trkpt lat="44.515772927552462" lon="4.865293968468905"><ele></ele><time>2015-2-3T0:57:33Z</time></trkpt>
<trkpt lat="44.516020948067307" lon="4.865816999226809"><ele></ele><time>2015-2-3T0:57:36Z</time></trkpt>
<trkpt lat="44.516032934188843" lon="4.866697937250137"><ele></ele><time>2015-2-3T0:57:39Z</time></trkpt>
<trkpt lat="44.516101917251945" lon="4.867379972711206"><ele></ele><time>2015-2-3T0:57:42Z</time></trkpt>
<trkpt lat="44.515963951125741" lon="4.867285927757621"><ele></ele><time>2015-2-3T0:57:45Z</time></trkpt>
<trkpt lat="44.515745937824249" lon="4.866483947262168"><ele></ele><time>2015-2-3T0:57:48Z</time></trkpt>
<trkpt lat="44.515579976141453" lon="4.865714991465211"><ele></ele><time>2015-2-3T0:57:51Z</time></trkpt>
<trkpt lat="44.515377972275019" lon="4.864783929660916"><ele></ele><time>2015-2-3T0:57:54Z</time></trkpt>
<trkpt lat="44.515197928994894" lon="4.864073982462287"><ele></ele><time>2015-2-3T0:57:57Z</time></trkpt>
<trkpt lat="44.515014952048659" lon="4.86347995698452"><ele></ele><time>2015-2-3T0:58:0Z</time></trkpt>
<trkpt lat="44.51480096206069" lon="4.862869922071695"><ele></ele><time>2015-2-3T0:58:3Z</time></trkpt>
<trkpt lat="44.514388991519809" lon="4.862208925187588"><ele></ele><time>2015-2-3T0:58:6Z</time></trkpt>
<trkpt lat="44.513871995732188" lon="4.8615019954741"><ele></ele><time>2015-2-3T0:58:9Z</time></trkpt>
<trkpt lat="44.513133969157934" lon="4.860993968322873"><ele></ele><time>2015-2-3T0:58:12Z</time></trkpt>
<trkpt lat="44.512530975043774" lon="4.860877962782979"><ele></ele><time>2015-2-3T0:58:15Z</time></trkpt>
<trkpt lat="44.511954970657825" lon="4.860828928649426"><ele></ele><time>2015-2-3T0:58:18Z</time></trkpt>
<trkpt lat="44.511418947950006" lon="4.860928924754262"><ele></ele><time>2015-2-3T0:58:21Z</time></trkpt>
<trkpt lat="44.51080497354269" lon="4.861464947462082"><ele></ele><time>2015-2-3T0:58:24Z</time></trkpt>
<trkpt lat="44.51028898358345" lon="4.862019997090101"><ele></ele><time>2015-2-3T0:58:27Z</time></trkpt>
<trkpt lat="44.509819932281971" lon="4.862542944028974"><ele></ele><time>2015-2-3T0:58:30Z</time></trkpt>
<trkpt lat="44.509377954527736" lon="4.862902946770191"><ele></ele><time>2015-2-3T0:58:33Z</time></trkpt>
<trkpt lat="44.508507996797562" lon="4.862897917628288"><ele></ele><time>2015-2-3T0:58:36Z</time></trkpt>
<trkpt lat="44.507716996595263" lon="4.862605975940824"><ele></ele><time>2015-2-3T0:58:39Z</time></trkpt>
<trkpt lat="44.507159935310483" lon="4.862506985664368"><ele></ele><time>2015-2-3T0:58:42Z</time></trkpt>
<trkpt lat="44.506561970338225" lon="4.862882997840643"><ele></ele><time>2015-2-3T0:58:45Z</time></trkpt>
<trkpt lat="44.506231974810362" lon="4.863809952512384"><ele></ele><time>2015-2-3T0:58:48Z</time></trkpt>
<trkpt lat="44.506510924547911" lon="4.864658955484629"><ele></ele><time>2015-2-3T0:58:51Z</time></trkpt>
<trkpt lat="44.505815980955958" lon="4.864307921379805"><ele></ele><time>2015-2-3T0:58:54Z</time></trkpt>
<trkpt lat="44.505171999335289" lon="4.86399594694376"><ele></ele><time>2015-2-3T0:58:57Z</time></trkpt>
<trkpt lat="44.504514941945672" lon="4.863532930612564"><ele></ele><time>2015-2-3T0:59:0Z</time></trkpt>
<trkpt lat="44.504117975011468" lon="4.863047953695059"><ele></ele><time>2015-2-3T0:59:3Z</time></trkpt>
<trkpt lat="44.503879928961396" lon="4.862423921003938"><ele></ele><time>2015-2-3T0:59:6Z</time></trkpt>
<trkpt lat="44.503883952274919" lon="4.861236959695816"><ele></ele><time>2015-2-3T0:59:9Z</time></trkpt>
<trkpt lat="44.503772975876927" lon="4.860374964773655"><ele></ele><time>2015-2-3T0:59:12Z</time></trkpt>
<trkpt lat="44.503691922873259" lon="4.859576923772693"><ele></ele><time>2015-2-3T0:59:15Z</time></trkpt>
<trkpt lat="44.503530990332365" lon="4.85896797850728"><ele></ele><time>2015-2-3T0:59:18Z</time></trkpt>
<trkpt lat="44.503095969557762" lon="4.858724987134337"><ele></ele><time>2015-2-3T0:59:21Z</time></trkpt>
<trkpt lat="44.502936964854598" lon="4.859620928764343"><ele></ele><time>2015-2-3T0:59:24Z</time></trkpt>
<trkpt lat="44.502764968201518" lon="4.860838986933231"><ele></ele><time>2015-2-3T0:59:27Z</time></trkpt>
<trkpt lat="44.50240395963192" lon="4.863213999196887"><ele></ele><time>2015-2-3T0:59:30Z</time></trkpt>
<trkpt lat="44.502204973250628" lon="4.863857980817556"><ele></ele><time>2015-2-3T0:59:33Z</time></trkpt>
<trkpt lat="44.501803983002901" lon="4.864157969132066"><ele></ele><time>2015-2-3T0:59:36Z</time></trkpt>
<trkpt lat="44.501327974721789" lon="4.86414497718215"><ele></ele><time>2015-2-3T0:59:39Z</time></trkpt>
<trkpt lat="44.500786922872066" lon="4.865125995129347"><ele></ele><time>2015-2-3T0:59:42Z</time></trkpt>
<trkpt lat="44.500482995063066" lon="4.865671992301941"><ele></ele><time>2015-2-3T0:59:45Z</time></trkpt>
<trkpt lat="44.50008493848145" lon="4.866020930930972"><ele></ele><time>2015-2-3T0:59:48Z</time></trkpt>
<trkpt lat="44.499642960727215" lon="4.866199968382716"><ele></ele><time>2015-2-3T0:59:51Z</time></trkpt>
<trkpt lat="44.499380942434072" lon="4.866757951676846"><ele></ele><time>2015-2-3T0:59:54Z</time></trkpt>
<trkpt lat="44.49984697625041" lon="4.867169922217727"><ele></ele><time>2015-2-3T0:59:57Z</time></trkpt>
<trkpt lat="44.499815963208675" lon="4.867891939356923"><ele></ele><time>2015-2-3T1:0:0Z</time></trkpt>
<trkpt lat="44.49965394102037" lon="4.868887960910797"><ele></ele><time>2015-2-3T1:0:3Z</time></trkpt>
<trkpt lat="44.499542964622378" lon="4.869677955284715"><ele></ele><time>2015-2-3T1:0:6Z</time></trkpt>
<trkpt lat="44.499446991831064" lon="4.870484964922071"><ele></ele><time>2015-2-3T1:0:9Z</time></trkpt>
<trkpt lat="44.499337943270802" lon="4.871297925710678"><ele></ele><time>2015-2-3T1:0:12Z</time></trkpt>
<trkpt lat="44.499087994918227" lon="4.871809976175427"><ele></ele><time>2015-2-3T1:0:15Z</time></trkpt>
<trkpt lat="44.498646939173341" lon="4.871893962845206"><ele></ele><time>2015-2-3T1:0:18Z</time></trkpt>
<trkpt lat="44.498465973883867" lon="4.872509948909283"><ele></ele><time>2015-2-3T1:0:21Z</time></trkpt>
<trkpt lat="44.49894592165947" lon="4.873014958575368"><ele></ele><time>2015-2-3T1:0:24Z</time></trkpt>
<trkpt lat="44.499109955504537" lon="4.87364293076098"><ele></ele><time>2015-2-3T1:0:27Z</time></trkpt>
<trkpt lat="44.499368956312537" lon="4.874325972050428"><ele></ele><time>2015-2-3T1:0:30Z</time></trkpt>
<trkpt lat="44.499508934095502" lon="4.87493097782135"><ele></ele><time>2015-2-3T1:0:33Z</time></trkpt>
<trkpt lat="44.499451937153935" lon="4.875610917806625"><ele></ele><time>2015-2-3T1:0:36Z</time></trkpt>
<trkpt lat="44.498925972729921" lon="4.875955916941166"><ele></ele><time>2015-2-3T1:0:39Z</time></trkpt>
<trkpt lat="44.498596983030438" lon="4.876371994614601"><ele></ele><time>2015-2-3T1:0:42Z</time></trkpt>
<trkpt lat="44.499039966613054" lon="4.876720933243632"><ele></ele><time>2015-2-3T1:0:45Z</time></trkpt>
<trkpt lat="44.499351941049099" lon="4.877216974273324"><ele></ele><time>2015-2-3T1:0:48Z</time></trkpt>
<trkpt lat="44.499254962429404" lon="4.878100929781795"><ele></ele><time>2015-2-3T1:0:51Z</time></trkpt>
<trkpt lat="44.499084977433085" lon="4.878922943025827"><ele></ele><time>2015-2-3T1:0:54Z</time></trkpt>
<trkpt lat="44.498909963294864" lon="4.879663987085223"><ele></ele><time>2015-2-3T1:0:57Z</time></trkpt>
<trkpt lat="44.498633947223425" lon="4.880434954538941"><ele></ele><time>2015-2-3T1:1:0Z</time></trkpt>
<trkpt lat="44.498358936980367" lon="4.881198965013027"><ele></ele><time>2015-2-3T1:1:3Z</time></trkpt>
<trkpt lat="44.49800094589591" lon="4.881835989654064"><ele></ele><time>2015-2-3T1:1:6Z</time></trkpt>
<trkpt lat="44.497603978961706" lon="4.88236497156322"><ele></ele><time>2015-2-3T1:1:9Z</time></trkpt>
<trkpt lat="44.4971829559654" lon="4.882963942363858"><ele></ele><time>2015-2-3T1:1:12Z</time></trkpt>
<trkpt lat="44.496811972931027" lon="4.883530978113413"><ele></ele><time>2015-2-3T1:1:15Z</time></trkpt>
<trkpt lat="44.496371923014522" lon="4.883828954771161"><ele></ele><time>2015-2-3T1:1:18Z</time></trkpt>
<trkpt lat="44.4958739541471" lon="4.884051997214556"><ele></ele><time>2015-2-3T1:1:21Z</time></trkpt>
<trkpt lat="44.495456954464316" lon="4.884389955550432"><ele></ele><time>2015-2-3T1:1:24Z</time></trkpt>
<trkpt lat="44.495056970044971" lon="4.884700924158096"><ele></ele><time>2015-2-3T1:1:27Z</time></trkpt>
<trkpt lat="44.494623960927129" lon="4.884998984634876"><ele></ele><time>2015-2-3T1:1:30Z</time></trkpt>
<trkpt lat="44.494116939604282" lon="4.885129993781447"><ele></ele><time>2015-2-3T1:1:33Z</time></trkpt>
<trkpt lat="44.493677979335189" lon="4.884996972978115"><ele></ele><time>2015-2-3T1:1:36Z</time></trkpt>
<trkpt lat="44.493363993242383" lon="4.885562919080257"><ele></ele><time>2015-2-3T1:1:39Z</time></trkpt>
<trkpt lat="44.493163917213678" lon="4.886563969776034"><ele></ele><time>2015-2-3T1:1:42Z</time></trkpt>
<trkpt lat="44.492796957492828" lon="4.887041989713907"><ele></ele><time>2015-2-3T1:1:45Z</time></trkpt>
<trkpt lat="44.49236897751689" lon="4.887410961091518"><ele></ele><time>2015-2-3T1:1:48Z</time></trkpt>
<trkpt lat="44.491728935390711" lon="4.887874983251095"><ele></ele><time>2015-2-3T1:1:51Z</time></trkpt>
<trkpt lat="44.49123096652329" lon="4.888021918013692"><ele></ele><time>2015-2-3T1:1:54Z</time></trkpt>
<trkpt lat="44.490668959915638" lon="4.887697957456112"><ele></ele><time>2015-2-3T1:1:57Z</time></trkpt>
<trkpt lat="44.490251960232854" lon="4.887497965246439"><ele></ele><time>2015-2-3T1:2:0Z</time></trkpt>
<trkpt lat="44.490172918885946" lon="4.888269938528538"><ele></ele><time>2015-2-3T1:2:3Z</time></trkpt>
<trkpt lat="44.490248942747712" lon="4.888970917090774"><ele></ele><time>2015-2-3T1:2:6Z</time></trkpt>
<trkpt lat="44.490109970793128" lon="4.889630991965532"><ele></ele><time>2015-2-3T1:2:9Z</time></trkpt>
<trkpt lat="44.489554921165109" lon="4.889369979500771"><ele></ele><time>2015-2-3T1:2:12Z</time></trkpt>
<trkpt lat="44.48917094618082" lon="4.888916937634349"><ele></ele><time>2015-2-3T1:2:15Z</time></trkpt>
<trkpt lat="44.488787977024913" lon="4.888383932411671"><ele></ele><time>2015-2-3T1:2:18Z</time></trkpt>
<trkpt lat="44.488462926819921" lon="4.88887595012784"><ele></ele><time>2015-2-3T1:2:21Z</time></trkpt>
<trkpt lat="44.48867398314178" lon="4.889622945338488"><ele></ele><time>2015-2-3T1:2:24Z</time></trkpt>
<trkpt lat="44.488419927656651" lon="4.890070958063006"><ele></ele><time>2015-2-3T1:2:27Z</time></trkpt>
<trkpt lat="44.488019943237305" lon="4.889638954773545"><ele></ele><time>2015-2-3T1:2:30Z</time></trkpt>
<trkpt lat="44.487514933571219" lon="4.889757977798581"><ele></ele><time>2015-2-3T1:2:33Z</time></trkpt>
<trkpt lat="44.487330950796604" lon="4.890308920294046"><ele></ele><time>2015-2-3T1:2:36Z</time></trkpt>
<trkpt lat="44.487235983833671" lon="4.890983998775482"><ele></ele><time>2015-2-3T1:2:39Z</time></trkpt>
<trkpt lat="44.486816972494125" lon="4.891251968219876"><ele></ele><time>2015-2-3T1:2:42Z</time></trkpt>
<trkpt lat="44.486362924799323" lon="4.891609959304333"><ele></ele><time>2015-2-3T1:2:45Z</time></trkpt>
<trkpt lat="44.486061930656433" lon="4.892359972000122"><ele></ele><time>2015-2-3T1:2:48Z</time></trkpt>
<trkpt lat="44.485728917643428" lon="4.893218949437141"><ele></ele><time>2015-2-3T1:2:51Z</time></trkpt>
<trkpt lat="44.485482992604375" lon="4.893836947157979"><ele></ele><time>2015-2-3T1:2:54Z</time></trkpt>
<trkpt lat="44.485285934060812" lon="4.894423931837082"><ele></ele><time>2015-2-3T1:2:57Z</time></trkpt>
<trkpt lat="44.48502492159605" lon="4.895270923152566"><ele></ele><time>2015-2-3T1:3:0Z</time></trkpt>
<trkpt lat="44.484818978235126" lon="4.896232997998595"><ele></ele><time>2015-2-3T1:3:3Z</time></trkpt>
<trkpt lat="44.484708923846483" lon="4.897294985130429"><ele></ele><time>2015-2-3T1:3:6Z</time></trkpt>
<trkpt lat="44.48474295437336" lon="4.89805094897747"><ele></ele><time>2015-2-3T1:3:9Z</time></trkpt>
<trkpt lat="44.484432991594076" lon="4.898625947535038"><ele></ele><time>2015-2-3T1:3:12Z</time></trkpt>
<trkpt lat="44.484095955267549" lon="4.899404961615801"><ele></ele><time>2015-2-3T1:3:15Z</time></trkpt>
<trkpt lat="44.483784986659884" lon="4.900486981496215"><ele></ele><time>2015-2-3T1:3:18Z</time></trkpt>
<trkpt lat="44.483597986400127" lon="4.901558943092823"><ele></ele><time>2015-2-3T1:3:21Z</time></trkpt>
<trkpt lat="44.483313923701644" lon="4.902523951604962"><ele></ele><time>2015-2-3T1:3:24Z</time></trkpt>
<trkpt lat="44.483012929558754" lon="4.90333397872746"><ele></ele><time>2015-2-3T1:3:27Z</time></trkpt>
<trkpt lat="44.482653932645917" lon="4.903916940093041"><ele></ele><time>2015-2-3T1:3:30Z</time></trkpt>
<trkpt lat="44.481979943811893" lon="4.903782997280359"><ele></ele><time>2015-2-3T1:3:33Z</time></trkpt>
<trkpt lat="44.481322970241308" lon="4.903452917933464"><ele></ele><time>2015-2-3T1:3:36Z</time></trkpt>
<trkpt lat="44.480836987495422" lon="4.903600942343473"><ele></ele><time>2015-2-3T1:3:39Z</time></trkpt>
<trkpt lat="44.480333989486098" lon="4.904121961444616"><ele></ele><time>2015-2-3T1:3:42Z</time></trkpt>
<trkpt lat="44.479726972058415" lon="4.904671981930733"><ele></ele><time>2015-2-3T1:3:45Z</time></trkpt>
<trkpt lat="44.4792649615556" lon="4.905076995491982"><ele></ele><time>2015-2-3T1:3:48Z</time></trkpt>
<trkpt lat="44.478745954111218" lon="4.90492494776845"><ele></ele><time>2015-2-3T1:3:51Z</time></trkpt>
<trkpt lat="44.478366924449801" lon="4.904298987239599"><ele></ele><time>2015-2-3T1:3:54Z</time></trkpt>
<trkpt lat="44.477838948369026" lon="4.903771933168173"><ele></ele><time>2015-2-3T1:3:57Z</time></trkpt>
<trkpt lat="44.477256992831826" lon="4.903587950393558"><ele></ele><time>2015-2-3T1:4:0Z</time></trkpt>
<trkpt lat="44.476531958207488" lon="4.903379995375872"><ele></ele><time>2015-2-3T1:4:3Z</time></trkpt>
<trkpt lat="44.475836930796504" lon="4.903129963204265"><ele></ele><time>2015-2-3T1:4:6Z</time></trkpt>
<trkpt lat="44.475055988878012" lon="4.903262984007597"><ele></ele><time>2015-2-3T1:4:9Z</time></trkpt>
<trkpt lat="44.474441930651665" lon="4.903616951778531"><ele></ele><time>2015-2-3T1:4:12Z</time></trkpt>
<trkpt lat="44.473761990666389" lon="4.903451995924115"><ele></ele><time>2015-2-3T1:4:15Z</time></trkpt>
<trkpt lat="44.473191937431693" lon="4.903101967647672"><ele></ele><time>2015-2-3T1:4:18Z</time></trkpt>
<trkpt lat="44.472422981634736" lon="4.902979927137494"><ele></ele><time>2015-2-3T1:4:21Z</time></trkpt>
<trkpt lat="44.471887964755297" lon="4.903362980112433"><ele></ele><time>2015-2-3T1:4:24Z</time></trkpt>
<trkpt lat="44.471567943692207" lon="4.904716992750764"><ele></ele><time>2015-2-3T1:4:27Z</time></trkpt>
<trkpt lat="44.471450932323933" lon="4.905383940786123"><ele></ele><time>2015-2-3T1:4:30Z</time></trkpt>
<trkpt lat="44.471126971766353" lon="4.906021971255541"><ele></ele><time>2015-2-3T1:4:33Z</time></trkpt>
<trkpt lat="44.47060595266521" lon="4.906509965658188"><ele></ele><time>2015-2-3T1:4:36Z</time></trkpt>
<trkpt lat="44.470074959099293" lon="4.906993936747313"><ele></ele><time>2015-2-3T1:4:39Z</time></trkpt>
<trkpt lat="44.469497948884964" lon="4.907527947798371"><ele></ele><time>2015-2-3T1:4:42Z</time></trkpt>
<trkpt lat="44.468955975025892" lon="4.908077968284488"><ele></ele><time>2015-2-3T1:4:45Z</time></trkpt>
<trkpt lat="44.468487929552794" lon="4.90866394713521"><ele></ele><time>2015-2-3T1:4:48Z</time></trkpt>
<trkpt lat="44.467953918501735" lon="4.909433992579579"><ele></ele><time>2015-2-3T1:4:51Z</time></trkpt>
<trkpt lat="44.467354947701097" lon="4.91040394641459"><ele></ele><time>2015-2-3T1:4:54Z</time></trkpt>
<trkpt lat="44.466895954683423" lon="4.911152953281999"><ele></ele><time>2015-2-3T1:4:57Z</time></trkpt>
<trkpt lat="44.466594960540533" lon="4.911642959341407"><ele></ele><time>2015-2-3T1:5:0Z</time></trkpt>
<trkpt lat="44.466224983334541" lon="4.912235978990793"><ele></ele><time>2015-2-3T1:5:3Z</time></trkpt>
<trkpt lat="44.465624922886491" lon="4.913211967796087"><ele></ele><time>2015-2-3T1:5:6Z</time></trkpt>
<trkpt lat="44.464768962934613" lon="4.914601938799024"><ele></ele><time>2015-2-3T1:5:9Z</time></trkpt>
<trkpt lat="44.464127998799086" lon="4.915643977001309"><ele></ele><time>2015-2-3T1:5:12Z</time></trkpt>
<trkpt lat="44.46338796056807" lon="4.916830938309431"><ele></ele><time>2015-2-3T1:5:15Z</time></trkpt>
<trkpt lat="44.463102975860238" lon="4.917376935482025"><ele></ele><time>2015-2-3T1:5:18Z</time></trkpt>
<trkpt lat="44.463016977533698" lon="4.918044973164797"><ele></ele><time>2015-2-3T1:5:21Z</time></trkpt>
<trkpt lat="44.46340799331665" lon="4.91845996119082"><ele></ele><time>2015-2-3T1:5:24Z</time></trkpt>
<trkpt lat="44.462930979207158" lon="4.919355986639857"><ele></ele><time>2015-2-3T1:5:27Z</time></trkpt>
<trkpt lat="44.462247937917709" lon="4.919678941369057"><ele></ele><time>2015-2-3T1:5:30Z</time></trkpt>
<trkpt lat="44.461473952978849" lon="4.920493997633457"><ele></ele><time>2015-2-3T1:5:33Z</time></trkpt>
<trkpt lat="44.461099952459335" lon="4.920936981216073"><ele></ele><time>2015-2-3T1:5:36Z</time></trkpt>
<trkpt lat="44.461154937744141" lon="4.92146696895361"><ele></ele><time>2015-2-3T1:5:39Z</time></trkpt>
<trkpt lat="44.461357947438955" lon="4.922018917277455"><ele></ele><time>2015-2-3T1:5:42Z</time></trkpt>
<trkpt lat="44.460564935579896" lon="4.922700952738524"><ele></ele><time>2015-2-3T1:5:45Z</time></trkpt>
<trkpt lat="44.45999295450747" lon="4.923111917451024"><ele></ele><time>2015-2-3T1:5:48Z</time></trkpt>
<trkpt lat="44.459441928192973" lon="4.923843992874026"><ele></ele><time>2015-2-3T1:5:51Z</time></trkpt>
<trkpt lat="44.458968937397003" lon="4.924544971436262"><ele></ele><time>2015-2-3T1:5:54Z</time></trkpt>
<trkpt lat="44.458680935204029" lon="4.925296995788813"><ele></ele><time>2015-2-3T1:5:57Z</time></trkpt>
<trkpt lat="44.458784954622388" lon="4.926251946017146"><ele></ele><time>2015-2-3T1:6:0Z</time></trkpt>
<trkpt lat="44.458841951563954" lon="4.926911937072873"><ele></ele><time>2015-2-3T1:6:3Z</time></trkpt>
<trkpt lat="44.458061931654811" lon="4.926939932629466"><ele></ele><time>2015-2-3T1:6:6Z</time></trkpt>
<trkpt lat="44.457964953035116" lon="4.927637977525592"><ele></ele><time>2015-2-3T1:6:9Z</time></trkpt>
<trkpt lat="44.458549926057458" lon="4.928488992154598"><ele></ele><time>2015-2-3T1:6:12Z</time></trkpt>
<trkpt lat="44.458957957103848" lon="4.929113946855068"><ele></ele><time>2015-2-3T1:6:15Z</time></trkpt>
<trkpt lat="44.459152920171618" lon="4.929753988981247"><ele></ele><time>2015-2-3T1:6:18Z</time></trkpt>
<trkpt lat="44.458886962383986" lon="4.930663928389549"><ele></ele><time>2015-2-3T1:6:21Z</time></trkpt>
<trkpt lat="44.458371978253126" lon="4.931063996627927"><ele></ele><time>2015-2-3T1:6:24Z</time></trkpt>
<trkpt lat="44.457425996661186" lon="4.930454967543483"><ele></ele><time>2015-2-3T1:6:27Z</time></trkpt>
<trkpt lat="44.456657962873578" lon="4.929989939555526"><ele></ele><time>2015-2-3T1:6:30Z</time></trkpt>
<trkpt lat="44.456005934625864" lon="4.929726999253035"><ele></ele><time>2015-2-3T1:6:33Z</time></trkpt>
<trkpt lat="44.455356923863292" lon="4.929493982344866"><ele></ele><time>2015-2-3T1:6:36Z</time></trkpt>
<trkpt lat="44.454887956380844" lon="4.929414940997958"><ele></ele><time>2015-2-3T1:6:39Z</time></trkpt>
<trkpt lat="44.454272976145148" lon="4.929451989009976"><ele></ele><time>2015-2-3T1:6:42Z</time></trkpt>
<trkpt lat="44.453806942328811" lon="4.92948099039495"><ele></ele><time>2015-2-3T1:6:45Z</time></trkpt>
<trkpt lat="44.453195985406637" lon="4.929409995675087"><ele></ele><time>2015-2-3T1:6:48Z</time></trkpt>
<trkpt lat="44.45240892469883" lon="4.929310921579599"><ele></ele><time>2015-2-3T1:6:51Z</time></trkpt>
<trkpt lat="44.451709957793355" lon="4.929530946537852"><ele></ele><time>2015-2-3T1:6:54Z</time></trkpt>
<trkpt lat="44.451239984482527" lon="4.930132934823632"><ele></ele><time>2015-2-3T1:6:57Z</time></trkpt>
<trkpt lat="44.451153986155987" lon="4.931290978565812"><ele></ele><time>2015-2-3T1:7:0Z</time></trkpt>
<trkpt lat="44.451288934797049" lon="4.932002937421203"><ele></ele><time>2015-2-3T1:7:3Z</time></trkpt>
<trkpt lat="44.451374933123589" lon="4.932718919590116"><ele></ele><time>2015-2-3T1:7:6Z</time></trkpt>
<trkpt lat="44.451030939817429" lon="4.933827929198742"><ele></ele><time>2015-2-3T1:7:9Z</time></trkpt>
<trkpt lat="44.450954999774694" lon="4.934671986848116"><ele></ele><time>2015-2-3T1:7:12Z</time></trkpt>
<trkpt lat="44.451345931738615" lon="4.93496191687882"><ele></ele><time>2015-2-3T1:7:15Z</time></trkpt>
<trkpt lat="44.451619936153293" lon="4.935459969565272"><ele></ele><time>2015-2-3T1:7:18Z</time></trkpt>
<trkpt lat="44.451188938692212" lon="4.93659395724535"><ele></ele><time>2015-2-3T1:7:21Z</time></trkpt>
<trkpt lat="44.450959945097566" lon="4.937161998823285"><ele></ele><time>2015-2-3T1:7:24Z</time></trkpt>
<trkpt lat="44.450706979259849" lon="4.938086941838265"><ele></ele><time>2015-2-3T1:7:27Z</time></trkpt>
<trkpt lat="44.450586950406432" lon="4.939392926171422"><ele></ele><time>2015-2-3T1:7:30Z</time></trkpt>
<trkpt lat="44.450519979000092" lon="4.940341925248504"><ele></ele><time>2015-2-3T1:7:33Z</time></trkpt>
<trkpt lat="44.450448984280229" lon="4.941379940137267"><ele></ele><time>2015-2-3T1:7:36Z</time></trkpt>
<trkpt lat="44.450370948761702" lon="4.942419966682792"><ele></ele><time>2015-2-3T1:7:39Z</time></trkpt>
<trkpt lat="44.450311940163374" lon="4.943121951073408"><ele></ele><time>2015-2-3T1:7:42Z</time></trkpt>
<trkpt lat="44.450046988204122" lon="4.943608939647675"><ele></ele><time>2015-2-3T1:7:45Z</time></trkpt>
<trkpt lat="44.449592940509319" lon="4.943737937137485"><ele></ele><time>2015-2-3T1:7:48Z</time></trkpt>
<trkpt lat="44.449030933901668" lon="4.943490922451019"><ele></ele><time>2015-2-3T1:7:51Z</time></trkpt>
<trkpt lat="44.448508992791176" lon="4.943287996575236"><ele></ele><time>2015-2-3T1:7:54Z</time></trkpt>
<trkpt lat="44.447589917108417" lon="4.942847946658731"><ele></ele><time>2015-2-3T1:7:57Z</time></trkpt>
<trkpt lat="44.447007961571217" lon="4.942574948072434"><ele></ele><time>2015-2-3T1:8:0Z</time></trkpt>
<trkpt lat="44.446479985490441" lon="4.942333968356252"><ele></ele><time>2015-2-3T1:8:3Z</time></trkpt>
<trkpt lat="44.445836925879121" lon="4.941990980878472"><ele></ele><time>2015-2-3T1:8:6Z</time></trkpt>
<trkpt lat="44.445414980873466" lon="4.941564928740263"><ele></ele><time>2015-2-3T1:8:9Z</time></trkpt>
<trkpt lat="44.444978954270482" lon="4.941115994006395"><ele></ele><time>2015-2-3T1:8:12Z</time></trkpt>
<trkpt lat="44.444554997608066" lon="4.940597992390394"><ele></ele><time>2015-2-3T1:8:15Z</time></trkpt>
<trkpt lat="44.443949991837144" lon="4.939685957506299"><ele></ele><time>2015-2-3T1:8:18Z</time></trkpt>
<trkpt lat="44.443560987710953" lon="4.939191928133369"><ele></ele><time>2015-2-3T1:8:21Z</time></trkpt>
<trkpt lat="44.443180952221155" lon="4.9387879204005"><ele></ele><time>2015-2-3T1:8:24Z</time></trkpt>
<trkpt lat="44.4427399802953" lon="4.938458930701017"><ele></ele><time>2015-2-3T1:8:27Z</time></trkpt>
<trkpt lat="44.442185936495662" lon="4.938064981251955"><ele></ele><time>2015-2-3T1:8:30Z</time></trkpt>
<trkpt lat="44.441751921549439" lon="4.937713947147131"><ele></ele><time>2015-2-3T1:8:33Z</time></trkpt>
<trkpt lat="44.441207936033607" lon="4.936875924468041"><ele></ele><time>2015-2-3T1:8:36Z</time></trkpt>
<trkpt lat="44.440887998789549" lon="4.936324981972575"><ele></ele><time>2015-2-3T1:8:39Z</time></trkpt>
<trkpt lat="44.440682977437973" lon="4.935509925708175"><ele></ele><time>2015-2-3T1:8:42Z</time></trkpt>
<trkpt lat="44.440494971349835" lon="4.934903997927904"><ele></ele><time>2015-2-3T1:8:45Z</time></trkpt>
<trkpt lat="44.439757950603962" lon="4.934220956638455"><ele></ele><time>2015-2-3T1:8:48Z</time></trkpt>
<trkpt lat="44.439288983121514" lon="4.933665990829468"><ele></ele><time>2015-2-3T1:8:51Z</time></trkpt>
<trkpt lat="44.439060995355248" lon="4.933118987828493"><ele></ele><time>2015-2-3T1:8:54Z</time></trkpt>
<trkpt lat="44.438845999538898" lon="4.93242597207427"><ele></ele><time>2015-2-3T1:8:57Z</time></trkpt>
<trkpt lat="44.438605941832066" lon="4.931628936901689"><ele></ele><time>2015-2-3T1:9:0Z</time></trkpt>
<trkpt lat="44.438277957960963" lon="4.930565943941474"><ele></ele><time>2015-2-3T1:9:3Z</time></trkpt>
<trkpt lat="44.437996996566653" lon="4.929650975391269"><ele></ele><time>2015-2-3T1:9:6Z</time></trkpt>
<trkpt lat="44.437693990767002" lon="4.928675992414355"><ele></ele><time>2015-2-3T1:9:9Z</time></trkpt>
<trkpt lat="44.437406994402409" lon="4.927725987508893"><ele></ele><time>2015-2-3T1:9:12Z</time></trkpt>
<trkpt lat="44.437072975561023" lon="4.92664497345686"><ele></ele><time>2015-2-3T1:9:15Z</time></trkpt>
<trkpt lat="44.43676795810461" lon="4.925666972994804"><ele></ele><time>2015-2-3T1:9:18Z</time></trkpt>
<trkpt lat="44.436440980061889" lon="4.924610937014222"><ele></ele><time>2015-2-3T1:9:21Z</time></trkpt>
<trkpt lat="44.436057927086949" lon="4.924318995326757"><ele></ele><time>2015-2-3T1:9:24Z</time></trkpt>
<trkpt lat="44.435384944081306" lon="4.925140924751759"><ele></ele><time>2015-2-3T1:9:27Z</time></trkpt>
<trkpt lat="44.435051931068301" lon="4.9255929607898"><ele></ele><time>2015-2-3T1:9:30Z</time></trkpt>
<trkpt lat="44.434617999941111" lon="4.925804939121008"><ele></ele><time>2015-2-3T1:9:33Z</time></trkpt>
<trkpt lat="44.434097986668348" lon="4.925392968580127"><ele></ele><time>2015-2-3T1:9:36Z</time></trkpt>
<trkpt lat="44.43360798060894" lon="4.925019973888993"><ele></ele><time>2015-2-3T1:9:39Z</time></trkpt>
<trkpt lat="44.433069946244359" lon="4.924608925357461"><ele></ele><time>2015-2-3T1:9:42Z</time></trkpt>
<trkpt lat="44.432479944080114" lon="4.924150938168168"><ele></ele><time>2015-2-3T1:9:45Z</time></trkpt>
<trkpt lat="44.431980969384313" lon="4.923768974840641"><ele></ele><time>2015-2-3T1:9:48Z</time></trkpt>
<trkpt lat="44.431547960266471" lon="4.923436967656016"><ele></ele><time>2015-2-3T1:9:51Z</time></trkpt>
<trkpt lat="44.431114951148629" lon="4.923012927174568"><ele></ele><time>2015-2-3T1:9:54Z</time></trkpt>
<trkpt lat="44.430733993649483" lon="4.922082955017686"><ele></ele><time>2015-2-3T1:9:57Z</time></trkpt>
<trkpt lat="44.430528972297907" lon="4.921326991170645"><ele></ele><time>2015-2-3T1:10:0Z</time></trkpt>
<trkpt lat="44.430351946502924" lon="4.92065392434597"><ele></ele><time>2015-2-3T1:10:3Z</time></trkpt>
<trkpt lat="44.430058998987079" lon="4.919784972444177"><ele></ele><time>2015-2-3T1:10:6Z</time></trkpt>
<trkpt lat="44.429306974634528" lon="4.919235957786441"><ele></ele><time>2015-2-3T1:10:9Z</time></trkpt>
<trkpt lat="44.428888969123363" lon="4.918994978070259"><ele></ele><time>2015-2-3T1:10:12Z</time></trkpt>
<trkpt lat="44.428321933373809" lon="4.918669927865267"><ele></ele><time>2015-2-3T1:10:15Z</time></trkpt>
<trkpt lat="44.427777947857976" lon="4.91835493594408"><ele></ele><time>2015-2-3T1:10:18Z</time></trkpt>
<trkpt lat="44.427200937643647" lon="4.918018989264965"><ele></ele><time>2015-2-3T1:10:21Z</time></trkpt>
<trkpt lat="44.426401974633336" lon="4.91755697876215"><ele></ele><time>2015-2-3T1:10:24Z</time></trkpt>
<trkpt lat="44.425880955532193" lon="4.91725891828537"><ele></ele><time>2015-2-3T1:10:27Z</time></trkpt>
<trkpt lat="44.425458926707506" lon="4.917011987417936"><ele></ele><time>2015-2-3T1:10:30Z</time></trkpt>
<trkpt lat="44.424925921484828" lon="4.916704958304763"><ele></ele><time>2015-2-3T1:10:33Z</time></trkpt>
<trkpt lat="44.42393995821476" lon="4.916143957525492"><ele></ele><time>2015-2-3T1:10:36Z</time></trkpt>
<trkpt lat="44.423500997945666" lon="4.915891997516155"><ele></ele><time>2015-2-3T1:10:39Z</time></trkpt>
<trkpt lat="44.422764983028173" lon="4.915457982569933"><ele></ele><time>2015-2-3T1:10:42Z</time></trkpt>
<trkpt lat="44.422225942835212" lon="4.915023967623711"><ele></ele><time>2015-2-3T1:10:45Z</time></trkpt>
<trkpt lat="44.421863928437233" lon="4.914550976827741"><ele></ele><time>2015-2-3T1:10:48Z</time></trkpt>
<trkpt lat="44.421517923474312" lon="4.913923926651478"><ele></ele><time>2015-2-3T1:10:51Z</time></trkpt>
<trkpt lat="44.421050967648625" lon="4.91302396170795"><ele></ele><time>2015-2-3T1:10:54Z</time></trkpt>
<trkpt lat="44.420723989605904" lon="4.912393977865577"><ele></ele><time>2015-2-3T1:10:57Z</time></trkpt>
<trkpt lat="44.420441938564181" lon="4.91184395737946"><ele></ele><time>2015-2-3T1:11:0Z</time></trkpt>
<trkpt lat="44.419961990788579" lon="4.910918930545449"><ele></ele><time>2015-2-3T1:11:3Z</time></trkpt>
<trkpt lat="44.419680945575237" lon="4.910385925322771"><ele></ele><time>2015-2-3T1:11:6Z</time></trkpt>
<trkpt lat="44.418936967849731" lon="4.91031794808805"><ele></ele><time>2015-2-3T1:11:9Z</time></trkpt>
<trkpt lat="44.418356940150261" lon="4.910394977778196"><ele></ele><time>2015-2-3T1:11:12Z</time></trkpt>
<trkpt lat="44.417850924655795" lon="4.910425990819931"><ele></ele><time>2015-2-3T1:11:15Z</time></trkpt>
<trkpt lat="44.417368965223432" lon="4.910462955012918"><ele></ele><time>2015-2-3T1:11:18Z</time></trkpt>
<trkpt lat="44.416919946670532" lon="4.909935984760523"><ele></ele><time>2015-2-3T1:11:21Z</time></trkpt>
<trkpt lat="44.416512921452522" lon="4.909507920965552"><ele></ele><time>2015-2-3T1:11:24Z</time></trkpt>
<trkpt lat="44.416155936196446" lon="4.909018920734525"><ele></ele><time>2015-2-3T1:11:27Z</time></trkpt>
<trkpt lat="44.416515938937664" lon="4.909584950655699"><ele></ele><time>2015-2-3T1:11:30Z</time></trkpt>
<trkpt lat="44.416977949440479" lon="4.910088954493403"><ele></ele><time>2015-2-3T1:11:33Z</time></trkpt>
<trkpt lat="44.417505925521255" lon="4.909210950136185"><ele></ele><time>2015-2-3T1:11:36Z</time></trkpt>
<trkpt lat="44.417759981006384" lon="4.908672999590635"><ele></ele><time>2015-2-3T1:11:39Z</time></trkpt>
<trkpt lat="44.418270941823721" lon="4.907944947481155"><ele></ele><time>2015-2-3T1:11:42Z</time></trkpt>
<trkpt lat="44.418826997280121" lon="4.90765099413693"><ele></ele><time>2015-2-3T1:11:45Z</time></trkpt>
<trkpt lat="44.41934198141098" lon="4.907727940008044"><ele></ele><time>2015-2-3T1:11:48Z</time></trkpt>
<trkpt lat="44.419829975813627" lon="4.908097917214036"><ele></ele><time>2015-2-3T1:11:51Z</time></trkpt>
<trkpt lat="44.419904993847013" lon="4.907534988597035"><ele></ele><time>2015-2-3T1:11:54Z</time></trkpt>
<trkpt lat="44.419901976361871" lon="4.906353978440166"><ele></ele><time>2015-2-3T1:11:57Z</time></trkpt>
<trkpt lat="44.419878926128149" lon="4.905635984614492"><ele></ele><time>2015-2-3T1:12:0Z</time></trkpt>
<trkpt lat="44.419875992462039" lon="4.904908938333392"><ele></ele><time>2015-2-3T1:12:3Z</time></trkpt>
<trkpt lat="44.419875992462039" lon="4.904204942286015"><ele></ele><time>2015-2-3T1:12:6Z</time></trkpt>
<trkpt lat="44.419874986633658" lon="4.903568923473358"><ele></ele><time>2015-2-3T1:12:9Z</time></trkpt>
<trkpt lat="44.419854953885078" lon="4.902737941592932"><ele></ele><time>2015-2-3T1:12:12Z</time></trkpt>
<trkpt lat="44.419805919751525" lon="4.901828924193978"><ele></ele><time>2015-2-3T1:12:15Z</time></trkpt>
<trkpt lat="44.419610956683755" lon="4.901081928983331"><ele></ele><time>2015-2-3T1:12:18Z</time></trkpt>
<trkpt lat="44.419392943382263" lon="4.900327976793051"><ele></ele><time>2015-2-3T1:12:21Z</time></trkpt>
<trkpt lat="44.419158920645714" lon="4.899405967444181"><ele></ele><time>2015-2-3T1:12:24Z</time></trkpt>
<trkpt lat="44.419077951461077" lon="4.898486975580454"><ele></ele><time>2015-2-3T1:12:27Z</time></trkpt>
<trkpt lat="44.419059930369258" lon="4.897840982303023"><ele></ele><time>2015-2-3T1:12:30Z</time></trkpt>
<trkpt lat="44.418710991740227" lon="4.897185936570168"><ele></ele><time>2015-2-3T1:12:33Z</time></trkpt>
<trkpt lat="44.418070949614048" lon="4.896432990208268"><ele></ele><time>2015-2-3T1:12:36Z</time></trkpt>
<trkpt lat="44.417711952701211" lon="4.896006938070059"><ele></ele><time>2015-2-3T1:12:39Z</time></trkpt>
<trkpt lat="44.417329989373684" lon="4.895552974194288"><ele></ele><time>2015-2-3T1:12:42Z</time></trkpt>
<trkpt lat="44.416923969984055" lon="4.895079983398318"><ele></ele><time>2015-2-3T1:12:45Z</time></trkpt>
<trkpt lat="44.416472939774394" lon="4.894556952640414"><ele></ele><time>2015-2-3T1:12:48Z</time></trkpt>
<trkpt lat="44.416044959798455" lon="4.894048925489187"><ele></ele><time>2015-2-3T1:12:51Z</time></trkpt>
<trkpt lat="44.415497956797481" lon="4.893394969403744"><ele></ele><time>2015-2-3T1:12:54Z</time></trkpt>
<trkpt lat="44.414877947419882" lon="4.892644956707954"><ele></ele><time>2015-2-3T1:12:57Z</time></trkpt>
<trkpt lat="44.414233965799212" lon="4.89188396371901"><ele></ele><time>2015-2-3T1:13:0Z</time></trkpt>
<trkpt lat="44.413508931174874" lon="4.891031943261623"><ele></ele><time>2015-2-3T1:13:3Z</time></trkpt>
<trkpt lat="44.412844916805625" lon="4.890243960544467"><ele></ele><time>2015-2-3T1:13:6Z</time></trkpt>
<trkpt lat="44.412194984033704" lon="4.889469975605607"><ele></ele><time>2015-2-3T1:13:9Z</time></trkpt>
<trkpt lat="44.411515966057777" lon="4.888662965968251"><ele></ele><time>2015-2-3T1:13:12Z</time></trkpt>
<trkpt lat="44.41094197332859" lon="4.887976991012693"><ele></ele><time>2015-2-3T1:13:15Z</time></trkpt>
<trkpt lat="44.410367980599403" lon="4.887294955551624"><ele></ele><time>2015-2-3T1:13:18Z</time></trkpt>
<trkpt lat="44.409883925691247" lon="4.886717945337296"><ele></ele><time>2015-2-3T1:13:21Z</time></trkpt>
<trkpt lat="44.409401966258883" lon="4.886141940951347"><ele></ele><time>2015-2-3T1:13:24Z</time></trkpt>
<trkpt lat="44.408910954371095" lon="4.885563924908638"><ele></ele><time>2015-2-3T1:13:27Z</time></trkpt>
<trkpt lat="44.408479956910014" lon="4.885064950212836"><ele></ele><time>2015-2-3T1:13:30Z</time></trkpt>
<trkpt lat="44.407971929758787" lon="4.884453993290663"><ele></ele><time>2015-2-3T1:13:33Z</time></trkpt>
<trkpt lat="44.407466920092702" lon="4.883853932842612"><ele></ele><time>2015-2-3T1:13:36Z</time></trkpt>
<trkpt lat="44.4069679453969" lon="4.883252950385213"><ele></ele><time>2015-2-3T1:13:39Z</time></trkpt>
<trkpt lat="44.406578941270709" lon="4.882797980681062"><ele></ele><time>2015-2-3T1:13:42Z</time></trkpt>
<trkpt lat="44.405755922198296" lon="4.882224993780255"><ele></ele><time>2015-2-3T1:13:45Z</time></trkpt>
<trkpt lat="44.404743975028396" lon="4.882141929119825"><ele></ele><time>2015-2-3T1:13:48Z</time></trkpt>
<trkpt lat="44.404141986742616" lon="4.882155926898122"><ele></ele><time>2015-2-3T1:13:51Z</time></trkpt>
<trkpt lat="44.403625996783376" lon="4.882252989336848"><ele></ele><time>2015-2-3T1:13:54Z</time></trkpt>
<trkpt lat="44.403052926063538" lon="4.882498998194933"><ele></ele><time>2015-2-3T1:13:57Z</time></trkpt>
<trkpt lat="44.402374997735023" lon="4.882789934054017"><ele></ele><time>2015-2-3T1:14:0Z</time></trkpt>
<trkpt lat="44.401849955320358" lon="4.882876938208938"><ele></ele><time>2015-2-3T1:14:3Z</time></trkpt>
<trkpt lat="44.401274956762791" lon="4.882827987894416"><ele></ele><time>2015-2-3T1:14:6Z</time></trkpt>
<trkpt lat="44.40082099288702" lon="4.882740983739495"><ele></ele><time>2015-2-3T1:14:9Z</time></trkpt>
<trkpt lat="44.400160918012261" lon="4.882324989885092"><ele></ele><time>2015-2-3T1:14:12Z</time></trkpt>
<trkpt lat="44.399519953876734" lon="4.882104964926839"><ele></ele><time>2015-2-3T1:14:15Z</time></trkpt>
<trkpt lat="44.39862996339798" lon="4.882465973496437"><ele></ele><time>2015-2-3T1:14:18Z</time></trkpt>
<trkpt lat="44.398130988702178" lon="4.882604945451021"><ele></ele><time>2015-2-3T1:14:21Z</time></trkpt>
<trkpt lat="44.397399919107556" lon="4.882376957684755"><ele></ele><time>2015-2-3T1:14:24Z</time></trkpt>
<trkpt lat="44.396873954683542" lon="4.882087949663401"><ele></ele><time>2015-2-3T1:14:27Z</time></trkpt>
<trkpt lat="44.396322928369045" lon="4.882262963801622"><ele></ele><time>2015-2-3T1:14:30Z</time></trkpt>
<trkpt lat="44.39592394977808" lon="4.881953923031688"><ele></ele><time>2015-2-3T1:14:33Z</time></trkpt>
<trkpt lat="44.395386921241879" lon="4.881511945277453"><ele></ele><time>2015-2-3T1:14:36Z</time></trkpt>
<trkpt lat="44.39482893794775" lon="4.881174992769957"><ele></ele><time>2015-2-3T1:14:39Z</time></trkpt>
<trkpt lat="44.39418294467032" lon="4.880777942016721"><ele></ele><time>2015-2-3T1:14:42Z</time></trkpt>
<trkpt lat="44.393692938610911" lon="4.880469990894198"><ele></ele><time>2015-2-3T1:14:45Z</time></trkpt>
<trkpt lat="44.393120957538486" lon="4.880142929032445"><ele></ele><time>2015-2-3T1:14:48Z</time></trkpt>
<trkpt lat="44.392292993143201" lon="4.879652922973037"><ele></ele><time>2015-2-3T1:14:51Z</time></trkpt>
<trkpt lat="44.391790917143226" lon="4.879348995164037"><ele></ele><time>2015-2-3T1:14:54Z</time></trkpt>
<trkpt lat="44.391142996028066" lon="4.878951944410801"><ele></ele><time>2015-2-3T1:14:57Z</time></trkpt>
<trkpt lat="44.390665981918573" lon="4.878661930561066"><ele></ele><time>2015-2-3T1:15:0Z</time></trkpt>
<trkpt lat="44.390224926173687" lon="4.878394966945052"><ele></ele><time>2015-2-3T1:15:3Z</time></trkpt>
<trkpt lat="44.389752941206098" lon="4.878118950873613"><ele></ele><time>2015-2-3T1:15:6Z</time></trkpt>
<trkpt lat="44.388879965990782" lon="4.877603966742754"><ele></ele><time>2015-2-3T1:15:9Z</time></trkpt>
<trkpt lat="44.388341931626201" lon="4.877278916537762"><ele></ele><time>2015-2-3T1:15:12Z</time></trkpt>
<trkpt lat="44.387911939993501" lon="4.877104992046952"><ele></ele><time>2015-2-3T1:15:15Z</time></trkpt>
<trkpt lat="44.387316992506385" lon="4.876644993200898"><ele></ele><time>2015-2-3T1:15:18Z</time></trkpt>
<trkpt lat="44.386435970664024" lon="4.876320948824287"><ele></ele><time>2015-2-3T1:15:21Z</time></trkpt>
<trkpt lat="44.385877987369895" lon="4.875977961346507"><ele></ele><time>2015-2-3T1:15:24Z</time></trkpt>
<trkpt lat="44.385198969393969" lon="4.87551293335855"><ele></ele><time>2015-2-3T1:15:27Z</time></trkpt>
<trkpt lat="44.384188950061798" lon="4.874826958402991"><ele></ele><time>2015-2-3T1:15:30Z</time></trkpt>
<trkpt lat="44.383267946541309" lon="4.874193957075477"><ele></ele><time>2015-2-3T1:15:33Z</time></trkpt>
<trkpt lat="44.382564956322312" lon="4.873714931309223"><ele></ele><time>2015-2-3T1:15:36Z</time></trkpt>
<trkpt lat="44.381801951676607" lon="4.873200953006744"><ele></ele><time>2015-2-3T1:15:39Z</time></trkpt>
<trkpt lat="44.381072977557778" lon="4.872702984139323"><ele></ele><time>2015-2-3T1:15:42Z</time></trkpt>
<trkpt lat="44.380337968468666" lon="4.872189927846193"><ele></ele><time>2015-2-3T1:15:45Z</time></trkpt>
<trkpt lat="44.379804963245988" lon="4.871795978397131"><ele></ele><time>2015-2-3T1:15:48Z</time></trkpt>
<trkpt lat="44.379091998562217" lon="4.871261967346072"><ele></ele><time>2015-2-3T1:15:51Z</time></trkpt>
<trkpt lat="44.378413986414671" lon="4.870748994871974"><ele></ele><time>2015-2-3T1:15:54Z</time></trkpt>
<trkpt lat="44.377888944000006" lon="4.870352949947119"><ele></ele><time>2015-2-3T1:15:57Z</time></trkpt>
<trkpt lat="44.376980932429433" lon="4.869675943627954"><ele></ele><time>2015-2-3T1:16:0Z</time></trkpt>
<trkpt lat="44.376579942181706" lon="4.869374949485064"><ele></ele><time>2015-2-3T1:16:3Z</time></trkpt>
<trkpt lat="44.375971918925643" lon="4.86891495063901"><ele></ele><time>2015-2-3T1:16:6Z</time></trkpt>
<trkpt lat="44.375356938689947" lon="4.86846199259162"><ele></ele><time>2015-2-3T1:16:9Z</time></trkpt>
<trkpt lat="44.37473994679749" lon="4.867998976260424"><ele></ele><time>2015-2-3T1:16:12Z</time></trkpt>
<trkpt lat="44.374264944344759" lon="4.867644924670458"><ele></ele><time>2015-2-3T1:16:15Z</time></trkpt>
<trkpt lat="44.373788936063647" lon="4.867317946627736"><ele></ele><time>2015-2-3T1:16:18Z</time></trkpt>
<trkpt lat="44.373368918895721" lon="4.867050983011723"><ele></ele><time>2015-2-3T1:16:21Z</time></trkpt>
<trkpt lat="44.372940938919783" lon="4.866782929748297"><ele></ele><time>2015-2-3T1:16:24Z</time></trkpt>
<trkpt lat="44.372444981709123" lon="4.866472966969013"><ele></ele><time>2015-2-3T1:16:27Z</time></trkpt>
<trkpt lat="44.371876940131187" lon="4.866112964227796"><ele></ele><time>2015-2-3T1:16:30Z</time></trkpt>
<trkpt lat="44.371310994029045" lon="4.865754973143339"><ele></ele><time>2015-2-3T1:16:33Z</time></trkpt>
<trkpt lat="44.370883936062455" lon="4.865488931536675"><ele></ele><time>2015-2-3T1:16:36Z</time></trkpt>
<trkpt lat="44.370420919731259" lon="4.865203946828842"><ele></ele><time>2015-2-3T1:16:39Z</time></trkpt>
<trkpt lat="44.369695968925953" lon="4.864672953262925"><ele></ele><time>2015-2-3T1:16:42Z</time></trkpt>
<trkpt lat="44.369246950373054" lon="4.864315968006849"><ele></ele><time>2015-2-3T1:16:45Z</time></trkpt>
<trkpt lat="44.36885098926723" lon="4.863988989964128"><ele></ele><time>2015-2-3T1:16:48Z</time></trkpt>
<trkpt lat="44.368383949622512" lon="4.86360895447433"><ele></ele><time>2015-2-3T1:16:51Z</time></trkpt>
<trkpt lat="44.367769975215197" lon="4.863111991435289"><ele></ele><time>2015-2-3T1:16:54Z</time></trkpt>
<trkpt lat="44.367184918373823" lon="4.862706977874041"><ele></ele><time>2015-2-3T1:16:57Z</time></trkpt>
<trkpt lat="44.366689966991544" lon="4.862372959032655"><ele></ele><time>2015-2-3T1:17:0Z</time></trkpt>
<trkpt lat="44.36603894457221" lon="4.861932992935181"><ele></ele><time>2015-2-3T1:17:3Z</time></trkpt>
<trkpt lat="44.365313993766904" lon="4.861436951905489"><ele></ele><time>2015-2-3T1:17:6Z</time></trkpt>
<trkpt lat="44.364744946360588" lon="4.86105096526444"><ele></ele><time>2015-2-3T1:17:9Z</time></trkpt>
<trkpt lat="44.364176988601685" lon="4.860767992213368"><ele></ele><time>2015-2-3T1:17:12Z</time></trkpt>
<trkpt lat="44.363731993362308" lon="4.860658943653107"><ele></ele><time>2015-2-3T1:17:15Z</time></trkpt>
<trkpt lat="44.363132938742638" lon="4.860581997781992"><ele></ele><time>2015-2-3T1:17:18Z</time></trkpt>
<trkpt lat="44.362413939088583" lon="4.860477978363633"><ele></ele><time>2015-2-3T1:17:21Z</time></trkpt>
<trkpt lat="44.361924938857555" lon="4.86040698364377"><ele></ele><time>2015-2-3T1:17:24Z</time></trkpt>
<trkpt lat="44.361227983608842" lon="4.860297935083509"><ele></ele><time>2015-2-3T1:17:27Z</time></trkpt>
<trkpt lat="44.360490962862968" lon="4.860284943133593"><ele></ele><time>2015-2-3T1:17:30Z</time></trkpt>
<trkpt lat="44.360095923766494" lon="4.860673947259784"><ele></ele><time>2015-2-3T1:17:33Z</time></trkpt>
<trkpt lat="44.359316993504763" lon="4.860956920310855"><ele></ele><time>2015-2-3T1:17:36Z</time></trkpt>
<trkpt lat="44.358766973018646" lon="4.861147943884134"><ele></ele><time>2015-2-3T1:17:39Z</time></trkpt>
<trkpt lat="44.35815492644906" lon="4.861397976055741"><ele></ele><time>2015-2-3T1:17:42Z</time></trkpt>
<trkpt lat="44.357175920158625" lon="4.861760996282101"><ele></ele><time>2015-2-3T1:17:45Z</time></trkpt>
<trkpt lat="44.355976972728968" lon="4.862220995128155"><ele></ele><time>2015-2-3T1:17:48Z</time></trkpt>
<trkpt lat="44.355173986405134" lon="4.862529952079058"><ele></ele><time>2015-2-3T1:17:51Z</time></trkpt>
<trkpt lat="44.354345938190818" lon="4.862845949828625"><ele></ele><time>2015-2-3T1:17:54Z</time></trkpt>
<trkpt lat="44.353776974603534" lon="4.863066980615258"><ele></ele><time>2015-2-3T1:17:57Z</time></trkpt>
<trkpt lat="44.353173980489373" lon="4.863295974209905"><ele></ele><time>2015-2-3T1:18:0Z</time></trkpt>
<trkpt lat="44.352477947250009" lon="4.863563943654299"><ele></ele><time>2015-2-3T1:18:3Z</time></trkpt>
<trkpt lat="44.351957933977246" lon="4.863770976662636"><ele></ele><time>2015-2-3T1:18:6Z</time></trkpt>
<trkpt lat="44.351179925724864" lon="4.864071970805526"><ele></ele><time>2015-2-3T1:18:9Z</time></trkpt>
<trkpt lat="44.350593946874142" lon="4.864300964400172"><ele></ele><time>2015-2-3T1:18:12Z</time></trkpt>
<trkpt lat="44.349983995780349" lon="4.864536998793483"><ele></ele><time>2015-2-3T1:18:15Z</time></trkpt>
<trkpt lat="44.349416960030794" lon="4.864756939932704"><ele></ele><time>2015-2-3T1:18:18Z</time></trkpt>
<trkpt lat="44.348820922896266" lon="4.864991968497634"><ele></ele><time>2015-2-3T1:18:21Z</time></trkpt>
<trkpt lat="44.34822597540915" lon="4.865222973749042"><ele></ele><time>2015-2-3T1:18:24Z</time></trkpt>
<trkpt lat="44.347614934667945" lon="4.865456996485591"><ele></ele><time>2015-2-3T1:18:27Z</time></trkpt>
<trkpt lat="44.347010934725404" lon="4.865643996745348"><ele></ele><time>2015-2-3T1:18:30Z</time></trkpt>
<trkpt lat="44.34652796946466" lon="4.865671992301941"><ele></ele><time>2015-2-3T1:18:33Z</time></trkpt>
<trkpt lat="44.345990940928459" lon="4.865552969276905"><ele></ele><time>2015-2-3T1:18:36Z</time></trkpt>
<trkpt lat="44.345354922115803" lon="4.865255998447537"><ele></ele><time>2015-2-3T1:18:39Z</time></trkpt>
<trkpt lat="44.34483096934855" lon="4.864999931305647"><ele></ele><time>2015-2-3T1:18:42Z</time></trkpt>
<trkpt lat="44.344248929992318" lon="4.864715952426195"><ele></ele><time>2015-2-3T1:18:45Z</time></trkpt>
<trkpt lat="44.343530936166644" lon="4.864369947463274"><ele></ele><time>2015-2-3T1:18:48Z</time></trkpt>
<trkpt lat="44.343053922057152" lon="4.86405897885561"><ele></ele><time>2015-2-3T1:18:51Z</time></trkpt>
<trkpt lat="44.342458974570036" lon="4.863644996657968"><ele></ele><time>2015-2-3T1:18:54Z</time></trkpt>
<trkpt lat="44.341979948803782" lon="4.863311983644962"><ele></ele><time>2015-2-3T1:18:57Z</time></trkpt>
<trkpt lat="44.341079983860254" lon="4.862673953175545"><ele></ele><time>2015-2-3T1:19:0Z</time></trkpt>
<trkpt lat="44.340554941445589" lon="4.862314956262708"><ele></ele><time>2015-2-3T1:19:3Z</time></trkpt>
<trkpt lat="44.340112963691354" lon="4.862166931852698"><ele></ele><time>2015-2-3T1:19:6Z</time></trkpt>
<trkpt lat="44.339435957372189" lon="4.862763974815607"><ele></ele><time>2015-2-3T1:19:9Z</time></trkpt>
<trkpt lat="44.338910998776555" lon="4.863086929544807"><ele></ele><time>2015-2-3T1:19:12Z</time></trkpt>
<trkpt lat="44.338485952466726" lon="4.863351965323091"><ele></ele><time>2015-2-3T1:19:15Z</time></trkpt>
<trkpt lat="44.337953953072429" lon="4.863670980557799"><ele></ele><time>2015-2-3T1:19:18Z</time></trkpt>
<trkpt lat="44.337437963113189" lon="4.863988989964128"><ele></ele><time>2015-2-3T1:19:21Z</time></trkpt>
<trkpt lat="44.33671192266047" lon="4.864423926919699"><ele></ele><time>2015-2-3T1:19:24Z</time></trkpt>
<trkpt lat="44.336059978231788" lon="4.864384951069951"><ele></ele><time>2015-2-3T1:19:27Z</time></trkpt>
<trkpt lat="44.335689917206764" lon="4.864676976576448"><ele></ele><time>2015-2-3T1:19:30Z</time></trkpt>
<trkpt lat="44.335243999958038" lon="4.86483396962285"><ele></ele><time>2015-2-3T1:19:33Z</time></trkpt>
<trkpt lat="44.33449599891901" lon="4.864494921639562"><ele></ele><time>2015-2-3T1:19:36Z</time></trkpt>
<trkpt lat="44.333842964842916" lon="4.864257965236902"><ele></ele><time>2015-2-3T1:19:39Z</time></trkpt>
<trkpt lat="44.333272995427251" lon="4.864129973575473"><ele></ele><time>2015-2-3T1:19:42Z</time></trkpt>
<trkpt lat="44.33275893330574" lon="4.864186970517039"><ele></ele><time>2015-2-3T1:19:45Z</time></trkpt>
<trkpt lat="44.332049991935492" lon="4.864326948300004"><ele></ele><time>2015-2-3T1:19:48Z</time></trkpt>
<trkpt lat="44.331485973671079" lon="4.8643599729985"><ele></ele><time>2015-2-3T1:19:51Z</time></trkpt>
<trkpt lat="44.331001918762922" lon="4.864214966073632"><ele></ele><time>2015-2-3T1:19:54Z</time></trkpt>
<trkpt lat="44.330465979874134" lon="4.864020925015211"><ele></ele><time>2015-2-3T1:19:57Z</time></trkpt>
<trkpt lat="44.329912941902876" lon="4.863913971930742"><ele></ele><time>2015-2-3T1:20:0Z</time></trkpt>
<trkpt lat="44.32886797003448" lon="4.863786986097693"><ele></ele><time>2015-2-3T1:20:3Z</time></trkpt>
<trkpt lat="44.328242931514978" lon="4.863636950030923"><ele></ele><time>2015-2-3T1:20:6Z</time></trkpt>
<trkpt lat="44.3274059984833" lon="4.863325981423259"><ele></ele><time>2015-2-3T1:20:9Z</time></trkpt>
<trkpt lat="44.326618937775493" lon="4.863015934824944"><ele></ele><time>2015-2-3T1:20:12Z</time></trkpt>
<trkpt lat="44.325961964204907" lon="4.862768920138478"><ele></ele><time>2015-2-3T1:20:15Z</time></trkpt>
<trkpt lat="44.325291998684406" lon="4.862525928765535"><ele></ele><time>2015-2-3T1:20:18Z</time></trkpt>
<trkpt lat="44.324630917981267" lon="4.862302970141172"><ele></ele><time>2015-2-3T1:20:21Z</time></trkpt>
<trkpt lat="44.324131943285465" lon="4.862260976806283"><ele></ele><time>2015-2-3T1:20:24Z</time></trkpt>
<trkpt lat="44.323436999693513" lon="4.862251924350858"><ele></ele><time>2015-2-3T1:20:27Z</time></trkpt>
<trkpt lat="44.322818918153644" lon="4.862257959321141"><ele></ele><time>2015-2-3T1:20:30Z</time></trkpt>
<trkpt lat="44.322161944583058" lon="4.862514948472381"><ele></ele><time>2015-2-3T1:20:33Z</time></trkpt>
<trkpt lat="44.321729941293597" lon="4.862914932891727"><ele></ele><time>2015-2-3T1:20:36Z</time></trkpt>
<trkpt lat="44.321352923288941" lon="4.863278958946466"><ele></ele><time>2015-2-3T1:20:39Z</time></trkpt>
<trkpt lat="44.320610957220197" lon="4.863971974700689"><ele></ele><time>2015-2-3T1:20:42Z</time></trkpt>
<trkpt lat="44.320177948102355" lon="4.864369947463274"><ele></ele><time>2015-2-3T1:20:45Z</time></trkpt>
<trkpt lat="44.319781986996531" lon="4.864670941606164"><ele></ele><time>2015-2-3T1:20:48Z</time></trkpt>
<trkpt lat="44.31934897787869" lon="4.864849979057908"><ele></ele><time>2015-2-3T1:20:51Z</time></trkpt>
<trkpt lat="44.31887598708272" lon="4.864976964890957"><ele></ele><time>2015-2-3T1:20:54Z</time></trkpt>
<trkpt lat="44.318220941349864" lon="4.865147955715656"><ele></ele><time>2015-2-3T1:20:57Z</time></trkpt>
<trkpt lat="44.317678967490792" lon="4.865293968468905"><ele></ele><time>2015-2-3T1:21:0Z</time></trkpt>
<trkpt lat="44.316952927038074" lon="4.86547795124352"><ele></ele><time>2015-2-3T1:21:3Z</time></trkpt>
<trkpt lat="44.316122950986028" lon="4.865700993686914"><ele></ele><time>2015-2-3T1:21:6Z</time></trkpt>
<trkpt lat="44.315473940223455" lon="4.865872990339994"><ele></ele><time>2015-2-3T1:21:9Z</time></trkpt>
<trkpt lat="44.314780924469233" lon="4.866068959236145"><ele></ele><time>2015-2-3T1:21:12Z</time></trkpt>
<trkpt lat="44.314291924238205" lon="4.866203991696239"><ele></ele><time>2015-2-3T1:21:15Z</time></trkpt>
<trkpt lat="44.31365892291069" lon="4.866334917023778"><ele></ele><time>2015-2-3T1:21:18Z</time></trkpt>
<trkpt lat="44.31303396821022" lon="4.866421921178699"><ele></ele><time>2015-2-3T1:21:21Z</time></trkpt>
<trkpt lat="44.312360985204577" lon="4.866508925333619"><ele></ele><time>2015-2-3T1:21:24Z</time></trkpt>
<trkpt lat="44.311716919764876" lon="4.86659592948854"><ele></ele><time>2015-2-3T1:21:27Z</time></trkpt>
<trkpt lat="44.311126917600632" lon="4.866671953350306"><ele></ele><time>2015-2-3T1:21:30Z</time></trkpt>
<trkpt lat="44.31041294708848" lon="4.866774966940284"><ele></ele><time>2015-2-3T1:21:33Z</time></trkpt>
<trkpt lat="44.309397982433438" lon="4.867275953292847"><ele></ele><time>2015-2-3T1:21:36Z</time></trkpt>
<trkpt lat="44.308768920600414" lon="4.867635956034064"><ele></ele><time>2015-2-3T1:21:39Z</time></trkpt>
<trkpt lat="44.307915978133678" lon="4.868129985406995"><ele></ele><time>2015-2-3T1:21:42Z</time></trkpt>
<trkpt lat="44.307372998446226" lon="4.868432991206646"><ele></ele><time>2015-2-3T1:21:45Z</time></trkpt>
<trkpt lat="44.306678976863623" lon="4.868823923170567"><ele></ele><time>2015-2-3T1:21:48Z</time></trkpt>
<trkpt lat="44.306103978306055" lon="4.869144950062037"><ele></ele><time>2015-2-3T1:21:51Z</time></trkpt>
<trkpt lat="44.305499978363514" lon="4.869483998045325"><ele></ele><time>2015-2-3T1:21:54Z</time></trkpt>
<trkpt lat="44.304828923195601" lon="4.869833942502737"><ele></ele><time>2015-2-3T1:21:57Z</time></trkpt>
<trkpt lat="44.304366996511817" lon="4.869985990226269"><ele></ele><time>2015-2-3T1:22:0Z</time></trkpt>
<trkpt lat="44.303751932457089" lon="4.870199980214238"><ele></ele><time>2015-2-3T1:22:3Z</time></trkpt>
<trkpt lat="44.303290927782655" lon="4.870370971038938"><ele></ele><time>2015-2-3T1:22:6Z</time></trkpt>
<trkpt lat="44.302537981420755" lon="4.8706129565835"><ele></ele><time>2015-2-3T1:22:9Z</time></trkpt>
<trkpt lat="44.301792997866869" lon="4.870903976261616"><ele></ele><time>2015-2-3T1:22:12Z</time></trkpt>
<trkpt lat="44.301057988777757" lon="4.87117295153439"><ele></ele><time>2015-2-3T1:22:15Z</time></trkpt>
<trkpt lat="44.300558930262923" lon="4.871266996487975"><ele></ele><time>2015-2-3T1:22:18Z</time></trkpt>
<trkpt lat="44.299791986122727" lon="4.871628927066922"><ele></ele><time>2015-2-3T1:22:21Z</time></trkpt>
<trkpt lat="44.299203995615244" lon="4.871846940368414"><ele></ele><time>2015-2-3T1:22:24Z</time></trkpt>
<trkpt lat="44.29876796901226" lon="4.872029917314649"><ele></ele><time>2015-2-3T1:22:27Z</time></trkpt>
<trkpt lat="44.298340994864702" lon="4.872400984168053"><ele></ele><time>2015-2-3T1:22:30Z</time></trkpt>
<trkpt lat="44.297854928299785" lon="4.872754951938987"><ele></ele><time>2015-2-3T1:22:33Z</time></trkpt>
<trkpt lat="44.297300968319178" lon="4.873153930529952"><ele></ele><time>2015-2-3T1:22:36Z</time></trkpt>
<trkpt lat="44.296836946159601" lon="4.873572941869497"><ele></ele><time>2015-2-3T1:22:39Z</time></trkpt>
<trkpt lat="44.296136973425746" lon="4.874210972338915"><ele></ele><time>2015-2-3T1:22:42Z</time></trkpt>
<trkpt lat="44.29556398652494" lon="4.87473794259131"><ele></ele><time>2015-2-3T1:22:45Z</time></trkpt>
<trkpt lat="44.295055959373713" lon="4.874926954507828"><ele></ele><time>2015-2-3T1:22:48Z</time></trkpt>
<trkpt lat="44.294528989121318" lon="4.874964924529195"><ele></ele><time>2015-2-3T1:22:51Z</time></trkpt>
<trkpt lat="44.294004952535033" lon="4.875042960047722"><ele></ele><time>2015-2-3T1:22:54Z</time></trkpt>
<trkpt lat="44.293347978964448" lon="4.875057963654399"><ele></ele><time>2015-2-3T1:22:57Z</time></trkpt>
<trkpt lat="44.292863924056292" lon="4.87510196864605"><ele></ele><time>2015-2-3T1:23:0Z</time></trkpt>
<trkpt lat="44.291865974664688" lon="4.875179920345545"><ele></ele><time>2015-2-3T1:23:3Z</time></trkpt>
<trkpt lat="44.29124697111547" lon="4.87523197196424"><ele></ele><time>2015-2-3T1:23:6Z</time></trkpt>
<trkpt lat="44.290632996708155" lon="4.875286957249045"><ele></ele><time>2015-2-3T1:23:9Z</time></trkpt>
<trkpt lat="44.290120946243405" lon="4.875313946977258"><ele></ele><time>2015-2-3T1:23:12Z</time></trkpt>
<trkpt lat="44.289244953542948" lon="4.874974982813001"><ele></ele><time>2015-2-3T1:23:15Z</time></trkpt>
<trkpt lat="44.28877891972661" lon="4.87475898116827"><ele></ele><time>2015-2-3T1:23:18Z</time></trkpt>
<trkpt lat="44.288303917273879" lon="4.874527975916863"><ele></ele><time>2015-2-3T1:23:21Z</time></trkpt>
<trkpt lat="44.287868980318308" lon="4.874324966222048"><ele></ele><time>2015-2-3T1:23:24Z</time></trkpt>
<trkpt lat="44.287264980375767" lon="4.874036964029074"><ele></ele><time>2015-2-3T1:23:27Z</time></trkpt>
<trkpt lat="44.286683946847916" lon="4.873756924644113"><ele></ele><time>2015-2-3T1:23:30Z</time></trkpt>
<trkpt lat="44.286078941076994" lon="4.873497923836112"><ele></ele><time>2015-2-3T1:23:33Z</time></trkpt>
<trkpt lat="44.285457925871015" lon="4.873088970780373"><ele></ele><time>2015-2-3T1:23:36Z</time></trkpt>
<trkpt lat="44.284936990588903" lon="4.872887972742319"><ele></ele><time>2015-2-3T1:23:39Z</time></trkpt>
<trkpt lat="44.284417983144522" lon="4.872679933905602"><ele></ele><time>2015-2-3T1:23:42Z</time></trkpt>
<trkpt lat="44.283540984615684" lon="4.872306939214468"><ele></ele><time>2015-2-3T1:23:45Z</time></trkpt>
<trkpt lat="44.282913934439421" lon="4.872041987255216"><ele></ele><time>2015-2-3T1:23:48Z</time></trkpt>
<trkpt lat="44.28222393617034" lon="4.871746944263578"><ele></ele><time>2015-2-3T1:23:51Z</time></trkpt>
<trkpt lat="44.281658995896578" lon="4.871506970375776"><ele></ele><time>2015-2-3T1:23:54Z</time></trkpt>
<trkpt lat="44.281158931553364" lon="4.871286945417523"><ele></ele><time>2015-2-3T1:23:57Z</time></trkpt>
<trkpt lat="44.28069893270731" lon="4.871078990399838"><ele></ele><time>2015-2-3T1:24:0Z</time></trkpt>
<trkpt lat="44.280071966350079" lon="4.870788976550102"><ele></ele><time>2015-2-3T1:24:3Z</time></trkpt>
<trkpt lat="44.279505936428905" lon="4.87052695825696"><ele></ele><time>2015-2-3T1:24:6Z</time></trkpt>
<trkpt lat="44.278975948691368" lon="4.870289918035269"><ele></ele><time>2015-2-3T1:24:9Z</time></trkpt>
<trkpt lat="44.278265917673707" lon="4.869964951649308"><ele></ele><time>2015-2-3T1:24:12Z</time></trkpt>
<trkpt lat="44.277655966579914" lon="4.869690947234631"><ele></ele><time>2015-2-3T1:24:15Z</time></trkpt>
<trkpt lat="44.276967979967594" lon="4.869378972798586"><ele></ele><time>2015-2-3T1:24:18Z</time></trkpt>
<trkpt lat="44.276360962539911" lon="4.869100945070386"><ele></ele><time>2015-2-3T1:24:21Z</time></trkpt>
<trkpt lat="44.275881936773658" lon="4.86895895563066"><ele></ele><time>2015-2-3T1:24:24Z</time></trkpt>
<trkpt lat="44.275284977629781" lon="4.86880891956389"><ele></ele><time>2015-2-3T1:24:27Z</time></trkpt>
<trkpt lat="44.274563966318965" lon="4.869446950033307"><ele></ele><time>2015-2-3T1:24:30Z</time></trkpt>
<trkpt lat="44.274010928347707" lon="4.869928993284702"><ele></ele><time>2015-2-3T1:24:33Z</time></trkpt>
<trkpt lat="44.27348094061017" lon="4.870381951332092"><ele></ele><time>2015-2-3T1:24:36Z</time></trkpt>
<trkpt lat="44.272927986457944" lon="4.870839938521385"><ele></ele><time>2015-2-3T1:24:39Z</time></trkpt>
<trkpt lat="44.272472932934761" lon="4.871139926835895"><ele></ele><time>2015-2-3T1:24:42Z</time></trkpt>
<trkpt lat="44.271165942773223" lon="4.871488949283958"><ele></ele><time>2015-2-3T1:24:45Z</time></trkpt>
<trkpt lat="44.270537970587611" lon="4.871674943715334"><ele></ele><time>2015-2-3T1:24:48Z</time></trkpt>
<trkpt lat="44.270107978954911" lon="4.871944924816489"><ele></ele><time>2015-2-3T1:24:51Z</time></trkpt>
<trkpt lat="44.26933097653091" lon="4.872646993026137"><ele></ele><time>2015-2-3T1:24:54Z</time></trkpt>
<trkpt lat="44.268779950216413" lon="4.873122917488217"><ele></ele><time>2015-2-3T1:24:57Z</time></trkpt>
<trkpt lat="44.268158935010433" lon="4.873567996546626"><ele></ele><time>2015-2-3T1:25:0Z</time></trkpt>
<trkpt lat="44.267603969201446" lon="4.873939985409379"><ele></ele><time>2015-2-3T1:25:3Z</time></trkpt>
<trkpt lat="44.266951940953732" lon="4.874362936243415"><ele></ele><time>2015-2-3T1:25:6Z</time></trkpt>
<trkpt lat="44.266408961266279" lon="4.874718999490142"><ele></ele><time>2015-2-3T1:25:9Z</time></trkpt>
<trkpt lat="44.265865981578827" lon="4.875073973089457"><ele></ele><time>2015-2-3T1:25:12Z</time></trkpt>
<trkpt lat="44.265383938327432" lon="4.875386953353882"><ele></ele><time>2015-2-3T1:25:15Z</time></trkpt>
<trkpt lat="44.264863925054669" lon="4.875733964145184"><ele></ele><time>2015-2-3T1:25:18Z</time></trkpt>
<trkpt lat="44.264445919543505" lon="4.876010986045003"><ele></ele><time>2015-2-3T1:25:21Z</time></trkpt>
<trkpt lat="44.263911992311478" lon="4.876357996836305"><ele></ele><time>2015-2-3T1:25:24Z</time></trkpt>
<trkpt lat="44.263325929641724" lon="4.876742977648974"><ele></ele><time>2015-2-3T1:25:27Z</time></trkpt>
<trkpt lat="44.262738944962621" lon="4.877116978168488"><ele></ele><time>2015-2-3T1:25:30Z</time></trkpt>
<trkpt lat="44.262274922803044" lon="4.877429958432913"><ele></ele><time>2015-2-3T1:25:33Z</time></trkpt>
<trkpt lat="44.261817941442132" lon="4.877734975889325"><ele></ele><time>2015-2-3T1:25:36Z</time></trkpt>
<trkpt lat="44.261371940374374" lon="4.878034964203835"><ele></ele><time>2015-2-3T1:25:39Z</time></trkpt>
<trkpt lat="44.260648917406797" lon="4.878610968589783"><ele></ele><time>2015-2-3T1:25:42Z</time></trkpt>
<trkpt lat="44.260065956041217" lon="4.879232989624143"><ele></ele><time>2015-2-3T1:25:45Z</time></trkpt>
<trkpt lat="44.259631941094995" lon="4.879698939621449"><ele></ele><time>2015-2-3T1:25:48Z</time></trkpt>
<trkpt lat="44.259072951972485" lon="4.880320960655808"><ele></ele><time>2015-2-3T1:25:51Z</time></trkpt>
<trkpt lat="44.258583951741457" lon="4.880789928138256"><ele></ele><time>2015-2-3T1:25:54Z</time></trkpt>
<trkpt lat="44.258177932351828" lon="4.881136938929558"><ele></ele><time>2015-2-3T1:25:57Z</time></trkpt>
<trkpt lat="44.257717933505774" lon="4.88152694888413"><ele></ele><time>2015-2-3T1:26:0Z</time></trkpt>
<trkpt lat="44.257245948538184" lon="4.881873959675431"><ele></ele><time>2015-2-3T1:26:3Z</time></trkpt>
<trkpt lat="44.2565509211272" lon="4.882341921329498"><ele></ele><time>2015-2-3T1:26:6Z</time></trkpt>
<trkpt lat="44.256079941987991" lon="4.882649956271052"><ele></ele><time>2015-2-3T1:26:9Z</time></trkpt>
<trkpt lat="44.255563952028751" lon="4.883008953183889"><ele></ele><time>2015-2-3T1:26:12Z</time></trkpt>
<trkpt lat="44.255153993144631" lon="4.883277928456664"><ele></ele><time>2015-2-3T1:26:15Z</time></trkpt>
<trkpt lat="44.254349917173386" lon="4.883626950904727"><ele></ele><time>2015-2-3T1:26:18Z</time></trkpt>
<trkpt lat="44.253801992163062" lon="4.883712949231267"><ele></ele><time>2015-2-3T1:26:21Z</time></trkpt>
<trkpt lat="44.25306798890233" lon="4.883838929235935"><ele></ele><time>2015-2-3T1:26:24Z</time></trkpt>
<trkpt lat="44.252556944265962" lon="4.883920988067985"><ele></ele><time>2015-2-3T1:26:27Z</time></trkpt>
<trkpt lat="44.251762926578522" lon="4.884051997214556"><ele></ele><time>2015-2-3T1:26:30Z</time></trkpt>
<trkpt lat="44.251178959384561" lon="4.884162973612547"><ele></ele><time>2015-2-3T1:26:33Z</time></trkpt>
<trkpt lat="44.250413943082094" lon="4.884337987750769"><ele></ele><time>2015-2-3T1:26:36Z</time></trkpt>
<trkpt lat="44.249687986448407" lon="4.884549966081977"><ele></ele><time>2015-2-3T1:26:39Z</time></trkpt>
<trkpt lat="44.248952977359295" lon="4.884969983249903"><ele></ele><time>2015-2-3T1:26:42Z</time></trkpt>
<trkpt lat="44.248329950496554" lon="4.885367956012487"><ele></ele><time>2015-2-3T1:26:45Z</time></trkpt>
<trkpt lat="44.247694937512279" lon="4.885583957657218"><ele></ele><time>2015-2-3T1:26:48Z</time></trkpt>
<trkpt lat="44.247055985033512" lon="4.885642966255546"><ele></ele><time>2015-2-3T1:26:51Z</time></trkpt>
<trkpt lat="44.246600931510329" lon="4.885657969862223"><ele></ele><time>2015-2-3T1:26:54Z</time></trkpt>
<trkpt lat="44.246126934885979" lon="4.885820997878909"><ele></ele><time>2015-2-3T1:26:57Z</time></trkpt>
<trkpt lat="44.245841950178146" lon="4.886504961177707"><ele></ele><time>2015-2-3T1:27:0Z</time></trkpt>
<trkpt lat="44.245658973231912" lon="4.887145925313234"><ele></ele><time>2015-2-3T1:27:3Z</time></trkpt>
<trkpt lat="44.24533199518919" lon="4.887663926929236"><ele></ele><time>2015-2-3T1:27:6Z</time></trkpt>
<trkpt lat="44.244719948619604" lon="4.887988977134228"><ele></ele><time>2015-2-3T1:27:9Z</time></trkpt>
<trkpt lat="44.243945963680744" lon="4.888085955753923"><ele></ele><time>2015-2-3T1:27:12Z</time></trkpt>
<trkpt lat="44.243487976491451" lon="4.888122919946909"><ele></ele><time>2015-2-3T1:27:15Z</time></trkpt>
<trkpt lat="44.243310950696468" lon="4.88812199793756"><ele></ele><time>2015-2-3T1:27:18Z</time></trkpt>
<trkpt lat="44.24279797822237" lon="4.888122919946909"><ele></ele><time>2015-2-3T1:27:21Z</time></trkpt>
<trkpt lat="44.242272935807705" lon="4.888222999870777"><ele></ele><time>2015-2-3T1:27:24Z</time></trkpt>
<trkpt lat="44.241827940568328" lon="4.888360965996981"><ele></ele><time>2015-2-3T1:27:27Z</time></trkpt>
<trkpt lat="44.241278925910592" lon="4.888725997880101"><ele></ele><time>2015-2-3T1:27:30Z</time></trkpt>
<trkpt lat="44.240860920399427" lon="4.889021962881088"><ele></ele><time>2015-2-3T1:27:33Z</time></trkpt>
<trkpt lat="44.240425983443856" lon="4.889291943982244"><ele></ele><time>2015-2-3T1:27:36Z</time></trkpt>
<trkpt lat="44.239964978769422" lon="4.889431921765208"><ele></ele><time>2015-2-3T1:27:39Z</time></trkpt>
<trkpt lat="44.239485953003168" lon="4.889584975317121"><ele></ele><time>2015-2-3T1:27:42Z</time></trkpt>
<trkpt lat="44.238960994407535" lon="4.889752948656678"><ele></ele><time>2015-2-3T1:27:45Z</time></trkpt>
<trkpt lat="44.238297985866666" lon="4.890170954167843"><ele></ele><time>2015-2-3T1:27:48Z</time></trkpt>
<trkpt lat="44.237430961802602" lon="4.890716951340437"><ele></ele><time>2015-2-3T1:27:51Z</time></trkpt>
<trkpt lat="44.236948918551207" lon="4.891036972403526"><ele></ele><time>2015-2-3T1:27:54Z</time></trkpt>
<trkpt lat="44.236436951905489" lon="4.891417929902673"><ele></ele><time>2015-2-3T1:27:57Z</time></trkpt>
<trkpt lat="44.23572993837297" lon="4.891923945397139"><ele></ele><time>2015-2-3T1:28:0Z</time></trkpt>
<trkpt lat="44.234950924292207" lon="4.892495926469564"><ele></ele><time>2015-2-3T1:28:3Z</time></trkpt>
<trkpt lat="44.233976947143674" lon="4.892858946695924"><ele></ele><time>2015-2-3T1:28:6Z</time></trkpt>
<trkpt lat="44.23345492221415" lon="4.892989955842495"><ele></ele><time>2015-2-3T1:28:9Z</time></trkpt>
<trkpt lat="44.232920994982123" lon="4.893065979704261"><ele></ele><time>2015-2-3T1:28:12Z</time></trkpt>
<trkpt lat="44.232379943132401" lon="4.893071930855513"><ele></ele><time>2015-2-3T1:28:15Z</time></trkpt>
<trkpt lat="44.231706960126758" lon="4.893029937520623"><ele></ele><time>2015-2-3T1:28:18Z</time></trkpt>
<trkpt lat="44.230999946594238" lon="4.892981993034482"><ele></ele><time>2015-2-3T1:28:21Z</time></trkpt>
<trkpt lat="44.230517987161875" lon="4.892910998314619"><ele></ele><time>2015-2-3T1:28:24Z</time></trkpt>
<trkpt lat="44.229564964771271" lon="4.892927929759026"><ele></ele><time>2015-2-3T1:28:27Z</time></trkpt>
<trkpt lat="44.229096919298172" lon="4.893057933077216"><ele></ele><time>2015-2-3T1:28:30Z</time></trkpt>
<trkpt lat="44.228417985141277" lon="4.893295979127288"><ele></ele><time>2015-2-3T1:28:33Z</time></trkpt>
<trkpt lat="44.227790934965014" lon="4.893511980772018"><ele></ele><time>2015-2-3T1:28:36Z</time></trkpt>
<trkpt lat="44.227173943072557" lon="4.893730999901891"><ele></ele><time>2015-2-3T1:28:39Z</time></trkpt>
<trkpt lat="44.226689971983433" lon="4.894002992659807"><ele></ele><time>2015-2-3T1:28:42Z</time></trkpt>
<trkpt lat="44.226284958422184" lon="4.894294934347272"><ele></ele><time>2015-2-3T1:28:45Z</time></trkpt>
<trkpt lat="44.225258929654956" lon="4.895182996988297"><ele></ele><time>2015-2-3T1:28:48Z</time></trkpt>
<trkpt lat="44.224775964394212" lon="4.895575940608978"><ele></ele><time>2015-2-3T1:28:51Z</time></trkpt>
<trkpt lat="44.224023940041661" lon="4.896117998287082"><ele></ele><time>2015-2-3T1:28:54Z</time></trkpt>
<trkpt lat="44.223261941224337" lon="4.896668940782547"><ele></ele><time>2015-2-3T1:28:57Z</time></trkpt>
<trkpt lat="44.222375974059105" lon="4.897336978465319"><ele></ele><time>2015-2-3T1:29:0Z</time></trkpt>
<trkpt lat="44.22154993750155" lon="4.897942990064621"><ele></ele><time>2015-2-3T1:29:3Z</time></trkpt>
<trkpt lat="44.220886928960681" lon="4.898310955613852"><ele></ele><time>2015-2-3T1:29:6Z</time></trkpt>
<trkpt lat="44.220292987301946" lon="4.898686967790127"><ele></ele><time>2015-2-3T1:29:9Z</time></trkpt>
<trkpt lat="44.219709942117333" lon="4.899143949151039"><ele></ele><time>2015-2-3T1:29:12Z</time></trkpt>
<trkpt lat="44.219093956053257" lon="4.899712996557355"><ele></ele><time>2015-2-3T1:29:15Z</time></trkpt>
<trkpt lat="44.21839096583426" lon="4.900490920990706"><ele></ele><time>2015-2-3T1:29:18Z</time></trkpt>
<trkpt lat="44.217908922582865" lon="4.901025937870145"><ele></ele><time>2015-2-3T1:29:21Z</time></trkpt>
<trkpt lat="44.217580938711762" lon="4.901459952816367"><ele></ele><time>2015-2-3T1:29:24Z</time></trkpt>
<trkpt lat="44.217051956802607" lon="4.902879931032658"><ele></ele><time>2015-2-3T1:29:27Z</time></trkpt>
<trkpt lat="44.21662699431181" lon="4.903695993125439"><ele></ele><time>2015-2-3T1:29:30Z</time></trkpt>
<trkpt lat="44.215883938595653" lon="4.903637990355492"><ele></ele><time>2015-2-3T1:29:33Z</time></trkpt>
<trkpt lat="44.215463921427727" lon="4.903407990932465"><ele></ele><time>2015-2-3T1:29:36Z</time></trkpt>
<trkpt lat="44.214986991137266" lon="4.903100961819291"><ele></ele><time>2015-2-3T1:29:39Z</time></trkpt>
<trkpt lat="44.214404951781034" lon="4.902698965743184"><ele></ele><time>2015-2-3T1:29:42Z</time></trkpt>
<trkpt lat="44.213720988482237" lon="4.902125978842378"><ele></ele><time>2015-2-3T1:29:45Z</time></trkpt>
<trkpt lat="44.21314699575305" lon="4.901672936975956"><ele></ele><time>2015-2-3T1:29:48Z</time></trkpt>
<trkpt lat="44.212623964995146" lon="4.901333972811699"><ele></ele><time>2015-2-3T1:29:51Z</time></trkpt>
<trkpt lat="44.211850985884666" lon="4.901217967271805"><ele></ele><time>2015-2-3T1:29:54Z</time></trkpt>
<trkpt lat="44.211047999560833" lon="4.901435980573297"><ele></ele><time>2015-2-3T1:29:57Z</time></trkpt>
<trkpt lat="44.210408963263035" lon="4.901576964184642"><ele></ele><time>2015-2-3T1:30:0Z</time></trkpt>
<trkpt lat="44.209887944161892" lon="4.901520973071456"><ele></ele><time>2015-2-3T1:30:3Z</time></trkpt>
<trkpt lat="44.209292996674776" lon="4.901428939774633"><ele></ele><time>2015-2-3T1:30:6Z</time></trkpt>
<trkpt lat="44.208687990903854" lon="4.901497922837734"><ele></ele><time>2015-2-3T1:30:9Z</time></trkpt>
<trkpt lat="44.208219945430756" lon="4.901456935331225"><ele></ele><time>2015-2-3T1:30:12Z</time></trkpt>
<trkpt lat="44.20730497688055" lon="4.901284938678145"><ele></ele><time>2015-2-3T1:30:15Z</time></trkpt>
<trkpt lat="44.206763925030828" lon="4.901178991422057"><ele></ele><time>2015-2-3T1:30:18Z</time></trkpt>
<trkpt lat="44.206117931753397" lon="4.901067931205034"><ele></ele><time>2015-2-3T1:30:21Z</time></trkpt>
<trkpt lat="44.205558942630887" lon="4.900977993384004"><ele></ele><time>2015-2-3T1:30:24Z</time></trkpt>
<trkpt lat="44.205000959336758" lon="4.900887971743941"><ele></ele><time>2015-2-3T1:30:27Z</time></trkpt>
<trkpt lat="44.204383967444301" lon="4.900782946497202"><ele></ele><time>2015-2-3T1:30:30Z</time></trkpt>
<trkpt lat="44.203280992805958" lon="4.900124967098236"><ele></ele><time>2015-2-3T1:30:33Z</time></trkpt>
<trkpt lat="44.202905986458063" lon="4.899694975465536"><ele></ele><time>2015-2-3T1:30:36Z</time></trkpt>
<trkpt lat="44.20266198925674" lon="4.898555958643556"><ele></ele><time>2015-2-3T1:30:39Z</time></trkpt>
<trkpt lat="44.202494937926531" lon="4.897712990641594"><ele></ele><time>2015-2-3T1:30:42Z</time></trkpt>
<trkpt lat="44.202258987352252" lon="4.897142937406898"><ele></ele><time>2015-2-3T1:30:45Z</time></trkpt>
<trkpt lat="44.201698992401361" lon="4.896672964096069"><ele></ele><time>2015-2-3T1:30:48Z</time></trkpt>
<trkpt lat="44.201184930279851" lon="4.896277924999595"><ele></ele><time>2015-2-3T1:30:51Z</time></trkpt>
<trkpt lat="44.200526950880885" lon="4.895762940868735"><ele></ele><time>2015-2-3T1:30:54Z</time></trkpt>
<trkpt lat="44.199693957343698" lon="4.895113930106163"><ele></ele><time>2015-2-3T1:30:57Z</time></trkpt>
<trkpt lat="44.199128933250904" lon="4.894713945686817"><ele></ele><time>2015-2-3T1:31:0Z</time></trkpt>
<trkpt lat="44.198273979127407" lon="4.894084967672825"><ele></ele><time>2015-2-3T1:31:3Z</time></trkpt>
<trkpt lat="44.197792941704392" lon="4.893673919141293"><ele></ele><time>2015-2-3T1:31:6Z</time></trkpt>
<trkpt lat="44.197392957285047" lon="4.893026920035482"><ele></ele><time>2015-2-3T1:31:9Z</time></trkpt>
<trkpt lat="44.19694796204567" lon="4.892394924536347"><ele></ele><time>2015-2-3T1:31:12Z</time></trkpt>
<trkpt lat="44.196415962651372" lon="4.891878934577107"><ele></ele><time>2015-2-3T1:31:15Z</time></trkpt>
<trkpt lat="44.196020923554897" lon="4.891378954052925"><ele></ele><time>2015-2-3T1:31:18Z</time></trkpt>
<trkpt lat="44.195596966892481" lon="4.890652997419238"><ele></ele><time>2015-2-3T1:31:21Z</time></trkpt>
<trkpt lat="44.195244926959276" lon="4.890068946406245"><ele></ele><time>2015-2-3T1:31:24Z</time></trkpt>
<trkpt lat="44.194478988647461" lon="4.889394957572222"><ele></ele><time>2015-2-3T1:31:27Z</time></trkpt>
<trkpt lat="44.194066934287548" lon="4.888900928199291"><ele></ele><time>2015-2-3T1:31:30Z</time></trkpt>
<trkpt lat="44.193611964583397" lon="4.889070997014642"><ele></ele><time>2015-2-3T1:31:33Z</time></trkpt>
<trkpt lat="44.193171998485923" lon="4.889447931200266"><ele></ele><time>2015-2-3T1:31:36Z</time></trkpt>
<trkpt lat="44.192659948021173" lon="4.889802988618612"><ele></ele><time>2015-2-3T1:31:39Z</time></trkpt>
<trkpt lat="44.191850926727057" lon="4.889777926728129"><ele></ele><time>2015-2-3T1:31:42Z</time></trkpt>
<trkpt lat="44.19106193818152" lon="4.889598973095417"><ele></ele><time>2015-2-3T1:31:45Z</time></trkpt>
<trkpt lat="44.190617948770523" lon="4.889494953677058"><ele></ele><time>2015-2-3T1:31:48Z</time></trkpt>
<trkpt lat="44.189700968563557" lon="4.890224933624268"><ele></ele><time>2015-2-3T1:31:51Z</time></trkpt>
<trkpt lat="44.189202999696136" lon="4.890755927190185"><ele></ele><time>2015-2-3T1:31:54Z</time></trkpt>
<trkpt lat="44.188764961436391" lon="4.891204945743084"><ele></ele><time>2015-2-3T1:31:57Z</time></trkpt>
<trkpt lat="44.188272943720222" lon="4.891708949580789"><ele></ele><time>2015-2-3T1:32:0Z</time></trkpt>
<trkpt lat="44.187651928514242" lon="4.892358966171742"><ele></ele><time>2015-2-3T1:32:3Z</time></trkpt>
<trkpt lat="44.187115989625454" lon="4.892916949465871"><ele></ele><time>2015-2-3T1:32:6Z</time></trkpt>
<trkpt lat="44.187148930504918" lon="4.893487924709916"><ele></ele><time>2015-2-3T1:32:9Z</time></trkpt>
<trkpt lat="44.187517985701561" lon="4.893949935212731"><ele></ele><time>2015-2-3T1:32:12Z</time></trkpt>
<trkpt lat="44.187906989827752" lon="4.894454944878817"><ele></ele><time>2015-2-3T1:32:15Z</time></trkpt>
<trkpt lat="44.187818979844451" lon="4.89514796063304"><ele></ele><time>2015-2-3T1:32:18Z</time></trkpt>
<trkpt lat="44.187586968764663" lon="4.895822955295444"><ele></ele><time>2015-2-3T1:32:21Z</time></trkpt>
<trkpt lat="44.187351940199733" lon="4.896457968279719"><ele></ele><time>2015-2-3T1:32:24Z</time></trkpt>
<trkpt lat="44.187101991847157" lon="4.897049982100725"><ele></ele><time>2015-2-3T1:32:27Z</time></trkpt>
<trkpt lat="44.186749951913953" lon="4.897656999528408"><ele></ele><time>2015-2-3T1:32:30Z</time></trkpt>
<trkpt lat="44.186316942796111" lon="4.898785958066583"><ele></ele><time>2015-2-3T1:32:33Z</time></trkpt>
<trkpt lat="44.185883933678269" lon="4.899963950738311"><ele></ele><time>2015-2-3T1:32:36Z</time></trkpt>
<trkpt lat="44.185634991154075" lon="4.900575997307897"><ele></ele><time>2015-2-3T1:32:39Z</time></trkpt>
<trkpt lat="44.185436926782131" lon="4.901105985045433"><ele></ele><time>2015-2-3T1:32:42Z</time></trkpt>
<trkpt lat="44.184821946546435" lon="4.901239927858114"><ele></ele><time>2015-2-3T1:32:45Z</time></trkpt>
<trkpt lat="44.18431693688035" lon="4.901307988911867"><ele></ele><time>2015-2-3T1:32:48Z</time></trkpt>
<trkpt lat="44.183788960799575" lon="4.901369931176305"><ele></ele><time>2015-2-3T1:32:51Z</time></trkpt>
<trkpt lat="44.183290991932154" lon="4.901448972523212"><ele></ele><time>2015-2-3T1:32:54Z</time></trkpt>
<trkpt lat="44.182626977562904" lon="4.901542933657765"><ele></ele><time>2015-2-3T1:32:57Z</time></trkpt>
<trkpt lat="44.182133954018354" lon="4.901394993066788"><ele></ele><time>2015-2-3T1:33:0Z</time></trkpt>
<trkpt lat="44.182055918499827" lon="4.901318969205022"><ele></ele><time>2015-2-3T1:33:3Z</time></trkpt>
<trkpt lat="44.182262951508164" lon="4.901918945834041"><ele></ele><time>2015-2-3T1:33:6Z</time></trkpt>
<trkpt lat="44.182586995884776" lon="4.902604920789599"><ele></ele><time>2015-2-3T1:33:9Z</time></trkpt>
<trkpt lat="44.182031946256757" lon="4.903108924627304"><ele></ele><time>2015-2-3T1:33:12Z</time></trkpt>
<trkpt lat="44.181497935205698" lon="4.903287962079048"><ele></ele><time>2015-2-3T1:33:15Z</time></trkpt>
<trkpt lat="44.180710958316922" lon="4.903692975640297"><ele></ele><time>2015-2-3T1:33:18Z</time></trkpt>
<trkpt lat="44.18025397695601" lon="4.903991958126426"><ele></ele><time>2015-2-3T1:33:21Z</time></trkpt>
<trkpt lat="44.17980395257473" lon="4.904295969754458"><ele></ele><time>2015-2-3T1:33:24Z</time></trkpt>
<trkpt lat="44.178944975137711" lon="4.904869962483645"><ele></ele><time>2015-2-3T1:33:27Z</time></trkpt>
<trkpt lat="44.178219940513372" lon="4.905200963839889"><ele></ele><time>2015-2-3T1:33:30Z</time></trkpt>
<trkpt lat="44.177749967202544" lon="4.905266929417849"><ele></ele><time>2015-2-3T1:33:33Z</time></trkpt>
<trkpt lat="44.177185948938131" lon="4.905388969928026"><ele></ele><time>2015-2-3T1:33:36Z</time></trkpt>
<trkpt lat="44.176632994785905" lon="4.905600948259234"><ele></ele><time>2015-2-3T1:33:39Z</time></trkpt>
<trkpt lat="44.17589295655489" lon="4.905855925753713"><ele></ele><time>2015-2-3T1:33:42Z</time></trkpt>
<trkpt lat="44.175461959093809" lon="4.906067987903953"><ele></ele><time>2015-2-3T1:33:45Z</time></trkpt>
<trkpt lat="44.174979999661446" lon="4.906580960378051"><ele></ele><time>2015-2-3T1:33:48Z</time></trkpt>
<trkpt lat="44.174526957795024" lon="4.906949931755662"><ele></ele><time>2015-2-3T1:33:51Z</time></trkpt>
<trkpt lat="44.174055978655815" lon="4.907274981960654"><ele></ele><time>2015-2-3T1:33:54Z</time></trkpt>
<trkpt lat="44.173515932634473" lon="4.907540939748287"><ele></ele><time>2015-2-3T1:33:57Z</time></trkpt>
<trkpt lat="44.172866921871901" lon="4.907856937497854"><ele></ele><time>2015-2-3T1:34:0Z</time></trkpt>
<trkpt lat="44.172397954389453" lon="4.908102946355939"><ele></ele><time>2015-2-3T1:34:3Z</time></trkpt>
<trkpt lat="44.171836953610182" lon="4.908371921628714"><ele></ele><time>2015-2-3T1:34:6Z</time></trkpt>
<trkpt lat="44.171364968642592" lon="4.908596975728869"><ele></ele><time>2015-2-3T1:34:9Z</time></trkpt>
<trkpt lat="44.170786952599883" lon="4.908864945173264"><ele></ele><time>2015-2-3T1:34:12Z</time></trkpt>
<trkpt lat="44.170252941548824" lon="4.909063931554556"><ele></ele><time>2015-2-3T1:34:15Z</time></trkpt>
<trkpt lat="44.169195983558893" lon="4.908999977633357"><ele></ele><time>2015-2-3T1:34:18Z</time></trkpt>
<trkpt lat="44.168540937826037" lon="4.908983968198299"><ele></ele><time>2015-2-3T1:34:21Z</time></trkpt>
<trkpt lat="44.167948924005032" lon="4.908982962369919"><ele></ele><time>2015-2-3T1:34:24Z</time></trkpt>
<trkpt lat="44.167112996801734" lon="4.908944992348552"><ele></ele><time>2015-2-3T1:34:27Z</time></trkpt>
<trkpt lat="44.166606981307268" lon="4.908827980980277"><ele></ele><time>2015-2-3T1:34:30Z</time></trkpt>
<trkpt lat="44.165824949741364" lon="4.908765954896808"><ele></ele><time>2015-2-3T1:34:33Z</time></trkpt>
<trkpt lat="44.16521399281919" lon="4.908815994858742"><ele></ele><time>2015-2-3T1:34:36Z</time></trkpt>
<trkpt lat="44.164586942642927" lon="4.908740976825357"><ele></ele><time>2015-2-3T1:34:39Z</time></trkpt>
<trkpt lat="44.16373391635716" lon="4.908813983201981"><ele></ele><time>2015-2-3T1:34:42Z</time></trkpt>
<trkpt lat="44.163241982460022" lon="4.908828986808658"><ele></ele><time>2015-2-3T1:34:45Z</time></trkpt>
<trkpt lat="44.162363978102803" lon="4.908752962946892"><ele></ele><time>2015-2-3T1:34:48Z</time></trkpt>
<trkpt lat="44.161781938746572" lon="4.908633939921856"><ele></ele><time>2015-2-3T1:34:51Z</time></trkpt>
<trkpt lat="44.161264942958951" lon="4.908154997974634"><ele></ele><time>2015-2-3T1:34:54Z</time></trkpt>
<trkpt lat="44.160557929426432" lon="4.907819973304868"><ele></ele><time>2015-2-3T1:34:57Z</time></trkpt>
<trkpt lat="44.160022996366024" lon="4.90769499912858"><ele></ele><time>2015-2-3T1:35:0Z</time></trkpt>
<trkpt lat="44.159372979775071" lon="4.907602965831757"><ele></ele><time>2015-2-3T1:35:3Z</time></trkpt>
<trkpt lat="44.158666972070932" lon="4.907530965283513"><ele></ele><time>2015-2-3T1:35:6Z</time></trkpt>
<trkpt lat="44.158006981015205" lon="4.907464999705553"><ele></ele><time>2015-2-3T1:35:9Z</time></trkpt>
<trkpt lat="44.157454948872328" lon="4.907410936430097"><ele></ele><time>2015-2-3T1:35:12Z</time></trkpt>
<trkpt lat="44.156884979456663" lon="4.90732996724546"><ele></ele><time>2015-2-3T1:35:15Z</time></trkpt>
<trkpt lat="44.156002951785922" lon="4.9072449747473"><ele></ele><time>2015-2-3T1:35:18Z</time></trkpt>
<trkpt lat="44.15535494685173" lon="4.907197952270508"><ele></ele><time>2015-2-3T1:35:21Z</time></trkpt>
<trkpt lat="44.154889918863773" lon="4.90715797059238"><ele></ele><time>2015-2-3T1:35:24Z</time></trkpt>
<trkpt lat="44.154373928904533" lon="4.907107930630446"><ele></ele><time>2015-2-3T1:35:27Z</time></trkpt>
<trkpt lat="44.153883922845125" lon="4.907073983922601"><ele></ele><time>2015-2-3T1:35:30Z</time></trkpt>
<trkpt lat="44.152878932654858" lon="4.906980944797397"><ele></ele><time>2015-2-3T1:35:33Z</time></trkpt>
<trkpt lat="44.151868997141719" lon="4.90688094869256"><ele></ele><time>2015-2-3T1:35:36Z</time></trkpt>
<trkpt lat="44.151297938078642" lon="4.906855970621109"><ele></ele><time>2015-2-3T1:35:39Z</time></trkpt>
<trkpt lat="44.15056292898953" lon="4.906958984211087"><ele></ele><time>2015-2-3T1:35:42Z</time></trkpt>
<trkpt lat="44.149989942088723" lon="4.906903998926282"><ele></ele><time>2015-2-3T1:35:45Z</time></trkpt>
<trkpt lat="44.149470934644341" lon="4.90685697644949"><ele></ele><time>2015-2-3T1:35:48Z</time></trkpt>
<trkpt lat="44.148903982713819" lon="4.90681397728622"><ele></ele><time>2015-2-3T1:35:51Z</time></trkpt>
<trkpt lat="44.148028995841742" lon="4.906649943441153"><ele></ele><time>2015-2-3T1:35:54Z</time></trkpt>
<trkpt lat="44.14755298756063" lon="4.90651692263782"><ele></ele><time>2015-2-3T1:35:57Z</time></trkpt>
<trkpt lat="44.147008918225765" lon="4.906372921541333"><ele></ele><time>2015-2-3T1:36:0Z</time></trkpt>
<trkpt lat="44.146546991541982" lon="4.906224980950356"><ele></ele><time>2015-2-3T1:36:3Z</time></trkpt>
<trkpt lat="44.146046927198768" lon="4.905862966552377"><ele></ele><time>2015-2-3T1:36:6Z</time></trkpt>
<trkpt lat="44.145150985568762" lon="4.905725922435522"><ele></ele><time>2015-2-3T1:36:9Z</time></trkpt>
<trkpt lat="44.144607922062278" lon="4.905682923272252"><ele></ele><time>2015-2-3T1:36:12Z</time></trkpt>
<trkpt lat="44.143894957378507" lon="4.905628943815827"><ele></ele><time>2015-2-3T1:36:15Z</time></trkpt>
<trkpt lat="44.143408974632621" lon="4.905579993501306"><ele></ele><time>2015-2-3T1:36:18Z</time></trkpt>
<trkpt lat="44.14284897968173" lon="4.905485948547721"><ele></ele><time>2015-2-3T1:36:21Z</time></trkpt>
<trkpt lat="44.142393926158547" lon="4.90537497214973"><ele></ele><time>2015-2-3T1:36:24Z</time></trkpt>
<trkpt lat="44.141454985365272" lon="4.904982950538397"><ele></ele><time>2015-2-3T1:36:27Z</time></trkpt>
<trkpt lat="44.140733974054456" lon="4.904592940583825"><ele></ele><time>2015-2-3T1:36:30Z</time></trkpt>
<trkpt lat="44.139899974688888" lon="4.904166972264648"><ele></ele><time>2015-2-3T1:36:33Z</time></trkpt>
<trkpt lat="44.139471994712949" lon="4.903933955356479"><ele></ele><time>2015-2-3T1:36:36Z</time></trkpt>
<trkpt lat="44.138729944825172" lon="4.903520978987217"><ele></ele><time>2015-2-3T1:36:39Z</time></trkpt>
<trkpt lat="44.138159975409508" lon="4.903243957087398"><ele></ele><time>2015-2-3T1:36:42Z</time></trkpt>
<trkpt lat="44.137598974630237" lon="4.902958972379565"><ele></ele><time>2015-2-3T1:36:45Z</time></trkpt>
<trkpt lat="44.13711198605597" lon="4.902716986835003"><ele></ele><time>2015-2-3T1:36:48Z</time></trkpt>
<trkpt lat="44.136647963896394" lon="4.902523951604962"><ele></ele><time>2015-2-3T1:36:51Z</time></trkpt>
<trkpt lat="44.135855957865715" lon="4.902376933023334"><ele></ele><time>2015-2-3T1:36:54Z</time></trkpt>
<trkpt lat="44.13505095988512" lon="4.902408951893449"><ele></ele><time>2015-2-3T1:36:57Z</time></trkpt>
<trkpt lat="44.134572939947248" lon="4.902475923299789"><ele></ele><time>2015-2-3T1:37:0Z</time></trkpt>
<trkpt lat="44.133958965539932" lon="4.902567956596613"><ele></ele><time>2015-2-3T1:37:3Z</time></trkpt>
<trkpt lat="44.133295956999063" lon="4.902616990730166"><ele></ele><time>2015-2-3T1:37:6Z</time></trkpt>
<trkpt lat="44.13277099840343" lon="4.902638951316476"><ele></ele><time>2015-2-3T1:37:9Z</time></trkpt>
<trkpt lat="44.132052920758724" lon="4.902739953249693"><ele></ele><time>2015-2-3T1:37:12Z</time></trkpt>
<trkpt lat="44.131464930251241" lon="4.90290398709476"><ele></ele><time>2015-2-3T1:37:15Z</time></trkpt>
<trkpt lat="44.130879957228899" lon="4.903082940727472"><ele></ele><time>2015-2-3T1:37:18Z</time></trkpt>
<trkpt lat="44.130442924797535" lon="4.903246974572539"><ele></ele><time>2015-2-3T1:37:21Z</time></trkpt>
<trkpt lat="44.129879996180534" lon="4.903498934581876"><ele></ele><time>2015-2-3T1:37:24Z</time></trkpt>
<trkpt lat="44.129384960979223" lon="4.903668919578195"><ele></ele><time>2015-2-3T1:37:27Z</time></trkpt>
<trkpt lat="44.128812979906797" lon="4.903795989230275"><ele></ele><time>2015-2-3T1:37:30Z</time></trkpt>
<trkpt lat="44.12830495275557" lon="4.903862960636616"><ele></ele><time>2015-2-3T1:37:33Z</time></trkpt>
<trkpt lat="44.12772199138999" lon="4.903879975900054"><ele></ele><time>2015-2-3T1:37:36Z</time></trkpt>
<trkpt lat="44.127076920121908" lon="4.903895985335112"><ele></ele><time>2015-2-3T1:37:39Z</time></trkpt>
<trkpt lat="44.126179972663522" lon="4.903826918452978"><ele></ele><time>2015-2-3T1:37:42Z</time></trkpt>
<trkpt lat="44.125361982733011" lon="4.903623992577195"><ele></ele><time>2015-2-3T1:37:45Z</time></trkpt>
<trkpt lat="44.124888991937041" lon="4.903521984815598"><ele></ele><time>2015-2-3T1:37:48Z</time></trkpt>
<trkpt lat="44.124362943693995" lon="4.903436992317438"><ele></ele><time>2015-2-3T1:37:51Z</time></trkpt>
<trkpt lat="44.12389799952507" lon="4.903342947363854"><ele></ele><time>2015-2-3T1:37:54Z</time></trkpt>
<trkpt lat="44.123414950445294" lon="4.903236916288734"><ele></ele><time>2015-2-3T1:37:57Z</time></trkpt>
<trkpt lat="44.122964926064014" lon="4.903016975149512"><ele></ele><time>2015-2-3T1:38:0Z</time></trkpt>
<trkpt lat="44.122594948858023" lon="4.902656972408295"><ele></ele><time>2015-2-3T1:38:3Z</time></trkpt>
<trkpt lat="44.12209496833384" lon="4.902513977140188"><ele></ele><time>2015-2-3T1:38:6Z</time></trkpt>
<trkpt lat="44.121520975604653" lon="4.902485981583595"><ele></ele><time>2015-2-3T1:38:9Z</time></trkpt>
<trkpt lat="44.121069945394993" lon="4.902480952441692"><ele></ele><time>2015-2-3T1:38:12Z</time></trkpt>
<trkpt lat="44.120234940201044" lon="4.902687985450029"><ele></ele><time>2015-2-3T1:38:15Z</time></trkpt>
<trkpt lat="44.119766978546977" lon="4.902487993240356"><ele></ele><time>2015-2-3T1:38:18Z</time></trkpt>
<trkpt lat="44.119413932785392" lon="4.902047943323851"><ele></ele><time>2015-2-3T1:38:21Z</time></trkpt>
<trkpt lat="44.118999950587749" lon="4.901840994134545"><ele></ele><time>2015-2-3T1:38:24Z</time></trkpt>
<trkpt lat="44.118491923436522" lon="4.901555925607681"><ele></ele><time>2015-2-3T1:38:27Z</time></trkpt>
<trkpt lat="44.117857916280627" lon="4.901038929820061"><ele></ele><time>2015-2-3T1:38:30Z</time></trkpt>
<trkpt lat="44.117356929928064" lon="4.900766937062144"><ele></ele><time>2015-2-3T1:38:33Z</time></trkpt>
<trkpt lat="44.116758964955807" lon="4.900464937090874"><ele></ele><time>2015-2-3T1:38:36Z</time></trkpt>
<trkpt lat="44.116289997473359" lon="4.900290928781033"><ele></ele><time>2015-2-3T1:38:39Z</time></trkpt>
<trkpt lat="44.115546941757202" lon="4.900453956797719"><ele></ele><time>2015-2-3T1:38:42Z</time></trkpt>
<trkpt lat="44.115049978718162" lon="4.900638945400715"><ele></ele><time>2015-2-3T1:38:45Z</time></trkpt>
<trkpt lat="44.11506799980998" lon="4.901279993355274"><ele></ele><time>2015-2-3T1:38:48Z</time></trkpt>
<trkpt lat="44.115116950124502" lon="4.901978960260749"><ele></ele><time>2015-2-3T1:38:51Z</time></trkpt>
<trkpt lat="44.115189956501126" lon="4.903051927685738"><ele></ele><time>2015-2-3T1:38:54Z</time></trkpt>
<trkpt lat="44.115221975371242" lon="4.903717953711748"><ele></ele><time>2015-2-3T1:38:57Z</time></trkpt>
<trkpt lat="44.115148968994617" lon="4.904952943325043"><ele></ele><time>2015-2-3T1:39:0Z</time></trkpt>
<trkpt lat="44.115005973726511" lon="4.905585944652557"><ele></ele><time>2015-2-3T1:39:3Z</time></trkpt>
<trkpt lat="44.114598948508501" lon="4.906442994251847"><ele></ele><time>2015-2-3T1:39:6Z</time></trkpt>
<trkpt lat="44.114291919395328" lon="4.907023943960667"><ele></ele><time>2015-2-3T1:39:9Z</time></trkpt>
<trkpt lat="44.113882966339588" lon="4.90775995887816"><ele></ele><time>2015-2-3T1:39:12Z</time></trkpt>
<trkpt lat="44.113588929176331" lon="4.90829598158598"><ele></ele><time>2015-2-3T1:39:15Z</time></trkpt>
<trkpt lat="44.113108981400728" lon="4.90922293625772"><ele></ele><time>2015-2-3T1:39:18Z</time></trkpt>
<trkpt lat="44.112761970609426" lon="4.909828947857022"><ele></ele><time>2015-2-3T1:39:21Z</time></trkpt>
<trkpt lat="44.11234094761312" lon="4.910491956397891"><ele></ele><time>2015-2-3T1:39:24Z</time></trkpt>
<trkpt lat="44.111727979034185" lon="4.911250937730074"><ele></ele><time>2015-2-3T1:39:27Z</time></trkpt>
<trkpt lat="44.111019959673285" lon="4.912041937932372"><ele></ele><time>2015-2-3T1:39:30Z</time></trkpt>
<trkpt lat="44.110611928626895" lon="4.912523981183767"><ele></ele><time>2015-2-3T1:39:33Z</time></trkpt>
<trkpt lat="44.109945986419916" lon="4.913316993042827"><ele></ele><time>2015-2-3T1:39:36Z</time></trkpt>
<trkpt lat="44.109314996749163" lon="4.914080919697881"><ele></ele><time>2015-2-3T1:39:39Z</time></trkpt>
<trkpt lat="44.108631955459714" lon="4.914949955418706"><ele></ele><time>2015-2-3T1:39:42Z</time></trkpt>
<trkpt lat="44.108338924124837" lon="4.915473992004991"><ele></ele><time>2015-2-3T1:39:45Z</time></trkpt>
<trkpt lat="44.108021920546889" lon="4.916179999709129"><ele></ele><time>2015-2-3T1:39:48Z</time></trkpt>
<trkpt lat="44.107450945302844" lon="4.916338920593262"><ele></ele><time>2015-2-3T1:39:51Z</time></trkpt>
<trkpt lat="44.107172917574644" lon="4.915676917880774"><ele></ele><time>2015-2-3T1:39:54Z</time></trkpt>
<trkpt lat="44.106693975627422" lon="4.9156479164958"><ele></ele><time>2015-2-3T1:39:57Z</time></trkpt>
<trkpt lat="44.106065919622779" lon="4.916092995554209"><ele></ele><time>2015-2-3T1:40:0Z</time></trkpt>
<trkpt lat="44.106495995074511" lon="4.916611919179559"><ele></ele><time>2015-2-3T1:40:3Z</time></trkpt>
<trkpt lat="44.107157997786999" lon="4.917186917737126"><ele></ele><time>2015-2-3T1:40:6Z</time></trkpt>
<trkpt lat="44.107379950582981" lon="4.917773986235261"><ele></ele><time>2015-2-3T1:40:9Z</time></trkpt>
<trkpt lat="44.107222957536578" lon="4.918745951727033"><ele></ele><time>2015-2-3T1:40:12Z</time></trkpt>
<trkpt lat="44.107099995017052" lon="4.919418934732676"><ele></ele><time>2015-2-3T1:40:15Z</time></trkpt>
<trkpt lat="44.106970997527242" lon="4.920059982687235"><ele></ele><time>2015-2-3T1:40:18Z</time></trkpt>
<trkpt lat="44.106673942878842" lon="4.921293966472149"><ele></ele><time>2015-2-3T1:40:21Z</time></trkpt>
<trkpt lat="44.106435980647802" lon="4.922031993046403"><ele></ele><time>2015-2-3T1:40:24Z</time></trkpt>
<trkpt lat="44.106081929057837" lon="4.922917960211635"><ele></ele><time>2015-2-3T1:40:27Z</time></trkpt>
<trkpt lat="44.105731984600425" lon="4.923751959577203"><ele></ele><time>2015-2-3T1:40:30Z</time></trkpt>
<trkpt lat="44.105423949658871" lon="4.924462996423245"><ele></ele><time>2015-2-3T1:40:33Z</time></trkpt>
<trkpt lat="44.105153968557715" lon="4.925049981102347"><ele></ele><time>2015-2-3T1:40:36Z</time></trkpt>
<trkpt lat="44.104859931394458" lon="4.925733944401145"><ele></ele><time>2015-2-3T1:40:39Z</time></trkpt>
<trkpt lat="44.104405967518687" lon="4.926632987335324"><ele></ele><time>2015-2-3T1:40:42Z</time></trkpt>
<trkpt lat="44.104052921757102" lon="4.927280992269516"><ele></ele><time>2015-2-3T1:40:45Z</time></trkpt>
<trkpt lat="44.103678921237588" lon="4.927897984161973"><ele></ele><time>2015-2-3T1:40:48Z</time></trkpt>
<trkpt lat="44.103324953466654" lon="4.928395953029394"><ele></ele><time>2015-2-3T1:40:51Z</time></trkpt>
<trkpt lat="44.102983977645636" lon="4.928889982402325"><ele></ele><time>2015-2-3T1:40:54Z</time></trkpt>
<trkpt lat="44.102647947147489" lon="4.929617950692773"><ele></ele><time>2015-2-3T1:40:57Z</time></trkpt>
<trkpt lat="44.102289956063032" lon="4.930980931967497"><ele></ele><time>2015-2-3T1:41:0Z</time></trkpt>
<trkpt lat="44.102117959409952" lon="4.931642934679985"><ele></ele><time>2015-2-3T1:41:3Z</time></trkpt>
<trkpt lat="44.101944956928492" lon="4.932239977642894"><ele></ele><time>2015-2-3T1:41:6Z</time></trkpt>
<trkpt lat="44.10177094861865" lon="4.932864932343364"><ele></ele><time>2015-2-3T1:41:9Z</time></trkpt>
<trkpt lat="44.101519994437695" lon="4.933673953637481"><ele></ele><time>2015-2-3T1:41:12Z</time></trkpt>
<trkpt lat="44.101271973922849" lon="4.934438969939947"><ele></ele><time>2015-2-3T1:41:15Z</time></trkpt>
<trkpt lat="44.101074999198318" lon="4.935092926025391"><ele></ele><time>2015-2-3T1:41:18Z</time></trkpt>
<trkpt lat="44.100876934826374" lon="4.935748977586627"><ele></ele><time>2015-2-3T1:41:21Z</time></trkpt>
<trkpt lat="44.100672919303179" lon="4.936428917571902"><ele></ele><time>2015-2-3T1:41:24Z</time></trkpt>
<trkpt lat="44.100471921265125" lon="4.93715395219624"><ele></ele><time>2015-2-3T1:41:27Z</time></trkpt>
<trkpt lat="44.100283998996019" lon="4.937980994582176"><ele></ele><time>2015-2-3T1:41:30Z</time></trkpt>
<trkpt lat="44.100109990686178" lon="4.938619947060943"><ele></ele><time>2015-2-3T1:41:33Z</time></trkpt>
<trkpt lat="44.099800949916244" lon="4.939743960276246"><ele></ele><time>2015-2-3T1:41:36Z</time></trkpt>
<trkpt lat="44.099610932171345" lon="4.940400933846831"><ele></ele><time>2015-2-3T1:41:39Z</time></trkpt>
<trkpt lat="44.099350925534964" lon="4.941247925162315"><ele></ele><time>2015-2-3T1:41:42Z</time></trkpt>
<trkpt lat="44.099122937768698" lon="4.941982934251428"><ele></ele><time>2015-2-3T1:41:45Z</time></trkpt>
<trkpt lat="44.098876928910613" lon="4.942822968587279"><ele></ele><time>2015-2-3T1:41:48Z</time></trkpt>
<trkpt lat="44.098712978884578" lon="4.943416994065046"><ele></ele><time>2015-2-3T1:41:51Z</time></trkpt>
<trkpt lat="44.098529918119311" lon="4.944058964028955"><ele></ele><time>2015-2-3T1:41:54Z</time></trkpt>
<trkpt lat="44.09830997698009" lon="4.944726917892695"><ele></ele><time>2015-2-3T1:41:57Z</time></trkpt>
<trkpt lat="44.097973946481943" lon="4.945328989997506"><ele></ele><time>2015-2-3T1:42:0Z</time></trkpt>
<trkpt lat="44.097480922937393" lon="4.945845985785127"><ele></ele><time>2015-2-3T1:42:3Z</time></trkpt>
<trkpt lat="44.09695596434176" lon="4.945090943947434"><ele></ele><time>2015-2-3T1:42:6Z</time></trkpt>
<trkpt lat="44.096699981018901" lon="4.944455930963159"><ele></ele><time>2015-2-3T1:42:9Z</time></trkpt>
<trkpt lat="44.096413990482688" lon="4.943786971271038"><ele></ele><time>2015-2-3T1:42:12Z</time></trkpt>
<trkpt lat="44.096092963591218" lon="4.942887928336859"><ele></ele><time>2015-2-3T1:42:15Z</time></trkpt>
<trkpt lat="44.095749976113439" lon="4.941906994208694"><ele></ele><time>2015-2-3T1:42:18Z</time></trkpt>
<trkpt lat="44.095212947577238" lon="4.941339958459139"><ele></ele><time>2015-2-3T1:42:21Z</time></trkpt>
<trkpt lat="44.094622945412993" lon="4.940949948504567"><ele></ele><time>2015-2-3T1:42:24Z</time></trkpt>
<trkpt lat="44.093923978507519" lon="4.940969981253147"><ele></ele><time>2015-2-3T1:42:27Z</time></trkpt>
<trkpt lat="44.093241943046451" lon="4.941012980416417"><ele></ele><time>2015-2-3T1:42:30Z</time></trkpt>
<trkpt lat="44.092678930610418" lon="4.9410829693079"><ele></ele><time>2015-2-3T1:42:33Z</time></trkpt>
<trkpt lat="44.092043917626143" lon="4.941163938492537"><ele></ele><time>2015-2-3T1:42:36Z</time></trkpt>
<trkpt lat="44.091538991779089" lon="4.941223952919245"><ele></ele><time>2015-2-3T1:42:39Z</time></trkpt>
<trkpt lat="44.090870954096317" lon="4.940942991524935"><ele></ele><time>2015-2-3T1:42:42Z</time></trkpt>
<trkpt lat="44.090368961915374" lon="4.940557926893234"><ele></ele><time>2015-2-3T1:42:45Z</time></trkpt>
<trkpt lat="44.089902928099036" lon="4.940196918323636"><ele></ele><time>2015-2-3T1:42:48Z</time></trkpt>
<trkpt lat="44.089413927868009" lon="4.939825935289264"><ele></ele><time>2015-2-3T1:42:51Z</time></trkpt>
<trkpt lat="44.088981924578547" lon="4.939556960016489"><ele></ele><time>2015-2-3T1:42:54Z</time></trkpt>
<trkpt lat="44.088220931589603" lon="4.939152952283621"><ele></ele><time>2015-2-3T1:42:57Z</time></trkpt>
<trkpt lat="44.087588936090469" lon="4.938918929547072"><ele></ele><time>2015-2-3T1:43:0Z</time></trkpt>
<trkpt lat="44.086868930608034" lon="4.938366981223226"><ele></ele><time>2015-2-3T1:43:3Z</time></trkpt>
<trkpt lat="44.086442962288857" lon="4.93816296570003"><ele></ele><time>2015-2-3T1:43:6Z</time></trkpt>
<trkpt lat="44.085990926250815" lon="4.937983928248286"><ele></ele><time>2015-2-3T1:43:9Z</time></trkpt>
<trkpt lat="44.085478959605098" lon="4.937570951879025"><ele></ele><time>2015-2-3T1:43:12Z</time></trkpt>
<trkpt lat="44.08475199714303" lon="4.937652926892042"><ele></ele><time>2015-2-3T1:43:15Z</time></trkpt>
<trkpt lat="44.084295937791467" lon="4.937635995447636"><ele></ele><time>2015-2-3T1:43:18Z</time></trkpt>
<trkpt lat="44.083602922037244" lon="4.937641946598887"><ele></ele><time>2015-2-3T1:43:21Z</time></trkpt>
<trkpt lat="44.083046950399876" lon="4.937854930758476"><ele></ele><time>2015-2-3T1:43:24Z</time></trkpt>
<trkpt lat="44.082520985975862" lon="4.938038997352123"><ele></ele><time>2015-2-3T1:43:27Z</time></trkpt>
<trkpt lat="44.081922937184572" lon="4.938300931826234"><ele></ele><time>2015-2-3T1:43:30Z</time></trkpt>
<trkpt lat="44.081460926681757" lon="4.938408974558115"><ele></ele><time>2015-2-3T1:43:33Z</time></trkpt>
<trkpt lat="44.080907972529531" lon="4.938495978713036"><ele></ele><time>2015-2-3T1:43:36Z</time></trkpt>
<trkpt lat="44.080251920968294" lon="4.938606955111027"><ele></ele><time>2015-2-3T1:43:39Z</time></trkpt>
<trkpt lat="44.080143962055445" lon="4.939175918698311"><ele></ele><time>2015-2-3T1:43:42Z</time></trkpt>
<trkpt lat="44.080324927344918" lon="4.940056940540671"><ele></ele><time>2015-2-3T1:43:45Z</time></trkpt>
<trkpt lat="44.080566996708512" lon="4.941229987889528"><ele></ele><time>2015-2-3T1:43:48Z</time></trkpt>
<trkpt lat="44.080784926190972" lon="4.941959967836738"><ele></ele><time>2015-2-3T1:43:51Z</time></trkpt>
<trkpt lat="44.081180971115828" lon="4.942577965557575"><ele></ele><time>2015-2-3T1:43:54Z</time></trkpt>
<trkpt lat="44.081273926422" lon="4.943631989881396"><ele></ele><time>2015-2-3T1:43:57Z</time></trkpt>
<trkpt lat="44.080768916755915" lon="4.944042954593897"><ele></ele><time>2015-2-3T1:44:0Z</time></trkpt>
<trkpt lat="44.080298943445086" lon="4.944087965413928"><ele></ele><time>2015-2-3T1:44:3Z</time></trkpt>
<trkpt lat="44.079837938770652" lon="4.944139933213592"><ele></ele><time>2015-2-3T1:44:6Z</time></trkpt>
<trkpt lat="44.078932944685221" lon="4.944130964577198"><ele></ele><time>2015-2-3T1:44:9Z</time></trkpt>
<trkpt lat="44.07839197665453" lon="4.944360964000225"><ele></ele><time>2015-2-3T1:44:12Z</time></trkpt>
<trkpt lat="44.077906999737024" lon="4.944695988669992"><ele></ele><time>2015-2-3T1:44:15Z</time></trkpt>
<trkpt lat="44.077419927343726" lon="4.945006957277656"><ele></ele><time>2015-2-3T1:44:18Z</time></trkpt>
<trkpt lat="44.076892957091331" lon="4.945504926145077"><ele></ele><time>2015-2-3T1:44:21Z</time></trkpt>
<trkpt lat="44.07602995634079" lon="4.945545997470617"><ele></ele><time>2015-2-3T1:44:24Z</time></trkpt>
<trkpt lat="44.075353955850005" lon="4.945651944726706"><ele></ele><time>2015-2-3T1:44:27Z</time></trkpt>
<trkpt lat="44.074671920388937" lon="4.945691926404834"><ele></ele><time>2015-2-3T1:44:30Z</time></trkpt>
<trkpt lat="44.074056940153241" lon="4.945473996922374"><ele></ele><time>2015-2-3T1:44:33Z</time></trkpt>
<trkpt lat="44.073551930487156" lon="4.945484977215529"><ele></ele><time>2015-2-3T1:44:36Z</time></trkpt>
<trkpt lat="44.073049938306212" lon="4.945481959730387"><ele></ele><time>2015-2-3T1:44:39Z</time></trkpt>
<trkpt lat="44.07252992503345" lon="4.945383975282311"><ele></ele><time>2015-2-3T1:44:42Z</time></trkpt>
<trkpt lat="44.071968924254179" lon="4.945359919220209"><ele></ele><time>2015-2-3T1:44:45Z</time></trkpt>
<trkpt lat="44.071921985596418" lon="4.945363942533732"><ele></ele><time>2015-2-3T1:44:48Z</time></trkpt>
<trkpt lat="44.072434958070517" lon="4.945378946140409"><ele></ele><time>2015-2-3T1:44:51Z</time></trkpt>
<trkpt lat="44.072803929448128" lon="4.945802986621857"><ele></ele><time>2015-2-3T1:44:54Z</time></trkpt>
<trkpt lat="44.073007944971323" lon="4.946866985410452"><ele></ele><time>2015-2-3T1:44:57Z</time></trkpt>
<trkpt lat="44.0733009763062" lon="4.948077918961644"><ele></ele><time>2015-2-3T1:45:0Z</time></trkpt>
<trkpt lat="44.073518989607692" lon="4.94937795214355"><ele></ele><time>2015-2-3T1:45:3Z</time></trkpt>
<trkpt lat="44.073819983750582" lon="4.950421918183565"><ele></ele><time>2015-2-3T1:45:6Z</time></trkpt>
<trkpt lat="44.074053922668099" lon="4.951070928946137"><ele></ele><time>2015-2-3T1:45:9Z</time></trkpt>
<trkpt lat="44.074607966467738" lon="4.952187985181809"><ele></ele><time>2015-2-3T1:45:12Z</time></trkpt>
<trkpt lat="44.075002921745181" lon="4.953316943719983"><ele></ele><time>2015-2-3T1:45:15Z</time></trkpt>
<trkpt lat="44.075482953339815" lon="4.95412495918572"><ele></ele><time>2015-2-3T1:45:18Z</time></trkpt>
<trkpt lat="44.076122995465994" lon="4.954490996897221"><ele></ele><time>2015-2-3T1:45:21Z</time></trkpt>
<trkpt lat="44.076519962400198" lon="4.954913947731257"><ele></ele><time>2015-2-3T1:45:24Z</time></trkpt>
<trkpt lat="44.076984990388155" lon="4.955446952953935"><ele></ele><time>2015-2-3T1:45:27Z</time></trkpt>
<trkpt lat="44.077338958159089" lon="4.955861940979958"><ele></ele><time>2015-2-3T1:45:30Z</time></trkpt>
<trkpt lat="44.077773978933692" lon="4.956928957253695"><ele></ele><time>2015-2-3T1:45:33Z</time></trkpt>
<trkpt lat="44.077970953658223" lon="4.957560952752829"><ele></ele><time>2015-2-3T1:45:36Z</time></trkpt>
<trkpt lat="44.078187961131334" lon="4.958210969343782"><ele></ele><time>2015-2-3T1:45:39Z</time></trkpt>
<trkpt lat="44.078374961391091" lon="4.959402959793806"><ele></ele><time>2015-2-3T1:45:42Z</time></trkpt>
<trkpt lat="44.078374961391091" lon="4.960173927247524"><ele></ele><time>2015-2-3T1:45:45Z</time></trkpt>
<trkpt lat="44.078366998583078" lon="4.96089493855834"><ele></ele><time>2015-2-3T1:45:48Z</time></trkpt>
<trkpt lat="44.078358951956034" lon="4.961583930999041"><ele></ele><time>2015-2-3T1:45:51Z</time></trkpt>
<trkpt lat="44.078509993851185" lon="4.962340984493494"><ele></ele><time>2015-2-3T1:45:54Z</time></trkpt>
<trkpt lat="44.079006956890225" lon="4.963220916688442"><ele></ele><time>2015-2-3T1:45:57Z</time></trkpt>
<trkpt lat="44.079428985714912" lon="4.96426697820425"><ele></ele><time>2015-2-3T1:46:0Z</time></trkpt>
<trkpt lat="44.079795945435762" lon="4.965453939512372"><ele></ele><time>2015-2-3T1:46:3Z</time></trkpt>
<trkpt lat="44.079993925988674" lon="4.966084929183126"><ele></ele><time>2015-2-3T1:46:6Z</time></trkpt>
<trkpt lat="44.080190984532237" lon="4.966711979359388"><ele></ele><time>2015-2-3T1:46:9Z</time></trkpt>
<trkpt lat="44.080379996448755" lon="4.967280942946672"><ele></ele><time>2015-2-3T1:46:12Z</time></trkpt>
<trkpt lat="44.080511927604675" lon="4.968058951199055"><ele></ele><time>2015-2-3T1:46:15Z</time></trkpt>
<trkpt lat="44.080462977290154" lon="4.968916922807694"><ele></ele><time>2015-2-3T1:46:18Z</time></trkpt>
<trkpt lat="44.080543946474791" lon="4.969819989055395"><ele></ele><time>2015-2-3T1:46:21Z</time></trkpt>
<trkpt lat="44.080660957843065" lon="4.970784997567534"><ele></ele><time>2015-2-3T1:46:24Z</time></trkpt>
<trkpt lat="44.081204943358898" lon="4.971076939254999"><ele></ele><time>2015-2-3T1:46:27Z</time></trkpt>
<trkpt lat="44.081716993823647" lon="4.971050955355167"><ele></ele><time>2015-2-3T1:46:30Z</time></trkpt>
<trkpt lat="44.082175986841321" lon="4.971004938706756"><ele></ele><time>2015-2-3T1:46:33Z</time></trkpt>
<trkpt lat="44.082247987389565" lon="4.971290929242969"><ele></ele><time>2015-2-3T1:46:36Z</time></trkpt>
<trkpt lat="44.081948921084404" lon="4.970951965078712"><ele></ele><time>2015-2-3T1:46:39Z</time></trkpt>
<trkpt lat="44.081458998844028" lon="4.970994964241982"><ele></ele><time>2015-2-3T1:46:42Z</time></trkpt>
<trkpt lat="44.080902943387628" lon="4.971040980890393"><ele></ele><time>2015-2-3T1:46:45Z</time></trkpt>
<trkpt lat="44.080375973135233" lon="4.971247930079699"><ele></ele><time>2015-2-3T1:46:48Z</time></trkpt>
<trkpt lat="44.080102974548936" lon="4.971884954720736"><ele></ele><time>2015-2-3T1:46:51Z</time></trkpt>
<trkpt lat="44.08009291626513" lon="4.97283797711134"><ele></ele><time>2015-2-3T1:46:54Z</time></trkpt>
<trkpt lat="44.080100962892175" lon="4.973524957895279"><ele></ele><time>2015-2-3T1:46:57Z</time></trkpt>
<trkpt lat="44.080053940415382" lon="4.974248986691237"><ele></ele><time>2015-2-3T1:47:0Z</time></trkpt>
<trkpt lat="44.079765938222408" lon="4.974715942516923"><ele></ele><time>2015-2-3T1:47:3Z</time></trkpt>
<trkpt lat="44.079239973798394" lon="4.974835971370339"><ele></ele><time>2015-2-3T1:47:6Z</time></trkpt>
<trkpt lat="44.078643936663866" lon="4.975261939689517"><ele></ele><time>2015-2-3T1:47:9Z</time></trkpt>
<trkpt lat="44.078231966122985" lon="4.975749934092164"><ele></ele><time>2015-2-3T1:47:12Z</time></trkpt>
<trkpt lat="44.078101962804794" lon="4.976607989519835"><ele></ele><time>2015-2-3T1:47:15Z</time></trkpt>
<trkpt lat="44.078275971114635" lon="4.977659918367863"><ele></ele><time>2015-2-3T1:47:18Z</time></trkpt>
<trkpt lat="44.078767988830805" lon="4.978463994339109"><ele></ele><time>2015-2-3T1:47:21Z</time></trkpt>
<trkpt lat="44.079138971865177" lon="4.979061959311366"><ele></ele><time>2015-2-3T1:47:24Z</time></trkpt>
<trkpt lat="44.079465949907899" lon="4.979590941220522"><ele></ele><time>2015-2-3T1:47:27Z</time></trkpt>
<trkpt lat="44.08004698343575" lon="4.980500964447856"><ele></ele><time>2015-2-3T1:47:30Z</time></trkpt>
<trkpt lat="44.080360969528556" lon="4.981140922755003"><ele></ele><time>2015-2-3T1:47:33Z</time></trkpt>
<trkpt lat="44.080712925642729" lon="4.981731930747628"><ele></ele><time>2015-2-3T1:47:36Z</time></trkpt>
<trkpt lat="44.080328950658441" lon="4.983204966410995"><ele></ele><time>2015-2-3T1:47:39Z</time></trkpt>
<trkpt lat="44.080052934587002" lon="4.983866969123483"><ele></ele><time>2015-2-3T1:47:42Z</time></trkpt>
<trkpt lat="44.079770967364311" lon="4.984591919928789"><ele></ele><time>2015-2-3T1:47:45Z</time></trkpt>
<trkpt lat="44.079539962112904" lon="4.985162978991866"><ele></ele><time>2015-2-3T1:47:48Z</time></trkpt>
<trkpt lat="44.079275932163" lon="4.985832944512367"><ele></ele><time>2015-2-3T1:47:51Z</time></trkpt>
<trkpt lat="44.079046938568354" lon="4.986536940559745"><ele></ele><time>2015-2-3T1:47:54Z</time></trkpt>
<trkpt lat="44.078841917216778" lon="4.987203972414136"><ele></ele><time>2015-2-3T1:47:57Z</time></trkpt>
<trkpt lat="44.078657934442163" lon="4.987834962084889"><ele></ele><time>2015-2-3T1:48:0Z</time></trkpt>
<trkpt lat="44.07830698415637" lon="4.988992922008038"><ele></ele><time>2015-2-3T1:48:3Z</time></trkpt>
<trkpt lat="44.0779859572649" lon="4.989912919700146"><ele></ele><time>2015-2-3T1:48:6Z</time></trkpt>
<trkpt lat="44.077584967017174" lon="4.991032993420959"><ele></ele><time>2015-2-3T1:48:9Z</time></trkpt>
<trkpt lat="44.077302999794483" lon="4.991842936724424"><ele></ele><time>2015-2-3T1:48:12Z</time></trkpt>
<trkpt lat="44.077022960409522" lon="4.992627985775471"><ele></ele><time>2015-2-3T1:48:15Z</time></trkpt>
<trkpt lat="44.076727917417884" lon="4.993421919643879"><ele></ele><time>2015-2-3T1:48:18Z</time></trkpt>
<trkpt lat="44.076492972671986" lon="4.99443294480443"><ele></ele><time>2015-2-3T1:48:21Z</time></trkpt>
<trkpt lat="44.076318964362144" lon="4.9954619910568"><ele></ele><time>2015-2-3T1:48:24Z</time></trkpt>
<trkpt lat="44.075939934700727" lon="4.996373942121863"><ele></ele><time>2015-2-3T1:48:27Z</time></trkpt>
<trkpt lat="44.075468955561519" lon="4.997173994779587"><ele></ele><time>2015-2-3T1:48:30Z</time></trkpt>
<trkpt lat="44.07499797642231" lon="4.998182924464345"><ele></ele><time>2015-2-3T1:48:33Z</time></trkpt>
<trkpt lat="44.07456798478961" lon="4.999217921867967"><ele></ele><time>2015-2-3T1:48:36Z</time></trkpt>
<trkpt lat="44.074123995378613" lon="5.000295918434858"><ele></ele><time>2015-2-3T1:48:39Z</time></trkpt>
<trkpt lat="44.073826940730214" lon="5.000993963330984"><ele></ele><time>2015-2-3T1:48:42Z</time></trkpt>
<trkpt lat="44.073598952963948" lon="5.001537948846817"><ele></ele><time>2015-2-3T1:48:45Z</time></trkpt>
<trkpt lat="44.073334923014045" lon="5.002175979316235"><ele></ele><time>2015-2-3T1:48:48Z</time></trkpt>
<trkpt lat="44.072977937757969" lon="5.002712924033403"><ele></ele><time>2015-2-3T1:48:51Z</time></trkpt>
<trkpt lat="44.072894956916571" lon="5.00399493612349"><ele></ele><time>2015-2-3T1:48:54Z</time></trkpt>
<trkpt lat="44.07270192168653" lon="5.004994980990887"><ele></ele><time>2015-2-3T1:48:57Z</time></trkpt>
<trkpt lat="44.072401933372021" lon="5.005778940394521"><ele></ele><time>2015-2-3T1:49:0Z</time></trkpt>
<trkpt lat="44.072051988914609" lon="5.006689969450235"><ele></ele><time>2015-2-3T1:49:3Z</time></trkpt>
<trkpt lat="44.071667930111289" lon="5.007649948820472"><ele></ele><time>2015-2-3T1:49:6Z</time></trkpt>
<trkpt lat="44.071376994252205" lon="5.008343970403075"><ele></ele><time>2015-2-3T1:49:9Z</time></trkpt>
<trkpt lat="44.071077927947044" lon="5.009141927585006"><ele></ele><time>2015-2-3T1:49:12Z</time></trkpt>
<trkpt lat="44.07082999125123" lon="5.00975095666945"><ele></ele><time>2015-2-3T1:49:15Z</time></trkpt>
<trkpt lat="44.070591945201159" lon="5.0103769171983"><ele></ele><time>2015-2-3T1:49:18Z</time></trkpt>
<trkpt lat="44.070323975756764" lon="5.011192979291081"><ele></ele><time>2015-2-3T1:49:21Z</time></trkpt>
<trkpt lat="44.070076961070299" lon="5.012335935607553"><ele></ele><time>2015-2-3T1:49:24Z</time></trkpt>
<trkpt lat="44.069822989404202" lon="5.013201953843236"><ele></ele><time>2015-2-3T1:49:27Z</time></trkpt>
<trkpt lat="44.069616962224245" lon="5.014482960104942"><ele></ele><time>2015-2-3T1:49:30Z</time></trkpt>
<trkpt lat="44.069410935044289" lon="5.015319976955652"><ele></ele><time>2015-2-3T1:49:33Z</time></trkpt>
<trkpt lat="44.069225946441293" lon="5.016051968559623"><ele></ele><time>2015-2-3T1:49:36Z</time></trkpt>
<trkpt lat="44.069043975323439" lon="5.016771974042058"><ele></ele><time>2015-2-3T1:49:39Z</time></trkpt>
<trkpt lat="44.068844988942146" lon="5.017852988094091"><ele></ele><time>2015-2-3T1:49:42Z</time></trkpt>
<trkpt lat="44.068754967302084" lon="5.018986975774169"><ele></ele><time>2015-2-3T1:49:45Z</time></trkpt>
<trkpt lat="44.068674920126796" lon="5.020205955952406"><ele></ele><time>2015-2-3T1:49:48Z</time></trkpt>
<trkpt lat="44.0686159953475" lon="5.020984970033169"><ele></ele><time>2015-2-3T1:49:51Z</time></trkpt>
<trkpt lat="44.068541983142495" lon="5.021801954135299"><ele></ele><time>2015-2-3T1:49:54Z</time></trkpt>
<trkpt lat="44.068485992029309" lon="5.022480972111225"><ele></ele><time>2015-2-3T1:49:57Z</time></trkpt>
<trkpt lat="44.068421954289079" lon="5.023302985355258"><ele></ele><time>2015-2-3T1:50:0Z</time></trkpt>
<trkpt lat="44.068136969581246" lon="5.024352986365557"><ele></ele><time>2015-2-3T1:50:3Z</time></trkpt>
<trkpt lat="44.067877968773246" lon="5.024948939681053"><ele></ele><time>2015-2-3T1:50:6Z</time></trkpt>
<trkpt lat="44.067627936601639" lon="5.02549896016717"><ele></ele><time>2015-2-3T1:50:9Z</time></trkpt>
<trkpt lat="44.067101972177625" lon="5.02661693841219"><ele></ele><time>2015-2-3T1:50:12Z</time></trkpt>
<trkpt lat="44.06683593057096" lon="5.027188919484615"><ele></ele><time>2015-2-3T1:50:15Z</time></trkpt>
<trkpt lat="44.0664919372648" lon="5.027863997966051"><ele></ele><time>2015-2-3T1:50:18Z</time></trkpt>
<trkpt lat="44.066090947017074" lon="5.028446959331632"><ele></ele><time>2015-2-3T1:50:21Z</time></trkpt>
<trkpt lat="44.065623991191387" lon="5.0291099678725"><ele></ele><time>2015-2-3T1:50:24Z</time></trkpt>
<trkpt lat="44.065164998173714" lon="5.029759984463453"><ele></ele><time>2015-2-3T1:50:27Z</time></trkpt>
<trkpt lat="44.064595950767398" lon="5.030546961352229"><ele></ele><time>2015-2-3T1:50:30Z</time></trkpt>
<trkpt lat="44.06412991695106" lon="5.03125598654151"><ele></ele><time>2015-2-3T1:50:33Z</time></trkpt>
<trkpt lat="44.063752982765436" lon="5.032042963430286"><ele></ele><time>2015-2-3T1:50:36Z</time></trkpt>
<trkpt lat="44.063243949785829" lon="5.033126994967461"><ele></ele><time>2015-2-3T1:50:39Z</time></trkpt>
<trkpt lat="44.062937926501036" lon="5.033734934404492"><ele></ele><time>2015-2-3T1:50:42Z</time></trkpt>
<trkpt lat="44.06266794539988" lon="5.034312950447202"><ele></ele><time>2015-2-3T1:50:45Z</time></trkpt>
<trkpt lat="44.062317917123437" lon="5.035089952871203"><ele></ele><time>2015-2-3T1:50:48Z</time></trkpt>
<trkpt lat="44.061964955180883" lon="5.035852957516909"><ele></ele><time>2015-2-3T1:50:51Z</time></trkpt>
<trkpt lat="44.061702936887741" lon="5.036403983831406"><ele></ele><time>2015-2-3T1:50:54Z</time></trkpt>
<trkpt lat="44.061424992978573" lon="5.037005972117186"><ele></ele><time>2015-2-3T1:50:57Z</time></trkpt>
<trkpt lat="44.061023918911815" lon="5.037891939282417"><ele></ele><time>2015-2-3T1:51:0Z</time></trkpt>
<trkpt lat="44.060521926730871" lon="5.038138953968883"><ele></ele><time>2015-2-3T1:51:3Z</time></trkpt>
<trkpt lat="44.060350935906172" lon="5.038804979994893"><ele></ele><time>2015-2-3T1:51:6Z</time></trkpt>
<trkpt lat="44.060001997277141" lon="5.04002396017313"><ele></ele><time>2015-2-3T1:51:9Z</time></trkpt>
<trkpt lat="44.059544932097197" lon="5.041039930656552"><ele></ele><time>2015-2-3T1:51:12Z</time></trkpt>
<trkpt lat="44.05927293933928" lon="5.041613923385739"><ele></ele><time>2015-2-3T1:51:15Z</time></trkpt>
<trkpt lat="44.058880917727947" lon="5.042509948834777"><ele></ele><time>2015-2-3T1:51:18Z</time></trkpt>
<trkpt lat="44.058512952178717" lon="5.043321987614036"><ele></ele><time>2015-2-3T1:51:21Z</time></trkpt>
<trkpt lat="44.058238947764039" lon="5.04408692009747"><ele></ele><time>2015-2-3T1:51:24Z</time></trkpt>
<trkpt lat="44.057956980541348" lon="5.044892923906446"><ele></ele><time>2015-2-3T1:51:27Z</time></trkpt>
<trkpt lat="44.057584991678596" lon="5.045486949384213"><ele></ele><time>2015-2-3T1:51:30Z</time></trkpt>
<trkpt lat="44.057156927883625" lon="5.045335991308093"><ele></ele><time>2015-2-3T1:51:33Z</time></trkpt>
<trkpt lat="44.056978980079293" lon="5.044961990788579"><ele></ele><time>2015-2-3T1:51:36Z</time></trkpt>
<trkpt lat="44.057027930393815" lon="5.045659951865673"><ele></ele><time>2015-2-3T1:51:39Z</time></trkpt>
<trkpt lat="44.056923994794488" lon="5.045102974399924"><ele></ele><time>2015-2-3T1:51:42Z</time></trkpt>
<trkpt lat="44.056670945137739" lon="5.044326977804303"><ele></ele><time>2015-2-3T1:51:45Z</time></trkpt>
<trkpt lat="44.056524932384491" lon="5.043689953163266"><ele></ele><time>2015-2-3T1:51:48Z</time></trkpt>
<trkpt lat="44.056293927133083" lon="5.043092994019389"><ele></ele><time>2015-2-3T1:51:51Z</time></trkpt>
<trkpt lat="44.056252939626575" lon="5.043446961790323"><ele></ele><time>2015-2-3T1:51:54Z</time></trkpt>
<trkpt lat="44.056354947388172" lon="5.044093960896134"><ele></ele><time>2015-2-3T1:51:57Z</time></trkpt>
<trkpt lat="44.056389983743429" lon="5.044841961935163"><ele></ele><time>2015-2-3T1:52:0Z</time></trkpt>
<trkpt lat="44.056526944041252" lon="5.045961951836944"><ele></ele><time>2015-2-3T1:52:3Z</time></trkpt>
<trkpt lat="44.056576984003186" lon="5.046617919579148"><ele></ele><time>2015-2-3T1:52:6Z</time></trkpt>
<trkpt lat="44.056647978723049" lon="5.047155953943729"><ele></ele><time>2015-2-3T1:52:9Z</time></trkpt>
<trkpt lat="44.056900944560766" lon="5.047826925292611"><ele></ele><time>2015-2-3T1:52:12Z</time></trkpt>
<trkpt lat="44.057278968393803" lon="5.048388931900263"><ele></ele><time>2015-2-3T1:52:15Z</time></trkpt>
<trkpt lat="44.057651963084936" lon="5.048948926851153"><ele></ele><time>2015-2-3T1:52:18Z</time></trkpt>
<trkpt lat="44.058050941675901" lon="5.049700951203704"><ele></ele><time>2015-2-3T1:52:21Z</time></trkpt>
<trkpt lat="44.057879950851202" lon="5.05033596418798"><ele></ele><time>2015-2-3T1:52:24Z</time></trkpt>
<trkpt lat="44.057354992255569" lon="5.050710970535874"><ele></ele><time>2015-2-3T1:52:27Z</time></trkpt>
<trkpt lat="44.056898932904005" lon="5.051002996042371"><ele></ele><time>2015-2-3T1:52:30Z</time></trkpt>
<trkpt lat="44.056421918794513" lon="5.05117692053318"><ele></ele><time>2015-2-3T1:52:33Z</time></trkpt>
<trkpt lat="44.056028975173831" lon="5.051297955214977"><ele></ele><time>2015-2-3T1:52:36Z</time></trkpt>
<trkpt lat="44.055539974942803" lon="5.051464922726154"><ele></ele><time>2015-2-3T1:52:39Z</time></trkpt>
<trkpt lat="44.055144935846329" lon="5.051700957119465"><ele></ele><time>2015-2-3T1:52:42Z</time></trkpt>
<trkpt lat="44.055225988849998" lon="5.052367988973856"><ele></ele><time>2015-2-3T1:52:45Z</time></trkpt>
<trkpt lat="44.055356997996569" lon="5.053036948665977"><ele></ele><time>2015-2-3T1:52:48Z</time></trkpt>
<trkpt lat="44.055508961901069" lon="5.053788973018527"><ele></ele><time>2015-2-3T1:52:51Z</time></trkpt>
<trkpt lat="44.05488895252347" lon="5.054219970479608"><ele></ele><time>2015-2-3T1:52:54Z</time></trkpt>
<trkpt lat="44.054278917610645" lon="5.055050952360034"><ele></ele><time>2015-2-3T1:52:57Z</time></trkpt>
<trkpt lat="44.053880944848061" lon="5.05602995865047"><ele></ele><time>2015-2-3T1:53:0Z</time></trkpt>
<trkpt lat="44.053505938500166" lon="5.057056993246079"><ele></ele><time>2015-2-3T1:53:3Z</time></trkpt>
<trkpt lat="44.053232939913869" lon="5.05764196626842"><ele></ele><time>2015-2-3T1:53:6Z</time></trkpt>
<trkpt lat="44.053009981289506" lon="5.058655925095081"><ele></ele><time>2015-2-3T1:53:9Z</time></trkpt>
<trkpt lat="44.052709992974997" lon="5.059463940560818"><ele></ele><time>2015-2-3T1:53:12Z</time></trkpt>
<trkpt lat="44.052434982731938" lon="5.060289977118373"><ele></ele><time>2015-2-3T1:53:15Z</time></trkpt>
<trkpt lat="44.051983952522278" lon="5.061257919296622"><ele></ele><time>2015-2-3T1:53:18Z</time></trkpt>
<trkpt lat="44.051575921475887" lon="5.062164925038815"><ele></ele><time>2015-2-3T1:53:21Z</time></trkpt>
<trkpt lat="44.05112992040813" lon="5.063204951584339"><ele></ele><time>2015-2-3T1:53:24Z</time></trkpt>
<trkpt lat="44.05057093128562" lon="5.064012967050076"><ele></ele><time>2015-2-3T1:53:27Z</time></trkpt>
<trkpt lat="44.050088971853256" lon="5.064543960615993"><ele></ele><time>2015-2-3T1:53:30Z</time></trkpt>
<trkpt lat="44.049584968015552" lon="5.064915949478746"><ele></ele><time>2015-2-3T1:53:33Z</time></trkpt>
<trkpt lat="44.049094961956143" lon="5.065265977755189"><ele></ele><time>2015-2-3T1:53:36Z</time></trkpt>
<trkpt lat="44.048562962561846" lon="5.065830918028951"><ele></ele><time>2015-2-3T1:53:39Z</time></trkpt>
<trkpt lat="44.04820597730577" lon="5.066329976543784"><ele></ele><time>2015-2-3T1:53:42Z</time></trkpt>
<trkpt lat="44.047817979007959" lon="5.066945962607861"><ele></ele><time>2015-2-3T1:53:45Z</time></trkpt>
<trkpt lat="44.047518996521831" lon="5.067424988374114"><ele></ele><time>2015-2-3T1:53:48Z</time></trkpt>
<trkpt lat="44.047114988788962" lon="5.067985989153385"><ele></ele><time>2015-2-3T1:53:51Z</time></trkpt>
<trkpt lat="44.046752974390984" lon="5.06847096607089"><ele></ele><time>2015-2-3T1:53:54Z</time></trkpt>
<trkpt lat="44.046394983306527" lon="5.068936999887228"><ele></ele><time>2015-2-3T1:53:57Z</time></trkpt>
<trkpt lat="44.046055935323238" lon="5.069408984854817"><ele></ele><time>2015-2-3T1:54:0Z</time></trkpt>
<trkpt lat="44.045528965070844" lon="5.07019093260169"><ele></ele><time>2015-2-3T1:54:3Z</time></trkpt>
<trkpt lat="44.045211961492896" lon="5.070680938661099"><ele></ele><time>2015-2-3T1:54:6Z</time></trkpt>
<trkpt lat="44.044825974851847" lon="5.071265995502472"><ele></ele><time>2015-2-3T1:54:9Z</time></trkpt>
<trkpt lat="44.044496985152364" lon="5.071763964369893"><ele></ele><time>2015-2-3T1:54:12Z</time></trkpt>
<trkpt lat="44.04399499297142" lon="5.072600981220603"><ele></ele><time>2015-2-3T1:54:15Z</time></trkpt>
<trkpt lat="44.04358796775341" lon="5.073430957272649"><ele></ele><time>2015-2-3T1:54:18Z</time></trkpt>
<trkpt lat="44.043054962530732" lon="5.074454974383116"><ele></ele><time>2015-2-3T1:54:21Z</time></trkpt>
<trkpt lat="44.042735947296023" lon="5.075042964890599"><ele></ele><time>2015-2-3T1:54:24Z</time></trkpt>
<trkpt lat="44.042239990085363" lon="5.075951982289553"><ele></ele><time>2015-2-3T1:54:27Z</time></trkpt>
<trkpt lat="44.04193396680057" lon="5.076447939500213"><ele></ele><time>2015-2-3T1:54:30Z</time></trkpt>
<trkpt lat="44.041457958519459" lon="5.077211949974299"><ele></ele><time>2015-2-3T1:54:33Z</time></trkpt>
<trkpt lat="44.041046993806958" lon="5.077950982376933"><ele></ele><time>2015-2-3T1:54:36Z</time></trkpt>
<trkpt lat="44.040808947756886" lon="5.078616924583912"><ele></ele><time>2015-2-3T1:54:39Z</time></trkpt>
<trkpt lat="44.040296981111169" lon="5.079749990254641"><ele></ele><time>2015-2-3T1:54:42Z</time></trkpt>
<trkpt lat="44.040026916190982" lon="5.080371927469969"><ele></ele><time>2015-2-3T1:54:45Z</time></trkpt>
<trkpt lat="44.039706978946924" lon="5.081157982349396"><ele></ele><time>2015-2-3T1:54:48Z</time></trkpt>
<trkpt lat="44.039205992594361" lon="5.08183691650629"><ele></ele><time>2015-2-3T1:54:51Z</time></trkpt>
<trkpt lat="44.038403928279877" lon="5.082430941984057"><ele></ele><time>2015-2-3T1:54:54Z</time></trkpt>
<trkpt lat="44.037845944985747" lon="5.082853976637125"><ele></ele><time>2015-2-3T1:54:57Z</time></trkpt>
<trkpt lat="44.037139937281609" lon="5.083492929115892"><ele></ele><time>2015-2-3T1:55:0Z</time></trkpt>
<trkpt lat="44.03673299588263" lon="5.083876987919211"><ele></ele><time>2015-2-3T1:55:3Z</time></trkpt>
<trkpt lat="44.035879969596863" lon="5.084717944264412"><ele></ele><time>2015-2-3T1:55:6Z</time></trkpt>
<trkpt lat="44.035459952428937" lon="5.085152965039015"><ele></ele><time>2015-2-3T1:55:9Z</time></trkpt>
<trkpt lat="44.034665934741497" lon="5.085929967463017"><ele></ele><time>2015-2-3T1:55:12Z</time></trkpt>
<trkpt lat="44.034219933673739" lon="5.086365994066"><ele></ele><time>2015-2-3T1:55:15Z</time></trkpt>
<trkpt lat="44.033531947061419" lon="5.087089939042926"><ele></ele><time>2015-2-3T1:55:18Z</time></trkpt>
<trkpt lat="44.03291093185544" lon="5.087708942592144"><ele></ele><time>2015-2-3T1:55:21Z</time></trkpt>
<trkpt lat="44.032261921092868" lon="5.088268937543035"><ele></ele><time>2015-2-3T1:55:24Z</time></trkpt>
<trkpt lat="44.031856991350651" lon="5.088826920837164"><ele></ele><time>2015-2-3T1:55:27Z</time></trkpt>
<trkpt lat="44.031329937279224" lon="5.089583974331617"><ele></ele><time>2015-2-3T1:55:30Z</time></trkpt>
<trkpt lat="44.030652930960059" lon="5.0902359187603"><ele></ele><time>2015-2-3T1:55:33Z</time></trkpt>
<trkpt lat="44.03018195182085" lon="5.090637998655438"><ele></ele><time>2015-2-3T1:55:36Z</time></trkpt>
<trkpt lat="44.029795965179801" lon="5.091061955317855"><ele></ele><time>2015-2-3T1:55:39Z</time></trkpt>
<trkpt lat="44.029241921380162" lon="5.092047918587923"><ele></ele><time>2015-2-3T1:55:42Z</time></trkpt>
<trkpt lat="44.028950985521078" lon="5.092545971274376"><ele></ele><time>2015-2-3T1:55:45Z</time></trkpt>
<trkpt lat="44.028599951416254" lon="5.093033965677023"><ele></ele><time>2015-2-3T1:55:48Z</time></trkpt>
<trkpt lat="44.028125954791903" lon="5.093452977016568"><ele></ele><time>2015-2-3T1:55:51Z</time></trkpt>
<trkpt lat="44.027699986472726" lon="5.09395195171237"><ele></ele><time>2015-2-3T1:55:54Z</time></trkpt>
<trkpt lat="44.027350964024663" lon="5.094485962763429"><ele></ele><time>2015-2-3T1:55:57Z</time></trkpt>
<trkpt lat="44.026963971555233" lon="5.095559936016798"><ele></ele><time>2015-2-3T1:56:0Z</time></trkpt>
<trkpt lat="44.026616960763931" lon="5.096441963687539"><ele></ele><time>2015-2-3T1:56:3Z</time></trkpt>
<trkpt lat="44.026317978277802" lon="5.097206979990006"><ele></ele><time>2015-2-3T1:56:6Z</time></trkpt>
<trkpt lat="44.026107927784324" lon="5.097860936075449"><ele></ele><time>2015-2-3T1:56:9Z</time></trkpt>
<trkpt lat="44.025932997465134" lon="5.099338917061687"><ele></ele><time>2015-2-3T1:56:12Z</time></trkpt>
<trkpt lat="44.025835935026407" lon="5.100265955552459"><ele></ele><time>2015-2-3T1:56:15Z</time></trkpt>
<trkpt lat="44.025759994983673" lon="5.100999958813191"><ele></ele><time>2015-2-3T1:56:18Z</time></trkpt>
<trkpt lat="44.02569092810154" lon="5.101672941818833"><ele></ele><time>2015-2-3T1:56:21Z</time></trkpt>
<trkpt lat="44.025614988058805" lon="5.10237299837172"><ele></ele><time>2015-2-3T1:56:24Z</time></trkpt>
<trkpt lat="44.025529995560646" lon="5.103137930855155"><ele></ele><time>2015-2-3T1:56:27Z</time></trkpt>
<trkpt lat="44.025446930900216" lon="5.103885931894183"><ele></ele><time>2015-2-3T1:56:30Z</time></trkpt>
<trkpt lat="44.025356993079185" lon="5.104536954313517"><ele></ele><time>2015-2-3T1:56:33Z</time></trkpt>
<trkpt lat="44.025202933698893" lon="5.105344969779253"><ele></ele><time>2015-2-3T1:56:36Z</time></trkpt>
<trkpt lat="44.02506597340107" lon="5.105955926701427"><ele></ele><time>2015-2-3T1:56:39Z</time></trkpt>
<trkpt lat="44.024717956781387" lon="5.106417937204242"><ele></ele><time>2015-2-3T1:56:42Z</time></trkpt>
<trkpt lat="44.024838991463184" lon="5.107152946293354"><ele></ele><time>2015-2-3T1:56:45Z</time></trkpt>
<trkpt lat="44.024669928476214" lon="5.107845962047577"><ele></ele><time>2015-2-3T1:56:48Z</time></trkpt>
<trkpt lat="44.024495920166373" lon="5.108504947274923"><ele></ele><time>2015-2-3T1:56:51Z</time></trkpt>
<trkpt lat="44.024264998733997" lon="5.109309945255518"><ele></ele><time>2015-2-3T1:56:54Z</time></trkpt>
<trkpt lat="44.02407992631197" lon="5.110002961009741"><ele></ele><time>2015-2-3T1:56:57Z</time></trkpt>
<trkpt lat="44.02390499599278" lon="5.110634956508875"><ele></ele><time>2015-2-3T1:57:0Z</time></trkpt>
<trkpt lat="44.023604923859239" lon="5.111653944477439"><ele></ele><time>2015-2-3T1:57:3Z</time></trkpt>
<trkpt lat="44.023373918607831" lon="5.112278982996941"><ele></ele><time>2015-2-3T1:57:6Z</time></trkpt>
<trkpt lat="44.022931940853596" lon="5.113361924886704"><ele></ele><time>2015-2-3T1:57:9Z</time></trkpt>
<trkpt lat="44.022517958655953" lon="5.114346966147423"><ele></ele><time>2015-2-3T1:57:12Z</time></trkpt>
<trkpt lat="44.022146975621581" lon="5.115247936919332"><ele></ele><time>2015-2-3T1:57:15Z</time></trkpt>
<trkpt lat="44.021882945671678" lon="5.115882949903607"><ele></ele><time>2015-2-3T1:57:18Z</time></trkpt>
<trkpt lat="44.021615982055664" lon="5.116496924310923"><ele></ele><time>2015-2-3T1:57:21Z</time></trkpt>
<trkpt lat="44.021153971552849" lon="5.117587996646762"><ele></ele><time>2015-2-3T1:57:24Z</time></trkpt>
<trkpt lat="44.020622977986932" lon="5.118829943239689"><ele></ele><time>2015-2-3T1:57:27Z</time></trkpt>
<trkpt lat="44.020386943593621" lon="5.119469985365868"><ele></ele><time>2015-2-3T1:57:30Z</time></trkpt>
<trkpt lat="44.020171947777271" lon="5.120070967823267"><ele></ele><time>2015-2-3T1:57:33Z</time></trkpt>
<trkpt lat="44.019729970023036" lon="5.121286930516362"><ele></ele><time>2015-2-3T1:57:36Z</time></trkpt>
<trkpt lat="44.019280951470137" lon="5.122425947338343"><ele></ele><time>2015-2-3T1:57:39Z</time></trkpt>
<trkpt lat="44.019055981189013" lon="5.123005975037813"><ele></ele><time>2015-2-3T1:57:42Z</time></trkpt>
<trkpt lat="44.018818940967321" lon="5.123589942231774"><ele></ele><time>2015-2-3T1:57:45Z</time></trkpt>
<trkpt lat="44.018539991229773" lon="5.124299973249435"><ele></ele><time>2015-2-3T1:57:48Z</time></trkpt>
<trkpt lat="44.018323989585042" lon="5.124850999563932"><ele></ele><time>2015-2-3T1:57:51Z</time></trkpt>
<trkpt lat="44.017934985458851" lon="5.125929918140173"><ele></ele><time>2015-2-3T1:57:54Z</time></trkpt>
<trkpt lat="44.017726946622133" lon="5.126531990244985"><ele></ele><time>2015-2-3T1:57:57Z</time></trkpt>
<trkpt lat="44.017412960529327" lon="5.127386944368482"><ele></ele><time>2015-2-3T1:58:0Z</time></trkpt>
<trkpt lat="44.01711892336607" lon="5.1280059479177"><ele></ele><time>2015-2-3T1:58:3Z</time></trkpt>
<trkpt lat="44.016825975850224" lon="5.12860793620348"><ele></ele><time>2015-2-3T1:58:6Z</time></trkpt>
<trkpt lat="44.016534956172109" lon="5.129193998873234"><ele></ele><time>2015-2-3T1:58:9Z</time></trkpt>
<trkpt lat="44.016255922615528" lon="5.12980897910893"><ele></ele><time>2015-2-3T1:58:12Z</time></trkpt>
<trkpt lat="44.016017960384488" lon="5.13039194047451"><ele></ele><time>2015-2-3T1:58:15Z</time></trkpt>
<trkpt lat="44.015770945698023" lon="5.131054949015379"><ele></ele><time>2015-2-3T1:58:18Z</time></trkpt>
<trkpt lat="44.015391999855638" lon="5.132085923105478"><ele></ele><time>2015-2-3T1:58:21Z</time></trkpt>
<trkpt lat="44.015164934098721" lon="5.132953952997923"><ele></ele><time>2015-2-3T1:58:24Z</time></trkpt>
<trkpt lat="44.015000984072685" lon="5.133572956547141"><ele></ele><time>2015-2-3T1:58:27Z</time></trkpt>
<trkpt lat="44.014703929424286" lon="5.134093975648284"><ele></ele><time>2015-2-3T1:58:30Z</time></trkpt>
<trkpt lat="44.014199925586581" lon="5.134877935051918"><ele></ele><time>2015-2-3T1:58:33Z</time></trkpt>
<trkpt lat="44.013619981706142" lon="5.135775972157717"><ele></ele><time>2015-2-3T1:58:36Z</time></trkpt>
<trkpt lat="44.013332985341549" lon="5.136264972388744"><ele></ele><time>2015-2-3T1:58:39Z</time></trkpt>
<trkpt lat="44.012909950688481" lon="5.137128978967667"><ele></ele><time>2015-2-3T1:58:42Z</time></trkpt>
<trkpt lat="44.012346938252449" lon="5.1382549200207"><ele></ele><time>2015-2-3T1:58:45Z</time></trkpt>
<trkpt lat="44.011909989640117" lon="5.139084979891777"><ele></ele><time>2015-2-3T1:58:48Z</time></trkpt>
<trkpt lat="44.011356951668859" lon="5.140114948153496"><ele></ele><time>2015-2-3T1:58:51Z</time></trkpt>
<trkpt lat="44.010982951149344" lon="5.140671925619245"><ele></ele><time>2015-2-3T1:58:54Z</time></trkpt>
<trkpt lat="44.01043594814837" lon="5.141524951905012"><ele></ele><time>2015-2-3T1:58:57Z</time></trkpt>
<trkpt lat="44.009925993159413" lon="5.142688946798444"><ele></ele><time>2015-2-3T1:59:0Z</time></trkpt>
<trkpt lat="44.009675960987806" lon="5.143229998648167"><ele></ele><time>2015-2-3T1:59:3Z</time></trkpt>
<trkpt lat="44.009006917476654" lon="5.14373098500073"><ele></ele><time>2015-2-3T1:59:6Z</time></trkpt>
<trkpt lat="44.008052973076701" lon="5.143761998042464"><ele></ele><time>2015-2-3T1:59:9Z</time></trkpt>
<trkpt lat="44.007417960092425" lon="5.143785970285535"><ele></ele><time>2015-2-3T1:59:12Z</time></trkpt>
<trkpt lat="44.006925942376256" lon="5.143768955022097"><ele></ele><time>2015-2-3T1:59:15Z</time></trkpt>
<trkpt lat="44.006145922467113" lon="5.143507942557335"><ele></ele><time>2015-2-3T1:59:18Z</time></trkpt>
<trkpt lat="44.005668992176652" lon="5.143508948385716"><ele></ele><time>2015-2-3T1:59:21Z</time></trkpt>
<trkpt lat="44.005141938105226" lon="5.143638951703906"><ele></ele><time>2015-2-3T1:59:24Z</time></trkpt>
<trkpt lat="44.004541961476207" lon="5.143792927265167"><ele></ele><time>2015-2-3T1:59:27Z</time></trkpt>
<trkpt lat="44.003763953223825" lon="5.143991997465491"><ele></ele><time>2015-2-3T1:59:30Z</time></trkpt>
<trkpt lat="44.003168921917677" lon="5.144125940278173"><ele></ele><time>2015-2-3T1:59:33Z</time></trkpt>
<trkpt lat="44.002516977488995" lon="5.144288968294859"><ele></ele><time>2015-2-3T1:59:36Z</time></trkpt>
<trkpt lat="44.001886993646622" lon="5.144444955512881"><ele></ele><time>2015-2-3T1:59:39Z</time></trkpt>
<trkpt lat="44.001273941248655" lon="5.144436992704868"><ele></ele><time>2015-2-3T1:59:42Z</time></trkpt>
<trkpt lat="44.00070296600461" lon="5.144425928592682"><ele></ele><time>2015-2-3T1:59:45Z</time></trkpt>
<trkpt lat="44.000558964908123" lon="5.144539922475815"><ele></ele><time>2015-2-3T1:59:48Z</time></trkpt>
<trkpt lat="44.000231986865401" lon="5.144415954127908"><ele></ele><time>2015-2-3T1:59:51Z</time></trkpt>
<trkpt lat="43.999763941392303" lon="5.144813926890492"><ele></ele><time>2015-2-3T1:59:54Z</time></trkpt>
<trkpt lat="43.99939195252955" lon="5.145405940711498"><ele></ele><time>2015-2-3T1:59:57Z</time></trkpt>
<trkpt lat="43.998970929533243" lon="5.146065931767225"><ele></ele><time>2015-2-3T2:0:0Z</time></trkpt>
<trkpt lat="43.998615955933928" lon="5.146642941981554"><ele></ele><time>2015-2-3T2:0:3Z</time></trkpt>
<trkpt lat="43.998222928494215" lon="5.14729798771441"><ele></ele><time>2015-2-3T2:0:6Z</time></trkpt>
<trkpt lat="43.997876923531294" lon="5.14787994325161"><ele></ele><time>2015-2-3T2:0:9Z</time></trkpt>
<trkpt lat="43.997524967417121" lon="5.148475980386138"><ele></ele><time>2015-2-3T2:0:12Z</time></trkpt>
<trkpt lat="43.997306954115629" lon="5.149234961718321"><ele></ele><time>2015-2-3T2:0:15Z</time></trkpt>
<trkpt lat="43.997102938592434" lon="5.149928983300924"><ele></ele><time>2015-2-3T2:0:18Z</time></trkpt>
<trkpt lat="43.996844943612814" lon="5.150791984051466"><ele></ele><time>2015-2-3T2:0:21Z</time></trkpt>
<trkpt lat="43.99666397832334" lon="5.151525987312198"><ele></ele><time>2015-2-3T2:0:24Z</time></trkpt>
<trkpt lat="43.996410928666592" lon="5.152183966711164"><ele></ele><time>2015-2-3T2:0:27Z</time></trkpt>
<trkpt lat="43.996005998924375" lon="5.152813950553536"><ele></ele><time>2015-2-3T2:0:30Z</time></trkpt>
<trkpt lat="43.995736939832568" lon="5.153429936617613"><ele></ele><time>2015-2-3T2:0:33Z</time></trkpt>
<trkpt lat="43.995422953739762" lon="5.153995966538787"><ele></ele><time>2015-2-3T2:0:36Z</time></trkpt>
<trkpt lat="43.995130928233266" lon="5.154551938176155"><ele></ele><time>2015-2-3T2:0:39Z</time></trkpt>
<trkpt lat="43.994904952123761" lon="5.155315948650241"><ele></ele><time>2015-2-3T2:0:42Z</time></trkpt>
<trkpt lat="43.995025986805558" lon="5.155974933877587"><ele></ele><time>2015-2-3T2:0:45Z</time></trkpt>
<trkpt lat="43.995132939890027" lon="5.156862996518612"><ele></ele><time>2015-2-3T2:0:48Z</time></trkpt>
<trkpt lat="43.995078960433602" lon="5.157614937052131"><ele></ele><time>2015-2-3T2:0:51Z</time></trkpt>
<trkpt lat="43.994995979592204" lon="5.158307952806354"><ele></ele><time>2015-2-3T2:0:54Z</time></trkpt>
<trkpt lat="43.994721975177526" lon="5.158806927502155"><ele></ele><time>2015-2-3T2:0:57Z</time></trkpt>
<trkpt lat="43.994096936658025" lon="5.159050924703479"><ele></ele><time>2015-2-3T2:1:0Z</time></trkpt>
<trkpt lat="43.993486985564232" lon="5.15922493301332"><ele></ele><time>2015-2-3T2:1:3Z</time></trkpt>
<trkpt lat="43.992920955643058" lon="5.159397935494781"><ele></ele><time>2015-2-3T2:1:6Z</time></trkpt>
<trkpt lat="43.992400942370296" lon="5.159544954076409"><ele></ele><time>2015-2-3T2:1:9Z</time></trkpt>
<trkpt lat="43.992209918797016" lon="5.160027919337153"><ele></ele><time>2015-2-3T2:1:12Z</time></trkpt>
<trkpt lat="43.992197932675481" lon="5.160665949806571"><ele></ele><time>2015-2-3T2:1:15Z</time></trkpt>
<trkpt lat="43.991746986284852" lon="5.161106921732426"><ele></ele><time>2015-2-3T2:1:18Z</time></trkpt>
<trkpt lat="43.991330992430449" lon="5.161550994962454"><ele></ele><time>2015-2-3T2:1:21Z</time></trkpt>
<trkpt lat="43.991232924163342" lon="5.162193970754743"><ele></ele><time>2015-2-3T2:1:24Z</time></trkpt>
<trkpt lat="43.991254968568683" lon="5.162967955693603"><ele></ele><time>2015-2-3T2:1:27Z</time></trkpt>
<trkpt lat="43.990923967212439" lon="5.163489980623126"><ele></ele><time>2015-2-3T2:1:30Z</time></trkpt>
<trkpt lat="43.990435972809792" lon="5.16394997946918"><ele></ele><time>2015-2-3T2:1:33Z</time></trkpt>
<trkpt lat="43.990342933684587" lon="5.164624974131584"><ele></ele><time>2015-2-3T2:1:36Z</time></trkpt>
<trkpt lat="43.990873927250504" lon="5.165005931630731"><ele></ele><time>2015-2-3T2:1:39Z</time></trkpt>
<trkpt lat="43.991430988535285" lon="5.164998974651098"><ele></ele><time>2015-2-3T2:1:42Z</time></trkpt>
<trkpt lat="43.991959970444441" lon="5.164928985759616"><ele></ele><time>2015-2-3T2:1:45Z</time></trkpt>
<trkpt lat="43.991731982678175" lon="5.165592916309834"><ele></ele><time>2015-2-3T2:1:48Z</time></trkpt>
<trkpt lat="43.991162935271859" lon="5.166098931804299"><ele></ele><time>2015-2-3T2:1:51Z</time></trkpt>
<trkpt lat="43.990802932530642" lon="5.166553985327482"><ele></ele><time>2015-2-3T2:1:54Z</time></trkpt>
<trkpt lat="43.990436978638172" lon="5.16700292006135"><ele></ele><time>2015-2-3T2:1:57Z</time></trkpt>
<trkpt lat="43.99011192843318" lon="5.167547995224595"><ele></ele><time>2015-2-3T2:2:0Z</time></trkpt>
<trkpt lat="43.989691995084286" lon="5.168318962678313"><ele></ele><time>2015-2-3T2:2:3Z</time></trkpt>
<trkpt lat="43.989309947937727" lon="5.169013990089297"><ele></ele><time>2015-2-3T2:2:6Z</time></trkpt>
<trkpt lat="43.988858917728066" lon="5.169835919514298"><ele></ele><time>2015-2-3T2:2:9Z</time></trkpt>
<trkpt lat="43.98854392580688" lon="5.170380994677544"><ele></ele><time>2015-2-3T2:2:12Z</time></trkpt>
<trkpt lat="43.988120974972844" lon="5.170993963256478"><ele></ele><time>2015-2-3T2:2:15Z</time></trkpt>
<trkpt lat="43.987601967528462" lon="5.171617995947599"><ele></ele><time>2015-2-3T2:2:18Z</time></trkpt>
<trkpt lat="43.987113973125815" lon="5.17224395647645"><ele></ele><time>2015-2-3T2:2:21Z</time></trkpt>
<trkpt lat="43.98658893071115" lon="5.172900930047035"><ele></ele><time>2015-2-3T2:2:24Z</time></trkpt>
<trkpt lat="43.986230939626694" lon="5.173351960256696"><ele></ele><time>2015-2-3T2:2:27Z</time></trkpt>
<trkpt lat="43.98585794493556" lon="5.173856969922781"><ele></ele><time>2015-2-3T2:2:30Z</time></trkpt>
<trkpt lat="43.985459972172976" lon="5.174357956275344"><ele></ele><time>2015-2-3T2:2:33Z</time></trkpt>
<trkpt lat="43.985037943348289" lon="5.174865983426571"><ele></ele><time>2015-2-3T2:2:36Z</time></trkpt>
<trkpt lat="43.984710965305567" lon="5.175364958122373"><ele></ele><time>2015-2-3T2:2:39Z</time></trkpt>
<trkpt lat="43.984969966113567" lon="5.176038946956396"><ele></ele><time>2015-2-3T2:2:42Z</time></trkpt>
<trkpt lat="43.985529961064458" lon="5.176739925518632"><ele></ele><time>2015-2-3T2:2:45Z</time></trkpt>
<trkpt lat="43.9859439432621" lon="5.177210988476872"><ele></ele><time>2015-2-3T2:2:48Z</time></trkpt>
<trkpt lat="43.986270921304822" lon="5.177892940118909"><ele></ele><time>2015-2-3T2:2:51Z</time></trkpt>
<trkpt lat="43.986290954053402" lon="5.178756946697831"><ele></ele><time>2015-2-3T2:2:54Z</time></trkpt>
<trkpt lat="43.986074952408671" lon="5.179780963808298"><ele></ele><time>2015-2-3T2:2:57Z</time></trkpt>
<trkpt lat="43.985467934980989" lon="5.180004928261042"><ele></ele><time>2015-2-3T2:3:0Z</time></trkpt>
<trkpt lat="43.984904922544956" lon="5.180012974888086"><ele></ele><time>2015-2-3T2:3:3Z</time></trkpt>
<trkpt lat="43.984391950070858" lon="5.180376917123795"><ele></ele><time>2015-2-3T2:3:6Z</time></trkpt>
<trkpt lat="43.983967993408442" lon="5.180759970098734"><ele></ele><time>2015-2-3T2:3:9Z</time></trkpt>
<trkpt lat="43.983817957341671" lon="5.181458937004209"><ele></ele><time>2015-2-3T2:3:12Z</time></trkpt>
<trkpt lat="43.984235962852836" lon="5.182026978582144"><ele></ele><time>2015-2-3T2:3:15Z</time></trkpt>
<trkpt lat="43.984029935672879" lon="5.18247096799314"><ele></ele><time>2015-2-3T2:3:18Z</time></trkpt>
<trkpt lat="43.983635986223817" lon="5.182845974341035"><ele></ele><time>2015-2-3T2:3:21Z</time></trkpt>
<trkpt lat="43.98355795070529" lon="5.183533960953355"><ele></ele><time>2015-2-3T2:3:24Z</time></trkpt>
<trkpt lat="43.983950978145003" lon="5.184314986690879"><ele></ele><time>2015-2-3T2:3:27Z</time></trkpt>
<trkpt lat="43.984167985618114" lon="5.184896942228079"><ele></ele><time>2015-2-3T2:3:30Z</time></trkpt>
<trkpt lat="43.983869925141335" lon="5.185464983806014"><ele></ele><time>2015-2-3T2:3:33Z</time></trkpt>
<trkpt lat="43.984118951484561" lon="5.186198987066746"><ele></ele><time>2015-2-3T2:3:36Z</time></trkpt>
<trkpt lat="43.984643993899226" lon="5.186269981786609"><ele></ele><time>2015-2-3T2:3:39Z</time></trkpt>
<trkpt lat="43.985143974423409" lon="5.186257995665073"><ele></ele><time>2015-2-3T2:3:42Z</time></trkpt>
<trkpt lat="43.985368944704533" lon="5.186826959252358"><ele></ele><time>2015-2-3T2:3:45Z</time></trkpt>
<trkpt lat="43.985119918361306" lon="5.187486950308085"><ele></ele><time>2015-2-3T2:3:48Z</time></trkpt>
<trkpt lat="43.984656985849142" lon="5.187814934179187"><ele></ele><time>2015-2-3T2:3:51Z</time></trkpt>
<trkpt lat="43.984239986166358" lon="5.18788693472743"><ele></ele><time>2015-2-3T2:3:54Z</time></trkpt>
<trkpt lat="43.984349956735969" lon="5.188536951318383"><ele></ele><time>2015-2-3T2:3:57Z</time></trkpt>
<trkpt lat="43.984255995601416" lon="5.189143968746066"><ele></ele><time>2015-2-3T2:4:0Z</time></trkpt>
<trkpt lat="43.984217941761017" lon="5.189243964850903"><ele></ele><time>2015-2-3T2:4:3Z</time></trkpt>
<trkpt lat="43.984548943117261" lon="5.189791973680258"><ele></ele><time>2015-2-3T2:4:6Z</time></trkpt>
<trkpt lat="43.985013971105218" lon="5.19016295671463"><ele></ele><time>2015-2-3T2:4:9Z</time></trkpt>
<trkpt lat="43.985480926930904" lon="5.190503932535648"><ele></ele><time>2015-2-3T2:4:12Z</time></trkpt>
<trkpt lat="43.98574797436595" lon="5.190198998898268"><ele></ele><time>2015-2-3T2:4:15Z</time></trkpt>
<trkpt lat="43.98609297350049" lon="5.189957935363054"><ele></ele><time>2015-2-3T2:4:18Z</time></trkpt>
<trkpt lat="43.986629918217659" lon="5.190064972266555"><ele></ele><time>2015-2-3T2:4:21Z</time></trkpt>
<trkpt lat="43.987119924277067" lon="5.190223976969719"><ele></ele><time>2015-2-3T2:4:24Z</time></trkpt>
<trkpt lat="43.987550921738148" lon="5.190780954435468"><ele></ele><time>2015-2-3T2:4:27Z</time></trkpt>
<trkpt lat="43.988065989688039" lon="5.191134922206402"><ele></ele><time>2015-2-3T2:4:30Z</time></trkpt>
<trkpt lat="43.988281991332769" lon="5.191861968487501"><ele></ele><time>2015-2-3T2:4:33Z</time></trkpt>
<trkpt lat="43.988180989399552" lon="5.192655986174941"><ele></ele><time>2015-2-3T2:4:36Z</time></trkpt>
<trkpt lat="43.987878989428282" lon="5.193160995841026"><ele></ele><time>2015-2-3T2:4:39Z</time></trkpt>
<trkpt lat="43.987573971971869" lon="5.193723924458027"><ele></ele><time>2015-2-3T2:4:42Z</time></trkpt>
<trkpt lat="43.987239953130484" lon="5.194391962140799"><ele></ele><time>2015-2-3T2:4:45Z</time></trkpt>
<trkpt lat="43.986966954544187" lon="5.194968972355127"><ele></ele><time>2015-2-3T2:4:48Z</time></trkpt>
<trkpt lat="43.986740978434682" lon="5.195482950657606"><ele></ele><time>2015-2-3T2:4:51Z</time></trkpt>
<trkpt lat="43.986313920468092" lon="5.195562997832894"><ele></ele><time>2015-2-3T2:4:54Z</time></trkpt>
<trkpt lat="43.985956935212016" lon="5.196370929479599"><ele></ele><time>2015-2-3T2:4:57Z</time></trkpt>
<trkpt lat="43.98572794161737" lon="5.197199983522296"><ele></ele><time>2015-2-3T2:5:0Z</time></trkpt>
<trkpt lat="43.985611936077476" lon="5.197781939059496"><ele></ele><time>2015-2-3T2:5:3Z</time></trkpt>
<trkpt lat="43.98553691804409" lon="5.198622979223728"><ele></ele><time>2015-2-3T2:5:6Z</time></trkpt>
<trkpt lat="43.985437927767634" lon="5.199298979714513"><ele></ele><time>2015-2-3T2:5:9Z</time></trkpt>
<trkpt lat="43.984993938356638" lon="5.19923091866076"><ele></ele><time>2015-2-3T2:5:12Z</time></trkpt>
<trkpt lat="43.984398990869522" lon="5.198990944772959"><ele></ele><time>2015-2-3T2:5:15Z</time></trkpt>
<trkpt lat="43.983939997851849" lon="5.199281964451075"><ele></ele><time>2015-2-3T2:5:18Z</time></trkpt>
<trkpt lat="43.983782920986414" lon="5.199962994083762"><ele></ele><time>2015-2-3T2:5:21Z</time></trkpt>
<trkpt lat="43.98327698931098" lon="5.200754916295409"><ele></ele><time>2015-2-3T2:5:24Z</time></trkpt>
<trkpt lat="43.982682963833213" lon="5.200790958479047"><ele></ele><time>2015-2-3T2:5:27Z</time></trkpt>
<trkpt lat="43.982239980250597" lon="5.200954992324114"><ele></ele><time>2015-2-3T2:5:30Z</time></trkpt>
<trkpt lat="43.981996988877654" lon="5.201610960066319"><ele></ele><time>2015-2-3T2:5:33Z</time></trkpt>
<trkpt lat="43.981778975576162" lon="5.202166931703687"><ele></ele><time>2015-2-3T2:5:36Z</time></trkpt>
<trkpt lat="43.9819669816643" lon="5.202915938571096"><ele></ele><time>2015-2-3T2:5:39Z</time></trkpt>
<trkpt lat="43.981718961149454" lon="5.203563943505287"><ele></ele><time>2015-2-3T2:5:42Z</time></trkpt>
<trkpt lat="43.981399945914745" lon="5.204177917912602"><ele></ele><time>2015-2-3T2:5:45Z</time></trkpt>
<trkpt lat="43.980834921821952" lon="5.204552924260497"><ele></ele><time>2015-2-3T2:5:48Z</time></trkpt>
<trkpt lat="43.980230921879411" lon="5.204914938658476"><ele></ele><time>2015-2-3T2:5:51Z</time></trkpt>
<trkpt lat="43.979872930794954" lon="5.205309977754951"><ele></ele><time>2015-2-3T2:5:54Z</time></trkpt>
<trkpt lat="43.979360964149237" lon="5.20567299798131"><ele></ele><time>2015-2-3T2:5:57Z</time></trkpt>
<trkpt lat="43.97923699580133" lon="5.206392919644713"><ele></ele><time>2015-2-3T2:6:0Z</time></trkpt>
<trkpt lat="43.979676961898804" lon="5.206851996481419"><ele></ele><time>2015-2-3T2:6:3Z</time></trkpt>
<trkpt lat="43.979894975200295" lon="5.207637967541814"><ele></ele><time>2015-2-3T2:6:6Z</time></trkpt>
<trkpt lat="43.98022698238492" lon="5.208077933639288"><ele></ele><time>2015-2-3T2:6:9Z</time></trkpt>
<trkpt lat="43.97990595549345" lon="5.208580931648612"><ele></ele><time>2015-2-3T2:6:12Z</time></trkpt>
<trkpt lat="43.979608984664083" lon="5.209134975448251"><ele></ele><time>2015-2-3T2:6:15Z</time></trkpt>
<trkpt lat="43.97979992441833" lon="5.209770994260907"><ele></ele><time>2015-2-3T2:6:18Z</time></trkpt>
<trkpt lat="43.979701939970255" lon="5.210643969476223"><ele></ele><time>2015-2-3T2:6:21Z</time></trkpt>
<trkpt lat="43.979835966601968" lon="5.211241934448481"><ele></ele><time>2015-2-3T2:6:24Z</time></trkpt>
<trkpt lat="43.979673944413662" lon="5.212059924378991"><ele></ele><time>2015-2-3T2:6:27Z</time></trkpt>
<trkpt lat="43.979529943317175" lon="5.212846985086799"><ele></ele><time>2015-2-3T2:6:30Z</time></trkpt>
<trkpt lat="43.979794979095459" lon="5.213661957532167"><ele></ele><time>2015-2-3T2:6:33Z</time></trkpt>
<trkpt lat="43.979547964408994" lon="5.214529987424612"><ele></ele><time>2015-2-3T2:6:36Z</time></trkpt>
<trkpt lat="43.979681991040707" lon="5.215081935748458"><ele></ele><time>2015-2-3T2:6:39Z</time></trkpt>
<trkpt lat="43.98014098405838" lon="5.215002978220582"><ele></ele><time>2015-2-3T2:6:42Z</time></trkpt>
<trkpt lat="43.980477936565876" lon="5.214307950809598"><ele></ele><time>2015-2-3T2:6:45Z</time></trkpt>
<trkpt lat="43.980929972603917" lon="5.214244918897748"><ele></ele><time>2015-2-3T2:6:48Z</time></trkpt>
<trkpt lat="43.980870964005589" lon="5.215139938518405"><ele></ele><time>2015-2-3T2:6:51Z</time></trkpt>
<trkpt lat="43.980601988732815" lon="5.215888945385814"><ele></ele><time>2015-2-3T2:6:54Z</time></trkpt>
<trkpt lat="43.980521941557527" lon="5.216582966968417"><ele></ele><time>2015-2-3T2:6:57Z</time></trkpt>
<trkpt lat="43.98057097569108" lon="5.2173419483006"><ele></ele><time>2015-2-3T2:7:0Z</time></trkpt>
<trkpt lat="43.980749929323792" lon="5.217923987656832"><ele></ele><time>2015-2-3T2:7:3Z</time></trkpt>
<trkpt lat="43.980714976787567" lon="5.218654973432422"><ele></ele><time>2015-2-3T2:7:6Z</time></trkpt>
<trkpt lat="43.980773985385895" lon="5.219470951706171"><ele></ele><time>2015-2-3T2:7:9Z</time></trkpt>
<trkpt lat="43.981265919283032" lon="5.219688965007663"><ele></ele><time>2015-2-3T2:7:12Z</time></trkpt>
<trkpt lat="43.981573954224586" lon="5.220234962180257"><ele></ele><time>2015-2-3T2:7:15Z</time></trkpt>
<trkpt lat="43.981200959533453" lon="5.220833932980895"><ele></ele><time>2015-2-3T2:7:18Z</time></trkpt>
<trkpt lat="43.981072967872024" lon="5.221452936530113"><ele></ele><time>2015-2-3T2:7:21Z</time></trkpt>
<trkpt lat="43.981328951194882" lon="5.221794918179512"><ele></ele><time>2015-2-3T2:7:24Z</time></trkpt>
<trkpt lat="43.981768917292356" lon="5.221713948994875"><ele></ele><time>2015-2-3T2:7:27Z</time></trkpt>
<trkpt lat="43.981904955580831" lon="5.222055930644274"><ele></ele><time>2015-2-3T2:7:30Z</time></trkpt>
<trkpt lat="43.981434982270002" lon="5.222146958112717"><ele></ele><time>2015-2-3T2:7:33Z</time></trkpt>
<trkpt lat="43.980996944010258" lon="5.222309986129403"><ele></ele><time>2015-2-3T2:7:36Z</time></trkpt>
<trkpt lat="43.980640964582562" lon="5.221899943426251"><ele></ele><time>2015-2-3T2:7:39Z</time></trkpt>
<trkpt lat="43.980228994041681" lon="5.221577994525433"><ele></ele><time>2015-2-3T2:7:42Z</time></trkpt>
<trkpt lat="43.979805959388614" lon="5.222210995852947"><ele></ele><time>2015-2-3T2:7:45Z</time></trkpt>
<trkpt lat="43.979476969689131" lon="5.22271198220551"><ele></ele><time>2015-2-3T2:7:48Z</time></trkpt>
<trkpt lat="43.979253927245736" lon="5.223260996863246"><ele></ele><time>2015-2-3T2:7:51Z</time></trkpt>
<trkpt lat="43.979151919484138" lon="5.22393791936338"><ele></ele><time>2015-2-3T2:7:54Z</time></trkpt>
<trkpt lat="43.979030968621373" lon="5.224860934540629"><ele></ele><time>2015-2-3T2:7:57Z</time></trkpt>
<trkpt lat="43.978693932294846" lon="5.225006947293878"><ele></ele><time>2015-2-3T2:8:0Z</time></trkpt>
<trkpt lat="43.978182971477509" lon="5.22477594204247"><ele></ele><time>2015-2-3T2:8:3Z</time></trkpt>
<trkpt lat="43.97773596458137" lon="5.225090933963656"><ele></ele><time>2015-2-3T2:8:6Z</time></trkpt>
<trkpt lat="43.977185944095254" lon="5.225396957248449"><ele></ele><time>2015-2-3T2:8:9Z</time></trkpt>
<trkpt lat="43.977063987404108" lon="5.225998945534229"><ele></ele><time>2015-2-3T2:8:12Z</time></trkpt>
<trkpt lat="43.976872963830829" lon="5.226633958518505"><ele></ele><time>2015-2-3T2:8:15Z</time></trkpt>
<trkpt lat="43.976310957223177" lon="5.226653991267085"><ele></ele><time>2015-2-3T2:8:18Z</time></trkpt>
<trkpt lat="43.97569396533072" lon="5.226595988497138"><ele></ele><time>2015-2-3T2:8:21Z</time></trkpt>
<trkpt lat="43.975227931514382" lon="5.226539997383952"><ele></ele><time>2015-2-3T2:8:24Z</time></trkpt>
<trkpt lat="43.974307933822274" lon="5.226782988756895"><ele></ele><time>2015-2-3T2:8:27Z</time></trkpt>
<trkpt lat="43.974170973524451" lon="5.227274922654033"><ele></ele><time>2015-2-3T2:8:30Z</time></trkpt>
<trkpt lat="43.974604988470674" lon="5.227856962010264"><ele></ele><time>2015-2-3T2:8:33Z</time></trkpt>
<trkpt lat="43.974998937919736" lon="5.228322995826602"><ele></ele><time>2015-2-3T2:8:36Z</time></trkpt>
<trkpt lat="43.975262967869639" lon="5.228764973580837"><ele></ele><time>2015-2-3T2:8:39Z</time></trkpt>
<trkpt lat="43.974455958232284" lon="5.228584930300713"><ele></ele><time>2015-2-3T2:8:42Z</time></trkpt>
<trkpt lat="43.973957989364862" lon="5.228386949747801"><ele></ele><time>2015-2-3T2:8:45Z</time></trkpt>
<trkpt lat="43.973380979150534" lon="5.228263987228274"><ele></ele><time>2015-2-3T2:8:48Z</time></trkpt>
<trkpt lat="43.972844956442714" lon="5.228151921182871"><ele></ele><time>2015-2-3T2:8:51Z</time></trkpt>
<trkpt lat="43.972480930387974" lon="5.228553917258978"><ele></ele><time>2015-2-3T2:8:54Z</time></trkpt>
<trkpt lat="43.972330978140235" lon="5.229268977418542"><ele></ele><time>2015-2-3T2:8:57Z</time></trkpt>
<trkpt lat="43.972432985901833" lon="5.230282936245203"><ele></ele><time>2015-2-3T2:9:0Z</time></trkpt>
<trkpt lat="43.972763987258077" lon="5.230868998914957"><ele></ele><time>2015-2-3T2:9:3Z</time></trkpt>
<trkpt lat="43.972639935091138" lon="5.231396974995732"><ele></ele><time>2015-2-3T2:9:6Z</time></trkpt>
<trkpt lat="43.97206393070519" lon="5.231375936418772"><ele></ele><time>2015-2-3T2:9:9Z</time></trkpt>
<trkpt lat="43.97111895494163" lon="5.231064967811108"><ele></ele><time>2015-2-3T2:9:12Z</time></trkpt>
<trkpt lat="43.97066499106586" lon="5.230954997241497"><ele></ele><time>2015-2-3T2:9:15Z</time></trkpt>
<trkpt lat="43.969962922856212" lon="5.230940999463201"><ele></ele><time>2015-2-3T2:9:18Z</time></trkpt>
<trkpt lat="43.969396976754069" lon="5.230933958664537"><ele></ele><time>2015-2-3T2:9:21Z</time></trkpt>
<trkpt lat="43.969022976234555" lon="5.231465958058834"><ele></ele><time>2015-2-3T2:9:24Z</time></trkpt>
<trkpt lat="43.969135964289308" lon="5.232787951827049"><ele></ele><time>2015-2-3T2:9:27Z</time></trkpt>
<trkpt lat="43.969587916508317" lon="5.233893943950534"><ele></ele><time>2015-2-3T2:9:30Z</time></trkpt>
<trkpt lat="43.969885976985097" lon="5.23446299135685"><ele></ele><time>2015-2-3T2:9:33Z</time></trkpt>
<trkpt lat="43.970292918384075" lon="5.234929947182536"><ele></ele><time>2015-2-3T2:9:36Z</time></trkpt>
<trkpt lat="43.970790971070528" lon="5.235524978488684"><ele></ele><time>2015-2-3T2:9:39Z</time></trkpt>
<trkpt lat="43.971753967925906" lon="5.236981920897961"><ele></ele><time>2015-2-3T2:9:42Z</time></trkpt>
<trkpt lat="43.972089998424053" lon="5.237469999119639"><ele></ele><time>2015-2-3T2:9:45Z</time></trkpt>
<trkpt lat="43.972508925944567" lon="5.237811980769038"><ele></ele><time>2015-2-3T2:9:48Z</time></trkpt>
<trkpt lat="43.973067998886108" lon="5.238139964640141"><ele></ele><time>2015-2-3T2:9:51Z</time></trkpt>
<trkpt lat="43.973558926954865" lon="5.238624941557646"><ele></ele><time>2015-2-3T2:9:54Z</time></trkpt>
<trkpt lat="43.973299926146865" lon="5.239128945395351"><ele></ele><time>2015-2-3T2:9:57Z</time></trkpt>
<trkpt lat="43.972523929551244" lon="5.238996930420399"><ele></ele><time>2015-2-3T2:10:0Z</time></trkpt>
<trkpt lat="43.971632933244109" lon="5.239265989512205"><ele></ele><time>2015-2-3T2:10:3Z</time></trkpt>
<trkpt lat="43.971156924962997" lon="5.239439997822046"><ele></ele><time>2015-2-3T2:10:6Z</time></trkpt>
<trkpt lat="43.969832919538021" lon="5.24030995555222"><ele></ele><time>2015-2-3T2:10:9Z</time></trkpt>
<trkpt lat="43.969351965934038" lon="5.240662917494774"><ele></ele><time>2015-2-3T2:10:12Z</time></trkpt>
<trkpt lat="43.968698931857944" lon="5.241320980712771"><ele></ele><time>2015-2-3T2:10:15Z</time></trkpt>
<trkpt lat="43.968188976868987" lon="5.24153295904398"><ele></ele><time>2015-2-3T2:10:18Z</time></trkpt>
<trkpt lat="43.967735935002565" lon="5.241788942366839"><ele></ele><time>2015-2-3T2:10:21Z</time></trkpt>
<trkpt lat="43.96763694472611" lon="5.24241398088634"><ele></ele><time>2015-2-3T2:10:24Z</time></trkpt>
<trkpt lat="43.967208964750171" lon="5.242879930883646"><ele></ele><time>2015-2-3T2:10:27Z</time></trkpt>
<trkpt lat="43.966500945389271" lon="5.242630988359451"><ele></ele><time>2015-2-3T2:10:30Z</time></trkpt>
<trkpt lat="43.966013956815004" lon="5.242634927853942"><ele></ele><time>2015-2-3T2:10:33Z</time></trkpt>
<trkpt lat="43.965711956843734" lon="5.243305983021855"><ele></ele><time>2015-2-3T2:10:36Z</time></trkpt>
<trkpt lat="43.965062946081161" lon="5.243158964440227"><ele></ele><time>2015-2-3T2:10:39Z</time></trkpt>
<trkpt lat="43.964661955833435" lon="5.242285989224911"><ele></ele><time>2015-2-3T2:10:42Z</time></trkpt>
<trkpt lat="43.963941950351" lon="5.241754995658994"><ele></ele><time>2015-2-3T2:10:45Z</time></trkpt>
<trkpt lat="43.963250946253538" lon="5.241624992340803"><ele></ele><time>2015-2-3T2:10:48Z</time></trkpt>
<trkpt lat="43.962313933297992" lon="5.241796988993883"><ele></ele><time>2015-2-3T2:10:51Z</time></trkpt>
<trkpt lat="43.961774976924062" lon="5.241738986223936"><ele></ele><time>2015-2-3T2:10:54Z</time></trkpt>
<trkpt lat="43.961434923112392" lon="5.241109924390912"><ele></ele><time>2015-2-3T2:10:57Z</time></trkpt>
<trkpt lat="43.961059916764498" lon="5.240402994677424"><ele></ele><time>2015-2-3T2:11:0Z</time></trkpt>
<trkpt lat="43.960800999775529" lon="5.239891950041056"><ele></ele><time>2015-2-3T2:11:3Z</time></trkpt>
<trkpt lat="43.960280986502767" lon="5.238885954022408"><ele></ele><time>2015-2-3T2:11:6Z</time></trkpt>
<trkpt lat="43.959962977096438" lon="5.238345991820097"><ele></ele><time>2015-2-3T2:11:9Z</time></trkpt>
<trkpt lat="43.959349924698472" lon="5.237682983279228"><ele></ele><time>2015-2-3T2:11:12Z</time></trkpt>
<trkpt lat="43.958712983876467" lon="5.237033972516656"><ele></ele><time>2015-2-3T2:11:15Z</time></trkpt>
<trkpt lat="43.957986943423748" lon="5.23654698394239"><ele></ele><time>2015-2-3T2:11:18Z</time></trkpt>
<trkpt lat="43.957475982606411" lon="5.236328970640898"><ele></ele><time>2015-2-3T2:11:21Z</time></trkpt>
<trkpt lat="43.956445930525661" lon="5.236142976209521"><ele></ele><time>2015-2-3T2:11:24Z</time></trkpt>
<trkpt lat="43.955639926716685" lon="5.236326958984137"><ele></ele><time>2015-2-3T2:11:27Z</time></trkpt>
<trkpt lat="43.95517791621387" lon="5.236538937315345"><ele></ele><time>2015-2-3T2:11:30Z</time></trkpt>
<trkpt lat="43.954645916819572" lon="5.23721493780613"><ele></ele><time>2015-2-3T2:11:33Z</time></trkpt>
<trkpt lat="43.954275939613581" lon="5.237739980220795"><ele></ele><time>2015-2-3T2:11:36Z</time></trkpt>
<trkpt lat="43.953620977699757" lon="5.238550929352641"><ele></ele><time>2015-2-3T2:11:39Z</time></trkpt>
<trkpt lat="43.95317992195487" lon="5.239094998687506"><ele></ele><time>2015-2-3T2:11:42Z</time></trkpt>
<trkpt lat="43.953068945556879" lon="5.239830929785967"><ele></ele><time>2015-2-3T2:11:45Z</time></trkpt>
<trkpt lat="43.952630991116166" lon="5.240670964121819"><ele></ele><time>2015-2-3T2:11:48Z</time></trkpt>
<trkpt lat="43.952151965349913" lon="5.241019986569881"><ele></ele><time>2015-2-3T2:11:51Z</time></trkpt>
<trkpt lat="43.951570931822062" lon="5.24127596989274"><ele></ele><time>2015-2-3T2:11:54Z</time></trkpt>
<trkpt lat="43.951277984306216" lon="5.242104940116406"><ele></ele><time>2015-2-3T2:11:57Z</time></trkpt>
<trkpt lat="43.951748963445425" lon="5.242338962852955"><ele></ele><time>2015-2-3T2:12:0Z</time></trkpt>
<trkpt lat="43.951984997838736" lon="5.242616990581155"><ele></ele><time>2015-2-3T2:12:3Z</time></trkpt>
<trkpt lat="43.951495997607708" lon="5.242174929007888"><ele></ele><time>2015-2-3T2:12:6Z</time></trkpt>
<trkpt lat="43.951164996251464" lon="5.243047988042235"><ele></ele><time>2015-2-3T2:12:9Z</time></trkpt>
<trkpt lat="43.950695944949985" lon="5.243108924478293"><ele></ele><time>2015-2-3T2:12:12Z</time></trkpt>
<trkpt lat="43.950271988287568" lon="5.242729978635907"><ele></ele><time>2015-2-3T2:12:15Z</time></trkpt>
<trkpt lat="43.949974933639169" lon="5.242553958669305"><ele></ele><time>2015-2-3T2:12:18Z</time></trkpt>
<trkpt lat="43.949484927579761" lon="5.242195967584848"><ele></ele><time>2015-2-3T2:12:21Z</time></trkpt>
<trkpt lat="43.949046973139048" lon="5.242167972028256"><ele></ele><time>2015-2-3T2:12:24Z</time></trkpt>
<trkpt lat="43.948658974841237" lon="5.242762919515371"><ele></ele><time>2015-2-3T2:12:27Z</time></trkpt>
<trkpt lat="43.948346916586161" lon="5.243256948888302"><ele></ele><time>2015-2-3T2:12:30Z</time></trkpt>
<trkpt lat="43.947905944660306" lon="5.242897951975465"><ele></ele><time>2015-2-3T2:12:33Z</time></trkpt>
<trkpt lat="43.947177976369858" lon="5.242160931229591"><ele></ele><time>2015-2-3T2:12:36Z</time></trkpt>
<trkpt lat="43.946616975590587" lon="5.241733957082033"><ele></ele><time>2015-2-3T2:12:39Z</time></trkpt>
<trkpt lat="43.946081958711147" lon="5.24144796654582"><ele></ele><time>2015-2-3T2:12:42Z</time></trkpt>
<trkpt lat="43.945374945178628" lon="5.240785963833332"><ele></ele><time>2015-2-3T2:12:45Z</time></trkpt>
<trkpt lat="43.945061964914203" lon="5.240946980193257"><ele></ele><time>2015-2-3T2:12:48Z</time></trkpt>
<trkpt lat="43.945580972358584" lon="5.241601942107081"><ele></ele><time>2015-2-3T2:12:51Z</time></trkpt>
<trkpt lat="43.945852965116501" lon="5.242193955928087"><ele></ele><time>2015-2-3T2:12:54Z</time></trkpt>
<trkpt lat="43.945815917104483" lon="5.242883954197168"><ele></ele><time>2015-2-3T2:12:57Z</time></trkpt>
<trkpt lat="43.94583092071116" lon="5.243919957429171"><ele></ele><time>2015-2-3T2:13:0Z</time></trkpt>
<trkpt lat="43.945792950689793" lon="5.244832998141646"><ele></ele><time>2015-2-3T2:13:3Z</time></trkpt>
<trkpt lat="43.945729918777943" lon="5.245805969461799"><ele></ele><time>2015-2-3T2:13:6Z</time></trkpt>
<trkpt lat="43.945746934041381" lon="5.246637957170606"><ele></ele><time>2015-2-3T2:13:9Z</time></trkpt>
<trkpt lat="43.945496985688806" lon="5.24776297621429"><ele></ele><time>2015-2-3T2:13:12Z</time></trkpt>
<trkpt lat="43.945066994056106" lon="5.248789926990867"><ele></ele><time>2015-2-3T2:13:15Z</time></trkpt>
<trkpt lat="43.944864990189672" lon="5.249635996297002"><ele></ele><time>2015-2-3T2:13:18Z</time></trkpt>
<trkpt lat="43.945130947977304" lon="5.250490950420499"><ele></ele><time>2015-2-3T2:13:21Z</time></trkpt>
<trkpt lat="43.945448957383633" lon="5.251314975321293"><ele></ele><time>2015-2-3T2:13:24Z</time></trkpt>
<trkpt lat="43.945849947631359" lon="5.251713953912258"><ele></ele><time>2015-2-3T2:13:27Z</time></trkpt>
<trkpt lat="43.946315981447697" lon="5.252025928348303"><ele></ele><time>2015-2-3T2:13:30Z</time></trkpt>
<trkpt lat="43.94630097784102" lon="5.253089927136898"><ele></ele><time>2015-2-3T2:13:33Z</time></trkpt>
<trkpt lat="43.946385970339179" lon="5.253809932619333"><ele></ele><time>2015-2-3T2:13:36Z</time></trkpt>
<trkpt lat="43.946116995066404" lon="5.254634963348508"><ele></ele><time>2015-2-3T2:13:39Z</time></trkpt>
<trkpt lat="43.945556916296482" lon="5.255041988566518"><ele></ele><time>2015-2-3T2:13:42Z</time></trkpt>
<trkpt lat="43.945601927116513" lon="5.256303967908025"><ele></ele><time>2015-2-3T2:13:45Z</time></trkpt>
<trkpt lat="43.945666970685124" lon="5.257545998319984"><ele></ele><time>2015-2-3T2:13:48Z</time></trkpt>
<trkpt lat="43.945643920451403" lon="5.258368933573365"><ele></ele><time>2015-2-3T2:13:51Z</time></trkpt>
<trkpt lat="43.945637969300151" lon="5.259384987875819"><ele></ele><time>2015-2-3T2:13:54Z</time></trkpt>
<trkpt lat="43.945713993161917" lon="5.260772947221994"><ele></ele><time>2015-2-3T2:13:57Z</time></trkpt>
<trkpt lat="43.945791944861412" lon="5.262268949300051"><ele></ele><time>2015-2-3T2:14:0Z</time></trkpt>
<trkpt lat="43.945690942928195" lon="5.263125998899341"><ele></ele><time>2015-2-3T2:14:3Z</time></trkpt>
<trkpt lat="43.945211917161942" lon="5.263910964131355"><ele></ele><time>2015-2-3T2:14:6Z</time></trkpt>
<trkpt lat="43.944501969963312" lon="5.264229979366064"><ele></ele><time>2015-2-3T2:14:9Z</time></trkpt>
<trkpt lat="43.944036941975355" lon="5.264582941308618"><ele></ele><time>2015-2-3T2:14:12Z</time></trkpt>
<trkpt lat="43.943626983091235" lon="5.265569994226098"><ele></ele><time>2015-2-3T2:14:15Z</time></trkpt>
<trkpt lat="43.943587923422456" lon="5.267496993765235"><ele></ele><time>2015-2-3T2:14:18Z</time></trkpt>
<trkpt lat="43.943451968953013" lon="5.2686039917171"><ele></ele><time>2015-2-3T2:14:21Z</time></trkpt>
<trkpt lat="43.943139994516969" lon="5.269417958334088"><ele></ele><time>2015-2-3T2:14:24Z</time></trkpt>
<trkpt lat="43.942892979830503" lon="5.269955992698669"><ele></ele><time>2015-2-3T2:14:27Z</time></trkpt>
<trkpt lat="43.942547980695963" lon="5.270370980724692"><ele></ele><time>2015-2-3T2:14:30Z</time></trkpt>
<trkpt lat="43.942098962143064" lon="5.270493943244219"><ele></ele><time>2015-2-3T2:14:33Z</time></trkpt>
<trkpt lat="43.941552964970469" lon="5.270583964884281"><ele></ele><time>2015-2-3T2:14:36Z</time></trkpt>
<trkpt lat="43.941150968894362" lon="5.270878924056888"><ele></ele><time>2015-2-3T2:14:39Z</time></trkpt>
<trkpt lat="43.940579993650317" lon="5.270937932655215"><ele></ele><time>2015-2-3T2:14:42Z</time></trkpt>
<trkpt lat="43.93964096903801" lon="5.270939944311976"><ele></ele><time>2015-2-3T2:14:45Z</time></trkpt>
<trkpt lat="43.93882792443037" lon="5.271377982571721"><ele></ele><time>2015-2-3T2:14:48Z</time></trkpt>
<trkpt lat="43.938117977231741" lon="5.271779978647828"><ele></ele><time>2015-2-3T2:14:51Z</time></trkpt>
<trkpt lat="43.937663929536939" lon="5.27210695669055"><ele></ele><time>2015-2-3T2:14:54Z</time></trkpt>
<trkpt lat="43.937152968719602" lon="5.272598974406719"><ele></ele><time>2015-2-3T2:14:57Z</time></trkpt>
<trkpt lat="43.936855997890234" lon="5.273102978244424"><ele></ele><time>2015-2-3T2:15:0Z</time></trkpt>
<trkpt lat="43.936489960178733" lon="5.274113919585943"><ele></ele><time>2015-2-3T2:15:3Z</time></trkpt>
<trkpt lat="43.936528936028481" lon="5.274999970570207"><ele></ele><time>2015-2-3T2:15:6Z</time></trkpt>
<trkpt lat="43.936809981241822" lon="5.275742942467332"><ele></ele><time>2015-2-3T2:15:9Z</time></trkpt>
<trkpt lat="43.936884999275208" lon="5.276456996798515"><ele></ele><time>2015-2-3T2:15:12Z</time></trkpt>
<trkpt lat="43.936847951263189" lon="5.277233999222517"><ele></ele><time>2015-2-3T2:15:15Z</time></trkpt>
<trkpt lat="43.936777962371707" lon="5.278199929744005"><ele></ele><time>2015-2-3T2:15:18Z</time></trkpt>
<trkpt lat="43.936648964881897" lon="5.278798984363675"><ele></ele><time>2015-2-3T2:15:21Z</time></trkpt>
<trkpt lat="43.936305977404118" lon="5.2795419562608"><ele></ele><time>2015-2-3T2:15:24Z</time></trkpt>
<trkpt lat="43.935847990214825" lon="5.280502941459417"><ele></ele><time>2015-2-3T2:15:27Z</time></trkpt>
<trkpt lat="43.934993958100677" lon="5.281080957502127"><ele></ele><time>2015-2-3T2:15:30Z</time></trkpt>
<trkpt lat="43.934328937903047" lon="5.281393937766552"><ele></ele><time>2015-2-3T2:15:33Z</time></trkpt>
<trkpt lat="43.933697948232293" lon="5.281716976314783"><ele></ele><time>2015-2-3T2:15:36Z</time></trkpt>
<trkpt lat="43.933279942721128" lon="5.281948987394571"><ele></ele><time>2015-2-3T2:15:39Z</time></trkpt>
<trkpt lat="43.93289496190846" lon="5.282369926571846"><ele></ele><time>2015-2-3T2:15:42Z</time></trkpt>
<trkpt lat="43.932404955849051" lon="5.283124968409538"><ele></ele><time>2015-2-3T2:15:45Z</time></trkpt>
<trkpt lat="43.932042941451073" lon="5.284337997436523"><ele></ele><time>2015-2-3T2:15:48Z</time></trkpt>
<trkpt lat="43.931851917877793" lon="5.285032941028476"><ele></ele><time>2015-2-3T2:15:51Z</time></trkpt>
<trkpt lat="43.931685956194997" lon="5.28568597510457"><ele></ele><time>2015-2-3T2:15:54Z</time></trkpt>
<trkpt lat="43.931484958156943" lon="5.286533972248435"><ele></ele><time>2015-2-3T2:15:57Z</time></trkpt>
<trkpt lat="43.931247917935252" lon="5.28751096688211"><ele></ele><time>2015-2-3T2:16:0Z</time></trkpt>
<trkpt lat="43.930965950712562" lon="5.288680996745825"><ele></ele><time>2015-2-3T2:16:3Z</time></trkpt>
<trkpt lat="43.930771993473172" lon="5.289502926170826"><ele></ele><time>2015-2-3T2:16:6Z</time></trkpt>
<trkpt lat="43.930445937439799" lon="5.290664993226528"><ele></ele><time>2015-2-3T2:16:9Z</time></trkpt>
<trkpt lat="43.929769936949015" lon="5.2917439956218"><ele></ele><time>2015-2-3T2:16:12Z</time></trkpt>
<trkpt lat="43.929373975843191" lon="5.292342966422439"><ele></ele><time>2015-2-3T2:16:15Z</time></trkpt>
<trkpt lat="43.928568977862597" lon="5.29309993609786"><ele></ele><time>2015-2-3T2:16:18Z</time></trkpt>
<trkpt lat="43.927860958501697" lon="5.294040972366929"><ele></ele><time>2015-2-3T2:16:21Z</time></trkpt>
<trkpt lat="43.927614949643612" lon="5.294619994238019"><ele></ele><time>2015-2-3T2:16:24Z</time></trkpt>
<trkpt lat="43.927297946065664" lon="5.295221982523799"><ele></ele><time>2015-2-3T2:16:27Z</time></trkpt>
<trkpt lat="43.927495926618576" lon="5.295926984399557"><ele></ele><time>2015-2-3T2:16:30Z</time></trkpt>
<trkpt lat="43.927813936024904" lon="5.296866931021214"><ele></ele><time>2015-2-3T2:16:33Z</time></trkpt>
<trkpt lat="43.928175950422883" lon="5.297950962558389"><ele></ele><time>2015-2-3T2:16:36Z</time></trkpt>
<trkpt lat="43.928432939574122" lon="5.299084950238466"><ele></ele><time>2015-2-3T2:16:39Z</time></trkpt>
<trkpt lat="43.928566966205835" lon="5.299737984314561"><ele></ele><time>2015-2-3T2:16:42Z</time></trkpt>
<trkpt lat="43.928747931495309" lon="5.300319939851761"><ele></ele><time>2015-2-3T2:16:45Z</time></trkpt>
<trkpt lat="43.929097959771752" lon="5.301219988614321"><ele></ele><time>2015-2-3T2:16:48Z</time></trkpt>
<trkpt lat="43.929212959483266" lon="5.3018859308213"><ele></ele><time>2015-2-3T2:16:51Z</time></trkpt>
<trkpt lat="43.929377999156713" lon="5.302719930186868"><ele></ele><time>2015-2-3T2:16:54Z</time></trkpt>
<trkpt lat="43.929690979421139" lon="5.303615955635905"><ele></ele><time>2015-2-3T2:16:57Z</time></trkpt>
<trkpt lat="43.929998930543661" lon="5.30446395277977"><ele></ele><time>2015-2-3T2:17:0Z</time></trkpt>
<trkpt lat="43.930280981585383" lon="5.305247996002436"><ele></ele><time>2015-2-3T2:17:3Z</time></trkpt>
<trkpt lat="43.930524978786707" lon="5.306158941239119"><ele></ele><time>2015-2-3T2:17:6Z</time></trkpt>
<trkpt lat="43.930744919925928" lon="5.307281948626041"><ele></ele><time>2015-2-3T2:17:9Z</time></trkpt>
<trkpt lat="43.930753972381353" lon="5.308289956301451"><ele></ele><time>2015-2-3T2:17:12Z</time></trkpt>
<trkpt lat="43.930695969611406" lon="5.309149939566851"><ele></ele><time>2015-2-3T2:17:15Z</time></trkpt>
<trkpt lat="43.930652970448136" lon="5.309957955032587"><ele></ele><time>2015-2-3T2:17:18Z</time></trkpt>
<trkpt lat="43.930670991539955" lon="5.310713918879628"><ele></ele><time>2015-2-3T2:17:21Z</time></trkpt>
<trkpt lat="43.930706949904561" lon="5.31198495067656"><ele></ele><time>2015-2-3T2:17:24Z</time></trkpt>
<trkpt lat="43.930736957117915" lon="5.312792966142297"><ele></ele><time>2015-2-3T2:17:27Z</time></trkpt>
<trkpt lat="43.930757995694876" lon="5.313479946926236"><ele></ele><time>2015-2-3T2:17:30Z</time></trkpt>
<trkpt lat="43.930785991251469" lon="5.314236916601658"><ele></ele><time>2015-2-3T2:17:33Z</time></trkpt>
<trkpt lat="43.930826978757977" lon="5.315190944820643"><ele></ele><time>2015-2-3T2:17:36Z</time></trkpt>
<trkpt lat="43.93085497431457" lon="5.31619593501091"><ele></ele><time>2015-2-3T2:17:39Z</time></trkpt>
<trkpt lat="43.93089696764946" lon="5.317423967644572"><ele></ele><time>2015-2-3T2:17:42Z</time></trkpt>
<trkpt lat="43.930934937670827" lon="5.318360980600119"><ele></ele><time>2015-2-3T2:17:45Z</time></trkpt>
<trkpt lat="43.930980954319239" lon="5.319240996614099"><ele></ele><time>2015-2-3T2:17:48Z</time></trkpt>
<trkpt lat="43.930894955992699" lon="5.320182954892516"><ele></ele><time>2015-2-3T2:17:51Z</time></trkpt>
<trkpt lat="43.930709967389703" lon="5.321283917874098"><ele></ele><time>2015-2-3T2:17:54Z</time></trkpt>
<trkpt lat="43.9305339474231" lon="5.32227692194283"><ele></ele><time>2015-2-3T2:17:57Z</time></trkpt>
<trkpt lat="43.930625980719924" lon="5.323289958760142"><ele></ele><time>2015-2-3T2:18:0Z</time></trkpt>
<trkpt lat="43.931096959859133" lon="5.324074923992157"><ele></ele><time>2015-2-3T2:18:3Z</time></trkpt>
<trkpt lat="43.931567938998342" lon="5.325117968022823"><ele></ele><time>2015-2-3T2:18:6Z</time></trkpt>
<trkpt lat="43.931848984211683" lon="5.325743928551674"><ele></ele><time>2015-2-3T2:18:9Z</time></trkpt>
<trkpt lat="43.932094993069768" lon="5.326329991221428"><ele></ele><time>2015-2-3T2:18:12Z</time></trkpt>
<trkpt lat="43.932403950020671" lon="5.327037926763296"><ele></ele><time>2015-2-3T2:18:15Z</time></trkpt>
<trkpt lat="43.932626992464066" lon="5.32786094583571"><ele></ele><time>2015-2-3T2:18:18Z</time></trkpt>
<trkpt lat="43.932194989174604" lon="5.328273922204971"><ele></ele><time>2015-2-3T2:18:21Z</time></trkpt>
<trkpt lat="43.931646980345249" lon="5.328433932736516"><ele></ele><time>2015-2-3T2:18:24Z</time></trkpt>
<trkpt lat="43.931153956800699" lon="5.328660998493433"><ele></ele><time>2015-2-3T2:18:27Z</time></trkpt>
<trkpt lat="43.93076897598803" lon="5.329087972640991"><ele></ele><time>2015-2-3T2:18:30Z</time></trkpt>
<trkpt lat="43.930487930774689" lon="5.329748969525099"><ele></ele><time>2015-2-3T2:18:33Z</time></trkpt>
<trkpt lat="43.930077971890569" lon="5.330398986116052"><ele></ele><time>2015-2-3T2:18:36Z</time></trkpt>
<trkpt lat="43.929593916982412" lon="5.330398986116052"><ele></ele><time>2015-2-3T2:18:39Z</time></trkpt>
<trkpt lat="43.929212959483266" lon="5.330879939720035"><ele></ele><time>2015-2-3T2:18:42Z</time></trkpt>
<trkpt lat="43.928918922320008" lon="5.331953996792436"><ele></ele><time>2015-2-3T2:18:45Z</time></trkpt>
<trkpt lat="43.928715996444225" lon="5.33269596286118"><ele></ele><time>2015-2-3T2:18:48Z</time></trkpt>
<trkpt lat="43.928608959540725" lon="5.333819976076484"><ele></ele><time>2015-2-3T2:18:51Z</time></trkpt>
<trkpt lat="43.928704932332039" lon="5.335000986233354"><ele></ele><time>2015-2-3T2:18:54Z</time></trkpt>
<trkpt lat="43.928784979507327" lon="5.336221978068352"><ele></ele><time>2015-2-3T2:18:57Z</time></trkpt>
<trkpt lat="43.928736951202154" lon="5.337048936635256"><ele></ele><time>2015-2-3T2:19:0Z</time></trkpt>
<trkpt lat="43.928643995895982" lon="5.338101955130696"><ele></ele><time>2015-2-3T2:19:3Z</time></trkpt>
<trkpt lat="43.928238982334733" lon="5.339448926970363"><ele></ele><time>2015-2-3T2:19:6Z</time></trkpt>
<trkpt lat="43.92801895737648" lon="5.340747954323888"><ele></ele><time>2015-2-3T2:19:9Z</time></trkpt>
<trkpt lat="43.92808198928833" lon="5.341953942552209"><ele></ele><time>2015-2-3T2:19:12Z</time></trkpt>
<trkpt lat="43.928255997598171" lon="5.342644946649671"><ele></ele><time>2015-2-3T2:19:15Z</time></trkpt>
<trkpt lat="43.928838958963752" lon="5.343570979312062"><ele></ele><time>2015-2-3T2:19:18Z</time></trkpt>
<trkpt lat="43.929388979449868" lon="5.344296935945749"><ele></ele><time>2015-2-3T2:19:21Z</time></trkpt>
<trkpt lat="43.929680921137333" lon="5.344830946996808"><ele></ele><time>2015-2-3T2:19:24Z</time></trkpt>
<trkpt lat="43.930018963292241" lon="5.345535948872566"><ele></ele><time>2015-2-3T2:19:27Z</time></trkpt>
<trkpt lat="43.930400926619768" lon="5.34633994102478"><ele></ele><time>2015-2-3T2:19:30Z</time></trkpt>
<trkpt lat="43.930686917155981" lon="5.347077967599034"><ele></ele><time>2015-2-3T2:19:33Z</time></trkpt>
<trkpt lat="43.930803928524256" lon="5.347765954211354"><ele></ele><time>2015-2-3T2:19:36Z</time></trkpt>
<trkpt lat="43.930909959599376" lon="5.348587967455387"><ele></ele><time>2015-2-3T2:19:39Z</time></trkpt>
<trkpt lat="43.931156974285841" lon="5.349326999858022"><ele></ele><time>2015-2-3T2:19:42Z</time></trkpt>
<trkpt lat="43.931775977835059" lon="5.349193979054689"><ele></ele><time>2015-2-3T2:19:45Z</time></trkpt>
<trkpt lat="43.932535964995623" lon="5.349061964079738"><ele></ele><time>2015-2-3T2:19:48Z</time></trkpt>
<trkpt lat="43.933050949126482" lon="5.349032962694764"><ele></ele><time>2015-2-3T2:19:51Z</time></trkpt>
<trkpt lat="43.933561993762851" lon="5.348930954933167"><ele></ele><time>2015-2-3T2:19:54Z</time></trkpt>
<trkpt lat="43.934035990387201" lon="5.34850993193686"><ele></ele><time>2015-2-3T2:19:57Z</time></trkpt>
<trkpt lat="43.934455923736095" lon="5.34801296889782"><ele></ele><time>2015-2-3T2:20:0Z</time></trkpt>
<trkpt lat="43.935146927833557" lon="5.34842292778194"><ele></ele><time>2015-2-3T2:20:3Z</time></trkpt>
<trkpt lat="43.935657972469926" lon="5.349255921319127"><ele></ele><time>2015-2-3T2:20:6Z</time></trkpt>
<trkpt lat="43.936018981039524" lon="5.350035941228271"><ele></ele><time>2015-2-3T2:20:9Z</time></trkpt>
<trkpt lat="43.936335984617472" lon="5.350824929773808"><ele></ele><time>2015-2-3T2:20:12Z</time></trkpt>
<trkpt lat="43.93654796294868" lon="5.351433958858252"><ele></ele><time>2015-2-3T2:20:15Z</time></trkpt>
<trkpt lat="43.936994969844818" lon="5.351907955482602"><ele></ele><time>2015-2-3T2:20:18Z</time></trkpt>
<trkpt lat="43.937379950657487" lon="5.352358985692263"><ele></ele><time>2015-2-3T2:20:21Z</time></trkpt>
<trkpt lat="43.937727967277169" lon="5.352775985375047"><ele></ele><time>2015-2-3T2:20:24Z</time></trkpt>
<trkpt lat="43.937861993908882" lon="5.353544941172004"><ele></ele><time>2015-2-3T2:20:27Z</time></trkpt>
<trkpt lat="43.938001971691847" lon="5.354665936902165"><ele></ele><time>2015-2-3T2:20:30Z</time></trkpt>
<trkpt lat="43.938091993331909" lon="5.355763966217637"><ele></ele><time>2015-2-3T2:20:33Z</time></trkpt>
<trkpt lat="43.938164999708533" lon="5.356429992243648"><ele></ele><time>2015-2-3T2:20:36Z</time></trkpt>
<trkpt lat="43.93828796222806" lon="5.357370944693685"><ele></ele><time>2015-2-3T2:20:39Z</time></trkpt>
<trkpt lat="43.938369937241077" lon="5.358321955427527"><ele></ele><time>2015-2-3T2:20:42Z</time></trkpt>
<trkpt lat="43.938433974981308" lon="5.359259974211454"><ele></ele><time>2015-2-3T2:20:45Z</time></trkpt>
<trkpt lat="43.938517961651087" lon="5.360172931104899"><ele></ele><time>2015-2-3T2:20:48Z</time></trkpt>
<trkpt lat="43.938622986897826" lon="5.360852954909205"><ele></ele><time>2015-2-3T2:20:51Z</time></trkpt>
<trkpt lat="43.938722983002663" lon="5.361529961228371"><ele></ele><time>2015-2-3T2:20:54Z</time></trkpt>
<trkpt lat="43.938747961074114" lon="5.362280979752541"><ele></ele><time>2015-2-3T2:20:57Z</time></trkpt>
<trkpt lat="43.938736980780959" lon="5.362968966364861"><ele></ele><time>2015-2-3T2:21:0Z</time></trkpt>
<trkpt lat="43.938712924718857" lon="5.363673968240619"><ele></ele><time>2015-2-3T2:21:3Z</time></trkpt>
<trkpt lat="43.938726922497153" lon="5.364382993429899"><ele></ele><time>2015-2-3T2:21:6Z</time></trkpt>
<trkpt lat="43.93882792443037" lon="5.36505195312202"><ele></ele><time>2015-2-3T2:21:9Z</time></trkpt>
<trkpt lat="43.938911994919181" lon="5.365686966106296"><ele></ele><time>2015-2-3T2:21:12Z</time></trkpt>
<trkpt lat="43.939017942175269" lon="5.366493975743651"><ele></ele><time>2015-2-3T2:21:15Z</time></trkpt>
<trkpt lat="43.939208965748549" lon="5.367384972050786"><ele></ele><time>2015-2-3T2:21:18Z</time></trkpt>
<trkpt lat="43.939479952678084" lon="5.36823095753789"><ele></ele><time>2015-2-3T2:21:21Z</time></trkpt>
<trkpt lat="43.939868956804276" lon="5.369270984083414"><ele></ele><time>2015-2-3T2:21:24Z</time></trkpt>
<trkpt lat="43.940026955679059" lon="5.370046980679035"><ele></ele><time>2015-2-3T2:21:27Z</time></trkpt>
<trkpt lat="43.939944980666041" lon="5.370717952027917"><ele></ele><time>2015-2-3T2:21:30Z</time></trkpt>
<trkpt lat="43.939954955130816" lon="5.371643984690309"><ele></ele><time>2015-2-3T2:21:33Z</time></trkpt>
</trkseg></trk></gpx>